<?xml version='1.0' encoding='UTF-8'?><gpx version="1.1" creator="JPX - https://github.com/jenetics/jpx" xmlns="http://www.topografix.com/GPX/1/1"><trk><trkseg><trkpt lat="44.40359465310388" lon="12.197077812755449"><ele>1.9999999999999998</ele><time>2026-04-26T05:56:26.153Z</time></trkpt><trkpt lat="44.403528799908216" lon="12.197152746436556"><ele>2.0</ele><time>2026-04-26T05:57:54Z</time></trkpt><trkpt lat="44.403549496013554" lon="12.197066943126591"><ele>2.0</ele><time>2026-04-26T05:58:06.001Z</time></trkpt><trkpt lat="44.403491158355436" lon="12.196988014967303"><ele>2.0</ele><time>2026-04-26T05:58:08.001Z</time></trkpt><trkpt lat="44.40342550311995" lon="12.196884982611806"><ele>1.9999999999999998</ele><time>2026-04-26T05:58:10.001Z</time></trkpt><trkpt lat="44.40335959458088" lon="12.196836573124044"><ele>2.0</ele><time>2026-04-26T05:58:11.001Z</time></trkpt><trkpt lat="44.40329410320191" lon="12.196803354442485"><ele>1.9999999999999998</ele><time>2026-04-26T05:58:12.001Z</time></trkpt><trkpt lat="44.40322463187227" lon="12.196766101175536"><ele>2.0</ele><time>2026-04-26T05:58:13.001Z</time></trkpt><trkpt lat="44.40315775854248" lon="12.196710610070244"><ele>2.0</ele><time>2026-04-26T05:58:14.001Z</time></trkpt><trkpt lat="44.403105701226494" lon="12.19664419184287"><ele>2.0</ele><time>2026-04-26T05:58:15.001Z</time></trkpt><trkpt lat="44.403052149413135" lon="12.19659133190182"><ele>1.9999999999999998</ele><time>2026-04-26T05:58:16.001Z</time></trkpt><trkpt lat="44.40299397073623" lon="12.196544583043535"><ele>2.0</ele><time>2026-04-26T05:58:17.001Z</time></trkpt><trkpt lat="44.4028776228175" lon="12.196555443030508"><ele>2.0</ele><time>2026-04-26T05:58:19.001Z</time></trkpt><trkpt lat="44.40276786274401" lon="12.196604604780811"><ele>2.0</ele><time>2026-04-26T05:58:21.001Z</time></trkpt><trkpt lat="44.402652895579244" lon="12.196623556916702"><ele>2.0</ele><time>2026-04-26T05:58:23.001Z</time></trkpt><trkpt lat="44.40258078693113" lon="12.19662386663507"><ele>2.0</ele><time>2026-04-26T05:58:24.001Z</time></trkpt><trkpt lat="44.40249833876265" lon="12.196607340066308"><ele>2.0</ele><time>2026-04-26T05:58:25.001Z</time></trkpt><trkpt lat="44.40238027100432" lon="12.196578067313778"><ele>2.0</ele><time>2026-04-26T05:58:27.001Z</time></trkpt><trkpt lat="44.402262907079006" lon="12.196553257616948"><ele>2.0</ele><time>2026-04-26T05:58:29.001Z</time></trkpt><trkpt lat="44.40214922006912" lon="12.19651927930914"><ele>2.0</ele><time>2026-04-26T05:58:31.001Z</time></trkpt><trkpt lat="44.4020678410009" lon="12.196506719562564"><ele>2.0</ele><time>2026-04-26T05:58:33.001Z</time></trkpt><trkpt lat="44.40200017892729" lon="12.196508484949108"><ele>2.0</ele><time>2026-04-26T05:58:35.001Z</time></trkpt><trkpt lat="44.40194001421093" lon="12.196596897916402"><ele>1.9999999999999998</ele><time>2026-04-26T05:58:37.001Z</time></trkpt><trkpt lat="44.40192659692553" lon="12.196708484133737"><ele>2.0</ele><time>2026-04-26T05:58:39.001Z</time></trkpt><trkpt lat="44.40191550963719" lon="12.196824058441047"><ele>2.0</ele><time>2026-04-26T05:58:42.001Z</time></trkpt><trkpt lat="44.40184223361445" lon="12.196899799169012"><ele>2.0</ele><time>2026-04-26T05:58:45.001Z</time></trkpt><trkpt lat="44.401756091003065" lon="12.19689422405208"><ele>1.9999999999999998</ele><time>2026-04-26T05:58:47.001Z</time></trkpt><trkpt lat="44.40168368214712" lon="12.196880640893692"><ele>2.0</ele><time>2026-04-26T05:58:48.001Z</time></trkpt><trkpt lat="44.40156831898559" lon="12.196855559482435"><ele>2.0</ele><time>2026-04-26T05:58:50.001Z</time></trkpt><trkpt lat="44.40150222399404" lon="12.196837154865982"><ele>2.0</ele><time>2026-04-26T05:58:51.001Z</time></trkpt><trkpt lat="44.40142364530177" lon="12.196817770309753"><ele>2.0</ele><time>2026-04-26T05:58:52.001Z</time></trkpt><trkpt lat="44.40132218641147" lon="12.196830553725539"><ele>2.0</ele><time>2026-04-26T05:58:53.001Z</time></trkpt><trkpt lat="44.40120218926428" lon="12.196808145808157"><ele>2.0</ele><time>2026-04-26T05:58:54.001Z</time></trkpt><trkpt lat="44.40108543192602" lon="12.196777214049527"><ele>2.5</ele><time>2026-04-26T05:58:55.001Z</time></trkpt><trkpt lat="44.40096426928123" lon="12.196755801249195"><ele>3.0</ele><time>2026-04-26T05:58:56.001Z</time></trkpt><trkpt lat="44.400837641453286" lon="12.19674318715514"><ele>3.5</ele><time>2026-04-26T05:58:57.001Z</time></trkpt><trkpt lat="44.40070535529812" lon="12.196727676175216"><ele>4.0</ele><time>2026-04-26T05:58:58.001Z</time></trkpt><trkpt lat="44.40056870907859" lon="12.196716038254872"><ele>3.75</ele><time>2026-04-26T05:58:59.001Z</time></trkpt><trkpt lat="44.40042616980575" lon="12.196712984227126"><ele>3.5</ele><time>2026-04-26T05:59:00.001Z</time></trkpt><trkpt lat="44.400292352449725" lon="12.196711425875685"><ele>3.25</ele><time>2026-04-26T05:59:01.001Z</time></trkpt><trkpt lat="44.40014369517086" lon="12.196711751929513"><ele>3.0</ele><time>2026-04-26T05:59:02.001Z</time></trkpt><trkpt lat="44.399992895215554" lon="12.196708889913852"><ele>3.0</ele><time>2026-04-26T05:59:03.001Z</time></trkpt><trkpt lat="44.39984295035125" lon="12.196707143076809"><ele>3.0</ele><time>2026-04-26T05:59:04.001Z</time></trkpt><trkpt lat="44.39969169101689" lon="12.196714286974988"><ele>3.0</ele><time>2026-04-26T05:59:05.001Z</time></trkpt><trkpt lat="44.39952932024716" lon="12.196731153530159"><ele>3.333333333333333</ele><time>2026-04-26T05:59:06.001Z</time></trkpt><trkpt lat="44.39936752002242" lon="12.196746718986802"><ele>3.6666666666666665</ele><time>2026-04-26T05:59:07.001Z</time></trkpt><trkpt lat="44.3992082470992" lon="12.196761042179611"><ele>4.0</ele><time>2026-04-26T05:59:08.001Z</time></trkpt><trkpt lat="44.399041173117425" lon="12.196778834549272"><ele>4.0</ele><time>2026-04-26T05:59:09.001Z</time></trkpt><trkpt lat="44.39887186038956" lon="12.196750770457863"><ele>4.0</ele><time>2026-04-26T05:59:10.001Z</time></trkpt><trkpt lat="44.39869964619826" lon="12.196757231617141"><ele>4.0</ele><time>2026-04-26T05:59:11.001Z</time></trkpt><trkpt lat="44.39852063370483" lon="12.196762188935617"><ele>3.6666666666666665</ele><time>2026-04-26T05:59:12.001Z</time></trkpt><trkpt lat="44.39834475602114" lon="12.19678703562985"><ele>3.333333333333333</ele><time>2026-04-26T05:59:13.001Z</time></trkpt><trkpt lat="44.39816621369764" lon="12.19677256403149"><ele>3.0</ele><time>2026-04-26T05:59:14.001Z</time></trkpt><trkpt lat="44.39797511398594" lon="12.196775180122506"><ele>2.3333333333333335</ele><time>2026-04-26T05:59:15.001Z</time></trkpt><trkpt lat="44.397777356139144" lon="12.196775641691632"><ele>1.6666666666666665</ele><time>2026-04-26T05:59:16.001Z</time></trkpt><trkpt lat="44.3975694052923" lon="12.196778089328369"><ele>1.0</ele><time>2026-04-26T05:59:17.001Z</time></trkpt><trkpt lat="44.39735232421756" lon="12.196782868899895"><ele>2.0</ele><time>2026-04-26T05:59:18.001Z</time></trkpt><trkpt lat="44.39714023503738" lon="12.196788474739359"><ele>3.0</ele><time>2026-04-26T05:59:19.001Z</time></trkpt><trkpt lat="44.39693550078219" lon="12.196799283147913"><ele>4.0</ele><time>2026-04-26T05:59:20.001Z</time></trkpt><trkpt lat="44.39673780920377" lon="12.19683050531841"><ele>4.0</ele><time>2026-04-26T05:59:21.001Z</time></trkpt><trkpt lat="44.39654973931003" lon="12.196881328563604"><ele>4.0</ele><time>2026-04-26T05:59:22.001Z</time></trkpt><trkpt lat="44.39636296525452" lon="12.19697339549339"><ele>4.0</ele><time>2026-04-26T05:59:23.001Z</time></trkpt><trkpt lat="44.39616911525889" lon="12.197092117113742"><ele>3.333333333333333</ele><time>2026-04-26T05:59:24.001Z</time></trkpt><trkpt lat="44.39597463704788" lon="12.197188742641105"><ele>2.6666666666666665</ele><time>2026-04-26T05:59:25.001Z</time></trkpt><trkpt lat="44.39578351791621" lon="12.197206934768111"><ele>2.0</ele><time>2026-04-26T05:59:26.001Z</time></trkpt><trkpt lat="44.39558290097778" lon="12.197212882886346"><ele>1.3333333333333333</ele><time>2026-04-26T05:59:27.001Z</time></trkpt><trkpt lat="44.39537499757573" lon="12.19720787951918"><ele>0.6666666666666666</ele><time>2026-04-26T05:59:28.001Z</time></trkpt><trkpt lat="44.395157316006916" lon="12.19721830781943"><ele>0.0</ele><time>2026-04-26T05:59:29.001Z</time></trkpt><trkpt lat="44.394933363732164" lon="12.197198522065467"><ele>0.0</ele><time>2026-04-26T05:59:30.001Z</time></trkpt><trkpt lat="44.3947032531816" lon="12.197179297943428"><ele>0.0</ele><time>2026-04-26T05:59:31.001Z</time></trkpt><trkpt lat="44.394472105057076" lon="12.197165945180771"><ele>0.5</ele><time>2026-04-26T05:59:32.001Z</time></trkpt><trkpt lat="44.39424055774798" lon="12.197158770008514"><ele>1.0</ele><time>2026-04-26T05:59:33.001Z</time></trkpt><trkpt lat="44.39400650083318" lon="12.197145715679019"><ele>2.0</ele><time>2026-04-26T05:59:34.001Z</time></trkpt><trkpt lat="44.393770843532764" lon="12.197140524040915"><ele>3.0</ele><time>2026-04-26T05:59:35.001Z</time></trkpt><trkpt lat="44.39353294367003" lon="12.197130996967212"><ele>3.0</ele><time>2026-04-26T05:59:36.001Z</time></trkpt><trkpt lat="44.393294873302146" lon="12.197118187876184"><ele>3.0</ele><time>2026-04-26T05:59:37.001Z</time></trkpt><trkpt lat="44.393060727257" lon="12.197105809041057"><ele>2.5</ele><time>2026-04-26T05:59:38.001Z</time></trkpt><trkpt lat="44.392826119484916" lon="12.19709037584432"><ele>2.0</ele><time>2026-04-26T05:59:39.001Z</time></trkpt><trkpt lat="44.39259590312632" lon="12.19707868986302"><ele>2.0</ele><time>2026-04-26T05:59:40.001Z</time></trkpt><trkpt lat="44.392364346647" lon="12.197063022510434"><ele>2.0</ele><time>2026-04-26T05:59:41.001Z</time></trkpt><trkpt lat="44.39213493113469" lon="12.197042963463703"><ele>3.0</ele><time>2026-04-26T05:59:42.002Z</time></trkpt><trkpt lat="44.39190404599564" lon="12.197029705406376"><ele>4.0</ele><time>2026-04-26T05:59:43.002Z</time></trkpt><trkpt lat="44.391675341576104" lon="12.197013595561172"><ele>4.0</ele><time>2026-04-26T05:59:44.002Z</time></trkpt><trkpt lat="44.39144555699096" lon="12.196995826488278"><ele>4.0</ele><time>2026-04-26T05:59:45.002Z</time></trkpt><trkpt lat="44.391213871196086" lon="12.196976594448506"><ele>4.0</ele><time>2026-04-26T05:59:46.002Z</time></trkpt><trkpt lat="44.390983051711025" lon="12.196954855662822"><ele>4.0</ele><time>2026-04-26T05:59:47.002Z</time></trkpt><trkpt lat="44.39075069280107" lon="12.196937241965244"><ele>4.0</ele><time>2026-04-26T05:59:48.002Z</time></trkpt><trkpt lat="44.39051436076678" lon="12.196920828728436"><ele>4.0</ele><time>2026-04-26T05:59:49.002Z</time></trkpt><trkpt lat="44.39028068999858" lon="12.1969091436946"><ele>4.5</ele><time>2026-04-26T05:59:50.002Z</time></trkpt><trkpt lat="44.390048533918836" lon="12.196897188248592"><ele>5.0</ele><time>2026-04-26T05:59:51.002Z</time></trkpt><trkpt lat="44.389819349709256" lon="12.196882757660426"><ele>5.0</ele><time>2026-04-26T05:59:52.002Z</time></trkpt><trkpt lat="44.389593718638196" lon="12.196860689524396"><ele>5.0</ele><time>2026-04-26T05:59:53.002Z</time></trkpt><trkpt lat="44.389371122660556" lon="12.196826803527474"><ele>5.0</ele><time>2026-04-26T05:59:54.002Z</time></trkpt><trkpt lat="44.389147293237606" lon="12.196749488133564"><ele>5.0</ele><time>2026-04-26T05:59:55.002Z</time></trkpt><trkpt lat="44.38891620516676" lon="12.196700962624215"><ele>4.0</ele><time>2026-04-26T05:59:56.002Z</time></trkpt><trkpt lat="44.388688118743126" lon="12.196628927388998"><ele>3.0</ele><time>2026-04-26T05:59:57.002Z</time></trkpt><trkpt lat="44.38846090922134" lon="12.196555880068384"><ele>3.5</ele><time>2026-04-26T05:59:58.002Z</time></trkpt><trkpt lat="44.38823222718258" lon="12.196483710191314"><ele>4.0</ele><time>2026-04-26T05:59:59.002Z</time></trkpt><trkpt lat="44.38800856836054" lon="12.196408018343645"><ele>4.0</ele><time>2026-04-26T06:00:00.002Z</time></trkpt><trkpt lat="44.38778585652683" lon="12.196339231971763"><ele>4.0</ele><time>2026-04-26T06:00:01.002Z</time></trkpt><trkpt lat="44.38756205279601" lon="12.19627229963943"><ele>4.0</ele><time>2026-04-26T06:00:02.002Z</time></trkpt><trkpt lat="44.38733801551484" lon="12.196207049109436"><ele>4.0</ele><time>2026-04-26T06:00:03.002Z</time></trkpt><trkpt lat="44.38711688701617" lon="12.196139752505164"><ele>3.6666666666666665</ele><time>2026-04-26T06:00:04.002Z</time></trkpt><trkpt lat="44.386898107082864" lon="12.196073195225972"><ele>3.333333333333333</ele><time>2026-04-26T06:00:05.002Z</time></trkpt><trkpt lat="44.38669105599958" lon="12.195992888042996"><ele>3.0</ele><time>2026-04-26T06:00:06.002Z</time></trkpt><trkpt lat="44.386480566318596" lon="12.195932109164147"><ele>3.666666666666667</ele><time>2026-04-26T06:00:07.002Z</time></trkpt><trkpt lat="44.38627525089644" lon="12.195866427608511"><ele>4.333333333333334</ele><time>2026-04-26T06:00:08.002Z</time></trkpt><trkpt lat="44.386074617667084" lon="12.195804330942137"><ele>5.0</ele><time>2026-04-26T06:00:09.002Z</time></trkpt><trkpt lat="44.385888339327565" lon="12.195747038604896"><ele>5.0</ele><time>2026-04-26T06:00:10.002Z</time></trkpt><trkpt lat="44.385712317734004" lon="12.195690235504143"><ele>5.0</ele><time>2026-04-26T06:00:11.002Z</time></trkpt><trkpt lat="44.385550906867124" lon="12.195634938462444"><ele>5.0</ele><time>2026-04-26T06:00:12.002Z</time></trkpt><trkpt lat="44.38539373365995" lon="12.195574624668057"><ele>5.25</ele><time>2026-04-26T06:00:13.002Z</time></trkpt><trkpt lat="44.385243958440505" lon="12.195507700610031"><ele>5.5</ele><time>2026-04-26T06:00:14.002Z</time></trkpt><trkpt lat="44.38510670855976" lon="12.195432396523353"><ele>5.75</ele><time>2026-04-26T06:00:15.002Z</time></trkpt><trkpt lat="44.3849818880639" lon="12.195351835526003"><ele>6.0</ele><time>2026-04-26T06:00:16.002Z</time></trkpt><trkpt lat="44.38487659608102" lon="12.195255373928902"><ele>6.0</ele><time>2026-04-26T06:00:17.002Z</time></trkpt><trkpt lat="44.384789273176565" lon="12.195161799292531"><ele>6.0</ele><time>2026-04-26T06:00:18.002Z</time></trkpt><trkpt lat="44.38472359640938" lon="12.195080338108555"><ele>6.0</ele><time>2026-04-26T06:00:19.002Z</time></trkpt><trkpt lat="44.38467877858859" lon="12.19500808199313"><ele>6.0</ele><time>2026-04-26T06:00:20.002Z</time></trkpt><trkpt lat="44.384608828108576" lon="12.194850562950249"><ele>6.0</ele><time>2026-04-26T06:00:22.002Z</time></trkpt><trkpt lat="44.38457063830537" lon="12.194745224064317"><ele>5.5</ele><time>2026-04-26T06:00:23.002Z</time></trkpt><trkpt lat="44.384518748674154" lon="12.194656701915026"><ele>5.0</ele><time>2026-04-26T06:00:24.002Z</time></trkpt><trkpt lat="44.38444536512222" lon="12.194604266948245"><ele>4.5</ele><time>2026-04-26T06:00:25.002Z</time></trkpt><trkpt lat="44.3843647320885" lon="12.194598134661641"><ele>4.0</ele><time>2026-04-26T06:00:26.002Z</time></trkpt><trkpt lat="44.38429184299443" lon="12.194636393716097"><ele>3.5</ele><time>2026-04-26T06:00:27.002Z</time></trkpt><trkpt lat="44.384243380692325" lon="12.194715643534744"><ele>3.0</ele><time>2026-04-26T06:00:28.002Z</time></trkpt><trkpt lat="44.38421733760852" lon="12.194836736467384"><ele>3.5</ele><time>2026-04-26T06:00:29.002Z</time></trkpt><trkpt lat="44.384217437721816" lon="12.194994266650436"><ele>4.0</ele><time>2026-04-26T06:00:30.002Z</time></trkpt><trkpt lat="44.38423496236588" lon="12.195167630116046"><ele>4.5</ele><time>2026-04-26T06:00:31.002Z</time></trkpt><trkpt lat="44.38422818558253" lon="12.195331791523607"><ele>5.0</ele><time>2026-04-26T06:00:32.002Z</time></trkpt><trkpt lat="44.38417938999415" lon="12.195490771744081"><ele>5.0</ele><time>2026-04-26T06:00:33.002Z</time></trkpt><trkpt lat="44.38411222027534" lon="12.195657994437099"><ele>5.0</ele><time>2026-04-26T06:00:34.002Z</time></trkpt><trkpt lat="44.384050362958114" lon="12.19583989023169"><ele>5.0</ele><time>2026-04-26T06:00:35.002Z</time></trkpt><trkpt lat="44.38399019778805" lon="12.196035465948531"><ele>5.0</ele><time>2026-04-26T06:00:36.002Z</time></trkpt><trkpt lat="44.38392468591931" lon="12.196233754485027"><ele>4.333333333333334</ele><time>2026-04-26T06:00:37.002Z</time></trkpt><trkpt lat="44.383862414449055" lon="12.196431704355426"><ele>3.666666666666667</ele><time>2026-04-26T06:00:38.002Z</time></trkpt><trkpt lat="44.38379917579479" lon="12.196635123476359"><ele>3.0</ele><time>2026-04-26T06:00:39.002Z</time></trkpt><trkpt lat="44.38373013353806" lon="12.196841809564823"><ele>2.6666666666666665</ele><time>2026-04-26T06:00:40.002Z</time></trkpt><trkpt lat="44.383660077103485" lon="12.197053547881847"><ele>2.333333333333333</ele><time>2026-04-26T06:00:41.002Z</time></trkpt><trkpt lat="44.38358954475936" lon="12.197272504264777"><ele>2.0</ele><time>2026-04-26T06:00:42.002Z</time></trkpt><trkpt lat="44.383514292064405" lon="12.197504198645722"><ele>2.0</ele><time>2026-04-26T06:00:43.002Z</time></trkpt><trkpt lat="44.38343689481876" lon="12.197740189546602"><ele>2.0</ele><time>2026-04-26T06:00:44.002Z</time></trkpt><trkpt lat="44.38335957569355" lon="12.197985386671034"><ele>2.0</ele><time>2026-04-26T06:00:45.002Z</time></trkpt><trkpt lat="44.383277768458306" lon="12.198237271305587"><ele>2.0</ele><time>2026-04-26T06:00:46.002Z</time></trkpt><trkpt lat="44.38319342751117" lon="12.198494615188078"><ele>2.0</ele><time>2026-04-26T06:00:47.002Z</time></trkpt><trkpt lat="44.38311030192937" lon="12.198746967462787"><ele>2.0</ele><time>2026-04-26T06:00:48.002Z</time></trkpt><trkpt lat="44.38303244692614" lon="12.198992502035187"><ele>1.6666666666666665</ele><time>2026-04-26T06:00:49.002Z</time></trkpt><trkpt lat="44.382957960574004" lon="12.199224468022829"><ele>1.3333333333333333</ele><time>2026-04-26T06:00:50.002Z</time></trkpt><trkpt lat="44.382878759883994" lon="12.199463390144729"><ele>1.0</ele><time>2026-04-26T06:00:51.002Z</time></trkpt><trkpt lat="44.382793215217" lon="12.19970770752318"><ele>1.3333333333333333</ele><time>2026-04-26T06:00:52.002Z</time></trkpt><trkpt lat="44.38271792897076" lon="12.199954585528006"><ele>1.6666666666666665</ele><time>2026-04-26T06:00:53.002Z</time></trkpt><trkpt lat="44.38263990581007" lon="12.20020822315543"><ele>2.0</ele><time>2026-04-26T06:00:54.002Z</time></trkpt><trkpt lat="44.382558399137594" lon="12.200467147725991"><ele>1.6666666666666665</ele><time>2026-04-26T06:00:55.002Z</time></trkpt><trkpt lat="44.38247472819874" lon="12.200736747606506"><ele>1.3333333333333333</ele><time>2026-04-26T06:00:56.002Z</time></trkpt><trkpt lat="44.38238940629693" lon="12.20100697867945"><ele>1.0</ele><time>2026-04-26T06:00:57.002Z</time></trkpt><trkpt lat="44.38230132799349" lon="12.201283006158054"><ele>1.0</ele><time>2026-04-26T06:00:58.002Z</time></trkpt><trkpt lat="44.38220975157375" lon="12.201563711143123"><ele>1.0</ele><time>2026-04-26T06:00:59.002Z</time></trkpt><trkpt lat="44.38211872394815" lon="12.201842896961718"><ele>1.0</ele><time>2026-04-26T06:01:00.002Z</time></trkpt><trkpt lat="44.382027810359396" lon="12.202123283064063"><ele>1.0</ele><time>2026-04-26T06:01:01.002Z</time></trkpt><trkpt lat="44.381945775969534" lon="12.20241310243021"><ele>1.0</ele><time>2026-04-26T06:01:02.002Z</time></trkpt><trkpt lat="44.381855961524025" lon="12.202698049802702"><ele>1.0</ele><time>2026-04-26T06:01:03.002Z</time></trkpt><trkpt lat="44.38177082810307" lon="12.202990301510944"><ele>1.0</ele><time>2026-04-26T06:01:04.002Z</time></trkpt><trkpt lat="44.38167475327297" lon="12.203285114716826"><ele>1.0</ele><time>2026-04-26T06:01:05.002Z</time></trkpt><trkpt lat="44.38157877774203" lon="12.203577526599636"><ele>1.0</ele><time>2026-04-26T06:01:06.002Z</time></trkpt><trkpt lat="44.381483476569976" lon="12.203855561382438"><ele>1.0</ele><time>2026-04-26T06:01:07.002Z</time></trkpt><trkpt lat="44.38139033665788" lon="12.204129145183538"><ele>1.0</ele><time>2026-04-26T06:01:08.002Z</time></trkpt><trkpt lat="44.38129606854823" lon="12.204409269514569"><ele>0.5</ele><time>2026-04-26T06:01:09.002Z</time></trkpt><trkpt lat="44.381201343760864" lon="12.204698675087384"><ele>0.0</ele><time>2026-04-26T06:01:10.002Z</time></trkpt><trkpt lat="44.381105299184355" lon="12.204988497453373"><ele>-0.5</ele><time>2026-04-26T06:01:11.002Z</time></trkpt><trkpt lat="44.38101152064264" lon="12.205280033566973"><ele>-1.0</ele><time>2026-04-26T06:01:12.002Z</time></trkpt><trkpt lat="44.380916208855794" lon="12.205566670366045"><ele>0.0</ele><time>2026-04-26T06:01:13.002Z</time></trkpt><trkpt lat="44.38081893462569" lon="12.205855847295036"><ele>1.0</ele><time>2026-04-26T06:01:14.002Z</time></trkpt><trkpt lat="44.38072660647538" lon="12.206142941903178"><ele>1.0</ele><time>2026-04-26T06:01:15.002Z</time></trkpt><trkpt lat="44.380630820959034" lon="12.206439462114512"><ele>1.0</ele><time>2026-04-26T06:01:16.002Z</time></trkpt><trkpt lat="44.38053455272858" lon="12.206730549652214"><ele>0.5</ele><time>2026-04-26T06:01:17.002Z</time></trkpt><trkpt lat="44.380440055812514" lon="12.207020474592426"><ele>0.0</ele><time>2026-04-26T06:01:18.002Z</time></trkpt><trkpt lat="44.380347053017154" lon="12.207317427335523"><ele>0.5</ele><time>2026-04-26T06:01:19.002Z</time></trkpt><trkpt lat="44.380251830475444" lon="12.207616178743217"><ele>1.0</ele><time>2026-04-26T06:01:20.002Z</time></trkpt><trkpt lat="44.38015637064358" lon="12.207908531849066"><ele>1.0</ele><time>2026-04-26T06:01:21.002Z</time></trkpt><trkpt lat="44.38005823088603" lon="12.208207231248355"><ele>1.0</ele><time>2026-04-26T06:01:22.002Z</time></trkpt><trkpt lat="44.379960445999664" lon="12.208503948423658"><ele>1.0</ele><time>2026-04-26T06:01:23.002Z</time></trkpt><trkpt lat="44.379863482654144" lon="12.20879928487404"><ele>1.0</ele><time>2026-04-26T06:01:24.002Z</time></trkpt><trkpt lat="44.37976539632708" lon="12.209099022226376"><ele>2.0</ele><time>2026-04-26T06:01:25.002Z</time></trkpt><trkpt lat="44.379672244061766" lon="12.209401235976811"><ele>3.0</ele><time>2026-04-26T06:01:26.002Z</time></trkpt><trkpt lat="44.37957902769396" lon="12.209702469260707"><ele>2.0</ele><time>2026-04-26T06:01:27.002Z</time></trkpt><trkpt lat="44.379477910824534" lon="12.210003260501876"><ele>1.0</ele><time>2026-04-26T06:01:28.003Z</time></trkpt><trkpt lat="44.37937540554516" lon="12.210309932421945"><ele>1.0</ele><time>2026-04-26T06:01:29.003Z</time></trkpt><trkpt lat="44.37927425623461" lon="12.210615804896202"><ele>1.0</ele><time>2026-04-26T06:01:30.003Z</time></trkpt><trkpt lat="44.37916963813445" lon="12.210923690792002"><ele>0.5</ele><time>2026-04-26T06:01:31.003Z</time></trkpt><trkpt lat="44.37906716183409" lon="12.211230774675698"><ele>0.0</ele><time>2026-04-26T06:01:32.003Z</time></trkpt><trkpt lat="44.37896436488782" lon="12.211542362822877"><ele>-0.5</ele><time>2026-04-26T06:01:33.003Z</time></trkpt><trkpt lat="44.378862680239266" lon="12.211845972317006"><ele>-1.0</ele><time>2026-04-26T06:01:34.003Z</time></trkpt><trkpt lat="44.37876676757999" lon="12.212152097200825"><ele>-1.5</ele><time>2026-04-26T06:01:35.003Z</time></trkpt><trkpt lat="44.37867146189614" lon="12.21245658083179"><ele>-2.0</ele><time>2026-04-26T06:01:36.003Z</time></trkpt><trkpt lat="44.37857779449289" lon="12.212754890236885"><ele>-2.0</ele><time>2026-04-26T06:01:37.003Z</time></trkpt><trkpt lat="44.3784834320707" lon="12.21305328208237"><ele>-2.0</ele><time>2026-04-26T06:01:38.003Z</time></trkpt><trkpt lat="44.37839066102822" lon="12.213340267518799"><ele>-2.0</ele><time>2026-04-26T06:01:39.003Z</time></trkpt><trkpt lat="44.37829697786532" lon="12.213603879632068"><ele>-2.0</ele><time>2026-04-26T06:01:40.003Z</time></trkpt><trkpt lat="44.37821416489724" lon="12.2138504385087"><ele>-2.0</ele><time>2026-04-26T06:01:41.003Z</time></trkpt><trkpt lat="44.37813938935068" lon="12.21407018375896"><ele>-1.75</ele><time>2026-04-26T06:01:42.003Z</time></trkpt><trkpt lat="44.378072732994184" lon="12.214257771654855"><ele>-1.5</ele><time>2026-04-26T06:01:43.003Z</time></trkpt><trkpt lat="44.378017840393646" lon="12.21442020588357"><ele>-1.25</ele><time>2026-04-26T06:01:44.003Z</time></trkpt><trkpt lat="44.37796360561971" lon="12.21455574013368"><ele>-1.0</ele><time>2026-04-26T06:01:45.003Z</time></trkpt><trkpt lat="44.37791677056267" lon="12.214662494685106"><ele>-1.0</ele><time>2026-04-26T06:01:46.003Z</time></trkpt><trkpt lat="44.37785197392937" lon="12.214733893642357"><ele>-1.0</ele><time>2026-04-26T06:01:47.003Z</time></trkpt><trkpt lat="44.377742828522926" lon="12.214768714233193"><ele>-1.0</ele><time>2026-04-26T06:01:48.003Z</time></trkpt><trkpt lat="44.37761249799987" lon="12.214782861121122"><ele>-1.0</ele><time>2026-04-26T06:01:49.003Z</time></trkpt><trkpt lat="44.37747329216198" lon="12.214763002270507"><ele>-1.0</ele><time>2026-04-26T06:01:50.003Z</time></trkpt><trkpt lat="44.37732163321843" lon="12.214728572344871"><ele>-1.0</ele><time>2026-04-26T06:01:51.003Z</time></trkpt><trkpt lat="44.37715896402956" lon="12.21469089198953"><ele>-1.0</ele><time>2026-04-26T06:01:52.003Z</time></trkpt><trkpt lat="44.376991846800664" lon="12.214662073022895"><ele>-1.0</ele><time>2026-04-26T06:01:53.003Z</time></trkpt><trkpt lat="44.376827257149465" lon="12.214643824140254"><ele>-1.0</ele><time>2026-04-26T06:01:54.003Z</time></trkpt><trkpt lat="44.37665743565729" lon="12.214633006550885"><ele>-1.0</ele><time>2026-04-26T06:01:55.003Z</time></trkpt><trkpt lat="44.37647823878005" lon="12.214627314702177"><ele>-1.6666666666666665</ele><time>2026-04-26T06:01:56.003Z</time></trkpt><trkpt lat="44.37629454085852" lon="12.21462412952412"><ele>-2.3333333333333335</ele><time>2026-04-26T06:01:57.003Z</time></trkpt><trkpt lat="44.37610536190661" lon="12.214620672487067"><ele>-3.0</ele><time>2026-04-26T06:01:58.003Z</time></trkpt><trkpt lat="44.375908181148944" lon="12.214620861633"><ele>-3.0</ele><time>2026-04-26T06:01:59.003Z</time></trkpt><trkpt lat="44.375703938569444" lon="12.214620698303397"><ele>-3.0</ele><time>2026-04-26T06:02:00.003Z</time></trkpt><trkpt lat="44.3754970454857" lon="12.214619143461942"><ele>-3.0</ele><time>2026-04-26T06:02:01.003Z</time></trkpt><trkpt lat="44.37528552565661" lon="12.214613624968463"><ele>-2.6666666666666665</ele><time>2026-04-26T06:02:02.003Z</time></trkpt><trkpt lat="44.375070454726654" lon="12.214604759793454"><ele>-2.333333333333333</ele><time>2026-04-26T06:02:03.003Z</time></trkpt><trkpt lat="44.37485055032243" lon="12.214596340996655"><ele>-2.0</ele><time>2026-04-26T06:02:04.003Z</time></trkpt><trkpt lat="44.374628855150455" lon="12.214586705818709"><ele>-1.5</ele><time>2026-04-26T06:02:05.003Z</time></trkpt><trkpt lat="44.37440178292566" lon="12.214576159651699"><ele>-1.0</ele><time>2026-04-26T06:02:06.003Z</time></trkpt><trkpt lat="44.37417371340038" lon="12.214566147718555"><ele>-1.0</ele><time>2026-04-26T06:02:07.003Z</time></trkpt><trkpt lat="44.37394474401098" lon="12.214558797351996"><ele>-1.0</ele><time>2026-04-26T06:02:08.003Z</time></trkpt><trkpt lat="44.37371403862153" lon="12.214554121394194"><ele>-2.0</ele><time>2026-04-26T06:02:09.003Z</time></trkpt><trkpt lat="44.37348449199054" lon="12.214553518331831"><ele>-3.0</ele><time>2026-04-26T06:02:10.003Z</time></trkpt><trkpt lat="44.3732554296543" lon="12.2145482093964"><ele>-3.0</ele><time>2026-04-26T06:02:11.003Z</time></trkpt><trkpt lat="44.37302548639394" lon="12.21453885737402"><ele>-3.0</ele><time>2026-04-26T06:02:12.003Z</time></trkpt><trkpt lat="44.37279616531597" lon="12.21452816379198"><ele>-3.0</ele><time>2026-04-26T06:02:13.003Z</time></trkpt><trkpt lat="44.37256422381761" lon="12.214519966852265"><ele>-3.0</ele><time>2026-04-26T06:02:14.003Z</time></trkpt><trkpt lat="44.37233243006995" lon="12.214512324355738"><ele>-3.0</ele><time>2026-04-26T06:02:15.003Z</time></trkpt><trkpt lat="44.372099638273866" lon="12.214504383695884"><ele>-3.0</ele><time>2026-04-26T06:02:16.003Z</time></trkpt><trkpt lat="44.371867633807234" lon="12.214498472455283"><ele>-3.0</ele><time>2026-04-26T06:02:17.003Z</time></trkpt><trkpt lat="44.37163692524763" lon="12.214490028447655"><ele>-3.0</ele><time>2026-04-26T06:02:18.003Z</time></trkpt><trkpt lat="44.371404706008356" lon="12.214481647699614"><ele>-2.0</ele><time>2026-04-26T06:02:19.003Z</time></trkpt><trkpt lat="44.371172879847954" lon="12.214473744669997"><ele>-1.0</ele><time>2026-04-26T06:02:20.003Z</time></trkpt><trkpt lat="44.37093891155913" lon="12.214463606457505"><ele>-1.0</ele><time>2026-04-26T06:02:21.003Z</time></trkpt><trkpt lat="44.37070590978602" lon="12.214455293652774"><ele>-1.0</ele><time>2026-04-26T06:02:22.003Z</time></trkpt><trkpt lat="44.370473686664916" lon="12.214450070438927"><ele>-1.5</ele><time>2026-04-26T06:02:23.003Z</time></trkpt><trkpt lat="44.37024067872729" lon="12.214442269344104"><ele>-2.0</ele><time>2026-04-26T06:02:24.003Z</time></trkpt><trkpt lat="44.37000905287134" lon="12.21443622052827"><ele>-2.0</ele><time>2026-04-26T06:02:25.003Z</time></trkpt><trkpt lat="44.36977712825965" lon="12.214431935267054"><ele>-2.0</ele><time>2026-04-26T06:02:26.003Z</time></trkpt><trkpt lat="44.36954348984296" lon="12.214427536322088"><ele>-2.0</ele><time>2026-04-26T06:02:27.003Z</time></trkpt><trkpt lat="44.369310364762185" lon="12.214421187575411"><ele>-2.0</ele><time>2026-04-26T06:02:28.003Z</time></trkpt><trkpt lat="44.36908111181941" lon="12.214417835158057"><ele>-3.0</ele><time>2026-04-26T06:02:29.003Z</time></trkpt><trkpt lat="44.3688488228813" lon="12.214414664590388"><ele>-4.0</ele><time>2026-04-26T06:02:30.003Z</time></trkpt><trkpt lat="44.36861416413011" lon="12.214408170646296"><ele>-4.0</ele><time>2026-04-26T06:02:31.003Z</time></trkpt><trkpt lat="44.36837831452303" lon="12.214401874289193"><ele>-4.0</ele><time>2026-04-26T06:02:32.003Z</time></trkpt><trkpt lat="44.36814144188433" lon="12.214394817332542"><ele>-3.5</ele><time>2026-04-26T06:02:33.003Z</time></trkpt><trkpt lat="44.367904653460364" lon="12.214386846846098"><ele>-3.0</ele><time>2026-04-26T06:02:34.003Z</time></trkpt><trkpt lat="44.367669547618284" lon="12.21437815127947"><ele>-3.0</ele><time>2026-04-26T06:02:35.003Z</time></trkpt><trkpt lat="44.36743354643205" lon="12.214370159284934"><ele>-3.0</ele><time>2026-04-26T06:02:36.003Z</time></trkpt><trkpt lat="44.367197213406335" lon="12.21436288999554"><ele>-2.5</ele><time>2026-04-26T06:02:37.003Z</time></trkpt><trkpt lat="44.36695950333042" lon="12.21435531434713"><ele>-2.0</ele><time>2026-04-26T06:02:38.003Z</time></trkpt><trkpt lat="44.366721118730396" lon="12.21434572995283"><ele>-2.0</ele><time>2026-04-26T06:02:39.003Z</time></trkpt><trkpt lat="44.36648075680647" lon="12.214337582070316"><ele>-2.0</ele><time>2026-04-26T06:02:40.003Z</time></trkpt><trkpt lat="44.36624175740542" lon="12.214329968274848"><ele>-2.0</ele><time>2026-04-26T06:02:41.003Z</time></trkpt><trkpt lat="44.366001938764555" lon="12.214325696847812"><ele>-2.0</ele><time>2026-04-26T06:02:42.003Z</time></trkpt><trkpt lat="44.365763229977674" lon="12.214321680650247"><ele>-2.5</ele><time>2026-04-26T06:02:43.003Z</time></trkpt><trkpt lat="44.3655238302172" lon="12.21431469215481"><ele>-3.0</ele><time>2026-04-26T06:02:44.003Z</time></trkpt><trkpt lat="44.36528560497762" lon="12.214305077472364"><ele>-3.0</ele><time>2026-04-26T06:02:45.003Z</time></trkpt><trkpt lat="44.365046752522915" lon="12.214295803637334"><ele>-3.0</ele><time>2026-04-26T06:02:46.003Z</time></trkpt><trkpt lat="44.36480802019003" lon="12.21428586423712"><ele>-3.0</ele><time>2026-04-26T06:02:47.003Z</time></trkpt><trkpt lat="44.36456843957085" lon="12.214277304119307"><ele>-3.0</ele><time>2026-04-26T06:02:48.003Z</time></trkpt><trkpt lat="44.36432955556006" lon="12.214271466019355"><ele>-3.0</ele><time>2026-04-26T06:02:49.003Z</time></trkpt><trkpt lat="44.36409071894322" lon="12.214264428468258"><ele>-3.0</ele><time>2026-04-26T06:02:50.003Z</time></trkpt><trkpt lat="44.36385312416318" lon="12.214258004237967"><ele>-2.5</ele><time>2026-04-26T06:02:51.003Z</time></trkpt><trkpt lat="44.363615868419245" lon="12.214252357553324"><ele>-2.0</ele><time>2026-04-26T06:02:52.003Z</time></trkpt><trkpt lat="44.36338197899711" lon="12.214246286017184"><ele>-2.0</ele><time>2026-04-26T06:02:53.003Z</time></trkpt><trkpt lat="44.36314624346099" lon="12.214237582853514"><ele>-2.0</ele><time>2026-04-26T06:02:54.003Z</time></trkpt><trkpt lat="44.36290951599074" lon="12.21422938292762"><ele>-2.0</ele><time>2026-04-26T06:02:55.003Z</time></trkpt><trkpt lat="44.36267024009683" lon="12.214221723113225"><ele>-2.0</ele><time>2026-04-26T06:02:56.003Z</time></trkpt><trkpt lat="44.36243221306212" lon="12.214217009762974"><ele>-1.5</ele><time>2026-04-26T06:02:57.003Z</time></trkpt><trkpt lat="44.36219781295027" lon="12.214194791307337"><ele>-1.0</ele><time>2026-04-26T06:02:58.003Z</time></trkpt><trkpt lat="44.361959790273154" lon="12.214189481394797"><ele>-1.0</ele><time>2026-04-26T06:02:59.003Z</time></trkpt><trkpt lat="44.36171851326092" lon="12.214179840413873"><ele>-1.0</ele><time>2026-04-26T06:03:00.003Z</time></trkpt><trkpt lat="44.36147570640947" lon="12.21417069456057"><ele>-1.5</ele><time>2026-04-26T06:03:01.003Z</time></trkpt><trkpt lat="44.36123340204841" lon="12.21415730910513"><ele>-2.0</ele><time>2026-04-26T06:03:02.003Z</time></trkpt><trkpt lat="44.360987998016384" lon="12.214149231659142"><ele>-2.0</ele><time>2026-04-26T06:03:03.003Z</time></trkpt><trkpt lat="44.360747196419275" lon="12.214141895244866"><ele>-2.0</ele><time>2026-04-26T06:03:04.003Z</time></trkpt><trkpt lat="44.36050693230538" lon="12.21413459690964"><ele>-2.0</ele><time>2026-04-26T06:03:05.003Z</time></trkpt><trkpt lat="44.360266054866706" lon="12.21412795503834"><ele>-2.0</ele><time>2026-04-26T06:03:06.003Z</time></trkpt><trkpt lat="44.36002642822407" lon="12.214120055034037"><ele>-2.0</ele><time>2026-04-26T06:03:07.003Z</time></trkpt><trkpt lat="44.35978582028882" lon="12.214112673052034"><ele>-2.0</ele><time>2026-04-26T06:03:08.003Z</time></trkpt><trkpt lat="44.35954439822612" lon="12.21410674079475"><ele>-1.5</ele><time>2026-04-26T06:03:09.003Z</time></trkpt><trkpt lat="44.35930332061502" lon="12.214102744935595"><ele>-1.0</ele><time>2026-04-26T06:03:10.003Z</time></trkpt><trkpt lat="44.3590666377091" lon="12.214097120839293"><ele>-1.5</ele><time>2026-04-26T06:03:11.003Z</time></trkpt><trkpt lat="44.35882924544712" lon="12.214091459840846"><ele>-2.0</ele><time>2026-04-26T06:03:12.003Z</time></trkpt><trkpt lat="44.358588231354254" lon="12.214085161132868"><ele>-2.0</ele><time>2026-04-26T06:03:13.003Z</time></trkpt><trkpt lat="44.35834733701169" lon="12.214076400225972"><ele>-2.0</ele><time>2026-04-26T06:03:14.003Z</time></trkpt><trkpt lat="44.35810984813366" lon="12.214066849004354"><ele>-2.0</ele><time>2026-04-26T06:03:15.004Z</time></trkpt><trkpt lat="44.35787140195144" lon="12.214055828773706"><ele>-2.0</ele><time>2026-04-26T06:03:16.004Z</time></trkpt><trkpt lat="44.35763140916869" lon="12.214045486387082"><ele>-2.0</ele><time>2026-04-26T06:03:17.004Z</time></trkpt><trkpt lat="44.35739051320344" lon="12.214040852662178"><ele>-2.0</ele><time>2026-04-26T06:03:18.004Z</time></trkpt><trkpt lat="44.35715286571405" lon="12.21403572482083"><ele>-1.5</ele><time>2026-04-26T06:03:19.004Z</time></trkpt><trkpt lat="44.356916413110085" lon="12.214025565033435"><ele>-1.0</ele><time>2026-04-26T06:03:20.004Z</time></trkpt><trkpt lat="44.35667881271169" lon="12.214012458783445"><ele>-1.0</ele><time>2026-04-26T06:03:21.004Z</time></trkpt><trkpt lat="44.356441850669775" lon="12.213995704426612"><ele>-1.0</ele><time>2026-04-26T06:03:22.004Z</time></trkpt><trkpt lat="44.356205011979014" lon="12.213966479036522"><ele>-1.0</ele><time>2026-04-26T06:03:23.004Z</time></trkpt><trkpt lat="44.35597774821027" lon="12.213939884333037"><ele>-1.0</ele><time>2026-04-26T06:03:24.004Z</time></trkpt><trkpt lat="44.35575474521748" lon="12.213910167093584"><ele>-1.0</ele><time>2026-04-26T06:03:25.004Z</time></trkpt><trkpt lat="44.35553436579851" lon="12.213878871847873"><ele>-1.0</ele><time>2026-04-26T06:03:26.004Z</time></trkpt><trkpt lat="44.35531555889892" lon="12.213850091962984"><ele>-1.0</ele><time>2026-04-26T06:03:27.004Z</time></trkpt><trkpt lat="44.3551007221127" lon="12.213821339819221"><ele>-1.0</ele><time>2026-04-26T06:03:28.004Z</time></trkpt><trkpt lat="44.35488136650288" lon="12.213789614647201"><ele>-1.0</ele><time>2026-04-26T06:03:29.004Z</time></trkpt><trkpt lat="44.35466166921954" lon="12.213758637891141"><ele>-1.0</ele><time>2026-04-26T06:03:30.004Z</time></trkpt><trkpt lat="44.35444584046607" lon="12.213726380666726"><ele>-1.0</ele><time>2026-04-26T06:03:31.004Z</time></trkpt><trkpt lat="44.35422830903045" lon="12.213696861036869"><ele>-1.0</ele><time>2026-04-26T06:03:32.004Z</time></trkpt><trkpt lat="44.354007124112435" lon="12.213668166342243"><ele>-1.0</ele><time>2026-04-26T06:03:33.004Z</time></trkpt><trkpt lat="44.35378891099884" lon="12.21364052056077"><ele>-1.0</ele><time>2026-04-26T06:03:34.004Z</time></trkpt><trkpt lat="44.35356938569591" lon="12.213612385457626"><ele>-1.0</ele><time>2026-04-26T06:03:35.004Z</time></trkpt><trkpt lat="44.35335094639206" lon="12.213585413211637"><ele>-1.0</ele><time>2026-04-26T06:03:36.004Z</time></trkpt><trkpt lat="44.35313036121948" lon="12.213560574612528"><ele>-0.5</ele><time>2026-04-26T06:03:37.004Z</time></trkpt><trkpt lat="44.35290228960685" lon="12.213540602860165"><ele>0.0</ele><time>2026-04-26T06:03:38.004Z</time></trkpt><trkpt lat="44.35267083635016" lon="12.213522668353189"><ele>0.0</ele><time>2026-04-26T06:03:39.004Z</time></trkpt><trkpt lat="44.35243444956297" lon="12.213512452917241"><ele>0.0</ele><time>2026-04-26T06:03:40.004Z</time></trkpt><trkpt lat="44.35220093345578" lon="12.21349907494097"><ele>0.0</ele><time>2026-04-26T06:03:41.004Z</time></trkpt><trkpt lat="44.35196658155177" lon="12.213482792194776"><ele>0.0</ele><time>2026-04-26T06:03:42.004Z</time></trkpt><trkpt lat="44.35173520773745" lon="12.213467209073082"><ele>0.0</ele><time>2026-04-26T06:03:43.004Z</time></trkpt><trkpt lat="44.351506348177054" lon="12.213451109528236"><ele>0.0</ele><time>2026-04-26T06:03:44.004Z</time></trkpt><trkpt lat="44.35128475493367" lon="12.213437519447677"><ele>0.0</ele><time>2026-04-26T06:03:45.004Z</time></trkpt><trkpt lat="44.35107209888445" lon="12.213421760858436"><ele>0.0</ele><time>2026-04-26T06:03:46.004Z</time></trkpt><trkpt lat="44.35086867957094" lon="12.213409949095608"><ele>0.0</ele><time>2026-04-26T06:03:47.004Z</time></trkpt><trkpt lat="44.350680319462896" lon="12.213396977008118"><ele>-0.3333333333333333</ele><time>2026-04-26T06:03:48.004Z</time></trkpt><trkpt lat="44.35050172013025" lon="12.21338379908083"><ele>-0.6666666666666666</ele><time>2026-04-26T06:03:49.004Z</time></trkpt><trkpt lat="44.350325222638496" lon="12.213370560154681"><ele>-1.0</ele><time>2026-04-26T06:03:50.004Z</time></trkpt><trkpt lat="44.35014914876065" lon="12.213358181507209"><ele>-1.0</ele><time>2026-04-26T06:03:51.004Z</time></trkpt><trkpt lat="44.34997489691106" lon="12.213348737640125"><ele>-1.0</ele><time>2026-04-26T06:03:52.004Z</time></trkpt><trkpt lat="44.349806770586845" lon="12.213337626022533"><ele>-1.0</ele><time>2026-04-26T06:03:53.004Z</time></trkpt><trkpt lat="44.349649475542684" lon="12.21332875178371"><ele>-1.25</ele><time>2026-04-26T06:03:54.004Z</time></trkpt><trkpt lat="44.34950383935603" lon="12.213317166181668"><ele>-1.5</ele><time>2026-04-26T06:03:55.004Z</time></trkpt><trkpt lat="44.3493647394062" lon="12.21330834414463"><ele>-1.75</ele><time>2026-04-26T06:03:56.004Z</time></trkpt><trkpt lat="44.349216992384726" lon="12.21329728512366"><ele>-2.0</ele><time>2026-04-26T06:03:57.004Z</time></trkpt><trkpt lat="44.34906438410244" lon="12.213288679046858"><ele>-2.0</ele><time>2026-04-26T06:03:58.004Z</time></trkpt><trkpt lat="44.34890643385614" lon="12.213278234137237"><ele>-2.0</ele><time>2026-04-26T06:03:59.004Z</time></trkpt><trkpt lat="44.34873944452954" lon="12.213263061499413"><ele>-2.0</ele><time>2026-04-26T06:04:00.004Z</time></trkpt><trkpt lat="44.348566786825394" lon="12.213253823223498"><ele>-2.0</ele><time>2026-04-26T06:04:01.004Z</time></trkpt><trkpt lat="44.34838967944551" lon="12.213245415985472"><ele>-2.0</ele><time>2026-04-26T06:04:02.004Z</time></trkpt><trkpt lat="44.34821054082997" lon="12.213236076900872"><ele>-2.0</ele><time>2026-04-26T06:04:03.004Z</time></trkpt><trkpt lat="44.34802844851496" lon="12.213224063674287"><ele>-1.6666666666666665</ele><time>2026-04-26T06:04:04.004Z</time></trkpt><trkpt lat="44.347844131722006" lon="12.213212350312387"><ele>-1.3333333333333333</ele><time>2026-04-26T06:04:05.004Z</time></trkpt><trkpt lat="44.34765395157954" lon="12.213196052198999"><ele>-1.0</ele><time>2026-04-26T06:04:06.004Z</time></trkpt><trkpt lat="44.347463913963864" lon="12.21318648047418"><ele>-1.0</ele><time>2026-04-26T06:04:07.004Z</time></trkpt><trkpt lat="44.347272064530294" lon="12.213179277507532"><ele>-1.0</ele><time>2026-04-26T06:04:08.004Z</time></trkpt><trkpt lat="44.34707892320687" lon="12.21317113368288"><ele>-1.0</ele><time>2026-04-26T06:04:09.004Z</time></trkpt><trkpt lat="44.346884336807655" lon="12.213159711767238"><ele>-1.0</ele><time>2026-04-26T06:04:10.004Z</time></trkpt><trkpt lat="44.3466852276008" lon="12.213145170066676"><ele>-1.0</ele><time>2026-04-26T06:04:11.004Z</time></trkpt><trkpt lat="44.34648284931866" lon="12.213126769533314"><ele>-1.0</ele><time>2026-04-26T06:04:12.004Z</time></trkpt><trkpt lat="44.346280233823244" lon="12.213109706158644"><ele>-0.6666666666666666</ele><time>2026-04-26T06:04:13.004Z</time></trkpt><trkpt lat="44.34607462388963" lon="12.213093689502447"><ele>-0.3333333333333333</ele><time>2026-04-26T06:04:14.004Z</time></trkpt><trkpt lat="44.34586902987285" lon="12.213082308951654"><ele>0.0</ele><time>2026-04-26T06:04:15.004Z</time></trkpt><trkpt lat="44.34565915888881" lon="12.213073951745141"><ele>0.6666666666666666</ele><time>2026-04-26T06:04:16.004Z</time></trkpt><trkpt lat="44.345449489018606" lon="12.213063818188889"><ele>1.3333333333333333</ele><time>2026-04-26T06:04:17.004Z</time></trkpt><trkpt lat="44.34523670371189" lon="12.213053495748186"><ele>2.0</ele><time>2026-04-26T06:04:18.004Z</time></trkpt><trkpt lat="44.345025520808264" lon="12.213043894934842"><ele>2.0</ele><time>2026-04-26T06:04:19.004Z</time></trkpt><trkpt lat="44.34481316238175" lon="12.213029798453379"><ele>2.0</ele><time>2026-04-26T06:04:20.004Z</time></trkpt><trkpt lat="44.344600354352266" lon="12.213011532025746"><ele>2.0</ele><time>2026-04-26T06:04:21.004Z</time></trkpt><trkpt lat="44.344387835928295" lon="12.212993308367698"><ele>1.3333333333333333</ele><time>2026-04-26T06:04:22.004Z</time></trkpt><trkpt lat="44.3441741673477" lon="12.212978661896251"><ele>0.6666666666666666</ele><time>2026-04-26T06:04:23.004Z</time></trkpt><trkpt lat="44.34395805595011" lon="12.212969042697273"><ele>0.0</ele><time>2026-04-26T06:04:24.004Z</time></trkpt><trkpt lat="44.34373746737586" lon="12.212960828773925"><ele>-0.6666666666666666</ele><time>2026-04-26T06:04:25.004Z</time></trkpt><trkpt lat="44.343516560665826" lon="12.212950985215032"><ele>-1.3333333333333333</ele><time>2026-04-26T06:04:26.004Z</time></trkpt><trkpt lat="44.3432971584522" lon="12.212935583336805"><ele>-2.0</ele><time>2026-04-26T06:04:27.004Z</time></trkpt><trkpt lat="44.34307838373088" lon="12.212918303604532"><ele>-2.0</ele><time>2026-04-26T06:04:28.004Z</time></trkpt><trkpt lat="44.34285822214521" lon="12.21290226104623"><ele>-2.0</ele><time>2026-04-26T06:04:29.004Z</time></trkpt><trkpt lat="44.3426489062513" lon="12.212889321250426"><ele>-2.0</ele><time>2026-04-26T06:04:30.004Z</time></trkpt><trkpt lat="44.3424541058793" lon="12.21287336282192"><ele>-2.0</ele><time>2026-04-26T06:04:31.004Z</time></trkpt><trkpt lat="44.342269519120066" lon="12.212859457218658"><ele>-2.0</ele><time>2026-04-26T06:04:32.004Z</time></trkpt><trkpt lat="44.342081853865565" lon="12.21282292114532"><ele>-2.0</ele><time>2026-04-26T06:04:33.004Z</time></trkpt><trkpt lat="44.34189306741932" lon="12.212806609349688"><ele>-2.0</ele><time>2026-04-26T06:04:34.004Z</time></trkpt><trkpt lat="44.34170520250249" lon="12.212790377174812"><ele>-2.0</ele><time>2026-04-26T06:04:35.004Z</time></trkpt><trkpt lat="44.34151665540224" lon="12.212774086056895"><ele>-2.0</ele><time>2026-04-26T06:04:36.004Z</time></trkpt><trkpt lat="44.341325634898396" lon="12.212756875274414"><ele>-2.0</ele><time>2026-04-26T06:04:37.004Z</time></trkpt><trkpt lat="44.34113358336933" lon="12.212761493041228"><ele>-2.0</ele><time>2026-04-26T06:04:38.004Z</time></trkpt><trkpt lat="44.34094005701391" lon="12.212737314029727"><ele>-2.0</ele><time>2026-04-26T06:04:39.004Z</time></trkpt><trkpt lat="44.34074565937099" lon="12.212714785610688"><ele>-2.333333333333333</ele><time>2026-04-26T06:04:40.004Z</time></trkpt><trkpt lat="44.340547949828974" lon="12.21269487396661"><ele>-2.6666666666666665</ele><time>2026-04-26T06:04:41.004Z</time></trkpt><trkpt lat="44.34034962427119" lon="12.212674955820646"><ele>-3.0</ele><time>2026-04-26T06:04:42.004Z</time></trkpt><trkpt lat="44.34015596230004" lon="12.212652189809027"><ele>-3.0</ele><time>2026-04-26T06:04:43.004Z</time></trkpt><trkpt lat="44.33995915926188" lon="12.212631267279043"><ele>-3.0</ele><time>2026-04-26T06:04:44.004Z</time></trkpt><trkpt lat="44.33976296906403" lon="12.21261012647591"><ele>-3.0</ele><time>2026-04-26T06:04:45.004Z</time></trkpt><trkpt lat="44.339566493674276" lon="12.21259286015762"><ele>-2.3333333333333335</ele><time>2026-04-26T06:04:46.004Z</time></trkpt><trkpt lat="44.33936930853049" lon="12.212579584052579"><ele>-1.6666666666666665</ele><time>2026-04-26T06:04:47.004Z</time></trkpt><trkpt lat="44.339173220825394" lon="12.212565405804352"><ele>-1.0</ele><time>2026-04-26T06:04:48.004Z</time></trkpt><trkpt lat="44.33897692518768" lon="12.212546426028535"><ele>-1.0</ele><time>2026-04-26T06:04:49.004Z</time></trkpt><trkpt lat="44.3387772921174" lon="12.212527197045985"><ele>-1.0</ele><time>2026-04-26T06:04:50.004Z</time></trkpt><trkpt lat="44.33857536859373" lon="12.21251445502966"><ele>-1.0</ele><time>2026-04-26T06:04:51.004Z</time></trkpt><trkpt lat="44.338371652368345" lon="12.212498917630407"><ele>-1.0</ele><time>2026-04-26T06:04:52.004Z</time></trkpt><trkpt lat="44.33816896092072" lon="12.212486775446525"><ele>-1.0</ele><time>2026-04-26T06:04:53.004Z</time></trkpt><trkpt lat="44.3379630937559" lon="12.212472772990909"><ele>-1.0</ele><time>2026-04-26T06:04:54.004Z</time></trkpt><trkpt lat="44.33775630479394" lon="12.212459513878144"><ele>-1.0</ele><time>2026-04-26T06:04:55.004Z</time></trkpt><trkpt lat="44.337549658657395" lon="12.212449691269029"><ele>-1.0</ele><time>2026-04-26T06:04:56.004Z</time></trkpt><trkpt lat="44.337342061234416" lon="12.212438490782102"><ele>-1.0</ele><time>2026-04-26T06:04:57.004Z</time></trkpt><trkpt lat="44.33713400891677" lon="12.212423875630625"><ele>-1.3333333333333333</ele><time>2026-04-26T06:04:58.004Z</time></trkpt><trkpt lat="44.33692638299287" lon="12.21240910313685"><ele>-1.6666666666666665</ele><time>2026-04-26T06:04:59.004Z</time></trkpt><trkpt lat="44.33671920042042" lon="12.212395305399998"><ele>-2.0</ele><time>2026-04-26T06:05:00.004Z</time></trkpt><trkpt lat="44.33651066598142" lon="12.212381196127572"><ele>-1.3333333333333333</ele><time>2026-04-26T06:05:01.004Z</time></trkpt><trkpt lat="44.33630214974479" lon="12.21236698560424"><ele>-0.6666666666666666</ele><time>2026-04-26T06:05:02.005Z</time></trkpt><trkpt lat="44.33609113355386" lon="12.212351079176392"><ele>0.0</ele><time>2026-04-26T06:05:03.005Z</time></trkpt><trkpt lat="44.33588344080441" lon="12.212333646246526"><ele>0.0</ele><time>2026-04-26T06:05:04.005Z</time></trkpt><trkpt lat="44.335674254014776" lon="12.212317035347015"><ele>0.0</ele><time>2026-04-26T06:05:05.005Z</time></trkpt><trkpt lat="44.33546445155829" lon="12.212300367002168"><ele>0.0</ele><time>2026-04-26T06:05:06.005Z</time></trkpt><trkpt lat="44.335253843147065" lon="12.212284167330298"><ele>0.0</ele><time>2026-04-26T06:05:07.005Z</time></trkpt><trkpt lat="44.3350407572147" lon="12.212267142330091"><ele>0.0</ele><time>2026-04-26T06:05:08.005Z</time></trkpt><trkpt lat="44.334822814489705" lon="12.212249431634756"><ele>0.0</ele><time>2026-04-26T06:05:09.005Z</time></trkpt><trkpt lat="44.33459844114443" lon="12.212231057528033"><ele>-0.6666666666666666</ele><time>2026-04-26T06:05:10.005Z</time></trkpt><trkpt lat="44.334379904614224" lon="12.212216897217532"><ele>-1.3333333333333333</ele><time>2026-04-26T06:05:11.005Z</time></trkpt><trkpt lat="44.334161624350976" lon="12.21220524603928"><ele>-2.0</ele><time>2026-04-26T06:05:12.005Z</time></trkpt><trkpt lat="44.3339368301618" lon="12.21219327564676"><ele>-2.5</ele><time>2026-04-26T06:05:13.005Z</time></trkpt><trkpt lat="44.33371075564729" lon="12.212182847750531"><ele>-3.0</ele><time>2026-04-26T06:05:14.005Z</time></trkpt><trkpt lat="44.33348481311132" lon="12.21217184050494"><ele>-3.0</ele><time>2026-04-26T06:05:15.005Z</time></trkpt><trkpt lat="44.33325872953639" lon="12.21215825015986"><ele>-3.0</ele><time>2026-04-26T06:05:16.005Z</time></trkpt><trkpt lat="44.3330343555649" lon="12.212150158514726"><ele>-3.333333333333333</ele><time>2026-04-26T06:05:17.005Z</time></trkpt><trkpt lat="44.33281366397798" lon="12.212141739491218"><ele>-3.6666666666666665</ele><time>2026-04-26T06:05:18.005Z</time></trkpt><trkpt lat="44.33259585804824" lon="12.212134554828781"><ele>-4.0</ele><time>2026-04-26T06:05:19.005Z</time></trkpt><trkpt lat="44.332373578640365" lon="12.212123566330838"><ele>-3.0</ele><time>2026-04-26T06:05:20.005Z</time></trkpt><trkpt lat="44.33214821278826" lon="12.212113206988127"><ele>-2.0</ele><time>2026-04-26T06:05:21.005Z</time></trkpt><trkpt lat="44.33191972600068" lon="12.21209941303647"><ele>-2.0</ele><time>2026-04-26T06:05:22.005Z</time></trkpt><trkpt lat="44.33168924138108" lon="12.212088015020555"><ele>-2.0</ele><time>2026-04-26T06:05:23.005Z</time></trkpt><trkpt lat="44.33145879810403" lon="12.2120757385779"><ele>-2.0</ele><time>2026-04-26T06:05:24.005Z</time></trkpt><trkpt lat="44.33122815759759" lon="12.21206468531561"><ele>-2.0</ele><time>2026-04-26T06:05:25.005Z</time></trkpt><trkpt lat="44.330995357715" lon="12.212053622903404"><ele>-2.0</ele><time>2026-04-26T06:05:26.005Z</time></trkpt><trkpt lat="44.33076076604486" lon="12.212042172152334"><ele>-2.0</ele><time>2026-04-26T06:05:27.005Z</time></trkpt><trkpt lat="44.3305282731839" lon="12.212031345340936"><ele>-2.0</ele><time>2026-04-26T06:05:28.005Z</time></trkpt><trkpt lat="44.33029664127847" lon="12.212022596453826"><ele>-2.0</ele><time>2026-04-26T06:05:29.005Z</time></trkpt><trkpt lat="44.33006612209789" lon="12.21202048899262"><ele>-2.0</ele><time>2026-04-26T06:05:30.005Z</time></trkpt><trkpt lat="44.32983130005093" lon="12.212027921728016"><ele>-2.0</ele><time>2026-04-26T06:05:31.005Z</time></trkpt><trkpt lat="44.3295910399441" lon="12.212050677982887"><ele>-2.5</ele><time>2026-04-26T06:05:32.005Z</time></trkpt><trkpt lat="44.329350822771" lon="12.212077989520473"><ele>-3.0</ele><time>2026-04-26T06:05:33.005Z</time></trkpt><trkpt lat="44.32911712101675" lon="12.212102767406142"><ele>-2.5</ele><time>2026-04-26T06:05:34.005Z</time></trkpt><trkpt lat="44.32888428623712" lon="12.21212862114201"><ele>-2.0</ele><time>2026-04-26T06:05:35.005Z</time></trkpt><trkpt lat="44.328659650001136" lon="12.212141112439147"><ele>-2.0</ele><time>2026-04-26T06:05:36.005Z</time></trkpt><trkpt lat="44.32843954991427" lon="12.212145595699791"><ele>-2.0</ele><time>2026-04-26T06:05:37.005Z</time></trkpt><trkpt lat="44.328223981261786" lon="12.212141634750765"><ele>-2.0</ele><time>2026-04-26T06:05:38.005Z</time></trkpt><trkpt lat="44.32800729862038" lon="12.212127710425303"><ele>-2.0</ele><time>2026-04-26T06:05:39.005Z</time></trkpt><trkpt lat="44.32779638543449" lon="12.212111256213698"><ele>-2.0</ele><time>2026-04-26T06:05:40.005Z</time></trkpt><trkpt lat="44.32758202409481" lon="12.212089750534586"><ele>-2.0</ele><time>2026-04-26T06:05:41.005Z</time></trkpt><trkpt lat="44.32736993800645" lon="12.212062899237146"><ele>-1.6666666666666665</ele><time>2026-04-26T06:05:42.005Z</time></trkpt><trkpt lat="44.32715803777807" lon="12.2120300552739"><ele>-1.3333333333333333</ele><time>2026-04-26T06:05:43.005Z</time></trkpt><trkpt lat="44.326947061712154" lon="12.211990880663652"><ele>-1.0</ele><time>2026-04-26T06:05:44.005Z</time></trkpt><trkpt lat="44.32673906927015" lon="12.211948029373172"><ele>-1.0</ele><time>2026-04-26T06:05:45.005Z</time></trkpt><trkpt lat="44.32653188697301" lon="12.211902756048032"><ele>-1.0</ele><time>2026-04-26T06:05:46.005Z</time></trkpt><trkpt lat="44.326329202817526" lon="12.211857414278976"><ele>-1.0</ele><time>2026-04-26T06:05:47.005Z</time></trkpt><trkpt lat="44.32612513049927" lon="12.211812181058821"><ele>-1.0</ele><time>2026-04-26T06:05:48.005Z</time></trkpt><trkpt lat="44.3259262694221" lon="12.211768701186681"><ele>-1.0</ele><time>2026-04-26T06:05:49.005Z</time></trkpt><trkpt lat="44.32572654726738" lon="12.211729517592861"><ele>-1.0</ele><time>2026-04-26T06:05:50.005Z</time></trkpt><trkpt lat="44.32552825652853" lon="12.21169238780156"><ele>-1.0</ele><time>2026-04-26T06:05:51.005Z</time></trkpt><trkpt lat="44.325333226773346" lon="12.211657312093338"><ele>-1.0</ele><time>2026-04-26T06:05:52.005Z</time></trkpt><trkpt lat="44.32513740728654" lon="12.211626124725335"><ele>-1.0</ele><time>2026-04-26T06:05:53.005Z</time></trkpt><trkpt lat="44.32494571595875" lon="12.211600223538653"><ele>-1.0</ele><time>2026-04-26T06:05:54.005Z</time></trkpt><trkpt lat="44.324757943559504" lon="12.211582160256274"><ele>-1.0</ele><time>2026-04-26T06:05:55.005Z</time></trkpt><trkpt lat="44.324580924727044" lon="12.211571489882536"><ele>-1.0</ele><time>2026-04-26T06:05:56.005Z</time></trkpt><trkpt lat="44.32440440295642" lon="12.211566880275319"><ele>-1.0</ele><time>2026-04-26T06:05:57.005Z</time></trkpt><trkpt lat="44.324230302848264" lon="12.211562190829103"><ele>-1.0</ele><time>2026-04-26T06:05:58.005Z</time></trkpt><trkpt lat="44.324058786812294" lon="12.211553165127137"><ele>-1.0</ele><time>2026-04-26T06:05:59.005Z</time></trkpt><trkpt lat="44.32388841236417" lon="12.211541309023563"><ele>-0.6666666666666666</ele><time>2026-04-26T06:06:00.005Z</time></trkpt><trkpt lat="44.32372577134022" lon="12.21153504541692"><ele>-0.3333333333333333</ele><time>2026-04-26T06:06:01.005Z</time></trkpt><trkpt lat="44.32357123276798" lon="12.211524926048973"><ele>0.0</ele><time>2026-04-26T06:06:02.005Z</time></trkpt><trkpt lat="44.32341809336078" lon="12.211514859618374"><ele>0.0</ele><time>2026-04-26T06:06:03.005Z</time></trkpt><trkpt lat="44.32326218073138" lon="12.211500788914275"><ele>0.0</ele><time>2026-04-26T06:06:04.005Z</time></trkpt><trkpt lat="44.32310264911364" lon="12.211490993548418"><ele>0.0</ele><time>2026-04-26T06:06:05.005Z</time></trkpt><trkpt lat="44.32294085341335" lon="12.211498987284186"><ele>0.0</ele><time>2026-04-26T06:06:06.005Z</time></trkpt><trkpt lat="44.32278442234065" lon="12.211484771533007"><ele>0.0</ele><time>2026-04-26T06:06:07.005Z</time></trkpt><trkpt lat="44.32261914509566" lon="12.211495393522911"><ele>0.0</ele><time>2026-04-26T06:06:08.005Z</time></trkpt><trkpt lat="44.32245080508103" lon="12.211502023480227"><ele>0.0</ele><time>2026-04-26T06:06:09.005Z</time></trkpt><trkpt lat="44.32228871788329" lon="12.211474078094396"><ele>0.0</ele><time>2026-04-26T06:06:10.005Z</time></trkpt><trkpt lat="44.32212831067718" lon="12.211488240054184"><ele>0.0</ele><time>2026-04-26T06:06:11.005Z</time></trkpt><trkpt lat="44.321970577849285" lon="12.211477874383737"><ele>-0.3333333333333333</ele><time>2026-04-26T06:06:12.005Z</time></trkpt><trkpt lat="44.32181838674435" lon="12.21147301225748"><ele>-0.6666666666666666</ele><time>2026-04-26T06:06:13.005Z</time></trkpt><trkpt lat="44.32166430393454" lon="12.211470519950241"><ele>-1.0</ele><time>2026-04-26T06:06:14.005Z</time></trkpt><trkpt lat="44.32151518697871" lon="12.21146804122949"><ele>-1.0</ele><time>2026-04-26T06:06:15.005Z</time></trkpt><trkpt lat="44.32136860243685" lon="12.211463195168038"><ele>-1.0</ele><time>2026-04-26T06:06:16.005Z</time></trkpt><trkpt lat="44.32122855805688" lon="12.211457574289605"><ele>-1.0</ele><time>2026-04-26T06:06:17.005Z</time></trkpt><trkpt lat="44.32109085026899" lon="12.211449491416229"><ele>-1.0</ele><time>2026-04-26T06:06:18.005Z</time></trkpt><trkpt lat="44.320949421527004" lon="12.211441255229783"><ele>-1.0</ele><time>2026-04-26T06:06:19.005Z</time></trkpt><trkpt lat="44.32080855457001" lon="12.211433716741087"><ele>-1.0</ele><time>2026-04-26T06:06:20.005Z</time></trkpt><trkpt lat="44.32067024430352" lon="12.211428850850183"><ele>-1.0</ele><time>2026-04-26T06:06:21.005Z</time></trkpt><trkpt lat="44.32053117256039" lon="12.21142221102996"><ele>-1.0</ele><time>2026-04-26T06:06:22.005Z</time></trkpt><trkpt lat="44.32039498778395" lon="12.211414498489876"><ele>-1.0</ele><time>2026-04-26T06:06:23.005Z</time></trkpt><trkpt lat="44.32026346627087" lon="12.21140946030917"><ele>-1.0</ele><time>2026-04-26T06:06:24.005Z</time></trkpt><trkpt lat="44.32012905189022" lon="12.211406497724887"><ele>-1.0</ele><time>2026-04-26T06:06:25.005Z</time></trkpt><trkpt lat="44.319994847019665" lon="12.211403586548842"><ele>-1.0</ele><time>2026-04-26T06:06:26.005Z</time></trkpt><trkpt lat="44.31986277820996" lon="12.2113994710404"><ele>-1.0</ele><time>2026-04-26T06:06:27.005Z</time></trkpt><trkpt lat="44.31973484781396" lon="12.211379100010836"><ele>-1.0</ele><time>2026-04-26T06:06:28.005Z</time></trkpt><trkpt lat="44.319605244244876" lon="12.211374843764808"><ele>-1.0</ele><time>2026-04-26T06:06:29.005Z</time></trkpt><trkpt lat="44.319478072576246" lon="12.211368567138512"><ele>-1.0</ele><time>2026-04-26T06:06:30.005Z</time></trkpt><trkpt lat="44.31934955702418" lon="12.211359626847681"><ele>-0.75</ele><time>2026-04-26T06:06:31.005Z</time></trkpt><trkpt lat="44.31921669019946" lon="12.211353777390508"><ele>-0.5</ele><time>2026-04-26T06:06:32.005Z</time></trkpt><trkpt lat="44.319081423703864" lon="12.211346702118634"><ele>-0.25</ele><time>2026-04-26T06:06:33.005Z</time></trkpt><trkpt lat="44.31894579248964" lon="12.211339420853381"><ele>0.0</ele><time>2026-04-26T06:06:34.005Z</time></trkpt><trkpt lat="44.31881300498188" lon="12.211333420315778"><ele>0.75</ele><time>2026-04-26T06:06:35.005Z</time></trkpt><trkpt lat="44.3186807736897" lon="12.211326061274393"><ele>1.5</ele><time>2026-04-26T06:06:36.005Z</time></trkpt><trkpt lat="44.318542192551966" lon="12.211318141828153"><ele>2.25</ele><time>2026-04-26T06:06:37.005Z</time></trkpt><trkpt lat="44.31839984999183" lon="12.211311256764898"><ele>3.0</ele><time>2026-04-26T06:06:38.005Z</time></trkpt><trkpt lat="44.31825617426628" lon="12.211304727300021"><ele>3.0</ele><time>2026-04-26T06:06:39.005Z</time></trkpt><trkpt lat="44.31811176773043" lon="12.211298336602457"><ele>3.0</ele><time>2026-04-26T06:06:40.005Z</time></trkpt><trkpt lat="44.31796788974284" lon="12.211289076380249"><ele>3.0</ele><time>2026-04-26T06:06:41.005Z</time></trkpt><trkpt lat="44.31781816277278" lon="12.211282702868797"><ele>3.0</ele><time>2026-04-26T06:06:42.005Z</time></trkpt><trkpt lat="44.317668614234336" lon="12.211278407834216"><ele>2.6666666666666665</ele><time>2026-04-26T06:06:43.005Z</time></trkpt><trkpt lat="44.31751333528932" lon="12.211271180624683"><ele>2.333333333333333</ele><time>2026-04-26T06:06:44.005Z</time></trkpt><trkpt lat="44.317357280541856" lon="12.211264651880823"><ele>2.0</ele><time>2026-04-26T06:06:45.005Z</time></trkpt><trkpt lat="44.3172010505532" lon="12.211258071443813"><ele>1.6666666666666665</ele><time>2026-04-26T06:06:46.005Z</time></trkpt><trkpt lat="44.31704099222559" lon="12.211228816664445"><ele>1.3333333333333333</ele><time>2026-04-26T06:06:47.005Z</time></trkpt><trkpt lat="44.31687925379642" lon="12.211248648983023"><ele>1.0</ele><time>2026-04-26T06:06:48.006Z</time></trkpt><trkpt lat="44.31671310776981" lon="12.211252175033152"><ele>1.0</ele><time>2026-04-26T06:06:49.006Z</time></trkpt><trkpt lat="44.31655008048657" lon="12.211248940079095"><ele>1.0</ele><time>2026-04-26T06:06:50.006Z</time></trkpt><trkpt lat="44.31638505004954" lon="12.211285029435528"><ele>1.0</ele><time>2026-04-26T06:06:51.006Z</time></trkpt><trkpt lat="44.316215948047166" lon="12.211332264233437"><ele>0.6666666666666666</ele><time>2026-04-26T06:06:52.006Z</time></trkpt><trkpt lat="44.31604769249625" lon="12.211377983155794"><ele>0.3333333333333333</ele><time>2026-04-26T06:06:53.006Z</time></trkpt><trkpt lat="44.31588526971825" lon="12.211420381026514"><ele>0.0</ele><time>2026-04-26T06:06:54.006Z</time></trkpt><trkpt lat="44.31572543901565" lon="12.211455835272524"><ele>0.0</ele><time>2026-04-26T06:06:55.006Z</time></trkpt><trkpt lat="44.31556761314575" lon="12.211481261964899"><ele>0.0</ele><time>2026-04-26T06:06:56.006Z</time></trkpt><trkpt lat="44.31541126920964" lon="12.211509146074542"><ele>0.0</ele><time>2026-04-26T06:06:57.006Z</time></trkpt><trkpt lat="44.3152565477501" lon="12.211520048854359"><ele>0.3333333333333333</ele><time>2026-04-26T06:06:58.006Z</time></trkpt><trkpt lat="44.31510034384216" lon="12.21152369283945"><ele>0.6666666666666666</ele><time>2026-04-26T06:06:59.006Z</time></trkpt><trkpt lat="44.3149378964359" lon="12.211531982463617"><ele>1.0</ele><time>2026-04-26T06:07:00.006Z</time></trkpt><trkpt lat="44.31478440650467" lon="12.211541998128727"><ele>0.3333333333333333</ele><time>2026-04-26T06:07:01.006Z</time></trkpt><trkpt lat="44.3146278997955" lon="12.211541237669932"><ele>-0.3333333333333333</ele><time>2026-04-26T06:07:02.006Z</time></trkpt><trkpt lat="44.314471470785676" lon="12.21154541360008"><ele>-1.0</ele><time>2026-04-26T06:07:03.006Z</time></trkpt><trkpt lat="44.31431082533965" lon="12.211545960491762"><ele>-1.0</ele><time>2026-04-26T06:07:04.006Z</time></trkpt><trkpt lat="44.31414516715822" lon="12.211555081759727"><ele>-1.0</ele><time>2026-04-26T06:07:05.006Z</time></trkpt><trkpt lat="44.31397683101134" lon="12.211563336675713"><ele>-1.0</ele><time>2026-04-26T06:07:06.006Z</time></trkpt><trkpt lat="44.31380354061584" lon="12.211571903041447"><ele>-0.6666666666666666</ele><time>2026-04-26T06:07:07.006Z</time></trkpt><trkpt lat="44.31362624374564" lon="12.211580711850674"><ele>-0.3333333333333333</ele><time>2026-04-26T06:07:08.006Z</time></trkpt><trkpt lat="44.31344537588815" lon="12.21158655051792"><ele>0.0</ele><time>2026-04-26T06:07:09.006Z</time></trkpt><trkpt lat="44.313258870994154" lon="12.211592122817208"><ele>0.3333333333333333</ele><time>2026-04-26T06:07:10.006Z</time></trkpt><trkpt lat="44.31307047908238" lon="12.21159795430765"><ele>0.6666666666666666</ele><time>2026-04-26T06:07:11.006Z</time></trkpt><trkpt lat="44.312880078748606" lon="12.211606643870947"><ele>1.0</ele><time>2026-04-26T06:07:12.006Z</time></trkpt><trkpt lat="44.31268359715853" lon="12.21161711670331"><ele>1.0</ele><time>2026-04-26T06:07:13.006Z</time></trkpt><trkpt lat="44.31248603406549" lon="12.21162516922068"><ele>1.0</ele><time>2026-04-26T06:07:14.006Z</time></trkpt><trkpt lat="44.312288470112875" lon="12.21163209664846"><ele>1.0</ele><time>2026-04-26T06:07:15.006Z</time></trkpt><trkpt lat="44.312089533237064" lon="12.211640033367658"><ele>0.3333333333333333</ele><time>2026-04-26T06:07:16.006Z</time></trkpt><trkpt lat="44.31188099729658" lon="12.211647243859046"><ele>-0.3333333333333333</ele><time>2026-04-26T06:07:17.006Z</time></trkpt><trkpt lat="44.311680930743904" lon="12.211658742738845"><ele>-1.0</ele><time>2026-04-26T06:07:18.006Z</time></trkpt><trkpt lat="44.311477926242006" lon="12.211668863076607"><ele>-1.0</ele><time>2026-04-26T06:07:19.006Z</time></trkpt><trkpt lat="44.31127390036374" lon="12.211677631772568"><ele>-1.0</ele><time>2026-04-26T06:07:20.006Z</time></trkpt><trkpt lat="44.31106488443873" lon="12.211686155944186"><ele>-1.0</ele><time>2026-04-26T06:07:21.006Z</time></trkpt><trkpt lat="44.310855852409674" lon="12.211695157053482"><ele>-1.0</ele><time>2026-04-26T06:07:22.006Z</time></trkpt><trkpt lat="44.31064560112963" lon="12.211704473678548"><ele>-1.0</ele><time>2026-04-26T06:07:23.006Z</time></trkpt><trkpt lat="44.31043558838363" lon="12.211714210932803"><ele>-1.0</ele><time>2026-04-26T06:07:24.006Z</time></trkpt><trkpt lat="44.310222637278684" lon="12.211722707400616"><ele>-1.0</ele><time>2026-04-26T06:07:25.006Z</time></trkpt><trkpt lat="44.310009265747006" lon="12.211732028203638"><ele>-1.0</ele><time>2026-04-26T06:07:26.006Z</time></trkpt><trkpt lat="44.309796305657095" lon="12.211741760672767"><ele>-1.0</ele><time>2026-04-26T06:07:27.006Z</time></trkpt><trkpt lat="44.30958333907565" lon="12.211751682415235"><ele>-1.0</ele><time>2026-04-26T06:07:28.006Z</time></trkpt><trkpt lat="44.30915740208975" lon="12.211772115320704"><ele>-1.0</ele><time>2026-04-26T06:07:30.006Z</time></trkpt><trkpt lat="44.30894453988612" lon="12.211781510948173"><ele>-0.6666666666666666</ele><time>2026-04-26T06:07:31.006Z</time></trkpt><trkpt lat="44.308732435743146" lon="12.211790086135036"><ele>-0.3333333333333333</ele><time>2026-04-26T06:07:32.006Z</time></trkpt><trkpt lat="44.30851808450997" lon="12.2118004182241"><ele>0.0</ele><time>2026-04-26T06:07:33.006Z</time></trkpt><trkpt lat="44.30830025521077" lon="12.211811541789858"><ele>0.0</ele><time>2026-04-26T06:07:34.006Z</time></trkpt><trkpt lat="44.308078420536965" lon="12.21182407616934"><ele>0.0</ele><time>2026-04-26T06:07:35.006Z</time></trkpt><trkpt lat="44.30785665564749" lon="12.211835196644293"><ele>0.0</ele><time>2026-04-26T06:07:36.006Z</time></trkpt><trkpt lat="44.307638762247514" lon="12.211843925036439"><ele>-0.3333333333333333</ele><time>2026-04-26T06:07:37.006Z</time></trkpt><trkpt lat="44.30742233953876" lon="12.211854803410331"><ele>-0.6666666666666666</ele><time>2026-04-26T06:07:38.006Z</time></trkpt><trkpt lat="44.30720212972816" lon="12.211842745765018"><ele>-1.0</ele><time>2026-04-26T06:07:39.006Z</time></trkpt><trkpt lat="44.3069845049275" lon="12.211852736234503"><ele>-1.0</ele><time>2026-04-26T06:07:40.006Z</time></trkpt><trkpt lat="44.30676799372424" lon="12.211861904761951"><ele>-1.0</ele><time>2026-04-26T06:07:41.006Z</time></trkpt><trkpt lat="44.30654961845485" lon="12.21187089245601"><ele>-1.0</ele><time>2026-04-26T06:07:42.006Z</time></trkpt><trkpt lat="44.30632738443984" lon="12.211881456295973"><ele>-1.3333333333333333</ele><time>2026-04-26T06:07:43.006Z</time></trkpt><trkpt lat="44.306102786810904" lon="12.211892491715629"><ele>-1.6666666666666665</ele><time>2026-04-26T06:07:44.006Z</time></trkpt><trkpt lat="44.30588051862439" lon="12.211924164940635"><ele>-2.0</ele><time>2026-04-26T06:07:45.006Z</time></trkpt><trkpt lat="44.305656078525104" lon="12.211931381945794"><ele>-2.333333333333333</ele><time>2026-04-26T06:07:46.006Z</time></trkpt><trkpt lat="44.305432312060766" lon="12.21193984835859"><ele>-2.6666666666666665</ele><time>2026-04-26T06:07:47.006Z</time></trkpt><trkpt lat="44.30520942523042" lon="12.211952164917255"><ele>-3.0</ele><time>2026-04-26T06:07:48.006Z</time></trkpt><trkpt lat="44.30498483033608" lon="12.211963117136715"><ele>-3.0</ele><time>2026-04-26T06:07:49.006Z</time></trkpt><trkpt lat="44.30476059744491" lon="12.21197223353088"><ele>-3.0</ele><time>2026-04-26T06:07:50.006Z</time></trkpt><trkpt lat="44.304537735395286" lon="12.211983514233248"><ele>-3.0</ele><time>2026-04-26T06:07:51.006Z</time></trkpt><trkpt lat="44.30431635515479" lon="12.211969871378527"><ele>-3.0</ele><time>2026-04-26T06:07:52.006Z</time></trkpt><trkpt lat="44.30409212061235" lon="12.21197950245664"><ele>-3.0</ele><time>2026-04-26T06:07:53.006Z</time></trkpt><trkpt lat="44.30386677520662" lon="12.211989321698647"><ele>-2.6666666666666665</ele><time>2026-04-26T06:07:54.006Z</time></trkpt><trkpt lat="44.30364402296423" lon="12.211999671791311"><ele>-2.333333333333333</ele><time>2026-04-26T06:07:55.006Z</time></trkpt><trkpt lat="44.30342539456798" lon="12.212029253301985"><ele>-2.0</ele><time>2026-04-26T06:07:56.006Z</time></trkpt><trkpt lat="44.30320570379871" lon="12.212037844332558"><ele>-2.0</ele><time>2026-04-26T06:07:57.006Z</time></trkpt><trkpt lat="44.302988232517684" lon="12.212048954765942"><ele>-2.0</ele><time>2026-04-26T06:07:58.006Z</time></trkpt><trkpt lat="44.30276914958692" lon="12.212036100960567"><ele>-2.0</ele><time>2026-04-26T06:07:59.006Z</time></trkpt><trkpt lat="44.302550338474425" lon="12.212046410282916"><ele>-2.0</ele><time>2026-04-26T06:08:00.006Z</time></trkpt><trkpt lat="44.30233437337709" lon="12.212076782833885"><ele>-2.0</ele><time>2026-04-26T06:08:01.006Z</time></trkpt><trkpt lat="44.302117340873814" lon="12.212083986585005"><ele>-2.0</ele><time>2026-04-26T06:08:02.006Z</time></trkpt><trkpt lat="44.301899896726425" lon="12.212093145405731"><ele>-2.0</ele><time>2026-04-26T06:08:03.006Z</time></trkpt><trkpt lat="44.30168366720756" lon="12.212101869876918"><ele>-2.0</ele><time>2026-04-26T06:08:04.006Z</time></trkpt><trkpt lat="44.301466561619954" lon="12.212112182180437"><ele>-2.0</ele><time>2026-04-26T06:08:05.006Z</time></trkpt><trkpt lat="44.30124855009773" lon="12.212120832808848"><ele>-2.0</ele><time>2026-04-26T06:08:06.006Z</time></trkpt><trkpt lat="44.30103043733007" lon="12.212127162412054"><ele>-2.0</ele><time>2026-04-26T06:08:07.006Z</time></trkpt><trkpt lat="44.30081372380325" lon="12.21213303065645"><ele>-2.0</ele><time>2026-04-26T06:08:08.006Z</time></trkpt><trkpt lat="44.30059558058729" lon="12.212138593512854"><ele>-2.0</ele><time>2026-04-26T06:08:09.006Z</time></trkpt><trkpt lat="44.30037734236741" lon="12.212143715974458"><ele>-2.0</ele><time>2026-04-26T06:08:10.006Z</time></trkpt><trkpt lat="44.300162035170615" lon="12.212146166231731"><ele>-2.0</ele><time>2026-04-26T06:08:11.006Z</time></trkpt><trkpt lat="44.299945423453195" lon="12.212148138161407"><ele>-2.0</ele><time>2026-04-26T06:08:12.006Z</time></trkpt><trkpt lat="44.29973170618329" lon="12.21214967413547"><ele>-2.0</ele><time>2026-04-26T06:08:13.006Z</time></trkpt><trkpt lat="44.29951854962036" lon="12.212149241687806"><ele>-2.0</ele><time>2026-04-26T06:08:14.006Z</time></trkpt><trkpt lat="44.29930818945084" lon="12.212146774203894"><ele>-2.0</ele><time>2026-04-26T06:08:15.006Z</time></trkpt><trkpt lat="44.29909952030235" lon="12.212142128987939"><ele>-2.0</ele><time>2026-04-26T06:08:16.006Z</time></trkpt><trkpt lat="44.29888776385578" lon="12.212136805477698"><ele>-2.0</ele><time>2026-04-26T06:08:17.006Z</time></trkpt><trkpt lat="44.29867625644323" lon="12.212128140222722"><ele>-2.0</ele><time>2026-04-26T06:08:18.006Z</time></trkpt><trkpt lat="44.298467517293886" lon="12.212112387918221"><ele>-2.0</ele><time>2026-04-26T06:08:19.006Z</time></trkpt><trkpt lat="44.29825692750954" lon="12.212094583118184"><ele>-2.0</ele><time>2026-04-26T06:08:20.006Z</time></trkpt><trkpt lat="44.29804493613064" lon="12.212076234060207"><ele>-2.0</ele><time>2026-04-26T06:08:21.006Z</time></trkpt><trkpt lat="44.29783182773338" lon="12.212055893449833"><ele>-2.0</ele><time>2026-04-26T06:08:22.006Z</time></trkpt><trkpt lat="44.29761918066885" lon="12.212035948745257"><ele>-2.0</ele><time>2026-04-26T06:08:23.006Z</time></trkpt><trkpt lat="44.29740739877675" lon="12.212023388389143"><ele>-1.3333333333333333</ele><time>2026-04-26T06:08:24.006Z</time></trkpt><trkpt lat="44.29719393156245" lon="12.212026884783569"><ele>-0.6666666666666666</ele><time>2026-04-26T06:08:25.006Z</time></trkpt><trkpt lat="44.29697515801243" lon="12.21205211248121"><ele>0.0</ele><time>2026-04-26T06:08:26.006Z</time></trkpt><trkpt lat="44.29675183306488" lon="12.212086177078449"><ele>0.0</ele><time>2026-04-26T06:08:27.006Z</time></trkpt><trkpt lat="44.296529911860816" lon="12.212120249340686"><ele>0.0</ele><time>2026-04-26T06:08:28.006Z</time></trkpt><trkpt lat="44.29630845635352" lon="12.212152157663388"><ele>0.0</ele><time>2026-04-26T06:08:29.006Z</time></trkpt><trkpt lat="44.29608718967051" lon="12.212181663798864"><ele>0.0</ele><time>2026-04-26T06:08:30.006Z</time></trkpt><trkpt lat="44.29586499500642" lon="12.212211384555742"><ele>0.0</ele><time>2026-04-26T06:08:31.006Z</time></trkpt><trkpt lat="44.29564401256749" lon="12.212240286912335"><ele>0.0</ele><time>2026-04-26T06:08:32.006Z</time></trkpt><trkpt lat="44.29542508695392" lon="12.212274125177942"><ele>0.0</ele><time>2026-04-26T06:08:33.006Z</time></trkpt><trkpt lat="44.29520154807786" lon="12.212306026510628"><ele>0.0</ele><time>2026-04-26T06:08:34.006Z</time></trkpt><trkpt lat="44.29497572975527" lon="12.212340179732964"><ele>-0.5</ele><time>2026-04-26T06:08:35.007Z</time></trkpt><trkpt lat="44.29474669220766" lon="12.212374279709122"><ele>-1.0</ele><time>2026-04-26T06:08:36.007Z</time></trkpt><trkpt lat="44.29451616934811" lon="12.212406254162365"><ele>-1.0</ele><time>2026-04-26T06:08:37.007Z</time></trkpt><trkpt lat="44.29428458517908" lon="12.212436707797496"><ele>-1.0</ele><time>2026-04-26T06:08:38.007Z</time></trkpt><trkpt lat="44.29405046615819" lon="12.2124670495853"><ele>-1.0</ele><time>2026-04-26T06:08:39.007Z</time></trkpt><trkpt lat="44.29381728255975" lon="12.212491342620815"><ele>-1.0</ele><time>2026-04-26T06:08:40.007Z</time></trkpt><trkpt lat="44.29358645904673" lon="12.212513034609476"><ele>-1.0</ele><time>2026-04-26T06:08:41.007Z</time></trkpt><trkpt lat="44.29335479253513" lon="12.212532530849714"><ele>-1.0</ele><time>2026-04-26T06:08:42.007Z</time></trkpt><trkpt lat="44.29312514479773" lon="12.21254875703197"><ele>-1.0</ele><time>2026-04-26T06:08:43.007Z</time></trkpt><trkpt lat="44.292894814197496" lon="12.212563770360088"><ele>-1.0</ele><time>2026-04-26T06:08:44.007Z</time></trkpt><trkpt lat="44.292671615576495" lon="12.212576356386588"><ele>-1.0</ele><time>2026-04-26T06:08:45.007Z</time></trkpt><trkpt lat="44.29244152800033" lon="12.212593269968906"><ele>-1.0</ele><time>2026-04-26T06:08:46.007Z</time></trkpt><trkpt lat="44.29221564372176" lon="12.21260504858239"><ele>-1.0</ele><time>2026-04-26T06:08:47.007Z</time></trkpt><trkpt lat="44.291988042095284" lon="12.212616181305139"><ele>-1.0</ele><time>2026-04-26T06:08:48.007Z</time></trkpt><trkpt lat="44.29175929569991" lon="12.212627483231653"><ele>-1.0</ele><time>2026-04-26T06:08:49.007Z</time></trkpt><trkpt lat="44.291531062069076" lon="12.212638373840528"><ele>-1.0</ele><time>2026-04-26T06:08:50.007Z</time></trkpt><trkpt lat="44.29130107770317" lon="12.212653035149252"><ele>-1.0</ele><time>2026-04-26T06:08:51.007Z</time></trkpt><trkpt lat="44.291070779093694" lon="12.212666031583893"><ele>-1.0</ele><time>2026-04-26T06:08:52.007Z</time></trkpt><trkpt lat="44.29084182550832" lon="12.212676358835305"><ele>-1.0</ele><time>2026-04-26T06:08:53.007Z</time></trkpt><trkpt lat="44.290616332324774" lon="12.212686589006612"><ele>-1.0</ele><time>2026-04-26T06:08:54.007Z</time></trkpt><trkpt lat="44.29038987866943" lon="12.212696818448403"><ele>0.0</ele><time>2026-04-26T06:08:55.007Z</time></trkpt><trkpt lat="44.29016301878463" lon="12.212711159196783"><ele>1.0</ele><time>2026-04-26T06:08:56.007Z</time></trkpt><trkpt lat="44.289935534205654" lon="12.212726149608427"><ele>0.5</ele><time>2026-04-26T06:08:57.007Z</time></trkpt><trkpt lat="44.28970766399167" lon="12.212735470458023"><ele>0.0</ele><time>2026-04-26T06:08:58.007Z</time></trkpt><trkpt lat="44.2894795028984" lon="12.21274552868801"><ele>0.0</ele><time>2026-04-26T06:08:59.007Z</time></trkpt><trkpt lat="44.289255844721424" lon="12.2127546473895"><ele>0.0</ele><time>2026-04-26T06:09:00.007Z</time></trkpt><trkpt lat="44.2890326031038" lon="12.212764594613061"><ele>0.0</ele><time>2026-04-26T06:09:01.007Z</time></trkpt><trkpt lat="44.28880830463654" lon="12.212772922539713"><ele>-0.3333333333333333</ele><time>2026-04-26T06:09:02.007Z</time></trkpt><trkpt lat="44.28858356199499" lon="12.212780890064032"><ele>-0.6666666666666666</ele><time>2026-04-26T06:09:03.007Z</time></trkpt><trkpt lat="44.28836075464583" lon="12.212786959113027"><ele>-1.0</ele><time>2026-04-26T06:09:04.007Z</time></trkpt><trkpt lat="44.288137108772524" lon="12.212792532228914"><ele>-1.0</ele><time>2026-04-26T06:09:05.007Z</time></trkpt><trkpt lat="44.28791362256028" lon="12.212799081606597"><ele>-1.0</ele><time>2026-04-26T06:09:06.007Z</time></trkpt><trkpt lat="44.28768844510271" lon="12.212803468065315"><ele>-1.0</ele><time>2026-04-26T06:09:07.007Z</time></trkpt><trkpt lat="44.28746439580001" lon="12.212807836795442"><ele>-0.5</ele><time>2026-04-26T06:09:08.007Z</time></trkpt><trkpt lat="44.28723992477146" lon="12.212811610909242"><ele>0.0</ele><time>2026-04-26T06:09:09.007Z</time></trkpt><trkpt lat="44.28701410439585" lon="12.212819195105237"><ele>0.0</ele><time>2026-04-26T06:09:10.007Z</time></trkpt><trkpt lat="44.286793012653156" lon="12.212822423928843"><ele>0.0</ele><time>2026-04-26T06:09:11.007Z</time></trkpt><trkpt lat="44.28657796892016" lon="12.212827507975003"><ele>0.0</ele><time>2026-04-26T06:09:12.007Z</time></trkpt><trkpt lat="44.286358207921886" lon="12.212841377578128"><ele>-0.3333333333333333</ele><time>2026-04-26T06:09:13.007Z</time></trkpt><trkpt lat="44.28613915926175" lon="12.212847222112028"><ele>-0.6666666666666666</ele><time>2026-04-26T06:09:14.007Z</time></trkpt><trkpt lat="44.28592131262125" lon="12.212857501376273"><ele>-1.0</ele><time>2026-04-26T06:09:15.007Z</time></trkpt><trkpt lat="44.2857013586354" lon="12.212865795467"><ele>-1.0</ele><time>2026-04-26T06:09:16.007Z</time></trkpt><trkpt lat="44.2854839731647" lon="12.212876057384223"><ele>-1.0</ele><time>2026-04-26T06:09:17.007Z</time></trkpt><trkpt lat="44.28526561091565" lon="12.212884571469479"><ele>-1.0</ele><time>2026-04-26T06:09:18.007Z</time></trkpt><trkpt lat="44.285046472915724" lon="12.212894134538349"><ele>-1.0</ele><time>2026-04-26T06:09:19.007Z</time></trkpt><trkpt lat="44.28482907253639" lon="12.21290296401494"><ele>-1.0</ele><time>2026-04-26T06:09:20.007Z</time></trkpt><trkpt lat="44.28460977220208" lon="12.212911756473774"><ele>-1.0</ele><time>2026-04-26T06:09:21.007Z</time></trkpt><trkpt lat="44.284390693816746" lon="12.212921581840398"><ele>-0.6666666666666666</ele><time>2026-04-26T06:09:22.007Z</time></trkpt><trkpt lat="44.284171374902655" lon="12.212933505860839"><ele>-0.3333333333333333</ele><time>2026-04-26T06:09:23.007Z</time></trkpt><trkpt lat="44.28395217220764" lon="12.212946040950884"><ele>0.0</ele><time>2026-04-26T06:09:24.007Z</time></trkpt><trkpt lat="44.283733492426926" lon="12.212958360341919"><ele>0.0</ele><time>2026-04-26T06:09:25.007Z</time></trkpt><trkpt lat="44.28351595771032" lon="12.212970188360265"><ele>0.0</ele><time>2026-04-26T06:09:26.007Z</time></trkpt><trkpt lat="44.28329881653598" lon="12.212981587412397"><ele>0.0</ele><time>2026-04-26T06:09:27.007Z</time></trkpt><trkpt lat="44.283080137139756" lon="12.212992021943025"><ele>0.6666666666666666</ele><time>2026-04-26T06:09:28.007Z</time></trkpt><trkpt lat="44.28286204055666" lon="12.213003003348343"><ele>1.3333333333333333</ele><time>2026-04-26T06:09:29.007Z</time></trkpt><trkpt lat="44.28264434233275" lon="12.213014607150479"><ele>2.0</ele><time>2026-04-26T06:09:30.007Z</time></trkpt><trkpt lat="44.28242500374284" lon="12.213026068138616"><ele>2.0</ele><time>2026-04-26T06:09:31.007Z</time></trkpt><trkpt lat="44.2822061641474" lon="12.213038809907392"><ele>2.0</ele><time>2026-04-26T06:09:32.007Z</time></trkpt><trkpt lat="44.281987297460816" lon="12.213051718092066"><ele>2.0</ele><time>2026-04-26T06:09:33.007Z</time></trkpt><trkpt lat="44.281767557527374" lon="12.21306361510461"><ele>2.0</ele><time>2026-04-26T06:09:34.007Z</time></trkpt><trkpt lat="44.28154941785598" lon="12.213075529365495"><ele>2.0</ele><time>2026-04-26T06:09:35.007Z</time></trkpt><trkpt lat="44.28133338184421" lon="12.213087078926499"><ele>2.0</ele><time>2026-04-26T06:09:36.007Z</time></trkpt><trkpt lat="44.281117953862044" lon="12.213099532285858"><ele>2.0</ele><time>2026-04-26T06:09:37.007Z</time></trkpt><trkpt lat="44.28090459721944" lon="12.213110223049872"><ele>2.0</ele><time>2026-04-26T06:09:38.007Z</time></trkpt><trkpt lat="44.28069283524778" lon="12.213122473297348"><ele>2.0</ele><time>2026-04-26T06:09:39.007Z</time></trkpt><trkpt lat="44.280484067846245" lon="12.21313516252736"><ele>2.333333333333333</ele><time>2026-04-26T06:09:40.007Z</time></trkpt><trkpt lat="44.28028308057687" lon="12.213146632756564"><ele>2.6666666666666665</ele><time>2026-04-26T06:09:41.007Z</time></trkpt><trkpt lat="44.280094175354854" lon="12.213157723852495"><ele>3.0</ele><time>2026-04-26T06:09:42.007Z</time></trkpt><trkpt lat="44.279913672525296" lon="12.213168008622747"><ele>2.6666666666666665</ele><time>2026-04-26T06:09:43.007Z</time></trkpt><trkpt lat="44.27973614814813" lon="12.213176894526592"><ele>2.333333333333333</ele><time>2026-04-26T06:09:44.007Z</time></trkpt><trkpt lat="44.27957052913504" lon="12.213184248309496"><ele>2.0</ele><time>2026-04-26T06:09:45.007Z</time></trkpt><trkpt lat="44.27940683235423" lon="12.213193407121613"><ele>2.0</ele><time>2026-04-26T06:09:46.007Z</time></trkpt><trkpt lat="44.279254216928166" lon="12.213197628726258"><ele>2.0</ele><time>2026-04-26T06:09:47.007Z</time></trkpt><trkpt lat="44.27911522949207" lon="12.213203155335878"><ele>2.0</ele><time>2026-04-26T06:09:48.007Z</time></trkpt><trkpt lat="44.27900046395139" lon="12.213202248853335"><ele>2.0</ele><time>2026-04-26T06:09:49.007Z</time></trkpt><trkpt lat="44.27889329118799" lon="12.213189581161778"><ele>2.0</ele><time>2026-04-26T06:09:50.007Z</time></trkpt><trkpt lat="44.27880569038792" lon="12.213153184535795"><ele>2.0</ele><time>2026-04-26T06:09:51.007Z</time></trkpt><trkpt lat="44.27871293872576" lon="12.213130489478495"><ele>2.0</ele><time>2026-04-26T06:09:52.007Z</time></trkpt><trkpt lat="44.27860802865205" lon="12.213153820780178"><ele>2.0</ele><time>2026-04-26T06:09:53.007Z</time></trkpt><trkpt lat="44.27849346379033" lon="12.213195477349391"><ele>2.0</ele><time>2026-04-26T06:09:54.007Z</time></trkpt><trkpt lat="44.27836930801719" lon="12.21322892976419"><ele>2.0</ele><time>2026-04-26T06:09:55.007Z</time></trkpt><trkpt lat="44.2782319445632" lon="12.213247563518175"><ele>2.0</ele><time>2026-04-26T06:09:56.007Z</time></trkpt><trkpt lat="44.278095899920906" lon="12.21325606808339"><ele>2.0</ele><time>2026-04-26T06:09:57.007Z</time></trkpt><trkpt lat="44.27796219034173" lon="12.213267289071732"><ele>2.0</ele><time>2026-04-26T06:09:58.007Z</time></trkpt><trkpt lat="44.27782419894562" lon="12.21327571320421"><ele>2.5</ele><time>2026-04-26T06:09:59.007Z</time></trkpt><trkpt lat="44.27769027172342" lon="12.213279344789166"><ele>3.0</ele><time>2026-04-26T06:10:00.007Z</time></trkpt><trkpt lat="44.277558183673946" lon="12.213261173373066"><ele>3.5</ele><time>2026-04-26T06:10:01.007Z</time></trkpt><trkpt lat="44.27741789495487" lon="12.21326522971846"><ele>4.0</ele><time>2026-04-26T06:10:02.007Z</time></trkpt><trkpt lat="44.277274363266365" lon="12.213265870663548"><ele>4.0</ele><time>2026-04-26T06:10:03.007Z</time></trkpt><trkpt lat="44.27713897447608" lon="12.213271523115672"><ele>4.0</ele><time>2026-04-26T06:10:04.007Z</time></trkpt><trkpt lat="44.27700465413357" lon="12.213279241764136"><ele>4.0</ele><time>2026-04-26T06:10:05.007Z</time></trkpt><trkpt lat="44.2768765013196" lon="12.213283326616093"><ele>4.0</ele><time>2026-04-26T06:10:06.007Z</time></trkpt><trkpt lat="44.27675085424473" lon="12.213285934182904"><ele>4.0</ele><time>2026-04-26T06:10:07.007Z</time></trkpt><trkpt lat="44.276627019897866" lon="12.213289072581277"><ele>4.0</ele><time>2026-04-26T06:10:08.007Z</time></trkpt><trkpt lat="44.27650117835024" lon="12.213297425147044"><ele>4.0</ele><time>2026-04-26T06:10:09.007Z</time></trkpt><trkpt lat="44.276379470862345" lon="12.213300609019965"><ele>4.0</ele><time>2026-04-26T06:10:10.007Z</time></trkpt><trkpt lat="44.27626049473121" lon="12.213282477485745"><ele>4.5</ele><time>2026-04-26T06:10:11.007Z</time></trkpt><trkpt lat="44.276141541058536" lon="12.21328427086735"><ele>5.0</ele><time>2026-04-26T06:10:12.007Z</time></trkpt><trkpt lat="44.27602352863333" lon="12.213286050061326"><ele>5.5</ele><time>2026-04-26T06:10:13.007Z</time></trkpt><trkpt lat="44.275908496868425" lon="12.213287784315542"><ele>6.0</ele><time>2026-04-26T06:10:14.007Z</time></trkpt><trkpt lat="44.27578947819154" lon="12.213312169341231"><ele>6.0</ele><time>2026-04-26T06:10:15.007Z</time></trkpt><trkpt lat="44.27567258111898" lon="12.213300168048846"><ele>6.0</ele><time>2026-04-26T06:10:16.007Z</time></trkpt><trkpt lat="44.27555986569713" lon="12.213298645795838"><ele>6.0</ele><time>2026-04-26T06:10:17.007Z</time></trkpt><trkpt lat="44.27544172921322" lon="12.213298949763741"><ele>6.0</ele><time>2026-04-26T06:10:18.007Z</time></trkpt><trkpt lat="44.27532567151573" lon="12.213304740440583"><ele>6.0</ele><time>2026-04-26T06:10:19.007Z</time></trkpt><trkpt lat="44.27521909206358" lon="12.213290484689294"><ele>6.0</ele><time>2026-04-26T06:10:20.007Z</time></trkpt><trkpt lat="44.275112257565254" lon="12.213291604349001"><ele>6.0</ele><time>2026-04-26T06:10:21.007Z</time></trkpt><trkpt lat="44.275001898356415" lon="12.213295607706044"><ele>6.0</ele><time>2026-04-26T06:10:22.008Z</time></trkpt><trkpt lat="44.27488738861069" lon="12.213298107084341"><ele>6.0</ele><time>2026-04-26T06:10:23.008Z</time></trkpt><trkpt lat="44.27477544169575" lon="12.21329890840288"><ele>6.199999999999999</ele><time>2026-04-26T06:10:24.008Z</time></trkpt><trkpt lat="44.27466097946023" lon="12.213302622737952"><ele>6.3999999999999995</ele><time>2026-04-26T06:10:25.008Z</time></trkpt><trkpt lat="44.274548507786044" lon="12.213309443851015"><ele>6.6</ele><time>2026-04-26T06:10:26.008Z</time></trkpt><trkpt lat="44.2744436527275" lon="12.21329366975836"><ele>6.8</ele><time>2026-04-26T06:10:27.008Z</time></trkpt><trkpt lat="44.274335629065455" lon="12.213299427280921"><ele>7.0</ele><time>2026-04-26T06:10:28.008Z</time></trkpt><trkpt lat="44.27422186235527" lon="12.213305473448523"><ele>7.0</ele><time>2026-04-26T06:10:29.008Z</time></trkpt><trkpt lat="44.27410585535607" lon="12.213313611390694"><ele>7.0</ele><time>2026-04-26T06:10:30.008Z</time></trkpt><trkpt lat="44.27398807243588" lon="12.213314419033079"><ele>7.0</ele><time>2026-04-26T06:10:31.008Z</time></trkpt><trkpt lat="44.273873388649484" lon="12.213314009225714"><ele>7.0</ele><time>2026-04-26T06:10:32.008Z</time></trkpt><trkpt lat="44.2737611260471" lon="12.213318245190075"><ele>7.0</ele><time>2026-04-26T06:10:33.008Z</time></trkpt><trkpt lat="44.27364798216375" lon="12.213325198751763"><ele>6.999999999999999</ele><time>2026-04-26T06:10:34.008Z</time></trkpt><trkpt lat="44.27354282786628" lon="12.213335039027719"><ele>6.999999999999999</ele><time>2026-04-26T06:10:35.008Z</time></trkpt><trkpt lat="44.2734337599056" lon="12.213342041337762"><ele>7.0</ele><time>2026-04-26T06:10:36.008Z</time></trkpt><trkpt lat="44.27332313932385" lon="12.21335189677509"><ele>7.0</ele><time>2026-04-26T06:10:37.008Z</time></trkpt><trkpt lat="44.27321955091989" lon="12.213363841160643"><ele>7.0</ele><time>2026-04-26T06:10:38.008Z</time></trkpt><trkpt lat="44.273113972107" lon="12.21337462056105"><ele>7.0</ele><time>2026-04-26T06:10:39.008Z</time></trkpt><trkpt lat="44.27300233961053" lon="12.213350226512594"><ele>7.0</ele><time>2026-04-26T06:10:40.008Z</time></trkpt><trkpt lat="44.2728868997107" lon="12.213355311232462"><ele>7.0</ele><time>2026-04-26T06:10:41.008Z</time></trkpt><trkpt lat="44.27276990584892" lon="12.213360498916373"><ele>6.75</ele><time>2026-04-26T06:10:42.008Z</time></trkpt><trkpt lat="44.27264982167521" lon="12.21336582362776"><ele>6.5</ele><time>2026-04-26T06:10:43.008Z</time></trkpt><trkpt lat="44.27252597335022" lon="12.213377156915872"><ele>6.25</ele><time>2026-04-26T06:10:44.008Z</time></trkpt><trkpt lat="44.272394739140296" lon="12.213382756320723"><ele>6.0</ele><time>2026-04-26T06:10:45.008Z</time></trkpt><trkpt lat="44.272259043871344" lon="12.213387605007096"><ele>6.0</ele><time>2026-04-26T06:10:46.008Z</time></trkpt><trkpt lat="44.27212139446683" lon="12.213397981330631"><ele>6.0</ele><time>2026-04-26T06:10:47.008Z</time></trkpt><trkpt lat="44.2719857655181" lon="12.213407320196717"><ele>6.0</ele><time>2026-04-26T06:10:48.008Z</time></trkpt><trkpt lat="44.27185018265037" lon="12.213415254609897"><ele>6.0</ele><time>2026-04-26T06:10:49.008Z</time></trkpt><trkpt lat="44.271716576951626" lon="12.213422462598833"><ele>6.0</ele><time>2026-04-26T06:10:50.008Z</time></trkpt><trkpt lat="44.27158105412902" lon="12.213432799310855"><ele>6.0</ele><time>2026-04-26T06:10:51.008Z</time></trkpt><trkpt lat="44.27144884206523" lon="12.213452433812446"><ele>6.0</ele><time>2026-04-26T06:10:52.008Z</time></trkpt><trkpt lat="44.27131748556356" lon="12.213468229134302"><ele>6.0</ele><time>2026-04-26T06:10:53.008Z</time></trkpt><trkpt lat="44.27118296228224" lon="12.213474769982161"><ele>6.0</ele><time>2026-04-26T06:10:54.008Z</time></trkpt><trkpt lat="44.27105140330156" lon="12.213483365312754"><ele>6.0</ele><time>2026-04-26T06:10:55.008Z</time></trkpt><trkpt lat="44.270919755185396" lon="12.213496527626777"><ele>6.0</ele><time>2026-04-26T06:10:56.008Z</time></trkpt><trkpt lat="44.27078609630436" lon="12.213485233281917"><ele>6.0</ele><time>2026-04-26T06:10:57.008Z</time></trkpt><trkpt lat="44.27064885359367" lon="12.213494369835525"><ele>6.0</ele><time>2026-04-26T06:10:58.008Z</time></trkpt><trkpt lat="44.27051359666254" lon="12.213503417606061"><ele>6.0</ele><time>2026-04-26T06:10:59.008Z</time></trkpt><trkpt lat="44.270377112294064" lon="12.21351289113648"><ele>6.0</ele><time>2026-04-26T06:11:00.008Z</time></trkpt><trkpt lat="44.27023648067195" lon="12.213522652542254"><ele>6.0</ele><time>2026-04-26T06:11:01.008Z</time></trkpt><trkpt lat="44.27009179089915" lon="12.213533533586695"><ele>6.0</ele><time>2026-04-26T06:11:02.008Z</time></trkpt><trkpt lat="44.26994929122887" lon="12.213546108866298"><ele>6.0</ele><time>2026-04-26T06:11:03.008Z</time></trkpt><trkpt lat="44.26980299689338" lon="12.2135562910823"><ele>6.0</ele><time>2026-04-26T06:11:04.008Z</time></trkpt><trkpt lat="44.26965084947118" lon="12.213568156631101"><ele>6.0</ele><time>2026-04-26T06:11:05.008Z</time></trkpt><trkpt lat="44.269507647795535" lon="12.21357991664484"><ele>6.0</ele><time>2026-04-26T06:11:06.008Z</time></trkpt><trkpt lat="44.269365794951554" lon="12.21359794472674"><ele>6.0</ele><time>2026-04-26T06:11:07.008Z</time></trkpt><trkpt lat="44.269217846469985" lon="12.213578777414138"><ele>6.0</ele><time>2026-04-26T06:11:08.008Z</time></trkpt><trkpt lat="44.269069523450206" lon="12.21359044804856"><ele>6.0</ele><time>2026-04-26T06:11:09.008Z</time></trkpt><trkpt lat="44.26892069869057" lon="12.213604292082069"><ele>6.25</ele><time>2026-04-26T06:11:10.008Z</time></trkpt><trkpt lat="44.26878098268508" lon="12.213613014039774"><ele>6.5</ele><time>2026-04-26T06:11:11.008Z</time></trkpt><trkpt lat="44.26865053687405" lon="12.213615660365692"><ele>6.75</ele><time>2026-04-26T06:11:12.008Z</time></trkpt><trkpt lat="44.268515941838274" lon="12.213623570688815"><ele>7.0</ele><time>2026-04-26T06:11:13.008Z</time></trkpt><trkpt lat="44.26838011772605" lon="12.213634643788568"><ele>7.0</ele><time>2026-04-26T06:11:14.008Z</time></trkpt><trkpt lat="44.268244922737246" lon="12.213646311642542"><ele>7.0</ele><time>2026-04-26T06:11:15.008Z</time></trkpt><trkpt lat="44.26811296999052" lon="12.21365483593145"><ele>7.0</ele><time>2026-04-26T06:11:16.008Z</time></trkpt><trkpt lat="44.26797558438381" lon="12.213658150129785"><ele>7.0</ele><time>2026-04-26T06:11:17.008Z</time></trkpt><trkpt lat="44.26783841808923" lon="12.213670158376962"><ele>7.0</ele><time>2026-04-26T06:11:18.008Z</time></trkpt><trkpt lat="44.26770212899445" lon="12.213681413062375"><ele>7.0</ele><time>2026-04-26T06:11:19.008Z</time></trkpt><trkpt lat="44.26756102330928" lon="12.213664677818327"><ele>7.0</ele><time>2026-04-26T06:11:20.008Z</time></trkpt><trkpt lat="44.26742123141988" lon="12.21367138339487"><ele>7.0</ele><time>2026-04-26T06:11:21.008Z</time></trkpt><trkpt lat="44.26728862592495" lon="12.213679581752324"><ele>6.75</ele><time>2026-04-26T06:11:22.008Z</time></trkpt><trkpt lat="44.26715488667928" lon="12.213687908269254"><ele>6.5</ele><time>2026-04-26T06:11:23.008Z</time></trkpt><trkpt lat="44.26702180748749" lon="12.21369258292177"><ele>6.25</ele><time>2026-04-26T06:11:24.008Z</time></trkpt><trkpt lat="44.2668867085877" lon="12.213696770470882"><ele>6.0</ele><time>2026-04-26T06:11:25.008Z</time></trkpt><trkpt lat="44.26675297856478" lon="12.213681883319111"><ele>6.0</ele><time>2026-04-26T06:11:26.008Z</time></trkpt><trkpt lat="44.266619412499075" lon="12.213695124889757"><ele>6.0</ele><time>2026-04-26T06:11:27.008Z</time></trkpt><trkpt lat="44.266485799377904" lon="12.213702833226712"><ele>6.0</ele><time>2026-04-26T06:11:28.008Z</time></trkpt><trkpt lat="44.266353610608526" lon="12.213707977630284"><ele>6.0</ele><time>2026-04-26T06:11:29.008Z</time></trkpt><trkpt lat="44.26621600148616" lon="12.213716990294195"><ele>6.25</ele><time>2026-04-26T06:11:30.008Z</time></trkpt><trkpt lat="44.26607762219735" lon="12.213697963439161"><ele>6.5</ele><time>2026-04-26T06:11:31.008Z</time></trkpt><trkpt lat="44.26593875781301" lon="12.213705620856402"><ele>6.75</ele><time>2026-04-26T06:11:32.008Z</time></trkpt><trkpt lat="44.26580214586523" lon="12.213710674821156"><ele>7.0</ele><time>2026-04-26T06:11:33.008Z</time></trkpt><trkpt lat="44.265661343676456" lon="12.213722330901614"><ele>7.0</ele><time>2026-04-26T06:11:34.008Z</time></trkpt><trkpt lat="44.26551553443827" lon="12.21373555763042"><ele>7.0</ele><time>2026-04-26T06:11:35.008Z</time></trkpt><trkpt lat="44.26536630986887" lon="12.21375268568485"><ele>7.0</ele><time>2026-04-26T06:11:36.008Z</time></trkpt><trkpt lat="44.26521262671762" lon="12.213765698388176"><ele>7.0</ele><time>2026-04-26T06:11:37.008Z</time></trkpt><trkpt lat="44.2650536785986" lon="12.21378126576956"><ele>7.0</ele><time>2026-04-26T06:11:38.008Z</time></trkpt><trkpt lat="44.26489188793748" lon="12.213794924896261"><ele>7.0</ele><time>2026-04-26T06:11:39.008Z</time></trkpt><trkpt lat="44.26472350421485" lon="12.21381063473688"><ele>7.0</ele><time>2026-04-26T06:11:40.008Z</time></trkpt><trkpt lat="44.264549281436885" lon="12.213825742038038"><ele>7.0</ele><time>2026-04-26T06:11:41.008Z</time></trkpt><trkpt lat="44.26437023636749" lon="12.213840553246069"><ele>7.0</ele><time>2026-04-26T06:11:42.008Z</time></trkpt><trkpt lat="44.264190748381765" lon="12.213856791812592"><ele>7.0</ele><time>2026-04-26T06:11:43.008Z</time></trkpt><trkpt lat="44.26400772178297" lon="12.213871057763765"><ele>7.0</ele><time>2026-04-26T06:11:44.008Z</time></trkpt><trkpt lat="44.263824173145906" lon="12.213886638796565"><ele>7.0</ele><time>2026-04-26T06:11:45.008Z</time></trkpt><trkpt lat="44.263641854235466" lon="12.213902323157074"><ele>6.666666666666667</ele><time>2026-04-26T06:11:46.008Z</time></trkpt><trkpt lat="44.263459407585756" lon="12.213916362982372"><ele>6.333333333333334</ele><time>2026-04-26T06:11:47.008Z</time></trkpt><trkpt lat="44.263283255658514" lon="12.21392508384576"><ele>6.0</ele><time>2026-04-26T06:11:48.008Z</time></trkpt><trkpt lat="44.26310865811067" lon="12.213940041197667"><ele>6.666666666666666</ele><time>2026-04-26T06:11:49.008Z</time></trkpt><trkpt lat="44.262932672406976" lon="12.21395879575134"><ele>7.333333333333333</ele><time>2026-04-26T06:11:50.008Z</time></trkpt><trkpt lat="44.26275873093415" lon="12.213973514631094"><ele>8.0</ele><time>2026-04-26T06:11:51.008Z</time></trkpt><trkpt lat="44.2625843629009" lon="12.21398832141349"><ele>7.333333333333333</ele><time>2026-04-26T06:11:52.008Z</time></trkpt><trkpt lat="44.26240957289623" lon="12.214001373312641"><ele>6.666666666666666</ele><time>2026-04-26T06:11:53.008Z</time></trkpt><trkpt lat="44.26223341292647" lon="12.214007836889095"><ele>6.0</ele><time>2026-04-26T06:11:54.008Z</time></trkpt><trkpt lat="44.26205241433988" lon="12.214010425956038"><ele>6.0</ele><time>2026-04-26T06:11:55.008Z</time></trkpt><trkpt lat="44.26186932363945" lon="12.214012944340492"><ele>6.0</ele><time>2026-04-26T06:11:56.008Z</time></trkpt><trkpt lat="44.26168506255698" lon="12.214014670453963"><ele>6.0</ele><time>2026-04-26T06:11:57.008Z</time></trkpt><trkpt lat="44.26150081087702" lon="12.214022952875192"><ele>6.0</ele><time>2026-04-26T06:11:58.008Z</time></trkpt><trkpt lat="44.261318120112556" lon="12.214030406700006"><ele>6.0</ele><time>2026-04-26T06:11:59.008Z</time></trkpt><trkpt lat="44.26112391004013" lon="12.214034055973105"><ele>6.0</ele><time>2026-04-26T06:12:00.008Z</time></trkpt><trkpt lat="44.26092925899173" lon="12.214035871715614"><ele>6.0</ele><time>2026-04-26T06:12:01.008Z</time></trkpt><trkpt lat="44.26073676679419" lon="12.214038097423945"><ele>6.0</ele><time>2026-04-26T06:12:02.008Z</time></trkpt><trkpt lat="44.26054400163137" lon="12.214042635871749"><ele>6.0</ele><time>2026-04-26T06:12:03.008Z</time></trkpt><trkpt lat="44.26034958666242" lon="12.214046459769897"><ele>6.0</ele><time>2026-04-26T06:12:04.008Z</time></trkpt><trkpt lat="44.26015183796499" lon="12.21404939603565"><ele>6.0</ele><time>2026-04-26T06:12:05.008Z</time></trkpt><trkpt lat="44.259949851597014" lon="12.21405538195215"><ele>6.0</ele><time>2026-04-26T06:12:06.008Z</time></trkpt><trkpt lat="44.25974386051417" lon="12.214062759171677"><ele>6.0</ele><time>2026-04-26T06:12:07.008Z</time></trkpt><trkpt lat="44.2595368955902" lon="12.214070686209869"><ele>6.0</ele><time>2026-04-26T06:12:08.008Z</time></trkpt><trkpt lat="44.25932896655234" lon="12.214078890794848"><ele>6.0</ele><time>2026-04-26T06:12:09.009Z</time></trkpt><trkpt lat="44.25912366134378" lon="12.214085574481196"><ele>5.666666666666667</ele><time>2026-04-26T06:12:10.009Z</time></trkpt><trkpt lat="44.25891986724219" lon="12.214091181246747"><ele>5.333333333333334</ele><time>2026-04-26T06:12:11.009Z</time></trkpt><trkpt lat="44.258721104690984" lon="12.214097269140659"><ele>5.0</ele><time>2026-04-26T06:12:12.009Z</time></trkpt><trkpt lat="44.258522204735456" lon="12.214106971921163"><ele>5.0</ele><time>2026-04-26T06:12:13.009Z</time></trkpt><trkpt lat="44.25832630017435" lon="12.214111458478346"><ele>5.0</ele><time>2026-04-26T06:12:14.009Z</time></trkpt><trkpt lat="44.25812924495896" lon="12.214113394435532"><ele>5.0</ele><time>2026-04-26T06:12:15.009Z</time></trkpt><trkpt lat="44.257930633692" lon="12.214115923801174"><ele>5.333333333333334</ele><time>2026-04-26T06:12:16.009Z</time></trkpt><trkpt lat="44.257728351770155" lon="12.214121976005604"><ele>5.666666666666667</ele><time>2026-04-26T06:12:17.009Z</time></trkpt><trkpt lat="44.25752445434931" lon="12.214127783744908"><ele>6.0</ele><time>2026-04-26T06:12:18.009Z</time></trkpt><trkpt lat="44.25731899738941" lon="12.214136690766933"><ele>6.666666666666666</ele><time>2026-04-26T06:12:19.009Z</time></trkpt><trkpt lat="44.257111200232494" lon="12.214142399629761"><ele>7.333333333333333</ele><time>2026-04-26T06:12:20.009Z</time></trkpt><trkpt lat="44.25690362631436" lon="12.214129863224306"><ele>8.0</ele><time>2026-04-26T06:12:21.009Z</time></trkpt><trkpt lat="44.25669049258745" lon="12.214136584787408"><ele>8.0</ele><time>2026-04-26T06:12:22.009Z</time></trkpt><trkpt lat="44.256475630080544" lon="12.214139900429744"><ele>8.0</ele><time>2026-04-26T06:12:23.009Z</time></trkpt><trkpt lat="44.25625833299413" lon="12.214147383660132"><ele>8.0</ele><time>2026-04-26T06:12:24.009Z</time></trkpt><trkpt lat="44.25603970210693" lon="12.214160854810126"><ele>7.666666666666666</ele><time>2026-04-26T06:12:25.009Z</time></trkpt><trkpt lat="44.25581776390655" lon="12.214177568897252"><ele>7.333333333333334</ele><time>2026-04-26T06:12:26.009Z</time></trkpt><trkpt lat="44.25559266924872" lon="12.214191493170803"><ele>7.0</ele><time>2026-04-26T06:12:27.009Z</time></trkpt><trkpt lat="44.25536919024604" lon="12.214203158438309"><ele>6.5</ele><time>2026-04-26T06:12:28.009Z</time></trkpt><trkpt lat="44.25514353216191" lon="12.214217632356489"><ele>6.0</ele><time>2026-04-26T06:12:29.009Z</time></trkpt><trkpt lat="44.254916970355794" lon="12.214228300434947"><ele>6.5</ele><time>2026-04-26T06:12:30.009Z</time></trkpt><trkpt lat="44.25468886060848" lon="12.214241502251843"><ele>7.0</ele><time>2026-04-26T06:12:31.009Z</time></trkpt><trkpt lat="44.254458744561674" lon="12.214253225601169"><ele>7.0</ele><time>2026-04-26T06:12:32.009Z</time></trkpt><trkpt lat="44.25422981348628" lon="12.214265842593527"><ele>7.0</ele><time>2026-04-26T06:12:33.009Z</time></trkpt><trkpt lat="44.254001105461775" lon="12.214280240558791"><ele>6.0</ele><time>2026-04-26T06:12:34.009Z</time></trkpt><trkpt lat="44.2537733648735" lon="12.21429186584916"><ele>5.0</ele><time>2026-04-26T06:12:35.009Z</time></trkpt><trkpt lat="44.25354623965743" lon="12.214302956657248"><ele>5.0</ele><time>2026-04-26T06:12:36.009Z</time></trkpt><trkpt lat="44.25331774327543" lon="12.214313944401065"><ele>5.0</ele><time>2026-04-26T06:12:37.009Z</time></trkpt><trkpt lat="44.25309490011157" lon="12.2143256543089"><ele>5.0</ele><time>2026-04-26T06:12:38.009Z</time></trkpt><trkpt lat="44.25287247552131" lon="12.214337538169373"><ele>5.0</ele><time>2026-04-26T06:12:39.009Z</time></trkpt><trkpt lat="44.25264776933677" lon="12.214349185085187"><ele>5.0</ele><time>2026-04-26T06:12:40.009Z</time></trkpt><trkpt lat="44.25242712717701" lon="12.214360016939473"><ele>5.333333333333334</ele><time>2026-04-26T06:12:41.009Z</time></trkpt><trkpt lat="44.25221076060922" lon="12.214370072948357"><ele>5.666666666666667</ele><time>2026-04-26T06:12:42.009Z</time></trkpt><trkpt lat="44.25200460890181" lon="12.21437739657447"><ele>6.0</ele><time>2026-04-26T06:12:43.009Z</time></trkpt><trkpt lat="44.2518059267149" lon="12.214388616150627"><ele>6.0</ele><time>2026-04-26T06:12:44.009Z</time></trkpt><trkpt lat="44.251611983119105" lon="12.214398230578464"><ele>6.0</ele><time>2026-04-26T06:12:45.009Z</time></trkpt><trkpt lat="44.25143063231658" lon="12.214406061651397"><ele>6.0</ele><time>2026-04-26T06:12:46.009Z</time></trkpt><trkpt lat="44.251260652874834" lon="12.214415426092724"><ele>6.666666666666666</ele><time>2026-04-26T06:12:47.009Z</time></trkpt><trkpt lat="44.2510926446382" lon="12.214422736934665"><ele>7.333333333333333</ele><time>2026-04-26T06:12:48.009Z</time></trkpt><trkpt lat="44.25092814243922" lon="12.214428558258081"><ele>8.0</ele><time>2026-04-26T06:12:49.009Z</time></trkpt><trkpt lat="44.25076792158178" lon="12.214434360795178"><ele>8.0</ele><time>2026-04-26T06:12:50.009Z</time></trkpt><trkpt lat="44.2506075773512" lon="12.214442137586438"><ele>8.0</ele><time>2026-04-26T06:12:51.009Z</time></trkpt><trkpt lat="44.25045225337398" lon="12.214451819868582"><ele>8.0</ele><time>2026-04-26T06:12:52.009Z</time></trkpt><trkpt lat="44.250302558702444" lon="12.214466875482351"><ele>8.0</ele><time>2026-04-26T06:12:53.009Z</time></trkpt><trkpt lat="44.25015626170703" lon="12.214483667577005"><ele>8.0</ele><time>2026-04-26T06:12:54.009Z</time></trkpt><trkpt lat="44.25001579357727" lon="12.214506078109078"><ele>8.0</ele><time>2026-04-26T06:12:55.009Z</time></trkpt><trkpt lat="44.24987918561464" lon="12.214527948786987"><ele>8.0</ele><time>2026-04-26T06:12:56.009Z</time></trkpt><trkpt lat="44.24974210218244" lon="12.214548866954175"><ele>7.75</ele><time>2026-04-26T06:12:57.009Z</time></trkpt><trkpt lat="44.24960577539622" lon="12.214573586142333"><ele>7.5</ele><time>2026-04-26T06:12:58.009Z</time></trkpt><trkpt lat="44.249475076364256" lon="12.214599251485865"><ele>7.25</ele><time>2026-04-26T06:12:59.009Z</time></trkpt><trkpt lat="44.24934521257673" lon="12.21461936216036"><ele>7.0</ele><time>2026-04-26T06:13:00.009Z</time></trkpt><trkpt lat="44.2492131705787" lon="12.214639171192541"><ele>7.0</ele><time>2026-04-26T06:13:01.009Z</time></trkpt><trkpt lat="44.24908316264485" lon="12.214659278668597"><ele>7.0</ele><time>2026-04-26T06:13:02.009Z</time></trkpt><trkpt lat="44.24894967215138" lon="12.214686168174353"><ele>7.0</ele><time>2026-04-26T06:13:03.009Z</time></trkpt><trkpt lat="44.24881326294566" lon="12.214709987045403"><ele>7.0</ele><time>2026-04-26T06:13:04.009Z</time></trkpt><trkpt lat="44.248673876255175" lon="12.214738388580427"><ele>7.25</ele><time>2026-04-26T06:13:05.009Z</time></trkpt><trkpt lat="44.24853531365196" lon="12.214765094092874"><ele>7.5</ele><time>2026-04-26T06:13:06.009Z</time></trkpt><trkpt lat="44.24839665600512" lon="12.21478270847022"><ele>7.75</ele><time>2026-04-26T06:13:07.009Z</time></trkpt><trkpt lat="44.24825316516791" lon="12.214799182035486"><ele>8.0</ele><time>2026-04-26T06:13:08.009Z</time></trkpt><trkpt lat="44.248109762179034" lon="12.21481013515567"><ele>8.0</ele><time>2026-04-26T06:13:09.009Z</time></trkpt><trkpt lat="44.24795969654329" lon="12.214815131546526"><ele>8.0</ele><time>2026-04-26T06:13:10.009Z</time></trkpt><trkpt lat="44.24780982281212" lon="12.214816008498051"><ele>8.0</ele><time>2026-04-26T06:13:11.009Z</time></trkpt><trkpt lat="44.24765475628708" lon="12.214809002969826"><ele>8.0</ele><time>2026-04-26T06:13:12.009Z</time></trkpt><trkpt lat="44.24749998689763" lon="12.21480451015516"><ele>8.0</ele><time>2026-04-26T06:13:13.009Z</time></trkpt><trkpt lat="44.24734148695069" lon="12.21479731568989"><ele>8.0</ele><time>2026-04-26T06:13:14.009Z</time></trkpt><trkpt lat="44.24718179424909" lon="12.214784394361942"><ele>8.0</ele><time>2026-04-26T06:13:15.009Z</time></trkpt><trkpt lat="44.24701657064106" lon="12.214777509756868"><ele>8.0</ele><time>2026-04-26T06:13:16.009Z</time></trkpt><trkpt lat="44.246848330385575" lon="12.214770784450565"><ele>8.0</ele><time>2026-04-26T06:13:17.009Z</time></trkpt><trkpt lat="44.24667241439197" lon="12.214758944833173"><ele>8.0</ele><time>2026-04-26T06:13:18.009Z</time></trkpt><trkpt lat="44.24649520319522" lon="12.214738637138222"><ele>8.0</ele><time>2026-04-26T06:13:19.009Z</time></trkpt><trkpt lat="44.24631461418915" lon="12.214712567312617"><ele>8.0</ele><time>2026-04-26T06:13:20.009Z</time></trkpt><trkpt lat="44.246129013575576" lon="12.214692685358926"><ele>8.0</ele><time>2026-04-26T06:13:21.009Z</time></trkpt><trkpt lat="44.2459402085135" lon="12.214688042986014"><ele>8.0</ele><time>2026-04-26T06:13:22.009Z</time></trkpt><trkpt lat="44.24574785037323" lon="12.214689922699993"><ele>8.0</ele><time>2026-04-26T06:13:23.009Z</time></trkpt><trkpt lat="44.245555496602734" lon="12.214694870778564"><ele>8.0</ele><time>2026-04-26T06:13:24.009Z</time></trkpt><trkpt lat="44.24536559219038" lon="12.214699963310336"><ele>8.0</ele><time>2026-04-26T06:13:25.009Z</time></trkpt><trkpt lat="44.24517361902402" lon="12.21470692354254"><ele>8.0</ele><time>2026-04-26T06:13:26.009Z</time></trkpt><trkpt lat="44.24498218695207" lon="12.214718698626376"><ele>8.0</ele><time>2026-04-26T06:13:27.009Z</time></trkpt><trkpt lat="44.2447863083" lon="12.214737529326252"><ele>8.0</ele><time>2026-04-26T06:13:28.009Z</time></trkpt><trkpt lat="44.24458878166109" lon="12.214760791027128"><ele>8.0</ele><time>2026-04-26T06:13:29.009Z</time></trkpt><trkpt lat="44.24438830527999" lon="12.214793069572844"><ele>8.0</ele><time>2026-04-26T06:13:30.009Z</time></trkpt><trkpt lat="44.24418462101435" lon="12.214830511946765"><ele>8.0</ele><time>2026-04-26T06:13:31.009Z</time></trkpt><trkpt lat="44.24397632851477" lon="12.214848800952437"><ele>8.0</ele><time>2026-04-26T06:13:32.009Z</time></trkpt><trkpt lat="44.243765090504155" lon="12.214861539235446"><ele>8.0</ele><time>2026-04-26T06:13:33.009Z</time></trkpt><trkpt lat="44.24355026405375" lon="12.214874261885178"><ele>8.0</ele><time>2026-04-26T06:13:34.009Z</time></trkpt><trkpt lat="44.24332820682285" lon="12.214881667405413"><ele>8.0</ele><time>2026-04-26T06:13:35.009Z</time></trkpt><trkpt lat="44.243106882114645" lon="12.21488967687253"><ele>8.333333333333332</ele><time>2026-04-26T06:13:36.009Z</time></trkpt><trkpt lat="44.242886462256266" lon="12.214901249082786"><ele>8.666666666666666</ele><time>2026-04-26T06:13:37.009Z</time></trkpt><trkpt lat="44.24266477855698" lon="12.214909041899054"><ele>9.0</ele><time>2026-04-26T06:13:38.009Z</time></trkpt><trkpt lat="44.24244584640864" lon="12.214922525818695"><ele>8.666666666666666</ele><time>2026-04-26T06:13:39.009Z</time></trkpt><trkpt lat="44.242226460628885" lon="12.214935395222843"><ele>8.333333333333332</ele><time>2026-04-26T06:13:40.009Z</time></trkpt><trkpt lat="44.2420071701522" lon="12.214945354001944"><ele>8.0</ele><time>2026-04-26T06:13:41.009Z</time></trkpt><trkpt lat="44.241786931530264" lon="12.214954672634573"><ele>8.0</ele><time>2026-04-26T06:13:42.009Z</time></trkpt><trkpt lat="44.24156592629854" lon="12.214966600426106"><ele>8.0</ele><time>2026-04-26T06:13:43.009Z</time></trkpt><trkpt lat="44.241344400920156" lon="12.214972252008076"><ele>8.0</ele><time>2026-04-26T06:13:44.009Z</time></trkpt><trkpt lat="44.24112261381359" lon="12.214966945460036"><ele>8.0</ele><time>2026-04-26T06:13:45.009Z</time></trkpt><trkpt lat="44.2409010785546" lon="12.214978239191739"><ele>8.0</ele><time>2026-04-26T06:13:46.009Z</time></trkpt><trkpt lat="44.2406813232432" lon="12.214988484018201"><ele>8.0</ele><time>2026-04-26T06:13:47.009Z</time></trkpt><trkpt lat="44.24046435114999" lon="12.214996592998034"><ele>9.0</ele><time>2026-04-26T06:13:48.009Z</time></trkpt><trkpt lat="44.24024708035552" lon="12.215000828958074"><ele>10.0</ele><time>2026-04-26T06:13:49.009Z</time></trkpt><trkpt lat="44.24003097096074" lon="12.215003517016399"><ele>11.0</ele><time>2026-04-26T06:13:50.009Z</time></trkpt><trkpt lat="44.239812350686286" lon="12.21500441046519"><ele>10.666666666666666</ele><time>2026-04-26T06:13:51.009Z</time></trkpt><trkpt lat="44.23959188901593" lon="12.215004540323879"><ele>10.333333333333334</ele><time>2026-04-26T06:13:52.009Z</time></trkpt><trkpt lat="44.23937175152674" lon="12.215004540321612"><ele>10.0</ele><time>2026-04-26T06:13:53.009Z</time></trkpt><trkpt lat="44.23915260999614" lon="12.215004540321853"><ele>10.333333333333334</ele><time>2026-04-26T06:13:54.009Z</time></trkpt><trkpt lat="44.23893283428685" lon="12.215004540324394"><ele>10.666666666666666</ele><time>2026-04-26T06:13:55.01Z</time></trkpt><trkpt lat="44.23871788645454" lon="12.215004540324962"><ele>11.0</ele><time>2026-04-26T06:13:56.01Z</time></trkpt><trkpt lat="44.23850201018383" lon="12.215004729327276"><ele>11.0</ele><time>2026-04-26T06:13:57.01Z</time></trkpt><trkpt lat="44.238282479064935" lon="12.215004955832622"><ele>11.0</ele><time>2026-04-26T06:13:58.01Z</time></trkpt><trkpt lat="44.23806478178961" lon="12.215005180444965"><ele>11.0</ele><time>2026-04-26T06:13:59.01Z</time></trkpt><trkpt lat="44.23784419293557" lon="12.215005408039595"><ele>11.0</ele><time>2026-04-26T06:14:00.01Z</time></trkpt><trkpt lat="44.23762302287751" lon="12.215005636235182"><ele>11.0</ele><time>2026-04-26T06:14:01.01Z</time></trkpt><trkpt lat="44.237400810949204" lon="12.215005865507358"><ele>11.0</ele><time>2026-04-26T06:14:02.01Z</time></trkpt><trkpt lat="44.23717903171885" lon="12.215005003201785"><ele>11.0</ele><time>2026-04-26T06:14:03.01Z</time></trkpt><trkpt lat="44.236956094645755" lon="12.215003585895229"><ele>11.0</ele><time>2026-04-26T06:14:04.01Z</time></trkpt><trkpt lat="44.236735627336785" lon="12.215005754310264"><ele>11.0</ele><time>2026-04-26T06:14:05.01Z</time></trkpt><trkpt lat="44.236514706814795" lon="12.21501156142206"><ele>11.0</ele><time>2026-04-26T06:14:06.01Z</time></trkpt><trkpt lat="44.23629351978435" lon="12.215042009859808"><ele>11.0</ele><time>2026-04-26T06:14:07.01Z</time></trkpt><trkpt lat="44.236073565768564" lon="12.215049808711436"><ele>11.0</ele><time>2026-04-26T06:14:08.01Z</time></trkpt><trkpt lat="44.23585298613667" lon="12.215059738127115"><ele>11.0</ele><time>2026-04-26T06:14:09.01Z</time></trkpt><trkpt lat="44.23563662796665" lon="12.215072444147548"><ele>11.0</ele><time>2026-04-26T06:14:10.01Z</time></trkpt><trkpt lat="44.23541963462767" lon="12.215085364231498"><ele>11.0</ele><time>2026-04-26T06:14:11.01Z</time></trkpt><trkpt lat="44.23519736636299" lon="12.215101425974098"><ele>11.0</ele><time>2026-04-26T06:14:12.01Z</time></trkpt><trkpt lat="44.23497732518244" lon="12.21511470734151"><ele>11.0</ele><time>2026-04-26T06:14:13.01Z</time></trkpt><trkpt lat="44.2347567210199" lon="12.215131986604296"><ele>11.0</ele><time>2026-04-26T06:14:14.01Z</time></trkpt><trkpt lat="44.23453520992228" lon="12.215149246912187"><ele>11.0</ele><time>2026-04-26T06:14:15.01Z</time></trkpt><trkpt lat="44.234312277243156" lon="12.215167200724927"><ele>11.0</ele><time>2026-04-26T06:14:16.01Z</time></trkpt><trkpt lat="44.23408882163489" lon="12.215185215978037"><ele>11.0</ele><time>2026-04-26T06:14:17.01Z</time></trkpt><trkpt lat="44.23386269966386" lon="12.21520537960342"><ele>11.0</ele><time>2026-04-26T06:14:18.01Z</time></trkpt><trkpt lat="44.23363713976599" lon="12.215228317053857"><ele>11.0</ele><time>2026-04-26T06:14:19.01Z</time></trkpt><trkpt lat="44.23341134927502" lon="12.215251902975464"><ele>11.0</ele><time>2026-04-26T06:14:20.01Z</time></trkpt><trkpt lat="44.233186356416795" lon="12.215275243258839"><ele>11.0</ele><time>2026-04-26T06:14:21.01Z</time></trkpt><trkpt lat="44.232972456520145" lon="12.215282984528587"><ele>11.0</ele><time>2026-04-26T06:14:22.01Z</time></trkpt><trkpt lat="44.232761095474196" lon="12.215281979578327"><ele>11.0</ele><time>2026-04-26T06:14:23.01Z</time></trkpt><trkpt lat="44.232550991374985" lon="12.21527357093381"><ele>11.0</ele><time>2026-04-26T06:14:24.01Z</time></trkpt><trkpt lat="44.23234670576344" lon="12.215263755494275"><ele>11.0</ele><time>2026-04-26T06:14:25.01Z</time></trkpt><trkpt lat="44.232146820819914" lon="12.215257236753864"><ele>11.0</ele><time>2026-04-26T06:14:26.01Z</time></trkpt><trkpt lat="44.231947709672696" lon="12.21525287212507"><ele>11.0</ele><time>2026-04-26T06:14:27.01Z</time></trkpt><trkpt lat="44.23174992869155" lon="12.215228724554864"><ele>11.0</ele><time>2026-04-26T06:14:28.01Z</time></trkpt><trkpt lat="44.23155623227521" lon="12.21524824323638"><ele>11.0</ele><time>2026-04-26T06:14:29.01Z</time></trkpt><trkpt lat="44.23136916757871" lon="12.215229366992714"><ele>11.0</ele><time>2026-04-26T06:14:30.01Z</time></trkpt><trkpt lat="44.23118003941186" lon="12.21523123513414"><ele>11.0</ele><time>2026-04-26T06:14:31.01Z</time></trkpt><trkpt lat="44.23098891404253" lon="12.215237416980601"><ele>11.0</ele><time>2026-04-26T06:14:32.01Z</time></trkpt><trkpt lat="44.23079837329194" lon="12.215246083814359"><ele>11.0</ele><time>2026-04-26T06:14:33.01Z</time></trkpt><trkpt lat="44.23060848507918" lon="12.21526159659944"><ele>11.0</ele><time>2026-04-26T06:14:34.01Z</time></trkpt><trkpt lat="44.230412961541234" lon="12.215279367628641"><ele>11.333333333333332</ele><time>2026-04-26T06:14:35.01Z</time></trkpt><trkpt lat="44.23021517151223" lon="12.215299951690909"><ele>11.666666666666666</ele><time>2026-04-26T06:14:36.01Z</time></trkpt><trkpt lat="44.230017776750586" lon="12.21531399497524"><ele>12.0</ele><time>2026-04-26T06:14:37.01Z</time></trkpt><trkpt lat="44.229817470705285" lon="12.215312371288354"><ele>12.333333333333332</ele><time>2026-04-26T06:14:38.01Z</time></trkpt><trkpt lat="44.22961766699812" lon="12.215310729680354"><ele>12.666666666666666</ele><time>2026-04-26T06:14:39.01Z</time></trkpt><trkpt lat="44.22941328296161" lon="12.21531728014567"><ele>13.0</ele><time>2026-04-26T06:14:40.01Z</time></trkpt><trkpt lat="44.22920759891329" lon="12.215317537241916"><ele>13.0</ele><time>2026-04-26T06:14:41.01Z</time></trkpt><trkpt lat="44.228998261348266" lon="12.215320411706902"><ele>13.0</ele><time>2026-04-26T06:14:42.01Z</time></trkpt><trkpt lat="44.228785709230266" lon="12.215331018934295"><ele>13.0</ele><time>2026-04-26T06:14:43.01Z</time></trkpt><trkpt lat="44.22857301974693" lon="12.215342300238872"><ele>13.0</ele><time>2026-04-26T06:14:44.01Z</time></trkpt><trkpt lat="44.228366168806474" lon="12.215332567731032"><ele>13.0</ele><time>2026-04-26T06:14:45.01Z</time></trkpt><trkpt lat="44.22815498296239" lon="12.21534136011989"><ele>13.0</ele><time>2026-04-26T06:14:46.01Z</time></trkpt><trkpt lat="44.22793956532372" lon="12.215346334649993"><ele>13.0</ele><time>2026-04-26T06:14:47.01Z</time></trkpt><trkpt lat="44.22772205708379" lon="12.215352621960232"><ele>13.0</ele><time>2026-04-26T06:14:48.01Z</time></trkpt><trkpt lat="44.22750452039432" lon="12.215359155955888"><ele>13.0</ele><time>2026-04-26T06:14:49.01Z</time></trkpt><trkpt lat="44.227287418035985" lon="12.215364469566065"><ele>13.0</ele><time>2026-04-26T06:14:50.01Z</time></trkpt><trkpt lat="44.227064426229916" lon="12.21537152052337"><ele>13.0</ele><time>2026-04-26T06:14:51.01Z</time></trkpt><trkpt lat="44.226839260294355" lon="12.215383096500116"><ele>13.0</ele><time>2026-04-26T06:14:52.01Z</time></trkpt><trkpt lat="44.226611981057125" lon="12.215390885779527"><ele>13.0</ele><time>2026-04-26T06:14:53.01Z</time></trkpt><trkpt lat="44.22638502956397" lon="12.215394983803746"><ele>13.0</ele><time>2026-04-26T06:14:54.01Z</time></trkpt><trkpt lat="44.22615417726803" lon="12.215405373379978"><ele>13.0</ele><time>2026-04-26T06:14:55.01Z</time></trkpt><trkpt lat="44.22592011103376" lon="12.215424161396527"><ele>13.0</ele><time>2026-04-26T06:14:56.01Z</time></trkpt><trkpt lat="44.22568910835137" lon="12.215447584717825"><ele>13.5</ele><time>2026-04-26T06:14:57.01Z</time></trkpt><trkpt lat="44.225460242291305" lon="12.215471480222751"><ele>14.0</ele><time>2026-04-26T06:14:58.01Z</time></trkpt><trkpt lat="44.2252365337431" lon="12.215487097708012"><ele>14.0</ele><time>2026-04-26T06:14:59.01Z</time></trkpt><trkpt lat="44.22501159814178" lon="12.215500172065884"><ele>14.0</ele><time>2026-04-26T06:15:00.01Z</time></trkpt><trkpt lat="44.22478946007655" lon="12.215522296558825"><ele>14.0</ele><time>2026-04-26T06:15:01.01Z</time></trkpt><trkpt lat="44.22456859531272" lon="12.215544182250868"><ele>14.333333333333334</ele><time>2026-04-26T06:15:02.01Z</time></trkpt><trkpt lat="44.2243468374429" lon="12.215562963621545"><ele>14.666666666666668</ele><time>2026-04-26T06:15:03.01Z</time></trkpt><trkpt lat="44.22413031993641" lon="12.21558225648471"><ele>15.0</ele><time>2026-04-26T06:15:04.01Z</time></trkpt><trkpt lat="44.223913020496276" lon="12.215602890048887"><ele>15.0</ele><time>2026-04-26T06:15:05.01Z</time></trkpt><trkpt lat="44.2236990151732" lon="12.215622030926037"><ele>15.0</ele><time>2026-04-26T06:15:06.01Z</time></trkpt><trkpt lat="44.223486330722814" lon="12.215641288882125"><ele>15.0</ele><time>2026-04-26T06:15:07.01Z</time></trkpt><trkpt lat="44.22327614519244" lon="12.215658387758833"><ele>14.666666666666668</ele><time>2026-04-26T06:15:08.01Z</time></trkpt><trkpt lat="44.22306416706862" lon="12.21567144606523"><ele>14.333333333333334</ele><time>2026-04-26T06:15:09.01Z</time></trkpt><trkpt lat="44.22285154068228" lon="12.215682125991693"><ele>14.0</ele><time>2026-04-26T06:15:10.01Z</time></trkpt><trkpt lat="44.222637941005466" lon="12.215693787994105"><ele>14.0</ele><time>2026-04-26T06:15:11.01Z</time></trkpt><trkpt lat="44.222421023760674" lon="12.215706010431548"><ele>14.0</ele><time>2026-04-26T06:15:12.01Z</time></trkpt><trkpt lat="44.22220423054298" lon="12.215718974099868"><ele>14.0</ele><time>2026-04-26T06:15:13.01Z</time></trkpt><trkpt lat="44.22198344501172" lon="12.215733980928587"><ele>14.333333333333334</ele><time>2026-04-26T06:15:14.01Z</time></trkpt><trkpt lat="44.221757272557404" lon="12.215750071161226"><ele>14.666666666666668</ele><time>2026-04-26T06:15:15.01Z</time></trkpt><trkpt lat="44.2215365854005" lon="12.215764247041037"><ele>15.0</ele><time>2026-04-26T06:15:16.01Z</time></trkpt><trkpt lat="44.22132669099925" lon="12.215774319282815"><ele>15.0</ele><time>2026-04-26T06:15:17.01Z</time></trkpt><trkpt lat="44.22112773765145" lon="12.21578279467109"><ele>15.0</ele><time>2026-04-26T06:15:18.01Z</time></trkpt><trkpt lat="44.220938261765546" lon="12.215790885049875"><ele>15.0</ele><time>2026-04-26T06:15:19.01Z</time></trkpt><trkpt lat="44.22074679978279" lon="12.215800615098193"><ele>14.666666666666668</ele><time>2026-04-26T06:15:20.01Z</time></trkpt><trkpt lat="44.220554865320615" lon="12.215806802706627"><ele>14.333333333333334</ele><time>2026-04-26T06:15:21.01Z</time></trkpt><trkpt lat="44.22035741178164" lon="12.215804729664876"><ele>14.0</ele><time>2026-04-26T06:15:22.01Z</time></trkpt><trkpt lat="44.22015982082869" lon="12.215796551428648"><ele>14.0</ele><time>2026-04-26T06:15:23.01Z</time></trkpt><trkpt lat="44.2199505175112" lon="12.215797293413631"><ele>14.0</ele><time>2026-04-26T06:15:24.01Z</time></trkpt><trkpt lat="44.21973392692033" lon="12.215806655535719"><ele>14.0</ele><time>2026-04-26T06:15:25.01Z</time></trkpt><trkpt lat="44.21951421452626" lon="12.215815360370424"><ele>14.0</ele><time>2026-04-26T06:15:26.01Z</time></trkpt><trkpt lat="44.21929255775437" lon="12.215823579842807"><ele>14.0</ele><time>2026-04-26T06:15:27.01Z</time></trkpt><trkpt lat="44.219072681727944" lon="12.215828909072332"><ele>14.0</ele><time>2026-04-26T06:15:28.01Z</time></trkpt><trkpt lat="44.21884706487429" lon="12.21583630765184"><ele>14.0</ele><time>2026-04-26T06:15:29.01Z</time></trkpt><trkpt lat="44.21862437635816" lon="12.215839842777582"><ele>14.0</ele><time>2026-04-26T06:15:30.01Z</time></trkpt><trkpt lat="44.21840126863272" lon="12.215842459470414"><ele>14.0</ele><time>2026-04-26T06:15:31.01Z</time></trkpt><trkpt lat="44.21817747229421" lon="12.21584704508355"><ele>15.0</ele><time>2026-04-26T06:15:32.01Z</time></trkpt><trkpt lat="44.21795071190752" lon="12.215853352408644"><ele>16.0</ele><time>2026-04-26T06:15:33.01Z</time></trkpt><trkpt lat="44.217721979871264" lon="12.215862835265494"><ele>16.0</ele><time>2026-04-26T06:15:34.01Z</time></trkpt><trkpt lat="44.217495451268306" lon="12.215871245540743"><ele>16.0</ele><time>2026-04-26T06:15:35.01Z</time></trkpt><trkpt lat="44.217266600736345" lon="12.215883082540929"><ele>16.0</ele><time>2026-04-26T06:15:36.01Z</time></trkpt><trkpt lat="44.217041371860674" lon="12.215890287067904"><ele>16.0</ele><time>2026-04-26T06:15:37.01Z</time></trkpt><trkpt lat="44.21681110944646" lon="12.215902300530944"><ele>16.0</ele><time>2026-04-26T06:15:38.01Z</time></trkpt><trkpt lat="44.216585429012326" lon="12.215909900828795"><ele>16.0</ele><time>2026-04-26T06:15:39.01Z</time></trkpt><trkpt lat="44.21636221534049" lon="12.215921258343082"><ele>16.0</ele><time>2026-04-26T06:15:40.01Z</time></trkpt><trkpt lat="44.216138680788816" lon="12.215938899500086"><ele>16.0</ele><time>2026-04-26T06:15:41.01Z</time></trkpt><trkpt lat="44.21591821122061" lon="12.215954919288611"><ele>16.0</ele><time>2026-04-26T06:15:42.011Z</time></trkpt><trkpt lat="44.21569851886543" lon="12.21597310048808"><ele>16.0</ele><time>2026-04-26T06:15:43.011Z</time></trkpt><trkpt lat="44.21547933066313" lon="12.215987411487973"><ele>16.333333333333332</ele><time>2026-04-26T06:15:44.011Z</time></trkpt><trkpt lat="44.21526067251956" lon="12.21600239937457"><ele>16.666666666666668</ele><time>2026-04-26T06:15:45.011Z</time></trkpt><trkpt lat="44.21503808688597" lon="12.216017257467229"><ele>17.0</ele><time>2026-04-26T06:15:46.011Z</time></trkpt><trkpt lat="44.21481560835382" lon="12.216031119279275"><ele>17.0</ele><time>2026-04-26T06:15:47.011Z</time></trkpt><trkpt lat="44.21459177047082" lon="12.216043588646116"><ele>17.0</ele><time>2026-04-26T06:15:48.011Z</time></trkpt><trkpt lat="44.21436533393246" lon="12.216058301451598"><ele>17.0</ele><time>2026-04-26T06:15:49.011Z</time></trkpt><trkpt lat="44.21413938176542" lon="12.216068388605855"><ele>17.0</ele><time>2026-04-26T06:15:50.011Z</time></trkpt><trkpt lat="44.21391161760609" lon="12.216080737607237"><ele>17.0</ele><time>2026-04-26T06:15:51.011Z</time></trkpt><trkpt lat="44.21368236772394" lon="12.216071677027427"><ele>17.0</ele><time>2026-04-26T06:15:52.011Z</time></trkpt><trkpt lat="44.213450891836985" lon="12.21608797886214"><ele>17.0</ele><time>2026-04-26T06:15:53.011Z</time></trkpt><trkpt lat="44.213214364158354" lon="12.216131676262446"><ele>17.0</ele><time>2026-04-26T06:15:54.011Z</time></trkpt><trkpt lat="44.21298028890477" lon="12.216156552801468"><ele>16.5</ele><time>2026-04-26T06:15:55.011Z</time></trkpt><trkpt lat="44.2127503409707" lon="12.216184643224913"><ele>16.0</ele><time>2026-04-26T06:15:56.011Z</time></trkpt><trkpt lat="44.21252966898242" lon="12.216214117057204"><ele>16.333333333333332</ele><time>2026-04-26T06:15:57.011Z</time></trkpt><trkpt lat="44.212317839971625" lon="12.216245509076673"><ele>16.666666666666668</ele><time>2026-04-26T06:15:58.011Z</time></trkpt><trkpt lat="44.2121100365171" lon="12.21627640921227"><ele>17.0</ele><time>2026-04-26T06:15:59.011Z</time></trkpt><trkpt lat="44.21190413479509" lon="12.216307987914101"><ele>17.0</ele><time>2026-04-26T06:16:00.011Z</time></trkpt><trkpt lat="44.21170408503092" lon="12.21633763408442"><ele>17.0</ele><time>2026-04-26T06:16:01.011Z</time></trkpt><trkpt lat="44.211512438087695" lon="12.216342899435695"><ele>17.0</ele><time>2026-04-26T06:16:02.011Z</time></trkpt><trkpt lat="44.21133598218813" lon="12.21639208699185"><ele>17.666666666666668</ele><time>2026-04-26T06:16:03.011Z</time></trkpt><trkpt lat="44.21116749287476" lon="12.216416116541408"><ele>18.333333333333332</ele><time>2026-04-26T06:16:04.011Z</time></trkpt><trkpt lat="44.21100617757934" lon="12.216438446427945"><ele>19.0</ele><time>2026-04-26T06:16:05.011Z</time></trkpt><trkpt lat="44.21084990548743" lon="12.216463387332103"><ele>18.75</ele><time>2026-04-26T06:16:06.011Z</time></trkpt><trkpt lat="44.21070073889433" lon="12.216487916747807"><ele>18.5</ele><time>2026-04-26T06:16:07.011Z</time></trkpt><trkpt lat="44.210556500572686" lon="12.21650931611912"><ele>18.25</ele><time>2026-04-26T06:16:08.011Z</time></trkpt><trkpt lat="44.210411209313804" lon="12.216530689568724"><ele>18.0</ele><time>2026-04-26T06:16:09.011Z</time></trkpt><trkpt lat="44.21026491591036" lon="12.216552477357501"><ele>18.0</ele><time>2026-04-26T06:16:10.011Z</time></trkpt><trkpt lat="44.21011480910801" lon="12.216573338603446"><ele>18.0</ele><time>2026-04-26T06:16:11.011Z</time></trkpt><trkpt lat="44.20996510883601" lon="12.216593484630781"><ele>18.0</ele><time>2026-04-26T06:16:12.011Z</time></trkpt><trkpt lat="44.20981334770796" lon="12.216615958453502"><ele>18.0</ele><time>2026-04-26T06:16:13.011Z</time></trkpt><trkpt lat="44.20966105417389" lon="12.216640742032604"><ele>18.0</ele><time>2026-04-26T06:16:14.011Z</time></trkpt><trkpt lat="44.20950372794145" lon="12.216642043473154"><ele>18.0</ele><time>2026-04-26T06:16:15.011Z</time></trkpt><trkpt lat="44.209351963570114" lon="12.216663410460873"><ele>18.0</ele><time>2026-04-26T06:16:16.011Z</time></trkpt><trkpt lat="44.20920121153085" lon="12.216704543288188"><ele>18.0</ele><time>2026-04-26T06:16:17.011Z</time></trkpt><trkpt lat="44.209046483606826" lon="12.216722232203809"><ele>18.0</ele><time>2026-04-26T06:16:18.011Z</time></trkpt><trkpt lat="44.20889223512866" lon="12.216741940128385"><ele>18.0</ele><time>2026-04-26T06:16:19.011Z</time></trkpt><trkpt lat="44.20874198387973" lon="12.216761886812963"><ele>18.0</ele><time>2026-04-26T06:16:20.011Z</time></trkpt><trkpt lat="44.20858868679583" lon="12.216785807328842"><ele>18.0</ele><time>2026-04-26T06:16:21.011Z</time></trkpt><trkpt lat="44.208432793881215" lon="12.216807835969275"><ele>18.0</ele><time>2026-04-26T06:16:22.011Z</time></trkpt><trkpt lat="44.20827552514893" lon="12.2168322571295"><ele>18.0</ele><time>2026-04-26T06:16:23.011Z</time></trkpt><trkpt lat="44.208113216919415" lon="12.216829350409833"><ele>18.0</ele><time>2026-04-26T06:16:24.011Z</time></trkpt><trkpt lat="44.20794928134426" lon="12.216849080762705"><ele>18.0</ele><time>2026-04-26T06:16:25.011Z</time></trkpt><trkpt lat="44.20779307836755" lon="12.21685694734595"><ele>18.0</ele><time>2026-04-26T06:16:26.011Z</time></trkpt><trkpt lat="44.207625160603214" lon="12.216882065236298"><ele>18.0</ele><time>2026-04-26T06:16:27.011Z</time></trkpt><trkpt lat="44.20745928105856" lon="12.216896087457254"><ele>18.333333333333332</ele><time>2026-04-26T06:16:28.011Z</time></trkpt><trkpt lat="44.20728920324668" lon="12.21690892183221"><ele>18.666666666666664</ele><time>2026-04-26T06:16:29.011Z</time></trkpt><trkpt lat="44.20711347306147" lon="12.216921927970837"><ele>19.0</ele><time>2026-04-26T06:16:30.011Z</time></trkpt><trkpt lat="44.20693712741834" lon="12.216932400344906"><ele>19.0</ele><time>2026-04-26T06:16:31.011Z</time></trkpt><trkpt lat="44.20676105173014" lon="12.216933606941168"><ele>19.0</ele><time>2026-04-26T06:16:32.011Z</time></trkpt><trkpt lat="44.206583792262634" lon="12.216934230287988"><ele>19.0</ele><time>2026-04-26T06:16:33.011Z</time></trkpt><trkpt lat="44.20640355294518" lon="12.216927007745044"><ele>19.333333333333332</ele><time>2026-04-26T06:16:34.011Z</time></trkpt><trkpt lat="44.20622349460207" lon="12.21691561885929"><ele>19.666666666666668</ele><time>2026-04-26T06:16:35.01Z</time></trkpt><trkpt lat="44.2060405047166" lon="12.216911685709434"><ele>20.0</ele><time>2026-04-26T06:16:36.01Z</time></trkpt><trkpt lat="44.20585766701544" lon="12.216901509637966"><ele>20.0</ele><time>2026-04-26T06:16:37.01Z</time></trkpt><trkpt lat="44.20567283504232" lon="12.216893374729965"><ele>20.0</ele><time>2026-04-26T06:16:38.01Z</time></trkpt><trkpt lat="44.20548483852228" lon="12.216890283179861"><ele>20.0</ele><time>2026-04-26T06:16:39.01Z</time></trkpt><trkpt lat="44.205296539604845" lon="12.21688583529745"><ele>19.333333333333336</ele><time>2026-04-26T06:16:40.01Z</time></trkpt><trkpt lat="44.2051041363118" lon="12.216881898793531"><ele>18.666666666666668</ele><time>2026-04-26T06:16:41.01Z</time></trkpt><trkpt lat="44.20490765737234" lon="12.2168786806421"><ele>18.0</ele><time>2026-04-26T06:16:42.01Z</time></trkpt><trkpt lat="44.20470869199821" lon="12.216876954689782"><ele>18.0</ele><time>2026-04-26T06:16:43.01Z</time></trkpt><trkpt lat="44.204508875375204" lon="12.216878891084953"><ele>18.0</ele><time>2026-04-26T06:16:44.01Z</time></trkpt><trkpt lat="44.20431161022752" lon="12.216893511458284"><ele>18.0</ele><time>2026-04-26T06:16:45.01Z</time></trkpt><trkpt lat="44.20411225677156" lon="12.216911511597761"><ele>18.666666666666668</ele><time>2026-04-26T06:16:46.01Z</time></trkpt><trkpt lat="44.20391107965342" lon="12.21693221709259"><ele>19.333333333333336</ele><time>2026-04-26T06:16:47.01Z</time></trkpt><trkpt lat="44.20370619874772" lon="12.216954576119319"><ele>20.0</ele><time>2026-04-26T06:16:48.01Z</time></trkpt><trkpt lat="44.2035045250253" lon="12.216975805024912"><ele>20.0</ele><time>2026-04-26T06:16:49.01Z</time></trkpt><trkpt lat="44.20330345585634" lon="12.21697496293075"><ele>20.0</ele><time>2026-04-26T06:16:50.01Z</time></trkpt><trkpt lat="44.203098120650175" lon="12.216996420678285"><ele>20.0</ele><time>2026-04-26T06:16:51.01Z</time></trkpt><trkpt lat="44.2028873393103" lon="12.216999395492476"><ele>19.333333333333336</ele><time>2026-04-26T06:16:52.01Z</time></trkpt><trkpt lat="44.202676811079094" lon="12.217002881580973"><ele>18.666666666666668</ele><time>2026-04-26T06:16:53.01Z</time></trkpt><trkpt lat="44.202470833746986" lon="12.217000203918763"><ele>18.0</ele><time>2026-04-26T06:16:54.01Z</time></trkpt><trkpt lat="44.20226575053607" lon="12.216993898370383"><ele>18.0</ele><time>2026-04-26T06:16:55.01Z</time></trkpt><trkpt lat="44.20206130332132" lon="12.216987291933634"><ele>18.0</ele><time>2026-04-26T06:16:56.01Z</time></trkpt><trkpt lat="44.201854401525175" lon="12.216978127804412"><ele>18.0</ele><time>2026-04-26T06:16:57.01Z</time></trkpt><trkpt lat="44.201652310376" lon="12.216971441338211"><ele>18.333333333333332</ele><time>2026-04-26T06:16:58.01Z</time></trkpt><trkpt lat="44.20144938374347" lon="12.216965600757236"><ele>18.666666666666664</ele><time>2026-04-26T06:16:59.01Z</time></trkpt><trkpt lat="44.20124858433354" lon="12.216962952928068"><ele>19.0</ele><time>2026-04-26T06:17:00.01Z</time></trkpt><trkpt lat="44.2010470342092" lon="12.216958824098352"><ele>19.0</ele><time>2026-04-26T06:17:01.01Z</time></trkpt><trkpt lat="44.20084330041417" lon="12.216954755457248"><ele>19.0</ele><time>2026-04-26T06:17:02.01Z</time></trkpt><trkpt lat="44.200637087737746" lon="12.216949808656818"><ele>19.0</ele><time>2026-04-26T06:17:03.01Z</time></trkpt><trkpt lat="44.20042682860966" lon="12.216943811812644"><ele>19.0</ele><time>2026-04-26T06:17:04.01Z</time></trkpt><trkpt lat="44.20021536935819" lon="12.216941300052717"><ele>19.0</ele><time>2026-04-26T06:17:05.01Z</time></trkpt><trkpt lat="44.200002147279164" lon="12.216948182771608"><ele>19.0</ele><time>2026-04-26T06:17:06.01Z</time></trkpt><trkpt lat="44.19978784700567" lon="12.21695790197554"><ele>19.666666666666664</ele><time>2026-04-26T06:17:07.01Z</time></trkpt><trkpt lat="44.19957308990533" lon="12.216944477263946"><ele>20.333333333333332</ele><time>2026-04-26T06:17:08.01Z</time></trkpt><trkpt lat="44.19935812442324" lon="12.216956092334842"><ele>21.0</ele><time>2026-04-26T06:17:09.01Z</time></trkpt><trkpt lat="44.19914596760458" lon="12.216960310642689"><ele>21.333333333333332</ele><time>2026-04-26T06:17:10.01Z</time></trkpt><trkpt lat="44.1989342759738" lon="12.216980250510808"><ele>21.666666666666664</ele><time>2026-04-26T06:17:11.01Z</time></trkpt><trkpt lat="44.198723349658984" lon="12.21701048225605"><ele>22.0</ele><time>2026-04-26T06:17:12.01Z</time></trkpt><trkpt lat="44.198511177894446" lon="12.21704393528114"><ele>22.0</ele><time>2026-04-26T06:17:13.01Z</time></trkpt><trkpt lat="44.19830618125256" lon="12.217075279663748"><ele>22.0</ele><time>2026-04-26T06:17:14.01Z</time></trkpt><trkpt lat="44.19810068637612" lon="12.217080948072935"><ele>22.0</ele><time>2026-04-26T06:17:15.01Z</time></trkpt><trkpt lat="44.197898595591084" lon="12.217093779751949"><ele>21.333333333333332</ele><time>2026-04-26T06:17:16.01Z</time></trkpt><trkpt lat="44.197717108078265" lon="12.21708115690592"><ele>20.666666666666668</ele><time>2026-04-26T06:17:17.01Z</time></trkpt><trkpt lat="44.197514191666414" lon="12.217090394632674"><ele>20.0</ele><time>2026-04-26T06:17:18.01Z</time></trkpt><trkpt lat="44.197315111569765" lon="12.21709034804102"><ele>20.0</ele><time>2026-04-26T06:17:19.01Z</time></trkpt><trkpt lat="44.19711074813165" lon="12.217093633207009"><ele>20.0</ele><time>2026-04-26T06:17:20.01Z</time></trkpt><trkpt lat="44.19691105794853" lon="12.217096625006112"><ele>20.0</ele><time>2026-04-26T06:17:21.01Z</time></trkpt><trkpt lat="44.19671194298623" lon="12.217095582346351"><ele>20.0</ele><time>2026-04-26T06:17:22.01Z</time></trkpt><trkpt lat="44.196509811865276" lon="12.21710046425775"><ele>20.0</ele><time>2026-04-26T06:17:23.01Z</time></trkpt><trkpt lat="44.196306518096605" lon="12.217105002229943"><ele>20.0</ele><time>2026-04-26T06:17:24.01Z</time></trkpt><trkpt lat="44.196103707553505" lon="12.217106465364433"><ele>20.333333333333336</ele><time>2026-04-26T06:17:25.01Z</time></trkpt><trkpt lat="44.19590039326734" lon="12.217111537069025"><ele>20.666666666666668</ele><time>2026-04-26T06:17:26.01Z</time></trkpt><trkpt lat="44.1956972779752" lon="12.217119217363905"><ele>21.0</ele><time>2026-04-26T06:17:27.01Z</time></trkpt><trkpt lat="44.1954928058124" lon="12.21712364347543"><ele>21.333333333333332</ele><time>2026-04-26T06:17:28.011Z</time></trkpt><trkpt lat="44.195292110803486" lon="12.217131970614982"><ele>21.666666666666664</ele><time>2026-04-26T06:17:29.01Z</time></trkpt><trkpt lat="44.19510242158216" lon="12.21714345740872"><ele>22.0</ele><time>2026-04-26T06:17:30.01Z</time></trkpt><trkpt lat="44.19492485070523" lon="12.21716651511593"><ele>21.666666666666664</ele><time>2026-04-26T06:17:31.01Z</time></trkpt><trkpt lat="44.19476191301796" lon="12.217196025457035"><ele>21.333333333333332</ele><time>2026-04-26T06:17:32.011Z</time></trkpt><trkpt lat="44.19460064703241" lon="12.217228886781836"><ele>21.0</ele><time>2026-04-26T06:17:33.011Z</time></trkpt><trkpt lat="44.19443971490281" lon="12.217264023371245"><ele>21.0</ele><time>2026-04-26T06:17:34.01Z</time></trkpt><trkpt lat="44.194282822618234" lon="12.217287917574165"><ele>21.0</ele><time>2026-04-26T06:17:35.011Z</time></trkpt><trkpt lat="44.194127070941725" lon="12.217303846205747"><ele>21.0</ele><time>2026-04-26T06:17:36.011Z</time></trkpt><trkpt lat="44.19396746655965" lon="12.217316765772507"><ele>21.333333333333332</ele><time>2026-04-26T06:17:37.011Z</time></trkpt><trkpt lat="44.193798045190995" lon="12.217325809410397"><ele>21.666666666666664</ele><time>2026-04-26T06:17:38.011Z</time></trkpt><trkpt lat="44.19362617942536" lon="12.217338499347301"><ele>22.0</ele><time>2026-04-26T06:17:39.011Z</time></trkpt><trkpt lat="44.193444644527645" lon="12.21735486404677"><ele>22.0</ele><time>2026-04-26T06:17:40.011Z</time></trkpt><trkpt lat="44.19326437476297" lon="12.217341513769963"><ele>22.0</ele><time>2026-04-26T06:17:41.011Z</time></trkpt><trkpt lat="44.193085549009766" lon="12.217362867336185"><ele>22.0</ele><time>2026-04-26T06:17:42.011Z</time></trkpt><trkpt lat="44.19292672448603" lon="12.21737959179234"><ele>22.25</ele><time>2026-04-26T06:17:43.011Z</time></trkpt><trkpt lat="44.192781733068536" lon="12.217389493168065"><ele>22.5</ele><time>2026-04-26T06:17:44.011Z</time></trkpt><trkpt lat="44.192646150683515" lon="12.217387136813432"><ele>22.75</ele><time>2026-04-26T06:17:45.011Z</time></trkpt><trkpt lat="44.19252533810111" lon="12.217378306010282"><ele>23.0</ele><time>2026-04-26T06:17:46.011Z</time></trkpt><trkpt lat="44.192412718023114" lon="12.21735947039756"><ele>23.0</ele><time>2026-04-26T06:17:47.011Z</time></trkpt><trkpt lat="44.19231126116218" lon="12.217325120786969"><ele>23.0</ele><time>2026-04-26T06:17:48.011Z</time></trkpt><trkpt lat="44.19222051310369" lon="12.217254313025405"><ele>23.0</ele><time>2026-04-26T06:17:49.011Z</time></trkpt><trkpt lat="44.192141515736445" lon="12.217145757260633"><ele>23.0</ele><time>2026-04-26T06:17:50.011Z</time></trkpt><trkpt lat="44.19208946284861" lon="12.216999435834465"><ele>23.0</ele><time>2026-04-26T06:17:51.011Z</time></trkpt><trkpt lat="44.192027240829084" lon="12.216852209218633"><ele>23.0</ele><time>2026-04-26T06:17:52.011Z</time></trkpt><trkpt lat="44.19205761961945" lon="12.216618926653029"><ele>23.0</ele><time>2026-04-26T06:17:53.011Z</time></trkpt><trkpt lat="44.1920635524445" lon="12.216399184361114"><ele>23.0</ele><time>2026-04-26T06:17:54.011Z</time></trkpt><trkpt lat="44.192062518111676" lon="12.216168447738125"><ele>22.0</ele><time>2026-04-26T06:17:55.011Z</time></trkpt><trkpt lat="44.192053278135035" lon="12.215921948039657"><ele>21.0</ele><time>2026-04-26T06:17:56.011Z</time></trkpt><trkpt lat="44.19204196335745" lon="12.215674201516165"><ele>20.0</ele><time>2026-04-26T06:17:57.011Z</time></trkpt><trkpt lat="44.192030564589764" lon="12.215427031408572"><ele>20.0</ele><time>2026-04-26T06:17:58.011Z</time></trkpt><trkpt lat="44.192021387851085" lon="12.215176225554837"><ele>20.0</ele><time>2026-04-26T06:17:59.011Z</time></trkpt><trkpt lat="44.19201379837043" lon="12.214935722319181"><ele>20.0</ele><time>2026-04-26T06:18:00.011Z</time></trkpt><trkpt lat="44.19200747977417" lon="12.21470817206356"><ele>20.25</ele><time>2026-04-26T06:18:01.011Z</time></trkpt><trkpt lat="44.19200193370746" lon="12.214503157731123"><ele>20.5</ele><time>2026-04-26T06:18:02.011Z</time></trkpt><trkpt lat="44.19199374764119" lon="12.214305381251247"><ele>20.75</ele><time>2026-04-26T06:18:03.011Z</time></trkpt><trkpt lat="44.19198798398413" lon="12.214119897525059"><ele>21.0</ele><time>2026-04-26T06:18:04.011Z</time></trkpt><trkpt lat="44.191975953965475" lon="12.213943713464769"><ele>21.0</ele><time>2026-04-26T06:18:05.011Z</time></trkpt><trkpt lat="44.19193814774479" lon="12.213777686301867"><ele>21.0</ele><time>2026-04-26T06:18:06.011Z</time></trkpt><trkpt lat="44.191868855148364" lon="12.213630416794079"><ele>21.0</ele><time>2026-04-26T06:18:07.011Z</time></trkpt><trkpt lat="44.19178141414931" lon="12.213523723301382"><ele>21.0</ele><time>2026-04-26T06:18:08.011Z</time></trkpt><trkpt lat="44.191666241463146" lon="12.213450357630341"><ele>21.0</ele><time>2026-04-26T06:18:09.011Z</time></trkpt><trkpt lat="44.19153897660981" lon="12.213403492111873"><ele>21.0</ele><time>2026-04-26T06:18:10.011Z</time></trkpt><trkpt lat="44.19139602911537" lon="12.21340326004367"><ele>21.0</ele><time>2026-04-26T06:18:11.011Z</time></trkpt><trkpt lat="44.191246499210195" lon="12.213426351283168"><ele>21.0</ele><time>2026-04-26T06:18:12.011Z</time></trkpt><trkpt lat="44.19109339195533" lon="12.21344407241348"><ele>21.666666666666668</ele><time>2026-04-26T06:18:13.011Z</time></trkpt><trkpt lat="44.19093621318195" lon="12.213454730675439"><ele>22.333333333333336</ele><time>2026-04-26T06:18:14.011Z</time></trkpt><trkpt lat="44.190777194558734" lon="12.213456121134156"><ele>23.0</ele><time>2026-04-26T06:18:15.011Z</time></trkpt><trkpt lat="44.19061391409735" lon="12.213457966209855"><ele>23.0</ele><time>2026-04-26T06:18:16.011Z</time></trkpt><trkpt lat="44.1904481481976" lon="12.213462295447433"><ele>23.0</ele><time>2026-04-26T06:18:17.011Z</time></trkpt><trkpt lat="44.19028281727249" lon="12.213469771664611"><ele>23.0</ele><time>2026-04-26T06:18:18.011Z</time></trkpt><trkpt lat="44.190113291995196" lon="12.213477431586197"><ele>23.0</ele><time>2026-04-26T06:18:19.011Z</time></trkpt><trkpt lat="44.189942288716914" lon="12.213482756475894"><ele>23.0</ele><time>2026-04-26T06:18:20.011Z</time></trkpt><trkpt lat="44.18977459142866" lon="12.213479959242177"><ele>23.0</ele><time>2026-04-26T06:18:21.011Z</time></trkpt><trkpt lat="44.18960155603023" lon="12.21348268388909"><ele>23.333333333333336</ele><time>2026-04-26T06:18:22.011Z</time></trkpt><trkpt lat="44.189438154341275" lon="12.213491271991408"><ele>23.666666666666668</ele><time>2026-04-26T06:18:23.011Z</time></trkpt><trkpt lat="44.18927253613467" lon="12.21349934480941"><ele>24.0</ele><time>2026-04-26T06:18:24.011Z</time></trkpt><trkpt lat="44.18910240820617" lon="12.213507106231617"><ele>23.666666666666668</ele><time>2026-04-26T06:18:25.011Z</time></trkpt><trkpt lat="44.188922452838774" lon="12.213519817750184"><ele>23.333333333333336</ele><time>2026-04-26T06:18:26.011Z</time></trkpt><trkpt lat="44.18874728985229" lon="12.21352356703588"><ele>23.0</ele><time>2026-04-26T06:18:27.011Z</time></trkpt><trkpt lat="44.18856226250051" lon="12.213536315910545"><ele>23.0</ele><time>2026-04-26T06:18:28.012Z</time></trkpt><trkpt lat="44.18837692036377" lon="12.213554775191898"><ele>23.0</ele><time>2026-04-26T06:18:29.012Z</time></trkpt><trkpt lat="44.18819171198362" lon="12.213546364188739"><ele>23.0</ele><time>2026-04-26T06:18:30.012Z</time></trkpt><trkpt lat="44.188005767161876" lon="12.213589306086686"><ele>22.666666666666668</ele><time>2026-04-26T06:18:31.012Z</time></trkpt><trkpt lat="44.18781826414052" lon="12.213600804872149"><ele>22.333333333333332</ele><time>2026-04-26T06:18:32.012Z</time></trkpt><trkpt lat="44.18762261381688" lon="12.213618316739959"><ele>22.0</ele><time>2026-04-26T06:18:33.012Z</time></trkpt><trkpt lat="44.18743359875901" lon="12.213635329257771"><ele>21.666666666666664</ele><time>2026-04-26T06:18:34.012Z</time></trkpt><trkpt lat="44.18723958858158" lon="12.213601521504163"><ele>21.333333333333332</ele><time>2026-04-26T06:18:35.012Z</time></trkpt><trkpt lat="44.187044966595785" lon="12.213613817648707"><ele>21.0</ele><time>2026-04-26T06:18:36.012Z</time></trkpt><trkpt lat="44.186849605106794" lon="12.21362622489574"><ele>21.0</ele><time>2026-04-26T06:18:37.012Z</time></trkpt><trkpt lat="44.18665936185372" lon="12.213712483916465"><ele>21.0</ele><time>2026-04-26T06:18:38.012Z</time></trkpt><trkpt lat="44.18646662729348" lon="12.213722187130669"><ele>21.0</ele><time>2026-04-26T06:18:39.012Z</time></trkpt><trkpt lat="44.18627382680345" lon="12.21372931590891"><ele>21.333333333333332</ele><time>2026-04-26T06:18:40.012Z</time></trkpt><trkpt lat="44.18608659502397" lon="12.213737934257901"><ele>21.666666666666664</ele><time>2026-04-26T06:18:41.012Z</time></trkpt><trkpt lat="44.1858995986894" lon="12.213752130120493"><ele>22.0</ele><time>2026-04-26T06:18:42.012Z</time></trkpt><trkpt lat="44.18571054683029" lon="12.21376511142462"><ele>22.0</ele><time>2026-04-26T06:18:43.012Z</time></trkpt><trkpt lat="44.185520341890054" lon="12.213774464701391"><ele>22.0</ele><time>2026-04-26T06:18:44.012Z</time></trkpt><trkpt lat="44.185327597506415" lon="12.213783645378255"><ele>22.0</ele><time>2026-04-26T06:18:45.012Z</time></trkpt><trkpt lat="44.18513663991346" lon="12.213787825448637"><ele>22.0</ele><time>2026-04-26T06:18:46.012Z</time></trkpt><trkpt lat="44.18494509256754" lon="12.21373688696861"><ele>22.0</ele><time>2026-04-26T06:18:47.012Z</time></trkpt><trkpt lat="44.18475092297699" lon="12.213748089061003"><ele>22.0</ele><time>2026-04-26T06:18:48.012Z</time></trkpt><trkpt lat="44.1845611962097" lon="12.213759034833371"><ele>22.333333333333332</ele><time>2026-04-26T06:18:49.012Z</time></trkpt><trkpt lat="44.18437565625078" lon="12.213769739065937"><ele>22.666666666666668</ele><time>2026-04-26T06:18:50.012Z</time></trkpt><trkpt lat="44.184195334684844" lon="12.21378014222785"><ele>23.0</ele><time>2026-04-26T06:18:51.012Z</time></trkpt><trkpt lat="44.1840120779548" lon="12.213790809934045"><ele>23.333333333333336</ele><time>2026-04-26T06:18:52.012Z</time></trkpt><trkpt lat="44.18383226449942" lon="12.213801559016675"><ele>23.666666666666668</ele><time>2026-04-26T06:18:53.012Z</time></trkpt><trkpt lat="44.1836530331613" lon="12.213812273302722"><ele>24.0</ele><time>2026-04-26T06:18:54.012Z</time></trkpt><trkpt lat="44.18348735194724" lon="12.21382217757268"><ele>24.0</ele><time>2026-04-26T06:18:55.012Z</time></trkpt><trkpt lat="44.183325690912824" lon="12.21383184151722"><ele>24.0</ele><time>2026-04-26T06:18:56.012Z</time></trkpt><trkpt lat="44.18318122566201" lon="12.213840477522622"><ele>24.0</ele><time>2026-04-26T06:18:57.012Z</time></trkpt><trkpt lat="44.18305762380399" lon="12.2138478663229"><ele>24.0</ele><time>2026-04-26T06:18:58.012Z</time></trkpt><trkpt lat="44.18295338970158" lon="12.213854401986366"><ele>24.0</ele><time>2026-04-26T06:18:59.012Z</time></trkpt><trkpt lat="44.182876373142065" lon="12.213874779591157"><ele>24.0</ele><time>2026-04-26T06:19:00.012Z</time></trkpt><trkpt lat="44.18280312956364" lon="12.213847220802537"><ele>24.0</ele><time>2026-04-26T06:19:01.012Z</time></trkpt><trkpt lat="44.18272418741412" lon="12.213808787392306"><ele>24.0</ele><time>2026-04-26T06:19:02.012Z</time></trkpt><trkpt lat="44.182620509788556" lon="12.213790328542938"><ele>24.0</ele><time>2026-04-26T06:19:03.012Z</time></trkpt><trkpt lat="44.18252101878013" lon="12.213822108165784"><ele>24.0</ele><time>2026-04-26T06:19:04.012Z</time></trkpt><trkpt lat="44.182408528298346" lon="12.21387839736415"><ele>24.0</ele><time>2026-04-26T06:19:05.012Z</time></trkpt><trkpt lat="44.18227489618294" lon="12.21391962553834"><ele>24.0</ele><time>2026-04-26T06:19:06.012Z</time></trkpt><trkpt lat="44.18212676807093" lon="12.213891657507144"><ele>24.0</ele><time>2026-04-26T06:19:07.012Z</time></trkpt><trkpt lat="44.181965748604476" lon="12.213897921174276"><ele>24.0</ele><time>2026-04-26T06:19:08.012Z</time></trkpt><trkpt lat="44.18180847353657" lon="12.213904039190892"><ele>24.0</ele><time>2026-04-26T06:19:09.012Z</time></trkpt><trkpt lat="44.181647069343555" lon="12.21391050472942"><ele>24.0</ele><time>2026-04-26T06:19:10.012Z</time></trkpt><trkpt lat="44.18147514950789" lon="12.213917488619742"><ele>24.0</ele><time>2026-04-26T06:19:11.012Z</time></trkpt><trkpt lat="44.18130262667324" lon="12.213924495190522"><ele>23.666666666666668</ele><time>2026-04-26T06:19:12.012Z</time></trkpt><trkpt lat="44.18112332638899" lon="12.213931777011767"><ele>23.333333333333336</ele><time>2026-04-26T06:19:13.012Z</time></trkpt><trkpt lat="44.180942272935866" lon="12.213939130018"><ele>23.0</ele><time>2026-04-26T06:19:14.012Z</time></trkpt><trkpt lat="44.18075436903742" lon="12.213946761251451"><ele>23.333333333333336</ele><time>2026-04-26T06:19:15.012Z</time></trkpt><trkpt lat="44.180564746454436" lon="12.213954829321281"><ele>23.666666666666668</ele><time>2026-04-26T06:19:16.012Z</time></trkpt><trkpt lat="44.18037016769416" lon="12.213963441241203"><ele>24.0</ele><time>2026-04-26T06:19:17.012Z</time></trkpt><trkpt lat="44.18017559903942" lon="12.213972052720424"><ele>24.0</ele><time>2026-04-26T06:19:18.012Z</time></trkpt><trkpt lat="44.17998219547548" lon="12.213980612628745"><ele>24.0</ele><time>2026-04-26T06:19:19.012Z</time></trkpt><trkpt lat="44.17978186426034" lon="12.213989479149037"><ele>24.0</ele><time>2026-04-26T06:19:20.012Z</time></trkpt><trkpt lat="44.17958365120235" lon="12.21399825191925"><ele>24.333333333333336</ele><time>2026-04-26T06:19:21.012Z</time></trkpt><trkpt lat="44.17938561121233" lon="12.214005274912813"><ele>24.666666666666668</ele><time>2026-04-26T06:19:22.012Z</time></trkpt><trkpt lat="44.17919286170218" lon="12.214012561642054"><ele>25.0</ele><time>2026-04-26T06:19:23.012Z</time></trkpt><trkpt lat="44.17899967438135" lon="12.214019864925087"><ele>25.0</ele><time>2026-04-26T06:19:24.012Z</time></trkpt><trkpt lat="44.178812099664704" lon="12.21402703859469"><ele>25.0</ele><time>2026-04-26T06:19:25.012Z</time></trkpt><trkpt lat="44.178621474484416" lon="12.214034353534633"><ele>25.0</ele><time>2026-04-26T06:19:26.012Z</time></trkpt><trkpt lat="44.178428134714274" lon="12.214041516641078"><ele>25.0</ele><time>2026-04-26T06:19:27.012Z</time></trkpt><trkpt lat="44.178232134071024" lon="12.214048758803346"><ele>25.0</ele><time>2026-04-26T06:19:28.012Z</time></trkpt><trkpt lat="44.17803617900897" lon="12.21406149865266"><ele>25.0</ele><time>2026-04-26T06:19:29.012Z</time></trkpt><trkpt lat="44.17783280433616" lon="12.214077757775783"><ele>24.666666666666668</ele><time>2026-04-26T06:19:30.012Z</time></trkpt><trkpt lat="44.17762177754361" lon="12.214091189906604"><ele>24.333333333333336</ele><time>2026-04-26T06:19:31.012Z</time></trkpt><trkpt lat="44.177417416232885" lon="12.214081415066772"><ele>24.0</ele><time>2026-04-26T06:19:32.012Z</time></trkpt><trkpt lat="44.17722594201148" lon="12.21411155126507"><ele>23.333333333333332</ele><time>2026-04-26T06:19:33.012Z</time></trkpt><trkpt lat="44.177049696037216" lon="12.214116078121071"><ele>22.666666666666664</ele><time>2026-04-26T06:19:34.011Z</time></trkpt><trkpt lat="44.17689374154139" lon="12.214117737773309"><ele>22.0</ele><time>2026-04-26T06:19:35.012Z</time></trkpt><trkpt lat="44.176750472721935" lon="12.21410869083122"><ele>22.0</ele><time>2026-04-26T06:19:36.012Z</time></trkpt><trkpt lat="44.17661783708904" lon="12.214077609991396"><ele>22.0</ele><time>2026-04-26T06:19:37.012Z</time></trkpt><trkpt lat="44.17648876795063" lon="12.214017262100368"><ele>22.0</ele><time>2026-04-26T06:19:38.012Z</time></trkpt><trkpt lat="44.176381015727316" lon="12.213905086978762"><ele>22.0</ele><time>2026-04-26T06:19:39.012Z</time></trkpt><trkpt lat="44.17628190712282" lon="12.213757762044485"><ele>22.666666666666664</ele><time>2026-04-26T06:19:40.012Z</time></trkpt><trkpt lat="44.176204335966" lon="12.213579630989264"><ele>23.333333333333332</ele><time>2026-04-26T06:19:41.012Z</time></trkpt><trkpt lat="44.17613472372942" lon="12.213383628098223"><ele>24.0</ele><time>2026-04-26T06:19:42.012Z</time></trkpt><trkpt lat="44.17603064564688" lon="12.213228497989165"><ele>24.333333333333336</ele><time>2026-04-26T06:19:43.012Z</time></trkpt><trkpt lat="44.17599219289881" lon="12.21298107896093"><ele>24.666666666666668</ele><time>2026-04-26T06:19:44.012Z</time></trkpt><trkpt lat="44.175915059671674" lon="12.212767808698969"><ele>25.0</ele><time>2026-04-26T06:19:45.012Z</time></trkpt><trkpt lat="44.17583400602094" lon="12.212543428781487"><ele>25.0</ele><time>2026-04-26T06:19:46.012Z</time></trkpt><trkpt lat="44.17574687473465" lon="12.21231572229325"><ele>25.0</ele><time>2026-04-26T06:19:47.012Z</time></trkpt><trkpt lat="44.17565474997635" lon="12.212084730506824"><ele>25.0</ele><time>2026-04-26T06:19:48.012Z</time></trkpt><trkpt lat="44.17555716533505" lon="12.211865365402602"><ele>25.0</ele><time>2026-04-26T06:19:49.012Z</time></trkpt><trkpt lat="44.17546529371156" lon="12.211679341785867"><ele>25.0</ele><time>2026-04-26T06:19:50.012Z</time></trkpt><trkpt lat="44.17538311135027" lon="12.211522931385508"><ele>25.0</ele><time>2026-04-26T06:19:51.012Z</time></trkpt><trkpt lat="44.17531418346129" lon="12.211384504167835"><ele>25.0</ele><time>2026-04-26T06:19:52.012Z</time></trkpt><trkpt lat="44.175265768112354" lon="12.211246465891884"><ele>25.0</ele><time>2026-04-26T06:19:53.012Z</time></trkpt><trkpt lat="44.175238947189406" lon="12.211092478863552"><ele>25.0</ele><time>2026-04-26T06:19:54.012Z</time></trkpt><trkpt lat="44.17524388896836" lon="12.210923047103485"><ele>25.0</ele><time>2026-04-26T06:19:55.012Z</time></trkpt><trkpt lat="44.175243453770726" lon="12.210777829643435"><ele>25.0</ele><time>2026-04-26T06:19:56.012Z</time></trkpt><trkpt lat="44.17519662946011" lon="12.210637676683914"><ele>25.0</ele><time>2026-04-26T06:19:57.012Z</time></trkpt><trkpt lat="44.17510789210445" lon="12.21051838400812"><ele>25.0</ele><time>2026-04-26T06:19:58.012Z</time></trkpt><trkpt lat="44.17499758938222" lon="12.21044842400129"><ele>25.0</ele><time>2026-04-26T06:19:59.012Z</time></trkpt><trkpt lat="44.17486851243686" lon="12.210440297509578"><ele>25.0</ele><time>2026-04-26T06:20:00.012Z</time></trkpt><trkpt lat="44.174736843587475" lon="12.21042483870744"><ele>25.0</ele><time>2026-04-26T06:20:01.012Z</time></trkpt><trkpt lat="44.17459235187341" lon="12.210381255861703"><ele>25.0</ele><time>2026-04-26T06:20:02.012Z</time></trkpt><trkpt lat="44.174447643361894" lon="12.210291564641258"><ele>25.0</ele><time>2026-04-26T06:20:03.012Z</time></trkpt><trkpt lat="44.17431878015989" lon="12.210144277879381"><ele>25.0</ele><time>2026-04-26T06:20:04.012Z</time></trkpt><trkpt lat="44.174161893343324" lon="12.210036986033195"><ele>25.0</ele><time>2026-04-26T06:20:05.012Z</time></trkpt><trkpt lat="44.17401292021334" lon="12.209918730481853"><ele>25.0</ele><time>2026-04-26T06:20:06.012Z</time></trkpt><trkpt lat="44.17384877040685" lon="12.209809590473286"><ele>25.0</ele><time>2026-04-26T06:20:07.012Z</time></trkpt><trkpt lat="44.17367654896056" lon="12.209710503669301"><ele>25.0</ele><time>2026-04-26T06:20:08.013Z</time></trkpt><trkpt lat="44.173501759103715" lon="12.20961718918167"><ele>25.0</ele><time>2026-04-26T06:20:09.013Z</time></trkpt><trkpt lat="44.17332295946821" lon="12.209524946136586"><ele>25.333333333333336</ele><time>2026-04-26T06:20:10.013Z</time></trkpt><trkpt lat="44.173144826918104" lon="12.209441699407035"><ele>25.666666666666664</ele><time>2026-04-26T06:20:11.013Z</time></trkpt><trkpt lat="44.172967917622316" lon="12.209360656762174"><ele>26.0</ele><time>2026-04-26T06:20:12.013Z</time></trkpt><trkpt lat="44.17280055345672" lon="12.209267512876957"><ele>26.0</ele><time>2026-04-26T06:20:13.013Z</time></trkpt><trkpt lat="44.172635146627904" lon="12.209170181665304"><ele>26.0</ele><time>2026-04-26T06:20:14.013Z</time></trkpt><trkpt lat="44.17249490823018" lon="12.209033083389155"><ele>26.0</ele><time>2026-04-26T06:20:15.013Z</time></trkpt><trkpt lat="44.172354280413394" lon="12.208899984907982"><ele>26.666666666666664</ele><time>2026-04-26T06:20:16.013Z</time></trkpt><trkpt lat="44.17221992191603" lon="12.208755528280061"><ele>27.333333333333336</ele><time>2026-04-26T06:20:17.013Z</time></trkpt><trkpt lat="44.172086409007534" lon="12.208591092930096"><ele>28.0</ele><time>2026-04-26T06:20:18.013Z</time></trkpt><trkpt lat="44.17196123735252" lon="12.208410189275066"><ele>28.0</ele><time>2026-04-26T06:20:19.013Z</time></trkpt><trkpt lat="44.17184848848747" lon="12.208214779195004"><ele>28.0</ele><time>2026-04-26T06:20:20.013Z</time></trkpt><trkpt lat="44.171743031533744" lon="12.208000238366767"><ele>28.0</ele><time>2026-04-26T06:20:21.013Z</time></trkpt><trkpt lat="44.171635611247" lon="12.20777655137235"><ele>28.0</ele><time>2026-04-26T06:20:22.013Z</time></trkpt><trkpt lat="44.171524855559305" lon="12.207548750664953"><ele>28.0</ele><time>2026-04-26T06:20:23.013Z</time></trkpt><trkpt lat="44.17141419923137" lon="12.207329929812536"><ele>28.0</ele><time>2026-04-26T06:20:24.013Z</time></trkpt><trkpt lat="44.17130045112204" lon="12.20712118790461"><ele>28.0</ele><time>2026-04-26T06:20:25.013Z</time></trkpt><trkpt lat="44.17118283292399" lon="12.206912719619138"><ele>28.0</ele><time>2026-04-26T06:20:26.013Z</time></trkpt><trkpt lat="44.17106582167055" lon="12.206708343249035"><ele>28.0</ele><time>2026-04-26T06:20:27.013Z</time></trkpt><trkpt lat="44.17095174043472" lon="12.206510479491623"><ele>28.0</ele><time>2026-04-26T06:20:28.013Z</time></trkpt><trkpt lat="44.170844132562124" lon="12.206321164281366"><ele>28.0</ele><time>2026-04-26T06:20:29.013Z</time></trkpt><trkpt lat="44.17074107385552" lon="12.206138722924154"><ele>28.0</ele><time>2026-04-26T06:20:30.013Z</time></trkpt><trkpt lat="44.1706414925247" lon="12.205962437431928"><ele>28.0</ele><time>2026-04-26T06:20:31.013Z</time></trkpt><trkpt lat="44.170547244195184" lon="12.205795592768093"><ele>28.0</ele><time>2026-04-26T06:20:32.013Z</time></trkpt><trkpt lat="44.170457130054615" lon="12.205635313607267"><ele>28.0</ele><time>2026-04-26T06:20:33.013Z</time></trkpt><trkpt lat="44.17035813724826" lon="12.205496324359272"><ele>28.0</ele><time>2026-04-26T06:20:34.013Z</time></trkpt><trkpt lat="44.170287902217204" lon="12.205358372228662"><ele>28.166666666666668</ele><time>2026-04-26T06:20:35.013Z</time></trkpt><trkpt lat="44.170254442473194" lon="12.205230083572761"><ele>28.333333333333336</ele><time>2026-04-26T06:20:36.013Z</time></trkpt><trkpt lat="44.17022143318406" lon="12.205130377429393"><ele>28.5</ele><time>2026-04-26T06:20:37.013Z</time></trkpt><trkpt lat="44.170190651436876" lon="12.204999095036696"><ele>28.666666666666664</ele><time>2026-04-26T06:20:39.013Z</time></trkpt><trkpt lat="44.170186211200175" lon="12.20490810525733"><ele>28.833333333333332</ele><time>2026-04-26T06:20:40.013Z</time></trkpt><trkpt lat="44.17018165586862" lon="12.20479919046045"><ele>29.0</ele><time>2026-04-26T06:20:41.013Z</time></trkpt><trkpt lat="44.17015303296952" lon="12.204691137447039"><ele>29.0</ele><time>2026-04-26T06:20:42.013Z</time></trkpt><trkpt lat="44.17010112153996" lon="12.204603354916005"><ele>29.0</ele><time>2026-04-26T06:20:43.013Z</time></trkpt><trkpt lat="44.170025668320605" lon="12.204550068772674"><ele>29.0</ele><time>2026-04-26T06:20:44.013Z</time></trkpt><trkpt lat="44.169933019104185" lon="12.204527680041783"><ele>29.0</ele><time>2026-04-26T06:20:45.013Z</time></trkpt><trkpt lat="44.16984240096092" lon="12.204545833822552"><ele>29.0</ele><time>2026-04-26T06:20:46.013Z</time></trkpt><trkpt lat="44.16975061232481" lon="12.204614896891634"><ele>29.0</ele><time>2026-04-26T06:20:47.013Z</time></trkpt><trkpt lat="44.16959994124424" lon="12.204874268196864"><ele>29.0</ele><time>2026-04-26T06:20:49.013Z</time></trkpt><trkpt lat="44.16950465775781" lon="12.204979422575654"><ele>29.0</ele><time>2026-04-26T06:20:50.013Z</time></trkpt><trkpt lat="44.16938170753125" lon="12.205055177652602"><ele>29.0</ele><time>2026-04-26T06:20:51.013Z</time></trkpt><trkpt lat="44.16924097930678" lon="12.205110852223523"><ele>29.0</ele><time>2026-04-26T06:20:52.013Z</time></trkpt><trkpt lat="44.16909388230612" lon="12.205164943943869"><ele>29.0</ele><time>2026-04-26T06:20:53.013Z</time></trkpt><trkpt lat="44.168944011479205" lon="12.205238339917656"><ele>29.333333333333332</ele><time>2026-04-26T06:20:54.013Z</time></trkpt><trkpt lat="44.16878406363408" lon="12.205319719066315"><ele>29.666666666666664</ele><time>2026-04-26T06:20:55.013Z</time></trkpt><trkpt lat="44.16862913650934" lon="12.205403799636317"><ele>30.0</ele><time>2026-04-26T06:20:56.013Z</time></trkpt><trkpt lat="44.168464048988135" lon="12.205485084300035"><ele>30.0</ele><time>2026-04-26T06:20:57.013Z</time></trkpt><trkpt lat="44.16829650797575" lon="12.205564947551512"><ele>30.0</ele><time>2026-04-26T06:20:58.013Z</time></trkpt><trkpt lat="44.168124346095965" lon="12.205650150939483"><ele>30.0</ele><time>2026-04-26T06:20:59.013Z</time></trkpt><trkpt lat="44.16794911710182" lon="12.205738015193615"><ele>29.333333333333336</ele><time>2026-04-26T06:21:00.013Z</time></trkpt><trkpt lat="44.16776980286926" lon="12.205828181127158"><ele>28.666666666666668</ele><time>2026-04-26T06:21:01.013Z</time></trkpt><trkpt lat="44.16759030550534" lon="12.205916697137134"><ele>28.0</ele><time>2026-04-26T06:21:02.013Z</time></trkpt><trkpt lat="44.16740978259649" lon="12.206002229388186"><ele>28.666666666666668</ele><time>2026-04-26T06:21:03.013Z</time></trkpt><trkpt lat="44.1672297480635" lon="12.206088207781349"><ele>29.333333333333336</ele><time>2026-04-26T06:21:04.013Z</time></trkpt><trkpt lat="44.1670522642319" lon="12.206174725383548"><ele>30.0</ele><time>2026-04-26T06:21:05.013Z</time></trkpt><trkpt lat="44.16686642036656" lon="12.206264599855277"><ele>30.0</ele><time>2026-04-26T06:21:06.013Z</time></trkpt><trkpt lat="44.16668024823517" lon="12.206362584271021"><ele>30.0</ele><time>2026-04-26T06:21:07.013Z</time></trkpt><trkpt lat="44.166492670230525" lon="12.206460044894753"><ele>30.0</ele><time>2026-04-26T06:21:08.013Z</time></trkpt><trkpt lat="44.16630716396365" lon="12.206555341211605"><ele>30.0</ele><time>2026-04-26T06:21:09.013Z</time></trkpt><trkpt lat="44.16612771819618" lon="12.206644453854624"><ele>30.0</ele><time>2026-04-26T06:21:10.013Z</time></trkpt><trkpt lat="44.16595402411321" lon="12.206731350314826"><ele>30.0</ele><time>2026-04-26T06:21:11.013Z</time></trkpt><trkpt lat="44.165777434292195" lon="12.206819972388004"><ele>30.0</ele><time>2026-04-26T06:21:12.013Z</time></trkpt><trkpt lat="44.16559859313912" lon="12.2069086533091"><ele>30.0</ele><time>2026-04-26T06:21:13.013Z</time></trkpt><trkpt lat="44.16541882613521" lon="12.207004728025316"><ele>30.0</ele><time>2026-04-26T06:21:14.013Z</time></trkpt><trkpt lat="44.16523875233294" lon="12.207096147923444"><ele>30.0</ele><time>2026-04-26T06:21:15.013Z</time></trkpt><trkpt lat="44.16506721805369" lon="12.207181522453961"><ele>30.0</ele><time>2026-04-26T06:21:16.013Z</time></trkpt><trkpt lat="44.16489247453404" lon="12.207266681085427"><ele>30.0</ele><time>2026-04-26T06:21:17.013Z</time></trkpt><trkpt lat="44.16472873412669" lon="12.20734529456817"><ele>30.0</ele><time>2026-04-26T06:21:18.013Z</time></trkpt><trkpt lat="44.16456702949411" lon="12.207422988618953"><ele>30.0</ele><time>2026-04-26T06:21:19.013Z</time></trkpt><trkpt lat="44.16441607977296" lon="12.207499925264145"><ele>30.0</ele><time>2026-04-26T06:21:20.013Z</time></trkpt><trkpt lat="44.164272209361926" lon="12.20755342972733"><ele>30.0</ele><time>2026-04-26T06:21:21.013Z</time></trkpt><trkpt lat="44.1641409848423" lon="12.207618197933218"><ele>30.0</ele><time>2026-04-26T06:21:22.013Z</time></trkpt><trkpt lat="44.164025499851014" lon="12.207675587914482"><ele>30.0</ele><time>2026-04-26T06:21:23.013Z</time></trkpt><trkpt lat="44.163917657052274" lon="12.20770074798331"><ele>30.0</ele><time>2026-04-26T06:21:24.013Z</time></trkpt><trkpt lat="44.16383029739899" lon="12.207742212780996"><ele>30.0</ele><time>2026-04-26T06:21:25.013Z</time></trkpt><trkpt lat="44.163742715100376" lon="12.207794550486422"><ele>30.0</ele><time>2026-04-26T06:21:26.013Z</time></trkpt><trkpt lat="44.16366115303242" lon="12.207836839363393"><ele>30.0</ele><time>2026-04-26T06:21:27.013Z</time></trkpt><trkpt lat="44.16362421176504" lon="12.20798922959808"><ele>30.0</ele><time>2026-04-26T06:21:28.013Z</time></trkpt><trkpt lat="44.16359252681851" lon="12.20813416101612"><ele>30.0</ele><time>2026-04-26T06:21:29.013Z</time></trkpt><trkpt lat="44.163540003346945" lon="12.208280365146447"><ele>30.0</ele><time>2026-04-26T06:21:30.013Z</time></trkpt><trkpt lat="44.16347922464315" lon="12.208442626388145"><ele>30.0</ele><time>2026-04-26T06:21:31.013Z</time></trkpt><trkpt lat="44.163404605459846" lon="12.208632370912905"><ele>30.0</ele><time>2026-04-26T06:21:32.013Z</time></trkpt><trkpt lat="44.16332219789185" lon="12.20882496040812"><ele>30.0</ele><time>2026-04-26T06:21:33.013Z</time></trkpt><trkpt lat="44.163237471284845" lon="12.209025888549187"><ele>30.0</ele><time>2026-04-26T06:21:34.012Z</time></trkpt><trkpt lat="44.163160861899016" lon="12.209232336065806"><ele>30.0</ele><time>2026-04-26T06:21:35.013Z</time></trkpt><trkpt lat="44.1630798164243" lon="12.209427464154148"><ele>30.0</ele><time>2026-04-26T06:21:36.013Z</time></trkpt><trkpt lat="44.16299659913423" lon="12.2096315049674"><ele>29.333333333333336</ele><time>2026-04-26T06:21:37.013Z</time></trkpt><trkpt lat="44.162911966674336" lon="12.209839995131603"><ele>28.666666666666668</ele><time>2026-04-26T06:21:38.013Z</time></trkpt><trkpt lat="44.16282354478538" lon="12.210060727301848"><ele>28.0</ele><time>2026-04-26T06:21:39.013Z</time></trkpt><trkpt lat="44.162733590610976" lon="12.21028848965082"><ele>28.0</ele><time>2026-04-26T06:21:40.013Z</time></trkpt><trkpt lat="44.162642383398655" lon="12.210519135295423"><ele>28.0</ele><time>2026-04-26T06:21:41.012Z</time></trkpt><trkpt lat="44.16254723531786" lon="12.210754952441503"><ele>28.0</ele><time>2026-04-26T06:21:42.012Z</time></trkpt><trkpt lat="44.16244994741607" lon="12.2109945041437"><ele>29.333333333333336</ele><time>2026-04-26T06:21:43.013Z</time></trkpt><trkpt lat="44.162355759802594" lon="12.211234643389368"><ele>30.666666666666664</ele><time>2026-04-26T06:21:44.013Z</time></trkpt><trkpt lat="44.1622573631499" lon="12.211484691281909"><ele>32.0</ele><time>2026-04-26T06:21:45.013Z</time></trkpt><trkpt lat="44.16216186789127" lon="12.211723720579789"><ele>32.0</ele><time>2026-04-26T06:21:46.013Z</time></trkpt><trkpt lat="44.16206690105342" lon="12.211976102761776"><ele>32.0</ele><time>2026-04-26T06:21:47.013Z</time></trkpt><trkpt lat="44.16196269666217" lon="12.212239989798684"><ele>32.0</ele><time>2026-04-26T06:21:48.013Z</time></trkpt><trkpt lat="44.161856081078945" lon="12.212507767457227"><ele>32.0</ele><time>2026-04-26T06:21:49.013Z</time></trkpt><trkpt lat="44.16173909337145" lon="12.212760572510824"><ele>32.0</ele><time>2026-04-26T06:21:50.013Z</time></trkpt><trkpt lat="44.16160794447849" lon="12.213024724345516"><ele>32.0</ele><time>2026-04-26T06:21:51.013Z</time></trkpt><trkpt lat="44.16146942393388" lon="12.21329308278283"><ele>32.0</ele><time>2026-04-26T06:21:52.013Z</time></trkpt><trkpt lat="44.16132903577659" lon="12.213557536086956"><ele>32.0</ele><time>2026-04-26T06:21:53.013Z</time></trkpt><trkpt lat="44.161190326338115" lon="12.213818237364656"><ele>32.0</ele><time>2026-04-26T06:21:54.013Z</time></trkpt><trkpt lat="44.1610452173433" lon="12.214070571542418"><ele>32.0</ele><time>2026-04-26T06:21:55.013Z</time></trkpt><trkpt lat="44.1608911039342" lon="12.214318604457308"><ele>32.0</ele><time>2026-04-26T06:21:56.013Z</time></trkpt><trkpt lat="44.16073034359621" lon="12.214565478689364"><ele>32.0</ele><time>2026-04-26T06:21:57.013Z</time></trkpt><trkpt lat="44.160563219075605" lon="12.214811562835827"><ele>32.5</ele><time>2026-04-26T06:21:58.013Z</time></trkpt><trkpt lat="44.16039223191794" lon="12.215061381642645"><ele>33.0</ele><time>2026-04-26T06:21:59.013Z</time></trkpt><trkpt lat="44.16021865107802" lon="12.215314436400044"><ele>33.0</ele><time>2026-04-26T06:22:00.013Z</time></trkpt><trkpt lat="44.160044602043875" lon="12.215570900926325"><ele>33.0</ele><time>2026-04-26T06:22:01.013Z</time></trkpt><trkpt lat="44.15987114059734" lon="12.215827702924383"><ele>33.0</ele><time>2026-04-26T06:22:02.013Z</time></trkpt><trkpt lat="44.15969745081022" lon="12.216086293287965"><ele>33.0</ele><time>2026-04-26T06:22:03.013Z</time></trkpt><trkpt lat="44.159520469529674" lon="12.216343235488853"><ele>33.0</ele><time>2026-04-26T06:22:04.013Z</time></trkpt><trkpt lat="44.159343478143334" lon="12.216596804303842"><ele>33.0</ele><time>2026-04-26T06:22:05.013Z</time></trkpt><trkpt lat="44.15916773504512" lon="12.21685143879655"><ele>34.5</ele><time>2026-04-26T06:22:06.013Z</time></trkpt><trkpt lat="44.15899658256865" lon="12.217104944127069"><ele>36.0</ele><time>2026-04-26T06:22:07.013Z</time></trkpt><trkpt lat="44.158824295006916" lon="12.217357245126541"><ele>36.0</ele><time>2026-04-26T06:22:08.013Z</time></trkpt><trkpt lat="44.158650053875085" lon="12.217609715342478"><ele>36.0</ele><time>2026-04-26T06:22:09.013Z</time></trkpt><trkpt lat="44.15847868431155" lon="12.217860505631867"><ele>36.0</ele><time>2026-04-26T06:22:10.013Z</time></trkpt><trkpt lat="44.158306242252046" lon="12.218114599338998"><ele>36.0</ele><time>2026-04-26T06:22:11.013Z</time></trkpt><trkpt lat="44.158137871481046" lon="12.218362137724453"><ele>34.5</ele><time>2026-04-26T06:22:12.013Z</time></trkpt><trkpt lat="44.157968478163774" lon="12.218608908837183"><ele>33.0</ele><time>2026-04-26T06:22:13.013Z</time></trkpt><trkpt lat="44.15780416196011" lon="12.218855685088668"><ele>32.0</ele><time>2026-04-26T06:22:14.013Z</time></trkpt><trkpt lat="44.15763839395813" lon="12.219099579404062"><ele>31.0</ele><time>2026-04-26T06:22:15.013Z</time></trkpt><trkpt lat="44.15747201272528" lon="12.21934358961868"><ele>31.5</ele><time>2026-04-26T06:22:16.013Z</time></trkpt><trkpt lat="44.15730327109225" lon="12.219589017641848"><ele>32.0</ele><time>2026-04-26T06:22:17.013Z</time></trkpt><trkpt lat="44.15713561630742" lon="12.219833091202638"><ele>32.0</ele><time>2026-04-26T06:22:18.013Z</time></trkpt><trkpt lat="44.15697139094214" lon="12.220078787204422"><ele>32.0</ele><time>2026-04-26T06:22:19.013Z</time></trkpt><trkpt lat="44.156810207582694" lon="12.220328723744274"><ele>32.0</ele><time>2026-04-26T06:22:20.013Z</time></trkpt><trkpt lat="44.15665492632006" lon="12.220584769923322"><ele>32.0</ele><time>2026-04-26T06:22:21.013Z</time></trkpt><trkpt lat="44.15650519404995" lon="12.220849797874855"><ele>32.5</ele><time>2026-04-26T06:22:22.013Z</time></trkpt><trkpt lat="44.1563606670419" lon="12.221124831981472"><ele>33.0</ele><time>2026-04-26T06:22:23.013Z</time></trkpt><trkpt lat="44.15621808889997" lon="12.22140455575749"><ele>33.0</ele><time>2026-04-26T06:22:24.013Z</time></trkpt><trkpt lat="44.15607501536744" lon="12.221685995742327"><ele>33.0</ele><time>2026-04-26T06:22:25.013Z</time></trkpt><trkpt lat="44.15593186543983" lon="12.2219672911131"><ele>33.0</ele><time>2026-04-26T06:22:26.013Z</time></trkpt><trkpt lat="44.15578742715154" lon="12.222251672625127"><ele>33.0</ele><time>2026-04-26T06:22:27.013Z</time></trkpt><trkpt lat="44.15564450667882" lon="12.222543262582617"><ele>32.0</ele><time>2026-04-26T06:22:28.013Z</time></trkpt><trkpt lat="44.155508458729834" lon="12.222829661174497"><ele>31.0</ele><time>2026-04-26T06:22:29.013Z</time></trkpt><trkpt lat="44.15537805495512" lon="12.223119219342042"><ele>31.0</ele><time>2026-04-26T06:22:30.013Z</time></trkpt><trkpt lat="44.15525240682403" lon="12.223414816601172"><ele>31.0</ele><time>2026-04-26T06:22:31.013Z</time></trkpt><trkpt lat="44.155127889572896" lon="12.223711901444112"><ele>31.5</ele><time>2026-04-26T06:22:32.013Z</time></trkpt><trkpt lat="44.15500450973158" lon="12.224007774219167"><ele>32.0</ele><time>2026-04-26T06:22:33.013Z</time></trkpt><trkpt lat="44.154883547843646" lon="12.224304239360366"><ele>31.0</ele><time>2026-04-26T06:22:34.013Z</time></trkpt><trkpt lat="44.15476391332367" lon="12.22459825786293"><ele>30.0</ele><time>2026-04-26T06:22:35.013Z</time></trkpt><trkpt lat="44.15464567619636" lon="12.224886918439505"><ele>30.0</ele><time>2026-04-26T06:22:36.013Z</time></trkpt><trkpt lat="44.154527774628114" lon="12.225176427062449"><ele>30.0</ele><time>2026-04-26T06:22:37.013Z</time></trkpt><trkpt lat="44.154409940740415" lon="12.22546259831784"><ele>30.0</ele><time>2026-04-26T06:22:38.013Z</time></trkpt><trkpt lat="44.154291776480726" lon="12.22574952579906"><ele>30.0</ele><time>2026-04-26T06:22:39.013Z</time></trkpt><trkpt lat="44.154178030007984" lon="12.22603360288037"><ele>30.0</ele><time>2026-04-26T06:22:40.013Z</time></trkpt><trkpt lat="44.154061078502785" lon="12.226317425284885"><ele>30.0</ele><time>2026-04-26T06:22:41.013Z</time></trkpt><trkpt lat="44.15393897836887" lon="12.226607899781886"><ele>28.5</ele><time>2026-04-26T06:22:42.013Z</time></trkpt><trkpt lat="44.153817024950335" lon="12.226902901257334"><ele>27.0</ele><time>2026-04-26T06:22:43.013Z</time></trkpt><trkpt lat="44.153693126366726" lon="12.227192394878077"><ele>26.5</ele><time>2026-04-26T06:22:44.013Z</time></trkpt><trkpt lat="44.15357213489641" lon="12.227485193062426"><ele>26.0</ele><time>2026-04-26T06:22:45.013Z</time></trkpt><trkpt lat="44.1534505965843" lon="12.22778154094187"><ele>26.0</ele><time>2026-04-26T06:22:46.013Z</time></trkpt><trkpt lat="44.15332769852355" lon="12.228080614610292"><ele>26.0</ele><time>2026-04-26T06:22:47.013Z</time></trkpt><trkpt lat="44.1532049100358" lon="12.228379123781128"><ele>25.5</ele><time>2026-04-26T06:22:48.013Z</time></trkpt><trkpt lat="44.15308333216796" lon="12.228676910758603"><ele>25.0</ele><time>2026-04-26T06:22:49.013Z</time></trkpt><trkpt lat="44.152959632198645" lon="12.228978120108263"><ele>24.5</ele><time>2026-04-26T06:22:50.013Z</time></trkpt><trkpt lat="44.1528311018645" lon="12.229276010331054"><ele>24.0</ele><time>2026-04-26T06:22:51.013Z</time></trkpt><trkpt lat="44.15270237827546" lon="12.229574024933259"><ele>24.5</ele><time>2026-04-26T06:22:52.013Z</time></trkpt><trkpt lat="44.15257932245084" lon="12.229872362701222"><ele>25.0</ele><time>2026-04-26T06:22:53.013Z</time></trkpt><trkpt lat="44.15245442715836" lon="12.23017031894655"><ele>24.5</ele><time>2026-04-26T06:22:54.013Z</time></trkpt><trkpt lat="44.152332700391526" lon="12.23047458997841"><ele>24.0</ele><time>2026-04-26T06:22:55.013Z</time></trkpt><trkpt lat="44.15221577103972" lon="12.230776374526364"><ele>25.0</ele><time>2026-04-26T06:22:56.013Z</time></trkpt><trkpt lat="44.15209734349527" lon="12.231078018478518"><ele>26.0</ele><time>2026-04-26T06:22:57.013Z</time></trkpt><trkpt lat="44.151988018622525" lon="12.23138906163736"><ele>26.0</ele><time>2026-04-26T06:22:58.013Z</time></trkpt><trkpt lat="44.15188337791239" lon="12.231702909891911"><ele>26.0</ele><time>2026-04-26T06:22:59.013Z</time></trkpt><trkpt lat="44.15178131397749" lon="12.232020064946127"><ele>26.0</ele><time>2026-04-26T06:23:00.013Z</time></trkpt><trkpt lat="44.15168429958667" lon="12.23233726253658"><ele>26.0</ele><time>2026-04-26T06:23:01.013Z</time></trkpt><trkpt lat="44.15159674931895" lon="12.232656495187083"><ele>25.5</ele><time>2026-04-26T06:23:02.013Z</time></trkpt><trkpt lat="44.15151089227586" lon="12.232977008748806"><ele>25.0</ele><time>2026-04-26T06:23:03.013Z</time></trkpt><trkpt lat="44.151429099046574" lon="12.233303421624129"><ele>26.0</ele><time>2026-04-26T06:23:04.013Z</time></trkpt><trkpt lat="44.151347423908064" lon="12.233626125652114"><ele>27.0</ele><time>2026-04-26T06:23:05.013Z</time></trkpt><trkpt lat="44.15126903335205" lon="12.233947925569526"><ele>25.5</ele><time>2026-04-26T06:23:06.013Z</time></trkpt><trkpt lat="44.15119011646497" lon="12.234271933267781"><ele>24.0</ele><time>2026-04-26T06:23:07.013Z</time></trkpt><trkpt lat="44.15111155097824" lon="12.234595053267139"><ele>23.5</ele><time>2026-04-26T06:23:08.013Z</time></trkpt><trkpt lat="44.15103006463978" lon="12.23491857816222"><ele>23.0</ele><time>2026-04-26T06:23:09.013Z</time></trkpt><trkpt lat="44.15094705484363" lon="12.23523812165877"><ele>23.0</ele><time>2026-04-26T06:23:10.013Z</time></trkpt><trkpt lat="44.15086565944796" lon="12.235560797279929"><ele>23.0</ele><time>2026-04-26T06:23:11.013Z</time></trkpt><trkpt lat="44.150780837106595" lon="12.235880510034235"><ele>25.0</ele><time>2026-04-26T06:23:12.013Z</time></trkpt><trkpt lat="44.15069206682145" lon="12.236196812002879"><ele>27.0</ele><time>2026-04-26T06:23:13.013Z</time></trkpt><trkpt lat="44.15059564408833" lon="12.236507504594371"><ele>27.5</ele><time>2026-04-26T06:23:14.013Z</time></trkpt><trkpt lat="44.15049280659677" lon="12.236812362547335"><ele>28.0</ele><time>2026-04-26T06:23:15.014Z</time></trkpt><trkpt lat="44.15038610865741" lon="12.237111061217014"><ele>29.0</ele><time>2026-04-26T06:23:16.014Z</time></trkpt><trkpt lat="44.150269523148665" lon="12.237404663763419"><ele>30.0</ele><time>2026-04-26T06:23:17.014Z</time></trkpt><trkpt lat="44.15013747844675" lon="12.237683069585872"><ele>30.0</ele><time>2026-04-26T06:23:18.014Z</time></trkpt><trkpt lat="44.150008204103905" lon="12.237958749844745"><ele>30.0</ele><time>2026-04-26T06:23:19.014Z</time></trkpt><trkpt lat="44.14988749084829" lon="12.238242912495188"><ele>31.0</ele><time>2026-04-26T06:23:20.014Z</time></trkpt><trkpt lat="44.14976886964616" lon="12.23853291222761"><ele>32.0</ele><time>2026-04-26T06:23:21.014Z</time></trkpt><trkpt lat="44.14965713742142" lon="12.238822924634103"><ele>32.0</ele><time>2026-04-26T06:23:22.014Z</time></trkpt><trkpt lat="44.14954165111902" lon="12.239106095828634"><ele>32.0</ele><time>2026-04-26T06:23:23.014Z</time></trkpt><trkpt lat="44.14943347860008" lon="12.239377227716895"><ele>32.0</ele><time>2026-04-26T06:23:24.014Z</time></trkpt><trkpt lat="44.14932409924911" lon="12.239657143426879"><ele>32.0</ele><time>2026-04-26T06:23:25.014Z</time></trkpt><trkpt lat="44.149216339774455" lon="12.23994246535338"><ele>32.5</ele><time>2026-04-26T06:23:26.014Z</time></trkpt><trkpt lat="44.149111564829745" lon="12.240237148904662"><ele>33.0</ele><time>2026-04-26T06:23:27.014Z</time></trkpt><trkpt lat="44.14901365087514" lon="12.240543817935723"><ele>33.0</ele><time>2026-04-26T06:23:28.014Z</time></trkpt><trkpt lat="44.14892688805337" lon="12.240862545775181"><ele>33.0</ele><time>2026-04-26T06:23:29.014Z</time></trkpt><trkpt lat="44.14885091326481" lon="12.241186044073343"><ele>33.0</ele><time>2026-04-26T06:23:30.014Z</time></trkpt><trkpt lat="44.1487910429951" lon="12.241517508137866"><ele>33.0</ele><time>2026-04-26T06:23:31.014Z</time></trkpt><trkpt lat="44.147787629488676" lon="12.244447996912177"><ele>33.0</ele><time>2026-04-26T06:23:42.841Z</time></trkpt><trkpt lat="44.1435341880014" lon="12.258515920099411"><ele>33.0</ele><time>2026-04-26T06:24:28.014Z</time></trkpt><trkpt lat="44.14348688881087" lon="12.258582037370319"><ele>33.0</ele><time>2026-04-26T06:24:30.014Z</time></trkpt><trkpt lat="44.143426001912395" lon="12.258786742631067"><ele>33.0</ele><time>2026-04-26T06:24:31.014Z</time></trkpt><trkpt lat="44.14335130274372" lon="12.2590757560135"><ele>33.0</ele><time>2026-04-26T06:24:32.014Z</time></trkpt><trkpt lat="44.1432919009132" lon="12.259373936827712"><ele>33.5</ele><time>2026-04-26T06:24:33.014Z</time></trkpt><trkpt lat="44.14323705379781" lon="12.259680868262695"><ele>34.0</ele><time>2026-04-26T06:24:34.014Z</time></trkpt><trkpt lat="44.143188216376856" lon="12.259998223654923"><ele>32.5</ele><time>2026-04-26T06:24:35.014Z</time></trkpt><trkpt lat="44.14313415297535" lon="12.260313097543017"><ele>31.0</ele><time>2026-04-26T06:24:36.014Z</time></trkpt><trkpt lat="44.143092216290945" lon="12.260619778338429"><ele>30.0</ele><time>2026-04-26T06:24:37.014Z</time></trkpt><trkpt lat="44.14304912035529" lon="12.260937115643765"><ele>29.0</ele><time>2026-04-26T06:24:38.014Z</time></trkpt><trkpt lat="44.142995786278846" lon="12.261254477445915"><ele>28.5</ele><time>2026-04-26T06:24:39.014Z</time></trkpt><trkpt lat="44.1429365853342" lon="12.261568080245492"><ele>28.0</ele><time>2026-04-26T06:24:40.014Z</time></trkpt><trkpt lat="44.14286628349658" lon="12.26187573358922"><ele>28.0</ele><time>2026-04-26T06:24:41.014Z</time></trkpt><trkpt lat="44.14278300262851" lon="12.262183636221362"><ele>28.0</ele><time>2026-04-26T06:24:42.014Z</time></trkpt><trkpt lat="44.142688732836795" lon="12.262480526320381"><ele>28.0</ele><time>2026-04-26T06:24:43.014Z</time></trkpt><trkpt lat="44.142575106919146" lon="12.262766790856816"><ele>28.0</ele><time>2026-04-26T06:24:44.014Z</time></trkpt><trkpt lat="44.14245166939662" lon="12.263051474177812"><ele>27.5</ele><time>2026-04-26T06:24:45.014Z</time></trkpt><trkpt lat="44.14232256344794" lon="12.263320689813398"><ele>27.0</ele><time>2026-04-26T06:24:46.014Z</time></trkpt><trkpt lat="44.14217931423045" lon="12.263585113002632"><ele>27.0</ele><time>2026-04-26T06:24:47.014Z</time></trkpt><trkpt lat="44.14202926649807" lon="12.263847853955369"><ele>27.0</ele><time>2026-04-26T06:24:48.014Z</time></trkpt><trkpt lat="44.14186498082277" lon="12.264098738227743"><ele>27.5</ele><time>2026-04-26T06:24:49.014Z</time></trkpt><trkpt lat="44.1416981218131" lon="12.264347091135356"><ele>28.0</ele><time>2026-04-26T06:24:50.014Z</time></trkpt><trkpt lat="44.14153085512756" lon="12.264592782373239"><ele>27.5</ele><time>2026-04-26T06:24:51.014Z</time></trkpt><trkpt lat="44.14136115266459" lon="12.264837917182481"><ele>27.0</ele><time>2026-04-26T06:24:52.014Z</time></trkpt><trkpt lat="44.14118872595755" lon="12.26508461685085"><ele>27.0</ele><time>2026-04-26T06:24:53.014Z</time></trkpt><trkpt lat="44.1410129732257" lon="12.265336710089324"><ele>27.0</ele><time>2026-04-26T06:24:54.014Z</time></trkpt><trkpt lat="44.14083656528437" lon="12.265591738921552"><ele>28.0</ele><time>2026-04-26T06:24:55.014Z</time></trkpt><trkpt lat="44.14066391898961" lon="12.26584638190696"><ele>29.0</ele><time>2026-04-26T06:24:56.014Z</time></trkpt><trkpt lat="44.140495239175735" lon="12.266106704581588"><ele>29.0</ele><time>2026-04-26T06:24:57.014Z</time></trkpt><trkpt lat="44.14033478191373" lon="12.266367765139758"><ele>29.0</ele><time>2026-04-26T06:24:58.014Z</time></trkpt><trkpt lat="44.14018307668326" lon="12.266634836746569"><ele>28.5</ele><time>2026-04-26T06:24:59.014Z</time></trkpt><trkpt lat="44.14003057358298" lon="12.266931089238138"><ele>28.0</ele><time>2026-04-26T06:25:00.014Z</time></trkpt><trkpt lat="44.139894466461605" lon="12.267226791619803"><ele>29.0</ele><time>2026-04-26T06:25:01.014Z</time></trkpt><trkpt lat="44.13976417066386" lon="12.267532561861133"><ele>30.0</ele><time>2026-04-26T06:25:02.014Z</time></trkpt><trkpt lat="44.13964166234307" lon="12.267855147289996"><ele>28.5</ele><time>2026-04-26T06:25:03.014Z</time></trkpt><trkpt lat="44.13951613032626" lon="12.268170039318264"><ele>27.0</ele><time>2026-04-26T06:25:04.014Z</time></trkpt><trkpt lat="44.139398283691605" lon="12.268483531352555"><ele>27.0</ele><time>2026-04-26T06:25:05.014Z</time></trkpt><trkpt lat="44.13928441153849" lon="12.268807962259785"><ele>27.0</ele><time>2026-04-26T06:25:06.014Z</time></trkpt><trkpt lat="44.13917487305595" lon="12.269131110774945"><ele>27.0</ele><time>2026-04-26T06:25:07.015Z</time></trkpt><trkpt lat="44.13906125250538" lon="12.26945500368936"><ele>27.0</ele><time>2026-04-26T06:25:08.015Z</time></trkpt><trkpt lat="44.13894729644124" lon="12.269775297668739"><ele>26.5</ele><time>2026-04-26T06:25:09.015Z</time></trkpt><trkpt lat="44.13883349683512" lon="12.270095174112509"><ele>26.0</ele><time>2026-04-26T06:25:10.015Z</time></trkpt><trkpt lat="44.13871734188257" lon="12.27041201013291"><ele>27.0</ele><time>2026-04-26T06:25:11.015Z</time></trkpt><trkpt lat="44.13860230066816" lon="12.270732946436908"><ele>28.0</ele><time>2026-04-26T06:25:12.015Z</time></trkpt><trkpt lat="44.138483980891564" lon="12.271047678279471"><ele>28.0</ele><time>2026-04-26T06:25:13.015Z</time></trkpt><trkpt lat="44.1383643055207" lon="12.271364058854532"><ele>28.0</ele><time>2026-04-26T06:25:14.015Z</time></trkpt><trkpt lat="44.13824721149763" lon="12.271680713898299"><ele>28.0</ele><time>2026-04-26T06:25:15.015Z</time></trkpt><trkpt lat="44.13812718571255" lon="12.271993725798676"><ele>28.0</ele><time>2026-04-26T06:25:16.015Z</time></trkpt><trkpt lat="44.13800619435309" lon="12.272305927852901"><ele>28.0</ele><time>2026-04-26T06:25:17.015Z</time></trkpt><trkpt lat="44.13788463365212" lon="12.272615300293285"><ele>28.0</ele><time>2026-04-26T06:25:18.015Z</time></trkpt><trkpt lat="44.137763047868546" lon="12.272924458838778"><ele>27.5</ele><time>2026-04-26T06:25:19.015Z</time></trkpt><trkpt lat="44.13764508104694" lon="12.27323416821567"><ele>27.0</ele><time>2026-04-26T06:25:20.015Z</time></trkpt><trkpt lat="44.137525672924475" lon="12.27354421114232"><ele>27.0</ele><time>2026-04-26T06:25:21.015Z</time></trkpt><trkpt lat="44.13741042657311" lon="12.273849289676635"><ele>27.0</ele><time>2026-04-26T06:25:22.015Z</time></trkpt><trkpt lat="44.1372968493067" lon="12.274149595152046"><ele>27.0</ele><time>2026-04-26T06:25:23.015Z</time></trkpt><trkpt lat="44.137186860697085" lon="12.274454295364249"><ele>27.0</ele><time>2026-04-26T06:25:24.015Z</time></trkpt><trkpt lat="44.13707412680663" lon="12.27475234815401"><ele>26.5</ele><time>2026-04-26T06:25:25.015Z</time></trkpt><trkpt lat="44.1369615012008" lon="12.275048895829833"><ele>26.0</ele><time>2026-04-26T06:25:26.015Z</time></trkpt><trkpt lat="44.13684415659585" lon="12.275342765099388"><ele>26.0</ele><time>2026-04-26T06:25:27.015Z</time></trkpt><trkpt lat="44.13673453878337" lon="12.27563818872917"><ele>26.0</ele><time>2026-04-26T06:25:28.015Z</time></trkpt><trkpt lat="44.13662820744919" lon="12.275943524702171"><ele>26.0</ele><time>2026-04-26T06:25:29.015Z</time></trkpt><trkpt lat="44.136521327448314" lon="12.276256810255694"><ele>26.0</ele><time>2026-04-26T06:25:30.015Z</time></trkpt><trkpt lat="44.136418508034645" lon="12.27656934740954"><ele>26.0</ele><time>2026-04-26T06:25:31.015Z</time></trkpt><trkpt lat="44.13631814303699" lon="12.276890024300586"><ele>26.0</ele><time>2026-04-26T06:25:32.015Z</time></trkpt><trkpt lat="44.136228662042505" lon="12.277208191260865"><ele>26.0</ele><time>2026-04-26T06:25:33.015Z</time></trkpt><trkpt lat="44.13614818968512" lon="12.27752473812924"><ele>26.0</ele><time>2026-04-26T06:25:34.015Z</time></trkpt><trkpt lat="44.13607214705548" lon="12.277841569772374"><ele>26.0</ele><time>2026-04-26T06:25:35.015Z</time></trkpt><trkpt lat="44.13600461564964" lon="12.278162954935713"><ele>26.0</ele><time>2026-04-26T06:25:36.015Z</time></trkpt><trkpt lat="44.13594220480194" lon="12.278482025222022"><ele>26.0</ele><time>2026-04-26T06:25:37.015Z</time></trkpt><trkpt lat="44.13588020372074" lon="12.278800613642565"><ele>26.0</ele><time>2026-04-26T06:25:38.015Z</time></trkpt><trkpt lat="44.13581851695153" lon="12.279114231487034"><ele>26.0</ele><time>2026-04-26T06:25:39.015Z</time></trkpt><trkpt lat="44.13577123211399" lon="12.279433854580425"><ele>26.0</ele><time>2026-04-26T06:25:40.015Z</time></trkpt><trkpt lat="44.13571789192212" lon="12.279753503221615"><ele>26.5</ele><time>2026-04-26T06:25:41.015Z</time></trkpt><trkpt lat="44.13566703601842" lon="12.280074374743231"><ele>27.0</ele><time>2026-04-26T06:25:42.015Z</time></trkpt><trkpt lat="44.135616470941855" lon="12.280398033533977"><ele>27.0</ele><time>2026-04-26T06:25:43.015Z</time></trkpt><trkpt lat="44.13555927916373" lon="12.28071697979627"><ele>27.0</ele><time>2026-04-26T06:25:44.015Z</time></trkpt><trkpt lat="44.13550266159657" lon="12.281032299793944"><ele>27.0</ele><time>2026-04-26T06:25:45.015Z</time></trkpt><trkpt lat="44.1354459441695" lon="12.281354899104638"><ele>27.0</ele><time>2026-04-26T06:25:46.015Z</time></trkpt><trkpt lat="44.13538860212409" lon="12.281677828803636"><ele>26.5</ele><time>2026-04-26T06:25:47.015Z</time></trkpt><trkpt lat="44.13532905082878" lon="12.282004040306624"><ele>26.0</ele><time>2026-04-26T06:25:48.015Z</time></trkpt><trkpt lat="44.13527131997703" lon="12.282330915341342"><ele>25.5</ele><time>2026-04-26T06:25:49.015Z</time></trkpt><trkpt lat="44.13521394307125" lon="12.282650019820052"><ele>25.0</ele><time>2026-04-26T06:25:50.015Z</time></trkpt><trkpt lat="44.13515645566153" lon="12.282982718367885"><ele>26.0</ele><time>2026-04-26T06:25:51.015Z</time></trkpt><trkpt lat="44.135098022229954" lon="12.283328061086268"><ele>27.0</ele><time>2026-04-26T06:25:52.015Z</time></trkpt><trkpt lat="44.135045797953424" lon="12.283658682748795"><ele>27.0</ele><time>2026-04-26T06:25:53.015Z</time></trkpt><trkpt lat="44.13498504672409" lon="12.283992330256059"><ele>27.0</ele><time>2026-04-26T06:25:54.015Z</time></trkpt><trkpt lat="44.13492927277165" lon="12.284319920546958"><ele>27.0</ele><time>2026-04-26T06:25:55.015Z</time></trkpt><trkpt lat="44.13487282133994" lon="12.284647603583606"><ele>27.0</ele><time>2026-04-26T06:25:56.015Z</time></trkpt><trkpt lat="44.134818153228174" lon="12.284968704434577"><ele>27.0</ele><time>2026-04-26T06:25:57.015Z</time></trkpt><trkpt lat="44.13475208685419" lon="12.28528887481376"><ele>27.0</ele><time>2026-04-26T06:25:58.015Z</time></trkpt><trkpt lat="44.13467229624778" lon="12.285597892284507"><ele>27.0</ele><time>2026-04-26T06:25:59.015Z</time></trkpt><trkpt lat="44.13460914925521" lon="12.28592304715385"><ele>27.0</ele><time>2026-04-26T06:26:00.015Z</time></trkpt><trkpt lat="44.134519727517414" lon="12.286236974458989"><ele>27.0</ele><time>2026-04-26T06:26:01.015Z</time></trkpt><trkpt lat="44.1344184944398" lon="12.286546990116271"><ele>27.0</ele><time>2026-04-26T06:26:02.015Z</time></trkpt><trkpt lat="44.134311635516795" lon="12.286834143205569"><ele>27.0</ele><time>2026-04-26T06:26:03.015Z</time></trkpt><trkpt lat="44.13418932783115" lon="12.287122619268704"><ele>27.0</ele><time>2026-04-26T06:26:04.015Z</time></trkpt><trkpt lat="44.13405485211649" lon="12.287398980096354"><ele>27.0</ele><time>2026-04-26T06:26:05.015Z</time></trkpt><trkpt lat="44.133900840351856" lon="12.287659769911151"><ele>27.0</ele><time>2026-04-26T06:26:06.015Z</time></trkpt><trkpt lat="44.133731985820035" lon="12.287909124070667"><ele>27.5</ele><time>2026-04-26T06:26:07.015Z</time></trkpt><trkpt lat="44.13355897996667" lon="12.288146449742042"><ele>28.0</ele><time>2026-04-26T06:26:08.015Z</time></trkpt><trkpt lat="44.13338509841435" lon="12.28836956246074"><ele>28.0</ele><time>2026-04-26T06:26:09.015Z</time></trkpt><trkpt lat="44.13320080145161" lon="12.288583528547797"><ele>28.0</ele><time>2026-04-26T06:26:10.015Z</time></trkpt><trkpt lat="44.133013228957" lon="12.28877983849693"><ele>28.0</ele><time>2026-04-26T06:26:11.015Z</time></trkpt><trkpt lat="44.132817697194184" lon="12.288967904368967"><ele>28.0</ele><time>2026-04-26T06:26:12.015Z</time></trkpt><trkpt lat="44.132613021731224" lon="12.289143736832564"><ele>28.0</ele><time>2026-04-26T06:26:13.015Z</time></trkpt><trkpt lat="44.13240870293209" lon="12.289321906435498"><ele>28.0</ele><time>2026-04-26T06:26:14.015Z</time></trkpt><trkpt lat="44.13220538903465" lon="12.289496076152435"><ele>28.0</ele><time>2026-04-26T06:26:15.015Z</time></trkpt><trkpt lat="44.13200663737969" lon="12.28967217284029"><ele>28.0</ele><time>2026-04-26T06:26:16.015Z</time></trkpt><trkpt lat="44.13180885217661" lon="12.28984250558005"><ele>28.0</ele><time>2026-04-26T06:26:17.015Z</time></trkpt><trkpt lat="44.13160825529444" lon="12.29002009837049"><ele>28.0</ele><time>2026-04-26T06:26:18.015Z</time></trkpt><trkpt lat="44.13140462312809" lon="12.290192194461376"><ele>28.5</ele><time>2026-04-26T06:26:19.015Z</time></trkpt><trkpt lat="44.13120149164834" lon="12.290366811174518"><ele>29.0</ele><time>2026-04-26T06:26:20.015Z</time></trkpt><trkpt lat="44.13099804967469" lon="12.29054339181414"><ele>29.0</ele><time>2026-04-26T06:26:21.015Z</time></trkpt><trkpt lat="44.13079369177736" lon="12.290717818803238"><ele>29.0</ele><time>2026-04-26T06:26:22.015Z</time></trkpt><trkpt lat="44.13058897553705" lon="12.29089344983205"><ele>29.0</ele><time>2026-04-26T06:26:23.015Z</time></trkpt><trkpt lat="44.1303852464494" lon="12.291071663760809"><ele>29.0</ele><time>2026-04-26T06:26:24.015Z</time></trkpt><trkpt lat="44.13017883534269" lon="12.291255921967533"><ele>28.5</ele><time>2026-04-26T06:26:25.015Z</time></trkpt><trkpt lat="44.12997566582609" lon="12.291438945489928"><ele>28.0</ele><time>2026-04-26T06:26:26.015Z</time></trkpt><trkpt lat="44.12976952728055" lon="12.291618919164746"><ele>28.0</ele><time>2026-04-26T06:26:27.015Z</time></trkpt><trkpt lat="44.1295630044073" lon="12.291795823883058"><ele>28.0</ele><time>2026-04-26T06:26:28.015Z</time></trkpt><trkpt lat="44.12935375017619" lon="12.291976483562456"><ele>28.0</ele><time>2026-04-26T06:26:29.015Z</time></trkpt><trkpt lat="44.12914281925432" lon="12.292154840250232"><ele>28.0</ele><time>2026-04-26T06:26:30.015Z</time></trkpt><trkpt lat="44.12893461585698" lon="12.292338773381308"><ele>29.5</ele><time>2026-04-26T06:26:31.015Z</time></trkpt><trkpt lat="44.12872812113839" lon="12.292519449603407"><ele>31.0</ele><time>2026-04-26T06:26:32.015Z</time></trkpt><trkpt lat="44.12852083053562" lon="12.292699247434722"><ele>31.0</ele><time>2026-04-26T06:26:33.015Z</time></trkpt><trkpt lat="44.128310392020765" lon="12.292881476282158"><ele>31.0</ele><time>2026-04-26T06:26:34.015Z</time></trkpt><trkpt lat="44.1281000940649" lon="12.293062032057849"><ele>30.5</ele><time>2026-04-26T06:26:35.015Z</time></trkpt><trkpt lat="44.12789208079621" lon="12.293238579279622"><ele>30.0</ele><time>2026-04-26T06:26:36.015Z</time></trkpt><trkpt lat="44.127681785193836" lon="12.293418510534583"><ele>30.0</ele><time>2026-04-26T06:26:37.015Z</time></trkpt><trkpt lat="44.12747136880443" lon="12.293597622287535"><ele>30.0</ele><time>2026-04-26T06:26:38.015Z</time></trkpt><trkpt lat="44.12726181090916" lon="12.293778528043305"><ele>31.0</ele><time>2026-04-26T06:26:39.015Z</time></trkpt><trkpt lat="44.12705461400774" lon="12.29396309165141"><ele>32.0</ele><time>2026-04-26T06:26:40.015Z</time></trkpt><trkpt lat="44.12684257499304" lon="12.294152006793453"><ele>32.0</ele><time>2026-04-26T06:26:41.015Z</time></trkpt><trkpt lat="44.126630593036076" lon="12.294337991743818"><ele>32.0</ele><time>2026-04-26T06:26:42.015Z</time></trkpt><trkpt lat="44.12641438777173" lon="12.294527592986782"><ele>32.0</ele><time>2026-04-26T06:26:43.015Z</time></trkpt><trkpt lat="44.12620057057206" lon="12.294727341247627"><ele>32.0</ele><time>2026-04-26T06:26:44.015Z</time></trkpt><trkpt lat="44.12598114572876" lon="12.294926867498734"><ele>32.0</ele><time>2026-04-26T06:26:45.015Z</time></trkpt><trkpt lat="44.12575929491283" lon="12.295126612474123"><ele>32.0</ele><time>2026-04-26T06:26:46.015Z</time></trkpt><trkpt lat="44.12554349049273" lon="12.295315381068766"><ele>31.5</ele><time>2026-04-26T06:26:47.015Z</time></trkpt><trkpt lat="44.12533121983541" lon="12.295507606280724"><ele>31.0</ele><time>2026-04-26T06:26:48.015Z</time></trkpt><trkpt lat="44.12512247858158" lon="12.295697320177895"><ele>31.0</ele><time>2026-04-26T06:26:49.015Z</time></trkpt><trkpt lat="44.124914946084104" lon="12.295883425169773"><ele>31.0</ele><time>2026-04-26T06:26:50.015Z</time></trkpt><trkpt lat="44.124701880390035" lon="12.296071161870616"><ele>30.5</ele><time>2026-04-26T06:26:51.015Z</time></trkpt><trkpt lat="44.12449434973443" lon="12.296257326776619"><ele>30.0</ele><time>2026-04-26T06:26:52.015Z</time></trkpt><trkpt lat="44.12428605731264" lon="12.296443646320789"><ele>30.0</ele><time>2026-04-26T06:26:53.015Z</time></trkpt><trkpt lat="44.12407422566781" lon="12.296634455832608"><ele>30.0</ele><time>2026-04-26T06:26:54.015Z</time></trkpt><trkpt lat="44.12385634376128" lon="12.296823385174068"><ele>30.0</ele><time>2026-04-26T06:26:55.015Z</time></trkpt><trkpt lat="44.12364442220555" lon="12.29700337837162"><ele>30.0</ele><time>2026-04-26T06:26:56.015Z</time></trkpt><trkpt lat="44.123427559273345" lon="12.29719119918442"><ele>30.0</ele><time>2026-04-26T06:26:57.015Z</time></trkpt><trkpt lat="44.12320648553947" lon="12.297367653961496"><ele>30.0</ele><time>2026-04-26T06:26:58.015Z</time></trkpt><trkpt lat="44.12299516402302" lon="12.297549733299128"><ele>30.0</ele><time>2026-04-26T06:26:59.015Z</time></trkpt><trkpt lat="44.12278167216558" lon="12.297724343360192"><ele>30.0</ele><time>2026-04-26T06:27:00.015Z</time></trkpt><trkpt lat="44.12256559594666" lon="12.297905200956832"><ele>30.5</ele><time>2026-04-26T06:27:01.015Z</time></trkpt><trkpt lat="44.12236135914375" lon="12.298090305259551"><ele>31.0</ele><time>2026-04-26T06:27:02.015Z</time></trkpt><trkpt lat="44.12215609774719" lon="12.298270053772665"><ele>31.0</ele><time>2026-04-26T06:27:03.015Z</time></trkpt><trkpt lat="44.12194508807234" lon="12.29844682169674"><ele>31.0</ele><time>2026-04-26T06:27:04.015Z</time></trkpt><trkpt lat="44.1217347805476" lon="12.298626888260957"><ele>31.5</ele><time>2026-04-26T06:27:05.015Z</time></trkpt><trkpt lat="44.12153325247899" lon="12.298803050821691"><ele>32.0</ele><time>2026-04-26T06:27:06.015Z</time></trkpt><trkpt lat="44.1213186323864" lon="12.298979068764945"><ele>32.0</ele><time>2026-04-26T06:27:07.015Z</time></trkpt><trkpt lat="44.121106743126454" lon="12.299149244835945"><ele>32.0</ele><time>2026-04-26T06:27:08.015Z</time></trkpt><trkpt lat="44.12089546463535" lon="12.299312056634305"><ele>32.5</ele><time>2026-04-26T06:27:09.015Z</time></trkpt><trkpt lat="44.12067648730193" lon="12.299463170935862"><ele>33.0</ele><time>2026-04-26T06:27:10.015Z</time></trkpt><trkpt lat="44.120450998256835" lon="12.29959851451673"><ele>33.0</ele><time>2026-04-26T06:27:11.015Z</time></trkpt><trkpt lat="44.12022117882325" lon="12.299725897547848"><ele>33.0</ele><time>2026-04-26T06:27:12.015Z</time></trkpt><trkpt lat="44.119987637450265" lon="12.29985448156251"><ele>32.0</ele><time>2026-04-26T06:27:13.015Z</time></trkpt><trkpt lat="44.11975804191636" lon="12.299988712858283"><ele>31.0</ele><time>2026-04-26T06:27:14.015Z</time></trkpt><trkpt lat="44.11953376469898" lon="12.300115921992377"><ele>31.0</ele><time>2026-04-26T06:27:15.015Z</time></trkpt><trkpt lat="44.11931152130231" lon="12.300233179453464"><ele>31.0</ele><time>2026-04-26T06:27:16.015Z</time></trkpt><trkpt lat="44.119089738610235" lon="12.300346806484642"><ele>32.0</ele><time>2026-04-26T06:27:17.015Z</time></trkpt><trkpt lat="44.1188691666439" lon="12.300461083035122"><ele>33.0</ele><time>2026-04-26T06:27:18.015Z</time></trkpt><trkpt lat="44.118653241252275" lon="12.300578085744199"><ele>33.0</ele><time>2026-04-26T06:27:19.015Z</time></trkpt><trkpt lat="44.11843546881951" lon="12.300694211199119"><ele>33.0</ele><time>2026-04-26T06:27:20.015Z</time></trkpt><trkpt lat="44.118229069748814" lon="12.300821696513394"><ele>33.0</ele><time>2026-04-26T06:27:21.015Z</time></trkpt><trkpt lat="44.11802981618507" lon="12.300952462306483"><ele>33.0</ele><time>2026-04-26T06:27:22.015Z</time></trkpt><trkpt lat="44.11783608570993" lon="12.30109630877429"><ele>33.0</ele><time>2026-04-26T06:27:23.015Z</time></trkpt><trkpt lat="44.117657744230144" lon="12.301247411806587"><ele>33.0</ele><time>2026-04-26T06:27:24.015Z</time></trkpt><trkpt lat="44.117497892393736" lon="12.301403141714827"><ele>33.0</ele><time>2026-04-26T06:27:25.015Z</time></trkpt><trkpt lat="44.11734459981668" lon="12.301576347577514"><ele>33.0</ele><time>2026-04-26T06:27:26.015Z</time></trkpt><trkpt lat="44.11719112527122" lon="12.301770398510701"><ele>33.0</ele><time>2026-04-26T06:27:27.015Z</time></trkpt><trkpt lat="44.11704204298904" lon="12.301992488685284"><ele>33.0</ele><time>2026-04-26T06:27:28.015Z</time></trkpt><trkpt lat="44.11690118868673" lon="12.302229775743657"><ele>33.0</ele><time>2026-04-26T06:27:29.015Z</time></trkpt><trkpt lat="44.11675919172958" lon="12.302488238262622"><ele>33.5</ele><time>2026-04-26T06:27:30.015Z</time></trkpt><trkpt lat="44.11661642962842" lon="12.30276182146664"><ele>34.0</ele><time>2026-04-26T06:27:31.015Z</time></trkpt><trkpt lat="44.1164658460814" lon="12.30303216968372"><ele>34.5</ele><time>2026-04-26T06:27:32.015Z</time></trkpt><trkpt lat="44.11631445106466" lon="12.303303093147404"><ele>35.0</ele><time>2026-04-26T06:27:33.015Z</time></trkpt><trkpt lat="44.11616317979648" lon="12.303573713244106"><ele>35.0</ele><time>2026-04-26T06:27:34.015Z</time></trkpt><trkpt lat="44.11601284600468" lon="12.303829557252653"><ele>35.0</ele><time>2026-04-26T06:27:35.015Z</time></trkpt><trkpt lat="44.11587127079409" lon="12.304065275059745"><ele>35.0</ele><time>2026-04-26T06:27:36.015Z</time></trkpt><trkpt lat="44.11573578007364" lon="12.30428735831297"><ele>35.0</ele><time>2026-04-26T06:27:37.015Z</time></trkpt><trkpt lat="44.1156098702916" lon="12.304500396434781"><ele>35.0</ele><time>2026-04-26T06:27:38.015Z</time></trkpt><trkpt lat="44.11548765310424" lon="12.304703057048602"><ele>35.33333333333333</ele><time>2026-04-26T06:27:39.015Z</time></trkpt><trkpt lat="44.11537399797396" lon="12.30489849472079"><ele>35.666666666666664</ele><time>2026-04-26T06:27:40.015Z</time></trkpt><trkpt lat="44.11527175996633" lon="12.305072092891379"><ele>36.0</ele><time>2026-04-26T06:27:41.015Z</time></trkpt><trkpt lat="44.1151839487858" lon="12.3052223045913"><ele>36.0</ele><time>2026-04-26T06:27:42.015Z</time></trkpt><trkpt lat="44.11510195177147" lon="12.305360851573266"><ele>36.0</ele><time>2026-04-26T06:27:43.016Z</time></trkpt><trkpt lat="44.11501887699231" lon="12.305487404194961"><ele>36.0</ele><time>2026-04-26T06:27:44.016Z</time></trkpt><trkpt lat="44.11492737951508" lon="12.305603277460994"><ele>36.0</ele><time>2026-04-26T06:27:45.016Z</time></trkpt><trkpt lat="44.11482073560176" lon="12.30571438838743"><ele>35.75</ele><time>2026-04-26T06:27:46.016Z</time></trkpt><trkpt lat="44.11470637077803" lon="12.305826605351543"><ele>35.5</ele><time>2026-04-26T06:27:47.016Z</time></trkpt><trkpt lat="44.114607803215605" lon="12.30596266745795"><ele>35.25</ele><time>2026-04-26T06:27:48.016Z</time></trkpt><trkpt lat="44.11453174084488" lon="12.306130962505403"><ele>35.0</ele><time>2026-04-26T06:27:49.016Z</time></trkpt><trkpt lat="44.11447619368578" lon="12.306315118711403"><ele>35.0</ele><time>2026-04-26T06:27:50.016Z</time></trkpt><trkpt lat="44.11445465374955" lon="12.306516626846873"><ele>35.0</ele><time>2026-04-26T06:27:51.016Z</time></trkpt><trkpt lat="44.11444817265745" lon="12.306735487639392"><ele>35.0</ele><time>2026-04-26T06:27:52.016Z</time></trkpt><trkpt lat="44.114421650645" lon="12.306956069566537"><ele>35.0</ele><time>2026-04-26T06:27:53.016Z</time></trkpt><trkpt lat="44.11436069904837" lon="12.307167655807312"><ele>35.0</ele><time>2026-04-26T06:27:54.016Z</time></trkpt><trkpt lat="44.11426838178354" lon="12.307385778796434"><ele>35.0</ele><time>2026-04-26T06:27:55.016Z</time></trkpt><trkpt lat="44.11416936003146" lon="12.307600774655574"><ele>35.666666666666664</ele><time>2026-04-26T06:27:56.016Z</time></trkpt><trkpt lat="44.11406177268465" lon="12.307826824114155"><ele>36.333333333333336</ele><time>2026-04-26T06:27:57.016Z</time></trkpt><trkpt lat="44.113956539609035" lon="12.308056840437997"><ele>37.0</ele><time>2026-04-26T06:27:58.016Z</time></trkpt><trkpt lat="44.11384592935935" lon="12.308281170080326"><ele>37.333333333333336</ele><time>2026-04-26T06:27:59.016Z</time></trkpt><trkpt lat="44.11372854449728" lon="12.308505945448427"><ele>37.666666666666664</ele><time>2026-04-26T06:28:00.016Z</time></trkpt><trkpt lat="44.11361356391553" lon="12.308725094367627"><ele>38.0</ele><time>2026-04-26T06:28:01.016Z</time></trkpt><trkpt lat="44.11348497165659" lon="12.308952064346236"><ele>38.0</ele><time>2026-04-26T06:28:02.016Z</time></trkpt><trkpt lat="44.11335685539557" lon="12.309180833617955"><ele>38.0</ele><time>2026-04-26T06:28:03.016Z</time></trkpt><trkpt lat="44.1132310586354" lon="12.309409995033723"><ele>38.0</ele><time>2026-04-26T06:28:04.016Z</time></trkpt><trkpt lat="44.113107998605706" lon="12.30964371167721"><ele>37.666666666666664</ele><time>2026-04-26T06:28:05.016Z</time></trkpt><trkpt lat="44.11298749612284" lon="12.309888824448873"><ele>37.333333333333336</ele><time>2026-04-26T06:28:06.016Z</time></trkpt><trkpt lat="44.11286711975754" lon="12.31013984755767"><ele>37.0</ele><time>2026-04-26T06:28:07.016Z</time></trkpt><trkpt lat="44.11274578397928" lon="12.310387114930512"><ele>37.333333333333336</ele><time>2026-04-26T06:28:08.016Z</time></trkpt><trkpt lat="44.11262493695715" lon="12.310638829456341"><ele>37.666666666666664</ele><time>2026-04-26T06:28:09.016Z</time></trkpt><trkpt lat="44.11250586577766" lon="12.310891859486645"><ele>38.0</ele><time>2026-04-26T06:28:10.016Z</time></trkpt><trkpt lat="44.11238585230646" lon="12.311140668714204"><ele>37.666666666666664</ele><time>2026-04-26T06:28:11.016Z</time></trkpt><trkpt lat="44.11226641829683" lon="12.311393797496303"><ele>37.333333333333336</ele><time>2026-04-26T06:28:12.016Z</time></trkpt><trkpt lat="44.112143682989505" lon="12.31163980624022"><ele>37.0</ele><time>2026-04-26T06:28:13.016Z</time></trkpt><trkpt lat="44.11202625305361" lon="12.311885153618194"><ele>37.0</ele><time>2026-04-26T06:28:14.016Z</time></trkpt><trkpt lat="44.11191075664368" lon="12.312133625621245"><ele>37.0</ele><time>2026-04-26T06:28:15.016Z</time></trkpt><trkpt lat="44.111798105709354" lon="12.312378779199339"><ele>37.0</ele><time>2026-04-26T06:28:16.016Z</time></trkpt><trkpt lat="44.11169052001117" lon="12.312623760515445"><ele>37.0</ele><time>2026-04-26T06:28:17.016Z</time></trkpt><trkpt lat="44.11159060642169" lon="12.312876079498944"><ele>37.0</ele><time>2026-04-26T06:28:18.016Z</time></trkpt><trkpt lat="44.11149548666566" lon="12.313129636248702"><ele>37.0</ele><time>2026-04-26T06:28:19.016Z</time></trkpt><trkpt lat="44.11140347505043" lon="12.313381624675698"><ele>37.333333333333336</ele><time>2026-04-26T06:28:20.016Z</time></trkpt><trkpt lat="44.11131490891798" lon="12.313633277759198"><ele>37.666666666666664</ele><time>2026-04-26T06:28:21.016Z</time></trkpt><trkpt lat="44.111224991880675" lon="12.313877845288516"><ele>38.0</ele><time>2026-04-26T06:28:22.016Z</time></trkpt><trkpt lat="44.11112708565902" lon="12.314121697378589"><ele>38.0</ele><time>2026-04-26T06:28:23.016Z</time></trkpt><trkpt lat="44.11103003492735" lon="12.314364274349394"><ele>38.0</ele><time>2026-04-26T06:28:24.016Z</time></trkpt><trkpt lat="44.110926935244905" lon="12.314601725111888"><ele>38.0</ele><time>2026-04-26T06:28:25.016Z</time></trkpt><trkpt lat="44.110822420429386" lon="12.314847548010693"><ele>38.0</ele><time>2026-04-26T06:28:26.016Z</time></trkpt><trkpt lat="44.110720512768566" lon="12.315100235562268"><ele>38.0</ele><time>2026-04-26T06:28:27.016Z</time></trkpt><trkpt lat="44.110620480460994" lon="12.315361351161975"><ele>38.0</ele><time>2026-04-26T06:28:28.016Z</time></trkpt><trkpt lat="44.11052770989693" lon="12.315627514650933"><ele>38.0</ele><time>2026-04-26T06:28:29.016Z</time></trkpt><trkpt lat="44.11043843401894" lon="12.315894399965496"><ele>38.0</ele><time>2026-04-26T06:28:30.016Z</time></trkpt><trkpt lat="44.11035190553224" lon="12.31616701601522"><ele>38.0</ele><time>2026-04-26T06:28:31.016Z</time></trkpt><trkpt lat="44.110266572337764" lon="12.316427171808627"><ele>38.0</ele><time>2026-04-26T06:28:32.016Z</time></trkpt><trkpt lat="44.11019314219939" lon="12.316678141261033"><ele>38.0</ele><time>2026-04-26T06:28:33.016Z</time></trkpt><trkpt lat="44.11012634290976" lon="12.31691586035946"><ele>38.0</ele><time>2026-04-26T06:28:34.016Z</time></trkpt><trkpt lat="44.11001906915347" lon="12.317121762518346"><ele>38.0</ele><time>2026-04-26T06:28:35.016Z</time></trkpt><trkpt lat="44.10995693310286" lon="12.317336964163575"><ele>38.0</ele><time>2026-04-26T06:28:36.016Z</time></trkpt><trkpt lat="44.10990546685835" lon="12.317535206293046"><ele>38.0</ele><time>2026-04-26T06:28:37.016Z</time></trkpt><trkpt lat="44.10985524894111" lon="12.317719021254186"><ele>38.0</ele><time>2026-04-26T06:28:38.016Z</time></trkpt><trkpt lat="44.10981134323522" lon="12.317879731335807"><ele>38.0</ele><time>2026-04-26T06:28:39.016Z</time></trkpt><trkpt lat="44.109772715204606" lon="12.318014000455781"><ele>38.0</ele><time>2026-04-26T06:28:40.016Z</time></trkpt><trkpt lat="44.10973906608387" lon="12.318125954495985"><ele>38.0</ele><time>2026-04-26T06:28:41.016Z</time></trkpt><trkpt lat="44.10968734611581" lon="12.318196138927968"><ele>38.0</ele><time>2026-04-26T06:28:42.016Z</time></trkpt><trkpt lat="44.1096217175865" lon="12.318246658973756"><ele>38.0</ele><time>2026-04-26T06:28:43.016Z</time></trkpt><trkpt lat="44.109537709474615" lon="12.318259645659213"><ele>38.0</ele><time>2026-04-26T06:28:44.016Z</time></trkpt><trkpt lat="44.10945152776912" lon="12.318244716192561"><ele>38.0</ele><time>2026-04-26T06:28:45.016Z</time></trkpt><trkpt lat="44.109376974935664" lon="12.318160477452"><ele>38.0</ele><time>2026-04-26T06:28:46.015Z</time></trkpt><trkpt lat="44.109319424894345" lon="12.318037943724928"><ele>38.0</ele><time>2026-04-26T06:28:47.015Z</time></trkpt><trkpt lat="44.10925248980875" lon="12.317905033253819"><ele>38.0</ele><time>2026-04-26T06:28:48.015Z</time></trkpt><trkpt lat="44.10916199175022" lon="12.317781173760965"><ele>38.0</ele><time>2026-04-26T06:28:49.015Z</time></trkpt><trkpt lat="44.10904036651848" lon="12.317683478331743"><ele>38.0</ele><time>2026-04-26T06:28:50.015Z</time></trkpt><trkpt lat="44.108894723579304" lon="12.317613006422254"><ele>38.0</ele><time>2026-04-26T06:28:51.015Z</time></trkpt><trkpt lat="44.10873569992676" lon="12.317571959379483"><ele>38.0</ele><time>2026-04-26T06:28:52.015Z</time></trkpt><trkpt lat="44.10856456302128" lon="12.31753299313982"><ele>38.0</ele><time>2026-04-26T06:28:53.016Z</time></trkpt><trkpt lat="44.10839144479795" lon="12.317462469546731"><ele>38.0</ele><time>2026-04-26T06:28:54.016Z</time></trkpt><trkpt lat="44.108206123555256" lon="12.31743086086639"><ele>38.33333333333333</ele><time>2026-04-26T06:28:55.015Z</time></trkpt><trkpt lat="44.10801803767334" lon="12.317351715747385"><ele>38.666666666666664</ele><time>2026-04-26T06:28:56.015Z</time></trkpt><trkpt lat="44.107822718760744" lon="12.317291912062373"><ele>39.0</ele><time>2026-04-26T06:28:57.015Z</time></trkpt><trkpt lat="44.10761811771677" lon="12.317230145119051"><ele>39.0</ele><time>2026-04-26T06:28:58.015Z</time></trkpt><trkpt lat="44.10741186647784" lon="12.317168384829397"><ele>39.0</ele><time>2026-04-26T06:28:59.015Z</time></trkpt><trkpt lat="44.10720550728012" lon="12.31710590388162"><ele>39.0</ele><time>2026-04-26T06:29:00.015Z</time></trkpt><trkpt lat="44.10699725439588" lon="12.317042762713356"><ele>39.0</ele><time>2026-04-26T06:29:01.015Z</time></trkpt><trkpt lat="44.106785963529674" lon="12.316978702365418"><ele>39.0</ele><time>2026-04-26T06:29:02.015Z</time></trkpt><trkpt lat="44.106580127676125" lon="12.316915829327078"><ele>39.0</ele><time>2026-04-26T06:29:03.015Z</time></trkpt><trkpt lat="44.106377482991164" lon="12.316853563304033"><ele>39.0</ele><time>2026-04-26T06:29:04.015Z</time></trkpt><trkpt lat="44.1061735506894" lon="12.31678671306154"><ele>39.0</ele><time>2026-04-26T06:29:05.015Z</time></trkpt><trkpt lat="44.105969322282384" lon="12.316724485424634"><ele>39.0</ele><time>2026-04-26T06:29:06.015Z</time></trkpt><trkpt lat="44.10576425208965" lon="12.316665609485781"><ele>39.0</ele><time>2026-04-26T06:29:07.015Z</time></trkpt><trkpt lat="44.10555971948018" lon="12.31660688788677"><ele>39.0</ele><time>2026-04-26T06:29:08.015Z</time></trkpt><trkpt lat="44.10535804100957" lon="12.316548985714649"><ele>39.0</ele><time>2026-04-26T06:29:09.015Z</time></trkpt><trkpt lat="44.10515556140583" lon="12.316490853537458"><ele>39.0</ele><time>2026-04-26T06:29:10.015Z</time></trkpt><trkpt lat="44.10495036375267" lon="12.316430967418162"><ele>39.0</ele><time>2026-04-26T06:29:11.015Z</time></trkpt><trkpt lat="44.104748348944554" lon="12.316370713530208"><ele>39.0</ele><time>2026-04-26T06:29:12.015Z</time></trkpt><trkpt lat="44.104541962162294" lon="12.31630763207898"><ele>39.333333333333336</ele><time>2026-04-26T06:29:13.015Z</time></trkpt><trkpt lat="44.10433489624469" lon="12.316243776422692"><ele>39.66666666666667</ele><time>2026-04-26T06:29:14.015Z</time></trkpt><trkpt lat="44.10412820883291" lon="12.316180037490884"><ele>40.0</ele><time>2026-04-26T06:29:15.015Z</time></trkpt><trkpt lat="44.10392080690623" lon="12.316116078213273"><ele>40.333333333333336</ele><time>2026-04-26T06:29:16.015Z</time></trkpt><trkpt lat="44.1037085399606" lon="12.316050618647484"><ele>40.666666666666664</ele><time>2026-04-26T06:29:17.015Z</time></trkpt><trkpt lat="44.10349139487836" lon="12.315991230301957"><ele>41.0</ele><time>2026-04-26T06:29:18.015Z</time></trkpt><trkpt lat="44.10327595048479" lon="12.315930869940827"><ele>40.666666666666664</ele><time>2026-04-26T06:29:19.015Z</time></trkpt><trkpt lat="44.10305918980487" lon="12.315866646859478"><ele>40.333333333333336</ele><time>2026-04-26T06:29:20.015Z</time></trkpt><trkpt lat="44.10283633189838" lon="12.315800617256281"><ele>40.0</ele><time>2026-04-26T06:29:21.015Z</time></trkpt><trkpt lat="44.10261529282796" lon="12.315735914452823"><ele>40.5</ele><time>2026-04-26T06:29:22.015Z</time></trkpt><trkpt lat="44.10239542804136" lon="12.315673853852852"><ele>41.0</ele><time>2026-04-26T06:29:23.015Z</time></trkpt><trkpt lat="44.102171240130446" lon="12.315612234506766"><ele>41.0</ele><time>2026-04-26T06:29:24.015Z</time></trkpt><trkpt lat="44.10194562492254" lon="12.315573456268096"><ele>41.0</ele><time>2026-04-26T06:29:25.015Z</time></trkpt><trkpt lat="44.10172374950913" lon="12.315511751393108"><ele>41.5</ele><time>2026-04-26T06:29:26.015Z</time></trkpt><trkpt lat="44.101501274813444" lon="12.315452340894574"><ele>42.0</ele><time>2026-04-26T06:29:27.015Z</time></trkpt><trkpt lat="44.10127352359916" lon="12.315395198140767"><ele>42.0</ele><time>2026-04-26T06:29:28.015Z</time></trkpt><trkpt lat="44.101052261034994" lon="12.31533633095738"><ele>42.0</ele><time>2026-04-26T06:29:29.015Z</time></trkpt><trkpt lat="44.10082724630112" lon="12.31527702301246"><ele>42.0</ele><time>2026-04-26T06:29:30.015Z</time></trkpt><trkpt lat="44.10060360590578" lon="12.315220312381417"><ele>42.0</ele><time>2026-04-26T06:29:31.015Z</time></trkpt><trkpt lat="44.10038152957705" lon="12.315163002735368"><ele>42.0</ele><time>2026-04-26T06:29:32.015Z</time></trkpt><trkpt lat="44.10015422605015" lon="12.315107397358469"><ele>42.0</ele><time>2026-04-26T06:29:33.015Z</time></trkpt><trkpt lat="44.09993055780269" lon="12.315046695501936"><ele>42.5</ele><time>2026-04-26T06:29:34.015Z</time></trkpt><trkpt lat="44.099703435169616" lon="12.314989474531352"><ele>43.0</ele><time>2026-04-26T06:29:35.015Z</time></trkpt><trkpt lat="44.0994774226969" lon="12.31493252605891"><ele>43.0</ele><time>2026-04-26T06:29:36.015Z</time></trkpt><trkpt lat="44.099250698543194" lon="12.314877316364036"><ele>43.0</ele><time>2026-04-26T06:29:37.015Z</time></trkpt><trkpt lat="44.09903102199667" lon="12.31482080055267"><ele>43.0</ele><time>2026-04-26T06:29:38.015Z</time></trkpt><trkpt lat="44.09881543274529" lon="12.314765614100269"><ele>43.0</ele><time>2026-04-26T06:29:39.015Z</time></trkpt><trkpt lat="44.09860472467839" lon="12.314708833466266"><ele>43.0</ele><time>2026-04-26T06:29:40.016Z</time></trkpt><trkpt lat="44.0983989617738" lon="12.314651117901528"><ele>44.0</ele><time>2026-04-26T06:29:41.016Z</time></trkpt><trkpt lat="44.09819447627182" lon="12.314588268862943"><ele>45.0</ele><time>2026-04-26T06:29:42.016Z</time></trkpt><trkpt lat="44.09799442657733" lon="12.314521575729339"><ele>46.0</ele><time>2026-04-26T06:29:43.016Z</time></trkpt><trkpt lat="44.097807664830896" lon="12.314427592987801"><ele>46.0</ele><time>2026-04-26T06:29:44.016Z</time></trkpt><trkpt lat="44.097619492713946" lon="12.31435388866289"><ele>46.0</ele><time>2026-04-26T06:29:45.016Z</time></trkpt><trkpt lat="44.09743725699256" lon="12.314304670643255"><ele>46.0</ele><time>2026-04-26T06:29:46.016Z</time></trkpt><trkpt lat="44.09726990648451" lon="12.314235287974816"><ele>45.75</ele><time>2026-04-26T06:29:47.016Z</time></trkpt><trkpt lat="44.09711539919815" lon="12.314173209496966"><ele>45.5</ele><time>2026-04-26T06:29:48.016Z</time></trkpt><trkpt lat="44.09697836055882" lon="12.314119514706839"><ele>45.25</ele><time>2026-04-26T06:29:49.016Z</time></trkpt><trkpt lat="44.09685858653471" lon="12.314067808876155"><ele>45.0</ele><time>2026-04-26T06:29:50.016Z</time></trkpt><trkpt lat="44.09675948493649" lon="12.314017501104395"><ele>45.0</ele><time>2026-04-26T06:29:51.016Z</time></trkpt><trkpt lat="44.09667709855216" lon="12.313966115544911"><ele>45.0</ele><time>2026-04-26T06:29:52.016Z</time></trkpt><trkpt lat="44.096611909569944" lon="12.313892977809138"><ele>45.0</ele><time>2026-04-26T06:29:53.016Z</time></trkpt><trkpt lat="44.09655094073455" lon="12.31383869796861"><ele>45.0</ele><time>2026-04-26T06:29:54.016Z</time></trkpt><trkpt lat="44.096484175534954" lon="12.313808534076335"><ele>45.0</ele><time>2026-04-26T06:29:55.016Z</time></trkpt><trkpt lat="44.096421847099066" lon="12.313756995352247"><ele>45.0</ele><time>2026-04-26T06:29:56.016Z</time></trkpt><trkpt lat="44.096341513373666" lon="12.313802930677781"><ele>46.0</ele><time>2026-04-26T06:29:57.016Z</time></trkpt><trkpt lat="44.096266070194424" lon="12.314048363868856"><ele>47.0</ele><time>2026-04-26T06:29:59.016Z</time></trkpt><trkpt lat="44.09621129506447" lon="12.314179202037698"><ele>48.0</ele><time>2026-04-26T06:30:00.016Z</time></trkpt><trkpt lat="44.09612254912908" lon="12.314283975590781"><ele>49.0</ele><time>2026-04-26T06:30:01.016Z</time></trkpt><trkpt lat="44.09601071987606" lon="12.314370259126312"><ele>49.0</ele><time>2026-04-26T06:30:02.016Z</time></trkpt><trkpt lat="44.095897305885224" lon="12.314470488329933"><ele>49.0</ele><time>2026-04-26T06:30:03.016Z</time></trkpt><trkpt lat="44.09581349329079" lon="12.314612297520567"><ele>49.0</ele><time>2026-04-26T06:30:04.016Z</time></trkpt><trkpt lat="44.095763953856654" lon="12.314781479263603"><ele>49.0</ele><time>2026-04-26T06:30:05.016Z</time></trkpt><trkpt lat="44.09572846499937" lon="12.314969676302834"><ele>49.25</ele><time>2026-04-26T06:30:06.016Z</time></trkpt><trkpt lat="44.095686758209446" lon="12.315144790183323"><ele>49.5</ele><time>2026-04-26T06:30:07.016Z</time></trkpt><trkpt lat="44.09560005689733" lon="12.315300344262905"><ele>49.75</ele><time>2026-04-26T06:30:08.016Z</time></trkpt><trkpt lat="44.09548680379785" lon="12.315436632904085"><ele>50.0</ele><time>2026-04-26T06:30:09.016Z</time></trkpt><trkpt lat="44.09535904723469" lon="12.315556959536558"><ele>50.0</ele><time>2026-04-26T06:30:10.016Z</time></trkpt><trkpt lat="44.0952409225508" lon="12.315673276200288"><ele>50.0</ele><time>2026-04-26T06:30:11.016Z</time></trkpt><trkpt lat="44.09512714647925" lon="12.315797695712783"><ele>50.0</ele><time>2026-04-26T06:30:12.016Z</time></trkpt><trkpt lat="44.09502356464157" lon="12.315915580586847"><ele>50.0</ele><time>2026-04-26T06:30:13.016Z</time></trkpt><trkpt lat="44.09491744680324" lon="12.316031742254287"><ele>49.75</ele><time>2026-04-26T06:30:14.016Z</time></trkpt><trkpt lat="44.094811697439106" lon="12.3161409401643"><ele>49.5</ele><time>2026-04-26T06:30:15.016Z</time></trkpt><trkpt lat="44.09469417639195" lon="12.316232170743113"><ele>49.25</ele><time>2026-04-26T06:30:16.016Z</time></trkpt><trkpt lat="44.09454733557745" lon="12.316315916125646"><ele>49.0</ele><time>2026-04-26T06:30:17.016Z</time></trkpt><trkpt lat="44.094395869058935" lon="12.316368569574044"><ele>48.666666666666664</ele><time>2026-04-26T06:30:18.016Z</time></trkpt><trkpt lat="44.094235776490315" lon="12.31640762696886"><ele>48.33333333333333</ele><time>2026-04-26T06:30:19.016Z</time></trkpt><trkpt lat="44.094072299040846" lon="12.316447884046175"><ele>48.0</ele><time>2026-04-26T06:30:20.016Z</time></trkpt><trkpt lat="44.093912139273236" lon="12.316492191340206"><ele>48.0</ele><time>2026-04-26T06:30:21.016Z</time></trkpt><trkpt lat="44.09374898585372" lon="12.316538462391778"><ele>48.0</ele><time>2026-04-26T06:30:22.016Z</time></trkpt><trkpt lat="44.09357537427958" lon="12.316578339240895"><ele>48.0</ele><time>2026-04-26T06:30:23.016Z</time></trkpt><trkpt lat="44.09339744486812" lon="12.316608505600668"><ele>48.33333333333333</ele><time>2026-04-26T06:30:24.016Z</time></trkpt><trkpt lat="44.093220882099956" lon="12.316642917252903"><ele>48.666666666666664</ele><time>2026-04-26T06:30:25.016Z</time></trkpt><trkpt lat="44.093040039282954" lon="12.316676947451853"><ele>49.0</ele><time>2026-04-26T06:30:26.016Z</time></trkpt><trkpt lat="44.092861863775106" lon="12.316717726745255"><ele>49.0</ele><time>2026-04-26T06:30:27.016Z</time></trkpt><trkpt lat="44.09268019200679" lon="12.316755978235173"><ele>49.0</ele><time>2026-04-26T06:30:28.016Z</time></trkpt><trkpt lat="44.092497157941345" lon="12.316792995626091"><ele>49.0</ele><time>2026-04-26T06:30:29.016Z</time></trkpt><trkpt lat="44.09231254646974" lon="12.316836864500601"><ele>48.666666666666664</ele><time>2026-04-26T06:30:30.016Z</time></trkpt><trkpt lat="44.092125030192676" lon="12.31688977597317"><ele>48.33333333333333</ele><time>2026-04-26T06:30:31.016Z</time></trkpt><trkpt lat="44.091928560527506" lon="12.31694277185677"><ele>48.0</ele><time>2026-04-26T06:30:32.016Z</time></trkpt><trkpt lat="44.09173010347276" lon="12.31699858484879"><ele>47.666666666666664</ele><time>2026-04-26T06:30:33.016Z</time></trkpt><trkpt lat="44.09153053437827" lon="12.317053099328014"><ele>47.33333333333333</ele><time>2026-04-26T06:30:34.016Z</time></trkpt><trkpt lat="44.09133127865243" lon="12.317111254040551"><ele>47.0</ele><time>2026-04-26T06:30:35.016Z</time></trkpt><trkpt lat="44.09114212535634" lon="12.317157730199616"><ele>47.0</ele><time>2026-04-26T06:30:36.016Z</time></trkpt><trkpt lat="44.09097088342826" lon="12.317201226023814"><ele>47.0</ele><time>2026-04-26T06:30:37.016Z</time></trkpt><trkpt lat="44.09081369454272" lon="12.31724239361"><ele>47.0</ele><time>2026-04-26T06:30:38.016Z</time></trkpt><trkpt lat="44.090669911762404" lon="12.317278943153159"><ele>47.75</ele><time>2026-04-26T06:30:39.016Z</time></trkpt><trkpt lat="44.090542047002245" lon="12.317316970601503"><ele>48.5</ele><time>2026-04-26T06:30:40.016Z</time></trkpt><trkpt lat="44.090429166522746" lon="12.317344472062722"><ele>49.25</ele><time>2026-04-26T06:30:41.016Z</time></trkpt><trkpt lat="44.09032043899615" lon="12.31739504989157"><ele>50.0</ele><time>2026-04-26T06:30:42.016Z</time></trkpt><trkpt lat="44.09022661093184" lon="12.31749260999409"><ele>50.0</ele><time>2026-04-26T06:30:43.016Z</time></trkpt><trkpt lat="44.090154298321586" lon="12.317635785790939"><ele>50.0</ele><time>2026-04-26T06:30:44.016Z</time></trkpt><trkpt lat="44.090106259686586" lon="12.317821208012157"><ele>50.0</ele><time>2026-04-26T06:30:45.016Z</time></trkpt><trkpt lat="44.09006904149125" lon="12.318033125600689"><ele>50.0</ele><time>2026-04-26T06:30:46.016Z</time></trkpt><trkpt lat="44.090032386635485" lon="12.318258935082277"><ele>50.0</ele><time>2026-04-26T06:30:47.016Z</time></trkpt><trkpt lat="44.0899898653183" lon="12.318497410191167"><ele>50.0</ele><time>2026-04-26T06:30:48.016Z</time></trkpt><trkpt lat="44.08994355261379" lon="12.318731285927944"><ele>50.0</ele><time>2026-04-26T06:30:49.016Z</time></trkpt><trkpt lat="44.089895930154476" lon="12.318971535853384"><ele>49.66666666666667</ele><time>2026-04-26T06:30:50.016Z</time></trkpt><trkpt lat="44.08984044474585" lon="12.319209888571018"><ele>49.33333333333333</ele><time>2026-04-26T06:30:51.016Z</time></trkpt><trkpt lat="44.089785018367444" lon="12.319462265888973"><ele>49.0</ele><time>2026-04-26T06:30:52.016Z</time></trkpt><trkpt lat="44.08972856141758" lon="12.319724008414882"><ele>48.666666666666664</ele><time>2026-04-26T06:30:53.016Z</time></trkpt><trkpt lat="44.08967200186626" lon="12.319980237923795"><ele>48.33333333333333</ele><time>2026-04-26T06:30:54.016Z</time></trkpt><trkpt lat="44.089614098466356" lon="12.320234649729843"><ele>48.0</ele><time>2026-04-26T06:30:55.016Z</time></trkpt><trkpt lat="44.089561713414305" lon="12.320476126425813"><ele>48.0</ele><time>2026-04-26T06:30:56.016Z</time></trkpt><trkpt lat="44.089511917186066" lon="12.32070126973671"><ele>48.0</ele><time>2026-04-26T06:30:57.016Z</time></trkpt><trkpt lat="44.08946247943543" lon="12.320911845939992"><ele>48.0</ele><time>2026-04-26T06:30:58.016Z</time></trkpt><trkpt lat="44.08941207755912" lon="12.321105543812246"><ele>48.0</ele><time>2026-04-26T06:30:59.016Z</time></trkpt><trkpt lat="44.08934653183482" lon="12.321285736609754"><ele>48.0</ele><time>2026-04-26T06:31:00.016Z</time></trkpt><trkpt lat="44.08923250575388" lon="12.321415113355814"><ele>48.0</ele><time>2026-04-26T06:31:01.016Z</time></trkpt><trkpt lat="44.08913773046052" lon="12.321570231852807"><ele>48.0</ele><time>2026-04-26T06:31:02.016Z</time></trkpt><trkpt lat="44.08900269739606" lon="12.321655791391352"><ele>48.66666666666667</ele><time>2026-04-26T06:31:03.016Z</time></trkpt><trkpt lat="44.088869618716906" lon="12.32172779361635"><ele>49.333333333333336</ele><time>2026-04-26T06:31:04.015Z</time></trkpt><trkpt lat="44.088723299673944" lon="12.321824718004436"><ele>50.0</ele><time>2026-04-26T06:31:05.015Z</time></trkpt><trkpt lat="44.088559414943354" lon="12.321857499105672"><ele>50.0</ele><time>2026-04-26T06:31:06.015Z</time></trkpt><trkpt lat="44.0883795826024" lon="12.321878487773757"><ele>50.0</ele><time>2026-04-26T06:31:07.015Z</time></trkpt><trkpt lat="44.08819590939347" lon="12.321905080128767"><ele>50.0</ele><time>2026-04-26T06:31:08.015Z</time></trkpt><trkpt lat="44.088006216160004" lon="12.321871499844548"><ele>51.333333333333336</ele><time>2026-04-26T06:31:09.015Z</time></trkpt><trkpt lat="44.087817289613746" lon="12.321813476821134"><ele>52.66666666666667</ele><time>2026-04-26T06:31:10.015Z</time></trkpt><trkpt lat="44.08762336518461" lon="12.321742125992756"><ele>54.0</ele><time>2026-04-26T06:31:11.015Z</time></trkpt><trkpt lat="44.087441383833216" lon="12.321666609549794"><ele>56.75</ele><time>2026-04-26T06:31:12.015Z</time></trkpt><trkpt lat="44.087282396523314" lon="12.321607000715025"><ele>59.5</ele><time>2026-04-26T06:31:13.015Z</time></trkpt><trkpt lat="44.08716276674666" lon="12.321587525599272"><ele>62.25</ele><time>2026-04-26T06:31:14.015Z</time></trkpt><trkpt lat="44.08706884333033" lon="12.321605253372708"><ele>65.0</ele><time>2026-04-26T06:31:15.015Z</time></trkpt><trkpt lat="44.08702991925862" lon="12.321699583574581"><ele>65.0</ele><time>2026-04-26T06:31:16.015Z</time></trkpt><trkpt lat="44.08700242697185" lon="12.321835846292943"><ele>65.0</ele><time>2026-04-26T06:31:17.015Z</time></trkpt><trkpt lat="44.08699110945256" lon="12.32199997390478"><ele>65.0</ele><time>2026-04-26T06:31:18.015Z</time></trkpt><trkpt lat="44.08701131619442" lon="12.322200679278158"><ele>65.0</ele><time>2026-04-26T06:31:19.015Z</time></trkpt><trkpt lat="44.0869973835012" lon="12.322411871044679"><ele>65.25</ele><time>2026-04-26T06:31:20.015Z</time></trkpt><trkpt lat="44.086969391686004" lon="12.322629580110325"><ele>65.5</ele><time>2026-04-26T06:31:21.015Z</time></trkpt><trkpt lat="44.086924425395544" lon="12.32282066433975"><ele>65.75</ele><time>2026-04-26T06:31:22.015Z</time></trkpt><trkpt lat="44.086864122794" lon="12.322973694039717"><ele>66.0</ele><time>2026-04-26T06:31:23.016Z</time></trkpt><trkpt lat="44.08680213088549" lon="12.323086560941963"><ele>66.0</ele><time>2026-04-26T06:31:24.016Z</time></trkpt><trkpt lat="44.0866884818949" lon="12.323142617696215"><ele>66.0</ele><time>2026-04-26T06:31:26.016Z</time></trkpt><trkpt lat="44.086633066113684" lon="12.32306273710702"><ele>66.0</ele><time>2026-04-26T06:31:27.016Z</time></trkpt><trkpt lat="44.08665367538341" lon="12.322923718452117"><ele>66.0</ele><time>2026-04-26T06:31:28.016Z</time></trkpt><trkpt lat="44.08662269115749" lon="12.322772701551138"><ele>66.0</ele><time>2026-04-26T06:31:29.016Z</time></trkpt><trkpt lat="44.086601572597914" lon="12.322602465083143"><ele>69.66666666666667</ele><time>2026-04-26T06:31:30.016Z</time></trkpt><trkpt lat="44.086545244906205" lon="12.322425174506051"><ele>73.33333333333334</ele><time>2026-04-26T06:31:31.016Z</time></trkpt><trkpt lat="44.0864692896253" lon="12.322236826398768"><ele>77.0</ele><time>2026-04-26T06:31:32.016Z</time></trkpt><trkpt lat="44.086391307896506" lon="12.32205001029374"><ele>77.0</ele><time>2026-04-26T06:31:33.016Z</time></trkpt><trkpt lat="44.086344237199256" lon="12.321880240148984"><ele>77.0</ele><time>2026-04-26T06:31:34.016Z</time></trkpt><trkpt lat="44.08628527282922" lon="12.321765434291068"><ele>77.0</ele><time>2026-04-26T06:31:35.016Z</time></trkpt><trkpt lat="44.086223810562934" lon="12.321697693064568"><ele>77.0</ele><time>2026-04-26T06:31:36.016Z</time></trkpt><trkpt lat="44.08613987547959" lon="12.321665925099543"><ele>77.0</ele><time>2026-04-26T06:31:37.016Z</time></trkpt><trkpt lat="44.086059270577294" lon="12.321698219219755"><ele>77.0</ele><time>2026-04-26T06:31:38.016Z</time></trkpt><trkpt lat="44.08602167572208" lon="12.321839677432285"><ele>77.0</ele><time>2026-04-26T06:31:39.016Z</time></trkpt><trkpt lat="44.08604030950224" lon="12.321986876928566"><ele>77.0</ele><time>2026-04-26T06:31:40.016Z</time></trkpt><trkpt lat="44.086047559784845" lon="12.322152118946736"><ele>77.0</ele><time>2026-04-26T06:31:41.016Z</time></trkpt><trkpt lat="44.086044438464924" lon="12.322315559083934"><ele>77.0</ele><time>2026-04-26T06:31:42.016Z</time></trkpt><trkpt lat="44.08605650875385" lon="12.322495910351325"><ele>77.0</ele><time>2026-04-26T06:31:43.016Z</time></trkpt><trkpt lat="44.08601850993328" lon="12.322627143565693"><ele>77.0</ele><time>2026-04-26T06:31:44.016Z</time></trkpt><trkpt lat="44.08594789022297" lon="12.322713993184877"><ele>77.0</ele><time>2026-04-26T06:31:45.016Z</time></trkpt><trkpt lat="44.0858596327868" lon="12.322742969736677"><ele>77.0</ele><time>2026-04-26T06:31:46.016Z</time></trkpt><trkpt lat="44.08577264226538" lon="12.322687030878646"><ele>80.0</ele><time>2026-04-26T06:31:47.016Z</time></trkpt><trkpt lat="44.08571959412179" lon="12.322560135497978"><ele>83.0</ele><time>2026-04-26T06:31:48.016Z</time></trkpt><trkpt lat="44.0857077135991" lon="12.322393457305292"><ele>86.0</ele><time>2026-04-26T06:31:49.016Z</time></trkpt><trkpt lat="44.08572297782808" lon="12.322208850348332"><ele>89.0</ele><time>2026-04-26T06:31:50.016Z</time></trkpt><trkpt lat="44.08572607895215" lon="12.322030484662514"><ele>89.0</ele><time>2026-04-26T06:31:51.016Z</time></trkpt><trkpt lat="44.08567312694141" lon="12.321865889215683"><ele>89.0</ele><time>2026-04-26T06:31:52.016Z</time></trkpt><trkpt lat="44.08558306105521" lon="12.321715994510921"><ele>89.0</ele><time>2026-04-26T06:31:53.016Z</time></trkpt><trkpt lat="44.085453031062855" lon="12.321601749790261"><ele>89.0</ele><time>2026-04-26T06:31:54.016Z</time></trkpt><trkpt lat="44.08532880642145" lon="12.321507595214124"><ele>89.0</ele><time>2026-04-26T06:31:55.016Z</time></trkpt><trkpt lat="44.085203439797624" lon="12.321445515996892"><ele>89.0</ele><time>2026-04-26T06:31:56.016Z</time></trkpt><trkpt lat="44.08510151195655" lon="12.321406477871998"><ele>89.0</ele><time>2026-04-26T06:31:57.016Z</time></trkpt><trkpt lat="44.085007553154604" lon="12.321418767737606"><ele>89.0</ele><time>2026-04-26T06:31:58.016Z</time></trkpt><trkpt lat="44.08492579504679" lon="12.321490846476571"><ele>89.0</ele><time>2026-04-26T06:31:59.016Z</time></trkpt><trkpt lat="44.084883605139936" lon="12.321611128410007"><ele>91.75</ele><time>2026-04-26T06:32:00.016Z</time></trkpt><trkpt lat="44.084870393245346" lon="12.321761460253482"><ele>94.5</ele><time>2026-04-26T06:32:01.016Z</time></trkpt><trkpt lat="44.08485029242314" lon="12.321927260336704"><ele>97.25</ele><time>2026-04-26T06:32:02.016Z</time></trkpt><trkpt lat="44.08481265324257" lon="12.322088165005622"><ele>100.0</ele><time>2026-04-26T06:32:03.016Z</time></trkpt><trkpt lat="44.08474617913582" lon="12.322258023229855"><ele>101.33333333333334</ele><time>2026-04-26T06:32:04.016Z</time></trkpt><trkpt lat="44.08465944109454" lon="12.322431517420185"><ele>102.66666666666666</ele><time>2026-04-26T06:32:05.016Z</time></trkpt><trkpt lat="44.08456554891423" lon="12.32263070381892"><ele>104.0</ele><time>2026-04-26T06:32:06.016Z</time></trkpt><trkpt lat="44.08446348599584" lon="12.322830786938011"><ele>104.0</ele><time>2026-04-26T06:32:07.016Z</time></trkpt><trkpt lat="44.08436665078102" lon="12.323031093092641"><ele>104.0</ele><time>2026-04-26T06:32:08.016Z</time></trkpt><trkpt lat="44.084283667441376" lon="12.323209065601846"><ele>104.0</ele><time>2026-04-26T06:32:09.016Z</time></trkpt><trkpt lat="44.08418031918488" lon="12.323345209792882"><ele>104.66666666666666</ele><time>2026-04-26T06:32:10.016Z</time></trkpt><trkpt lat="44.084074320967254" lon="12.323479716629642"><ele>105.33333333333334</ele><time>2026-04-26T06:32:11.016Z</time></trkpt><trkpt lat="44.08394645936687" lon="12.323608477131163"><ele>106.0</ele><time>2026-04-26T06:32:12.016Z</time></trkpt><trkpt lat="44.08380119501652" lon="12.323713178492225"><ele>106.0</ele><time>2026-04-26T06:32:13.016Z</time></trkpt><trkpt lat="44.08365938093603" lon="12.323798908704038"><ele>106.0</ele><time>2026-04-26T06:32:14.016Z</time></trkpt><trkpt lat="44.083511740354716" lon="12.323884411403546"><ele>106.0</ele><time>2026-04-26T06:32:15.016Z</time></trkpt><trkpt lat="44.083351264846435" lon="12.32396744224843"><ele>106.66666666666667</ele><time>2026-04-26T06:32:16.016Z</time></trkpt><trkpt lat="44.083180007810526" lon="12.324041742570468"><ele>107.33333333333334</ele><time>2026-04-26T06:32:17.016Z</time></trkpt><trkpt lat="44.083002039087994" lon="12.3241303889498"><ele>108.0</ele><time>2026-04-26T06:32:18.016Z</time></trkpt><trkpt lat="44.08282765940305" lon="12.324186144972202"><ele>108.0</ele><time>2026-04-26T06:32:19.016Z</time></trkpt><trkpt lat="44.082659750897605" lon="12.324245277879273"><ele>108.0</ele><time>2026-04-26T06:32:20.016Z</time></trkpt><trkpt lat="44.08249078716088" lon="12.324316500805214"><ele>108.0</ele><time>2026-04-26T06:32:21.016Z</time></trkpt><trkpt lat="44.08234114111056" lon="12.324367649099987"><ele>110.33333333333334</ele><time>2026-04-26T06:32:22.016Z</time></trkpt><trkpt lat="44.08220125455927" lon="12.324417366678508"><ele>112.66666666666667</ele><time>2026-04-26T06:32:23.016Z</time></trkpt><trkpt lat="44.08204773342642" lon="12.324438173941648"><ele>115.0</ele><time>2026-04-26T06:32:24.016Z</time></trkpt><trkpt lat="44.08189032528539" lon="12.324454335529115"><ele>115.0</ele><time>2026-04-26T06:32:25.016Z</time></trkpt><trkpt lat="44.0817174851329" lon="12.324452499064758"><ele>115.0</ele><time>2026-04-26T06:32:26.016Z</time></trkpt><trkpt lat="44.08155534458862" lon="12.324454439504642"><ele>115.0</ele><time>2026-04-26T06:32:27.016Z</time></trkpt><trkpt lat="44.08140310882411" lon="12.324472096077681"><ele>115.25</ele><time>2026-04-26T06:32:28.016Z</time></trkpt><trkpt lat="44.081266730120824" lon="12.3245059203288"><ele>115.5</ele><time>2026-04-26T06:32:29.016Z</time></trkpt><trkpt lat="44.08114097847717" lon="12.324593072294316"><ele>115.75</ele><time>2026-04-26T06:32:30.016Z</time></trkpt><trkpt lat="44.08102490830437" lon="12.324723872693768"><ele>116.0</ele><time>2026-04-26T06:32:31.016Z</time></trkpt><trkpt lat="44.080927082081544" lon="12.324891944644687"><ele>116.0</ele><time>2026-04-26T06:32:32.016Z</time></trkpt><trkpt lat="44.08082950360055" lon="12.325088404206642"><ele>116.0</ele><time>2026-04-26T06:32:33.016Z</time></trkpt><trkpt lat="44.0807366952361" lon="12.325294162890138"><ele>116.0</ele><time>2026-04-26T06:32:34.016Z</time></trkpt><trkpt lat="44.08065173524982" lon="12.325496426983092"><ele>119.66666666666666</ele><time>2026-04-26T06:32:35.016Z</time></trkpt><trkpt lat="44.08057233931755" lon="12.325691380883042"><ele>123.33333333333334</ele><time>2026-04-26T06:32:36.016Z</time></trkpt><trkpt lat="44.080512104866095" lon="12.325882961479152"><ele>127.0</ele><time>2026-04-26T06:32:37.016Z</time></trkpt><trkpt lat="44.08044228152446" lon="12.326082433180167"><ele>127.0</ele><time>2026-04-26T06:32:38.016Z</time></trkpt><trkpt lat="44.080381167287236" lon="12.326270035321997"><ele>127.0</ele><time>2026-04-26T06:32:39.016Z</time></trkpt><trkpt lat="44.08031983515858" lon="12.3264568715593"><ele>127.0</ele><time>2026-04-26T06:32:40.016Z</time></trkpt><trkpt lat="44.08027456096053" lon="12.326640818029624"><ele>127.0</ele><time>2026-04-26T06:32:41.016Z</time></trkpt><trkpt lat="44.08021222297953" lon="12.326805522989936"><ele>126.0</ele><time>2026-04-26T06:32:42.016Z</time></trkpt><trkpt lat="44.08014029990781" lon="12.326973053500174"><ele>125.0</ele><time>2026-04-26T06:32:43.016Z</time></trkpt><trkpt lat="44.08005259055346" lon="12.327142021222505"><ele>124.0</ele><time>2026-04-26T06:32:44.016Z</time></trkpt><trkpt lat="44.07994760702589" lon="12.327293542272834"><ele>123.0</ele><time>2026-04-26T06:32:45.016Z</time></trkpt><trkpt lat="44.07983782458177" lon="12.327447551158622"><ele>123.0</ele><time>2026-04-26T06:32:46.016Z</time></trkpt><trkpt lat="44.07972338554652" lon="12.327593256773243"><ele>123.0</ele><time>2026-04-26T06:32:47.016Z</time></trkpt><trkpt lat="44.079610564355384" lon="12.327737189222988"><ele>123.0</ele><time>2026-04-26T06:32:48.016Z</time></trkpt><trkpt lat="44.079496478278394" lon="12.327880406447601"><ele>123.0</ele><time>2026-04-26T06:32:49.016Z</time></trkpt><trkpt lat="44.0793772139064" lon="12.328010667446978"><ele>123.0</ele><time>2026-04-26T06:32:50.016Z</time></trkpt><trkpt lat="44.07926074541244" lon="12.328136389928755"><ele>123.0</ele><time>2026-04-26T06:32:51.016Z</time></trkpt><trkpt lat="44.07914175944737" lon="12.328268562556675"><ele>123.0</ele><time>2026-04-26T06:32:52.016Z</time></trkpt><trkpt lat="44.079028738570734" lon="12.328399355742873"><ele>123.0</ele><time>2026-04-26T06:32:53.016Z</time></trkpt><trkpt lat="44.07891698304347" lon="12.328519161243724"><ele>123.0</ele><time>2026-04-26T06:32:54.016Z</time></trkpt><trkpt lat="44.07879348066451" lon="12.328661606017205"><ele>123.0</ele><time>2026-04-26T06:32:55.016Z</time></trkpt><trkpt lat="44.07867093019498" lon="12.328780197228365"><ele>125.75</ele><time>2026-04-26T06:32:56.016Z</time></trkpt><trkpt lat="44.07854951787626" lon="12.328914126484685"><ele>128.5</ele><time>2026-04-26T06:32:57.016Z</time></trkpt><trkpt lat="44.078433166843205" lon="12.329042680432194"><ele>131.25</ele><time>2026-04-26T06:32:58.016Z</time></trkpt><trkpt lat="44.07832690449454" lon="12.329160289403601"><ele>134.0</ele><time>2026-04-26T06:32:59.016Z</time></trkpt><trkpt lat="44.07821611472798" lon="12.32926219546692"><ele>136.75</ele><time>2026-04-26T06:33:00.016Z</time></trkpt><trkpt lat="44.078083214054814" lon="12.329324450910555"><ele>139.5</ele><time>2026-04-26T06:33:01.016Z</time></trkpt><trkpt lat="44.07795093545332" lon="12.329335636206439"><ele>142.25</ele><time>2026-04-26T06:33:02.016Z</time></trkpt><trkpt lat="44.07781206607901" lon="12.329298640144069"><ele>145.0</ele><time>2026-04-26T06:33:03.016Z</time></trkpt><trkpt lat="44.077687580411855" lon="12.329171740742389"><ele>145.0</ele><time>2026-04-26T06:33:04.016Z</time></trkpt><trkpt lat="44.07756140365348" lon="12.329022416026579"><ele>145.0</ele><time>2026-04-26T06:33:05.016Z</time></trkpt><trkpt lat="44.07744864696986" lon="12.328854156722345"><ele>145.0</ele><time>2026-04-26T06:33:06.016Z</time></trkpt><trkpt lat="44.07733554561587" lon="12.328695588163797"><ele>145.5</ele><time>2026-04-26T06:33:07.016Z</time></trkpt><trkpt lat="44.0772362350026" lon="12.328542301961706"><ele>146.0</ele><time>2026-04-26T06:33:08.016Z</time></trkpt><trkpt lat="44.07712610011329" lon="12.328420328779728"><ele>146.5</ele><time>2026-04-26T06:33:09.016Z</time></trkpt><trkpt lat="44.07699713882947" lon="12.328324862611082"><ele>147.0</ele><time>2026-04-26T06:33:10.016Z</time></trkpt><trkpt lat="44.07685355959286" lon="12.328244048766296"><ele>147.0</ele><time>2026-04-26T06:33:11.016Z</time></trkpt><trkpt lat="44.07668262793441" lon="12.328228073893303"><ele>147.0</ele><time>2026-04-26T06:33:12.016Z</time></trkpt><trkpt lat="44.07651858172437" lon="12.328235019361712"><ele>147.0</ele><time>2026-04-26T06:33:13.016Z</time></trkpt><trkpt lat="44.07634893440543" lon="12.328222480509913"><ele>147.0</ele><time>2026-04-26T06:33:14.016Z</time></trkpt><trkpt lat="44.07619392622398" lon="12.328188544998708"><ele>147.0</ele><time>2026-04-26T06:33:15.016Z</time></trkpt><trkpt lat="44.076039041739406" lon="12.328120503956658"><ele>147.0</ele><time>2026-04-26T06:33:16.016Z</time></trkpt><trkpt lat="44.0759072756845" lon="12.32801798078362"><ele>147.0</ele><time>2026-04-26T06:33:17.017Z</time></trkpt><trkpt lat="44.075846075505446" lon="12.327804188275763"><ele>147.0</ele><time>2026-04-26T06:33:18.017Z</time></trkpt><trkpt lat="44.07573655990641" lon="12.327658471880312"><ele>147.0</ele><time>2026-04-26T06:33:19.017Z</time></trkpt><trkpt lat="44.075631126745336" lon="12.327498967766356"><ele>148.33333333333334</ele><time>2026-04-26T06:33:20.017Z</time></trkpt><trkpt lat="44.07552728661272" lon="12.327324904977154"><ele>149.66666666666669</ele><time>2026-04-26T06:33:21.017Z</time></trkpt><trkpt lat="44.07542021494247" lon="12.327136240397133"><ele>151.0</ele><time>2026-04-26T06:33:22.017Z</time></trkpt><trkpt lat="44.07531953844474" lon="12.326955361601"><ele>151.0</ele><time>2026-04-26T06:33:23.017Z</time></trkpt><trkpt lat="44.07522506928413" lon="12.3267800130064"><ele>151.0</ele><time>2026-04-26T06:33:24.017Z</time></trkpt><trkpt lat="44.07513475402635" lon="12.326611111696968"><ele>151.0</ele><time>2026-04-26T06:33:25.017Z</time></trkpt><trkpt lat="44.07503906893369" lon="12.326451955126748"><ele>150.5</ele><time>2026-04-26T06:33:26.017Z</time></trkpt><trkpt lat="44.074928707449054" lon="12.32633841838919"><ele>150.0</ele><time>2026-04-26T06:33:27.017Z</time></trkpt><trkpt lat="44.07482046734044" lon="12.326304858542354"><ele>149.5</ele><time>2026-04-26T06:33:28.017Z</time></trkpt><trkpt lat="44.07470133187228" lon="12.326261861293926"><ele>149.0</ele><time>2026-04-26T06:33:29.017Z</time></trkpt><trkpt lat="44.074581100421604" lon="12.32630831287787"><ele>149.0</ele><time>2026-04-26T06:33:30.017Z</time></trkpt><trkpt lat="44.074484149008505" lon="12.326282246619483"><ele>149.0</ele><time>2026-04-26T06:33:31.017Z</time></trkpt><trkpt lat="44.07438956359532" lon="12.326321066391937"><ele>149.0</ele><time>2026-04-26T06:33:32.017Z</time></trkpt><trkpt lat="44.07430861352121" lon="12.326375500324822"><ele>149.0</ele><time>2026-04-26T06:33:33.017Z</time></trkpt><trkpt lat="44.07425702765734" lon="12.326451466318446"><ele>149.0</ele><time>2026-04-26T06:33:34.017Z</time></trkpt><trkpt lat="44.07421015870851" lon="12.32653387241597"><ele>149.0</ele><time>2026-04-26T06:33:36.017Z</time></trkpt><trkpt lat="44.074163020104066" lon="12.326599330730625"><ele>150.0</ele><time>2026-04-26T06:33:39.017Z</time></trkpt><trkpt lat="44.07425346669407" lon="12.326761150614859"><ele>151.0</ele><time>2026-04-26T06:33:40.017Z</time></trkpt><trkpt lat="44.07431976334585" lon="12.32685283251575"><ele>152.0</ele><time>2026-04-26T06:33:41.017Z</time></trkpt><trkpt lat="44.07440054446326" lon="12.326924123619701"><ele>153.0</ele><time>2026-04-26T06:33:42.017Z</time></trkpt><trkpt lat="44.074470862907795" lon="12.326999347175004"><ele>154.0</ele><time>2026-04-26T06:33:43.017Z</time></trkpt><trkpt lat="44.07455517254807" lon="12.327095762612746"><ele>154.0</ele><time>2026-04-26T06:33:44.017Z</time></trkpt><trkpt lat="44.0746524853604" lon="12.327194804002083"><ele>154.0</ele><time>2026-04-26T06:33:45.017Z</time></trkpt><trkpt lat="44.074747152867" lon="12.327302772439968"><ele>154.0</ele><time>2026-04-26T06:33:46.017Z</time></trkpt><trkpt lat="44.07484286230929" lon="12.327394857069708"><ele>154.0</ele><time>2026-04-26T06:33:47.017Z</time></trkpt><trkpt lat="44.07493032305341" lon="12.327502453573523"><ele>155.2</ele><time>2026-04-26T06:33:48.017Z</time></trkpt><trkpt lat="44.075003613544204" lon="12.327598916274946"><ele>156.4</ele><time>2026-04-26T06:33:49.017Z</time></trkpt><trkpt lat="44.07506363736537" lon="12.327696434247283"><ele>157.6</ele><time>2026-04-26T06:33:50.017Z</time></trkpt><trkpt lat="44.07511096422822" lon="12.327812959357484"><ele>158.8</ele><time>2026-04-26T06:33:51.017Z</time></trkpt><trkpt lat="44.075147554257" lon="12.327935917930661"><ele>160.0</ele><time>2026-04-26T06:33:52.017Z</time></trkpt><trkpt lat="44.07515220903287" lon="12.328103522272565"><ele>161.0</ele><time>2026-04-26T06:33:53.017Z</time></trkpt><trkpt lat="44.07511895198858" lon="12.328277512006299"><ele>162.0</ele><time>2026-04-26T06:33:54.017Z</time></trkpt><trkpt lat="44.07511248036013" lon="12.328468813425825"><ele>163.0</ele><time>2026-04-26T06:33:55.017Z</time></trkpt><trkpt lat="44.075105134395116" lon="12.32865689377167"><ele>164.0</ele><time>2026-04-26T06:33:56.017Z</time></trkpt><trkpt lat="44.07509730349117" lon="12.328851293350716"><ele>164.5</ele><time>2026-04-26T06:33:57.017Z</time></trkpt><trkpt lat="44.07508975074112" lon="12.329036443367674"><ele>165.0</ele><time>2026-04-26T06:33:58.017Z</time></trkpt><trkpt lat="44.07508269484792" lon="12.329208903235685"><ele>165.5</ele><time>2026-04-26T06:33:59.017Z</time></trkpt><trkpt lat="44.07507614242287" lon="12.329369057508163"><ele>166.0</ele><time>2026-04-26T06:34:00.017Z</time></trkpt><trkpt lat="44.07508318483766" lon="12.32953072350626"><ele>166.0</ele><time>2026-04-26T06:34:01.017Z</time></trkpt><trkpt lat="44.075049951673805" lon="12.329686424372417"><ele>166.0</ele><time>2026-04-26T06:34:02.017Z</time></trkpt><trkpt lat="44.07504643992781" lon="12.329871039978961"><ele>166.0</ele><time>2026-04-26T06:34:03.017Z</time></trkpt><trkpt lat="44.07504301246047" lon="12.330044238650489"><ele>166.0</ele><time>2026-04-26T06:34:04.017Z</time></trkpt><trkpt lat="44.07503592224947" lon="12.330216646038641"><ele>166.0</ele><time>2026-04-26T06:34:05.017Z</time></trkpt><trkpt lat="44.07503034813504" lon="12.330402283413884"><ele>166.0</ele><time>2026-04-26T06:34:06.017Z</time></trkpt><trkpt lat="44.075031097149484" lon="12.33059997354084"><ele>166.0</ele><time>2026-04-26T06:34:07.017Z</time></trkpt><trkpt lat="44.07501632018177" lon="12.330802637691818"><ele>166.0</ele><time>2026-04-26T06:34:08.017Z</time></trkpt><trkpt lat="44.07501508351769" lon="12.330996990926906"><ele>167.0</ele><time>2026-04-26T06:34:09.017Z</time></trkpt><trkpt lat="44.07501104501597" lon="12.331191970143182"><ele>168.0</ele><time>2026-04-26T06:34:10.017Z</time></trkpt><trkpt lat="44.07500239508442" lon="12.331377745359406"><ele>169.0</ele><time>2026-04-26T06:34:11.017Z</time></trkpt><trkpt lat="44.07499914920762" lon="12.331559995596828"><ele>170.0</ele><time>2026-04-26T06:34:12.017Z</time></trkpt><trkpt lat="44.07498178248573" lon="12.331732737816168"><ele>171.25</ele><time>2026-04-26T06:34:13.017Z</time></trkpt><trkpt lat="44.07497487531359" lon="12.331907626671898"><ele>172.5</ele><time>2026-04-26T06:34:14.017Z</time></trkpt><trkpt lat="44.074967743839665" lon="12.332088194818052"><ele>173.75</ele><time>2026-04-26T06:34:15.017Z</time></trkpt><trkpt lat="44.07496079088974" lon="12.332264242799509"><ele>175.0</ele><time>2026-04-26T06:34:16.017Z</time></trkpt><trkpt lat="44.07495407404127" lon="12.332434343727476"><ele>175.0</ele><time>2026-04-26T06:34:17.017Z</time></trkpt><trkpt lat="44.07494716217407" lon="12.33261147152466"><ele>175.0</ele><time>2026-04-26T06:34:18.017Z</time></trkpt><trkpt lat="44.07493977051397" lon="12.332800894824432"><ele>175.0</ele><time>2026-04-26T06:34:19.017Z</time></trkpt><trkpt lat="44.07493194223106" lon="12.333001507313023"><ele>175.0</ele><time>2026-04-26T06:34:20.017Z</time></trkpt><trkpt lat="44.07492414848502" lon="12.333201234600113"><ele>172.0</ele><time>2026-04-26T06:34:21.017Z</time></trkpt><trkpt lat="44.07491609942236" lon="12.333407504785779"><ele>169.0</ele><time>2026-04-26T06:34:22.017Z</time></trkpt><trkpt lat="44.07490807686169" lon="12.33361309585133"><ele>166.0</ele><time>2026-04-26T06:34:23.017Z</time></trkpt><trkpt lat="44.07490050855972" lon="12.333807045771692"><ele>163.0</ele><time>2026-04-26T06:34:24.017Z</time></trkpt><trkpt lat="44.07489388862638" lon="12.333976692286381"><ele>163.0</ele><time>2026-04-26T06:34:25.017Z</time></trkpt><trkpt lat="44.074889001706104" lon="12.33413436651012"><ele>163.0</ele><time>2026-04-26T06:34:26.017Z</time></trkpt><trkpt lat="44.074885293945606" lon="12.334263102321456"><ele>163.0</ele><time>2026-04-26T06:34:27.017Z</time></trkpt><trkpt lat="44.07488013239676" lon="12.334383433028615"><ele>163.0</ele><time>2026-04-26T06:34:28.017Z</time></trkpt><trkpt lat="44.07487936505292" lon="12.334491922185038"><ele>163.0</ele><time>2026-04-26T06:34:29.017Z</time></trkpt><trkpt lat="44.074823573421334" lon="12.334589183522068"><ele>163.0</ele><time>2026-04-26T06:34:30.017Z</time></trkpt><trkpt lat="44.07474479970002" lon="12.334699186910422"><ele>163.0</ele><time>2026-04-26T06:34:31.017Z</time></trkpt><trkpt lat="44.07465094326352" lon="12.334772165146633"><ele>163.0</ele><time>2026-04-26T06:34:32.017Z</time></trkpt><trkpt lat="44.07453908294025" lon="12.334827012636394"><ele>163.0</ele><time>2026-04-26T06:34:33.017Z</time></trkpt><trkpt lat="44.07440810600799" lon="12.334854431309488"><ele>164.5</ele><time>2026-04-26T06:34:34.017Z</time></trkpt><trkpt lat="44.07426737779533" lon="12.334883591212765"><ele>166.0</ele><time>2026-04-26T06:34:35.017Z</time></trkpt><trkpt lat="44.07412806651599" lon="12.334905751864186"><ele>167.5</ele><time>2026-04-26T06:34:36.017Z</time></trkpt><trkpt lat="44.07397904722413" lon="12.334937079594553"><ele>169.0</ele><time>2026-04-26T06:34:37.017Z</time></trkpt><trkpt lat="44.07381782757576" lon="12.334961653277057"><ele>169.0</ele><time>2026-04-26T06:34:38.017Z</time></trkpt><trkpt lat="44.07364667304531" lon="12.334980232261263"><ele>169.0</ele><time>2026-04-26T06:34:39.017Z</time></trkpt><trkpt lat="44.07347422432323" lon="12.335007118390223"><ele>169.0</ele><time>2026-04-26T06:34:40.017Z</time></trkpt><trkpt lat="44.0732959406857" lon="12.33504350747186"><ele>167.66666666666669</ele><time>2026-04-26T06:34:41.017Z</time></trkpt><trkpt lat="44.07310984674364" lon="12.335083273248875"><ele>166.33333333333334</ele><time>2026-04-26T06:34:42.017Z</time></trkpt><trkpt lat="44.07292075445759" lon="12.335092109206538"><ele>165.0</ele><time>2026-04-26T06:34:43.017Z</time></trkpt><trkpt lat="44.07274996362076" lon="12.335121104088396"><ele>165.0</ele><time>2026-04-26T06:34:44.017Z</time></trkpt><trkpt lat="44.07259786198167" lon="12.335149620081648"><ele>165.0</ele><time>2026-04-26T06:34:45.017Z</time></trkpt><trkpt lat="44.07245270879307" lon="12.335173803903382"><ele>165.0</ele><time>2026-04-26T06:34:46.017Z</time></trkpt><trkpt lat="44.072312857976875" lon="12.335199082822431"><ele>165.0</ele><time>2026-04-26T06:34:47.017Z</time></trkpt><trkpt lat="44.0721630799247" lon="12.335211559549622"><ele>165.0</ele><time>2026-04-26T06:34:48.017Z</time></trkpt><trkpt lat="44.07200794770257" lon="12.335233992054047"><ele>165.0</ele><time>2026-04-26T06:34:49.017Z</time></trkpt><trkpt lat="44.071858183476195" lon="12.335265862421357"><ele>165.0</ele><time>2026-04-26T06:34:50.017Z</time></trkpt><trkpt lat="44.07170690885546" lon="12.33528600903999"><ele>165.33333333333334</ele><time>2026-04-26T06:34:51.017Z</time></trkpt><trkpt lat="44.071552677558216" lon="12.335301165403743"><ele>165.66666666666669</ele><time>2026-04-26T06:34:52.017Z</time></trkpt><trkpt lat="44.071396747349546" lon="12.33532774562797"><ele>166.0</ele><time>2026-04-26T06:34:53.017Z</time></trkpt><trkpt lat="44.071249240085926" lon="12.335353119991149"><ele>166.0</ele><time>2026-04-26T06:34:54.017Z</time></trkpt><trkpt lat="44.07111244266922" lon="12.335375293383107"><ele>166.0</ele><time>2026-04-26T06:34:55.017Z</time></trkpt><trkpt lat="44.070986119416915" lon="12.335387657743603"><ele>166.0</ele><time>2026-04-26T06:34:56.017Z</time></trkpt><trkpt lat="44.07085220848443" lon="12.335411519176064"><ele>166.0</ele><time>2026-04-26T06:34:57.017Z</time></trkpt><trkpt lat="44.07071448941895" lon="12.335437493615466"><ele>165.25</ele><time>2026-04-26T06:34:58.017Z</time></trkpt><trkpt lat="44.07057557980672" lon="12.335458786498997"><ele>164.5</ele><time>2026-04-26T06:34:59.017Z</time></trkpt><trkpt lat="44.07044804061088" lon="12.335489634523656"><ele>163.75</ele><time>2026-04-26T06:35:00.017Z</time></trkpt><trkpt lat="44.07032205703341" lon="12.33550020769889"><ele>163.0</ele><time>2026-04-26T06:35:01.017Z</time></trkpt><trkpt lat="44.0701956493593" lon="12.335514854831422"><ele>163.0</ele><time>2026-04-26T06:35:02.017Z</time></trkpt><trkpt lat="44.07005963535097" lon="12.335508248843608"><ele>163.0</ele><time>2026-04-26T06:35:03.017Z</time></trkpt><trkpt lat="44.06992087511312" lon="12.335480774270755"><ele>163.0</ele><time>2026-04-26T06:35:04.016Z</time></trkpt><trkpt lat="44.06978287555341" lon="12.335447123098549"><ele>163.0</ele><time>2026-04-26T06:35:05.017Z</time></trkpt><trkpt lat="44.06963787893229" lon="12.335401652598472"><ele>163.25</ele><time>2026-04-26T06:35:06.017Z</time></trkpt><trkpt lat="44.069499323320336" lon="12.335344246598494"><ele>163.5</ele><time>2026-04-26T06:35:07.017Z</time></trkpt><trkpt lat="44.069362724180884" lon="12.335288144294786"><ele>163.75</ele><time>2026-04-26T06:35:08.016Z</time></trkpt><trkpt lat="44.069220616147064" lon="12.33524840355473"><ele>164.0</ele><time>2026-04-26T06:35:09.016Z</time></trkpt><trkpt lat="44.069077295106" lon="12.335214214531613"><ele>167.33333333333331</ele><time>2026-04-26T06:35:10.017Z</time></trkpt><trkpt lat="44.068924654319225" lon="12.335216346330672"><ele>170.66666666666666</ele><time>2026-04-26T06:35:11.017Z</time></trkpt><trkpt lat="44.068771290180784" lon="12.335249780070841"><ele>174.0</ele><time>2026-04-26T06:35:12.017Z</time></trkpt><trkpt lat="44.06861439680723" lon="12.335301610791406"><ele>174.0</ele><time>2026-04-26T06:35:13.017Z</time></trkpt><trkpt lat="44.06845147683662" lon="12.33534644762382"><ele>174.0</ele><time>2026-04-26T06:35:14.017Z</time></trkpt><trkpt lat="44.06828116517884" lon="12.335369723845472"><ele>174.0</ele><time>2026-04-26T06:35:15.017Z</time></trkpt><trkpt lat="44.06811190871294" lon="12.335376157048971"><ele>176.33333333333334</ele><time>2026-04-26T06:35:16.017Z</time></trkpt><trkpt lat="44.06793985785106" lon="12.335388873013759"><ele>178.66666666666669</ele><time>2026-04-26T06:35:17.017Z</time></trkpt><trkpt lat="44.06776927309724" lon="12.335388935731293"><ele>181.0</ele><time>2026-04-26T06:35:18.017Z</time></trkpt><trkpt lat="44.067599083355" lon="12.335408161286836"><ele>181.33333333333334</ele><time>2026-04-26T06:35:19.017Z</time></trkpt><trkpt lat="44.06742743972803" lon="12.335417339243152"><ele>181.66666666666666</ele><time>2026-04-26T06:35:20.017Z</time></trkpt><trkpt lat="44.06725922114702" lon="12.335408722048836"><ele>182.0</ele><time>2026-04-26T06:35:21.017Z</time></trkpt><trkpt lat="44.06709543397102" lon="12.335395589539061"><ele>182.0</ele><time>2026-04-26T06:35:22.017Z</time></trkpt><trkpt lat="44.0669269061531" lon="12.335366048312709"><ele>182.0</ele><time>2026-04-26T06:35:23.017Z</time></trkpt><trkpt lat="44.06677506163523" lon="12.335290827614232"><ele>182.0</ele><time>2026-04-26T06:35:24.017Z</time></trkpt><trkpt lat="44.066651856785796" lon="12.335214673448977"><ele>179.25</ele><time>2026-04-26T06:35:25.017Z</time></trkpt><trkpt lat="44.066558382717226" lon="12.33514503800147"><ele>176.5</ele><time>2026-04-26T06:35:26.017Z</time></trkpt><trkpt lat="44.066464622426416" lon="12.335081387850833"><ele>173.75</ele><time>2026-04-26T06:35:27.017Z</time></trkpt><trkpt lat="44.066380546050354" lon="12.334985519747578"><ele>171.0</ele><time>2026-04-26T06:35:28.017Z</time></trkpt><trkpt lat="44.066269896416934" lon="12.334882485236271"><ele>171.0</ele><time>2026-04-26T06:35:29.017Z</time></trkpt><trkpt lat="44.06614172140421" lon="12.334787328650725"><ele>171.0</ele><time>2026-04-26T06:35:30.017Z</time></trkpt><trkpt lat="44.066016762540954" lon="12.334678181798306"><ele>171.0</ele><time>2026-04-26T06:35:31.017Z</time></trkpt><trkpt lat="44.0658749584571" lon="12.334593721326135"><ele>171.0</ele><time>2026-04-26T06:35:32.017Z</time></trkpt><trkpt lat="44.06571522662469" lon="12.334509882496258"><ele>174.33333333333334</ele><time>2026-04-26T06:35:33.017Z</time></trkpt><trkpt lat="44.06555179371778" lon="12.334449935703717"><ele>177.66666666666669</ele><time>2026-04-26T06:35:34.017Z</time></trkpt><trkpt lat="44.06538803640668" lon="12.334410036918726"><ele>181.0</ele><time>2026-04-26T06:35:35.017Z</time></trkpt><trkpt lat="44.06522098984999" lon="12.334418068754372"><ele>181.0</ele><time>2026-04-26T06:35:36.017Z</time></trkpt><trkpt lat="44.06507809284484" lon="12.334403630652854"><ele>181.0</ele><time>2026-04-26T06:35:37.017Z</time></trkpt><trkpt lat="44.06494282082295" lon="12.334412876017385"><ele>181.0</ele><time>2026-04-26T06:35:38.017Z</time></trkpt><trkpt lat="44.06480072927209" lon="12.334461926010622"><ele>181.0</ele><time>2026-04-26T06:35:39.017Z</time></trkpt><trkpt lat="44.064667540391206" lon="12.334565000708245"><ele>181.0</ele><time>2026-04-26T06:35:40.017Z</time></trkpt><trkpt lat="44.064551135776746" lon="12.334687474845932"><ele>181.0</ele><time>2026-04-26T06:35:41.017Z</time></trkpt><trkpt lat="44.06442904094682" lon="12.3347971515819"><ele>181.0</ele><time>2026-04-26T06:35:42.017Z</time></trkpt><trkpt lat="44.06430311081714" lon="12.334829344596674"><ele>181.0</ele><time>2026-04-26T06:35:43.017Z</time></trkpt><trkpt lat="44.064174696738725" lon="12.334820968750467"><ele>181.0</ele><time>2026-04-26T06:35:44.017Z</time></trkpt><trkpt lat="44.06400984862535" lon="12.334785479940017"><ele>181.0</ele><time>2026-04-26T06:35:45.017Z</time></trkpt><trkpt lat="44.063848596604956" lon="12.3347461851042"><ele>181.0</ele><time>2026-04-26T06:35:46.017Z</time></trkpt><trkpt lat="44.06368237795693" lon="12.334717384874443"><ele>184.0</ele><time>2026-04-26T06:35:47.017Z</time></trkpt><trkpt lat="44.0635230646486" lon="12.334673762692056"><ele>187.0</ele><time>2026-04-26T06:35:48.017Z</time></trkpt><trkpt lat="44.06336016973538" lon="12.334608992825022"><ele>190.0</ele><time>2026-04-26T06:35:49.017Z</time></trkpt><trkpt lat="44.06319911214108" lon="12.334531588601841"><ele>190.0</ele><time>2026-04-26T06:35:50.017Z</time></trkpt><trkpt lat="44.06304437657975" lon="12.33446108216537"><ele>190.0</ele><time>2026-04-26T06:35:51.017Z</time></trkpt><trkpt lat="44.06290512014984" lon="12.33441746820903"><ele>190.0</ele><time>2026-04-26T06:35:52.017Z</time></trkpt><trkpt lat="44.06277527388928" lon="12.33441915947221"><ele>190.0</ele><time>2026-04-26T06:35:53.017Z</time></trkpt><trkpt lat="44.062647727812774" lon="12.334485665986064"><ele>190.0</ele><time>2026-04-26T06:35:54.017Z</time></trkpt><trkpt lat="44.06253101126283" lon="12.334571204708357"><ele>190.0</ele><time>2026-04-26T06:35:55.017Z</time></trkpt><trkpt lat="44.062404136665656" lon="12.334663638527216"><ele>190.0</ele><time>2026-04-26T06:35:56.017Z</time></trkpt><trkpt lat="44.06227892316544" lon="12.3347050328918"><ele>190.0</ele><time>2026-04-26T06:35:57.017Z</time></trkpt><trkpt lat="44.062164306058904" lon="12.334764778225026"><ele>193.25</ele><time>2026-04-26T06:35:58.017Z</time></trkpt><trkpt lat="44.06205421550825" lon="12.334756257971451"><ele>196.5</ele><time>2026-04-26T06:35:59.017Z</time></trkpt><trkpt lat="44.06195994250744" lon="12.334701249658467"><ele>199.75</ele><time>2026-04-26T06:36:00.017Z</time></trkpt><trkpt lat="44.061849563516695" lon="12.33460204850009"><ele>203.0</ele><time>2026-04-26T06:36:01.017Z</time></trkpt><trkpt lat="44.06174623803512" lon="12.334480410383065"><ele>203.0</ele><time>2026-04-26T06:36:02.017Z</time></trkpt><trkpt lat="44.06163780873208" lon="12.334348421206908"><ele>203.0</ele><time>2026-04-26T06:36:03.017Z</time></trkpt><trkpt lat="44.06153069723211" lon="12.334215897705795"><ele>203.0</ele><time>2026-04-26T06:36:04.017Z</time></trkpt><trkpt lat="44.06141960480632" lon="12.33407725736298"><ele>203.0</ele><time>2026-04-26T06:36:05.017Z</time></trkpt><trkpt lat="44.061314000253425" lon="12.333938716619176"><ele>205.33333333333334</ele><time>2026-04-26T06:36:06.017Z</time></trkpt><trkpt lat="44.06119670313757" lon="12.333780160779666"><ele>207.66666666666669</ele><time>2026-04-26T06:36:07.017Z</time></trkpt><trkpt lat="44.061079153017985" lon="12.33363000783231"><ele>210.0</ele><time>2026-04-26T06:36:08.017Z</time></trkpt><trkpt lat="44.060950359714" lon="12.333500475161426"><ele>210.0</ele><time>2026-04-26T06:36:09.017Z</time></trkpt><trkpt lat="44.060826679777215" lon="12.333403610454486"><ele>210.0</ele><time>2026-04-26T06:36:10.017Z</time></trkpt><trkpt lat="44.06067000926504" lon="12.333358844026403"><ele>210.0</ele><time>2026-04-26T06:36:11.017Z</time></trkpt><trkpt lat="44.060516430560305" lon="12.333340826252742"><ele>211.33333333333331</ele><time>2026-04-26T06:36:12.017Z</time></trkpt><trkpt lat="44.060365412426" lon="12.33334253344709"><ele>212.66666666666666</ele><time>2026-04-26T06:36:13.017Z</time></trkpt><trkpt lat="44.06021752575271" lon="12.333294700429699"><ele>214.0</ele><time>2026-04-26T06:36:14.017Z</time></trkpt><trkpt lat="44.060070684746265" lon="12.333199827321982"><ele>213.66666666666666</ele><time>2026-04-26T06:36:15.017Z</time></trkpt><trkpt lat="44.05993498764846" lon="12.333054497979361"><ele>213.33333333333331</ele><time>2026-04-26T06:36:16.017Z</time></trkpt><trkpt lat="44.059799541033705" lon="12.33288681007574"><ele>213.0</ele><time>2026-04-26T06:36:17.017Z</time></trkpt><trkpt lat="44.059668746552" lon="12.33271248972437"><ele>213.0</ele><time>2026-04-26T06:36:18.017Z</time></trkpt><trkpt lat="44.05954947169113" lon="12.332535984735987"><ele>213.0</ele><time>2026-04-26T06:36:19.017Z</time></trkpt><trkpt lat="44.059433377965384" lon="12.332337117678298"><ele>213.0</ele><time>2026-04-26T06:36:20.017Z</time></trkpt><trkpt lat="44.05932543811672" lon="12.332130082644195"><ele>212.0</ele><time>2026-04-26T06:36:21.017Z</time></trkpt><trkpt lat="44.059225312415265" lon="12.331950236262221"><ele>211.0</ele><time>2026-04-26T06:36:22.017Z</time></trkpt><trkpt lat="44.059099541726965" lon="12.331791827809951"><ele>210.0</ele><time>2026-04-26T06:36:23.017Z</time></trkpt><trkpt lat="44.05896492873532" lon="12.331646532551048"><ele>210.0</ele><time>2026-04-26T06:36:24.017Z</time></trkpt><trkpt lat="44.058827736583645" lon="12.331519067898904"><ele>210.0</ele><time>2026-04-26T06:36:25.017Z</time></trkpt><trkpt lat="44.05869959916869" lon="12.331402118517728"><ele>210.0</ele><time>2026-04-26T06:36:26.017Z</time></trkpt><trkpt lat="44.0585840906252" lon="12.33129274265654"><ele>209.5</ele><time>2026-04-26T06:36:27.017Z</time></trkpt><trkpt lat="44.05847668984795" lon="12.331182759002157"><ele>209.0</ele><time>2026-04-26T06:36:28.017Z</time></trkpt><trkpt lat="44.05837247334576" lon="12.331056641193385"><ele>208.5</ele><time>2026-04-26T06:36:29.017Z</time></trkpt><trkpt lat="44.058289317745206" lon="12.330876162532906"><ele>208.0</ele><time>2026-04-26T06:36:30.017Z</time></trkpt><trkpt lat="44.0582250237073" lon="12.330681593597738"><ele>209.66666666666666</ele><time>2026-04-26T06:36:31.017Z</time></trkpt><trkpt lat="44.05816082477519" lon="12.330491602644372"><ele>211.33333333333331</ele><time>2026-04-26T06:36:32.017Z</time></trkpt><trkpt lat="44.05806982931251" lon="12.330326938679049"><ele>213.0</ele><time>2026-04-26T06:36:33.017Z</time></trkpt><trkpt lat="44.05795827636798" lon="12.330166634171459"><ele>213.0</ele><time>2026-04-26T06:36:34.017Z</time></trkpt><trkpt lat="44.057786366305685" lon="12.330075851059332"><ele>213.0</ele><time>2026-04-26T06:36:35.017Z</time></trkpt><trkpt lat="44.05761676225431" lon="12.329985683841809"><ele>213.0</ele><time>2026-04-26T06:36:36.017Z</time></trkpt><trkpt lat="44.05743852802914" lon="12.32990288726806"><ele>213.0</ele><time>2026-04-26T06:36:37.018Z</time></trkpt><trkpt lat="44.05726839074648" lon="12.32981900191838"><ele>213.0</ele><time>2026-04-26T06:36:38.018Z</time></trkpt><trkpt lat="44.05711459999065" lon="12.329755095346997"><ele>213.0</ele><time>2026-04-26T06:36:39.018Z</time></trkpt><trkpt lat="44.056950073256026" lon="12.329724986744917"><ele>213.0</ele><time>2026-04-26T06:36:40.018Z</time></trkpt><trkpt lat="44.056781665894206" lon="12.329754090623672"><ele>213.0</ele><time>2026-04-26T06:36:41.018Z</time></trkpt><trkpt lat="44.0566126765516" lon="12.329841192247661"><ele>213.0</ele><time>2026-04-26T06:36:42.018Z</time></trkpt><trkpt lat="44.05645244868013" lon="12.329942518464502"><ele>214.33333333333331</ele><time>2026-04-26T06:36:43.018Z</time></trkpt><trkpt lat="44.05629922120241" lon="12.330031775813675"><ele>215.66666666666666</ele><time>2026-04-26T06:36:44.018Z</time></trkpt><trkpt lat="44.05615699317155" lon="12.33008622979744"><ele>217.0</ele><time>2026-04-26T06:36:45.018Z</time></trkpt><trkpt lat="44.05601654388621" lon="12.330097912247204"><ele>217.0</ele><time>2026-04-26T06:36:46.018Z</time></trkpt><trkpt lat="44.05588751467549" lon="12.330058069109295"><ele>217.0</ele><time>2026-04-26T06:36:47.018Z</time></trkpt><trkpt lat="44.05577800300816" lon="12.329949335049646"><ele>217.0</ele><time>2026-04-26T06:36:48.018Z</time></trkpt><trkpt lat="44.055677941212835" lon="12.32981532734671"><ele>217.0</ele><time>2026-04-26T06:36:49.018Z</time></trkpt><trkpt lat="44.05559036970868" lon="12.329657988025984"><ele>215.0</ele><time>2026-04-26T06:36:50.018Z</time></trkpt><trkpt lat="44.05552240986372" lon="12.329498433653661"><ele>213.0</ele><time>2026-04-26T06:36:51.018Z</time></trkpt><trkpt lat="44.05545751092949" lon="12.32934739982878"><ele>211.0</ele><time>2026-04-26T06:36:52.018Z</time></trkpt><trkpt lat="44.0554364180854" lon="12.329194237295944"><ele>209.0</ele><time>2026-04-26T06:36:53.018Z</time></trkpt><trkpt lat="44.0554287849656" lon="12.329063749418808"><ele>209.0</ele><time>2026-04-26T06:36:54.018Z</time></trkpt><trkpt lat="44.05543043032885" lon="12.328934138468703"><ele>209.0</ele><time>2026-04-26T06:36:55.018Z</time></trkpt><trkpt lat="44.055400866581664" lon="12.328815025641811"><ele>209.0</ele><time>2026-04-26T06:36:56.018Z</time></trkpt><trkpt lat="44.05532748408837" lon="12.328701565012903"><ele>209.0</ele><time>2026-04-26T06:36:57.018Z</time></trkpt><trkpt lat="44.05525060949489" lon="12.328572720668388"><ele>209.0</ele><time>2026-04-26T06:36:58.018Z</time></trkpt><trkpt lat="44.05516862667401" lon="12.328426258377887"><ele>210.75</ele><time>2026-04-26T06:36:59.018Z</time></trkpt><trkpt lat="44.05506470049699" lon="12.328301232639417"><ele>212.5</ele><time>2026-04-26T06:37:00.018Z</time></trkpt><trkpt lat="44.05493403205171" lon="12.32821041292146"><ele>214.25</ele><time>2026-04-26T06:37:01.018Z</time></trkpt><trkpt lat="44.054789186571824" lon="12.328134945889177"><ele>216.0</ele><time>2026-04-26T06:37:02.018Z</time></trkpt><trkpt lat="44.054629609369314" lon="12.328078850448971"><ele>220.66666666666669</ele><time>2026-04-26T06:37:03.018Z</time></trkpt><trkpt lat="44.05445384487756" lon="12.328053713520601"><ele>225.33333333333334</ele><time>2026-04-26T06:37:04.018Z</time></trkpt><trkpt lat="44.054277890478886" lon="12.327997459330827"><ele>230.0</ele><time>2026-04-26T06:37:05.018Z</time></trkpt><trkpt lat="44.054095776827836" lon="12.327962344916678"><ele>230.0</ele><time>2026-04-26T06:37:06.018Z</time></trkpt><trkpt lat="44.05392026155888" lon="12.327925306700102"><ele>230.0</ele><time>2026-04-26T06:37:07.018Z</time></trkpt><trkpt lat="44.053767082932616" lon="12.32788545636535"><ele>230.0</ele><time>2026-04-26T06:37:08.018Z</time></trkpt><trkpt lat="44.05363924823125" lon="12.327821262276185"><ele>230.0</ele><time>2026-04-26T06:37:09.018Z</time></trkpt><trkpt lat="44.053534111943506" lon="12.327697993594501"><ele>230.0</ele><time>2026-04-26T06:37:10.018Z</time></trkpt><trkpt lat="44.053451066463225" lon="12.327528760901792"><ele>230.0</ele><time>2026-04-26T06:37:11.018Z</time></trkpt><trkpt lat="44.05337122239154" lon="12.327337393787861"><ele>230.0</ele><time>2026-04-26T06:37:12.018Z</time></trkpt><trkpt lat="44.05326564834642" lon="12.327149890650528"><ele>232.33333333333334</ele><time>2026-04-26T06:37:13.017Z</time></trkpt><trkpt lat="44.05312086235418" lon="12.327004359920712"><ele>234.66666666666669</ele><time>2026-04-26T06:37:14.018Z</time></trkpt><trkpt lat="44.052948834514964" lon="12.326904450321308"><ele>237.0</ele><time>2026-04-26T06:37:15.018Z</time></trkpt><trkpt lat="44.05277716735071" lon="12.326822661201396"><ele>237.0</ele><time>2026-04-26T06:37:16.018Z</time></trkpt><trkpt lat="44.05260942696375" lon="12.326737158359814"><ele>237.0</ele><time>2026-04-26T06:37:17.017Z</time></trkpt><trkpt lat="44.05245028483873" lon="12.326655530158838"><ele>237.0</ele><time>2026-04-26T06:37:18.017Z</time></trkpt><trkpt lat="44.052299327265594" lon="12.326549438255821"><ele>237.66666666666669</ele><time>2026-04-26T06:37:19.018Z</time></trkpt><trkpt lat="44.0521653639924" lon="12.326398016477162"><ele>238.33333333333334</ele><time>2026-04-26T06:37:20.018Z</time></trkpt><trkpt lat="44.05204361722363" lon="12.326219783298296"><ele>239.0</ele><time>2026-04-26T06:37:21.018Z</time></trkpt><trkpt lat="44.05192480577875" lon="12.326006770508345"><ele>239.0</ele><time>2026-04-26T06:37:22.018Z</time></trkpt><trkpt lat="44.051808617379905" lon="12.325790267420233"><ele>239.0</ele><time>2026-04-26T06:37:23.018Z</time></trkpt><trkpt lat="44.05169229364137" lon="12.325586951042629"><ele>239.0</ele><time>2026-04-26T06:37:24.018Z</time></trkpt><trkpt lat="44.0515648126783" lon="12.325403497981219"><ele>240.66666666666669</ele><time>2026-04-26T06:37:25.018Z</time></trkpt><trkpt lat="44.05140027312357" lon="12.32527377840896"><ele>242.33333333333331</ele><time>2026-04-26T06:37:26.018Z</time></trkpt><trkpt lat="44.05125028060898" lon="12.325138616613517"><ele>244.0</ele><time>2026-04-26T06:37:27.018Z</time></trkpt><trkpt lat="44.05109802720645" lon="12.325022895773829"><ele>244.0</ele><time>2026-04-26T06:37:28.018Z</time></trkpt><trkpt lat="44.05095923170847" lon="12.324901427487472"><ele>244.0</ele><time>2026-04-26T06:37:29.018Z</time></trkpt><trkpt lat="44.05083692736674" lon="12.324762843736169"><ele>244.0</ele><time>2026-04-26T06:37:30.018Z</time></trkpt><trkpt lat="44.05074209855028" lon="12.32460622914825"><ele>245.25</ele><time>2026-04-26T06:37:31.018Z</time></trkpt><trkpt lat="44.05063890209281" lon="12.324454886415133"><ele>246.5</ele><time>2026-04-26T06:37:32.018Z</time></trkpt><trkpt lat="44.050555026607526" lon="12.324302677515558"><ele>247.75</ele><time>2026-04-26T06:37:33.018Z</time></trkpt><trkpt lat="44.05045532767803" lon="12.324185949718716"><ele>249.0</ele><time>2026-04-26T06:37:34.018Z</time></trkpt><trkpt lat="44.05034231087032" lon="12.324091106821804"><ele>249.0</ele><time>2026-04-26T06:37:35.018Z</time></trkpt><trkpt lat="44.05021002492934" lon="12.324021264938954"><ele>249.0</ele><time>2026-04-26T06:37:36.018Z</time></trkpt><trkpt lat="44.05005189100911" lon="12.32398395623729"><ele>249.0</ele><time>2026-04-26T06:37:37.018Z</time></trkpt><trkpt lat="44.04986694402682" lon="12.323956319354274"><ele>248.0</ele><time>2026-04-26T06:37:38.018Z</time></trkpt><trkpt lat="44.0496872641445" lon="12.323893157854135"><ele>247.0</ele><time>2026-04-26T06:37:39.018Z</time></trkpt><trkpt lat="44.04949746272207" lon="12.323861032792546"><ele>246.0</ele><time>2026-04-26T06:37:40.018Z</time></trkpt><trkpt lat="44.049310311039484" lon="12.323791980937365"><ele>246.0</ele><time>2026-04-26T06:37:41.018Z</time></trkpt><trkpt lat="44.04913940810191" lon="12.3237473457414"><ele>246.0</ele><time>2026-04-26T06:37:42.018Z</time></trkpt><trkpt lat="44.04898536996704" lon="12.323731720135637"><ele>246.0</ele><time>2026-04-26T06:37:43.018Z</time></trkpt><trkpt lat="44.0488389119019" lon="12.323692684735487"><ele>247.0</ele><time>2026-04-26T06:37:44.018Z</time></trkpt><trkpt lat="44.04870485595916" lon="12.323633332725882"><ele>248.0</ele><time>2026-04-26T06:37:45.018Z</time></trkpt><trkpt lat="44.048563412970786" lon="12.323599988816575"><ele>249.0</ele><time>2026-04-26T06:37:46.018Z</time></trkpt><trkpt lat="44.048422606402035" lon="12.323565271134468"><ele>250.0</ele><time>2026-04-26T06:37:47.018Z</time></trkpt><trkpt lat="44.04827908690038" lon="12.323528188181761"><ele>251.0</ele><time>2026-04-26T06:37:48.018Z</time></trkpt><trkpt lat="44.048136492275844" lon="12.32347294289221"><ele>252.0</ele><time>2026-04-26T06:37:49.018Z</time></trkpt><trkpt lat="44.047983249101435" lon="12.323452523334641"><ele>253.0</ele><time>2026-04-26T06:37:50.018Z</time></trkpt><trkpt lat="44.04783351882829" lon="12.323407490240307"><ele>253.0</ele><time>2026-04-26T06:37:51.018Z</time></trkpt><trkpt lat="44.04768686138452" lon="12.323345054265625"><ele>253.0</ele><time>2026-04-26T06:37:52.018Z</time></trkpt><trkpt lat="44.04753891622488" lon="12.323302155457618"><ele>253.0</ele><time>2026-04-26T06:37:53.018Z</time></trkpt><trkpt lat="44.04739367505509" lon="12.323260040712258"><ele>252.75</ele><time>2026-04-26T06:37:54.018Z</time></trkpt><trkpt lat="44.047242036554366" lon="12.323243074694723"><ele>252.5</ele><time>2026-04-26T06:37:55.018Z</time></trkpt><trkpt lat="44.04710224939559" lon="12.323200808572366"><ele>252.25</ele><time>2026-04-26T06:37:56.018Z</time></trkpt><trkpt lat="44.04696713425893" lon="12.323158616986571"><ele>252.0</ele><time>2026-04-26T06:37:57.018Z</time></trkpt><trkpt lat="44.04683255231834" lon="12.323114846847188"><ele>252.0</ele><time>2026-04-26T06:37:58.018Z</time></trkpt><trkpt lat="44.046696356164354" lon="12.32307780948703"><ele>252.0</ele><time>2026-04-26T06:37:59.018Z</time></trkpt><trkpt lat="44.04656682970478" lon="12.323045919360988"><ele>252.0</ele><time>2026-04-26T06:38:00.018Z</time></trkpt><trkpt lat="44.04643051960102" lon="12.323013040418274"><ele>252.0</ele><time>2026-04-26T06:38:01.018Z</time></trkpt><trkpt lat="44.046296260914716" lon="12.322978511399155"><ele>253.25</ele><time>2026-04-26T06:38:02.018Z</time></trkpt><trkpt lat="44.0461623570488" lon="12.322942738812774"><ele>254.5</ele><time>2026-04-26T06:38:03.018Z</time></trkpt><trkpt lat="44.04602994906124" lon="12.322907146095922"><ele>255.75</ele><time>2026-04-26T06:38:04.018Z</time></trkpt><trkpt lat="44.04589631116776" lon="12.322869850504825"><ele>257.0</ele><time>2026-04-26T06:38:05.018Z</time></trkpt><trkpt lat="44.0457580026089" lon="12.322833854370483"><ele>258.0</ele><time>2026-04-26T06:38:06.018Z</time></trkpt><trkpt lat="44.04561881290284" lon="12.322797774230212"><ele>259.0</ele><time>2026-04-26T06:38:07.018Z</time></trkpt><trkpt lat="44.0454876220375" lon="12.322739968371195"><ele>260.0</ele><time>2026-04-26T06:38:08.018Z</time></trkpt><trkpt lat="44.045346018941856" lon="12.322712939690632"><ele>261.0</ele><time>2026-04-26T06:38:09.018Z</time></trkpt><trkpt lat="44.04520985989439" lon="12.32267746171498"><ele>261.0</ele><time>2026-04-26T06:38:10.018Z</time></trkpt><trkpt lat="44.0450877734735" lon="12.322612271372332"><ele>261.0</ele><time>2026-04-26T06:38:11.018Z</time></trkpt><trkpt lat="44.04497598325029" lon="12.322518809284148"><ele>261.0</ele><time>2026-04-26T06:38:12.018Z</time></trkpt><trkpt lat="44.044882640484076" lon="12.322390349883335"><ele>261.0</ele><time>2026-04-26T06:38:13.018Z</time></trkpt><trkpt lat="44.0447925685858" lon="12.322220901188487"><ele>261.3333333333333</ele><time>2026-04-26T06:38:14.018Z</time></trkpt><trkpt lat="44.044699393729346" lon="12.32205227340232"><ele>261.66666666666663</ele><time>2026-04-26T06:38:15.018Z</time></trkpt><trkpt lat="44.044594186764044" lon="12.321882261677482"><ele>262.0</ele><time>2026-04-26T06:38:16.018Z</time></trkpt><trkpt lat="44.04448799972591" lon="12.321707038515445"><ele>262.0</ele><time>2026-04-26T06:38:17.018Z</time></trkpt><trkpt lat="44.04438610988264" lon="12.321529302580108"><ele>262.0</ele><time>2026-04-26T06:38:18.018Z</time></trkpt><trkpt lat="44.04428400814835" lon="12.321353192350191"><ele>262.0</ele><time>2026-04-26T06:38:19.018Z</time></trkpt><trkpt lat="44.044174561136806" lon="12.32119125124178"><ele>262.0</ele><time>2026-04-26T06:38:20.018Z</time></trkpt><trkpt lat="44.044077901769924" lon="12.321027295270016"><ele>262.0</ele><time>2026-04-26T06:38:21.018Z</time></trkpt><trkpt lat="44.04398531642215" lon="12.320866748171737"><ele>262.0</ele><time>2026-04-26T06:38:22.018Z</time></trkpt><trkpt lat="44.04390297073848" lon="12.3206907858596"><ele>264.66666666666663</ele><time>2026-04-26T06:38:23.018Z</time></trkpt><trkpt lat="44.043798350229864" lon="12.320533189921575"><ele>267.3333333333333</ele><time>2026-04-26T06:38:24.018Z</time></trkpt><trkpt lat="44.043693253092115" lon="12.320381088948206"><ele>270.0</ele><time>2026-04-26T06:38:25.018Z</time></trkpt><trkpt lat="44.04359143133481" lon="12.320221713947696"><ele>270.0</ele><time>2026-04-26T06:38:26.018Z</time></trkpt><trkpt lat="44.04350041306942" lon="12.320053182004854"><ele>270.0</ele><time>2026-04-26T06:38:27.018Z</time></trkpt><trkpt lat="44.04344599836145" lon="12.319862465918918"><ele>270.0</ele><time>2026-04-26T06:38:28.018Z</time></trkpt><trkpt lat="44.043400950019034" lon="12.319662648040019"><ele>272.0</ele><time>2026-04-26T06:38:29.018Z</time></trkpt><trkpt lat="44.04337165871883" lon="12.319445409311735"><ele>274.0</ele><time>2026-04-26T06:38:30.018Z</time></trkpt><trkpt lat="44.04335268884447" lon="12.319226623290485"><ele>276.0</ele><time>2026-04-26T06:38:31.018Z</time></trkpt><trkpt lat="44.043329314658294" lon="12.319003415625033"><ele>277.3333333333333</ele><time>2026-04-26T06:38:32.018Z</time></trkpt><trkpt lat="44.043300465333346" lon="12.318781077348723"><ele>278.66666666666663</ele><time>2026-04-26T06:38:33.019Z</time></trkpt><trkpt lat="44.043275161480636" lon="12.31856535996422"><ele>280.0</ele><time>2026-04-26T06:38:34.019Z</time></trkpt><trkpt lat="44.04324054526592" lon="12.31837594844913"><ele>286.5</ele><time>2026-04-26T06:38:35.019Z</time></trkpt><trkpt lat="44.04326196089341" lon="12.318172035378005"><ele>293.0</ele><time>2026-04-26T06:38:36.019Z</time></trkpt><trkpt lat="44.04328543837988" lon="12.31797661719024"><ele>299.5</ele><time>2026-04-26T06:38:37.019Z</time></trkpt><trkpt lat="44.04329352417123" lon="12.317801411289485"><ele>306.0</ele><time>2026-04-26T06:38:38.019Z</time></trkpt><trkpt lat="44.04329429788705" lon="12.317626400305583"><ele>307.6</ele><time>2026-04-26T06:38:39.019Z</time></trkpt><trkpt lat="44.0432589462627" lon="12.317464675174778"><ele>309.20000000000005</ele><time>2026-04-26T06:38:40.019Z</time></trkpt><trkpt lat="44.04323704092676" lon="12.317307017878012"><ele>310.79999999999995</ele><time>2026-04-26T06:38:41.019Z</time></trkpt><trkpt lat="44.04316347761513" lon="12.317226180447895"><ele>312.4</ele><time>2026-04-26T06:38:43.019Z</time></trkpt><trkpt lat="44.04309449436662" lon="12.317238990474214"><ele>314.0</ele><time>2026-04-26T06:38:44.019Z</time></trkpt><trkpt lat="44.04304307157109" lon="12.3173448057715"><ele>314.0</ele><time>2026-04-26T06:38:45.019Z</time></trkpt><trkpt lat="44.04301554685815" lon="12.317465697574788"><ele>314.0</ele><time>2026-04-26T06:38:46.019Z</time></trkpt><trkpt lat="44.043000783220485" lon="12.317628866246425"><ele>314.0</ele><time>2026-04-26T06:38:47.019Z</time></trkpt><trkpt lat="44.04295154314282" lon="12.317747243792164"><ele>314.0</ele><time>2026-04-26T06:38:48.019Z</time></trkpt><trkpt lat="44.042916780195206" lon="12.317846589987719"><ele>314.0</ele><time>2026-04-26T06:38:49.019Z</time></trkpt><trkpt lat="44.042911132656606" lon="12.317995497560778"><ele>312.6666666666667</ele><time>2026-04-26T06:38:51.019Z</time></trkpt><trkpt lat="44.04295885578429" lon="12.318145436450134"><ele>311.33333333333337</ele><time>2026-04-26T06:38:53.019Z</time></trkpt><trkpt lat="44.042965993207986" lon="12.318246510323547"><ele>310.0</ele><time>2026-04-26T06:38:54.019Z</time></trkpt><trkpt lat="44.042965349012235" lon="12.318355090333414"><ele>308.6666666666667</ele><time>2026-04-26T06:38:55.019Z</time></trkpt><trkpt lat="44.0429511534162" lon="12.31847061911505"><ele>307.3333333333333</ele><time>2026-04-26T06:38:56.019Z</time></trkpt><trkpt lat="44.042930468016415" lon="12.318565947807187"><ele>306.0</ele><time>2026-04-26T06:38:57.019Z</time></trkpt><trkpt lat="44.0428782033384" lon="12.318671787798731"><ele>306.0</ele><time>2026-04-26T06:38:58.019Z</time></trkpt><trkpt lat="44.04281194592036" lon="12.318770749612044"><ele>306.0</ele><time>2026-04-26T06:38:59.019Z</time></trkpt><trkpt lat="44.042728430794654" lon="12.318856819795498"><ele>306.0</ele><time>2026-04-26T06:39:00.019Z</time></trkpt><trkpt lat="44.0426385504741" lon="12.318946875305514"><ele>306.0</ele><time>2026-04-26T06:39:01.019Z</time></trkpt><trkpt lat="44.04250976097709" lon="12.319041150958485"><ele>304.0</ele><time>2026-04-26T06:39:02.019Z</time></trkpt><trkpt lat="44.04239413330471" lon="12.319132024224864"><ele>302.0</ele><time>2026-04-26T06:39:03.019Z</time></trkpt><trkpt lat="44.042264097665466" lon="12.31923059026029"><ele>300.0</ele><time>2026-04-26T06:39:04.019Z</time></trkpt><trkpt lat="44.04211383792515" lon="12.319320942162621"><ele>298.0</ele><time>2026-04-26T06:39:05.019Z</time></trkpt><trkpt lat="44.041990934807345" lon="12.31941191515267"><ele>298.0</ele><time>2026-04-26T06:39:06.019Z</time></trkpt><trkpt lat="44.0418805449598" lon="12.31949834874303"><ele>298.0</ele><time>2026-04-26T06:39:07.019Z</time></trkpt><trkpt lat="44.04179627230869" lon="12.319533845868174"><ele>298.0</ele><time>2026-04-26T06:39:08.019Z</time></trkpt><trkpt lat="44.041696538027864" lon="12.319533413235314"><ele>298.0</ele><time>2026-04-26T06:39:10.019Z</time></trkpt><trkpt lat="44.04164513069771" lon="12.31936786022137"><ele>298.0</ele><time>2026-04-26T06:39:11.019Z</time></trkpt><trkpt lat="44.04160487130981" lon="12.319255428630688"><ele>293.6</ele><time>2026-04-26T06:39:12.019Z</time></trkpt><trkpt lat="44.04156595379801" lon="12.319142008409651"><ele>289.20000000000005</ele><time>2026-04-26T06:39:13.019Z</time></trkpt><trkpt lat="44.04153092634415" lon="12.319017754748026"><ele>284.8</ele><time>2026-04-26T06:39:14.019Z</time></trkpt><trkpt lat="44.041514434759996" lon="12.318884089949231"><ele>280.40000000000003</ele><time>2026-04-26T06:39:15.019Z</time></trkpt><trkpt lat="44.04151314019448" lon="12.318738641996259"><ele>276.0</ele><time>2026-04-26T06:39:16.017Z</time></trkpt><trkpt lat="44.04151488138092" lon="12.318585027693349"><ele>276.0</ele><time>2026-04-26T06:39:17.018Z</time></trkpt><trkpt lat="44.041523141373524" lon="12.318422494633628"><ele>276.0</ele><time>2026-04-26T06:39:18.018Z</time></trkpt><trkpt lat="44.04151894100323" lon="12.318246829343195"><ele>276.0</ele><time>2026-04-26T06:39:19.018Z</time></trkpt><trkpt lat="44.04151427016731" lon="12.318059893140761"><ele>276.0</ele><time>2026-04-26T06:39:20.018Z</time></trkpt><trkpt lat="44.04150938885592" lon="12.317884218093347"><ele>278.8</ele><time>2026-04-26T06:39:21.018Z</time></trkpt><trkpt lat="44.04149981135888" lon="12.317728590555296"><ele>281.6</ele><time>2026-04-26T06:39:22.018Z</time></trkpt><trkpt lat="44.041495040891455" lon="12.317590325609652"><ele>284.4</ele><time>2026-04-26T06:39:23.018Z</time></trkpt><trkpt lat="44.04148361904012" lon="12.317466608621665"><ele>287.2</ele><time>2026-04-26T06:39:24.018Z</time></trkpt><trkpt lat="44.04147031927787" lon="12.317356605872009"><ele>290.0</ele><time>2026-04-26T06:39:25.018Z</time></trkpt><trkpt lat="44.04146132516931" lon="12.317226404116983"><ele>293.0</ele><time>2026-04-26T06:39:27.018Z</time></trkpt><trkpt lat="44.04143657242111" lon="12.317103127638656"><ele>296.0</ele><time>2026-04-26T06:39:30.018Z</time></trkpt><trkpt lat="44.04138621948115" lon="12.317036256173902"><ele>299.0</ele><time>2026-04-26T06:39:31.018Z</time></trkpt><trkpt lat="44.04130598817845" lon="12.31698159569267"><ele>302.0</ele><time>2026-04-26T06:39:32.018Z</time></trkpt><trkpt lat="44.04123245771795" lon="12.316927350276908"><ele>305.0</ele><time>2026-04-26T06:39:33.018Z</time></trkpt><trkpt lat="44.04115466947143" lon="12.316858498544516"><ele>308.0</ele><time>2026-04-26T06:39:34.018Z</time></trkpt><trkpt lat="44.041064089721324" lon="12.316790392883439"><ele>308.0</ele><time>2026-04-26T06:39:35.018Z</time></trkpt><trkpt lat="44.0409962759908" lon="12.316676038446241"><ele>308.0</ele><time>2026-04-26T06:39:36.018Z</time></trkpt><trkpt lat="44.04091983215621" lon="12.316600436326539"><ele>308.0</ele><time>2026-04-26T06:39:37.018Z</time></trkpt><trkpt lat="44.04086335488856" lon="12.316531053549745"><ele>308.0</ele><time>2026-04-26T06:39:38.018Z</time></trkpt><trkpt lat="44.04080112614776" lon="12.316472286873125"><ele>308.0</ele><time>2026-04-26T06:39:39.018Z</time></trkpt><trkpt lat="44.040756705984954" lon="12.31639915193446"><ele>308.0</ele><time>2026-04-26T06:39:40.018Z</time></trkpt><trkpt lat="44.04070509185814" lon="12.316320948777346"><ele>305.6</ele><time>2026-04-26T06:39:41.018Z</time></trkpt><trkpt lat="44.04065668752768" lon="12.316205138828531"><ele>303.20000000000005</ele><time>2026-04-26T06:39:42.018Z</time></trkpt><trkpt lat="44.04058714811105" lon="12.316086016943363"><ele>300.8</ele><time>2026-04-26T06:39:43.018Z</time></trkpt><trkpt lat="44.04050916887029" lon="12.315961557465403"><ele>298.40000000000003</ele><time>2026-04-26T06:39:44.018Z</time></trkpt><trkpt lat="44.04043319313586" lon="12.315842159387518"><ele>296.0</ele><time>2026-04-26T06:39:45.018Z</time></trkpt><trkpt lat="44.040357862782464" lon="12.315730380790994"><ele>296.0</ele><time>2026-04-26T06:39:46.018Z</time></trkpt><trkpt lat="44.04026242007263" lon="12.315620743833422"><ele>296.0</ele><time>2026-04-26T06:39:47.018Z</time></trkpt><trkpt lat="44.040167696806776" lon="12.315496511856342"><ele>296.0</ele><time>2026-04-26T06:39:48.018Z</time></trkpt><trkpt lat="44.04007873372221" lon="12.315357463231342"><ele>296.0</ele><time>2026-04-26T06:39:49.018Z</time></trkpt><trkpt lat="44.039985923957175" lon="12.31521233428969"><ele>293.5</ele><time>2026-04-26T06:39:50.018Z</time></trkpt><trkpt lat="44.03989697594471" lon="12.315064764585253"><ele>291.0</ele><time>2026-04-26T06:39:51.018Z</time></trkpt><trkpt lat="44.039817237315276" lon="12.314909701927553"><ele>288.5</ele><time>2026-04-26T06:39:52.018Z</time></trkpt><trkpt lat="44.03973533600666" lon="12.314750843182358"><ele>286.0</ele><time>2026-04-26T06:39:53.018Z</time></trkpt><trkpt lat="44.039670305504536" lon="12.31458444533239"><ele>291.0</ele><time>2026-04-26T06:39:54.018Z</time></trkpt><trkpt lat="44.03959420314474" lon="12.314432180570288"><ele>296.0</ele><time>2026-04-26T06:39:55.018Z</time></trkpt><trkpt lat="44.039525010068495" lon="12.314285558344432"><ele>301.0</ele><time>2026-04-26T06:39:56.018Z</time></trkpt><trkpt lat="44.03944974014932" lon="12.314135745607098"><ele>306.0</ele><time>2026-04-26T06:39:57.018Z</time></trkpt><trkpt lat="44.03940821221537" lon="12.313962772208129"><ele>310.0</ele><time>2026-04-26T06:39:58.018Z</time></trkpt><trkpt lat="44.03935304412091" lon="12.313795242825826"><ele>314.0</ele><time>2026-04-26T06:39:59.018Z</time></trkpt><trkpt lat="44.03930530200987" lon="12.313621383968027"><ele>318.0</ele><time>2026-04-26T06:40:00.018Z</time></trkpt><trkpt lat="44.03925060373853" lon="12.31345563732165"><ele>322.0</ele><time>2026-04-26T06:40:01.018Z</time></trkpt><trkpt lat="44.03919737857505" lon="12.313302742968926"><ele>320.25</ele><time>2026-04-26T06:40:02.018Z</time></trkpt><trkpt lat="44.03913097293865" lon="12.313173483708885"><ele>318.5</ele><time>2026-04-26T06:40:03.018Z</time></trkpt><trkpt lat="44.03904538440933" lon="12.313058695054455"><ele>316.75</ele><time>2026-04-26T06:40:04.018Z</time></trkpt><trkpt lat="44.03893950847308" lon="12.312967420765602"><ele>315.0</ele><time>2026-04-26T06:40:05.018Z</time></trkpt><trkpt lat="44.03882319066988" lon="12.312893302432926"><ele>315.0</ele><time>2026-04-26T06:40:06.018Z</time></trkpt><trkpt lat="44.038702303856766" lon="12.31281686740356"><ele>315.0</ele><time>2026-04-26T06:40:07.018Z</time></trkpt><trkpt lat="44.03859518863471" lon="12.312724140829499"><ele>315.0</ele><time>2026-04-26T06:40:08.018Z</time></trkpt><trkpt lat="44.03850535763503" lon="12.312620629698449"><ele>315.0</ele><time>2026-04-26T06:40:09.018Z</time></trkpt><trkpt lat="44.038422921850476" lon="12.312499226430116"><ele>315.0</ele><time>2026-04-26T06:40:10.018Z</time></trkpt><trkpt lat="44.038343706591355" lon="12.312370926689661"><ele>315.0</ele><time>2026-04-26T06:40:11.018Z</time></trkpt><trkpt lat="44.03827820449273" lon="12.312239811599206"><ele>315.0</ele><time>2026-04-26T06:40:12.018Z</time></trkpt><trkpt lat="44.03822477762374" lon="12.312118904828656"><ele>315.0</ele><time>2026-04-26T06:40:13.018Z</time></trkpt><trkpt lat="44.03818086622619" lon="12.31200598239626"><ele>315.0</ele><time>2026-04-26T06:40:14.018Z</time></trkpt><trkpt lat="44.03814729096665" lon="12.31189375719838"><ele>311.8</ele><time>2026-04-26T06:40:15.018Z</time></trkpt><trkpt lat="44.03813631021946" lon="12.311776137595883"><ele>308.6</ele><time>2026-04-26T06:40:16.018Z</time></trkpt><trkpt lat="44.03814328824617" lon="12.311647383347303"><ele>305.4</ele><time>2026-04-26T06:40:17.018Z</time></trkpt><trkpt lat="44.03816598105417" lon="12.311509302305511"><ele>302.2</ele><time>2026-04-26T06:40:18.018Z</time></trkpt><trkpt lat="44.038206079866335" lon="12.311367852686887"><ele>299.0</ele><time>2026-04-26T06:40:19.018Z</time></trkpt><trkpt lat="44.03825280170504" lon="12.31122467085166"><ele>302.0</ele><time>2026-04-26T06:40:20.018Z</time></trkpt><trkpt lat="44.03831611453997" lon="12.311066777359903"><ele>305.0</ele><time>2026-04-26T06:40:21.018Z</time></trkpt><trkpt lat="44.03837837879797" lon="12.310894343375782"><ele>308.0</ele><time>2026-04-26T06:40:22.018Z</time></trkpt><trkpt lat="44.03842760884705" lon="12.310713800355744"><ele>311.0</ele><time>2026-04-26T06:40:23.018Z</time></trkpt><trkpt lat="44.03846646612375" lon="12.310524854905479"><ele>311.0</ele><time>2026-04-26T06:40:24.018Z</time></trkpt><trkpt lat="44.03850025875951" lon="12.310334904943296"><ele>311.0</ele><time>2026-04-26T06:40:25.018Z</time></trkpt><trkpt lat="44.038522568011814" lon="12.310137832403827"><ele>311.0</ele><time>2026-04-26T06:40:26.018Z</time></trkpt><trkpt lat="44.03851777133151" lon="12.309924359578266"><ele>311.0</ele><time>2026-04-26T06:40:27.018Z</time></trkpt><trkpt lat="44.038492124180806" lon="12.309717978746539"><ele>310.25</ele><time>2026-04-26T06:40:28.018Z</time></trkpt><trkpt lat="44.038462860237196" lon="12.309517270060809"><ele>309.5</ele><time>2026-04-26T06:40:29.018Z</time></trkpt><trkpt lat="44.038422153437416" lon="12.30931561395942"><ele>308.75</ele><time>2026-04-26T06:40:30.018Z</time></trkpt><trkpt lat="44.03836853390862" lon="12.309122351970144"><ele>308.0</ele><time>2026-04-26T06:40:31.018Z</time></trkpt><trkpt lat="44.03830716590281" lon="12.30894434318154"><ele>304.4</ele><time>2026-04-26T06:40:32.018Z</time></trkpt><trkpt lat="44.038243308442915" lon="12.308795861776492"><ele>300.8</ele><time>2026-04-26T06:40:33.018Z</time></trkpt><trkpt lat="44.03818492395346" lon="12.30865587296552"><ele>297.2</ele><time>2026-04-26T06:40:34.018Z</time></trkpt><trkpt lat="44.03815827569083" lon="12.308541815963249"><ele>293.6</ele><time>2026-04-26T06:40:35.018Z</time></trkpt><trkpt lat="44.03816024972782" lon="12.308434480101074"><ele>290.0</ele><time>2026-04-26T06:40:36.018Z</time></trkpt><trkpt lat="44.03819090421457" lon="12.308324499264726"><ele>290.0</ele><time>2026-04-26T06:40:37.018Z</time></trkpt><trkpt lat="44.03826324709963" lon="12.308201730661922"><ele>290.0</ele><time>2026-04-26T06:40:38.018Z</time></trkpt><trkpt lat="44.03835501195001" lon="12.308069344911443"><ele>290.0</ele><time>2026-04-26T06:40:39.018Z</time></trkpt><trkpt lat="44.038457363146534" lon="12.30795217658626"><ele>290.0</ele><time>2026-04-26T06:40:40.018Z</time></trkpt><trkpt lat="44.03853127260681" lon="12.307799537941651"><ele>292.25</ele><time>2026-04-26T06:40:41.018Z</time></trkpt><trkpt lat="44.038568284090424" lon="12.307629345595602"><ele>294.5</ele><time>2026-04-26T06:40:42.018Z</time></trkpt><trkpt lat="44.03858437906231" lon="12.307425232912772"><ele>296.75</ele><time>2026-04-26T06:40:43.018Z</time></trkpt><trkpt lat="44.03858297147548" lon="12.30722261389038"><ele>299.0</ele><time>2026-04-26T06:40:44.018Z</time></trkpt><trkpt lat="44.03857228513914" lon="12.307007935192551"><ele>299.0</ele><time>2026-04-26T06:40:45.018Z</time></trkpt><trkpt lat="44.03857749623316" lon="12.306799891161685"><ele>299.0</ele><time>2026-04-26T06:40:46.018Z</time></trkpt><trkpt lat="44.038589528539525" lon="12.306596357312278"><ele>299.0</ele><time>2026-04-26T06:40:47.018Z</time></trkpt><trkpt lat="44.03861372458446" lon="12.30641200994854"><ele>299.0</ele><time>2026-04-26T06:40:48.018Z</time></trkpt><trkpt lat="44.03863865357979" lon="12.306237296047422"><ele>298.2</ele><time>2026-04-26T06:40:49.018Z</time></trkpt><trkpt lat="44.03865930832359" lon="12.306069534367891"><ele>297.4</ele><time>2026-04-26T06:40:50.018Z</time></trkpt><trkpt lat="44.03867368732296" lon="12.305919003426286"><ele>296.6</ele><time>2026-04-26T06:40:51.018Z</time></trkpt><trkpt lat="44.03868185587007" lon="12.305775486542187"><ele>295.8</ele><time>2026-04-26T06:40:52.018Z</time></trkpt><trkpt lat="44.038679305757846" lon="12.305642023755185"><ele>295.0</ele><time>2026-04-26T06:40:53.018Z</time></trkpt><trkpt lat="44.03867345161223" lon="12.305537405694857"><ele>294.3333333333333</ele><time>2026-04-26T06:40:54.018Z</time></trkpt><trkpt lat="44.038666722115416" lon="12.305412257763042"><ele>293.66666666666663</ele><time>2026-04-26T06:40:56.018Z</time></trkpt><trkpt lat="44.03865722034295" lon="12.305324391440347"><ele>293.0</ele><time>2026-04-26T06:41:12.018Z</time></trkpt><trkpt lat="44.03861952835844" lon="12.305204219682395"><ele>292.3333333333333</ele><time>2026-04-26T06:41:40.019Z</time></trkpt><trkpt lat="44.03861526008607" lon="12.305109209971882"><ele>291.6666666666667</ele><time>2026-04-26T06:41:41.019Z</time></trkpt><trkpt lat="44.038613240804395" lon="12.305002301887294"><ele>291.0</ele><time>2026-04-26T06:41:42.019Z</time></trkpt><trkpt lat="44.03859847305279" lon="12.304837190634661"><ele>292.0</ele><time>2026-04-26T06:41:44.019Z</time></trkpt><trkpt lat="44.0385798639805" lon="12.304732859709992"><ele>293.0</ele><time>2026-04-26T06:41:45.019Z</time></trkpt><trkpt lat="44.03855628377555" lon="12.304608866143901"><ele>294.0</ele><time>2026-04-26T06:41:46.019Z</time></trkpt><trkpt lat="44.03854585364039" lon="12.304459129442908"><ele>295.0</ele><time>2026-04-26T06:41:47.019Z</time></trkpt><trkpt lat="44.038536261349876" lon="12.304301543802577"><ele>296.0</ele><time>2026-04-26T06:41:48.019Z</time></trkpt><trkpt lat="44.03852942916389" lon="12.30412392184732"><ele>296.0</ele><time>2026-04-26T06:41:49.019Z</time></trkpt><trkpt lat="44.038528973062064" lon="12.30394929954533"><ele>296.0</ele><time>2026-04-26T06:41:50.019Z</time></trkpt><trkpt lat="44.03853131222619" lon="12.303767637264952"><ele>296.0</ele><time>2026-04-26T06:41:51.019Z</time></trkpt><trkpt lat="44.03852012811845" lon="12.30359205974302"><ele>296.0</ele><time>2026-04-26T06:41:52.019Z</time></trkpt><trkpt lat="44.038489832355566" lon="12.30343415990173"><ele>295.75</ele><time>2026-04-26T06:41:53.019Z</time></trkpt><trkpt lat="44.03845051779093" lon="12.303272337814802"><ele>295.5</ele><time>2026-04-26T06:41:54.019Z</time></trkpt><trkpt lat="44.0384025033277" lon="12.303102243614932"><ele>295.25</ele><time>2026-04-26T06:41:55.019Z</time></trkpt><trkpt lat="44.03837883986517" lon="12.302937347978775"><ele>295.0</ele><time>2026-04-26T06:41:56.019Z</time></trkpt><trkpt lat="44.03838640575406" lon="12.3027479775254"><ele>295.3333333333333</ele><time>2026-04-26T06:41:57.019Z</time></trkpt><trkpt lat="44.03841156493928" lon="12.302548601405775"><ele>295.6666666666667</ele><time>2026-04-26T06:41:58.019Z</time></trkpt><trkpt lat="44.03845467662925" lon="12.302341240779905"><ele>296.0</ele><time>2026-04-26T06:41:59.019Z</time></trkpt><trkpt lat="44.03849360926258" lon="12.302128997461926"><ele>296.0</ele><time>2026-04-26T06:42:00.019Z</time></trkpt><trkpt lat="44.03852889150249" lon="12.301933199069621"><ele>296.0</ele><time>2026-04-26T06:42:01.019Z</time></trkpt><trkpt lat="44.03857711522549" lon="12.301752035198673"><ele>296.0</ele><time>2026-04-26T06:42:02.019Z</time></trkpt><trkpt lat="44.03863395190817" lon="12.301582520220443"><ele>296.0</ele><time>2026-04-26T06:42:03.019Z</time></trkpt><trkpt lat="44.03869681685471" lon="12.301427704217796"><ele>296.5</ele><time>2026-04-26T06:42:04.019Z</time></trkpt><trkpt lat="44.038789586569834" lon="12.301288404823277"><ele>297.0</ele><time>2026-04-26T06:42:05.019Z</time></trkpt><trkpt lat="44.03890224996579" lon="12.301173224271615"><ele>297.5</ele><time>2026-04-26T06:42:06.019Z</time></trkpt><trkpt lat="44.039022596859915" lon="12.301056667731874"><ele>298.0</ele><time>2026-04-26T06:42:07.019Z</time></trkpt><trkpt lat="44.039144215807696" lon="12.300907035260662"><ele>298.0</ele><time>2026-04-26T06:42:08.019Z</time></trkpt><trkpt lat="44.03924897722493" lon="12.300751173383604"><ele>298.0</ele><time>2026-04-26T06:42:09.019Z</time></trkpt><trkpt lat="44.039346594791084" lon="12.30059407853564"><ele>298.0</ele><time>2026-04-26T06:42:10.019Z</time></trkpt><trkpt lat="44.03943101356725" lon="12.300430775516952"><ele>298.0</ele><time>2026-04-26T06:42:11.019Z</time></trkpt><trkpt lat="44.039501323715214" lon="12.300276039048965"><ele>294.75</ele><time>2026-04-26T06:42:12.019Z</time></trkpt><trkpt lat="44.039556256713844" lon="12.300129322571241"><ele>291.5</ele><time>2026-04-26T06:42:13.019Z</time></trkpt><trkpt lat="44.03958446766697" lon="12.299978905607368"><ele>288.25</ele><time>2026-04-26T06:42:14.019Z</time></trkpt><trkpt lat="44.03956301170888" lon="12.299834199249664"><ele>285.0</ele><time>2026-04-26T06:42:15.019Z</time></trkpt><trkpt lat="44.039490549551275" lon="12.299694977464062"><ele>285.0</ele><time>2026-04-26T06:42:16.019Z</time></trkpt><trkpt lat="44.039388533971824" lon="12.29957337113723"><ele>285.0</ele><time>2026-04-26T06:42:17.019Z</time></trkpt><trkpt lat="44.03927674379549" lon="12.299472273588206"><ele>285.0</ele><time>2026-04-26T06:42:18.019Z</time></trkpt><trkpt lat="44.039167410328716" lon="12.29935536959359"><ele>285.0</ele><time>2026-04-26T06:42:19.019Z</time></trkpt><trkpt lat="44.03909906785457" lon="12.299206119424564"><ele>284.6</ele><time>2026-04-26T06:42:20.019Z</time></trkpt><trkpt lat="44.03902863096665" lon="12.299088494599475"><ele>284.2</ele><time>2026-04-26T06:42:21.019Z</time></trkpt><trkpt lat="44.039004760770624" lon="12.298951864067144"><ele>283.8</ele><time>2026-04-26T06:42:22.019Z</time></trkpt><trkpt lat="44.03900758807997" lon="12.298804233571312"><ele>283.4</ele><time>2026-04-26T06:42:23.019Z</time></trkpt><trkpt lat="44.039050317267055" lon="12.298652525048155"><ele>283.0</ele><time>2026-04-26T06:42:24.019Z</time></trkpt><trkpt lat="44.03915608837752" lon="12.298562196842573"><ele>283.0</ele><time>2026-04-26T06:42:25.019Z</time></trkpt><trkpt lat="44.039273665502826" lon="12.298469226888988"><ele>283.0</ele><time>2026-04-26T06:42:26.019Z</time></trkpt><trkpt lat="44.03940964608077" lon="12.29836375639602"><ele>283.0</ele><time>2026-04-26T06:42:27.019Z</time></trkpt><trkpt lat="44.03953310375793" lon="12.298235553611102"><ele>283.0</ele><time>2026-04-26T06:42:28.019Z</time></trkpt><trkpt lat="44.03965532181923" lon="12.298111830585388"><ele>282.2</ele><time>2026-04-26T06:42:29.019Z</time></trkpt><trkpt lat="44.03975669267307" lon="12.297992106505603"><ele>281.4</ele><time>2026-04-26T06:42:30.019Z</time></trkpt><trkpt lat="44.03985190758672" lon="12.297917002339315"><ele>280.59999999999997</ele><time>2026-04-26T06:42:31.019Z</time></trkpt><trkpt lat="44.0399376795784" lon="12.297863899355045"><ele>279.8</ele><time>2026-04-26T06:42:32.019Z</time></trkpt><trkpt lat="44.040040940129856" lon="12.29782718469362"><ele>279.0</ele><time>2026-04-26T06:42:33.019Z</time></trkpt><trkpt lat="44.04015319208461" lon="12.29778457591116"><ele>279.0</ele><time>2026-04-26T06:42:34.019Z</time></trkpt><trkpt lat="44.04025683167139" lon="12.297753339087533"><ele>279.0</ele><time>2026-04-26T06:42:35.019Z</time></trkpt><trkpt lat="44.04033697542348" lon="12.297722198294519"><ele>279.0</ele><time>2026-04-26T06:42:36.019Z</time></trkpt><trkpt lat="44.04038780044681" lon="12.297649002654333"><ele>279.0</ele><time>2026-04-26T06:42:37.019Z</time></trkpt><trkpt lat="44.040411652899714" lon="12.297556683864165"><ele>279.0</ele><time>2026-04-26T06:42:38.019Z</time></trkpt><trkpt lat="44.04038852449077" lon="12.297402529565286"><ele>279.0</ele><time>2026-04-26T06:42:40.019Z</time></trkpt><trkpt lat="44.04026090767666" lon="12.297345354523651"><ele>279.0</ele><time>2026-04-26T06:42:41.019Z</time></trkpt><trkpt lat="44.04014288281677" lon="12.297262430116758"><ele>279.0</ele><time>2026-04-26T06:42:42.019Z</time></trkpt><trkpt lat="44.04000148103043" lon="12.297167724814258"><ele>279.0</ele><time>2026-04-26T06:42:43.019Z</time></trkpt><trkpt lat="44.0398497123104" lon="12.297073742690612"><ele>276.3333333333333</ele><time>2026-04-26T06:42:44.019Z</time></trkpt><trkpt lat="44.03971368836474" lon="12.296941811229718"><ele>273.66666666666663</ele><time>2026-04-26T06:42:45.019Z</time></trkpt><trkpt lat="44.03957609399278" lon="12.296821057895105"><ele>271.0</ele><time>2026-04-26T06:42:46.019Z</time></trkpt><trkpt lat="44.0394326981332" lon="12.29671667482414"><ele>271.0</ele><time>2026-04-26T06:42:47.019Z</time></trkpt><trkpt lat="44.03930137689012" lon="12.29659312019497"><ele>271.0</ele><time>2026-04-26T06:42:48.019Z</time></trkpt><trkpt lat="44.03917642852257" lon="12.296478567005671"><ele>271.0</ele><time>2026-04-26T06:42:49.019Z</time></trkpt><trkpt lat="44.03906823654747" lon="12.296334746676097"><ele>269.75</ele><time>2026-04-26T06:42:50.019Z</time></trkpt><trkpt lat="44.03896269084047" lon="12.296196875565212"><ele>268.5</ele><time>2026-04-26T06:42:51.019Z</time></trkpt><trkpt lat="44.038854963890316" lon="12.296056608034082"><ele>267.25</ele><time>2026-04-26T06:42:52.019Z</time></trkpt><trkpt lat="44.038757152725694" lon="12.295924593292503"><ele>266.0</ele><time>2026-04-26T06:42:53.019Z</time></trkpt><trkpt lat="44.038668790632684" lon="12.29578669138239"><ele>266.0</ele><time>2026-04-26T06:42:54.019Z</time></trkpt><trkpt lat="44.038595345198644" lon="12.295654096200181"><ele>266.0</ele><time>2026-04-26T06:42:55.019Z</time></trkpt><trkpt lat="44.03852513147281" lon="12.29551994635283"><ele>266.0</ele><time>2026-04-26T06:42:56.019Z</time></trkpt><trkpt lat="44.03844862768095" lon="12.295371916935371"><ele>266.0</ele><time>2026-04-26T06:42:57.019Z</time></trkpt><trkpt lat="44.03836883119266" lon="12.295211328518853"><ele>262.6666666666667</ele><time>2026-04-26T06:42:58.019Z</time></trkpt><trkpt lat="44.03826740901602" lon="12.295040662992625"><ele>259.3333333333333</ele><time>2026-04-26T06:42:59.019Z</time></trkpt><trkpt lat="44.03818292559233" lon="12.294839225353849"><ele>256.0</ele><time>2026-04-26T06:43:00.019Z</time></trkpt><trkpt lat="44.03808986745928" lon="12.29463258673714"><ele>256.0</ele><time>2026-04-26T06:43:01.019Z</time></trkpt><trkpt lat="44.0379995024416" lon="12.294413025291611"><ele>256.0</ele><time>2026-04-26T06:43:02.019Z</time></trkpt><trkpt lat="44.03790537282085" lon="12.294193682214656"><ele>256.0</ele><time>2026-04-26T06:43:03.019Z</time></trkpt><trkpt lat="44.03781178378412" lon="12.29397910588475"><ele>259.3333333333333</ele><time>2026-04-26T06:43:04.019Z</time></trkpt><trkpt lat="44.03772692975435" lon="12.293778815670715"><ele>262.6666666666667</ele><time>2026-04-26T06:43:05.019Z</time></trkpt><trkpt lat="44.03764521681833" lon="12.293591940972359"><ele>266.0</ele><time>2026-04-26T06:43:06.019Z</time></trkpt><trkpt lat="44.03756788409298" lon="12.293411577010131"><ele>266.0</ele><time>2026-04-26T06:43:07.02Z</time></trkpt><trkpt lat="44.03749540018436" lon="12.293259062475247"><ele>266.0</ele><time>2026-04-26T06:43:08.02Z</time></trkpt><trkpt lat="44.03742540334472" lon="12.293118030877073"><ele>266.0</ele><time>2026-04-26T06:43:09.02Z</time></trkpt><trkpt lat="44.03734612994045" lon="12.292971440361642"><ele>266.0</ele><time>2026-04-26T06:43:10.02Z</time></trkpt><trkpt lat="44.0372578134584" lon="12.292798244392946"><ele>263.0</ele><time>2026-04-26T06:43:11.02Z</time></trkpt><trkpt lat="44.037131002991444" lon="12.292659690369408"><ele>260.0</ele><time>2026-04-26T06:43:12.02Z</time></trkpt><trkpt lat="44.036997653724626" lon="12.292517395303538"><ele>257.0</ele><time>2026-04-26T06:43:13.02Z</time></trkpt><trkpt lat="44.036862877235016" lon="12.29240722879914"><ele>257.0</ele><time>2026-04-26T06:43:14.02Z</time></trkpt><trkpt lat="44.03671992098017" lon="12.29234344183981"><ele>257.0</ele><time>2026-04-26T06:43:15.02Z</time></trkpt><trkpt lat="44.03656495141224" lon="12.292333049799995"><ele>257.0</ele><time>2026-04-26T06:43:16.02Z</time></trkpt><trkpt lat="44.03640997544994" lon="12.292358851424611"><ele>254.33333333333334</ele><time>2026-04-26T06:43:17.02Z</time></trkpt><trkpt lat="44.036257523923325" lon="12.292407882104074"><ele>251.66666666666669</ele><time>2026-04-26T06:43:18.02Z</time></trkpt><trkpt lat="44.03610049356355" lon="12.292473535010169"><ele>249.0</ele><time>2026-04-26T06:43:19.02Z</time></trkpt><trkpt lat="44.0359480670076" lon="12.292524564796562"><ele>249.0</ele><time>2026-04-26T06:43:20.02Z</time></trkpt><trkpt lat="44.03580919642458" lon="12.292598084399243"><ele>249.0</ele><time>2026-04-26T06:43:21.02Z</time></trkpt><trkpt lat="44.03567445701126" lon="12.292728854118561"><ele>249.0</ele><time>2026-04-26T06:43:22.02Z</time></trkpt><trkpt lat="44.03553389981574" lon="12.292889034683522"><ele>248.66666666666669</ele><time>2026-04-26T06:43:23.02Z</time></trkpt><trkpt lat="44.03539648560969" lon="12.293034697560858"><ele>248.33333333333334</ele><time>2026-04-26T06:43:24.02Z</time></trkpt><trkpt lat="44.03524817418285" lon="12.293152759382153"><ele>248.0</ele><time>2026-04-26T06:43:25.02Z</time></trkpt><trkpt lat="44.035093162648586" lon="12.293241058406391"><ele>245.33333333333334</ele><time>2026-04-26T06:43:26.02Z</time></trkpt><trkpt lat="44.03492607709262" lon="12.293313620638743"><ele>242.66666666666669</ele><time>2026-04-26T06:43:27.02Z</time></trkpt><trkpt lat="44.03477088734328" lon="12.293360120615802"><ele>240.0</ele><time>2026-04-26T06:43:28.019Z</time></trkpt><trkpt lat="44.03461476698812" lon="12.293390418190981"><ele>240.0</ele><time>2026-04-26T06:43:29.019Z</time></trkpt><trkpt lat="44.03445891177358" lon="12.293435843717718"><ele>240.0</ele><time>2026-04-26T06:43:30.019Z</time></trkpt><trkpt lat="44.034298470252615" lon="12.293479914424978"><ele>240.0</ele><time>2026-04-26T06:43:31.018Z</time></trkpt><trkpt lat="44.034147183342036" lon="12.293532657901382"><ele>239.33333333333331</ele><time>2026-04-26T06:43:32.019Z</time></trkpt><trkpt lat="44.03399849005319" lon="12.293615256707625"><ele>238.66666666666666</ele><time>2026-04-26T06:43:33.019Z</time></trkpt><trkpt lat="44.03385266270874" lon="12.293738648328906"><ele>238.0</ele><time>2026-04-26T06:43:34.019Z</time></trkpt><trkpt lat="44.03372070637252" lon="12.293914888324876"><ele>238.66666666666666</ele><time>2026-04-26T06:43:35.018Z</time></trkpt><trkpt lat="44.033587878161256" lon="12.294079834126265"><ele>239.33333333333331</ele><time>2026-04-26T06:43:36.018Z</time></trkpt><trkpt lat="44.03344033494748" lon="12.294241475719783"><ele>240.0</ele><time>2026-04-26T06:43:37.019Z</time></trkpt><trkpt lat="44.03329555737554" lon="12.294374885598275"><ele>240.0</ele><time>2026-04-26T06:43:38.019Z</time></trkpt><trkpt lat="44.03315565479308" lon="12.2944963546032"><ele>240.0</ele><time>2026-04-26T06:43:39.019Z</time></trkpt><trkpt lat="44.033028491245354" lon="12.294630300421137"><ele>240.0</ele><time>2026-04-26T06:43:40.018Z</time></trkpt><trkpt lat="44.03291579208815" lon="12.294802753570071"><ele>238.0</ele><time>2026-04-26T06:43:41.019Z</time></trkpt><trkpt lat="44.03284638538059" lon="12.295020957977625"><ele>236.0</ele><time>2026-04-26T06:43:42.019Z</time></trkpt><trkpt lat="44.032769907638055" lon="12.295225754528106"><ele>234.0</ele><time>2026-04-26T06:43:43.019Z</time></trkpt><trkpt lat="44.032727884564004" lon="12.295408274498822"><ele>234.0</ele><time>2026-04-26T06:43:44.019Z</time></trkpt><trkpt lat="44.03266910337268" lon="12.295546749502597"><ele>234.0</ele><time>2026-04-26T06:43:45.019Z</time></trkpt><trkpt lat="44.032589133912666" lon="12.295657517119261"><ele>234.0</ele><time>2026-04-26T06:43:46.019Z</time></trkpt><trkpt lat="44.032465680488734" lon="12.295735338406503"><ele>234.0</ele><time>2026-04-26T06:43:47.019Z</time></trkpt><trkpt lat="44.032323682656575" lon="12.295724629994067"><ele>234.0</ele><time>2026-04-26T06:43:48.019Z</time></trkpt><trkpt lat="44.03217482844399" lon="12.295718698847699"><ele>234.0</ele><time>2026-04-26T06:43:49.019Z</time></trkpt><trkpt lat="44.03201698031197" lon="12.295697364435581"><ele>234.0</ele><time>2026-04-26T06:43:50.019Z</time></trkpt><trkpt lat="44.031865019433475" lon="12.295652547018681"><ele>234.0</ele><time>2026-04-26T06:43:51.019Z</time></trkpt><trkpt lat="44.0317277596167" lon="12.29558859222646"><ele>234.0</ele><time>2026-04-26T06:43:52.019Z</time></trkpt><trkpt lat="44.03159698399476" lon="12.295517359255363"><ele>234.0</ele><time>2026-04-26T06:43:53.019Z</time></trkpt><trkpt lat="44.031463466461155" lon="12.2954434114043"><ele>234.0</ele><time>2026-04-26T06:43:54.019Z</time></trkpt><trkpt lat="44.03132744054803" lon="12.29538801453132"><ele>238.25</ele><time>2026-04-26T06:43:55.019Z</time></trkpt><trkpt lat="44.03119232075192" lon="12.295332770200167"><ele>242.5</ele><time>2026-04-26T06:43:56.019Z</time></trkpt><trkpt lat="44.03105859162398" lon="12.295288112453905"><ele>246.75</ele><time>2026-04-26T06:43:57.019Z</time></trkpt><trkpt lat="44.030934351379905" lon="12.295281048037303"><ele>251.0</ele><time>2026-04-26T06:43:58.019Z</time></trkpt><trkpt lat="44.03081594861243" lon="12.295332664807567"><ele>252.5</ele><time>2026-04-26T06:43:59.019Z</time></trkpt><trkpt lat="44.03071148761989" lon="12.295430391096474"><ele>254.0</ele><time>2026-04-26T06:44:00.019Z</time></trkpt><trkpt lat="44.03061837205221" lon="12.295561680674618"><ele>255.5</ele><time>2026-04-26T06:44:01.019Z</time></trkpt><trkpt lat="44.03054488808906" lon="12.2957176365937"><ele>257.0</ele><time>2026-04-26T06:44:02.019Z</time></trkpt><trkpt lat="44.03052287079426" lon="12.2959125340069"><ele>257.0</ele><time>2026-04-26T06:44:03.019Z</time></trkpt><trkpt lat="44.03047487954484" lon="12.296115878921293"><ele>257.0</ele><time>2026-04-26T06:44:04.019Z</time></trkpt><trkpt lat="44.030466765672806" lon="12.296340990084488"><ele>257.0</ele><time>2026-04-26T06:44:05.019Z</time></trkpt><trkpt lat="44.030451999013664" lon="12.296531020542334"><ele>256.4</ele><time>2026-04-26T06:44:06.019Z</time></trkpt><trkpt lat="44.03043364163525" lon="12.29667589789768"><ele>255.79999999999998</ele><time>2026-04-26T06:44:07.019Z</time></trkpt><trkpt lat="44.03040947396867" lon="12.296801914365654"><ele>255.2</ele><time>2026-04-26T06:44:08.019Z</time></trkpt><trkpt lat="44.030367018326864" lon="12.296933006741874"><ele>254.6</ele><time>2026-04-26T06:44:09.019Z</time></trkpt><trkpt lat="44.03029705365299" lon="12.297062921332406"><ele>254.0</ele><time>2026-04-26T06:44:10.019Z</time></trkpt><trkpt lat="44.03019809944639" lon="12.297186398382587"><ele>250.66666666666669</ele><time>2026-04-26T06:44:11.019Z</time></trkpt><trkpt lat="44.03007417968654" lon="12.29730300578678"><ele>247.33333333333331</ele><time>2026-04-26T06:44:12.019Z</time></trkpt><trkpt lat="44.02992909381131" lon="12.29741543596946"><ele>244.0</ele><time>2026-04-26T06:44:13.019Z</time></trkpt><trkpt lat="44.029783693267" lon="12.297521779039249"><ele>242.75</ele><time>2026-04-26T06:44:14.019Z</time></trkpt><trkpt lat="44.02964909229674" lon="12.297621667250619"><ele>241.5</ele><time>2026-04-26T06:44:15.019Z</time></trkpt><trkpt lat="44.029523378072824" lon="12.297712490900105"><ele>240.25</ele><time>2026-04-26T06:44:16.019Z</time></trkpt><trkpt lat="44.02940223903308" lon="12.297800611994289"><ele>239.0</ele><time>2026-04-26T06:44:17.019Z</time></trkpt><trkpt lat="44.0293009557554" lon="12.297883696251112"><ele>239.0</ele><time>2026-04-26T06:44:18.019Z</time></trkpt><trkpt lat="44.02921030439206" lon="12.297982892590083"><ele>239.0</ele><time>2026-04-26T06:44:19.019Z</time></trkpt><trkpt lat="44.02913320090517" lon="12.298121612089783"><ele>239.0</ele><time>2026-04-26T06:44:20.019Z</time></trkpt><trkpt lat="44.02905804119942" lon="12.298283033428937"><ele>239.0</ele><time>2026-04-26T06:44:21.019Z</time></trkpt><trkpt lat="44.028985957997264" lon="12.298447564378346"><ele>237.75</ele><time>2026-04-26T06:44:22.019Z</time></trkpt><trkpt lat="44.02891634383971" lon="12.29860688963946"><ele>236.5</ele><time>2026-04-26T06:44:23.019Z</time></trkpt><trkpt lat="44.028834720528764" lon="12.298743719206032"><ele>235.25</ele><time>2026-04-26T06:44:24.019Z</time></trkpt><trkpt lat="44.02874094098069" lon="12.298853526729642"><ele>234.0</ele><time>2026-04-26T06:44:25.019Z</time></trkpt><trkpt lat="44.028626514496196" lon="12.298944969288803"><ele>234.0</ele><time>2026-04-26T06:44:26.019Z</time></trkpt><trkpt lat="44.02848757176258" lon="12.29902002052566"><ele>234.0</ele><time>2026-04-26T06:44:27.019Z</time></trkpt><trkpt lat="44.028329682338935" lon="12.299085072164408"><ele>234.0</ele><time>2026-04-26T06:44:28.019Z</time></trkpt><trkpt lat="44.028183556762606" lon="12.299157664165943"><ele>229.25</ele><time>2026-04-26T06:44:29.019Z</time></trkpt><trkpt lat="44.02805518232829" lon="12.299222004861912"><ele>224.5</ele><time>2026-04-26T06:44:30.019Z</time></trkpt><trkpt lat="44.027944136360524" lon="12.299305974829597"><ele>219.75</ele><time>2026-04-26T06:44:31.019Z</time></trkpt><trkpt lat="44.027847118242754" lon="12.299394661681287"><ele>215.0</ele><time>2026-04-26T06:44:32.019Z</time></trkpt><trkpt lat="44.027753307354544" lon="12.299518131749217"><ele>215.0</ele><time>2026-04-26T06:44:33.019Z</time></trkpt><trkpt lat="44.02766805131971" lon="12.299678572584318"><ele>215.0</ele><time>2026-04-26T06:44:34.019Z</time></trkpt><trkpt lat="44.02758680952566" lon="12.299852442518775"><ele>215.0</ele><time>2026-04-26T06:44:35.019Z</time></trkpt><trkpt lat="44.02750107945602" lon="12.30004785861437"><ele>212.66666666666669</ele><time>2026-04-26T06:44:36.019Z</time></trkpt><trkpt lat="44.027424575715486" lon="12.300243690165152"><ele>210.33333333333331</ele><time>2026-04-26T06:44:37.019Z</time></trkpt><trkpt lat="44.027348596688746" lon="12.3004480394244"><ele>208.0</ele><time>2026-04-26T06:44:38.019Z</time></trkpt><trkpt lat="44.02727785033356" lon="12.300640119441217"><ele>208.0</ele><time>2026-04-26T06:44:39.019Z</time></trkpt><trkpt lat="44.02720224650119" lon="12.300835648196303"><ele>208.0</ele><time>2026-04-26T06:44:40.019Z</time></trkpt><trkpt lat="44.02713318535195" lon="12.301030903042593"><ele>208.0</ele><time>2026-04-26T06:44:41.019Z</time></trkpt><trkpt lat="44.02707807097372" lon="12.301222670193686"><ele>208.0</ele><time>2026-04-26T06:44:42.019Z</time></trkpt><trkpt lat="44.02702828533828" lon="12.301410428845188"><ele>208.0</ele><time>2026-04-26T06:44:43.019Z</time></trkpt><trkpt lat="44.02698689379405" lon="12.301604596085973"><ele>208.0</ele><time>2026-04-26T06:44:44.019Z</time></trkpt><trkpt lat="44.02694760126449" lon="12.301813424996904"><ele>208.0</ele><time>2026-04-26T06:44:45.019Z</time></trkpt><trkpt lat="44.02690927459172" lon="12.302033088800847"><ele>207.33333333333331</ele><time>2026-04-26T06:44:46.019Z</time></trkpt><trkpt lat="44.0268699199779" lon="12.302265119910908"><ele>206.66666666666669</ele><time>2026-04-26T06:44:47.019Z</time></trkpt><trkpt lat="44.026833752336536" lon="12.302478830357472"><ele>206.0</ele><time>2026-04-26T06:44:48.019Z</time></trkpt><trkpt lat="44.02680490720836" lon="12.302675479323804"><ele>206.0</ele><time>2026-04-26T06:44:49.019Z</time></trkpt><trkpt lat="44.026775130193116" lon="12.302843121810248"><ele>206.0</ele><time>2026-04-26T06:44:50.019Z</time></trkpt><trkpt lat="44.026745810501225" lon="12.302979766674246"><ele>206.0</ele><time>2026-04-26T06:44:51.019Z</time></trkpt><trkpt lat="44.0267013045099" lon="12.30309040150018"><ele>206.0</ele><time>2026-04-26T06:44:52.019Z</time></trkpt><trkpt lat="44.02663969517665" lon="12.303180382448778"><ele>206.0</ele><time>2026-04-26T06:44:53.019Z</time></trkpt><trkpt lat="44.02656055868342" lon="12.303239594849448"><ele>202.75</ele><time>2026-04-26T06:44:54.019Z</time></trkpt><trkpt lat="44.02646171043359" lon="12.303252808195516"><ele>199.5</ele><time>2026-04-26T06:44:55.019Z</time></trkpt><trkpt lat="44.02635956557273" lon="12.303208393705125"><ele>196.25</ele><time>2026-04-26T06:44:56.019Z</time></trkpt><trkpt lat="44.02629406274141" lon="12.30306613071954"><ele>193.0</ele><time>2026-04-26T06:44:57.019Z</time></trkpt><trkpt lat="44.026222518767575" lon="12.302918152180794"><ele>193.0</ele><time>2026-04-26T06:44:58.019Z</time></trkpt><trkpt lat="44.02613429254025" lon="12.302749797832831"><ele>193.0</ele><time>2026-04-26T06:44:59.02Z</time></trkpt><trkpt lat="44.026058802800044" lon="12.302558835764321"><ele>193.0</ele><time>2026-04-26T06:45:00.02Z</time></trkpt><trkpt lat="44.02597290441855" lon="12.302370058672624"><ele>193.33333333333331</ele><time>2026-04-26T06:45:01.02Z</time></trkpt><trkpt lat="44.0258777731924" lon="12.302171358460143"><ele>193.66666666666669</ele><time>2026-04-26T06:45:02.02Z</time></trkpt><trkpt lat="44.025777808963014" lon="12.301960121814677"><ele>194.0</ele><time>2026-04-26T06:45:03.02Z</time></trkpt><trkpt lat="44.025686481211785" lon="12.301756795189355"><ele>190.66666666666669</ele><time>2026-04-26T06:45:04.02Z</time></trkpt><trkpt lat="44.02559447567549" lon="12.30155540350844"><ele>187.33333333333334</ele><time>2026-04-26T06:45:05.02Z</time></trkpt><trkpt lat="44.02550511115272" lon="12.301354626611108"><ele>184.0</ele><time>2026-04-26T06:45:06.02Z</time></trkpt><trkpt lat="44.02541560854781" lon="12.30115230202742"><ele>183.5</ele><time>2026-04-26T06:45:07.02Z</time></trkpt><trkpt lat="44.02533136590136" lon="12.30095829810132"><ele>183.0</ele><time>2026-04-26T06:45:08.02Z</time></trkpt><trkpt lat="44.02525639727392" lon="12.300780406567585"><ele>182.5</ele><time>2026-04-26T06:45:09.02Z</time></trkpt><trkpt lat="44.02521996798886" lon="12.30060424594766"><ele>182.0</ele><time>2026-04-26T06:45:10.02Z</time></trkpt><trkpt lat="44.025194736941266" lon="12.300439867090502"><ele>180.75</ele><time>2026-04-26T06:45:11.02Z</time></trkpt><trkpt lat="44.025191461976654" lon="12.300282162965981"><ele>179.5</ele><time>2026-04-26T06:45:12.02Z</time></trkpt><trkpt lat="44.025206703634275" lon="12.300116965983054"><ele>178.25</ele><time>2026-04-26T06:45:13.02Z</time></trkpt><trkpt lat="44.02522774235362" lon="12.299933194725087"><ele>177.0</ele><time>2026-04-26T06:45:14.02Z</time></trkpt><trkpt lat="44.025245585097814" lon="12.299735706036387"><ele>175.66666666666666</ele><time>2026-04-26T06:45:15.02Z</time></trkpt><trkpt lat="44.02525114929233" lon="12.299525493796324"><ele>174.33333333333331</ele><time>2026-04-26T06:45:16.02Z</time></trkpt><trkpt lat="44.025229802507695" lon="12.29931540000442"><ele>173.0</ele><time>2026-04-26T06:45:17.02Z</time></trkpt><trkpt lat="44.025202657708725" lon="12.29908535692217"><ele>173.0</ele><time>2026-04-26T06:45:18.02Z</time></trkpt><trkpt lat="44.02519059624569" lon="12.298850957560012"><ele>173.0</ele><time>2026-04-26T06:45:19.02Z</time></trkpt><trkpt lat="44.025134201110596" lon="12.298633284727323"><ele>173.0</ele><time>2026-04-26T06:45:20.02Z</time></trkpt><trkpt lat="44.02507631188167" lon="12.29841405045449"><ele>173.0</ele><time>2026-04-26T06:45:21.02Z</time></trkpt><trkpt lat="44.025006063735404" lon="12.298193170320745"><ele>173.0</ele><time>2026-04-26T06:45:22.02Z</time></trkpt><trkpt lat="44.02493265305839" lon="12.29797488215446"><ele>173.0</ele><time>2026-04-26T06:45:23.02Z</time></trkpt><trkpt lat="44.024855165431624" lon="12.297747497755863"><ele>171.66666666666666</ele><time>2026-04-26T06:45:24.02Z</time></trkpt><trkpt lat="44.02477919664784" lon="12.29752650647499"><ele>170.33333333333334</ele><time>2026-04-26T06:45:25.02Z</time></trkpt><trkpt lat="44.02470291137561" lon="12.297304769955261"><ele>169.0</ele><time>2026-04-26T06:45:26.02Z</time></trkpt><trkpt lat="44.02462440401854" lon="12.297095801580458"><ele>169.0</ele><time>2026-04-26T06:45:27.02Z</time></trkpt><trkpt lat="44.02455233209923" lon="12.296890748998166"><ele>169.0</ele><time>2026-04-26T06:45:28.02Z</time></trkpt><trkpt lat="44.024487952726766" lon="12.296699309163477"><ele>169.0</ele><time>2026-04-26T06:45:29.02Z</time></trkpt><trkpt lat="44.0244340895722" lon="12.296528721466775"><ele>169.39999999999998</ele><time>2026-04-26T06:45:30.02Z</time></trkpt><trkpt lat="44.024387437612695" lon="12.29638557784902"><ele>169.8</ele><time>2026-04-26T06:45:31.02Z</time></trkpt><trkpt lat="44.02435192879501" lon="12.296256440064074"><ele>170.2</ele><time>2026-04-26T06:45:32.02Z</time></trkpt><trkpt lat="44.02433968170316" lon="12.296108573578097"><ele>170.60000000000002</ele><time>2026-04-26T06:45:33.02Z</time></trkpt><trkpt lat="44.02430951958885" lon="12.295948329885725"><ele>171.0</ele><time>2026-04-26T06:45:34.019Z</time></trkpt><trkpt lat="44.02435262874403" lon="12.295788535554237"><ele>171.0</ele><time>2026-04-26T06:45:35.019Z</time></trkpt><trkpt lat="44.02438880509424" lon="12.295613349021819"><ele>171.0</ele><time>2026-04-26T06:45:36.019Z</time></trkpt><trkpt lat="44.02440584780125" lon="12.295451991108477"><ele>171.0</ele><time>2026-04-26T06:45:37.019Z</time></trkpt><trkpt lat="44.02442639458967" lon="12.295337692817105"><ele>171.0</ele><time>2026-04-26T06:45:38.019Z</time></trkpt><trkpt lat="44.02440027697987" lon="12.295243396568603"><ele>171.0</ele><time>2026-04-26T06:45:39.019Z</time></trkpt><trkpt lat="44.02435702514568" lon="12.295153212533746"><ele>171.75</ele><time>2026-04-26T06:45:40.019Z</time></trkpt><trkpt lat="44.02424150108977" lon="12.295124403526426"><ele>172.5</ele><time>2026-04-26T06:45:41.019Z</time></trkpt><trkpt lat="44.02413929482029" lon="12.295135261086747"><ele>173.25</ele><time>2026-04-26T06:45:42.019Z</time></trkpt><trkpt lat="44.02402124512401" lon="12.295178354610501"><ele>174.0</ele><time>2026-04-26T06:45:43.019Z</time></trkpt><trkpt lat="44.02389188706368" lon="12.295230688338627"><ele>174.75</ele><time>2026-04-26T06:45:44.018Z</time></trkpt><trkpt lat="44.023751696766325" lon="12.295268915627009"><ele>175.5</ele><time>2026-04-26T06:45:45.018Z</time></trkpt><trkpt lat="44.023603466375306" lon="12.295288253445984"><ele>176.25</ele><time>2026-04-26T06:45:46.019Z</time></trkpt><trkpt lat="44.02346172404393" lon="12.295302005388836"><ele>177.0</ele><time>2026-04-26T06:45:47.019Z</time></trkpt><trkpt lat="44.02330368252281" lon="12.295318461841532"><ele>178.66666666666666</ele><time>2026-04-26T06:45:48.019Z</time></trkpt><trkpt lat="44.02313741345656" lon="12.295332416048298"><ele>180.33333333333331</ele><time>2026-04-26T06:45:49.019Z</time></trkpt><trkpt lat="44.02296807549895" lon="12.295331796845025"><ele>182.0</ele><time>2026-04-26T06:45:50.019Z</time></trkpt><trkpt lat="44.022801912395046" lon="12.29532848304655"><ele>182.0</ele><time>2026-04-26T06:45:51.019Z</time></trkpt><trkpt lat="44.02264614865057" lon="12.295317838157438"><ele>182.0</ele><time>2026-04-26T06:45:52.019Z</time></trkpt><trkpt lat="44.0225123488" lon="12.295299674205943"><ele>182.0</ele><time>2026-04-26T06:45:53.019Z</time></trkpt><trkpt lat="44.02238140537275" lon="12.295280431098835"><ele>182.0</ele><time>2026-04-26T06:45:54.019Z</time></trkpt><trkpt lat="44.0222441278025" lon="12.2952664856973"><ele>183.66666666666666</ele><time>2026-04-26T06:45:55.019Z</time></trkpt><trkpt lat="44.02209898258111" lon="12.29526846168738"><ele>185.33333333333334</ele><time>2026-04-26T06:45:56.019Z</time></trkpt><trkpt lat="44.0219515503143" lon="12.295299582246715"><ele>187.0</ele><time>2026-04-26T06:45:57.019Z</time></trkpt><trkpt lat="44.021800492786426" lon="12.295369359828863"><ele>187.0</ele><time>2026-04-26T06:45:58.019Z</time></trkpt><trkpt lat="44.02165962685807" lon="12.295451622410585"><ele>187.0</ele><time>2026-04-26T06:45:59.019Z</time></trkpt><trkpt lat="44.021510861045776" lon="12.29552779842159"><ele>187.0</ele><time>2026-04-26T06:46:00.019Z</time></trkpt><trkpt lat="44.02136917926838" lon="12.295575131207162"><ele>187.0</ele><time>2026-04-26T06:46:01.019Z</time></trkpt><trkpt lat="44.02123065744425" lon="12.295584053775238"><ele>187.0</ele><time>2026-04-26T06:46:02.019Z</time></trkpt><trkpt lat="44.02109489240686" lon="12.295592580749"><ele>187.0</ele><time>2026-04-26T06:46:03.019Z</time></trkpt><trkpt lat="44.02095221165106" lon="12.295612980176694"><ele>187.0</ele><time>2026-04-26T06:46:04.019Z</time></trkpt><trkpt lat="44.020804122033056" lon="12.295587260574425"><ele>187.25</ele><time>2026-04-26T06:46:05.019Z</time></trkpt><trkpt lat="44.02067149544941" lon="12.295546417622427"><ele>187.5</ele><time>2026-04-26T06:46:06.019Z</time></trkpt><trkpt lat="44.0205608320443" lon="12.295447974272433"><ele>187.75</ele><time>2026-04-26T06:46:07.019Z</time></trkpt><trkpt lat="44.0204596317571" lon="12.295322958085654"><ele>188.0</ele><time>2026-04-26T06:46:08.019Z</time></trkpt><trkpt lat="44.02035528773189" lon="12.295185086014868"><ele>188.0</ele><time>2026-04-26T06:46:09.019Z</time></trkpt><trkpt lat="44.02023176467115" lon="12.295023309219555"><ele>188.0</ele><time>2026-04-26T06:46:10.019Z</time></trkpt><trkpt lat="44.020107120026175" lon="12.294858240439778"><ele>188.0</ele><time>2026-04-26T06:46:11.019Z</time></trkpt><trkpt lat="44.01998548473694" lon="12.29470216836011"><ele>188.66666666666666</ele><time>2026-04-26T06:46:12.019Z</time></trkpt><trkpt lat="44.019847348540296" lon="12.29456077080025"><ele>189.33333333333334</ele><time>2026-04-26T06:46:13.019Z</time></trkpt><trkpt lat="44.01967856844125" lon="12.294452740088357"><ele>190.0</ele><time>2026-04-26T06:46:14.019Z</time></trkpt><trkpt lat="44.01950562482581" lon="12.294363981609832"><ele>190.0</ele><time>2026-04-26T06:46:15.019Z</time></trkpt><trkpt lat="44.0193264368159" lon="12.294273551586988"><ele>190.0</ele><time>2026-04-26T06:46:16.019Z</time></trkpt><trkpt lat="44.01916089701109" lon="12.294167878292624"><ele>190.0</ele><time>2026-04-26T06:46:17.019Z</time></trkpt><trkpt lat="44.018999242650956" lon="12.294045299377437"><ele>191.33333333333334</ele><time>2026-04-26T06:46:18.019Z</time></trkpt><trkpt lat="44.01884311354773" lon="12.29391212646691"><ele>192.66666666666669</ele><time>2026-04-26T06:46:19.019Z</time></trkpt><trkpt lat="44.01869342270517" lon="12.29377827389365"><ele>194.0</ele><time>2026-04-26T06:46:20.019Z</time></trkpt><trkpt lat="44.01855308177853" lon="12.293657428481511"><ele>194.0</ele><time>2026-04-26T06:46:21.019Z</time></trkpt><trkpt lat="44.018416234991534" lon="12.293580336505821"><ele>194.0</ele><time>2026-04-26T06:46:22.019Z</time></trkpt><trkpt lat="44.018294312319604" lon="12.293505670695295"><ele>194.0</ele><time>2026-04-26T06:46:23.019Z</time></trkpt><trkpt lat="44.018177396787216" lon="12.29343134585359"><ele>194.0</ele><time>2026-04-26T06:46:24.019Z</time></trkpt><trkpt lat="44.01806530157258" lon="12.293315261100108"><ele>194.75</ele><time>2026-04-26T06:46:25.019Z</time></trkpt><trkpt lat="44.01794591613475" lon="12.293191518081501"><ele>195.5</ele><time>2026-04-26T06:46:26.019Z</time></trkpt><trkpt lat="44.01782015232308" lon="12.293074219336399"><ele>196.25</ele><time>2026-04-26T06:46:27.019Z</time></trkpt><trkpt lat="44.017684862905206" lon="12.293007137729395"><ele>197.0</ele><time>2026-04-26T06:46:28.019Z</time></trkpt><trkpt lat="44.01753940639279" lon="12.292974586020543"><ele>194.0</ele><time>2026-04-26T06:46:29.019Z</time></trkpt><trkpt lat="44.01738229039926" lon="12.292998017435556"><ele>191.0</ele><time>2026-04-26T06:46:30.019Z</time></trkpt><trkpt lat="44.017223540046935" lon="12.293044562966704"><ele>188.0</ele><time>2026-04-26T06:46:31.019Z</time></trkpt><trkpt lat="44.017066602025324" lon="12.293091401520758"><ele>187.25</ele><time>2026-04-26T06:46:32.019Z</time></trkpt><trkpt lat="44.01692193106865" lon="12.293125144963415"><ele>186.5</ele><time>2026-04-26T06:46:33.019Z</time></trkpt><trkpt lat="44.01680271027727" lon="12.29313382864886"><ele>185.75</ele><time>2026-04-26T06:46:34.019Z</time></trkpt><trkpt lat="44.01669665325358" lon="12.293104984248883"><ele>185.0</ele><time>2026-04-26T06:46:35.019Z</time></trkpt><trkpt lat="44.016614969862985" lon="12.293014332670705"><ele>181.4</ele><time>2026-04-26T06:46:36.019Z</time></trkpt><trkpt lat="44.01654695179328" lon="12.292914128134267"><ele>177.8</ele><time>2026-04-26T06:46:37.019Z</time></trkpt><trkpt lat="44.01651941131394" lon="12.292792094800163"><ele>174.2</ele><time>2026-04-26T06:46:38.019Z</time></trkpt><trkpt lat="44.01653375442034" lon="12.292675188570515"><ele>170.6</ele><time>2026-04-26T06:46:39.019Z</time></trkpt><trkpt lat="44.01656931992037" lon="12.292521355147187"><ele>167.0</ele><time>2026-04-26T06:46:40.019Z</time></trkpt><trkpt lat="44.01661287412103" lon="12.29233157296164"><ele>173.66666666666666</ele><time>2026-04-26T06:46:41.019Z</time></trkpt><trkpt lat="44.016662916295864" lon="12.292111601952017"><ele>180.33333333333334</ele><time>2026-04-26T06:46:42.019Z</time></trkpt><trkpt lat="44.01671087870466" lon="12.291894186782773"><ele>187.0</ele><time>2026-04-26T06:46:43.02Z</time></trkpt><trkpt lat="44.01674313591017" lon="12.291675624553108"><ele>187.0</ele><time>2026-04-26T06:46:44.02Z</time></trkpt><trkpt lat="44.01678865396209" lon="12.291472881902822"><ele>187.0</ele><time>2026-04-26T06:46:45.02Z</time></trkpt><trkpt lat="44.0168265092385" lon="12.291292828172269"><ele>187.0</ele><time>2026-04-26T06:46:46.02Z</time></trkpt><trkpt lat="44.01684586427181" lon="12.291137657919458"><ele>187.0</ele><time>2026-04-26T06:46:47.02Z</time></trkpt><trkpt lat="44.016837785879105" lon="12.290985344161168"><ele>187.39999999999998</ele><time>2026-04-26T06:46:48.02Z</time></trkpt><trkpt lat="44.016807509445584" lon="12.29085521607926"><ele>187.79999999999998</ele><time>2026-04-26T06:46:49.02Z</time></trkpt><trkpt lat="44.01673949544336" lon="12.29072975228561"><ele>188.2</ele><time>2026-04-26T06:46:50.02Z</time></trkpt><trkpt lat="44.016621764374975" lon="12.290670480019713"><ele>188.6</ele><time>2026-04-26T06:46:51.02Z</time></trkpt><trkpt lat="44.016524163234656" lon="12.290680932577823"><ele>189.0</ele><time>2026-04-26T06:46:52.02Z</time></trkpt><trkpt lat="44.01641888394086" lon="12.290732054863806"><ele>186.5</ele><time>2026-04-26T06:46:53.02Z</time></trkpt><trkpt lat="44.01630526798161" lon="12.29080859379502"><ele>184.0</ele><time>2026-04-26T06:46:54.02Z</time></trkpt><trkpt lat="44.01619054375433" lon="12.290924761107268"><ele>181.5</ele><time>2026-04-26T06:46:55.02Z</time></trkpt><trkpt lat="44.01607270801701" lon="12.291032880847535"><ele>179.0</ele><time>2026-04-26T06:46:56.02Z</time></trkpt><trkpt lat="44.015975202869136" lon="12.291109708958595"><ele>179.0</ele><time>2026-04-26T06:46:57.02Z</time></trkpt><trkpt lat="44.01587432700382" lon="12.291113604668613"><ele>179.0</ele><time>2026-04-26T06:46:58.02Z</time></trkpt><trkpt lat="44.01577308090137" lon="12.291061349875502"><ele>179.0</ele><time>2026-04-26T06:46:59.02Z</time></trkpt><trkpt lat="44.015663960658316" lon="12.290978782671612"><ele>179.0</ele><time>2026-04-26T06:47:00.02Z</time></trkpt><trkpt lat="44.015556752982384" lon="12.290920107608509"><ele>179.0</ele><time>2026-04-26T06:47:01.02Z</time></trkpt><trkpt lat="44.01544903475837" lon="12.290903671616407"><ele>178.39999999999998</ele><time>2026-04-26T06:47:02.02Z</time></trkpt><trkpt lat="44.01536308537809" lon="12.29093171554818"><ele>177.8</ele><time>2026-04-26T06:47:03.02Z</time></trkpt><trkpt lat="44.015286930889005" lon="12.290977243583729"><ele>177.2</ele><time>2026-04-26T06:47:04.02Z</time></trkpt><trkpt lat="44.01524682076888" lon="12.291125934840263"><ele>176.60000000000002</ele><time>2026-04-26T06:47:05.02Z</time></trkpt><trkpt lat="44.01524791775104" lon="12.29128410874762"><ele>176.0</ele><time>2026-04-26T06:47:06.02Z</time></trkpt><trkpt lat="44.015247109062464" lon="12.291471694923313"><ele>176.0</ele><time>2026-04-26T06:47:07.02Z</time></trkpt><trkpt lat="44.01524213723166" lon="12.291677897959552"><ele>176.0</ele><time>2026-04-26T06:47:08.02Z</time></trkpt><trkpt lat="44.0152347397002" lon="12.29187322148678"><ele>176.0</ele><time>2026-04-26T06:47:09.02Z</time></trkpt><trkpt lat="44.01517722489736" lon="12.292025649363625"><ele>176.0</ele><time>2026-04-26T06:47:10.02Z</time></trkpt><trkpt lat="44.01512740497417" lon="12.29217801200853"><ele>173.0</ele><time>2026-04-26T06:47:11.02Z</time></trkpt><trkpt lat="44.01501127252311" lon="12.29228861433709"><ele>170.0</ele><time>2026-04-26T06:47:12.02Z</time></trkpt><trkpt lat="44.01488340726807" lon="12.292400108683298"><ele>167.0</ele><time>2026-04-26T06:47:13.02Z</time></trkpt><trkpt lat="44.01473519056731" lon="12.2925144043135"><ele>167.0</ele><time>2026-04-26T06:47:14.02Z</time></trkpt><trkpt lat="44.0145897142871" lon="12.29263670408634"><ele>167.0</ele><time>2026-04-26T06:47:15.02Z</time></trkpt><trkpt lat="44.0144488187547" lon="12.29272545821969"><ele>167.0</ele><time>2026-04-26T06:47:16.02Z</time></trkpt><trkpt lat="44.01432532488302" lon="12.292794625909398"><ele>167.0</ele><time>2026-04-26T06:47:17.02Z</time></trkpt><trkpt lat="44.01420326802649" lon="12.292847019657476"><ele>167.0</ele><time>2026-04-26T06:47:18.02Z</time></trkpt><trkpt lat="44.01407439367666" lon="12.292858165764791"><ele>167.0</ele><time>2026-04-26T06:47:19.02Z</time></trkpt><trkpt lat="44.013933400455926" lon="12.292810810040445"><ele>167.0</ele><time>2026-04-26T06:47:20.02Z</time></trkpt><trkpt lat="44.01380572382272" lon="12.292691535716234"><ele>164.66666666666666</ele><time>2026-04-26T06:47:21.02Z</time></trkpt><trkpt lat="44.013666919608134" lon="12.292561828796865"><ele>162.33333333333334</ele><time>2026-04-26T06:47:22.02Z</time></trkpt><trkpt lat="44.01351673132183" lon="12.29243087680971"><ele>160.0</ele><time>2026-04-26T06:47:23.02Z</time></trkpt><trkpt lat="44.01336957943317" lon="12.292279757441385"><ele>160.33333333333334</ele><time>2026-04-26T06:47:24.02Z</time></trkpt><trkpt lat="44.01321432782299" lon="12.292135287117453"><ele>160.66666666666666</ele><time>2026-04-26T06:47:25.02Z</time></trkpt><trkpt lat="44.01306171161143" lon="12.291979401065262"><ele>161.0</ele><time>2026-04-26T06:47:26.02Z</time></trkpt><trkpt lat="44.01291487452146" lon="12.291812005083663"><ele>161.0</ele><time>2026-04-26T06:47:27.02Z</time></trkpt><trkpt lat="44.0127716925338" lon="12.291638923419727"><ele>161.0</ele><time>2026-04-26T06:47:28.02Z</time></trkpt><trkpt lat="44.01263557251299" lon="12.291471365177122"><ele>161.0</ele><time>2026-04-26T06:47:29.02Z</time></trkpt><trkpt lat="44.01251276217471" lon="12.291317693526386"><ele>163.0</ele><time>2026-04-26T06:47:30.02Z</time></trkpt><trkpt lat="44.012394396298106" lon="12.29118336112822"><ele>165.0</ele><time>2026-04-26T06:47:31.02Z</time></trkpt><trkpt lat="44.01228798609097" lon="12.291073038835512"><ele>167.0</ele><time>2026-04-26T06:47:32.02Z</time></trkpt><trkpt lat="44.012190760492636" lon="12.290991252561888"><ele>169.0</ele><time>2026-04-26T06:47:33.02Z</time></trkpt><trkpt lat="44.01209501553542" lon="12.290929249730073"><ele>169.0</ele><time>2026-04-26T06:47:34.02Z</time></trkpt><trkpt lat="44.01199473900804" lon="12.290897968619824"><ele>169.0</ele><time>2026-04-26T06:47:35.02Z</time></trkpt><trkpt lat="44.01188658741735" lon="12.29089986082053"><ele>169.0</ele><time>2026-04-26T06:47:36.02Z</time></trkpt><trkpt lat="44.01177347861798" lon="12.29094186068709"><ele>169.0</ele><time>2026-04-26T06:47:37.02Z</time></trkpt><trkpt lat="44.01166402743518" lon="12.29099045806689"><ele>169.0</ele><time>2026-04-26T06:47:38.02Z</time></trkpt><trkpt lat="44.01155278776705" lon="12.291050730277773"><ele>169.0</ele><time>2026-04-26T06:47:39.02Z</time></trkpt><trkpt lat="44.01144254847086" lon="12.291119747318392"><ele>169.0</ele><time>2026-04-26T06:47:40.019Z</time></trkpt><trkpt lat="44.01134066982832" lon="12.291214651258803"><ele>169.0</ele><time>2026-04-26T06:47:41.019Z</time></trkpt><trkpt lat="44.011262429602844" lon="12.291339296969797"><ele>169.0</ele><time>2026-04-26T06:47:42.019Z</time></trkpt><trkpt lat="44.01123228277115" lon="12.29150610469115"><ele>168.0</ele><time>2026-04-26T06:47:43.019Z</time></trkpt><trkpt lat="44.01122816819401" lon="12.291697197531816"><ele>167.0</ele><time>2026-04-26T06:47:44.019Z</time></trkpt><trkpt lat="44.011234566905244" lon="12.291891210014771"><ele>166.0</ele><time>2026-04-26T06:47:45.019Z</time></trkpt><trkpt lat="44.011244855808805" lon="12.292097813990345"><ele>165.0</ele><time>2026-04-26T06:47:46.02Z</time></trkpt><trkpt lat="44.011247893104205" lon="12.292301871422442"><ele>167.0</ele><time>2026-04-26T06:47:47.019Z</time></trkpt><trkpt lat="44.011251373775735" lon="12.292488754563074"><ele>169.0</ele><time>2026-04-26T06:47:48.019Z</time></trkpt><trkpt lat="44.011266118737545" lon="12.292643268358528"><ele>171.0</ele><time>2026-04-26T06:47:49.02Z</time></trkpt><trkpt lat="44.0112990451288" lon="12.292787553442192"><ele>173.0</ele><time>2026-04-26T06:47:50.02Z</time></trkpt><trkpt lat="44.01136146628162" lon="12.292940911874776"><ele>173.0</ele><time>2026-04-26T06:47:51.02Z</time></trkpt><trkpt lat="44.01144492959198" lon="12.293082718126842"><ele>173.0</ele><time>2026-04-26T06:47:52.019Z</time></trkpt><trkpt lat="44.01155842757714" lon="12.29322583490736"><ele>173.0</ele><time>2026-04-26T06:47:53.019Z</time></trkpt><trkpt lat="44.01168433388984" lon="12.293380282988341"><ele>175.66666666666666</ele><time>2026-04-26T06:47:54.019Z</time></trkpt><trkpt lat="44.01180484249628" lon="12.293549983873929"><ele>178.33333333333334</ele><time>2026-04-26T06:47:55.019Z</time></trkpt><trkpt lat="44.011916913277936" lon="12.29371172649019"><ele>181.0</ele><time>2026-04-26T06:47:56.019Z</time></trkpt><trkpt lat="44.01199357648783" lon="12.29384463294398"><ele>181.0</ele><time>2026-04-26T06:47:57.019Z</time></trkpt><trkpt lat="44.01203672704671" lon="12.293937375184868"><ele>181.0</ele><time>2026-04-26T06:47:58.019Z</time></trkpt><trkpt lat="44.01207111019805" lon="12.294013122184245"><ele>181.0</ele><time>2026-04-26T06:47:59.019Z</time></trkpt><trkpt lat="44.01205366434652" lon="12.294125862656827"><ele>181.0</ele><time>2026-04-26T06:48:01.019Z</time></trkpt><trkpt lat="44.01194367303845" lon="12.294107480451133"><ele>181.0</ele><time>2026-04-26T06:48:02.019Z</time></trkpt><trkpt lat="44.01186361537365" lon="12.293906702746098"><ele>181.0</ele><time>2026-04-26T06:48:04.019Z</time></trkpt><trkpt lat="44.01179806521945" lon="12.29381117614995"><ele>181.0</ele><time>2026-04-26T06:48:05.019Z</time></trkpt><trkpt lat="44.0117092161287" lon="12.293722899791504"><ele>181.0</ele><time>2026-04-26T06:48:06.019Z</time></trkpt><trkpt lat="44.011585690129735" lon="12.293618141677616"><ele>181.0</ele><time>2026-04-26T06:48:07.019Z</time></trkpt><trkpt lat="44.01141574469757" lon="12.293522205478"><ele>182.8</ele><time>2026-04-26T06:48:08.019Z</time></trkpt><trkpt lat="44.01129909541741" lon="12.293417229965346"><ele>184.60000000000002</ele><time>2026-04-26T06:48:09.019Z</time></trkpt><trkpt lat="44.01120371518329" lon="12.293351584198321"><ele>186.4</ele><time>2026-04-26T06:48:10.019Z</time></trkpt><trkpt lat="44.0111302969332" lon="12.293371481899527"><ele>188.2</ele><time>2026-04-26T06:48:11.019Z</time></trkpt><trkpt lat="44.01106246196904" lon="12.293481070696009"><ele>190.0</ele><time>2026-04-26T06:48:13.019Z</time></trkpt><trkpt lat="44.011063891282234" lon="12.293580675463499"><ele>190.0</ele><time>2026-04-26T06:48:14.019Z</time></trkpt><trkpt lat="44.011148968964754" lon="12.293669823544388"><ele>190.0</ele><time>2026-04-26T06:48:15.019Z</time></trkpt><trkpt lat="44.01123821001337" lon="12.293743172281731"><ele>190.0</ele><time>2026-04-26T06:48:16.019Z</time></trkpt><trkpt lat="44.011356217097074" lon="12.293816449314471"><ele>190.0</ele><time>2026-04-26T06:48:17.019Z</time></trkpt><trkpt lat="44.011434162018915" lon="12.2938940827649"><ele>190.0</ele><time>2026-04-26T06:48:18.019Z</time></trkpt><trkpt lat="44.01147774056519" lon="12.293984323403311"><ele>190.0</ele><time>2026-04-26T06:48:19.019Z</time></trkpt><trkpt lat="44.011478182371576" lon="12.294119158113585"><ele>190.0</ele><time>2026-04-26T06:48:21.019Z</time></trkpt><trkpt lat="44.011418263225515" lon="12.294158706499472"><ele>190.0</ele><time>2026-04-26T06:48:22.019Z</time></trkpt><trkpt lat="44.01134324330208" lon="12.294115218073378"><ele>190.0</ele><time>2026-04-26T06:48:23.019Z</time></trkpt><trkpt lat="44.01126502202015" lon="12.294021322853025"><ele>190.0</ele><time>2026-04-26T06:48:24.019Z</time></trkpt><trkpt lat="44.01119176137871" lon="12.293918948219668"><ele>190.0</ele><time>2026-04-26T06:48:25.019Z</time></trkpt><trkpt lat="44.01109634041656" lon="12.293866830372838"><ele>190.0</ele><time>2026-04-26T06:48:26.019Z</time></trkpt><trkpt lat="44.01098763853241" lon="12.293876172673537"><ele>190.0</ele><time>2026-04-26T06:48:27.019Z</time></trkpt><trkpt lat="44.010889912997044" lon="12.293953237256169"><ele>190.0</ele><time>2026-04-26T06:48:28.019Z</time></trkpt><trkpt lat="44.01083050885176" lon="12.294056898460372"><ele>190.0</ele><time>2026-04-26T06:48:29.019Z</time></trkpt><trkpt lat="44.0107728041079" lon="12.294220460369342"><ele>192.0</ele><time>2026-04-26T06:48:30.019Z</time></trkpt><trkpt lat="44.01076136152744" lon="12.294408171728614"><ele>194.0</ele><time>2026-04-26T06:48:31.019Z</time></trkpt><trkpt lat="44.010794895031005" lon="12.29461054522993"><ele>196.0</ele><time>2026-04-26T06:48:32.019Z</time></trkpt><trkpt lat="44.01084190333272" lon="12.294803426356811"><ele>198.0</ele><time>2026-04-26T06:48:33.019Z</time></trkpt><trkpt lat="44.010890264964246" lon="12.295003607535698"><ele>201.0</ele><time>2026-04-26T06:48:34.019Z</time></trkpt><trkpt lat="44.010927836234465" lon="12.295172106198528"><ele>204.0</ele><time>2026-04-26T06:48:35.019Z</time></trkpt><trkpt lat="44.01093526315423" lon="12.29528259101668"><ele>207.0</ele><time>2026-04-26T06:48:36.019Z</time></trkpt><trkpt lat="44.01092864645936" lon="12.295375726679488"><ele>210.0</ele><time>2026-04-26T06:48:37.019Z</time></trkpt><trkpt lat="44.01088534534575" lon="12.295442708646835"><ele>213.0</ele><time>2026-04-26T06:48:38.019Z</time></trkpt><trkpt lat="44.01077641627116" lon="12.295382273474004"><ele>213.8</ele><time>2026-04-26T06:48:40.019Z</time></trkpt><trkpt lat="44.0107270788924" lon="12.295286039948389"><ele>214.60000000000002</ele><time>2026-04-26T06:48:41.019Z</time></trkpt><trkpt lat="44.010693563581185" lon="12.29514799852922"><ele>215.39999999999998</ele><time>2026-04-26T06:48:42.019Z</time></trkpt><trkpt lat="44.010659582719796" lon="12.294997654005368"><ele>216.2</ele><time>2026-04-26T06:48:43.019Z</time></trkpt><trkpt lat="44.01059991454544" lon="12.294835439269125"><ele>217.0</ele><time>2026-04-26T06:48:44.019Z</time></trkpt><trkpt lat="44.01054690799377" lon="12.294735892128731"><ele>216.99999999999997</ele><time>2026-04-26T06:48:45.02Z</time></trkpt><trkpt lat="44.01046403958013" lon="12.29470739606493"><ele>217.0</ele><time>2026-04-26T06:48:46.02Z</time></trkpt><trkpt lat="44.01040197030571" lon="12.294745658293781"><ele>217.0</ele><time>2026-04-26T06:48:47.02Z</time></trkpt><trkpt lat="44.01036468208929" lon="12.294825372146974"><ele>217.0</ele><time>2026-04-26T06:48:48.02Z</time></trkpt><trkpt lat="44.010367212847086" lon="12.294943612056407"><ele>216.99999999999997</ele><time>2026-04-26T06:48:49.02Z</time></trkpt><trkpt lat="44.010428969872" lon="12.295080364841487"><ele>217.0</ele><time>2026-04-26T06:48:50.02Z</time></trkpt><trkpt lat="44.010506977285964" lon="12.29521832257256"><ele>217.0</ele><time>2026-04-26T06:48:51.02Z</time></trkpt><trkpt lat="44.010585480925904" lon="12.295375935019017"><ele>217.0</ele><time>2026-04-26T06:48:52.02Z</time></trkpt><trkpt lat="44.01064531354306" lon="12.295540756151208"><ele>217.0</ele><time>2026-04-26T06:48:53.02Z</time></trkpt><trkpt lat="44.01069826403154" lon="12.295710990210946"><ele>217.0</ele><time>2026-04-26T06:48:54.02Z</time></trkpt><trkpt lat="44.01073978781844" lon="12.295863294530873"><ele>219.83333333333331</ele><time>2026-04-26T06:48:55.02Z</time></trkpt><trkpt lat="44.01077128040521" lon="12.295975335149178"><ele>222.66666666666666</ele><time>2026-04-26T06:48:56.02Z</time></trkpt><trkpt lat="44.01072335819437" lon="12.296115671953135"><ele>225.5</ele><time>2026-04-26T06:48:58.02Z</time></trkpt><trkpt lat="44.01065183593608" lon="12.296149098550158"><ele>228.33333333333331</ele><time>2026-04-26T06:48:59.02Z</time></trkpt><trkpt lat="44.01057867589596" lon="12.296104390440432"><ele>231.16666666666666</ele><time>2026-04-26T06:49:00.02Z</time></trkpt><trkpt lat="44.01053053323974" lon="12.295993610310695"><ele>234.0</ele><time>2026-04-26T06:49:01.02Z</time></trkpt><trkpt lat="44.010488157313" lon="12.295845529602994"><ele>234.0</ele><time>2026-04-26T06:49:02.02Z</time></trkpt><trkpt lat="44.010439640943716" lon="12.295691372071941"><ele>234.0</ele><time>2026-04-26T06:49:03.02Z</time></trkpt><trkpt lat="44.01040384449472" lon="12.29556775820491"><ele>234.0</ele><time>2026-04-26T06:49:04.02Z</time></trkpt><trkpt lat="44.01034921983757" lon="12.29547537128734"><ele>234.0</ele><time>2026-04-26T06:49:05.02Z</time></trkpt><trkpt lat="44.01029027764851" lon="12.295433220419746"><ele>234.0</ele><time>2026-04-26T06:49:06.02Z</time></trkpt><trkpt lat="44.01023194115626" lon="12.29547525141907"><ele>234.0</ele><time>2026-04-26T06:49:07.02Z</time></trkpt><trkpt lat="44.010185006861704" lon="12.29558506805715"><ele>234.0</ele><time>2026-04-26T06:49:08.02Z</time></trkpt><trkpt lat="44.0101802951974" lon="12.295737546698668"><ele>234.0</ele><time>2026-04-26T06:49:09.02Z</time></trkpt><trkpt lat="44.0102150872303" lon="12.295911701824322"><ele>234.0</ele><time>2026-04-26T06:49:10.02Z</time></trkpt><trkpt lat="44.010260319958526" lon="12.296083493973489"><ele>234.0</ele><time>2026-04-26T06:49:11.02Z</time></trkpt><trkpt lat="44.01030891612126" lon="12.296256593419788"><ele>236.75</ele><time>2026-04-26T06:49:12.02Z</time></trkpt><trkpt lat="44.01037230224327" lon="12.296438974985367"><ele>239.5</ele><time>2026-04-26T06:49:13.02Z</time></trkpt><trkpt lat="44.01044817016262" lon="12.296611546093708"><ele>242.25</ele><time>2026-04-26T06:49:14.02Z</time></trkpt><trkpt lat="44.010529835966985" lon="12.296776245093282"><ele>245.0</ele><time>2026-04-26T06:49:15.02Z</time></trkpt><trkpt lat="44.010603504937414" lon="12.296935539484247"><ele>245.0</ele><time>2026-04-26T06:49:16.02Z</time></trkpt><trkpt lat="44.01066298339803" lon="12.297078111937418"><ele>245.0</ele><time>2026-04-26T06:49:17.02Z</time></trkpt><trkpt lat="44.01069666984081" lon="12.297213234917477"><ele>245.0</ele><time>2026-04-26T06:49:18.02Z</time></trkpt><trkpt lat="44.01070620567054" lon="12.297337453546813"><ele>245.0</ele><time>2026-04-26T06:49:19.02Z</time></trkpt><trkpt lat="44.01067285620353" lon="12.297418778552705"><ele>245.0</ele><time>2026-04-26T06:49:20.02Z</time></trkpt><trkpt lat="44.01060472380771" lon="12.29746295930028"><ele>245.0</ele><time>2026-04-26T06:49:21.02Z</time></trkpt><trkpt lat="44.01051836001285" lon="12.297465324175493"><ele>245.0</ele><time>2026-04-26T06:49:22.02Z</time></trkpt><trkpt lat="44.01043798613191" lon="12.297358464719634"><ele>245.0</ele><time>2026-04-26T06:49:23.02Z</time></trkpt><trkpt lat="44.01035887769775" lon="12.2972559790648"><ele>245.0</ele><time>2026-04-26T06:49:24.02Z</time></trkpt><trkpt lat="44.010264425691716" lon="12.297165468888302"><ele>245.0</ele><time>2026-04-26T06:49:25.02Z</time></trkpt><trkpt lat="44.01015354285901" lon="12.297040505021902"><ele>245.0</ele><time>2026-04-26T06:49:26.02Z</time></trkpt><trkpt lat="44.010039139212424" lon="12.296911994051758"><ele>245.0</ele><time>2026-04-26T06:49:27.02Z</time></trkpt><trkpt lat="44.009918125045346" lon="12.296785470602417"><ele>245.0</ele><time>2026-04-26T06:49:28.02Z</time></trkpt><trkpt lat="44.00979466519072" lon="12.296647849050498"><ele>244.75</ele><time>2026-04-26T06:49:29.02Z</time></trkpt><trkpt lat="44.00967358928886" lon="12.296523153945829"><ele>244.5</ele><time>2026-04-26T06:49:30.02Z</time></trkpt><trkpt lat="44.0095915978377" lon="12.296399529019556"><ele>244.25</ele><time>2026-04-26T06:49:31.02Z</time></trkpt><trkpt lat="44.00950476118425" lon="12.296323413229828"><ele>244.0</ele><time>2026-04-26T06:49:32.02Z</time></trkpt><trkpt lat="44.00943871004688" lon="12.296272757648788"><ele>244.0</ele><time>2026-04-26T06:49:33.02Z</time></trkpt><trkpt lat="44.009367804648" lon="12.29626797861152"><ele>243.99999999999997</ele><time>2026-04-26T06:49:34.02Z</time></trkpt><trkpt lat="44.00930574719113" lon="12.296312057920558"><ele>243.99999999999997</ele><time>2026-04-26T06:49:35.02Z</time></trkpt><trkpt lat="44.009317342245296" lon="12.29653933312166"><ele>244.0</ele><time>2026-04-26T06:49:37.02Z</time></trkpt><trkpt lat="44.0093905753283" lon="12.296686845660435"><ele>244.0</ele><time>2026-04-26T06:49:38.02Z</time></trkpt><trkpt lat="44.0094857015081" lon="12.29683099365712"><ele>250.0</ele><time>2026-04-26T06:49:39.02Z</time></trkpt><trkpt lat="44.009572176690185" lon="12.297001566020635"><ele>256.0</ele><time>2026-04-26T06:49:40.02Z</time></trkpt><trkpt lat="44.00964786751121" lon="12.297188592251933"><ele>262.0</ele><time>2026-04-26T06:49:41.02Z</time></trkpt><trkpt lat="44.00971337927136" lon="12.297388723645431"><ele>264.25</ele><time>2026-04-26T06:49:42.02Z</time></trkpt><trkpt lat="44.00977864403903" lon="12.297588442116357"><ele>266.5</ele><time>2026-04-26T06:49:43.02Z</time></trkpt><trkpt lat="44.00982725255662" lon="12.297747335664644"><ele>268.75</ele><time>2026-04-26T06:49:44.02Z</time></trkpt><trkpt lat="44.00985953840368" lon="12.297880758691262"><ele>271.0</ele><time>2026-04-26T06:49:45.02Z</time></trkpt><trkpt lat="44.00985951467021" lon="12.297988511585876"><ele>271.0</ele><time>2026-04-26T06:49:46.02Z</time></trkpt><trkpt lat="44.00983075135877" lon="12.29810522310012"><ele>271.0</ele><time>2026-04-26T06:49:47.02Z</time></trkpt><trkpt lat="44.00975682228867" lon="12.298185169670987"><ele>271.0</ele><time>2026-04-26T06:49:48.02Z</time></trkpt><trkpt lat="44.00965088097543" lon="12.298205500963691"><ele>271.0</ele><time>2026-04-26T06:49:49.02Z</time></trkpt><trkpt lat="44.00954755996517" lon="12.298144911038072"><ele>271.0</ele><time>2026-04-26T06:49:50.02Z</time></trkpt><trkpt lat="44.00948236830731" lon="12.297995021684054"><ele>271.0</ele><time>2026-04-26T06:49:51.02Z</time></trkpt><trkpt lat="44.00942728256612" lon="12.297831700536157"><ele>271.0</ele><time>2026-04-26T06:49:52.02Z</time></trkpt><trkpt lat="44.00934378537203" lon="12.297661611047607"><ele>271.0</ele><time>2026-04-26T06:49:53.02Z</time></trkpt><trkpt lat="44.009269385676305" lon="12.297476304096518"><ele>271.0</ele><time>2026-04-26T06:49:54.02Z</time></trkpt><trkpt lat="44.009172455748526" lon="12.297304572732207"><ele>272.3333333333333</ele><time>2026-04-26T06:49:55.02Z</time></trkpt><trkpt lat="44.00904628446638" lon="12.297149531378295"><ele>273.6666666666667</ele><time>2026-04-26T06:49:56.02Z</time></trkpt><trkpt lat="44.008901433715536" lon="12.297020011579997"><ele>275.0</ele><time>2026-04-26T06:49:57.02Z</time></trkpt><trkpt lat="44.00875863844254" lon="12.296911276345417"><ele>275.0</ele><time>2026-04-26T06:49:58.02Z</time></trkpt><trkpt lat="44.008635452726935" lon="12.296826609881702"><ele>275.0</ele><time>2026-04-26T06:49:59.02Z</time></trkpt><trkpt lat="44.00852930063568" lon="12.296736355372488"><ele>275.0</ele><time>2026-04-26T06:50:00.02Z</time></trkpt><trkpt lat="44.008440048004815" lon="12.296649299632207"><ele>275.0</ele><time>2026-04-26T06:50:01.02Z</time></trkpt><trkpt lat="44.008350677185796" lon="12.296567916839495"><ele>275.5</ele><time>2026-04-26T06:50:02.02Z</time></trkpt><trkpt lat="44.00826851904568" lon="12.296511958822826"><ele>276.0</ele><time>2026-04-26T06:50:03.02Z</time></trkpt><trkpt lat="44.00818965267111" lon="12.296496188246484"><ele>276.5</ele><time>2026-04-26T06:50:04.02Z</time></trkpt><trkpt lat="44.00811923185547" lon="12.296526024442894"><ele>277.0</ele><time>2026-04-26T06:50:05.02Z</time></trkpt><trkpt lat="44.008076649510414" lon="12.29660576915519"><ele>277.5</ele><time>2026-04-26T06:50:06.02Z</time></trkpt><trkpt lat="44.008077425533905" lon="12.296727139389615"><ele>278.0</ele><time>2026-04-26T06:50:07.02Z</time></trkpt><trkpt lat="44.00813519642066" lon="12.296846577835684"><ele>278.0</ele><time>2026-04-26T06:50:08.02Z</time></trkpt><trkpt lat="44.00822055275565" lon="12.296944004295662"><ele>278.0</ele><time>2026-04-26T06:50:09.02Z</time></trkpt><trkpt lat="44.00831286775733" lon="12.297024407766578"><ele>278.0</ele><time>2026-04-26T06:50:10.02Z</time></trkpt><trkpt lat="44.0083953208085" lon="12.297113198066704"><ele>278.0</ele><time>2026-04-26T06:50:11.02Z</time></trkpt><trkpt lat="44.00847792012626" lon="12.297214467820497"><ele>278.0</ele><time>2026-04-26T06:50:12.02Z</time></trkpt><trkpt lat="44.00854467883077" lon="12.297324844397606"><ele>281.0</ele><time>2026-04-26T06:50:13.02Z</time></trkpt><trkpt lat="44.00861615012397" lon="12.297457668893733"><ele>284.0</ele><time>2026-04-26T06:50:14.02Z</time></trkpt><trkpt lat="44.00868308130268" lon="12.297608919828246"><ele>287.0</ele><time>2026-04-26T06:50:15.02Z</time></trkpt><trkpt lat="44.008726522329624" lon="12.297770129728779"><ele>290.0</ele><time>2026-04-26T06:50:16.02Z</time></trkpt><trkpt lat="44.008769116058986" lon="12.297917898307336"><ele>290.0</ele><time>2026-04-26T06:50:17.02Z</time></trkpt><trkpt lat="44.00881327443126" lon="12.29805740010236"><ele>290.0</ele><time>2026-04-26T06:50:18.02Z</time></trkpt><trkpt lat="44.00883146625862" lon="12.298207765908538"><ele>290.0</ele><time>2026-04-26T06:50:19.02Z</time></trkpt><trkpt lat="44.008841213167315" lon="12.298353528528736"><ele>290.0</ele><time>2026-04-26T06:50:20.02Z</time></trkpt><trkpt lat="44.008827941670155" lon="12.298494385618401"><ele>290.0</ele><time>2026-04-26T06:50:21.02Z</time></trkpt><trkpt lat="44.00881383178978" lon="12.298629772474259"><ele>291.2</ele><time>2026-04-26T06:50:22.02Z</time></trkpt><trkpt lat="44.00878499143037" lon="12.298770394406565"><ele>292.4</ele><time>2026-04-26T06:50:23.02Z</time></trkpt><trkpt lat="44.00875414731667" lon="12.298918389635025"><ele>293.6</ele><time>2026-04-26T06:50:24.02Z</time></trkpt><trkpt lat="44.00868137213363" lon="12.299035663368448"><ele>294.8</ele><time>2026-04-26T06:50:25.02Z</time></trkpt><trkpt lat="44.00862903267722" lon="12.29913413708088"><ele>296.0</ele><time>2026-04-26T06:50:26.02Z</time></trkpt><trkpt lat="44.00859102035477" lon="12.299216219601485"><ele>296.0</ele><time>2026-04-26T06:50:27.02Z</time></trkpt><trkpt lat="44.0084864835681" lon="12.299245913252125"><ele>296.0</ele><time>2026-04-26T06:50:29.02Z</time></trkpt><trkpt lat="44.00842556928138" lon="12.299126775739278"><ele>296.0</ele><time>2026-04-26T06:50:31.02Z</time></trkpt><trkpt lat="44.00847562527986" lon="12.298954539427099"><ele>296.0</ele><time>2026-04-26T06:50:33.02Z</time></trkpt><trkpt lat="44.00852117894548" lon="12.29886677761673"><ele>296.0</ele><time>2026-04-26T06:50:34.02Z</time></trkpt><trkpt lat="44.00855425491902" lon="12.298778039630319"><ele>296.40000000000003</ele><time>2026-04-26T06:50:35.02Z</time></trkpt><trkpt lat="44.00854644033788" lon="12.298623168402223"><ele>296.8</ele><time>2026-04-26T06:50:37.02Z</time></trkpt><trkpt lat="44.00845928915108" lon="12.298513676382129"><ele>297.20000000000005</ele><time>2026-04-26T06:50:39.02Z</time></trkpt><trkpt lat="44.00835471382229" lon="12.298548618034543"><ele>297.6</ele><time>2026-04-26T06:50:41.02Z</time></trkpt><trkpt lat="44.00830791106085" lon="12.298638567479681"><ele>298.0</ele><time>2026-04-26T06:50:42.02Z</time></trkpt><trkpt lat="44.00827643226526" lon="12.298751504958394"><ele>300.16666666666663</ele><time>2026-04-26T06:50:43.02Z</time></trkpt><trkpt lat="44.00825463062004" lon="12.298850836010775"><ele>302.3333333333333</ele><time>2026-04-26T06:50:44.02Z</time></trkpt><trkpt lat="44.00817719192858" lon="12.298988719276737"><ele>304.5</ele><time>2026-04-26T06:50:46.02Z</time></trkpt><trkpt lat="44.00811152833178" lon="12.299009737565889"><ele>306.6666666666667</ele><time>2026-04-26T06:50:47.02Z</time></trkpt><trkpt lat="44.00803776476575" lon="12.298985657399164"><ele>308.83333333333337</ele><time>2026-04-26T06:50:48.02Z</time></trkpt><trkpt lat="44.007993411338944" lon="12.298904804943131"><ele>311.0</ele><time>2026-04-26T06:50:49.02Z</time></trkpt><trkpt lat="44.007990459429315" lon="12.298801163195666"><ele>311.0</ele><time>2026-04-26T06:50:50.02Z</time></trkpt><trkpt lat="44.0080122624053" lon="12.29870115742452"><ele>311.0</ele><time>2026-04-26T06:50:51.02Z</time></trkpt><trkpt lat="44.00803402930397" lon="12.298618462466203"><ele>311.0</ele><time>2026-04-26T06:50:52.02Z</time></trkpt><trkpt lat="44.008044104605375" lon="12.298528671158344"><ele>311.0</ele><time>2026-04-26T06:50:53.02Z</time></trkpt><trkpt lat="44.008042151912676" lon="12.298438934133621"><ele>311.0</ele><time>2026-04-26T06:50:54.02Z</time></trkpt><trkpt lat="44.00802251467449" lon="12.298350126147449"><ele>311.0</ele><time>2026-04-26T06:50:55.02Z</time></trkpt><trkpt lat="44.0079678060126" lon="12.298263672082658"><ele>311.0</ele><time>2026-04-26T06:50:56.02Z</time></trkpt><trkpt lat="44.00788918713203" lon="12.298215267752914"><ele>311.0</ele><time>2026-04-26T06:50:57.02Z</time></trkpt><trkpt lat="44.00781135679063" lon="12.298213824947828"><ele>311.0</ele><time>2026-04-26T06:50:58.02Z</time></trkpt><trkpt lat="44.00773131875025" lon="12.298259767566428"><ele>311.0</ele><time>2026-04-26T06:50:59.02Z</time></trkpt><trkpt lat="44.0076670766965" lon="12.298345060847529"><ele>311.0</ele><time>2026-04-26T06:51:00.02Z</time></trkpt><trkpt lat="44.007621916626924" lon="12.298456877960378"><ele>311.0</ele><time>2026-04-26T06:51:01.02Z</time></trkpt><trkpt lat="44.00758748313773" lon="12.298586231073902"><ele>311.0</ele><time>2026-04-26T06:51:02.02Z</time></trkpt><trkpt lat="44.007563960160994" lon="12.298724542027932"><ele>311.0</ele><time>2026-04-26T06:51:03.02Z</time></trkpt><trkpt lat="44.007551472221536" lon="12.298864447931194"><ele>311.0</ele><time>2026-04-26T06:51:04.02Z</time></trkpt><trkpt lat="44.00753237284369" lon="12.298997705088453"><ele>311.0</ele><time>2026-04-26T06:51:05.02Z</time></trkpt><trkpt lat="44.00753445346414" lon="12.299140000882826"><ele>311.0</ele><time>2026-04-26T06:51:06.02Z</time></trkpt><trkpt lat="44.0075484263122" lon="12.29927690992039"><ele>311.0</ele><time>2026-04-26T06:51:07.02Z</time></trkpt><trkpt lat="44.00755639090547" lon="12.299401117859523"><ele>312.33333333333337</ele><time>2026-04-26T06:51:08.02Z</time></trkpt><trkpt lat="44.007577431803504" lon="12.299519561825624"><ele>313.6666666666667</ele><time>2026-04-26T06:51:09.02Z</time></trkpt><trkpt lat="44.00758782667701" lon="12.299630319415714"><ele>315.0</ele><time>2026-04-26T06:51:10.02Z</time></trkpt><trkpt lat="44.00758085927207" lon="12.299744736977924"><ele>316.3333333333333</ele><time>2026-04-26T06:51:11.02Z</time></trkpt><trkpt lat="44.0075455731353" lon="12.299846496836478"><ele>317.66666666666663</ele><time>2026-04-26T06:51:12.02Z</time></trkpt><trkpt lat="44.00746732360374" lon="12.299931206691234"><ele>319.0</ele><time>2026-04-26T06:51:13.02Z</time></trkpt><trkpt lat="44.00736199944836" lon="12.299977190247457"><ele>322.5</ele><time>2026-04-26T06:51:14.02Z</time></trkpt><trkpt lat="44.007255499087755" lon="12.299997620614322"><ele>326.0</ele><time>2026-04-26T06:51:15.02Z</time></trkpt><trkpt lat="44.00715854699863" lon="12.300000663182313"><ele>329.5</ele><time>2026-04-26T06:51:16.02Z</time></trkpt><trkpt lat="44.007069908573364" lon="12.299998420919787"><ele>333.0</ele><time>2026-04-26T06:51:17.02Z</time></trkpt><trkpt lat="44.00699129986276" lon="12.299979239998352"><ele>336.5</ele><time>2026-04-26T06:51:18.02Z</time></trkpt><trkpt lat="44.00692367331124" lon="12.299944575721373"><ele>340.0</ele><time>2026-04-26T06:51:19.02Z</time></trkpt><trkpt lat="44.00686304756343" lon="12.299875048596874"><ele>340.0</ele><time>2026-04-26T06:51:20.02Z</time></trkpt><trkpt lat="44.00681176380775" lon="12.29977280292143"><ele>340.0</ele><time>2026-04-26T06:51:21.02Z</time></trkpt><trkpt lat="44.006777440635624" lon="12.299657912373466"><ele>340.0</ele><time>2026-04-26T06:51:22.021Z</time></trkpt><trkpt lat="44.006765034694276" lon="12.29953943533837"><ele>340.0</ele><time>2026-04-26T06:51:23.021Z</time></trkpt><trkpt lat="44.00675034659179" lon="12.299404771763461"><ele>340.0</ele><time>2026-04-26T06:51:24.021Z</time></trkpt><trkpt lat="44.00672819374683" lon="12.299272771682658"><ele>340.6</ele><time>2026-04-26T06:51:25.021Z</time></trkpt><trkpt lat="44.00667578551619" lon="12.2991444925619"><ele>341.2</ele><time>2026-04-26T06:51:26.021Z</time></trkpt><trkpt lat="44.00661719926822" lon="12.299035566972767"><ele>341.79999999999995</ele><time>2026-04-26T06:51:27.021Z</time></trkpt><trkpt lat="44.00652900753137" lon="12.298953145771986"><ele>342.4</ele><time>2026-04-26T06:51:28.021Z</time></trkpt><trkpt lat="44.006424716896646" lon="12.29889166777867"><ele>343.0</ele><time>2026-04-26T06:51:29.021Z</time></trkpt><trkpt lat="44.00630625380767" lon="12.298884240405972"><ele>338.5</ele><time>2026-04-26T06:51:30.021Z</time></trkpt><trkpt lat="44.00619752371659" lon="12.298893986632992"><ele>334.0</ele><time>2026-04-26T06:51:31.021Z</time></trkpt><trkpt lat="44.006090378404735" lon="12.298898883101709"><ele>329.5</ele><time>2026-04-26T06:51:32.021Z</time></trkpt><trkpt lat="44.00597397677977" lon="12.298910955630822"><ele>325.0</ele><time>2026-04-26T06:51:33.021Z</time></trkpt><trkpt lat="44.005855261651796" lon="12.29891728440327"><ele>328.0</ele><time>2026-04-26T06:51:34.021Z</time></trkpt><trkpt lat="44.00574061059265" lon="12.298911603114387"><ele>331.0</ele><time>2026-04-26T06:51:35.021Z</time></trkpt><trkpt lat="44.005633342560955" lon="12.298917317999765"><ele>334.0</ele><time>2026-04-26T06:51:36.021Z</time></trkpt><trkpt lat="44.005518794561844" lon="12.29891051483177"><ele>337.0</ele><time>2026-04-26T06:51:37.021Z</time></trkpt><trkpt lat="44.00539881493978" lon="12.29890895341838"><ele>337.0</ele><time>2026-04-26T06:51:38.021Z</time></trkpt><trkpt lat="44.00526740138406" lon="12.298901119919142"><ele>337.0</ele><time>2026-04-26T06:51:39.021Z</time></trkpt><trkpt lat="44.00513709644428" lon="12.298890803295933"><ele>337.0</ele><time>2026-04-26T06:51:40.021Z</time></trkpt><trkpt lat="44.00500053606294" lon="12.298884220468649"><ele>337.0</ele><time>2026-04-26T06:51:41.021Z</time></trkpt><trkpt lat="44.0048634848283" lon="12.29886414683098"><ele>339.5</ele><time>2026-04-26T06:51:42.021Z</time></trkpt><trkpt lat="44.0047277826633" lon="12.29883004889164"><ele>342.0</ele><time>2026-04-26T06:51:43.021Z</time></trkpt><trkpt lat="44.00460301630078" lon="12.298761205485208"><ele>344.5</ele><time>2026-04-26T06:51:44.021Z</time></trkpt><trkpt lat="44.0044829324346" lon="12.298686610620898"><ele>347.0</ele><time>2026-04-26T06:51:45.021Z</time></trkpt><trkpt lat="44.00437138951179" lon="12.29864497778926"><ele>347.0</ele><time>2026-04-26T06:51:46.021Z</time></trkpt><trkpt lat="44.00427302119467" lon="12.298566312676984"><ele>347.0</ele><time>2026-04-26T06:51:47.021Z</time></trkpt><trkpt lat="44.004175896639175" lon="12.298480332009921"><ele>347.0</ele><time>2026-04-26T06:51:48.021Z</time></trkpt><trkpt lat="44.004057723853094" lon="12.298390450976537"><ele>347.0</ele><time>2026-04-26T06:51:49.021Z</time></trkpt><trkpt lat="44.00393305564886" lon="12.298323679766659"><ele>348.0</ele><time>2026-04-26T06:51:50.021Z</time></trkpt><trkpt lat="44.00379186242498" lon="12.298330808499761"><ele>349.0</ele><time>2026-04-26T06:51:51.021Z</time></trkpt><trkpt lat="44.00366552068813" lon="12.29831666239531"><ele>350.0</ele><time>2026-04-26T06:51:52.02Z</time></trkpt><trkpt lat="44.00354920116876" lon="12.29830908290592"><ele>351.0</ele><time>2026-04-26T06:51:53.02Z</time></trkpt><trkpt lat="44.00344374769353" lon="12.298271894202548"><ele>351.0</ele><time>2026-04-26T06:51:54.02Z</time></trkpt><trkpt lat="44.00334741325545" lon="12.298256162224384"><ele>351.0</ele><time>2026-04-26T06:51:55.021Z</time></trkpt><trkpt lat="44.00326949628701" lon="12.29824202563593"><ele>351.0</ele><time>2026-04-26T06:51:56.02Z</time></trkpt><trkpt lat="44.003164251535146" lon="12.298231943727693"><ele>351.0</ele><time>2026-04-26T06:51:58.02Z</time></trkpt><trkpt lat="44.00302910205169" lon="12.298199298387864"><ele>351.0</ele><time>2026-04-26T06:52:00.02Z</time></trkpt><trkpt lat="44.00296206392749" lon="12.298169320645759"><ele>350.0</ele><time>2026-04-26T06:52:01.02Z</time></trkpt><trkpt lat="44.00286764575835" lon="12.298110512173265"><ele>349.0</ele><time>2026-04-26T06:52:02.02Z</time></trkpt><trkpt lat="44.00277959715452" lon="12.298025437605508"><ele>348.0</ele><time>2026-04-26T06:52:03.02Z</time></trkpt><trkpt lat="44.002675053265726" lon="12.297937251956704"><ele>347.0</ele><time>2026-04-26T06:52:04.02Z</time></trkpt><trkpt lat="44.00255736045472" lon="12.297837620592238"><ele>345.5</ele><time>2026-04-26T06:52:05.02Z</time></trkpt><trkpt lat="44.00246093926474" lon="12.297744332066552"><ele>344.0</ele><time>2026-04-26T06:52:06.02Z</time></trkpt><trkpt lat="44.00235358128584" lon="12.297658169939718"><ele>342.5</ele><time>2026-04-26T06:52:07.02Z</time></trkpt><trkpt lat="44.002249635237014" lon="12.29756957303631"><ele>341.0</ele><time>2026-04-26T06:52:08.02Z</time></trkpt><trkpt lat="44.0021553390151" lon="12.297490596992127"><ele>341.0</ele><time>2026-04-26T06:52:09.02Z</time></trkpt><trkpt lat="44.00205531718799" lon="12.297404968579764"><ele>341.0</ele><time>2026-04-26T06:52:10.02Z</time></trkpt><trkpt lat="44.00195288692277" lon="12.297319272553334"><ele>341.0</ele><time>2026-04-26T06:52:11.02Z</time></trkpt><trkpt lat="44.00184085306945" lon="12.297219845996318"><ele>341.0</ele><time>2026-04-26T06:52:12.02Z</time></trkpt><trkpt lat="44.001743435573715" lon="12.2970904242936"><ele>340.25</ele><time>2026-04-26T06:52:13.02Z</time></trkpt><trkpt lat="44.00163258960843" lon="12.296993573872054"><ele>339.5</ele><time>2026-04-26T06:52:14.02Z</time></trkpt><trkpt lat="44.00151452351567" lon="12.296890373606942"><ele>338.75</ele><time>2026-04-26T06:52:15.02Z</time></trkpt><trkpt lat="44.00139394814781" lon="12.296783906219858"><ele>338.0</ele><time>2026-04-26T06:52:16.02Z</time></trkpt><trkpt lat="44.00127103439964" lon="12.296674724956759"><ele>338.0</ele><time>2026-04-26T06:52:17.02Z</time></trkpt><trkpt lat="44.00114262514049" lon="12.296560662009698"><ele>338.0</ele><time>2026-04-26T06:52:18.02Z</time></trkpt><trkpt lat="44.00101727518" lon="12.296457518943821"><ele>338.0</ele><time>2026-04-26T06:52:19.021Z</time></trkpt><trkpt lat="44.00089387255021" lon="12.296347947784586"><ele>338.0</ele><time>2026-04-26T06:52:20.021Z</time></trkpt><trkpt lat="44.000775874620686" lon="12.296238767416478"><ele>337.0</ele><time>2026-04-26T06:52:21.021Z</time></trkpt><trkpt lat="44.00066481731794" lon="12.29614655130054"><ele>336.0</ele><time>2026-04-26T06:52:22.021Z</time></trkpt><trkpt lat="44.000560922442446" lon="12.296049838906388"><ele>335.0</ele><time>2026-04-26T06:52:23.021Z</time></trkpt><trkpt lat="44.00045226475414" lon="12.295953219460399"><ele>334.0</ele><time>2026-04-26T06:52:24.021Z</time></trkpt><trkpt lat="44.000339497513465" lon="12.295846961307673"><ele>334.0</ele><time>2026-04-26T06:52:25.021Z</time></trkpt><trkpt lat="44.0002261784289" lon="12.29574319868858"><ele>334.0</ele><time>2026-04-26T06:52:26.021Z</time></trkpt><trkpt lat="44.000118132354864" lon="12.295644540125785"><ele>334.0</ele><time>2026-04-26T06:52:27.021Z</time></trkpt><trkpt lat="44.00001843074549" lon="12.295554119832559"><ele>334.0</ele><time>2026-04-26T06:52:28.021Z</time></trkpt><trkpt lat="43.99992309581758" lon="12.295473214364554"><ele>331.6</ele><time>2026-04-26T06:52:29.021Z</time></trkpt><trkpt lat="43.99982614876693" lon="12.295421388951498"><ele>329.2</ele><time>2026-04-26T06:52:30.021Z</time></trkpt><trkpt lat="43.99972259447775" lon="12.29540562217729"><ele>326.8</ele><time>2026-04-26T06:52:31.021Z</time></trkpt><trkpt lat="43.99962151637361" lon="12.29549343908588"><ele>324.40000000000003</ele><time>2026-04-26T06:52:32.021Z</time></trkpt><trkpt lat="43.99953080734097" lon="12.295473317385447"><ele>322.0</ele><time>2026-04-26T06:52:33.021Z</time></trkpt><trkpt lat="43.9994465112476" lon="12.295502565314756"><ele>322.0</ele><time>2026-04-26T06:52:34.021Z</time></trkpt><trkpt lat="43.999377510810156" lon="12.295561906335395"><ele>322.0</ele><time>2026-04-26T06:52:35.021Z</time></trkpt><trkpt lat="43.99930740011663" lon="12.295593726522709"><ele>322.0</ele><time>2026-04-26T06:52:36.021Z</time></trkpt><trkpt lat="43.99924058211488" lon="12.295651806104154"><ele>322.0</ele><time>2026-04-26T06:52:37.021Z</time></trkpt><trkpt lat="43.99922625112073" lon="12.29577062221174"><ele>322.0</ele><time>2026-04-26T06:52:38.021Z</time></trkpt><trkpt lat="43.99918384795817" lon="12.29586858463975"><ele>322.0</ele><time>2026-04-26T06:52:39.021Z</time></trkpt><trkpt lat="43.99914444473911" lon="12.295959616002847"><ele>325.5</ele><time>2026-04-26T06:52:40.021Z</time></trkpt><trkpt lat="43.99900087869227" lon="12.295947794728567"><ele>329.0</ele><time>2026-04-26T06:52:41.021Z</time></trkpt><trkpt lat="43.998885745730064" lon="12.295968322065837"><ele>332.5</ele><time>2026-04-26T06:52:42.021Z</time></trkpt><trkpt lat="43.99874993238251" lon="12.296005959008113"><ele>336.0</ele><time>2026-04-26T06:52:43.021Z</time></trkpt><trkpt lat="43.99861276790565" lon="12.29608938574573"><ele>336.0</ele><time>2026-04-26T06:52:44.021Z</time></trkpt><trkpt lat="43.998479283820046" lon="12.296191982681743"><ele>336.0</ele><time>2026-04-26T06:52:45.021Z</time></trkpt><trkpt lat="43.998341181514284" lon="12.296287036209549"><ele>336.0</ele><time>2026-04-26T06:52:46.021Z</time></trkpt><trkpt lat="43.998195663805255" lon="12.296376444686425"><ele>334.25</ele><time>2026-04-26T06:52:47.021Z</time></trkpt><trkpt lat="43.99805679361796" lon="12.296460315195224"><ele>332.5</ele><time>2026-04-26T06:52:48.021Z</time></trkpt><trkpt lat="43.99792481109196" lon="12.29653920827956"><ele>330.75</ele><time>2026-04-26T06:52:49.021Z</time></trkpt><trkpt lat="43.99779622603695" lon="12.29661417035904"><ele>329.0</ele><time>2026-04-26T06:52:50.021Z</time></trkpt><trkpt lat="43.99767395730953" lon="12.29669216279229"><ele>329.0</ele><time>2026-04-26T06:52:51.021Z</time></trkpt><trkpt lat="43.99757295989549" lon="12.296761538841228"><ele>329.0</ele><time>2026-04-26T06:52:52.021Z</time></trkpt><trkpt lat="43.99748462455847" lon="12.296841904556587"><ele>329.0</ele><time>2026-04-26T06:52:53.021Z</time></trkpt><trkpt lat="43.99741399808049" lon="12.296954661777537"><ele>329.0</ele><time>2026-04-26T06:52:54.021Z</time></trkpt><trkpt lat="43.99735649672255" lon="12.297124890407996"><ele>328.5</ele><time>2026-04-26T06:52:55.021Z</time></trkpt><trkpt lat="43.99731845366637" lon="12.29732348686369"><ele>328.0</ele><time>2026-04-26T06:52:56.021Z</time></trkpt><trkpt lat="43.99728264104066" lon="12.297530800164258"><ele>327.5</ele><time>2026-04-26T06:52:57.021Z</time></trkpt><trkpt lat="43.99724705741516" lon="12.29772133781923"><ele>327.0</ele><time>2026-04-26T06:52:58.021Z</time></trkpt><trkpt lat="43.99720417312946" lon="12.297887101735844"><ele>327.0</ele><time>2026-04-26T06:52:59.021Z</time></trkpt><trkpt lat="43.99714434399521" lon="12.298038007393599"><ele>327.0</ele><time>2026-04-26T06:53:00.021Z</time></trkpt><trkpt lat="43.99705726380016" lon="12.298187800570233"><ele>327.0</ele><time>2026-04-26T06:53:01.021Z</time></trkpt><trkpt lat="43.996945845965946" lon="12.29831775281731"><ele>327.0</ele><time>2026-04-26T06:53:02.021Z</time></trkpt><trkpt lat="43.99684068155786" lon="12.298426105648467"><ele>327.25</ele><time>2026-04-26T06:53:03.021Z</time></trkpt><trkpt lat="43.996755295194774" lon="12.298547563326942"><ele>327.5</ele><time>2026-04-26T06:53:04.021Z</time></trkpt><trkpt lat="43.99668769899885" lon="12.2987327005357"><ele>327.75</ele><time>2026-04-26T06:53:05.021Z</time></trkpt><trkpt lat="43.99663997184273" lon="12.298947491925361"><ele>328.0</ele><time>2026-04-26T06:53:06.021Z</time></trkpt><trkpt lat="43.99661227961305" lon="12.299159215768086"><ele>328.0</ele><time>2026-04-26T06:53:07.021Z</time></trkpt><trkpt lat="43.996581264850384" lon="12.29937254351558"><ele>328.0</ele><time>2026-04-26T06:53:08.021Z</time></trkpt><trkpt lat="43.99653554580061" lon="12.299585636682895"><ele>328.0</ele><time>2026-04-26T06:53:09.021Z</time></trkpt><trkpt lat="43.99649171651695" lon="12.299804593384115"><ele>327.3333333333333</ele><time>2026-04-26T06:53:10.021Z</time></trkpt><trkpt lat="43.996446827262254" lon="12.300024694335063"><ele>326.6666666666667</ele><time>2026-04-26T06:53:11.021Z</time></trkpt><trkpt lat="43.99636034694055" lon="12.300215081905392"><ele>326.0</ele><time>2026-04-26T06:53:12.021Z</time></trkpt><trkpt lat="43.996286426379214" lon="12.300389291319984"><ele>326.0</ele><time>2026-04-26T06:53:13.021Z</time></trkpt><trkpt lat="43.996189375557854" lon="12.300552506895894"><ele>326.0</ele><time>2026-04-26T06:53:14.021Z</time></trkpt><trkpt lat="43.99608212626633" lon="12.300705562712135"><ele>326.0</ele><time>2026-04-26T06:53:15.021Z</time></trkpt><trkpt lat="43.99597842925355" lon="12.300843655899142"><ele>325.25</ele><time>2026-04-26T06:53:16.021Z</time></trkpt><trkpt lat="43.99587680222543" lon="12.300972116340063"><ele>324.5</ele><time>2026-04-26T06:53:17.021Z</time></trkpt><trkpt lat="43.99578513949972" lon="12.301108058931284"><ele>323.75</ele><time>2026-04-26T06:53:18.021Z</time></trkpt><trkpt lat="43.99567069692111" lon="12.301196943397406"><ele>323.0</ele><time>2026-04-26T06:53:19.021Z</time></trkpt><trkpt lat="43.99556467328262" lon="12.301265188005125"><ele>322.25</ele><time>2026-04-26T06:53:20.021Z</time></trkpt><trkpt lat="43.99545773958498" lon="12.301296580069813"><ele>321.5</ele><time>2026-04-26T06:53:21.021Z</time></trkpt><trkpt lat="43.995337188050705" lon="12.301307571950145"><ele>320.75</ele><time>2026-04-26T06:53:22.021Z</time></trkpt><trkpt lat="43.99521170759334" lon="12.301276780153444"><ele>320.0</ele><time>2026-04-26T06:53:23.021Z</time></trkpt><trkpt lat="43.99507673258296" lon="12.30122882275262"><ele>317.25</ele><time>2026-04-26T06:53:24.021Z</time></trkpt><trkpt lat="43.99494686187424" lon="12.301149857924544"><ele>314.5</ele><time>2026-04-26T06:53:25.021Z</time></trkpt><trkpt lat="43.99480919498374" lon="12.301065073655128"><ele>311.75</ele><time>2026-04-26T06:53:26.021Z</time></trkpt><trkpt lat="43.99467312393955" lon="12.30099320476839"><ele>309.0</ele><time>2026-04-26T06:53:27.021Z</time></trkpt><trkpt lat="43.99453934416036" lon="12.30097892437565"><ele>309.0</ele><time>2026-04-26T06:53:28.021Z</time></trkpt><trkpt lat="43.994419063319434" lon="12.300976333057758"><ele>309.0</ele><time>2026-04-26T06:53:29.021Z</time></trkpt><trkpt lat="43.99431671849233" lon="12.301027370619096"><ele>309.0</ele><time>2026-04-26T06:53:30.021Z</time></trkpt><trkpt lat="43.99423603473829" lon="12.301138418748113"><ele>309.0</ele><time>2026-04-26T06:53:31.021Z</time></trkpt><trkpt lat="43.994169798818746" lon="12.301296217457823"><ele>308.0</ele><time>2026-04-26T06:53:32.021Z</time></trkpt><trkpt lat="43.99408884136428" lon="12.301394311015443"><ele>307.0</ele><time>2026-04-26T06:53:33.021Z</time></trkpt><trkpt lat="43.99399331159424" lon="12.301445970119754"><ele>306.0</ele><time>2026-04-26T06:53:34.021Z</time></trkpt><trkpt lat="43.99387790310332" lon="12.301397491109148"><ele>305.0</ele><time>2026-04-26T06:53:35.021Z</time></trkpt><trkpt lat="43.993763181815034" lon="12.301320402429063"><ele>305.0</ele><time>2026-04-26T06:53:36.021Z</time></trkpt><trkpt lat="43.993654208649204" lon="12.301201091865636"><ele>305.0</ele><time>2026-04-26T06:53:37.021Z</time></trkpt><trkpt lat="43.99354020717226" lon="12.30107669744719"><ele>305.0</ele><time>2026-04-26T06:53:38.021Z</time></trkpt><trkpt lat="43.9934240312741" lon="12.300924923384155"><ele>305.0</ele><time>2026-04-26T06:53:39.021Z</time></trkpt><trkpt lat="43.993286076548664" lon="12.300764431206122"><ele>306.0</ele><time>2026-04-26T06:53:40.021Z</time></trkpt><trkpt lat="43.993184077716215" lon="12.300603623609517"><ele>307.0</ele><time>2026-04-26T06:53:41.021Z</time></trkpt><trkpt lat="43.99308394687807" lon="12.30051855845551"><ele>308.0</ele><time>2026-04-26T06:53:42.021Z</time></trkpt><trkpt lat="43.99298222656357" lon="12.300461678097879"><ele>309.0</ele><time>2026-04-26T06:53:43.021Z</time></trkpt><trkpt lat="43.99288374792525" lon="12.300437920942805"><ele>309.0</ele><time>2026-04-26T06:53:44.021Z</time></trkpt><trkpt lat="43.99278097206905" lon="12.300492428185851"><ele>309.0</ele><time>2026-04-26T06:53:45.021Z</time></trkpt><trkpt lat="43.99267683814111" lon="12.30059886312972"><ele>309.0</ele><time>2026-04-26T06:53:46.021Z</time></trkpt><trkpt lat="43.99257436638261" lon="12.300698301219231"><ele>309.0</ele><time>2026-04-26T06:53:47.021Z</time></trkpt><trkpt lat="43.99245539822639" lon="12.300717041342828"><ele>310.25</ele><time>2026-04-26T06:53:48.021Z</time></trkpt><trkpt lat="43.992344619699914" lon="12.30069760724988"><ele>311.5</ele><time>2026-04-26T06:53:49.021Z</time></trkpt><trkpt lat="43.99223404066912" lon="12.300625142504785"><ele>312.75</ele><time>2026-04-26T06:53:50.021Z</time></trkpt><trkpt lat="43.99211886560446" lon="12.300525813568566"><ele>314.0</ele><time>2026-04-26T06:53:51.021Z</time></trkpt><trkpt lat="43.99200316866938" lon="12.300417390681167"><ele>313.4</ele><time>2026-04-26T06:53:52.021Z</time></trkpt><trkpt lat="43.99189767254428" lon="12.300358252219091"><ele>312.79999999999995</ele><time>2026-04-26T06:53:53.021Z</time></trkpt><trkpt lat="43.991801483300335" lon="12.300315145556942"><ele>312.20000000000005</ele><time>2026-04-26T06:53:54.021Z</time></trkpt><trkpt lat="43.99169693525174" lon="12.300397953856312"><ele>311.6</ele><time>2026-04-26T06:53:55.021Z</time></trkpt><trkpt lat="43.99161969702033" lon="12.300483537491118"><ele>311.0</ele><time>2026-04-26T06:53:56.021Z</time></trkpt><trkpt lat="43.99155981671505" lon="12.300658322878602"><ele>311.0</ele><time>2026-04-26T06:53:57.021Z</time></trkpt><trkpt lat="43.99149798881891" lon="12.300880542650544"><ele>311.0</ele><time>2026-04-26T06:53:58.02Z</time></trkpt><trkpt lat="43.99144561177909" lon="12.301087167964953"><ele>311.0</ele><time>2026-04-26T06:53:59.021Z</time></trkpt><trkpt lat="43.99136869059845" lon="12.301207177612088"><ele>311.0</ele><time>2026-04-26T06:54:00.021Z</time></trkpt><trkpt lat="43.99129833536455" lon="12.30128203206851"><ele>311.0</ele><time>2026-04-26T06:54:01.02Z</time></trkpt><trkpt lat="43.9912276255851" lon="12.301383570288557"><ele>311.0</ele><time>2026-04-26T06:54:02.021Z</time></trkpt><trkpt lat="43.991130609336565" lon="12.301476713112725"><ele>311.0</ele><time>2026-04-26T06:54:03.021Z</time></trkpt><trkpt lat="43.991007098611945" lon="12.301353589711349"><ele>311.0</ele><time>2026-04-26T06:54:04.021Z</time></trkpt><trkpt lat="43.99091131552276" lon="12.301274754402204"><ele>307.75</ele><time>2026-04-26T06:54:05.02Z</time></trkpt><trkpt lat="43.99082115436353" lon="12.301150875701154"><ele>304.5</ele><time>2026-04-26T06:54:06.02Z</time></trkpt><trkpt lat="43.99076295572305" lon="12.300977508975064"><ele>301.25</ele><time>2026-04-26T06:54:07.021Z</time></trkpt><trkpt lat="43.990726614978264" lon="12.300821688204119"><ele>298.0</ele><time>2026-04-26T06:54:08.021Z</time></trkpt><trkpt lat="43.9906611890896" lon="12.300729432163378"><ele>298.0</ele><time>2026-04-26T06:54:09.021Z</time></trkpt><trkpt lat="43.99059225455512" lon="12.300666390199956"><ele>298.0</ele><time>2026-04-26T06:54:10.02Z</time></trkpt><trkpt lat="43.99050226058309" lon="12.300671277846059"><ele>298.0</ele><time>2026-04-26T06:54:11.021Z</time></trkpt><trkpt lat="43.990420969144665" lon="12.300742726905002"><ele>298.0</ele><time>2026-04-26T06:54:12.021Z</time></trkpt><trkpt lat="43.99034930800497" lon="12.30087621956625"><ele>298.0</ele><time>2026-04-26T06:54:13.021Z</time></trkpt><trkpt lat="43.99027387273974" lon="12.301032526244247"><ele>298.0</ele><time>2026-04-26T06:54:14.021Z</time></trkpt><trkpt lat="43.990157408773086" lon="12.301154756378143"><ele>298.0</ele><time>2026-04-26T06:54:15.021Z</time></trkpt><trkpt lat="43.990020846551225" lon="12.30120177231909"><ele>298.0</ele><time>2026-04-26T06:54:16.021Z</time></trkpt><trkpt lat="43.98986451933039" lon="12.301239011553402"><ele>298.0</ele><time>2026-04-26T06:54:17.021Z</time></trkpt><trkpt lat="43.98972559229132" lon="12.30127994195259"><ele>296.0</ele><time>2026-04-26T06:54:18.021Z</time></trkpt><trkpt lat="43.98960350825506" lon="12.301294826363637"><ele>294.0</ele><time>2026-04-26T06:54:19.021Z</time></trkpt><trkpt lat="43.98948061255682" lon="12.301285275635387"><ele>292.0</ele><time>2026-04-26T06:54:20.021Z</time></trkpt><trkpt lat="43.9893682836845" lon="12.301230153734375"><ele>290.0</ele><time>2026-04-26T06:54:21.021Z</time></trkpt><trkpt lat="43.98926724815728" lon="12.301131356097109"><ele>290.33333333333337</ele><time>2026-04-26T06:54:22.021Z</time></trkpt><trkpt lat="43.9891670100731" lon="12.300982062788822"><ele>290.6666666666667</ele><time>2026-04-26T06:54:23.021Z</time></trkpt><trkpt lat="43.98907472443939" lon="12.300816194026313"><ele>291.0</ele><time>2026-04-26T06:54:24.021Z</time></trkpt><trkpt lat="43.98896690210952" lon="12.300647627748283"><ele>286.5</ele><time>2026-04-26T06:54:25.021Z</time></trkpt><trkpt lat="43.98887493148939" lon="12.30047490825097"><ele>282.0</ele><time>2026-04-26T06:54:26.021Z</time></trkpt><trkpt lat="43.988795513553505" lon="12.300325851244736"><ele>277.5</ele><time>2026-04-26T06:54:27.021Z</time></trkpt><trkpt lat="43.98872873963473" lon="12.30020207703044"><ele>273.0</ele><time>2026-04-26T06:54:28.021Z</time></trkpt><trkpt lat="43.98868366108934" lon="12.300116254293565"><ele>273.0</ele><time>2026-04-26T06:54:29.021Z</time></trkpt><trkpt lat="43.9886118354636" lon="12.300062597856927"><ele>273.0</ele><time>2026-04-26T06:54:30.021Z</time></trkpt><trkpt lat="43.98851258923702" lon="12.300045139458609"><ele>273.0</ele><time>2026-04-26T06:54:31.021Z</time></trkpt><trkpt lat="43.988403683281575" lon="12.300133344278189"><ele>273.0</ele><time>2026-04-26T06:54:32.021Z</time></trkpt><trkpt lat="43.98829420919846" lon="12.300212645428633"><ele>273.0</ele><time>2026-04-26T06:54:33.021Z</time></trkpt><trkpt lat="43.98818235228759" lon="12.300295323951385"><ele>275.0</ele><time>2026-04-26T06:54:34.021Z</time></trkpt><trkpt lat="43.98805075932948" lon="12.300357687739456"><ele>277.0</ele><time>2026-04-26T06:54:35.021Z</time></trkpt><trkpt lat="43.98792912636532" lon="12.300344035519238"><ele>279.0</ele><time>2026-04-26T06:54:36.021Z</time></trkpt><trkpt lat="43.98781696722947" lon="12.300329677484372"><ele>281.0</ele><time>2026-04-26T06:54:37.021Z</time></trkpt><trkpt lat="43.98771500270044" lon="12.300216160710939"><ele>281.0</ele><time>2026-04-26T06:54:38.021Z</time></trkpt><trkpt lat="43.98761977657197" lon="12.300091630829893"><ele>281.0</ele><time>2026-04-26T06:54:39.021Z</time></trkpt><trkpt lat="43.98752742048677" lon="12.29994941106981"><ele>281.0</ele><time>2026-04-26T06:54:40.021Z</time></trkpt><trkpt lat="43.98744794330587" lon="12.29972659448574"><ele>281.0</ele><time>2026-04-26T06:54:41.021Z</time></trkpt><trkpt lat="43.9873884170646" lon="12.299551266677941"><ele>278.0</ele><time>2026-04-26T06:54:42.021Z</time></trkpt><trkpt lat="43.98732796254709" lon="12.29939376920456"><ele>275.0</ele><time>2026-04-26T06:54:43.021Z</time></trkpt><trkpt lat="43.9872669549417" lon="12.299272265621873"><ele>272.0</ele><time>2026-04-26T06:54:44.021Z</time></trkpt><trkpt lat="43.98717828398239" lon="12.299184793448303"><ele>269.0</ele><time>2026-04-26T06:54:45.021Z</time></trkpt><trkpt lat="43.987068380420716" lon="12.29912716361173"><ele>269.0</ele><time>2026-04-26T06:54:46.021Z</time></trkpt><trkpt lat="43.98693248282262" lon="12.299175758159752"><ele>269.0</ele><time>2026-04-26T06:54:47.021Z</time></trkpt><trkpt lat="43.986801482227996" lon="12.299221013674869"><ele>269.0</ele><time>2026-04-26T06:54:48.021Z</time></trkpt><trkpt lat="43.986668914062975" lon="12.299235664609128"><ele>269.0</ele><time>2026-04-26T06:54:49.021Z</time></trkpt><trkpt lat="43.98654317830066" lon="12.299218448420673"><ele>270.75</ele><time>2026-04-26T06:54:50.021Z</time></trkpt><trkpt lat="43.98642071799171" lon="12.299122037084036"><ele>272.5</ele><time>2026-04-26T06:54:51.021Z</time></trkpt><trkpt lat="43.98632445470029" lon="12.29898434832754"><ele>274.25</ele><time>2026-04-26T06:54:52.021Z</time></trkpt><trkpt lat="43.98622196347873" lon="12.29889151049611"><ele>276.0</ele><time>2026-04-26T06:54:53.021Z</time></trkpt><trkpt lat="43.986117951414236" lon="12.298833816334866"><ele>275.25</ele><time>2026-04-26T06:54:54.021Z</time></trkpt><trkpt lat="43.98599806652031" lon="12.29881783939341"><ele>274.5</ele><time>2026-04-26T06:54:55.021Z</time></trkpt><trkpt lat="43.985874609993" lon="12.29887677152088"><ele>273.75</ele><time>2026-04-26T06:54:56.021Z</time></trkpt><trkpt lat="43.985759709846796" lon="12.298964064947269"><ele>273.0</ele><time>2026-04-26T06:54:57.021Z</time></trkpt><trkpt lat="43.985637900336684" lon="12.299064083863852"><ele>273.0</ele><time>2026-04-26T06:54:58.021Z</time></trkpt><trkpt lat="43.98550744036671" lon="12.299173086347649"><ele>273.0</ele><time>2026-04-26T06:54:59.021Z</time></trkpt><trkpt lat="43.98538011984795" lon="12.299295580891075"><ele>273.0</ele><time>2026-04-26T06:55:00.021Z</time></trkpt><trkpt lat="43.98525618045553" lon="12.299439755956731"><ele>273.0</ele><time>2026-04-26T06:55:01.021Z</time></trkpt><trkpt lat="43.98513943056268" lon="12.299582973615948"><ele>273.0</ele><time>2026-04-26T06:55:02.021Z</time></trkpt><trkpt lat="43.985042332035164" lon="12.29973228405632"><ele>273.0</ele><time>2026-04-26T06:55:03.021Z</time></trkpt><trkpt lat="43.98494403939853" lon="12.299848089112919"><ele>273.0</ele><time>2026-04-26T06:55:04.021Z</time></trkpt><trkpt lat="43.98486135955491" lon="12.2999580076366"><ele>272.75</ele><time>2026-04-26T06:55:05.021Z</time></trkpt><trkpt lat="43.9847707920809" lon="12.300062104380874"><ele>272.5</ele><time>2026-04-26T06:55:06.021Z</time></trkpt><trkpt lat="43.98473761382934" lon="12.30025253118627"><ele>272.25</ele><time>2026-04-26T06:55:07.021Z</time></trkpt><trkpt lat="43.98470256130343" lon="12.30044258212289"><ele>272.0</ele><time>2026-04-26T06:55:08.021Z</time></trkpt><trkpt lat="43.98462535806122" lon="12.300616723944295"><ele>272.0</ele><time>2026-04-26T06:55:09.021Z</time></trkpt><trkpt lat="43.98455133619082" lon="12.30079914029022"><ele>272.0</ele><time>2026-04-26T06:55:10.021Z</time></trkpt><trkpt lat="43.98448858177499" lon="12.300985737357271"><ele>272.0</ele><time>2026-04-26T06:55:11.021Z</time></trkpt><trkpt lat="43.984430482166545" lon="12.301155542422448"><ele>272.0</ele><time>2026-04-26T06:55:12.021Z</time></trkpt><trkpt lat="43.98438577989964" lon="12.301304369420764"><ele>270.0</ele><time>2026-04-26T06:55:13.021Z</time></trkpt><trkpt lat="43.98436128839401" lon="12.301431602447984"><ele>268.0</ele><time>2026-04-26T06:55:14.021Z</time></trkpt><trkpt lat="43.984364650364746" lon="12.301563270950705"><ele>266.0</ele><time>2026-04-26T06:55:15.021Z</time></trkpt><trkpt lat="43.98440343465744" lon="12.301692173612441"><ele>264.0</ele><time>2026-04-26T06:55:16.021Z</time></trkpt><trkpt lat="43.98447780522364" lon="12.3018182651"><ele>262.0</ele><time>2026-04-26T06:55:17.021Z</time></trkpt><trkpt lat="43.98458040827733" lon="12.301918712583335"><ele>262.0</ele><time>2026-04-26T06:55:18.021Z</time></trkpt><trkpt lat="43.98470806424975" lon="12.301984412270446"><ele>262.0</ele><time>2026-04-26T06:55:19.021Z</time></trkpt><trkpt lat="43.98485598104537" lon="12.302009695882786"><ele>262.0</ele><time>2026-04-26T06:55:20.021Z</time></trkpt><trkpt lat="43.985018058758136" lon="12.302029768672163"><ele>262.0</ele><time>2026-04-26T06:55:21.021Z</time></trkpt><trkpt lat="43.985168383390445" lon="12.302038465973371"><ele>262.6</ele><time>2026-04-26T06:55:22.021Z</time></trkpt><trkpt lat="43.98528153541148" lon="12.302046499361184"><ele>263.2</ele><time>2026-04-26T06:55:23.021Z</time></trkpt><trkpt lat="43.98536284507095" lon="12.302076436301734"><ele>263.8</ele><time>2026-04-26T06:55:24.021Z</time></trkpt><trkpt lat="43.98543288536137" lon="12.302133298859198"><ele>264.4</ele><time>2026-04-26T06:55:25.021Z</time></trkpt><trkpt lat="43.985477400359265" lon="12.302232445626133"><ele>265.0</ele><time>2026-04-26T06:55:26.021Z</time></trkpt><trkpt lat="43.985490722173225" lon="12.302359808408216"><ele>261.2</ele><time>2026-04-26T06:55:27.021Z</time></trkpt><trkpt lat="43.985463762450856" lon="12.302478613800535"><ele>257.4</ele><time>2026-04-26T06:55:28.021Z</time></trkpt><trkpt lat="43.98536543467311" lon="12.302521507206723"><ele>253.60000000000002</ele><time>2026-04-26T06:55:29.021Z</time></trkpt><trkpt lat="43.9852564518618" lon="12.30255173004468"><ele>249.8</ele><time>2026-04-26T06:55:30.021Z</time></trkpt><trkpt lat="43.98513584662827" lon="12.302526103721988"><ele>246.0</ele><time>2026-04-26T06:55:31.021Z</time></trkpt><trkpt lat="43.985007144770336" lon="12.302485878941676"><ele>245.75</ele><time>2026-04-26T06:55:32.021Z</time></trkpt><trkpt lat="43.9848752531738" lon="12.302444767914134"><ele>245.5</ele><time>2026-04-26T06:55:33.021Z</time></trkpt><trkpt lat="43.984741002611614" lon="12.302399825377508"><ele>245.25</ele><time>2026-04-26T06:55:34.021Z</time></trkpt><trkpt lat="43.98461324887791" lon="12.302352136271114"><ele>245.0</ele><time>2026-04-26T06:55:35.021Z</time></trkpt><trkpt lat="43.98449499937338" lon="12.302257616032596"><ele>244.5</ele><time>2026-04-26T06:55:36.021Z</time></trkpt><trkpt lat="43.984372180420294" lon="12.302156792619472"><ele>244.0</ele><time>2026-04-26T06:55:37.021Z</time></trkpt><trkpt lat="43.98425427297315" lon="12.302035187137"><ele>243.5</ele><time>2026-04-26T06:55:38.021Z</time></trkpt><trkpt lat="43.9841532658006" lon="12.301892095594944"><ele>243.0</ele><time>2026-04-26T06:55:39.021Z</time></trkpt><trkpt lat="43.98406753645456" lon="12.301732021504208"><ele>243.0</ele><time>2026-04-26T06:55:40.021Z</time></trkpt><trkpt lat="43.98401280654977" lon="12.301563119544207"><ele>243.0</ele><time>2026-04-26T06:55:41.021Z</time></trkpt><trkpt lat="43.9839976650558" lon="12.301398332385224"><ele>243.0</ele><time>2026-04-26T06:55:42.021Z</time></trkpt><trkpt lat="43.98400698909627" lon="12.301227522497987"><ele>243.0</ele><time>2026-04-26T06:55:43.021Z</time></trkpt><trkpt lat="43.984031433631365" lon="12.301033543339441"><ele>242.0</ele><time>2026-04-26T06:55:44.021Z</time></trkpt><trkpt lat="43.98405944578224" lon="12.300825556528322"><ele>241.0</ele><time>2026-04-26T06:55:45.021Z</time></trkpt><trkpt lat="43.98408150706685" lon="12.30060440215505"><ele>240.0</ele><time>2026-04-26T06:55:46.021Z</time></trkpt><trkpt lat="43.98412633612861" lon="12.300378765900293"><ele>237.66666666666669</ele><time>2026-04-26T06:55:47.021Z</time></trkpt><trkpt lat="43.984168919133175" lon="12.300167757407685"><ele>235.33333333333334</ele><time>2026-04-26T06:55:48.021Z</time></trkpt><trkpt lat="43.984199343129994" lon="12.299967924374764"><ele>233.0</ele><time>2026-04-26T06:55:49.021Z</time></trkpt><trkpt lat="43.98420289451219" lon="12.2997572753001"><ele>231.25</ele><time>2026-04-26T06:55:50.021Z</time></trkpt><trkpt lat="43.98418646586088" lon="12.299553825336435"><ele>229.5</ele><time>2026-04-26T06:55:51.021Z</time></trkpt><trkpt lat="43.98417388234138" lon="12.299348878778837"><ele>227.75</ele><time>2026-04-26T06:55:52.021Z</time></trkpt><trkpt lat="43.984188784205024" lon="12.299156892137542"><ele>226.0</ele><time>2026-04-26T06:55:53.021Z</time></trkpt><trkpt lat="43.984241419381284" lon="12.298973798359782"><ele>227.5</ele><time>2026-04-26T06:55:54.022Z</time></trkpt><trkpt lat="43.98429714498089" lon="12.298785484314449"><ele>229.0</ele><time>2026-04-26T06:55:55.022Z</time></trkpt><trkpt lat="43.984357732839506" lon="12.298614544453887"><ele>230.5</ele><time>2026-04-26T06:55:56.022Z</time></trkpt><trkpt lat="43.98438449717703" lon="12.298466478348915"><ele>232.0</ele><time>2026-04-26T06:55:57.022Z</time></trkpt><trkpt lat="43.98440025319484" lon="12.298347341673866"><ele>232.0</ele><time>2026-04-26T06:55:58.022Z</time></trkpt><trkpt lat="43.98438034237508" lon="12.298236715178296"><ele>232.0</ele><time>2026-04-26T06:55:59.022Z</time></trkpt><trkpt lat="43.984318387175804" lon="12.29814864174979"><ele>232.0</ele><time>2026-04-26T06:56:00.022Z</time></trkpt><trkpt lat="43.98422433960155" lon="12.298096182231278"><ele>232.0</ele><time>2026-04-26T06:56:01.022Z</time></trkpt><trkpt lat="43.984141387117035" lon="12.29810649741616"><ele>232.0</ele><time>2026-04-26T06:56:02.022Z</time></trkpt><trkpt lat="43.98407112700874" lon="12.298208643395096"><ele>228.25</ele><time>2026-04-26T06:56:03.022Z</time></trkpt><trkpt lat="43.98403112304044" lon="12.298353400226665"><ele>224.5</ele><time>2026-04-26T06:56:04.022Z</time></trkpt><trkpt lat="43.98402202599892" lon="12.298528759657742"><ele>220.75</ele><time>2026-04-26T06:56:05.021Z</time></trkpt><trkpt lat="43.98401148859977" lon="12.298721196987549"><ele>217.0</ele><time>2026-04-26T06:56:06.021Z</time></trkpt><trkpt lat="43.983965819226995" lon="12.298908523639835"><ele>220.0</ele><time>2026-04-26T06:56:07.021Z</time></trkpt><trkpt lat="43.98390176301566" lon="12.299094580235325"><ele>223.0</ele><time>2026-04-26T06:56:08.022Z</time></trkpt><trkpt lat="43.98382290766065" lon="12.29928224696107"><ele>226.0</ele><time>2026-04-26T06:56:09.022Z</time></trkpt><trkpt lat="43.98373269693734" lon="12.299473166712906"><ele>226.0</ele><time>2026-04-26T06:56:10.021Z</time></trkpt><trkpt lat="43.98363539217443" lon="12.299665499301238"><ele>226.0</ele><time>2026-04-26T06:56:11.022Z</time></trkpt><trkpt lat="43.983525924451065" lon="12.299875707348486"><ele>226.0</ele><time>2026-04-26T06:56:12.022Z</time></trkpt><trkpt lat="43.98341298779963" lon="12.300090198315358"><ele>221.66666666666666</ele><time>2026-04-26T06:56:13.021Z</time></trkpt><trkpt lat="43.98330252377065" lon="12.30029999328936"><ele>217.33333333333331</ele><time>2026-04-26T06:56:14.021Z</time></trkpt><trkpt lat="43.9832115795922" lon="12.300511559741494"><ele>213.0</ele><time>2026-04-26T06:56:15.021Z</time></trkpt><trkpt lat="43.983111925849684" lon="12.300698966906278"><ele>213.0</ele><time>2026-04-26T06:56:16.022Z</time></trkpt><trkpt lat="43.98301778648177" lon="12.300878341785593"><ele>213.0</ele><time>2026-04-26T06:56:17.021Z</time></trkpt><trkpt lat="43.98292570532695" lon="12.301056992963291"><ele>213.0</ele><time>2026-04-26T06:56:18.021Z</time></trkpt><trkpt lat="43.98282419548047" lon="12.301232404789776"><ele>213.0</ele><time>2026-04-26T06:56:19.021Z</time></trkpt><trkpt lat="43.982713825071585" lon="12.301407974698668"><ele>213.0</ele><time>2026-04-26T06:56:20.021Z</time></trkpt><trkpt lat="43.98260508272586" lon="12.301574515710636"><ele>213.0</ele><time>2026-04-26T06:56:21.021Z</time></trkpt><trkpt lat="43.98250412106602" lon="12.301724875101652"><ele>209.25</ele><time>2026-04-26T06:56:22.021Z</time></trkpt><trkpt lat="43.98240892853947" lon="12.301862554031938"><ele>205.5</ele><time>2026-04-26T06:56:23.021Z</time></trkpt><trkpt lat="43.98232423053279" lon="12.301984836999356"><ele>201.75</ele><time>2026-04-26T06:56:24.021Z</time></trkpt><trkpt lat="43.98225623479697" lon="12.302098738391221"><ele>198.0</ele><time>2026-04-26T06:56:25.021Z</time></trkpt><trkpt lat="43.98220204002281" lon="12.302220527076052"><ele>198.0</ele><time>2026-04-26T06:56:26.021Z</time></trkpt><trkpt lat="43.98218131673987" lon="12.302363982549318"><ele>198.0</ele><time>2026-04-26T06:56:27.021Z</time></trkpt><trkpt lat="43.98219568852758" lon="12.302526728493564"><ele>198.0</ele><time>2026-04-26T06:56:28.021Z</time></trkpt><trkpt lat="43.98226372537319" lon="12.302673032051384"><ele>198.0</ele><time>2026-04-26T06:56:29.021Z</time></trkpt><trkpt lat="43.982353175825466" lon="12.302829239243577"><ele>198.0</ele><time>2026-04-26T06:56:30.021Z</time></trkpt><trkpt lat="43.982440048313606" lon="12.302945283443702"><ele>198.0</ele><time>2026-04-26T06:56:31.021Z</time></trkpt><trkpt lat="43.98252307687363" lon="12.303041745009919"><ele>198.0</ele><time>2026-04-26T06:56:32.021Z</time></trkpt><trkpt lat="43.98255832368237" lon="12.303131646602214"><ele>198.0</ele><time>2026-04-26T06:56:33.021Z</time></trkpt><trkpt lat="43.98256582535157" lon="12.303243328478079"><ele>198.0</ele><time>2026-04-26T06:56:34.021Z</time></trkpt><trkpt lat="43.982522449313265" lon="12.303339040057338"><ele>198.0</ele><time>2026-04-26T06:56:35.021Z</time></trkpt><trkpt lat="43.98244552093782" lon="12.30338503218744"><ele>198.0</ele><time>2026-04-26T06:56:36.021Z</time></trkpt><trkpt lat="43.98235942512018" lon="12.303368767482324"><ele>198.0</ele><time>2026-04-26T06:56:37.021Z</time></trkpt><trkpt lat="43.98228361221418" lon="12.303263569154822"><ele>198.0</ele><time>2026-04-26T06:56:38.021Z</time></trkpt><trkpt lat="43.98222410487881" lon="12.303140255970435"><ele>198.0</ele><time>2026-04-26T06:56:39.021Z</time></trkpt><trkpt lat="43.98215730951214" lon="12.302989889720376"><ele>198.0</ele><time>2026-04-26T06:56:40.021Z</time></trkpt><trkpt lat="43.98208986640695" lon="12.302813180482582"><ele>198.0</ele><time>2026-04-26T06:56:41.021Z</time></trkpt><trkpt lat="43.98202018521377" lon="12.302638247609663"><ele>198.0</ele><time>2026-04-26T06:56:42.021Z</time></trkpt><trkpt lat="43.981964954627294" lon="12.302448466992088"><ele>198.0</ele><time>2026-04-26T06:56:43.021Z</time></trkpt><trkpt lat="43.981946045184344" lon="12.302246762169094"><ele>198.0</ele><time>2026-04-26T06:56:44.021Z</time></trkpt><trkpt lat="43.98194266036495" lon="12.302044340689418"><ele>198.0</ele><time>2026-04-26T06:56:45.021Z</time></trkpt><trkpt lat="43.98195878844717" lon="12.301834301516003"><ele>198.0</ele><time>2026-04-26T06:56:46.021Z</time></trkpt><trkpt lat="43.981987926939766" lon="12.301626072646721"><ele>198.0</ele><time>2026-04-26T06:56:47.021Z</time></trkpt><trkpt lat="43.98201837142787" lon="12.30143793100437"><ele>198.0</ele><time>2026-04-26T06:56:48.021Z</time></trkpt><trkpt lat="43.98208939699562" lon="12.30127605732548"><ele>198.0</ele><time>2026-04-26T06:56:49.021Z</time></trkpt><trkpt lat="43.98216071567514" lon="12.301109960330924"><ele>198.0</ele><time>2026-04-26T06:56:50.021Z</time></trkpt><trkpt lat="43.98221595512937" lon="12.30093758637725"><ele>196.60000000000002</ele><time>2026-04-26T06:56:51.021Z</time></trkpt><trkpt lat="43.9822694356026" lon="12.300795691425966"><ele>195.20000000000002</ele><time>2026-04-26T06:56:52.021Z</time></trkpt><trkpt lat="43.9823079597639" lon="12.300676876747852"><ele>193.8</ele><time>2026-04-26T06:56:53.021Z</time></trkpt><trkpt lat="43.982315701089334" lon="12.300558980258844"><ele>192.4</ele><time>2026-04-26T06:56:54.022Z</time></trkpt><trkpt lat="43.982288016889676" lon="12.300453424407134"><ele>191.0</ele><time>2026-04-26T06:56:55.022Z</time></trkpt><trkpt lat="43.98223009988461" lon="12.300371516327699"><ele>191.0</ele><time>2026-04-26T06:56:56.022Z</time></trkpt><trkpt lat="43.98215416126383" lon="12.300326292015477"><ele>191.0</ele><time>2026-04-26T06:56:57.022Z</time></trkpt><trkpt lat="43.982075264536824" lon="12.30035116595433"><ele>191.0</ele><time>2026-04-26T06:56:58.022Z</time></trkpt><trkpt lat="43.98200231663177" lon="12.300426253277513"><ele>191.0</ele><time>2026-04-26T06:56:59.022Z</time></trkpt><trkpt lat="43.98194529964958" lon="12.300569551939775"><ele>191.0</ele><time>2026-04-26T06:57:00.022Z</time></trkpt><trkpt lat="43.98189024893379" lon="12.30073635032066"><ele>191.0</ele><time>2026-04-26T06:57:01.022Z</time></trkpt><trkpt lat="43.98181442807032" lon="12.300909519789355"><ele>191.0</ele><time>2026-04-26T06:57:02.022Z</time></trkpt><trkpt lat="43.9817672508123" lon="12.301084073118467"><ele>191.0</ele><time>2026-04-26T06:57:03.022Z</time></trkpt><trkpt lat="43.981701538503884" lon="12.301241086009028"><ele>191.0</ele><time>2026-04-26T06:57:04.022Z</time></trkpt><trkpt lat="43.98164569296314" lon="12.301397979955219"><ele>187.0</ele><time>2026-04-26T06:57:05.022Z</time></trkpt><trkpt lat="43.981586663152" lon="12.301550832469152"><ele>183.0</ele><time>2026-04-26T06:57:06.022Z</time></trkpt><trkpt lat="43.981516583127856" lon="12.301678521272446"><ele>179.0</ele><time>2026-04-26T06:57:07.022Z</time></trkpt><trkpt lat="43.98146453050048" lon="12.301812004573074"><ele>175.0</ele><time>2026-04-26T06:57:08.022Z</time></trkpt><trkpt lat="43.9814167425961" lon="12.301938030580526"><ele>175.0</ele><time>2026-04-26T06:57:09.022Z</time></trkpt><trkpt lat="43.981380856760104" lon="12.30208637098903"><ele>175.0</ele><time>2026-04-26T06:57:10.022Z</time></trkpt><trkpt lat="43.9813343562545" lon="12.302214447654201"><ele>175.0</ele><time>2026-04-26T06:57:11.022Z</time></trkpt><trkpt lat="43.98128335455175" lon="12.30234286636966"><ele>175.0</ele><time>2026-04-26T06:57:12.022Z</time></trkpt><trkpt lat="43.98123040510371" lon="12.302460903082695"><ele>175.0</ele><time>2026-04-26T06:57:13.022Z</time></trkpt><trkpt lat="43.98118478403971" lon="12.302589603826156"><ele>175.8</ele><time>2026-04-26T06:57:14.022Z</time></trkpt><trkpt lat="43.981141546331024" lon="12.302718745292243"><ele>176.6</ele><time>2026-04-26T06:57:15.022Z</time></trkpt><trkpt lat="43.981086392348054" lon="12.302808224889999"><ele>177.39999999999998</ele><time>2026-04-26T06:57:16.022Z</time></trkpt><trkpt lat="43.98102378023193" lon="12.302919986734558"><ele>178.2</ele><time>2026-04-26T06:57:18.022Z</time></trkpt><trkpt lat="43.98089558002799" lon="12.302870248489736"><ele>179.0</ele><time>2026-04-26T06:57:22.022Z</time></trkpt><trkpt lat="43.9808387473166" lon="12.302804571444666"><ele>175.79999999999998</ele><time>2026-04-26T06:57:23.022Z</time></trkpt><trkpt lat="43.980767398180305" lon="12.302732179422515"><ele>172.6</ele><time>2026-04-26T06:57:24.022Z</time></trkpt><trkpt lat="43.9806856100095" lon="12.302647960190138"><ele>169.4</ele><time>2026-04-26T06:57:25.022Z</time></trkpt><trkpt lat="43.980583072300306" lon="12.302550347138608"><ele>166.2</ele><time>2026-04-26T06:57:26.022Z</time></trkpt><trkpt lat="43.98048622074799" lon="12.302453653106406"><ele>163.0</ele><time>2026-04-26T06:57:27.022Z</time></trkpt><trkpt lat="43.98037945780644" lon="12.302359884545805"><ele>163.0</ele><time>2026-04-26T06:57:28.022Z</time></trkpt><trkpt lat="43.98026430368109" lon="12.302282664447326"><ele>163.0</ele><time>2026-04-26T06:57:29.022Z</time></trkpt><trkpt lat="43.980132831057475" lon="12.302213023539728"><ele>163.0</ele><time>2026-04-26T06:57:30.022Z</time></trkpt><trkpt lat="43.97999732781589" lon="12.302170085109053"><ele>163.0</ele><time>2026-04-26T06:57:31.022Z</time></trkpt><trkpt lat="43.979870376540816" lon="12.30212103006575"><ele>165.75</ele><time>2026-04-26T06:57:32.022Z</time></trkpt><trkpt lat="43.97975465947375" lon="12.302069023566835"><ele>168.5</ele><time>2026-04-26T06:57:33.022Z</time></trkpt><trkpt lat="43.97964917795734" lon="12.302025065960368"><ele>171.25</ele><time>2026-04-26T06:57:34.022Z</time></trkpt><trkpt lat="43.97954072780292" lon="12.301983358538573"><ele>174.0</ele><time>2026-04-26T06:57:35.022Z</time></trkpt><trkpt lat="43.97943090663188" lon="12.301939730419516"><ele>174.0</ele><time>2026-04-26T06:57:36.022Z</time></trkpt><trkpt lat="43.979319166132534" lon="12.30190374017532"><ele>174.0</ele><time>2026-04-26T06:57:37.022Z</time></trkpt><trkpt lat="43.97920916077867" lon="12.301868290442943"><ele>174.0</ele><time>2026-04-26T06:57:38.022Z</time></trkpt><trkpt lat="43.979109808133714" lon="12.301803055644553"><ele>174.0</ele><time>2026-04-26T06:57:39.022Z</time></trkpt><trkpt lat="43.97900055769802" lon="12.301763818493201"><ele>173.25</ele><time>2026-04-26T06:57:40.022Z</time></trkpt><trkpt lat="43.97888401738755" lon="12.301722115550374"><ele>172.5</ele><time>2026-04-26T06:57:41.022Z</time></trkpt><trkpt lat="43.97876112949915" lon="12.3016788091199"><ele>171.75</ele><time>2026-04-26T06:57:42.022Z</time></trkpt><trkpt lat="43.978634457677664" lon="12.301629195567804"><ele>171.0</ele><time>2026-04-26T06:57:43.022Z</time></trkpt><trkpt lat="43.978505259005495" lon="12.301586082242483"><ele>171.0</ele><time>2026-04-26T06:57:44.022Z</time></trkpt><trkpt lat="43.97838334477814" lon="12.301517483786403"><ele>171.0</ele><time>2026-04-26T06:57:45.022Z</time></trkpt><trkpt lat="43.978256014688455" lon="12.301507389526453"><ele>171.0</ele><time>2026-04-26T06:57:46.022Z</time></trkpt><trkpt lat="43.97813165737171" lon="12.301551756736767"><ele>171.0</ele><time>2026-04-26T06:57:47.022Z</time></trkpt><trkpt lat="43.978021778518794" lon="12.301623629885965"><ele>170.0</ele><time>2026-04-26T06:57:48.022Z</time></trkpt><trkpt lat="43.977920918932014" lon="12.30172093863016"><ele>169.0</ele><time>2026-04-26T06:57:49.022Z</time></trkpt><trkpt lat="43.977841689135886" lon="12.301840481339848"><ele>168.0</ele><time>2026-04-26T06:57:50.022Z</time></trkpt><trkpt lat="43.97777508084847" lon="12.301999137384872"><ele>167.0</ele><time>2026-04-26T06:57:51.022Z</time></trkpt><trkpt lat="43.977717505334375" lon="12.302184177513146"><ele>163.33333333333331</ele><time>2026-04-26T06:57:52.022Z</time></trkpt><trkpt lat="43.97767255986813" lon="12.302375489520324"><ele>159.66666666666666</ele><time>2026-04-26T06:57:53.022Z</time></trkpt><trkpt lat="43.97762006264263" lon="12.302569617418"><ele>156.0</ele><time>2026-04-26T06:57:54.022Z</time></trkpt><trkpt lat="43.97757333374706" lon="12.302782294188136"><ele>156.0</ele><time>2026-04-26T06:57:55.022Z</time></trkpt><trkpt lat="43.97752137349914" lon="12.302979607663728"><ele>156.0</ele><time>2026-04-26T06:57:56.022Z</time></trkpt><trkpt lat="43.97747157770997" lon="12.303151754696835"><ele>156.0</ele><time>2026-04-26T06:57:57.022Z</time></trkpt><trkpt lat="43.977416758280654" lon="12.303297324761036"><ele>156.0</ele><time>2026-04-26T06:57:58.022Z</time></trkpt><trkpt lat="43.97734599344303" lon="12.303397023749076"><ele>158.5</ele><time>2026-04-26T06:57:59.022Z</time></trkpt><trkpt lat="43.97723640341596" lon="12.303420994682117"><ele>161.0</ele><time>2026-04-26T06:58:00.022Z</time></trkpt><trkpt lat="43.97712658996723" lon="12.303418366500084"><ele>163.5</ele><time>2026-04-26T06:58:01.022Z</time></trkpt><trkpt lat="43.97700141176747" lon="12.303417003733006"><ele>166.0</ele><time>2026-04-26T06:58:02.022Z</time></trkpt><trkpt lat="43.97686910600621" lon="12.303404868989928"><ele>166.0</ele><time>2026-04-26T06:58:03.022Z</time></trkpt><trkpt lat="43.97672652405758" lon="12.303389057366543"><ele>166.0</ele><time>2026-04-26T06:58:04.022Z</time></trkpt><trkpt lat="43.976580948386214" lon="12.303403021486185"><ele>166.0</ele><time>2026-04-26T06:58:05.022Z</time></trkpt><trkpt lat="43.97643450911611" lon="12.30338781734918"><ele>166.0</ele><time>2026-04-26T06:58:06.022Z</time></trkpt><trkpt lat="43.97628826758053" lon="12.303373563236708"><ele>167.66666666666669</ele><time>2026-04-26T06:58:07.022Z</time></trkpt><trkpt lat="43.97612886005724" lon="12.303382540840515"><ele>169.33333333333334</ele><time>2026-04-26T06:58:08.022Z</time></trkpt><trkpt lat="43.97596790374434" lon="12.303386935485527"><ele>171.0</ele><time>2026-04-26T06:58:09.022Z</time></trkpt><trkpt lat="43.97580355214282" lon="12.30338402303257"><ele>172.66666666666666</ele><time>2026-04-26T06:58:10.022Z</time></trkpt><trkpt lat="43.97562896410144" lon="12.303366799410897"><ele>174.33333333333331</ele><time>2026-04-26T06:58:11.022Z</time></trkpt><trkpt lat="43.97545788636892" lon="12.303361841067606"><ele>176.0</ele><time>2026-04-26T06:58:12.022Z</time></trkpt><trkpt lat="43.975281701111825" lon="12.303359119246513"><ele>176.0</ele><time>2026-04-26T06:58:13.022Z</time></trkpt><trkpt lat="43.97511047896779" lon="12.303354243755665"><ele>176.0</ele><time>2026-04-26T06:58:14.022Z</time></trkpt><trkpt lat="43.97494304424002" lon="12.303353799787217"><ele>176.0</ele><time>2026-04-26T06:58:15.022Z</time></trkpt><trkpt lat="43.97478026728968" lon="12.303351501262265"><ele>177.66666666666666</ele><time>2026-04-26T06:58:16.022Z</time></trkpt><trkpt lat="43.974622112160645" lon="12.303331746751663"><ele>179.33333333333334</ele><time>2026-04-26T06:58:17.022Z</time></trkpt><trkpt lat="43.974463684007766" lon="12.303289164275757"><ele>181.0</ele><time>2026-04-26T06:58:18.022Z</time></trkpt><trkpt lat="43.974313905185966" lon="12.303253768705433"><ele>183.0</ele><time>2026-04-26T06:58:19.022Z</time></trkpt><trkpt lat="43.97416349120378" lon="12.303226636829347"><ele>185.0</ele><time>2026-04-26T06:58:20.022Z</time></trkpt><trkpt lat="43.97401319418605" lon="12.303235007195365"><ele>187.0</ele><time>2026-04-26T06:58:21.022Z</time></trkpt><trkpt lat="43.973856942002676" lon="12.303272529125945"><ele>187.0</ele><time>2026-04-26T06:58:22.022Z</time></trkpt><trkpt lat="43.97368945017876" lon="12.303325773139958"><ele>187.0</ele><time>2026-04-26T06:58:23.022Z</time></trkpt><trkpt lat="43.97352455498051" lon="12.303373474161958"><ele>187.0</ele><time>2026-04-26T06:58:24.022Z</time></trkpt><trkpt lat="43.97335204932606" lon="12.30341124883928"><ele>187.75</ele><time>2026-04-26T06:58:25.022Z</time></trkpt><trkpt lat="43.97319467544788" lon="12.303442225198912"><ele>188.5</ele><time>2026-04-26T06:58:26.022Z</time></trkpt><trkpt lat="43.973052496393635" lon="12.303464721931986"><ele>189.25</ele><time>2026-04-26T06:58:27.022Z</time></trkpt><trkpt lat="43.97291478787778" lon="12.303504751186033"><ele>190.0</ele><time>2026-04-26T06:58:28.022Z</time></trkpt><trkpt lat="43.97277661647543" lon="12.303580972243248"><ele>190.0</ele><time>2026-04-26T06:58:29.022Z</time></trkpt><trkpt lat="43.9726495004875" lon="12.303683754241348"><ele>190.0</ele><time>2026-04-26T06:58:30.022Z</time></trkpt><trkpt lat="43.97252330189001" lon="12.303791514210015"><ele>190.0</ele><time>2026-04-26T06:58:31.022Z</time></trkpt><trkpt lat="43.97240032152761" lon="12.303883491979771"><ele>190.0</ele><time>2026-04-26T06:58:32.022Z</time></trkpt><trkpt lat="43.97228996114429" lon="12.303964714415756"><ele>191.66666666666669</ele><time>2026-04-26T06:58:33.022Z</time></trkpt><trkpt lat="43.97221841122" lon="12.304032595495622"><ele>193.33333333333334</ele><time>2026-04-26T06:58:34.022Z</time></trkpt><trkpt lat="43.97217175595781" lon="12.30409722507299"><ele>195.0</ele><time>2026-04-26T06:58:35.022Z</time></trkpt><trkpt lat="43.972138022586684" lon="12.304171380037506"><ele>196.66666666666669</ele><time>2026-04-26T06:58:36.022Z</time></trkpt><trkpt lat="43.972099684762576" lon="12.304272192122834"><ele>198.33333333333334</ele><time>2026-04-26T06:58:37.022Z</time></trkpt><trkpt lat="43.97211000655825" lon="12.304393040679102"><ele>200.0</ele><time>2026-04-26T06:58:38.022Z</time></trkpt><trkpt lat="43.97212783534215" lon="12.304514132222478"><ele>200.0</ele><time>2026-04-26T06:58:39.022Z</time></trkpt><trkpt lat="43.972183885586766" lon="12.304628455172125"><ele>200.0</ele><time>2026-04-26T06:58:40.022Z</time></trkpt><trkpt lat="43.972269568739364" lon="12.304729087432843"><ele>200.0</ele><time>2026-04-26T06:58:41.022Z</time></trkpt><trkpt lat="43.972368502847026" lon="12.304818930622162"><ele>200.0</ele><time>2026-04-26T06:58:42.022Z</time></trkpt><trkpt lat="43.972482394894" lon="12.3048813517037"><ele>204.5</ele><time>2026-04-26T06:58:43.022Z</time></trkpt><trkpt lat="43.97261328699963" lon="12.304913370633193"><ele>209.0</ele><time>2026-04-26T06:58:44.022Z</time></trkpt><trkpt lat="43.972755600368664" lon="12.304906561245406"><ele>213.5</ele><time>2026-04-26T06:58:45.022Z</time></trkpt><trkpt lat="43.972905623779226" lon="12.304878537703189"><ele>218.0</ele><time>2026-04-26T06:58:46.022Z</time></trkpt><trkpt lat="43.97307028820375" lon="12.304828496010815"><ele>218.0</ele><time>2026-04-26T06:58:47.022Z</time></trkpt><trkpt lat="43.97323388114737" lon="12.304768539772747"><ele>218.0</ele><time>2026-04-26T06:58:48.022Z</time></trkpt><trkpt lat="43.97339946976916" lon="12.30469255834123"><ele>218.0</ele><time>2026-04-26T06:58:49.022Z</time></trkpt><trkpt lat="43.97355193276122" lon="12.304647150122547"><ele>215.60000000000002</ele><time>2026-04-26T06:58:50.022Z</time></trkpt><trkpt lat="43.97367348352644" lon="12.304574380319586"><ele>213.20000000000002</ele><time>2026-04-26T06:58:51.022Z</time></trkpt><trkpt lat="43.97377616820756" lon="12.30456204633945"><ele>210.8</ele><time>2026-04-26T06:58:52.022Z</time></trkpt><trkpt lat="43.973864204035486" lon="12.304574050190643"><ele>208.4</ele><time>2026-04-26T06:58:53.022Z</time></trkpt><trkpt lat="43.97396433789605" lon="12.304625247455856"><ele>206.0</ele><time>2026-04-26T06:58:54.022Z</time></trkpt><trkpt lat="43.974043640305766" lon="12.304737186758247"><ele>207.25</ele><time>2026-04-26T06:58:55.022Z</time></trkpt><trkpt lat="43.9741387399929" lon="12.30488699323951"><ele>208.5</ele><time>2026-04-26T06:58:56.022Z</time></trkpt><trkpt lat="43.974259503178274" lon="12.304988359009679"><ele>209.75</ele><time>2026-04-26T06:58:57.022Z</time></trkpt><trkpt lat="43.9743927114678" lon="12.30507175855485"><ele>211.0</ele><time>2026-04-26T06:58:58.022Z</time></trkpt><trkpt lat="43.97453146030641" lon="12.305144049703685"><ele>211.0</ele><time>2026-04-26T06:58:59.022Z</time></trkpt><trkpt lat="43.97462401030308" lon="12.305249262050284"><ele>211.0</ele><time>2026-04-26T06:59:00.022Z</time></trkpt><trkpt lat="43.974706076810044" lon="12.30539207328672"><ele>211.0</ele><time>2026-04-26T06:59:01.022Z</time></trkpt><trkpt lat="43.97477745070375" lon="12.305557106433128"><ele>211.0</ele><time>2026-04-26T06:59:02.022Z</time></trkpt><trkpt lat="43.97482988339257" lon="12.305745002986265"><ele>212.75</ele><time>2026-04-26T06:59:03.022Z</time></trkpt><trkpt lat="43.97491742873166" lon="12.30589787056921"><ele>214.5</ele><time>2026-04-26T06:59:04.022Z</time></trkpt><trkpt lat="43.97504288679197" lon="12.30597909941281"><ele>216.25</ele><time>2026-04-26T06:59:05.022Z</time></trkpt><trkpt lat="43.9751820816491" lon="12.306031059216043"><ele>218.0</ele><time>2026-04-26T06:59:06.022Z</time></trkpt><trkpt lat="43.97531098761537" lon="12.306052795081948"><ele>218.0</ele><time>2026-04-26T06:59:07.022Z</time></trkpt><trkpt lat="43.975419824698704" lon="12.30606072881632"><ele>218.0</ele><time>2026-04-26T06:59:08.022Z</time></trkpt><trkpt lat="43.97550752803647" lon="12.306085376821672"><ele>218.0</ele><time>2026-04-26T06:59:09.022Z</time></trkpt><trkpt lat="43.97558254995072" lon="12.306160180050304"><ele>218.0</ele><time>2026-04-26T06:59:10.022Z</time></trkpt><trkpt lat="43.97559837423167" lon="12.306291072987126"><ele>218.0</ele><time>2026-04-26T06:59:11.022Z</time></trkpt><trkpt lat="43.97558208906138" lon="12.306393387266803"><ele>218.0</ele><time>2026-04-26T06:59:12.022Z</time></trkpt><trkpt lat="43.97549459549147" lon="12.30647321218233"><ele>218.0</ele><time>2026-04-26T06:59:13.022Z</time></trkpt><trkpt lat="43.97537465955433" lon="12.306469710085903"><ele>218.0</ele><time>2026-04-26T06:59:14.022Z</time></trkpt><trkpt lat="43.975263532742275" lon="12.30641572548552"><ele>218.0</ele><time>2026-04-26T06:59:15.022Z</time></trkpt><trkpt lat="43.97512566501434" lon="12.306365575623548"><ele>221.33333333333334</ele><time>2026-04-26T06:59:16.022Z</time></trkpt><trkpt lat="43.974969077085284" lon="12.306327868495233"><ele>224.66666666666669</ele><time>2026-04-26T06:59:17.022Z</time></trkpt><trkpt lat="43.97480648220662" lon="12.30624318918278"><ele>228.0</ele><time>2026-04-26T06:59:18.022Z</time></trkpt><trkpt lat="43.974650834225244" lon="12.306141262777913"><ele>228.0</ele><time>2026-04-26T06:59:19.022Z</time></trkpt><trkpt lat="43.97451168061804" lon="12.306037861957924"><ele>228.0</ele><time>2026-04-26T06:59:20.022Z</time></trkpt><trkpt lat="43.97439746759212" lon="12.305965262350563"><ele>228.0</ele><time>2026-04-26T06:59:21.022Z</time></trkpt><trkpt lat="43.974280313680005" lon="12.305945024839485"><ele>228.0</ele><time>2026-04-26T06:59:22.022Z</time></trkpt><trkpt lat="43.974174129762" lon="12.305979344167255"><ele>230.0</ele><time>2026-04-26T06:59:23.022Z</time></trkpt><trkpt lat="43.97407233821786" lon="12.306047617768208"><ele>232.0</ele><time>2026-04-26T06:59:24.022Z</time></trkpt><trkpt lat="43.97399271144494" lon="12.30615871914126"><ele>234.0</ele><time>2026-04-26T06:59:25.022Z</time></trkpt><trkpt lat="43.973924047524406" lon="12.306337669594098"><ele>236.0</ele><time>2026-04-26T06:59:26.022Z</time></trkpt><trkpt lat="43.97386478635651" lon="12.306540081107052"><ele>238.66666666666669</ele><time>2026-04-26T06:59:27.023Z</time></trkpt><trkpt lat="43.97381446180041" lon="12.306754821027045"><ele>241.33333333333331</ele><time>2026-04-26T06:59:28.023Z</time></trkpt><trkpt lat="43.97375666565334" lon="12.306975492538418"><ele>244.0</ele><time>2026-04-26T06:59:29.023Z</time></trkpt><trkpt lat="43.973681375458504" lon="12.307201896568042"><ele>247.66666666666666</ele><time>2026-04-26T06:59:30.023Z</time></trkpt><trkpt lat="43.97359437068626" lon="12.307423891116304"><ele>251.33333333333331</ele><time>2026-04-26T06:59:31.023Z</time></trkpt><trkpt lat="43.973515523195765" lon="12.307624693408936"><ele>255.0</ele><time>2026-04-26T06:59:32.023Z</time></trkpt><trkpt lat="43.97343842464598" lon="12.307807561068719"><ele>254.5</ele><time>2026-04-26T06:59:33.023Z</time></trkpt><trkpt lat="43.973354628402234" lon="12.307971305541553"><ele>254.0</ele><time>2026-04-26T06:59:34.023Z</time></trkpt><trkpt lat="43.973259414480744" lon="12.308100188915104"><ele>253.5</ele><time>2026-04-26T06:59:35.023Z</time></trkpt><trkpt lat="43.973138837762285" lon="12.30821085190206"><ele>253.0</ele><time>2026-04-26T06:59:36.023Z</time></trkpt><trkpt lat="43.97300894217549" lon="12.308293302163513"><ele>253.0</ele><time>2026-04-26T06:59:37.023Z</time></trkpt><trkpt lat="43.97288744328947" lon="12.308363049262878"><ele>253.0</ele><time>2026-04-26T06:59:38.023Z</time></trkpt><trkpt lat="43.97276782232716" lon="12.308417639635605"><ele>253.0</ele><time>2026-04-26T06:59:39.023Z</time></trkpt><trkpt lat="43.972651982842315" lon="12.308486440721076"><ele>253.0</ele><time>2026-04-26T06:59:40.023Z</time></trkpt><trkpt lat="43.97253359669095" lon="12.308579507097017"><ele>254.5</ele><time>2026-04-26T06:59:41.023Z</time></trkpt><trkpt lat="43.97240126800855" lon="12.308635765367699"><ele>256.0</ele><time>2026-04-26T06:59:42.023Z</time></trkpt><trkpt lat="43.97227121715455" lon="12.308711649109211"><ele>257.5</ele><time>2026-04-26T06:59:43.023Z</time></trkpt><trkpt lat="43.97214395642925" lon="12.308814726141339"><ele>259.0</ele><time>2026-04-26T06:59:44.023Z</time></trkpt><trkpt lat="43.97203199711934" lon="12.308935495640043"><ele>259.0</ele><time>2026-04-26T06:59:45.023Z</time></trkpt><trkpt lat="43.971925433413716" lon="12.309092977264378"><ele>259.0</ele><time>2026-04-26T06:59:46.023Z</time></trkpt><trkpt lat="43.971845298865674" lon="12.309280701052502"><ele>259.0</ele><time>2026-04-26T06:59:47.023Z</time></trkpt><trkpt lat="43.971795758881406" lon="12.309489462607571"><ele>259.0</ele><time>2026-04-26T06:59:48.023Z</time></trkpt><trkpt lat="43.97173682023128" lon="12.30964871509768"><ele>259.0</ele><time>2026-04-26T06:59:49.023Z</time></trkpt><trkpt lat="43.9716270383574" lon="12.309780951471161"><ele>259.0</ele><time>2026-04-26T06:59:50.023Z</time></trkpt><trkpt lat="43.97149979702334" lon="12.309877940483796"><ele>259.0</ele><time>2026-04-26T06:59:51.023Z</time></trkpt><trkpt lat="43.97138550799029" lon="12.309964634077325"><ele>260.0</ele><time>2026-04-26T06:59:52.023Z</time></trkpt><trkpt lat="43.97128865090425" lon="12.3100584591542"><ele>261.0</ele><time>2026-04-26T06:59:53.023Z</time></trkpt><trkpt lat="43.97120019469298" lon="12.31017412032137"><ele>262.0</ele><time>2026-04-26T06:59:54.023Z</time></trkpt><trkpt lat="43.9711222689569" lon="12.310315703754716"><ele>263.0</ele><time>2026-04-26T06:59:55.023Z</time></trkpt><trkpt lat="43.97106699152911" lon="12.31048600468022"><ele>263.5</ele><time>2026-04-26T06:59:56.023Z</time></trkpt><trkpt lat="43.97101903413715" lon="12.310641957040993"><ele>264.0</ele><time>2026-04-26T06:59:57.023Z</time></trkpt><trkpt lat="43.9709448067976" lon="12.310757004414645"><ele>264.5</ele><time>2026-04-26T06:59:58.023Z</time></trkpt><trkpt lat="43.97084044068713" lon="12.310818479321044"><ele>265.0</ele><time>2026-04-26T06:59:59.023Z</time></trkpt><trkpt lat="43.970721774673585" lon="12.310810123258477"><ele>265.0</ele><time>2026-04-26T07:00:00.023Z</time></trkpt><trkpt lat="43.970620549539746" lon="12.310753740891231"><ele>265.0</ele><time>2026-04-26T07:00:01.023Z</time></trkpt><trkpt lat="43.970554801395735" lon="12.31068864199125"><ele>265.0</ele><time>2026-04-26T07:00:02.023Z</time></trkpt><trkpt lat="43.97049720872058" lon="12.310648773046797"><ele>265.0</ele><time>2026-04-26T07:00:04.023Z</time></trkpt><trkpt lat="43.970434197762685" lon="12.310599022424839"><ele>265.0</ele><time>2026-04-26T07:00:08.023Z</time></trkpt><trkpt lat="43.97034898121729" lon="12.310596846719818"><ele>265.0</ele><time>2026-04-26T07:00:10.023Z</time></trkpt><trkpt lat="43.97026524245794" lon="12.310639653015981"><ele>265.0</ele><time>2026-04-26T07:00:12.023Z</time></trkpt><trkpt lat="43.97019123707167" lon="12.310713980410686"><ele>265.0</ele><time>2026-04-26T07:00:14.023Z</time></trkpt><trkpt lat="43.970102008247196" lon="12.310858851360084"><ele>265.0</ele><time>2026-04-26T07:00:16.023Z</time></trkpt><trkpt lat="43.97006861196881" lon="12.31095657657764"><ele>265.0</ele><time>2026-04-26T07:00:17.023Z</time></trkpt><trkpt lat="43.97002358100806" lon="12.311042391514976"><ele>265.0</ele><time>2026-04-26T07:00:18.023Z</time></trkpt><trkpt lat="43.96997189840936" lon="12.31114893991603"><ele>264.6</ele><time>2026-04-26T07:00:19.023Z</time></trkpt><trkpt lat="43.969921261922565" lon="12.31125336234286"><ele>264.2</ele><time>2026-04-26T07:00:20.023Z</time></trkpt><trkpt lat="43.969855792732375" lon="12.311374291982363"><ele>263.8</ele><time>2026-04-26T07:00:21.023Z</time></trkpt><trkpt lat="43.96979748501915" lon="12.311496719760544"><ele>263.4</ele><time>2026-04-26T07:00:22.023Z</time></trkpt><trkpt lat="43.96973255438539" lon="12.311617382996845"><ele>263.0</ele><time>2026-04-26T07:00:23.023Z</time></trkpt><trkpt lat="43.96966659881782" lon="12.31173038699431"><ele>264.1666666666667</ele><time>2026-04-26T07:00:24.023Z</time></trkpt><trkpt lat="43.96959428613943" lon="12.311818131226628"><ele>265.33333333333337</ele><time>2026-04-26T07:00:25.023Z</time></trkpt><trkpt lat="43.96950704160688" lon="12.311874084986853"><ele>266.5</ele><time>2026-04-26T07:00:26.023Z</time></trkpt><trkpt lat="43.96941782415602" lon="12.311894932229075"><ele>267.6666666666667</ele><time>2026-04-26T07:00:27.023Z</time></trkpt><trkpt lat="43.969342442016696" lon="12.3118866326339"><ele>268.8333333333333</ele><time>2026-04-26T07:00:28.023Z</time></trkpt><trkpt lat="43.96926576119823" lon="12.311873716582001"><ele>270.0</ele><time>2026-04-26T07:00:29.023Z</time></trkpt><trkpt lat="43.96919136279919" lon="12.311837104275973"><ele>270.0</ele><time>2026-04-26T07:00:30.023Z</time></trkpt><trkpt lat="43.96910346979466" lon="12.311796469364966"><ele>270.0</ele><time>2026-04-26T07:00:31.023Z</time></trkpt><trkpt lat="43.968999124150876" lon="12.311734502702627"><ele>270.0</ele><time>2026-04-26T07:00:32.023Z</time></trkpt><trkpt lat="43.96888064184689" lon="12.311731918077431"><ele>270.0</ele><time>2026-04-26T07:00:33.023Z</time></trkpt><trkpt lat="43.96875714118729" lon="12.31173362183288"><ele>270.0</ele><time>2026-04-26T07:00:34.023Z</time></trkpt><trkpt lat="43.968629046338826" lon="12.311768237392862"><ele>270.0</ele><time>2026-04-26T07:00:35.023Z</time></trkpt><trkpt lat="43.96851522687823" lon="12.311859100809858"><ele>270.0</ele><time>2026-04-26T07:00:36.023Z</time></trkpt><trkpt lat="43.96841135228331" lon="12.312013519023164"><ele>270.0</ele><time>2026-04-26T07:00:37.023Z</time></trkpt><trkpt lat="43.96831269576457" lon="12.312177014558394"><ele>270.0</ele><time>2026-04-26T07:00:38.023Z</time></trkpt><trkpt lat="43.96818899997611" lon="12.312273354039398"><ele>275.3333333333333</ele><time>2026-04-26T07:00:39.023Z</time></trkpt><trkpt lat="43.968040334639475" lon="12.312322795834623"><ele>280.66666666666663</ele><time>2026-04-26T07:00:40.023Z</time></trkpt><trkpt lat="43.96789517576837" lon="12.312405448363132"><ele>286.0</ele><time>2026-04-26T07:00:41.023Z</time></trkpt><trkpt lat="43.96776525867883" lon="12.312488101916635"><ele>286.0</ele><time>2026-04-26T07:00:42.023Z</time></trkpt><trkpt lat="43.96764596216057" lon="12.312623001334822"><ele>286.0</ele><time>2026-04-26T07:00:43.023Z</time></trkpt><trkpt lat="43.96752646024655" lon="12.312812355544134"><ele>286.0</ele><time>2026-04-26T07:00:44.023Z</time></trkpt><trkpt lat="43.96740760021638" lon="12.313037330974433"><ele>289.3333333333333</ele><time>2026-04-26T07:00:45.023Z</time></trkpt><trkpt lat="43.967289586127244" lon="12.31323998203552"><ele>292.6666666666667</ele><time>2026-04-26T07:00:46.023Z</time></trkpt><trkpt lat="43.96717028924195" lon="12.313424127553127"><ele>296.0</ele><time>2026-04-26T07:00:47.023Z</time></trkpt><trkpt lat="43.967061708459276" lon="12.313581624850215"><ele>296.0</ele><time>2026-04-26T07:00:48.023Z</time></trkpt><trkpt lat="43.96694466254765" lon="12.313730969232445"><ele>296.0</ele><time>2026-04-26T07:00:49.023Z</time></trkpt><trkpt lat="43.96680000112458" lon="12.313852165496328"><ele>296.0</ele><time>2026-04-26T07:00:50.024Z</time></trkpt><trkpt lat="43.9666445079462" lon="12.313961998533163"><ele>296.6666666666667</ele><time>2026-04-26T07:00:51.024Z</time></trkpt><trkpt lat="43.96650064205232" lon="12.314091377848158"><ele>297.3333333333333</ele><time>2026-04-26T07:00:52.024Z</time></trkpt><trkpt lat="43.9663738385011" lon="12.314219236406753"><ele>298.0</ele><time>2026-04-26T07:00:53.024Z</time></trkpt><trkpt lat="43.96625235310867" lon="12.314366050917505"><ele>298.0</ele><time>2026-04-26T07:00:54.024Z</time></trkpt><trkpt lat="43.9661257989453" lon="12.314497136609972"><ele>298.0</ele><time>2026-04-26T07:00:55.024Z</time></trkpt><trkpt lat="43.965988377230474" lon="12.314600678523156"><ele>298.0</ele><time>2026-04-26T07:00:56.024Z</time></trkpt><trkpt lat="43.96583981717024" lon="12.31469762918243"><ele>300.0</ele><time>2026-04-26T07:00:57.024Z</time></trkpt><trkpt lat="43.9656789439991" lon="12.314783746426615"><ele>302.0</ele><time>2026-04-26T07:00:58.024Z</time></trkpt><trkpt lat="43.96551267102121" lon="12.314867377178285"><ele>304.0</ele><time>2026-04-26T07:00:59.024Z</time></trkpt><trkpt lat="43.965342655122484" lon="12.314955386482582"><ele>304.0</ele><time>2026-04-26T07:01:00.024Z</time></trkpt><trkpt lat="43.96516790632322" lon="12.315035910219517"><ele>304.0</ele><time>2026-04-26T07:01:01.024Z</time></trkpt><trkpt lat="43.96498560308403" lon="12.315110200334379"><ele>304.0</ele><time>2026-04-26T07:01:02.024Z</time></trkpt><trkpt lat="43.96481440686635" lon="12.315210655404593"><ele>303.0</ele><time>2026-04-26T07:01:03.024Z</time></trkpt><trkpt lat="43.96463726217717" lon="12.315332554621136"><ele>302.0</ele><time>2026-04-26T07:01:04.024Z</time></trkpt><trkpt lat="43.964473753771294" lon="12.315471196548522"><ele>301.0</ele><time>2026-04-26T07:01:05.024Z</time></trkpt><trkpt lat="43.96431528397645" lon="12.31559488905715"><ele>304.0</ele><time>2026-04-26T07:01:06.024Z</time></trkpt><trkpt lat="43.96414905016657" lon="12.31570361224363"><ele>307.0</ele><time>2026-04-26T07:01:07.024Z</time></trkpt><trkpt lat="43.963982328975646" lon="12.315815552063418"><ele>310.0</ele><time>2026-04-26T07:01:08.024Z</time></trkpt><trkpt lat="43.963816880989704" lon="12.315918182842173"><ele>310.0</ele><time>2026-04-26T07:01:09.024Z</time></trkpt><trkpt lat="43.96366056288387" lon="12.316006413227045"><ele>310.0</ele><time>2026-04-26T07:01:10.024Z</time></trkpt><trkpt lat="43.96350625952378" lon="12.316081901226356"><ele>310.0</ele><time>2026-04-26T07:01:11.024Z</time></trkpt><trkpt lat="43.96334411377342" lon="12.31615095726407"><ele>308.3333333333333</ele><time>2026-04-26T07:01:12.024Z</time></trkpt><trkpt lat="43.96317583172179" lon="12.31620169143323"><ele>306.6666666666667</ele><time>2026-04-26T07:01:13.024Z</time></trkpt><trkpt lat="43.96299860588959" lon="12.316235650640952"><ele>305.0</ele><time>2026-04-26T07:01:14.024Z</time></trkpt><trkpt lat="43.962811514827706" lon="12.316236569243214"><ele>305.0</ele><time>2026-04-26T07:01:15.024Z</time></trkpt><trkpt lat="43.962626717776544" lon="12.316253321678552"><ele>305.0</ele><time>2026-04-26T07:01:16.024Z</time></trkpt><trkpt lat="43.96245807626865" lon="12.316288924103459"><ele>305.0</ele><time>2026-04-26T07:01:17.024Z</time></trkpt><trkpt lat="43.96229442520856" lon="12.316292109029233"><ele>304.0</ele><time>2026-04-26T07:01:18.024Z</time></trkpt><trkpt lat="43.962137453204065" lon="12.316292096885242"><ele>303.0</ele><time>2026-04-26T07:01:19.024Z</time></trkpt><trkpt lat="43.9619823890728" lon="12.316280422111973"><ele>302.0</ele><time>2026-04-26T07:01:20.024Z</time></trkpt><trkpt lat="43.961821751536874" lon="12.3162540573765"><ele>302.33333333333337</ele><time>2026-04-26T07:01:21.024Z</time></trkpt><trkpt lat="43.961656221341435" lon="12.316233249773076"><ele>302.6666666666667</ele><time>2026-04-26T07:01:22.024Z</time></trkpt><trkpt lat="43.96147578226143" lon="12.31620656369805"><ele>303.0</ele><time>2026-04-26T07:01:23.024Z</time></trkpt><trkpt lat="43.96128996783501" lon="12.316168697664146"><ele>303.0</ele><time>2026-04-26T07:01:24.024Z</time></trkpt><trkpt lat="43.96110032276492" lon="12.316125387575449"><ele>303.0</ele><time>2026-04-26T07:01:25.024Z</time></trkpt><trkpt lat="43.960907927222465" lon="12.316081255268681"><ele>303.0</ele><time>2026-04-26T07:01:26.024Z</time></trkpt><trkpt lat="43.96071447717684" lon="12.316036349923959"><ele>304.0</ele><time>2026-04-26T07:01:27.024Z</time></trkpt><trkpt lat="43.96052692992479" lon="12.315995809651872"><ele>305.0</ele><time>2026-04-26T07:01:28.024Z</time></trkpt><trkpt lat="43.96034012163843" lon="12.315962525322258"><ele>306.0</ele><time>2026-04-26T07:01:29.024Z</time></trkpt><trkpt lat="43.96016011415565" lon="12.31590173954072"><ele>307.0</ele><time>2026-04-26T07:01:30.024Z</time></trkpt><trkpt lat="43.95998102574138" lon="12.315877921160503"><ele>308.0</ele><time>2026-04-26T07:01:31.024Z</time></trkpt><trkpt lat="43.95982305275243" lon="12.315840550885053"><ele>309.0</ele><time>2026-04-26T07:01:32.024Z</time></trkpt><trkpt lat="43.959690696158454" lon="12.315811477380056"><ele>309.0</ele><time>2026-04-26T07:01:33.024Z</time></trkpt><trkpt lat="43.959568512997" lon="12.315804786460275"><ele>309.0</ele><time>2026-04-26T07:01:34.024Z</time></trkpt><trkpt lat="43.95944758630341" lon="12.315825695215663"><ele>309.0</ele><time>2026-04-26T07:01:35.024Z</time></trkpt><trkpt lat="43.95934179021386" lon="12.315916733068898"><ele>309.0</ele><time>2026-04-26T07:01:36.024Z</time></trkpt><trkpt lat="43.95923721896326" lon="12.316069393600667"><ele>310.0</ele><time>2026-04-26T07:01:37.024Z</time></trkpt><trkpt lat="43.95915260914991" lon="12.316261503911917"><ele>311.0</ele><time>2026-04-26T07:01:38.024Z</time></trkpt><trkpt lat="43.95908723838095" lon="12.31649134265343"><ele>312.0</ele><time>2026-04-26T07:01:39.024Z</time></trkpt><trkpt lat="43.95903093534097" lon="12.316735730061001"><ele>312.0</ele><time>2026-04-26T07:01:40.024Z</time></trkpt><trkpt lat="43.95895283926986" lon="12.316987329799668"><ele>312.0</ele><time>2026-04-26T07:01:41.024Z</time></trkpt><trkpt lat="43.95886349077643" lon="12.31723428817111"><ele>312.0</ele><time>2026-04-26T07:01:42.024Z</time></trkpt><trkpt lat="43.9587711889325" lon="12.31747506561297"><ele>312.0</ele><time>2026-04-26T07:01:43.024Z</time></trkpt><trkpt lat="43.9586721982655" lon="12.317701179326322"><ele>312.0</ele><time>2026-04-26T07:01:44.024Z</time></trkpt><trkpt lat="43.958555477424504" lon="12.3179079456039"><ele>312.0</ele><time>2026-04-26T07:01:45.024Z</time></trkpt><trkpt lat="43.958413282046855" lon="12.318095120933439"><ele>316.3333333333333</ele><time>2026-04-26T07:01:46.024Z</time></trkpt><trkpt lat="43.958290782542285" lon="12.3183062238645"><ele>320.66666666666663</ele><time>2026-04-26T07:01:47.024Z</time></trkpt><trkpt lat="43.95816237168789" lon="12.31849673582942"><ele>325.0</ele><time>2026-04-26T07:01:48.024Z</time></trkpt><trkpt lat="43.95805348029573" lon="12.318682016425653"><ele>325.0</ele><time>2026-04-26T07:01:49.024Z</time></trkpt><trkpt lat="43.95795834966211" lon="12.318868598906976"><ele>325.0</ele><time>2026-04-26T07:01:50.024Z</time></trkpt><trkpt lat="43.95788436513941" lon="12.319071918021178"><ele>325.0</ele><time>2026-04-26T07:01:51.024Z</time></trkpt><trkpt lat="43.95782590936933" lon="12.319288262780583"><ele>324.8</ele><time>2026-04-26T07:01:52.024Z</time></trkpt><trkpt lat="43.95777522212476" lon="12.3194946769056"><ele>324.6</ele><time>2026-04-26T07:01:53.024Z</time></trkpt><trkpt lat="43.957734274225686" lon="12.319647191937186"><ele>324.4</ele><time>2026-04-26T07:01:54.024Z</time></trkpt><trkpt lat="43.95770373637921" lon="12.319764767856231"><ele>324.2</ele><time>2026-04-26T07:01:55.024Z</time></trkpt><trkpt lat="43.95766399547374" lon="12.319864575670282"><ele>324.0</ele><time>2026-04-26T07:01:56.024Z</time></trkpt><trkpt lat="43.95759791738779" lon="12.31993338944349"><ele>324.8333333333333</ele><time>2026-04-26T07:01:57.024Z</time></trkpt><trkpt lat="43.95751849422909" lon="12.319956148643273"><ele>325.6666666666667</ele><time>2026-04-26T07:01:58.024Z</time></trkpt><trkpt lat="43.95743746422414" lon="12.31992363592941"><ele>326.5</ele><time>2026-04-26T07:01:59.024Z</time></trkpt><trkpt lat="43.957392138878255" lon="12.31981841211489"><ele>327.33333333333337</ele><time>2026-04-26T07:02:00.024Z</time></trkpt><trkpt lat="43.95736768491412" lon="12.319722266058008"><ele>328.1666666666667</ele><time>2026-04-26T07:02:01.024Z</time></trkpt><trkpt lat="43.95738760016293" lon="12.319598333378913"><ele>329.0</ele><time>2026-04-26T07:02:02.024Z</time></trkpt><trkpt lat="43.95740618309613" lon="12.319440785460003"><ele>330.75</ele><time>2026-04-26T07:02:03.024Z</time></trkpt><trkpt lat="43.957476187770915" lon="12.319291119690405"><ele>332.5</ele><time>2026-04-26T07:02:04.024Z</time></trkpt><trkpt lat="43.95751463799907" lon="12.319126671356685"><ele>334.25</ele><time>2026-04-26T07:02:05.024Z</time></trkpt><trkpt lat="43.95752921121137" lon="12.318938224163379"><ele>336.0</ele><time>2026-04-26T07:02:06.024Z</time></trkpt><trkpt lat="43.957509147320344" lon="12.318729256770276"><ele>337.0</ele><time>2026-04-26T07:02:07.024Z</time></trkpt><trkpt lat="43.957450366836845" lon="12.318494264992147"><ele>338.0</ele><time>2026-04-26T07:02:08.024Z</time></trkpt><trkpt lat="43.957405731618586" lon="12.318261894656487"><ele>339.0</ele><time>2026-04-26T07:02:09.024Z</time></trkpt><trkpt lat="43.9573670620153" lon="12.31802250217231"><ele>339.0</ele><time>2026-04-26T07:02:10.024Z</time></trkpt><trkpt lat="43.957339762844086" lon="12.317796672934294"><ele>339.0</ele><time>2026-04-26T07:02:11.024Z</time></trkpt><trkpt lat="43.95731234483232" lon="12.317570226956185"><ele>339.0</ele><time>2026-04-26T07:02:12.024Z</time></trkpt><trkpt lat="43.957279832873496" lon="12.31737430653346"><ele>338.0</ele><time>2026-04-26T07:02:13.024Z</time></trkpt><trkpt lat="43.95725271251635" lon="12.317205473829821"><ele>337.0</ele><time>2026-04-26T07:02:14.024Z</time></trkpt><trkpt lat="43.95722678931688" lon="12.31706975246912"><ele>336.0</ele><time>2026-04-26T07:02:15.024Z</time></trkpt><trkpt lat="43.957188914805435" lon="12.316968773630885"><ele>335.0</ele><time>2026-04-26T07:02:16.024Z</time></trkpt><trkpt lat="43.957129191967475" lon="12.31688995199694"><ele>334.0</ele><time>2026-04-26T07:02:17.024Z</time></trkpt><trkpt lat="43.95704520379018" lon="12.316865421851315"><ele>334.0</ele><time>2026-04-26T07:02:18.024Z</time></trkpt><trkpt lat="43.95694552671106" lon="12.316899777955973"><ele>334.0</ele><time>2026-04-26T07:02:19.024Z</time></trkpt><trkpt lat="43.95686102471891" lon="12.31701559489873"><ele>334.0</ele><time>2026-04-26T07:02:20.024Z</time></trkpt><trkpt lat="43.95682243604497" lon="12.317173520985383"><ele>334.0</ele><time>2026-04-26T07:02:21.024Z</time></trkpt><trkpt lat="43.95684076928795" lon="12.317350716034275"><ele>335.66666666666663</ele><time>2026-04-26T07:02:22.024Z</time></trkpt><trkpt lat="43.956893595873865" lon="12.317543974397184"><ele>337.3333333333333</ele><time>2026-04-26T07:02:23.024Z</time></trkpt><trkpt lat="43.95694861426836" lon="12.317744337071264"><ele>339.0</ele><time>2026-04-26T07:02:24.024Z</time></trkpt><trkpt lat="43.95697133942285" lon="12.317961526883671"><ele>339.0</ele><time>2026-04-26T07:02:25.024Z</time></trkpt><trkpt lat="43.956995719555714" lon="12.318151147799112"><ele>339.0</ele><time>2026-04-26T07:02:26.024Z</time></trkpt><trkpt lat="43.956990429818674" lon="12.318290652115317"><ele>339.0</ele><time>2026-04-26T07:02:27.024Z</time></trkpt><trkpt lat="43.95695170270181" lon="12.318395446815884"><ele>339.0</ele><time>2026-04-26T07:02:28.024Z</time></trkpt><trkpt lat="43.956891401639545" lon="12.318470688204572"><ele>339.0</ele><time>2026-04-26T07:02:29.024Z</time></trkpt><trkpt lat="43.95680018157501" lon="12.31852105464914"><ele>343.0</ele><time>2026-04-26T07:02:30.024Z</time></trkpt><trkpt lat="43.95666535258341" lon="12.318470572737862"><ele>347.0</ele><time>2026-04-26T07:02:31.024Z</time></trkpt><trkpt lat="43.95650886037355" lon="12.318447893714085"><ele>351.0</ele><time>2026-04-26T07:02:32.025Z</time></trkpt><trkpt lat="43.956344088391184" lon="12.318418365341865"><ele>351.0</ele><time>2026-04-26T07:02:33.025Z</time></trkpt><trkpt lat="43.956172291549144" lon="12.318407589777433"><ele>351.0</ele><time>2026-04-26T07:02:34.024Z</time></trkpt><trkpt lat="43.956001667670165" lon="12.318405865392458"><ele>351.0</ele><time>2026-04-26T07:02:35.024Z</time></trkpt><trkpt lat="43.95583500070805" lon="12.31840065759464"><ele>353.5</ele><time>2026-04-26T07:02:36.024Z</time></trkpt><trkpt lat="43.95567950850045" lon="12.31838231632167"><ele>356.0</ele><time>2026-04-26T07:02:37.024Z</time></trkpt><trkpt lat="43.9555416574161" lon="12.318348623521018"><ele>358.5</ele><time>2026-04-26T07:02:38.024Z</time></trkpt><trkpt lat="43.95541410016404" lon="12.31825215811369"><ele>361.0</ele><time>2026-04-26T07:02:39.024Z</time></trkpt><trkpt lat="43.95526371948951" lon="12.318162904061674"><ele>363.3333333333333</ele><time>2026-04-26T07:02:40.024Z</time></trkpt><trkpt lat="43.9551201648549" lon="12.318029659576391"><ele>365.6666666666667</ele><time>2026-04-26T07:02:41.024Z</time></trkpt><trkpt lat="43.95497415362618" lon="12.317894380169008"><ele>368.0</ele><time>2026-04-26T07:02:42.024Z</time></trkpt><trkpt lat="43.95482552213256" lon="12.317759419103398"><ele>370.0</ele><time>2026-04-26T07:02:43.024Z</time></trkpt><trkpt lat="43.95467671126987" lon="12.31761480521265"><ele>372.0</ele><time>2026-04-26T07:02:44.024Z</time></trkpt><trkpt lat="43.95452613785961" lon="12.31747942589131"><ele>374.0</ele><time>2026-04-26T07:02:45.024Z</time></trkpt><trkpt lat="43.95438898273176" lon="12.317354533528713"><ele>374.0</ele><time>2026-04-26T07:02:46.024Z</time></trkpt><trkpt lat="43.95426814579085" lon="12.317240303331307"><ele>374.0</ele><time>2026-04-26T07:02:47.024Z</time></trkpt><trkpt lat="43.95417213922447" lon="12.317142384070578"><ele>374.0</ele><time>2026-04-26T07:02:48.024Z</time></trkpt><trkpt lat="43.954120023143865" lon="12.317025385181251"><ele>374.0</ele><time>2026-04-26T07:02:49.024Z</time></trkpt><trkpt lat="43.954085503421666" lon="12.31689216395266"><ele>373.75</ele><time>2026-04-26T07:02:50.024Z</time></trkpt><trkpt lat="43.95407302616883" lon="12.316724389087982"><ele>373.5</ele><time>2026-04-26T07:02:51.024Z</time></trkpt><trkpt lat="43.95406665798011" lon="12.316524900434485"><ele>373.25</ele><time>2026-04-26T07:02:52.024Z</time></trkpt><trkpt lat="43.954042724767525" lon="12.316312853078902"><ele>373.0</ele><time>2026-04-26T07:02:53.024Z</time></trkpt><trkpt lat="43.954027392838285" lon="12.316096982093347"><ele>373.0</ele><time>2026-04-26T07:02:54.024Z</time></trkpt><trkpt lat="43.95399592472562" lon="12.315902735478431"><ele>373.0</ele><time>2026-04-26T07:02:55.024Z</time></trkpt><trkpt lat="43.95392922334459" lon="12.315726659725925"><ele>373.0</ele><time>2026-04-26T07:02:56.024Z</time></trkpt><trkpt lat="43.95381094110209" lon="12.31556033242891"><ele>374.0</ele><time>2026-04-26T07:02:57.024Z</time></trkpt><trkpt lat="43.953663167752644" lon="12.315410726096719"><ele>375.0</ele><time>2026-04-26T07:02:58.024Z</time></trkpt><trkpt lat="43.9535044588068" lon="12.315263537653898"><ele>376.0</ele><time>2026-04-26T07:02:59.024Z</time></trkpt><trkpt lat="43.95335842220609" lon="12.315082756178374"><ele>376.0</ele><time>2026-04-26T07:03:00.024Z</time></trkpt><trkpt lat="43.95320278970089" lon="12.314916163583307"><ele>376.0</ele><time>2026-04-26T07:03:01.024Z</time></trkpt><trkpt lat="43.953039007736685" lon="12.314769729195882"><ele>376.0</ele><time>2026-04-26T07:03:02.024Z</time></trkpt><trkpt lat="43.95288485839186" lon="12.314616066359173"><ele>374.0</ele><time>2026-04-26T07:03:03.024Z</time></trkpt><trkpt lat="43.95273536598083" lon="12.31445997046333"><ele>372.0</ele><time>2026-04-26T07:03:04.024Z</time></trkpt><trkpt lat="43.952555659249256" lon="12.314367207430893"><ele>370.0</ele><time>2026-04-26T07:03:05.024Z</time></trkpt><trkpt lat="43.95237634521171" lon="12.314267507392579"><ele>374.66666666666663</ele><time>2026-04-26T07:03:06.024Z</time></trkpt><trkpt lat="43.952183193967635" lon="12.31417724828984"><ele>379.3333333333333</ele><time>2026-04-26T07:03:07.024Z</time></trkpt><trkpt lat="43.95197896316335" lon="12.314089454552228"><ele>384.0</ele><time>2026-04-26T07:03:08.024Z</time></trkpt><trkpt lat="43.951773685851904" lon="12.313966265629736"><ele>385.66666666666663</ele><time>2026-04-26T07:03:09.024Z</time></trkpt><trkpt lat="43.95156310666643" lon="12.313863697838512"><ele>387.3333333333333</ele><time>2026-04-26T07:03:10.024Z</time></trkpt><trkpt lat="43.951352087621046" lon="12.313757745256487"><ele>389.0</ele><time>2026-04-26T07:03:11.024Z</time></trkpt><trkpt lat="43.95115035994027" lon="12.313654572537834"><ele>389.0</ele><time>2026-04-26T07:03:12.024Z</time></trkpt><trkpt lat="43.95096129864509" lon="12.313581848992834"><ele>389.0</ele><time>2026-04-26T07:03:13.024Z</time></trkpt><trkpt lat="43.95078944787819" lon="12.31349211111295"><ele>389.0</ele><time>2026-04-26T07:03:14.024Z</time></trkpt><trkpt lat="43.95063679062385" lon="12.31341444976861"><ele>390.75</ele><time>2026-04-26T07:03:15.024Z</time></trkpt><trkpt lat="43.95049789166351" lon="12.313353113867288"><ele>392.5</ele><time>2026-04-26T07:03:16.024Z</time></trkpt><trkpt lat="43.95036757732433" lon="12.313331583075094"><ele>394.25</ele><time>2026-04-26T07:03:17.024Z</time></trkpt><trkpt lat="43.950249919754285" lon="12.313367554659251"><ele>396.0</ele><time>2026-04-26T07:03:18.024Z</time></trkpt><trkpt lat="43.950142598662794" lon="12.313465346443643"><ele>396.0</ele><time>2026-04-26T07:03:19.024Z</time></trkpt><trkpt lat="43.95005646245306" lon="12.313620320857954"><ele>396.0</ele><time>2026-04-26T07:03:20.024Z</time></trkpt><trkpt lat="43.94998070450645" lon="12.313815619563353"><ele>396.0</ele><time>2026-04-26T07:03:21.024Z</time></trkpt><trkpt lat="43.9498863171355" lon="12.314011285491363"><ele>398.0</ele><time>2026-04-26T07:03:22.024Z</time></trkpt><trkpt lat="43.949798648719955" lon="12.314221526866104"><ele>400.0</ele><time>2026-04-26T07:03:23.024Z</time></trkpt><trkpt lat="43.94971401847878" lon="12.31442592613083"><ele>402.0</ele><time>2026-04-26T07:03:24.024Z</time></trkpt><trkpt lat="43.94965273388686" lon="12.314611148728885"><ele>402.0</ele><time>2026-04-26T07:03:25.024Z</time></trkpt><trkpt lat="43.94956858021218" lon="12.314727810287694"><ele>402.0</ele><time>2026-04-26T07:03:26.024Z</time></trkpt><trkpt lat="43.94949191504653" lon="12.314809170497105"><ele>402.0</ele><time>2026-04-26T07:03:27.024Z</time></trkpt><trkpt lat="43.94939285803281" lon="12.314836403778225"><ele>402.0</ele><time>2026-04-26T07:03:28.024Z</time></trkpt><trkpt lat="43.94926081088322" lon="12.314857495462507"><ele>402.0</ele><time>2026-04-26T07:03:29.024Z</time></trkpt><trkpt lat="43.94911049561721" lon="12.314882631135216"><ele>404.25</ele><time>2026-04-26T07:03:30.024Z</time></trkpt><trkpt lat="43.94896679993886" lon="12.31490945768139"><ele>406.5</ele><time>2026-04-26T07:03:31.024Z</time></trkpt><trkpt lat="43.948853693467825" lon="12.314969486655412"><ele>408.75</ele><time>2026-04-26T07:03:32.024Z</time></trkpt><trkpt lat="43.9487505480242" lon="12.315030088072831"><ele>411.0</ele><time>2026-04-26T07:03:33.024Z</time></trkpt><trkpt lat="43.94866306384786" lon="12.315157423753629"><ele>411.0</ele><time>2026-04-26T07:03:34.024Z</time></trkpt><trkpt lat="43.94859549046167" lon="12.315330471100998"><ele>411.0</ele><time>2026-04-26T07:03:35.024Z</time></trkpt><trkpt lat="43.948528944321865" lon="12.31553368650797"><ele>411.0</ele><time>2026-04-26T07:03:36.024Z</time></trkpt><trkpt lat="43.9484690536048" lon="12.315733286860121"><ele>409.25</ele><time>2026-04-26T07:03:37.024Z</time></trkpt><trkpt lat="43.94841765365162" lon="12.315924912805928"><ele>407.5</ele><time>2026-04-26T07:03:38.024Z</time></trkpt><trkpt lat="43.94839787672034" lon="12.316128421545889"><ele>405.75</ele><time>2026-04-26T07:03:39.024Z</time></trkpt><trkpt lat="43.948395477312566" lon="12.316337567522295"><ele>404.0</ele><time>2026-04-26T07:03:40.024Z</time></trkpt><trkpt lat="43.94841982455639" lon="12.316545942290896"><ele>403.75</ele><time>2026-04-26T07:03:41.024Z</time></trkpt><trkpt lat="43.948422342623736" lon="12.316749105942359"><ele>403.5</ele><time>2026-04-26T07:03:42.024Z</time></trkpt><trkpt lat="43.94840915030244" lon="12.316945365926621"><ele>403.25</ele><time>2026-04-26T07:03:43.024Z</time></trkpt><trkpt lat="43.94838230096324" lon="12.317134010248257"><ele>403.0</ele><time>2026-04-26T07:03:44.024Z</time></trkpt><trkpt lat="43.94834057912078" lon="12.31732516593974"><ele>406.5</ele><time>2026-04-26T07:03:45.025Z</time></trkpt><trkpt lat="43.94830756599173" lon="12.31752717483273"><ele>410.0</ele><time>2026-04-26T07:03:46.025Z</time></trkpt><trkpt lat="43.94826237865317" lon="12.317707113787925"><ele>413.5</ele><time>2026-04-26T07:03:47.025Z</time></trkpt><trkpt lat="43.94818274744627" lon="12.317861942443214"><ele>417.0</ele><time>2026-04-26T07:03:48.025Z</time></trkpt><trkpt lat="43.94809976521689" lon="12.318032424947118"><ele>415.5</ele><time>2026-04-26T07:03:49.025Z</time></trkpt><trkpt lat="43.94801032574009" lon="12.318211918886183"><ele>414.0</ele><time>2026-04-26T07:03:50.025Z</time></trkpt><trkpt lat="43.94793413572268" lon="12.318365488549729"><ele>412.5</ele><time>2026-04-26T07:03:51.025Z</time></trkpt><trkpt lat="43.9478785776335" lon="12.318479601320224"><ele>411.0</ele><time>2026-04-26T07:03:52.025Z</time></trkpt><trkpt lat="43.94782779569298" lon="12.318580474306566"><ele>411.0</ele><time>2026-04-26T07:03:53.025Z</time></trkpt><trkpt lat="43.94778327714626" lon="12.318702274361378"><ele>411.0</ele><time>2026-04-26T07:03:54.025Z</time></trkpt><trkpt lat="43.947716786703495" lon="12.318816623897078"><ele>411.0</ele><time>2026-04-26T07:03:55.025Z</time></trkpt><trkpt lat="43.947645258661" lon="12.318900378991128"><ele>411.0</ele><time>2026-04-26T07:03:56.025Z</time></trkpt><trkpt lat="43.947554238758606" lon="12.318948968085246"><ele>411.0</ele><time>2026-04-26T07:03:57.025Z</time></trkpt><trkpt lat="43.94746014333351" lon="12.318923869873277"><ele>413.75</ele><time>2026-04-26T07:03:58.025Z</time></trkpt><trkpt lat="43.94737077085773" lon="12.318875615124082"><ele>416.5</ele><time>2026-04-26T07:03:59.025Z</time></trkpt><trkpt lat="43.94726347726247" lon="12.318796451053501"><ele>419.25</ele><time>2026-04-26T07:04:00.025Z</time></trkpt><trkpt lat="43.947137390129704" lon="12.318707917124078"><ele>422.0</ele><time>2026-04-26T07:04:01.025Z</time></trkpt><trkpt lat="43.94700452209338" lon="12.318642382390738"><ele>422.0</ele><time>2026-04-26T07:04:02.025Z</time></trkpt><trkpt lat="43.946866946710884" lon="12.3185904668136"><ele>422.0</ele><time>2026-04-26T07:04:03.025Z</time></trkpt><trkpt lat="43.94672946898444" lon="12.318541652820008"><ele>422.0</ele><time>2026-04-26T07:04:04.025Z</time></trkpt><trkpt lat="43.946597573629255" lon="12.31849474509322"><ele>422.0</ele><time>2026-04-26T07:04:05.025Z</time></trkpt><trkpt lat="43.94650664456883" lon="12.31841612011469"><ele>420.8</ele><time>2026-04-26T07:04:06.025Z</time></trkpt><trkpt lat="43.94645125128067" lon="12.318316199666334"><ele>419.6</ele><time>2026-04-26T07:04:07.025Z</time></trkpt><trkpt lat="43.94643321961552" lon="12.318199208445073"><ele>418.40000000000003</ele><time>2026-04-26T07:04:08.025Z</time></trkpt><trkpt lat="43.94644800549299" lon="12.318069566311408"><ele>417.20000000000005</ele><time>2026-04-26T07:04:09.025Z</time></trkpt><trkpt lat="43.946496134974154" lon="12.317901544787224"><ele>416.0</ele><time>2026-04-26T07:04:10.025Z</time></trkpt><trkpt lat="43.94652489445966" lon="12.317711988202483"><ele>415.3333333333333</ele><time>2026-04-26T07:04:11.025Z</time></trkpt><trkpt lat="43.94657203631187" lon="12.317507510721436"><ele>414.66666666666663</ele><time>2026-04-26T07:04:12.025Z</time></trkpt><trkpt lat="43.946612120241696" lon="12.317277430639763"><ele>414.0</ele><time>2026-04-26T07:04:13.025Z</time></trkpt><trkpt lat="43.94666156628919" lon="12.31704976753831"><ele>418.33333333333337</ele><time>2026-04-26T07:04:14.025Z</time></trkpt><trkpt lat="43.94671495555598" lon="12.31681231859057"><ele>422.6666666666667</ele><time>2026-04-26T07:04:15.025Z</time></trkpt><trkpt lat="43.946791008561995" lon="12.316613576047027"><ele>427.0</ele><time>2026-04-26T07:04:16.025Z</time></trkpt><trkpt lat="43.94682844475973" lon="12.316430653889817"><ele>426.75</ele><time>2026-04-26T07:04:17.025Z</time></trkpt><trkpt lat="43.94686229700693" lon="12.31627730646418"><ele>426.5</ele><time>2026-04-26T07:04:18.025Z</time></trkpt><trkpt lat="43.94684764828995" lon="12.316126518475999"><ele>426.25</ele><time>2026-04-26T07:04:19.025Z</time></trkpt><trkpt lat="43.94677896662363" lon="12.3159783124456"><ele>426.0</ele><time>2026-04-26T07:04:20.025Z</time></trkpt><trkpt lat="43.94667443831854" lon="12.315849983008832"><ele>425.0</ele><time>2026-04-26T07:04:21.025Z</time></trkpt><trkpt lat="43.946547778345746" lon="12.315728908855855"><ele>424.0</ele><time>2026-04-26T07:04:22.025Z</time></trkpt><trkpt lat="43.94639039981116" lon="12.315585288943542"><ele>423.0</ele><time>2026-04-26T07:04:23.025Z</time></trkpt><trkpt lat="43.94624940809129" lon="12.315434427864734"><ele>423.0</ele><time>2026-04-26T07:04:24.025Z</time></trkpt><trkpt lat="43.94613146975498" lon="12.315307103672794"><ele>423.0</ele><time>2026-04-26T07:04:25.025Z</time></trkpt><trkpt lat="43.94600599922972" lon="12.315222556866765"><ele>423.0</ele><time>2026-04-26T07:04:26.025Z</time></trkpt><trkpt lat="43.945860355576826" lon="12.315178956003473"><ele>423.0</ele><time>2026-04-26T07:04:27.025Z</time></trkpt><trkpt lat="43.945710987638115" lon="12.315227281872152"><ele>420.33333333333337</ele><time>2026-04-26T07:04:28.025Z</time></trkpt><trkpt lat="43.94554998777049" lon="12.315262423253879"><ele>417.6666666666667</ele><time>2026-04-26T07:04:29.025Z</time></trkpt><trkpt lat="43.94539269550654" lon="12.315340311598119"><ele>415.0</ele><time>2026-04-26T07:04:30.025Z</time></trkpt><trkpt lat="43.94524192229147" lon="12.315363447948025"><ele>415.0</ele><time>2026-04-26T07:04:31.024Z</time></trkpt><trkpt lat="43.9450837961" lon="12.315342107752025"><ele>415.0</ele><time>2026-04-26T07:04:32.025Z</time></trkpt><trkpt lat="43.94494212416413" lon="12.315289239592252"><ele>415.0</ele><time>2026-04-26T07:04:33.025Z</time></trkpt><trkpt lat="43.94481707464632" lon="12.31521693037713"><ele>415.0</ele><time>2026-04-26T07:04:34.025Z</time></trkpt><trkpt lat="43.944694307112655" lon="12.315124177077907"><ele>413.0</ele><time>2026-04-26T07:04:35.025Z</time></trkpt><trkpt lat="43.94455661986003" lon="12.315005614504178"><ele>411.0</ele><time>2026-04-26T07:04:36.025Z</time></trkpt><trkpt lat="43.944423544944385" lon="12.314911977366421"><ele>409.0</ele><time>2026-04-26T07:04:37.025Z</time></trkpt><trkpt lat="43.944305596640106" lon="12.314857572358791"><ele>407.0</ele><time>2026-04-26T07:04:38.025Z</time></trkpt><trkpt lat="43.94418846259202" lon="12.314876034109087"><ele>404.99999999999994</ele><time>2026-04-26T07:04:39.025Z</time></trkpt><trkpt lat="43.94408644149605" lon="12.314933743363854"><ele>403.0</ele><time>2026-04-26T07:04:40.025Z</time></trkpt><trkpt lat="43.94401388869713" lon="12.314975752416906"><ele>401.0</ele><time>2026-04-26T07:04:41.025Z</time></trkpt><trkpt lat="43.94394020949238" lon="12.314945578270414"><ele>399.0</ele><time>2026-04-26T07:04:42.025Z</time></trkpt><trkpt lat="43.94387754506922" lon="12.314867055950696"><ele>396.99999999999994</ele><time>2026-04-26T07:04:43.025Z</time></trkpt><trkpt lat="43.94385768000168" lon="12.31474141150676"><ele>395.0</ele><time>2026-04-26T07:04:44.025Z</time></trkpt><trkpt lat="43.94388019481922" lon="12.314571550699725"><ele>394.25</ele><time>2026-04-26T07:04:45.025Z</time></trkpt><trkpt lat="43.94393068747367" lon="12.314401382020966"><ele>393.5</ele><time>2026-04-26T07:04:46.025Z</time></trkpt><trkpt lat="43.94400071271017" lon="12.31422451275199"><ele>392.75</ele><time>2026-04-26T07:04:47.025Z</time></trkpt><trkpt lat="43.94409183535032" lon="12.31404525088174"><ele>392.0</ele><time>2026-04-26T07:04:48.025Z</time></trkpt><trkpt lat="43.94419669796887" lon="12.313878715512178"><ele>395.75</ele><time>2026-04-26T07:04:49.025Z</time></trkpt><trkpt lat="43.94426818555767" lon="12.313698562313377"><ele>399.5</ele><time>2026-04-26T07:04:50.025Z</time></trkpt><trkpt lat="43.94435301522132" lon="12.313531339575045"><ele>403.25</ele><time>2026-04-26T07:04:51.025Z</time></trkpt><trkpt lat="43.94439265512608" lon="12.313340928273044"><ele>407.0</ele><time>2026-04-26T07:04:52.025Z</time></trkpt><trkpt lat="43.94442916770761" lon="12.31312041488466"><ele>403.25</ele><time>2026-04-26T07:04:53.025Z</time></trkpt><trkpt lat="43.94446535145013" lon="12.312916924493882"><ele>399.5</ele><time>2026-04-26T07:04:54.025Z</time></trkpt><trkpt lat="43.94450421753137" lon="12.312728876042554"><ele>395.75</ele><time>2026-04-26T07:04:55.025Z</time></trkpt><trkpt lat="43.944566649207815" lon="12.312579284372479"><ele>392.0</ele><time>2026-04-26T07:04:56.025Z</time></trkpt><trkpt lat="43.94463419212167" lon="12.31247801246727"><ele>392.0</ele><time>2026-04-26T07:04:57.025Z</time></trkpt><trkpt lat="43.944700450979646" lon="12.312371192254199"><ele>392.0</ele><time>2026-04-26T07:04:58.025Z</time></trkpt><trkpt lat="43.944761023782505" lon="12.312260460405758"><ele>392.0</ele><time>2026-04-26T07:04:59.025Z</time></trkpt><trkpt lat="43.944765318679025" lon="12.312106563298729"><ele>392.0</ele><time>2026-04-26T07:05:00.025Z</time></trkpt><trkpt lat="43.94475761119597" lon="12.311937127081919"><ele>392.0</ele><time>2026-04-26T07:05:01.025Z</time></trkpt><trkpt lat="43.94466075560174" lon="12.311771970102875"><ele>392.25</ele><time>2026-04-26T07:05:02.025Z</time></trkpt><trkpt lat="43.94459647261924" lon="12.311586704249939"><ele>392.5</ele><time>2026-04-26T07:05:03.025Z</time></trkpt><trkpt lat="43.944533093226205" lon="12.311408419696757"><ele>392.75</ele><time>2026-04-26T07:05:04.025Z</time></trkpt><trkpt lat="43.944472489811865" lon="12.31123373286518"><ele>393.0</ele><time>2026-04-26T07:05:05.025Z</time></trkpt><trkpt lat="43.94441314511326" lon="12.31108031383348"><ele>394.4</ele><time>2026-04-26T07:05:06.025Z</time></trkpt><trkpt lat="43.944330911634204" lon="12.310975773018619"><ele>395.79999999999995</ele><time>2026-04-26T07:05:07.025Z</time></trkpt><trkpt lat="43.94424978014539" lon="12.31090295676908"><ele>397.2</ele><time>2026-04-26T07:05:08.025Z</time></trkpt><trkpt lat="43.94415276524581" lon="12.3108810920937"><ele>398.6</ele><time>2026-04-26T07:05:09.025Z</time></trkpt><trkpt lat="43.94403975950337" lon="12.310924256803773"><ele>400.0</ele><time>2026-04-26T07:05:10.025Z</time></trkpt><trkpt lat="43.943920083184466" lon="12.311047984540151"><ele>394.33333333333337</ele><time>2026-04-26T07:05:11.025Z</time></trkpt><trkpt lat="43.94380109819441" lon="12.31123291936517"><ele>388.6666666666667</ele><time>2026-04-26T07:05:12.025Z</time></trkpt><trkpt lat="43.943695924025405" lon="12.311407916011296"><ele>383.0</ele><time>2026-04-26T07:05:13.025Z</time></trkpt><trkpt lat="43.943557861463496" lon="12.31154131587708"><ele>381.33333333333337</ele><time>2026-04-26T07:05:14.025Z</time></trkpt><trkpt lat="43.943412084048425" lon="12.311683076598733"><ele>379.6666666666667</ele><time>2026-04-26T07:05:15.025Z</time></trkpt><trkpt lat="43.943251721285776" lon="12.311847810548445"><ele>378.0</ele><time>2026-04-26T07:05:16.025Z</time></trkpt><trkpt lat="43.943126686997324" lon="12.3120217730709"><ele>378.0</ele><time>2026-04-26T07:05:17.025Z</time></trkpt><trkpt lat="43.9429981657398" lon="12.312157068457662"><ele>378.0</ele><time>2026-04-26T07:05:18.025Z</time></trkpt><trkpt lat="43.942875439933196" lon="12.31226450922754"><ele>378.0</ele><time>2026-04-26T07:05:19.025Z</time></trkpt><trkpt lat="43.942729117451876" lon="12.312315657341122"><ele>376.5</ele><time>2026-04-26T07:05:20.025Z</time></trkpt><trkpt lat="43.942600043583305" lon="12.312428317326807"><ele>375.0</ele><time>2026-04-26T07:05:21.025Z</time></trkpt><trkpt lat="43.94247700041795" lon="12.312509819095915"><ele>373.5</ele><time>2026-04-26T07:05:22.025Z</time></trkpt><trkpt lat="43.94235128206055" lon="12.31258793427001"><ele>372.0</ele><time>2026-04-26T07:05:23.025Z</time></trkpt><trkpt lat="43.94224010597029" lon="12.312671590217892"><ele>372.0</ele><time>2026-04-26T07:05:24.025Z</time></trkpt><trkpt lat="43.94213350433396" lon="12.312719594267913"><ele>372.0</ele><time>2026-04-26T07:05:25.025Z</time></trkpt><trkpt lat="43.942023326416226" lon="12.312748776086663"><ele>372.0</ele><time>2026-04-26T07:05:26.025Z</time></trkpt><trkpt lat="43.94191438094034" lon="12.312765681286146"><ele>372.0</ele><time>2026-04-26T07:05:27.025Z</time></trkpt><trkpt lat="43.941809635371456" lon="12.312757536048654"><ele>372.0</ele><time>2026-04-26T07:05:28.025Z</time></trkpt><trkpt lat="43.94169488829648" lon="12.312787807822728"><ele>373.5</ele><time>2026-04-26T07:05:29.025Z</time></trkpt><trkpt lat="43.941573115030515" lon="12.312837306583067"><ele>375.0</ele><time>2026-04-26T07:05:30.025Z</time></trkpt><trkpt lat="43.94143842373603" lon="12.312906687785711"><ele>376.5</ele><time>2026-04-26T07:05:31.025Z</time></trkpt><trkpt lat="43.94128499592968" lon="12.312961255463758"><ele>378.0</ele><time>2026-04-26T07:05:32.025Z</time></trkpt><trkpt lat="43.94112543467212" lon="12.313000220454693"><ele>378.0</ele><time>2026-04-26T07:05:33.025Z</time></trkpt><trkpt lat="43.94095057527643" lon="12.313023792290196"><ele>378.0</ele><time>2026-04-26T07:05:34.025Z</time></trkpt><trkpt lat="43.940787575417325" lon="12.31304841726414"><ele>378.0</ele><time>2026-04-26T07:05:35.025Z</time></trkpt><trkpt lat="43.94062445669992" lon="12.3130595939912"><ele>376.0</ele><time>2026-04-26T07:05:36.025Z</time></trkpt><trkpt lat="43.94046225426698" lon="12.313069092676571"><ele>374.0</ele><time>2026-04-26T07:05:37.025Z</time></trkpt><trkpt lat="43.94031296265364" lon="12.313078600348446"><ele>372.0</ele><time>2026-04-26T07:05:38.025Z</time></trkpt><trkpt lat="43.94018929903188" lon="12.31306374618825"><ele>370.0</ele><time>2026-04-26T07:05:39.025Z</time></trkpt><trkpt lat="43.940073732581006" lon="12.313095316567791"><ele>367.25</ele><time>2026-04-26T07:05:40.025Z</time></trkpt><trkpt lat="43.93996712168008" lon="12.313181189699403"><ele>364.5</ele><time>2026-04-26T07:05:41.025Z</time></trkpt><trkpt lat="43.939868769974616" lon="12.31330359157402"><ele>361.75</ele><time>2026-04-26T07:05:42.025Z</time></trkpt><trkpt lat="43.93976764341188" lon="12.313442363569154"><ele>359.0</ele><time>2026-04-26T07:05:43.026Z</time></trkpt><trkpt lat="43.939658973595975" lon="12.313557317015068"><ele>359.0</ele><time>2026-04-26T07:05:44.026Z</time></trkpt><trkpt lat="43.939514399751374" lon="12.31363766926578"><ele>359.0</ele><time>2026-04-26T07:05:45.026Z</time></trkpt><trkpt lat="43.939358678715166" lon="12.313734250332756"><ele>359.0</ele><time>2026-04-26T07:05:46.026Z</time></trkpt><trkpt lat="43.939184060023614" lon="12.313799738528232"><ele>357.33333333333337</ele><time>2026-04-26T07:05:47.026Z</time></trkpt><trkpt lat="43.939001798072425" lon="12.313879028461733"><ele>355.6666666666667</ele><time>2026-04-26T07:05:48.026Z</time></trkpt><trkpt lat="43.938847822917175" lon="12.313950215564986"><ele>354.0</ele><time>2026-04-26T07:05:49.026Z</time></trkpt><trkpt lat="43.93871468575073" lon="12.313998030128777"><ele>351.75</ele><time>2026-04-26T07:05:50.026Z</time></trkpt><trkpt lat="43.938584627685586" lon="12.314020677782542"><ele>349.5</ele><time>2026-04-26T07:05:51.026Z</time></trkpt><trkpt lat="43.938463257898455" lon="12.313956986567069"><ele>347.25</ele><time>2026-04-26T07:05:52.026Z</time></trkpt><trkpt lat="43.938349017967674" lon="12.313887106501399"><ele>345.0</ele><time>2026-04-26T07:05:53.026Z</time></trkpt><trkpt lat="43.93824625201256" lon="12.313776448340452"><ele>345.0</ele><time>2026-04-26T07:05:54.026Z</time></trkpt><trkpt lat="43.93811015934284" lon="12.313673115074824"><ele>345.0</ele><time>2026-04-26T07:05:55.026Z</time></trkpt><trkpt lat="43.937973665533605" lon="12.313563998329395"><ele>345.0</ele><time>2026-04-26T07:05:56.026Z</time></trkpt><trkpt lat="43.93781707237979" lon="12.313471431656147"><ele>345.0</ele><time>2026-04-26T07:05:57.026Z</time></trkpt><trkpt lat="43.93764438090929" lon="12.313390216019856"><ele>345.0</ele><time>2026-04-26T07:05:58.026Z</time></trkpt><trkpt lat="43.937463314439334" lon="12.313309888185948"><ele>345.0</ele><time>2026-04-26T07:05:59.026Z</time></trkpt><trkpt lat="43.93728314789355" lon="12.313224128803638"><ele>344.0</ele><time>2026-04-26T07:06:00.026Z</time></trkpt><trkpt lat="43.93711768004493" lon="12.313146215792209"><ele>343.0</ele><time>2026-04-26T07:06:01.026Z</time></trkpt><trkpt lat="43.936965251880096" lon="12.313074044906084"><ele>342.0</ele><time>2026-04-26T07:06:02.026Z</time></trkpt><trkpt lat="43.93682815280536" lon="12.31301192799377"><ele>337.5</ele><time>2026-04-26T07:06:03.026Z</time></trkpt><trkpt lat="43.93670092219544" lon="12.312970996257537"><ele>333.0</ele><time>2026-04-26T07:06:04.026Z</time></trkpt><trkpt lat="43.9365702440113" lon="12.31295202172656"><ele>328.5</ele><time>2026-04-26T07:06:05.026Z</time></trkpt><trkpt lat="43.936437737385056" lon="12.312977357637013"><ele>324.0</ele><time>2026-04-26T07:06:06.026Z</time></trkpt><trkpt lat="43.93630672985627" lon="12.31305828777861"><ele>327.25</ele><time>2026-04-26T07:06:07.026Z</time></trkpt><trkpt lat="43.936186216769585" lon="12.313133477464351"><ele>330.5</ele><time>2026-04-26T07:06:08.026Z</time></trkpt><trkpt lat="43.93606739601838" lon="12.313191552856136"><ele>333.75</ele><time>2026-04-26T07:06:09.026Z</time></trkpt><trkpt lat="43.93593819400329" lon="12.313202987598583"><ele>337.0</ele><time>2026-04-26T07:06:10.026Z</time></trkpt><trkpt lat="43.93580429200271" lon="12.313146548399628"><ele>337.0</ele><time>2026-04-26T07:06:11.026Z</time></trkpt><trkpt lat="43.93564640668004" lon="12.31310406397444"><ele>337.0</ele><time>2026-04-26T07:06:12.026Z</time></trkpt><trkpt lat="43.93549462885521" lon="12.313104466234845"><ele>337.0</ele><time>2026-04-26T07:06:13.026Z</time></trkpt><trkpt lat="43.935340377080216" lon="12.313121163037117"><ele>337.0</ele><time>2026-04-26T07:06:14.026Z</time></trkpt><trkpt lat="43.93518377804288" lon="12.313175069872619"><ele>337.0</ele><time>2026-04-26T07:06:15.026Z</time></trkpt><trkpt lat="43.935019791427095" lon="12.313224207977782"><ele>337.0</ele><time>2026-04-26T07:06:16.026Z</time></trkpt><trkpt lat="43.93484486950416" lon="12.313276730026628"><ele>336.66666666666663</ele><time>2026-04-26T07:06:17.026Z</time></trkpt><trkpt lat="43.934655885233724" lon="12.31332082912882"><ele>336.3333333333333</ele><time>2026-04-26T07:06:18.026Z</time></trkpt><trkpt lat="43.93447924706069" lon="12.313363671747732"><ele>336.0</ele><time>2026-04-26T07:06:19.026Z</time></trkpt><trkpt lat="43.934314216215704" lon="12.313399297822034"><ele>332.0</ele><time>2026-04-26T07:06:20.026Z</time></trkpt><trkpt lat="43.93413848408833" lon="12.313418077942119"><ele>328.0</ele><time>2026-04-26T07:06:21.026Z</time></trkpt><trkpt lat="43.9339584040881" lon="12.313396170150673"><ele>324.0</ele><time>2026-04-26T07:06:22.026Z</time></trkpt><trkpt lat="43.93376605626474" lon="12.313386543778506"><ele>324.0</ele><time>2026-04-26T07:06:23.026Z</time></trkpt><trkpt lat="43.933591814142275" lon="12.313392226074653"><ele>324.0</ele><time>2026-04-26T07:06:24.026Z</time></trkpt><trkpt lat="43.93343894446057" lon="12.313379499900172"><ele>324.0</ele><time>2026-04-26T07:06:25.026Z</time></trkpt><trkpt lat="43.93330151581965" lon="12.313364349379228"><ele>323.25</ele><time>2026-04-26T07:06:26.026Z</time></trkpt><trkpt lat="43.9331743209567" lon="12.313310551715162"><ele>322.5</ele><time>2026-04-26T07:06:27.026Z</time></trkpt><trkpt lat="43.93305786922218" lon="12.313251293282411"><ele>321.75</ele><time>2026-04-26T07:06:28.026Z</time></trkpt><trkpt lat="43.93294567919072" lon="12.31316336814056"><ele>321.0</ele><time>2026-04-26T07:06:29.026Z</time></trkpt><trkpt lat="43.93285823484788" lon="12.313042144098906"><ele>316.0</ele><time>2026-04-26T07:06:30.026Z</time></trkpt><trkpt lat="43.932774154054115" lon="12.312895158849571"><ele>311.0</ele><time>2026-04-26T07:06:31.026Z</time></trkpt><trkpt lat="43.9326850731281" lon="12.31271078736442"><ele>306.0</ele><time>2026-04-26T07:06:32.026Z</time></trkpt><trkpt lat="43.93258893885637" lon="12.312522256976044"><ele>308.0</ele><time>2026-04-26T07:06:33.026Z</time></trkpt><trkpt lat="43.93249003938726" lon="12.312383876499702"><ele>310.0</ele><time>2026-04-26T07:06:34.026Z</time></trkpt><trkpt lat="43.932407706837594" lon="12.312249314981564"><ele>312.0</ele><time>2026-04-26T07:06:35.026Z</time></trkpt><trkpt lat="43.932319580739694" lon="12.31214616984267"><ele>314.0</ele><time>2026-04-26T07:06:36.026Z</time></trkpt><trkpt lat="43.93219652182118" lon="12.31211729421776"><ele>312.75</ele><time>2026-04-26T07:06:37.025Z</time></trkpt><trkpt lat="43.93205375780338" lon="12.312119452335246"><ele>311.5</ele><time>2026-04-26T07:06:38.026Z</time></trkpt><trkpt lat="43.931919685502926" lon="12.312135220600734"><ele>310.25</ele><time>2026-04-26T07:06:39.026Z</time></trkpt><trkpt lat="43.9317887137163" lon="12.312184543304447"><ele>309.0</ele><time>2026-04-26T07:06:40.026Z</time></trkpt><trkpt lat="43.93167913656134" lon="12.312308115418862"><ele>309.0</ele><time>2026-04-26T07:06:41.026Z</time></trkpt><trkpt lat="43.931582930984625" lon="12.312436745878921"><ele>309.0</ele><time>2026-04-26T07:06:42.026Z</time></trkpt><trkpt lat="43.93149621136546" lon="12.312566608712684"><ele>309.0</ele><time>2026-04-26T07:06:43.026Z</time></trkpt><trkpt lat="43.93141315390216" lon="12.31268626343684"><ele>309.0</ele><time>2026-04-26T07:06:44.026Z</time></trkpt><trkpt lat="43.93129159400193" lon="12.312731796287274"><ele>309.0</ele><time>2026-04-26T07:06:45.026Z</time></trkpt><trkpt lat="43.93116328221507" lon="12.312772376651694"><ele>309.0</ele><time>2026-04-26T07:06:46.026Z</time></trkpt><trkpt lat="43.931039296811264" lon="12.312734353952806"><ele>309.0</ele><time>2026-04-26T07:06:47.026Z</time></trkpt><trkpt lat="43.93092113355324" lon="12.312750586036039"><ele>309.0</ele><time>2026-04-26T07:06:48.026Z</time></trkpt><trkpt lat="43.93080482769004" lon="12.312815372994962"><ele>309.75</ele><time>2026-04-26T07:06:49.026Z</time></trkpt><trkpt lat="43.93069892813445" lon="12.312901835545178"><ele>310.5</ele><time>2026-04-26T07:06:50.026Z</time></trkpt><trkpt lat="43.9306050235918" lon="12.313037037330844"><ele>311.25</ele><time>2026-04-26T07:06:51.026Z</time></trkpt><trkpt lat="43.93053238522286" lon="12.31323739987719"><ele>312.0</ele><time>2026-04-26T07:06:52.026Z</time></trkpt><trkpt lat="43.93042049468501" lon="12.313453247002105"><ele>312.0</ele><time>2026-04-26T07:06:53.026Z</time></trkpt><trkpt lat="43.93032629273652" lon="12.313675473574754"><ele>312.0</ele><time>2026-04-26T07:06:54.026Z</time></trkpt><trkpt lat="43.930225054772215" lon="12.313908654647518"><ele>312.0</ele><time>2026-04-26T07:06:55.026Z</time></trkpt><trkpt lat="43.9301261720617" lon="12.3141138488028"><ele>309.25</ele><time>2026-04-26T07:06:56.026Z</time></trkpt><trkpt lat="43.930054522827625" lon="12.31431736066687"><ele>306.5</ele><time>2026-04-26T07:06:57.026Z</time></trkpt><trkpt lat="43.92995402551906" lon="12.31448618846766"><ele>303.75</ele><time>2026-04-26T07:06:58.026Z</time></trkpt><trkpt lat="43.929894093255456" lon="12.31464357669483"><ele>301.0</ele><time>2026-04-26T07:06:59.026Z</time></trkpt><trkpt lat="43.929820428682824" lon="12.314742709504884"><ele>301.0</ele><time>2026-04-26T07:07:00.026Z</time></trkpt><trkpt lat="43.929771011588514" lon="12.314805113178211"><ele>301.0</ele><time>2026-04-26T07:07:01.026Z</time></trkpt><trkpt lat="43.92967613670318" lon="12.314804987358949"><ele>301.0</ele><time>2026-04-26T07:07:03.026Z</time></trkpt><trkpt lat="43.92958713913121" lon="12.31471374326819"><ele>301.0</ele><time>2026-04-26T07:07:05.026Z</time></trkpt><trkpt lat="43.92957732242184" lon="12.3145936397198"><ele>301.0</ele><time>2026-04-26T07:07:06.026Z</time></trkpt><trkpt lat="43.92959168681644" lon="12.314461687959298"><ele>299.0</ele><time>2026-04-26T07:07:07.026Z</time></trkpt><trkpt lat="43.92962477521138" lon="12.314321809200502"><ele>297.0</ele><time>2026-04-26T07:07:08.026Z</time></trkpt><trkpt lat="43.92966339792134" lon="12.314157224806902"><ele>295.0</ele><time>2026-04-26T07:07:09.026Z</time></trkpt><trkpt lat="43.929701468742714" lon="12.313978241207137"><ele>293.0</ele><time>2026-04-26T07:07:10.026Z</time></trkpt><trkpt lat="43.92974370886813" lon="12.313785425781498"><ele>290.0</ele><time>2026-04-26T07:07:11.026Z</time></trkpt><trkpt lat="43.92979459159861" lon="12.313581126476635"><ele>287.0</ele><time>2026-04-26T07:07:12.026Z</time></trkpt><trkpt lat="43.92983937852387" lon="12.313354197012758"><ele>284.0</ele><time>2026-04-26T07:07:13.026Z</time></trkpt><trkpt lat="43.92988897649936" lon="12.31311812063687"><ele>281.6666666666667</ele><time>2026-04-26T07:07:14.026Z</time></trkpt><trkpt lat="43.929921653621065" lon="12.312889750540778"><ele>279.3333333333333</ele><time>2026-04-26T07:07:15.026Z</time></trkpt><trkpt lat="43.9299794927382" lon="12.312653009799332"><ele>277.0</ele><time>2026-04-26T07:07:16.026Z</time></trkpt><trkpt lat="43.93003958111954" lon="12.312428787123379"><ele>278.75</ele><time>2026-04-26T07:07:17.026Z</time></trkpt><trkpt lat="43.93008452858669" lon="12.312212139561797"><ele>280.5</ele><time>2026-04-26T07:07:18.026Z</time></trkpt><trkpt lat="43.93013639686349" lon="12.312034768815609"><ele>282.25</ele><time>2026-04-26T07:07:19.026Z</time></trkpt><trkpt lat="43.930175648322006" lon="12.311854204284542"><ele>284.0</ele><time>2026-04-26T07:07:20.026Z</time></trkpt><trkpt lat="43.93020905911123" lon="12.3116846792754"><ele>284.0</ele><time>2026-04-26T07:07:21.026Z</time></trkpt><trkpt lat="43.93023486133374" lon="12.311542894071296"><ele>284.0</ele><time>2026-04-26T07:07:22.026Z</time></trkpt><trkpt lat="43.930241785945555" lon="12.311422932162234"><ele>284.0</ele><time>2026-04-26T07:07:23.026Z</time></trkpt><trkpt lat="43.93020915042859" lon="12.311306483887234"><ele>284.0</ele><time>2026-04-26T07:07:24.026Z</time></trkpt><trkpt lat="43.93015102622575" lon="12.311207972580759"><ele>284.0</ele><time>2026-04-26T07:07:25.026Z</time></trkpt><trkpt lat="43.9300625738689" lon="12.311159946955327"><ele>280.5</ele><time>2026-04-26T07:07:26.026Z</time></trkpt><trkpt lat="43.929957609262594" lon="12.311176103345352"><ele>277.0</ele><time>2026-04-26T07:07:27.026Z</time></trkpt><trkpt lat="43.9298596869964" lon="12.311265780374734"><ele>273.5</ele><time>2026-04-26T07:07:28.026Z</time></trkpt><trkpt lat="43.92976156321547" lon="12.31138076437475"><ele>270.0</ele><time>2026-04-26T07:07:29.026Z</time></trkpt><trkpt lat="43.92964121128021" lon="12.311499013348005"><ele>270.0</ele><time>2026-04-26T07:07:30.026Z</time></trkpt><trkpt lat="43.92951931094232" lon="12.31164360540626"><ele>270.0</ele><time>2026-04-26T07:07:31.026Z</time></trkpt><trkpt lat="43.929394226275484" lon="12.311790950475965"><ele>270.0</ele><time>2026-04-26T07:07:32.026Z</time></trkpt><trkpt lat="43.92927679295508" lon="12.311936599767606"><ele>267.5</ele><time>2026-04-26T07:07:33.026Z</time></trkpt><trkpt lat="43.929173141044096" lon="12.312073155350726"><ele>265.0</ele><time>2026-04-26T07:07:34.026Z</time></trkpt><trkpt lat="43.929092424482185" lon="12.312197173963694"><ele>262.5</ele><time>2026-04-26T07:07:35.026Z</time></trkpt><trkpt lat="43.929031633117" lon="12.312330298878136"><ele>260.0</ele><time>2026-04-26T07:07:36.026Z</time></trkpt><trkpt lat="43.92898935317607" lon="12.312498355089543"><ele>260.0</ele><time>2026-04-26T07:07:37.026Z</time></trkpt><trkpt lat="43.92896922424269" lon="12.312689578743678"><ele>260.0</ele><time>2026-04-26T07:07:38.027Z</time></trkpt><trkpt lat="43.928942772101266" lon="12.312885489230474"><ele>260.0</ele><time>2026-04-26T07:07:39.027Z</time></trkpt><trkpt lat="43.92891790986705" lon="12.31307027494952"><ele>260.0</ele><time>2026-04-26T07:07:40.027Z</time></trkpt><trkpt lat="43.92888249943413" lon="12.313230512964815"><ele>260.75</ele><time>2026-04-26T07:07:41.027Z</time></trkpt><trkpt lat="43.928824388873" lon="12.313385362588093"><ele>261.5</ele><time>2026-04-26T07:07:42.027Z</time></trkpt><trkpt lat="43.92875353346375" lon="12.31353019134818"><ele>262.25</ele><time>2026-04-26T07:07:43.027Z</time></trkpt><trkpt lat="43.92866653918" lon="12.313675662065647"><ele>263.0</ele><time>2026-04-26T07:07:44.027Z</time></trkpt><trkpt lat="43.9285664569865" lon="12.313829237554176"><ele>265.0</ele><time>2026-04-26T07:07:45.027Z</time></trkpt><trkpt lat="43.928468289164336" lon="12.313971985129825"><ele>267.0</ele><time>2026-04-26T07:07:46.027Z</time></trkpt><trkpt lat="43.92837976946124" lon="12.314113589188436"><ele>269.0</ele><time>2026-04-26T07:07:47.027Z</time></trkpt><trkpt lat="43.92830279649568" lon="12.314280701207668"><ele>271.0</ele><time>2026-04-26T07:07:48.027Z</time></trkpt><trkpt lat="43.9282412791375" lon="12.314476955062105"><ele>264.3333333333333</ele><time>2026-04-26T07:07:49.027Z</time></trkpt><trkpt lat="43.9281704176753" lon="12.314681389786513"><ele>257.6666666666667</ele><time>2026-04-26T07:07:50.027Z</time></trkpt><trkpt lat="43.928105133255684" lon="12.314899353666775"><ele>251.0</ele><time>2026-04-26T07:07:51.027Z</time></trkpt><trkpt lat="43.92805177226186" lon="12.315125492900128"><ele>251.0</ele><time>2026-04-26T07:07:52.027Z</time></trkpt><trkpt lat="43.9279815262145" lon="12.315336697490451"><ele>251.0</ele><time>2026-04-26T07:07:53.027Z</time></trkpt><trkpt lat="43.927909681566014" lon="12.31553423095052"><ele>251.0</ele><time>2026-04-26T07:07:54.027Z</time></trkpt><trkpt lat="43.92784151087767" lon="12.315731679029987"><ele>250.33333333333334</ele><time>2026-04-26T07:07:55.027Z</time></trkpt><trkpt lat="43.9277716363679" lon="12.315910347072682"><ele>249.66666666666669</ele><time>2026-04-26T07:07:56.027Z</time></trkpt><trkpt lat="43.927689148463884" lon="12.316095685670538"><ele>249.0</ele><time>2026-04-26T07:07:57.027Z</time></trkpt><trkpt lat="43.92759537292544" lon="12.31626943915163"><ele>244.66666666666669</ele><time>2026-04-26T07:07:58.027Z</time></trkpt><trkpt lat="43.92749000593859" lon="12.316447979664405"><ele>240.33333333333334</ele><time>2026-04-26T07:07:59.027Z</time></trkpt><trkpt lat="43.92738444665162" lon="12.316615511433938"><ele>236.0</ele><time>2026-04-26T07:08:00.027Z</time></trkpt><trkpt lat="43.927283478946464" lon="12.316779002267964"><ele>236.0</ele><time>2026-04-26T07:08:01.027Z</time></trkpt><trkpt lat="43.92719000707098" lon="12.31691894612014"><ele>236.0</ele><time>2026-04-26T07:08:02.027Z</time></trkpt><trkpt lat="43.92709872143201" lon="12.317069371815998"><ele>236.0</ele><time>2026-04-26T07:08:03.027Z</time></trkpt><trkpt lat="43.927015319115306" lon="12.317230580599649"><ele>236.0</ele><time>2026-04-26T07:08:04.027Z</time></trkpt><trkpt lat="43.926934386970984" lon="12.317403872905341"><ele>235.75</ele><time>2026-04-26T07:08:05.027Z</time></trkpt><trkpt lat="43.92685955884796" lon="12.317597085132004"><ele>235.5</ele><time>2026-04-26T07:08:06.027Z</time></trkpt><trkpt lat="43.92679871536554" lon="12.317781888150508"><ele>235.25</ele><time>2026-04-26T07:08:07.027Z</time></trkpt><trkpt lat="43.92674268377022" lon="12.317938837240062"><ele>235.0</ele><time>2026-04-26T07:08:08.027Z</time></trkpt><trkpt lat="43.926699260084135" lon="12.31808641524581"><ele>232.0</ele><time>2026-04-26T07:08:09.027Z</time></trkpt><trkpt lat="43.92666966961398" lon="12.318225904109358"><ele>229.0</ele><time>2026-04-26T07:08:10.027Z</time></trkpt><trkpt lat="43.92666383072384" lon="12.31838327146544"><ele>226.0</ele><time>2026-04-26T07:08:11.027Z</time></trkpt><trkpt lat="43.92667933748505" lon="12.318550793787034"><ele>223.0</ele><time>2026-04-26T07:08:12.027Z</time></trkpt><trkpt lat="43.92672740944368" lon="12.318711647351655"><ele>222.5</ele><time>2026-04-26T07:08:13.027Z</time></trkpt><trkpt lat="43.92679911710682" lon="12.318862551411888"><ele>222.0</ele><time>2026-04-26T07:08:14.027Z</time></trkpt><trkpt lat="43.92689431909558" lon="12.318988723578224"><ele>221.5</ele><time>2026-04-26T07:08:15.027Z</time></trkpt><trkpt lat="43.92701694790984" lon="12.319079852820522"><ele>221.0</ele><time>2026-04-26T07:08:16.027Z</time></trkpt><trkpt lat="43.92713232006193" lon="12.3191897958763"><ele>221.0</ele><time>2026-04-26T07:08:17.027Z</time></trkpt><trkpt lat="43.927237052218494" lon="12.319282558633262"><ele>221.00000000000003</ele><time>2026-04-26T07:08:18.027Z</time></trkpt><trkpt lat="43.9273226603342" lon="12.31937123321507"><ele>221.00000000000003</ele><time>2026-04-26T07:08:19.027Z</time></trkpt><trkpt lat="43.927397275299064" lon="12.319473826408109"><ele>221.0</ele><time>2026-04-26T07:08:20.027Z</time></trkpt><trkpt lat="43.927442869363155" lon="12.319590771731944"><ele>221.0</ele><time>2026-04-26T07:08:21.027Z</time></trkpt><trkpt lat="43.927469194299405" lon="12.319722106741695"><ele>219.4</ele><time>2026-04-26T07:08:22.027Z</time></trkpt><trkpt lat="43.927472977577246" lon="12.319851277130166"><ele>217.8</ele><time>2026-04-26T07:08:23.027Z</time></trkpt><trkpt lat="43.92744199389881" lon="12.319976824922472"><ele>216.20000000000002</ele><time>2026-04-26T07:08:24.027Z</time></trkpt><trkpt lat="43.927403318314575" lon="12.32011628499336"><ele>214.60000000000002</ele><time>2026-04-26T07:08:25.027Z</time></trkpt><trkpt lat="43.92733584562204" lon="12.320285531077536"><ele>213.0</ele><time>2026-04-26T07:08:26.027Z</time></trkpt><trkpt lat="43.927284588035604" lon="12.32045173297929"><ele>212.0</ele><time>2026-04-26T07:08:27.027Z</time></trkpt><trkpt lat="43.92722050828864" lon="12.320590991769702"><ele>211.0</ele><time>2026-04-26T07:08:28.027Z</time></trkpt><trkpt lat="43.927169527564196" lon="12.32071463543279"><ele>210.0</ele><time>2026-04-26T07:08:29.027Z</time></trkpt><trkpt lat="43.92713525369128" lon="12.320790139002325"><ele>209.0</ele><time>2026-04-26T07:08:30.027Z</time></trkpt><trkpt lat="43.9270826980551" lon="12.32090365632757"><ele>208.0</ele><time>2026-04-26T07:08:32.027Z</time></trkpt><trkpt lat="43.926980489208105" lon="12.320884593347786"><ele>207.99999999999997</ele><time>2026-04-26T07:08:38.027Z</time></trkpt><trkpt lat="43.92693375570081" lon="12.320814591973107"><ele>208.0</ele><time>2026-04-26T07:08:39.027Z</time></trkpt><trkpt lat="43.926883050910256" lon="12.3207208988975"><ele>208.0</ele><time>2026-04-26T07:08:40.027Z</time></trkpt><trkpt lat="43.92683069614978" lon="12.320636057104469"><ele>208.0</ele><time>2026-04-26T07:08:41.027Z</time></trkpt><trkpt lat="43.926768367494944" lon="12.32054063636234"><ele>207.99999999999997</ele><time>2026-04-26T07:08:42.027Z</time></trkpt><trkpt lat="43.926698715133945" lon="12.320423558381462"><ele>208.0</ele><time>2026-04-26T07:08:43.026Z</time></trkpt><trkpt lat="43.92662755200037" lon="12.320293274762836"><ele>208.75</ele><time>2026-04-26T07:08:44.026Z</time></trkpt><trkpt lat="43.92654995566276" lon="12.320167086828771"><ele>209.5</ele><time>2026-04-26T07:08:45.026Z</time></trkpt><trkpt lat="43.92647392121076" lon="12.320039404095855"><ele>210.25</ele><time>2026-04-26T07:08:46.027Z</time></trkpt><trkpt lat="43.92639280655225" lon="12.319903775448525"><ele>211.0</ele><time>2026-04-26T07:08:47.027Z</time></trkpt><trkpt lat="43.926307961130235" lon="12.319762608587101"><ele>212.25</ele><time>2026-04-26T07:08:48.027Z</time></trkpt><trkpt lat="43.92622539066042" lon="12.319623795258611"><ele>213.5</ele><time>2026-04-26T07:08:49.027Z</time></trkpt><trkpt lat="43.926137406887555" lon="12.319468529773046"><ele>214.75</ele><time>2026-04-26T07:08:50.027Z</time></trkpt><trkpt lat="43.9260399200201" lon="12.319304886241223"><ele>216.0</ele><time>2026-04-26T07:08:51.027Z</time></trkpt><trkpt lat="43.9259429864328" lon="12.31914744332513"><ele>214.66666666666669</ele><time>2026-04-26T07:08:52.027Z</time></trkpt><trkpt lat="43.92584518118745" lon="12.318982688766352"><ele>213.33333333333334</ele><time>2026-04-26T07:08:53.026Z</time></trkpt><trkpt lat="43.92575813868552" lon="12.318798026521595"><ele>212.0</ele><time>2026-04-26T07:08:54.026Z</time></trkpt><trkpt lat="43.92564205978241" lon="12.31863174974432"><ele>212.0</ele><time>2026-04-26T07:08:55.026Z</time></trkpt><trkpt lat="43.92555427797716" lon="12.318447779709281"><ele>212.0</ele><time>2026-04-26T07:08:56.026Z</time></trkpt><trkpt lat="43.925428322089346" lon="12.318298354988498"><ele>212.0</ele><time>2026-04-26T07:08:57.026Z</time></trkpt><trkpt lat="43.92529471202637" lon="12.318167377547187"><ele>212.0</ele><time>2026-04-26T07:08:58.026Z</time></trkpt><trkpt lat="43.92515594461709" lon="12.318079249613676"><ele>212.0</ele><time>2026-04-26T07:08:59.026Z</time></trkpt><trkpt lat="43.92501349309761" lon="12.31802619434235"><ele>212.0</ele><time>2026-04-26T07:09:00.026Z</time></trkpt><trkpt lat="43.92489179187437" lon="12.317981680063797"><ele>212.0</ele><time>2026-04-26T07:09:01.026Z</time></trkpt><trkpt lat="43.9247691548208" lon="12.3179189056482"><ele>212.75</ele><time>2026-04-26T07:09:02.026Z</time></trkpt><trkpt lat="43.92464781970491" lon="12.317844472383198"><ele>213.5</ele><time>2026-04-26T07:09:03.026Z</time></trkpt><trkpt lat="43.924525171662694" lon="12.317771543975274"><ele>214.25</ele><time>2026-04-26T07:09:04.026Z</time></trkpt><trkpt lat="43.92440634669713" lon="12.31768499029898"><ele>215.0</ele><time>2026-04-26T07:09:05.026Z</time></trkpt><trkpt lat="43.924294006708585" lon="12.317584324009326"><ele>214.5</ele><time>2026-04-26T07:09:06.026Z</time></trkpt><trkpt lat="43.92419969735052" lon="12.317448487512479"><ele>214.0</ele><time>2026-04-26T07:09:07.026Z</time></trkpt><trkpt lat="43.92409008174107" lon="12.317313483308958"><ele>213.5</ele><time>2026-04-26T07:09:08.026Z</time></trkpt><trkpt lat="43.923979034480816" lon="12.31716241039821"><ele>213.0</ele><time>2026-04-26T07:09:09.026Z</time></trkpt><trkpt lat="43.92386269198868" lon="12.317003230010872"><ele>213.0</ele><time>2026-04-26T07:09:10.026Z</time></trkpt><trkpt lat="43.92373908687223" lon="12.31683662137683"><ele>213.0</ele><time>2026-04-26T07:09:11.026Z</time></trkpt><trkpt lat="43.92361458806947" lon="12.31666946947216"><ele>213.0</ele><time>2026-04-26T07:09:12.026Z</time></trkpt><trkpt lat="43.92349512495795" lon="12.316509078642829"><ele>214.0</ele><time>2026-04-26T07:09:13.026Z</time></trkpt><trkpt lat="43.92337460183632" lon="12.316378702982165"><ele>215.0</ele><time>2026-04-26T07:09:14.026Z</time></trkpt><trkpt lat="43.92327842864628" lon="12.316228969605392"><ele>216.0</ele><time>2026-04-26T07:09:15.026Z</time></trkpt><trkpt lat="43.92321336739434" lon="12.316060682209951"><ele>217.0</ele><time>2026-04-26T07:09:16.026Z</time></trkpt><trkpt lat="43.92315447343818" lon="12.315902970777163"><ele>217.0</ele><time>2026-04-26T07:09:17.026Z</time></trkpt><trkpt lat="43.92310559709214" lon="12.315705948056824"><ele>217.0</ele><time>2026-04-26T07:09:18.026Z</time></trkpt><trkpt lat="43.92304039643001" lon="12.315512898280618"><ele>217.0</ele><time>2026-04-26T07:09:19.027Z</time></trkpt><trkpt lat="43.92299172290091" lon="12.315321237702904"><ele>217.0</ele><time>2026-04-26T07:09:20.027Z</time></trkpt><trkpt lat="43.92292714187604" lon="12.315137273301502"><ele>217.0</ele><time>2026-04-26T07:09:21.027Z</time></trkpt><trkpt lat="43.922849610562395" lon="12.31496178926694"><ele>217.0</ele><time>2026-04-26T07:09:22.027Z</time></trkpt><trkpt lat="43.92275478926937" lon="12.314785457096841"><ele>217.66666666666666</ele><time>2026-04-26T07:09:23.027Z</time></trkpt><trkpt lat="43.922650334391456" lon="12.314612671843452"><ele>218.33333333333331</ele><time>2026-04-26T07:09:24.027Z</time></trkpt><trkpt lat="43.92253446087627" lon="12.314436316764628"><ele>219.0</ele><time>2026-04-26T07:09:25.027Z</time></trkpt><trkpt lat="43.9224271354951" lon="12.314272120707852"><ele>217.5</ele><time>2026-04-26T07:09:26.027Z</time></trkpt><trkpt lat="43.92232284362388" lon="12.31411829920495"><ele>216.0</ele><time>2026-04-26T07:09:27.027Z</time></trkpt><trkpt lat="43.92223328641144" lon="12.313972581585018"><ele>214.5</ele><time>2026-04-26T07:09:28.027Z</time></trkpt><trkpt lat="43.92214478315879" lon="12.313827821349934"><ele>213.0</ele><time>2026-04-26T07:09:29.027Z</time></trkpt><trkpt lat="43.922057968786405" lon="12.313679088686662"><ele>213.0</ele><time>2026-04-26T07:09:30.027Z</time></trkpt><trkpt lat="43.92197968239001" lon="12.313522632865538"><ele>213.0</ele><time>2026-04-26T07:09:31.027Z</time></trkpt><trkpt lat="43.92189134765406" lon="12.31338339383429"><ele>213.0</ele><time>2026-04-26T07:09:32.027Z</time></trkpt><trkpt lat="43.92179984834546" lon="12.313252558645981"><ele>213.0</ele><time>2026-04-26T07:09:33.027Z</time></trkpt><trkpt lat="43.92170933514127" lon="12.313163889962548"><ele>212.0</ele><time>2026-04-26T07:09:34.027Z</time></trkpt><trkpt lat="43.92163175960183" lon="12.31306651425666"><ele>211.0</ele><time>2026-04-26T07:09:35.027Z</time></trkpt><trkpt lat="43.92156327394687" lon="12.312966274711428"><ele>210.0</ele><time>2026-04-26T07:09:36.027Z</time></trkpt><trkpt lat="43.92146792055848" lon="12.312891007659264"><ele>209.0</ele><time>2026-04-26T07:09:37.027Z</time></trkpt><trkpt lat="43.92137046179084" lon="12.312807042129371"><ele>208.0</ele><time>2026-04-26T07:09:38.027Z</time></trkpt><trkpt lat="43.921277022587574" lon="12.312722036234918"><ele>208.0</ele><time>2026-04-26T07:09:39.027Z</time></trkpt><trkpt lat="43.92118489919096" lon="12.312632028881959"><ele>208.0</ele><time>2026-04-26T07:09:40.027Z</time></trkpt><trkpt lat="43.92109533461442" lon="12.312549658159613"><ele>208.0</ele><time>2026-04-26T07:09:41.027Z</time></trkpt><trkpt lat="43.921006163735115" lon="12.312465089129809"><ele>208.0</ele><time>2026-04-26T07:09:42.027Z</time></trkpt><trkpt lat="43.92091975156184" lon="12.31238088732347"><ele>208.0</ele><time>2026-04-26T07:09:43.027Z</time></trkpt><trkpt lat="43.92083279290611" lon="12.312297834776512"><ele>209.8</ele><time>2026-04-26T07:09:44.027Z</time></trkpt><trkpt lat="43.920750796571454" lon="12.312221633294374"><ele>211.60000000000002</ele><time>2026-04-26T07:09:45.027Z</time></trkpt><trkpt lat="43.92066671744209" lon="12.31214644034362"><ele>213.39999999999998</ele><time>2026-04-26T07:09:46.027Z</time></trkpt><trkpt lat="43.920572702402325" lon="12.312065241330856"><ele>215.2</ele><time>2026-04-26T07:09:47.027Z</time></trkpt><trkpt lat="43.92048178247225" lon="12.31197298033335"><ele>217.0</ele><time>2026-04-26T07:09:48.027Z</time></trkpt><trkpt lat="43.92038679731548" lon="12.311887453574554"><ele>217.0</ele><time>2026-04-26T07:09:49.027Z</time></trkpt><trkpt lat="43.92029126966106" lon="12.311807134795034"><ele>217.0</ele><time>2026-04-26T07:09:50.027Z</time></trkpt><trkpt lat="43.92020213308033" lon="12.311715936764497"><ele>217.0</ele><time>2026-04-26T07:09:51.027Z</time></trkpt><trkpt lat="43.92011845665036" lon="12.311620183350668"><ele>217.0</ele><time>2026-04-26T07:09:52.027Z</time></trkpt><trkpt lat="43.920056657332154" lon="12.311497871720885"><ele>217.0</ele><time>2026-04-26T07:09:53.027Z</time></trkpt><trkpt lat="43.91999926563459" lon="12.311375296645084"><ele>217.25</ele><time>2026-04-26T07:09:54.027Z</time></trkpt><trkpt lat="43.91994777650021" lon="12.311243053344327"><ele>217.5</ele><time>2026-04-26T07:09:55.027Z</time></trkpt><trkpt lat="43.9199025349664" lon="12.31110035862251"><ele>217.75</ele><time>2026-04-26T07:09:56.027Z</time></trkpt><trkpt lat="43.919844359773734" lon="12.310960750856323"><ele>218.0</ele><time>2026-04-26T07:09:57.027Z</time></trkpt><trkpt lat="43.91978650386036" lon="12.310825901468275"><ele>218.0</ele><time>2026-04-26T07:09:58.027Z</time></trkpt><trkpt lat="43.91973035928439" lon="12.310693839328161"><ele>218.0</ele><time>2026-04-26T07:09:59.027Z</time></trkpt><trkpt lat="43.91967047053406" lon="12.310582859414769"><ele>218.0</ele><time>2026-04-26T07:10:00.027Z</time></trkpt><trkpt lat="43.91960593102543" lon="12.310472192078914"><ele>218.0</ele><time>2026-04-26T07:10:01.027Z</time></trkpt><trkpt lat="43.91953455179051" lon="12.310350911016972"><ele>218.0</ele><time>2026-04-26T07:10:02.027Z</time></trkpt><trkpt lat="43.91945007847301" lon="12.3102297829267"><ele>218.75</ele><time>2026-04-26T07:10:03.027Z</time></trkpt><trkpt lat="43.91936374349289" lon="12.310107984049734"><ele>219.5</ele><time>2026-04-26T07:10:04.027Z</time></trkpt><trkpt lat="43.919277900070256" lon="12.309989782288328"><ele>220.25</ele><time>2026-04-26T07:10:05.027Z</time></trkpt><trkpt lat="43.91919003127515" lon="12.309870852474962"><ele>221.0</ele><time>2026-04-26T07:10:06.027Z</time></trkpt><trkpt lat="43.919098484339436" lon="12.309747113328607"><ele>222.0</ele><time>2026-04-26T07:10:07.027Z</time></trkpt><trkpt lat="43.91900405787002" lon="12.309611455893435"><ele>223.0</ele><time>2026-04-26T07:10:08.027Z</time></trkpt><trkpt lat="43.91890205052342" lon="12.30945921987415"><ele>224.0</ele><time>2026-04-26T07:10:09.027Z</time></trkpt><trkpt lat="43.918778734047514" lon="12.309304111647942"><ele>224.0</ele><time>2026-04-26T07:10:10.027Z</time></trkpt><trkpt lat="43.918665395815744" lon="12.30914021710232"><ele>224.0</ele><time>2026-04-26T07:10:11.027Z</time></trkpt><trkpt lat="43.91855353098021" lon="12.308987354693619"><ele>224.0</ele><time>2026-04-26T07:10:12.027Z</time></trkpt><trkpt lat="43.91845441939882" lon="12.308841305195404"><ele>224.5</ele><time>2026-04-26T07:10:13.027Z</time></trkpt><trkpt lat="43.918354355256035" lon="12.308706631251322"><ele>225.0</ele><time>2026-04-26T07:10:14.027Z</time></trkpt><trkpt lat="43.91828233673021" lon="12.308562830253376"><ele>225.5</ele><time>2026-04-26T07:10:15.027Z</time></trkpt><trkpt lat="43.918178730309606" lon="12.308424256265297"><ele>226.0</ele><time>2026-04-26T07:10:16.027Z</time></trkpt><trkpt lat="43.918078426359074" lon="12.308280219771332"><ele>226.0</ele><time>2026-04-26T07:10:17.027Z</time></trkpt><trkpt lat="43.91797883267243" lon="12.308146959504397"><ele>226.0</ele><time>2026-04-26T07:10:18.027Z</time></trkpt><trkpt lat="43.91788334663839" lon="12.308019023623721"><ele>226.0</ele><time>2026-04-26T07:10:19.027Z</time></trkpt><trkpt lat="43.91778421053853" lon="12.30788655429384"><ele>226.0</ele><time>2026-04-26T07:10:20.027Z</time></trkpt><trkpt lat="43.91767636158237" lon="12.307745048714844"><ele>226.33333333333331</ele><time>2026-04-26T07:10:21.027Z</time></trkpt><trkpt lat="43.917562209732694" lon="12.307583405718447"><ele>226.66666666666669</ele><time>2026-04-26T07:10:22.027Z</time></trkpt><trkpt lat="43.91744387087783" lon="12.307393799244199"><ele>227.0</ele><time>2026-04-26T07:10:23.027Z</time></trkpt><trkpt lat="43.9173093752107" lon="12.307201135603604"><ele>228.0</ele><time>2026-04-26T07:10:24.027Z</time></trkpt><trkpt lat="43.9171758736622" lon="12.307009489320544"><ele>229.0</ele><time>2026-04-26T07:10:25.027Z</time></trkpt><trkpt lat="43.917039902939884" lon="12.30681247579563"><ele>230.0</ele><time>2026-04-26T07:10:26.027Z</time></trkpt><trkpt lat="43.91691273146332" lon="12.306628286926479"><ele>230.0</ele><time>2026-04-26T07:10:27.027Z</time></trkpt><trkpt lat="43.916786921648786" lon="12.306466186871267"><ele>230.0</ele><time>2026-04-26T07:10:28.027Z</time></trkpt><trkpt lat="43.916650057025265" lon="12.3063448739284"><ele>230.0</ele><time>2026-04-26T07:10:29.027Z</time></trkpt><trkpt lat="43.916517419088926" lon="12.30621279680896"><ele>231.33333333333334</ele><time>2026-04-26T07:10:30.027Z</time></trkpt><trkpt lat="43.91636071205129" lon="12.30613356889799"><ele>232.66666666666669</ele><time>2026-04-26T07:10:31.027Z</time></trkpt><trkpt lat="43.916186573320715" lon="12.306068181475755"><ele>234.0</ele><time>2026-04-26T07:10:32.027Z</time></trkpt><trkpt lat="43.916003534851484" lon="12.306006304288458"><ele>233.33333333333331</ele><time>2026-04-26T07:10:33.027Z</time></trkpt><trkpt lat="43.91582003178002" lon="12.305944284181411"><ele>232.66666666666666</ele><time>2026-04-26T07:10:34.027Z</time></trkpt><trkpt lat="43.91562868101255" lon="12.30589808350757"><ele>232.0</ele><time>2026-04-26T07:10:35.027Z</time></trkpt><trkpt lat="43.915438370520775" lon="12.305808542275951"><ele>232.0</ele><time>2026-04-26T07:10:36.027Z</time></trkpt><trkpt lat="43.91525362942454" lon="12.305694222850562"><ele>232.0</ele><time>2026-04-26T07:10:37.027Z</time></trkpt><trkpt lat="43.915061119032195" lon="12.305607585962749"><ele>232.0</ele><time>2026-04-26T07:10:38.027Z</time></trkpt><trkpt lat="43.914862148003984" lon="12.305513065254285"><ele>232.0</ele><time>2026-04-26T07:10:39.027Z</time></trkpt><trkpt lat="43.91466617312941" lon="12.305416407949155"><ele>232.0</ele><time>2026-04-26T07:10:40.027Z</time></trkpt><trkpt lat="43.9144709643912" lon="12.305291484990251"><ele>232.0</ele><time>2026-04-26T07:10:41.027Z</time></trkpt><trkpt lat="43.914273693126624" lon="12.305188610032051"><ele>231.66666666666666</ele><time>2026-04-26T07:10:42.027Z</time></trkpt><trkpt lat="43.914076957702115" lon="12.305086014161775"><ele>231.33333333333331</ele><time>2026-04-26T07:10:43.027Z</time></trkpt><trkpt lat="43.91387700456002" lon="12.305003301262934"><ele>231.0</ele><time>2026-04-26T07:10:44.027Z</time></trkpt><trkpt lat="43.913689082459086" lon="12.304903489153663"><ele>231.0</ele><time>2026-04-26T07:10:45.027Z</time></trkpt><trkpt lat="43.913501783625904" lon="12.30479805394064"><ele>231.0</ele><time>2026-04-26T07:10:46.027Z</time></trkpt><trkpt lat="43.91331784057744" lon="12.304704396878279"><ele>231.0</ele><time>2026-04-26T07:10:47.027Z</time></trkpt><trkpt lat="43.913135611072896" lon="12.304606559004192"><ele>230.0</ele><time>2026-04-26T07:10:48.027Z</time></trkpt><trkpt lat="43.912948842764955" lon="12.30450776967313"><ele>229.0</ele><time>2026-04-26T07:10:49.027Z</time></trkpt><trkpt lat="43.912765032260424" lon="12.3044122214194"><ele>228.0</ele><time>2026-04-26T07:10:50.027Z</time></trkpt><trkpt lat="43.91257884781663" lon="12.304326093976835"><ele>229.0</ele><time>2026-04-26T07:10:51.027Z</time></trkpt><trkpt lat="43.91238638862953" lon="12.304259947253126"><ele>230.0</ele><time>2026-04-26T07:10:52.027Z</time></trkpt><trkpt lat="43.91218316012941" lon="12.30421985063995"><ele>231.0</ele><time>2026-04-26T07:10:53.027Z</time></trkpt><trkpt lat="43.911974981047855" lon="12.304194501194496"><ele>231.0</ele><time>2026-04-26T07:10:54.027Z</time></trkpt><trkpt lat="43.911766295450214" lon="12.304170776622914"><ele>231.0</ele><time>2026-04-26T07:10:55.027Z</time></trkpt><trkpt lat="43.91156188685775" lon="12.304150792923531"><ele>231.0</ele><time>2026-04-26T07:10:56.027Z</time></trkpt><trkpt lat="43.911367367659054" lon="12.304123550035813"><ele>231.0</ele><time>2026-04-26T07:10:57.027Z</time></trkpt><trkpt lat="43.91118228305737" lon="12.30409320726696"><ele>231.0</ele><time>2026-04-26T07:10:58.027Z</time></trkpt><trkpt lat="43.91100676876102" lon="12.30404735896352"><ele>231.0</ele><time>2026-04-26T07:10:59.027Z</time></trkpt><trkpt lat="43.91085220593214" lon="12.30396106522379"><ele>234.33333333333331</ele><time>2026-04-26T07:11:00.027Z</time></trkpt><trkpt lat="43.91070960027134" lon="12.30385327517678"><ele>237.66666666666666</ele><time>2026-04-26T07:11:01.027Z</time></trkpt><trkpt lat="43.910582230553686" lon="12.303727151991753"><ele>241.0</ele><time>2026-04-26T07:11:02.027Z</time></trkpt><trkpt lat="43.91047607967842" lon="12.303573085552495"><ele>241.0</ele><time>2026-04-26T07:11:03.027Z</time></trkpt><trkpt lat="43.91036779898295" lon="12.303437070252683"><ele>241.0</ele><time>2026-04-26T07:11:04.027Z</time></trkpt><trkpt lat="43.910262101330034" lon="12.303305685777936"><ele>241.0</ele><time>2026-04-26T07:11:05.027Z</time></trkpt><trkpt lat="43.91015950248709" lon="12.303190820555885"><ele>241.0</ele><time>2026-04-26T07:11:06.027Z</time></trkpt><trkpt lat="43.91008756287794" lon="12.303079297983997"><ele>241.8</ele><time>2026-04-26T07:11:07.027Z</time></trkpt><trkpt lat="43.91004529744923" lon="12.302962045896377"><ele>242.60000000000002</ele><time>2026-04-26T07:11:08.027Z</time></trkpt><trkpt lat="43.91003727931505" lon="12.302830610759784"><ele>243.4</ele><time>2026-04-26T07:11:09.027Z</time></trkpt><trkpt lat="43.91007046386643" lon="12.302673512417071"><ele>244.2</ele><time>2026-04-26T07:11:10.027Z</time></trkpt><trkpt lat="43.910148223059515" lon="12.302510684377618"><ele>245.0</ele><time>2026-04-26T07:11:11.027Z</time></trkpt><trkpt lat="43.91022320031594" lon="12.302344353330685"><ele>246.66666666666669</ele><time>2026-04-26T07:11:12.027Z</time></trkpt><trkpt lat="43.91026415527466" lon="12.302140599393299"><ele>248.33333333333331</ele><time>2026-04-26T07:11:13.027Z</time></trkpt><trkpt lat="43.910289994192915" lon="12.30191065932293"><ele>250.0</ele><time>2026-04-26T07:11:14.027Z</time></trkpt><trkpt lat="43.91031250375361" lon="12.30167350082976"><ele>250.0</ele><time>2026-04-26T07:11:15.027Z</time></trkpt><trkpt lat="43.910353942428095" lon="12.301435705000843"><ele>250.0</ele><time>2026-04-26T07:11:16.027Z</time></trkpt><trkpt lat="43.91040282629563" lon="12.301186304988304"><ele>250.0</ele><time>2026-04-26T07:11:17.027Z</time></trkpt><trkpt lat="43.91045043656942" lon="12.300927835917445"><ele>249.66666666666666</ele><time>2026-04-26T07:11:18.027Z</time></trkpt><trkpt lat="43.9104851377015" lon="12.300658567530805"><ele>249.33333333333331</ele><time>2026-04-26T07:11:19.027Z</time></trkpt><trkpt lat="43.91051401917829" lon="12.300382280926971"><ele>249.0</ele><time>2026-04-26T07:11:20.027Z</time></trkpt><trkpt lat="43.91056464467703" lon="12.300117077245124"><ele>248.0</ele><time>2026-04-26T07:11:21.027Z</time></trkpt><trkpt lat="43.91058100232593" lon="12.299834917915383"><ele>247.0</ele><time>2026-04-26T07:11:22.027Z</time></trkpt><trkpt lat="43.91058394458856" lon="12.29956494029358"><ele>246.0</ele><time>2026-04-26T07:11:23.027Z</time></trkpt><trkpt lat="43.91058045366075" lon="12.29931724644856"><ele>246.0</ele><time>2026-04-26T07:11:24.027Z</time></trkpt><trkpt lat="43.91056533425115" lon="12.299096442299147"><ele>246.0</ele><time>2026-04-26T07:11:25.027Z</time></trkpt><trkpt lat="43.910529055678296" lon="12.298893174324217"><ele>246.0</ele><time>2026-04-26T07:11:26.027Z</time></trkpt><trkpt lat="43.91048883556481" lon="12.298684147931088"><ele>246.66666666666669</ele><time>2026-04-26T07:11:27.027Z</time></trkpt><trkpt lat="43.91035575205715" lon="12.298520168758353"><ele>247.33333333333334</ele><time>2026-04-26T07:11:28.027Z</time></trkpt><trkpt lat="43.91021924204516" lon="12.298393207985804"><ele>248.0</ele><time>2026-04-26T07:11:29.027Z</time></trkpt><trkpt lat="43.91008475549411" lon="12.298265745479128"><ele>247.33333333333334</ele><time>2026-04-26T07:11:30.027Z</time></trkpt><trkpt lat="43.9099403981171" lon="12.298153117165745"><ele>246.66666666666669</ele><time>2026-04-26T07:11:31.027Z</time></trkpt><trkpt lat="43.909791356472546" lon="12.298051138225311"><ele>246.0</ele><time>2026-04-26T07:11:32.027Z</time></trkpt><trkpt lat="43.90966328015483" lon="12.297910951893448"><ele>246.0</ele><time>2026-04-26T07:11:33.027Z</time></trkpt><trkpt lat="43.90954018114761" lon="12.297742103146314"><ele>246.0</ele><time>2026-04-26T07:11:34.027Z</time></trkpt><trkpt lat="43.9094424381931" lon="12.297536341801012"><ele>246.0</ele><time>2026-04-26T07:11:35.027Z</time></trkpt><trkpt lat="43.909325552806834" lon="12.297350320127089"><ele>244.33333333333331</ele><time>2026-04-26T07:11:36.027Z</time></trkpt><trkpt lat="43.909225320099736" lon="12.29716093213435"><ele>242.66666666666666</ele><time>2026-04-26T07:11:37.027Z</time></trkpt><trkpt lat="43.90913420892317" lon="12.296985492616656"><ele>241.0</ele><time>2026-04-26T07:11:38.027Z</time></trkpt><trkpt lat="43.909094834733715" lon="12.296801588155194"><ele>241.0</ele><time>2026-04-26T07:11:39.027Z</time></trkpt><trkpt lat="43.90904897096613" lon="12.29659125671542"><ele>241.0</ele><time>2026-04-26T07:11:40.027Z</time></trkpt><trkpt lat="43.908999865294085" lon="12.296373656808374"><ele>241.0</ele><time>2026-04-26T07:11:41.027Z</time></trkpt><trkpt lat="43.90895468957416" lon="12.296158706108594"><ele>241.25</ele><time>2026-04-26T07:11:42.027Z</time></trkpt><trkpt lat="43.908893192622195" lon="12.295969216832367"><ele>241.5</ele><time>2026-04-26T07:11:43.027Z</time></trkpt><trkpt lat="43.90882060833109" lon="12.295798652550054"><ele>241.75</ele><time>2026-04-26T07:11:44.027Z</time></trkpt><trkpt lat="43.908761841782635" lon="12.295604597384788"><ele>242.0</ele><time>2026-04-26T07:11:45.028Z</time></trkpt><trkpt lat="43.90870054808126" lon="12.295410898753182"><ele>242.66666666666669</ele><time>2026-04-26T07:11:46.028Z</time></trkpt><trkpt lat="43.90863791969174" lon="12.295216880218913"><ele>243.33333333333331</ele><time>2026-04-26T07:11:47.028Z</time></trkpt><trkpt lat="43.9085707323524" lon="12.295026350978384"><ele>244.0</ele><time>2026-04-26T07:11:48.028Z</time></trkpt><trkpt lat="43.90850647476708" lon="12.294841841469884"><ele>245.25</ele><time>2026-04-26T07:11:49.028Z</time></trkpt><trkpt lat="43.90845039852028" lon="12.294660946173488"><ele>246.5</ele><time>2026-04-26T07:11:50.028Z</time></trkpt><trkpt lat="43.908398083856554" lon="12.294494456374522"><ele>247.75</ele><time>2026-04-26T07:11:51.028Z</time></trkpt><trkpt lat="43.908338632625615" lon="12.294347454234597"><ele>249.0</ele><time>2026-04-26T07:11:52.028Z</time></trkpt><trkpt lat="43.908248417112944" lon="12.294234354185857"><ele>246.5</ele><time>2026-04-26T07:11:53.028Z</time></trkpt><trkpt lat="43.90813581738525" lon="12.294124809947913"><ele>244.0</ele><time>2026-04-26T07:11:54.028Z</time></trkpt><trkpt lat="43.90799203022999" lon="12.294082057622896"><ele>241.5</ele><time>2026-04-26T07:11:55.028Z</time></trkpt><trkpt lat="43.90784488237674" lon="12.294044351283945"><ele>239.0</ele><time>2026-04-26T07:11:56.028Z</time></trkpt><trkpt lat="43.90768938487903" lon="12.294012987195503"><ele>238.66666666666669</ele><time>2026-04-26T07:11:57.028Z</time></trkpt><trkpt lat="43.90752546456005" lon="12.293974800681521"><ele>238.33333333333331</ele><time>2026-04-26T07:11:58.028Z</time></trkpt><trkpt lat="43.90735587963342" lon="12.293931702058394"><ele>238.0</ele><time>2026-04-26T07:11:59.028Z</time></trkpt><trkpt lat="43.907185377388664" lon="12.293889294602792"><ele>238.0</ele><time>2026-04-26T07:12:00.028Z</time></trkpt><trkpt lat="43.9070102852161" lon="12.293855229370362"><ele>238.0</ele><time>2026-04-26T07:12:01.028Z</time></trkpt><trkpt lat="43.90683458857641" lon="12.293818450927397"><ele>238.0</ele><time>2026-04-26T07:12:02.028Z</time></trkpt><trkpt lat="43.90665771295046" lon="12.293778650454943"><ele>239.0</ele><time>2026-04-26T07:12:03.028Z</time></trkpt><trkpt lat="43.906473186632006" lon="12.293740024612458"><ele>240.0</ele><time>2026-04-26T07:12:04.028Z</time></trkpt><trkpt lat="43.90629347947696" lon="12.2937023161925"><ele>241.0</ele><time>2026-04-26T07:12:05.028Z</time></trkpt><trkpt lat="43.90611215552238" lon="12.293642121014333"><ele>241.0</ele><time>2026-04-26T07:12:06.028Z</time></trkpt><trkpt lat="43.90592982188305" lon="12.293612492044605"><ele>241.0</ele><time>2026-04-26T07:12:07.028Z</time></trkpt><trkpt lat="43.905752220152884" lon="12.293585353837125"><ele>241.0</ele><time>2026-04-26T07:12:08.028Z</time></trkpt><trkpt lat="43.90557432489662" lon="12.29355365539692"><ele>241.33333333333331</ele><time>2026-04-26T07:12:09.028Z</time></trkpt><trkpt lat="43.90539754889141" lon="12.293516197005923"><ele>241.66666666666669</ele><time>2026-04-26T07:12:10.028Z</time></trkpt><trkpt lat="43.90522391779956" lon="12.293468865681335"><ele>242.0</ele><time>2026-04-26T07:12:11.028Z</time></trkpt><trkpt lat="43.90505147993855" lon="12.293398767272505"><ele>241.33333333333334</ele><time>2026-04-26T07:12:12.028Z</time></trkpt><trkpt lat="43.90487837288337" lon="12.293337041906357"><ele>240.66666666666669</ele><time>2026-04-26T07:12:13.028Z</time></trkpt><trkpt lat="43.90470801681831" lon="12.293287343422733"><ele>240.0</ele><time>2026-04-26T07:12:14.028Z</time></trkpt><trkpt lat="43.90454014255446" lon="12.293265326796506"><ele>240.0</ele><time>2026-04-26T07:12:15.028Z</time></trkpt><trkpt lat="43.90437991557717" lon="12.29329861982212"><ele>240.0</ele><time>2026-04-26T07:12:16.028Z</time></trkpt><trkpt lat="43.90422291398303" lon="12.293377576579884"><ele>240.0</ele><time>2026-04-26T07:12:17.028Z</time></trkpt><trkpt lat="43.90406497720026" lon="12.29349152639631"><ele>239.0</ele><time>2026-04-26T07:12:18.028Z</time></trkpt><trkpt lat="43.90392024584695" lon="12.293702078283927"><ele>238.0</ele><time>2026-04-26T07:12:19.028Z</time></trkpt><trkpt lat="43.90378065998747" lon="12.29388038953834"><ele>237.0</ele><time>2026-04-26T07:12:20.028Z</time></trkpt><trkpt lat="43.90364456896051" lon="12.294059498167385"><ele>237.0</ele><time>2026-04-26T07:12:21.028Z</time></trkpt><trkpt lat="43.90352205808883" lon="12.29425233923498"><ele>237.0</ele><time>2026-04-26T07:12:22.028Z</time></trkpt><trkpt lat="43.90342534178992" lon="12.29446273311567"><ele>237.0</ele><time>2026-04-26T07:12:23.028Z</time></trkpt><trkpt lat="43.90333875954411" lon="12.294638129467149"><ele>237.25</ele><time>2026-04-26T07:12:24.028Z</time></trkpt><trkpt lat="43.90326690551762" lon="12.294805176699011"><ele>237.5</ele><time>2026-04-26T07:12:25.028Z</time></trkpt><trkpt lat="43.90317081997749" lon="12.29492300255839"><ele>237.75</ele><time>2026-04-26T07:12:26.028Z</time></trkpt><trkpt lat="43.903078682431456" lon="12.295044089763863"><ele>238.0</ele><time>2026-04-26T07:12:27.028Z</time></trkpt><trkpt lat="43.90295049670744" lon="12.295102349832879"><ele>238.0</ele><time>2026-04-26T07:12:28.028Z</time></trkpt><trkpt lat="43.90279937722517" lon="12.295132253391499"><ele>238.0</ele><time>2026-04-26T07:12:29.028Z</time></trkpt><trkpt lat="43.902629096292266" lon="12.295126619853388"><ele>238.0</ele><time>2026-04-26T07:12:30.028Z</time></trkpt><trkpt lat="43.902446480533364" lon="12.295078096827357"><ele>238.66666666666666</ele><time>2026-04-26T07:12:31.028Z</time></trkpt><trkpt lat="43.90225763952225" lon="12.295012235551761"><ele>239.33333333333331</ele><time>2026-04-26T07:12:32.028Z</time></trkpt><trkpt lat="43.902077094639225" lon="12.294948873869268"><ele>240.0</ele><time>2026-04-26T07:12:33.028Z</time></trkpt><trkpt lat="43.901894208187514" lon="12.294897964498357"><ele>239.33333333333331</ele><time>2026-04-26T07:12:34.028Z</time></trkpt><trkpt lat="43.90171844913684" lon="12.294844339600733"><ele>238.66666666666666</ele><time>2026-04-26T07:12:35.028Z</time></trkpt><trkpt lat="43.90155758867184" lon="12.294738839523916"><ele>238.0</ele><time>2026-04-26T07:12:36.028Z</time></trkpt><trkpt lat="43.901413022139714" lon="12.294609930252665"><ele>241.0</ele><time>2026-04-26T07:12:37.028Z</time></trkpt><trkpt lat="43.901268236687486" lon="12.29446090597455"><ele>244.0</ele><time>2026-04-26T07:12:38.028Z</time></trkpt><trkpt lat="43.901123053981564" lon="12.294302337397838"><ele>247.0</ele><time>2026-04-26T07:12:39.028Z</time></trkpt><trkpt lat="43.90097082912393" lon="12.294138273926668"><ele>246.33333333333331</ele><time>2026-04-26T07:12:40.028Z</time></trkpt><trkpt lat="43.90081140510214" lon="12.293988732715965"><ele>245.66666666666669</ele><time>2026-04-26T07:12:41.028Z</time></trkpt><trkpt lat="43.90066302108692" lon="12.293825519718874"><ele>245.0</ele><time>2026-04-26T07:12:42.028Z</time></trkpt><trkpt lat="43.90052678778742" lon="12.293675219696834"><ele>247.33333333333334</ele><time>2026-04-26T07:12:43.028Z</time></trkpt><trkpt lat="43.90042285278136" lon="12.29351976221101"><ele>249.66666666666669</ele><time>2026-04-26T07:12:44.028Z</time></trkpt><trkpt lat="43.90033733595771" lon="12.29334690276638"><ele>252.0</ele><time>2026-04-26T07:12:45.028Z</time></trkpt><trkpt lat="43.900291650489685" lon="12.29314240136701"><ele>253.33333333333331</ele><time>2026-04-26T07:12:46.028Z</time></trkpt><trkpt lat="43.90026782026828" lon="12.292907695821789"><ele>254.66666666666666</ele><time>2026-04-26T07:12:47.028Z</time></trkpt><trkpt lat="43.90023658526309" lon="12.292646575038937"><ele>256.0</ele><time>2026-04-26T07:12:48.028Z</time></trkpt><trkpt lat="43.90023217551275" lon="12.29237222949902"><ele>257.3333333333333</ele><time>2026-04-26T07:12:49.028Z</time></trkpt><trkpt lat="43.90021688668968" lon="12.292096595823388"><ele>258.6666666666667</ele><time>2026-04-26T07:12:50.028Z</time></trkpt><trkpt lat="43.90020041320127" lon="12.291835584775122"><ele>260.0</ele><time>2026-04-26T07:12:51.028Z</time></trkpt><trkpt lat="43.90018882632442" lon="12.291593788503912"><ele>259.6666666666667</ele><time>2026-04-26T07:12:52.027Z</time></trkpt><trkpt lat="43.90016547845737" lon="12.291362259995756"><ele>259.3333333333333</ele><time>2026-04-26T07:12:53.028Z</time></trkpt><trkpt lat="43.90012199606854" lon="12.291151791804756"><ele>259.0</ele><time>2026-04-26T07:12:54.028Z</time></trkpt><trkpt lat="43.90003665737014" lon="12.29095403682514"><ele>259.0</ele><time>2026-04-26T07:12:55.028Z</time></trkpt><trkpt lat="43.89993594427123" lon="12.290768457553911"><ele>259.0</ele><time>2026-04-26T07:12:56.027Z</time></trkpt><trkpt lat="43.899824314079545" lon="12.290590640770082"><ele>259.0</ele><time>2026-04-26T07:12:57.027Z</time></trkpt><trkpt lat="43.89972579267492" lon="12.290416019466614"><ele>260.25</ele><time>2026-04-26T07:12:58.028Z</time></trkpt><trkpt lat="43.89963443563591" lon="12.290267323105207"><ele>261.5</ele><time>2026-04-26T07:12:59.027Z</time></trkpt><trkpt lat="43.89955004945743" lon="12.290134794479206"><ele>262.75</ele><time>2026-04-26T07:13:00.027Z</time></trkpt><trkpt lat="43.899469118741465" lon="12.289994607710462"><ele>264.0</ele><time>2026-04-26T07:13:01.028Z</time></trkpt><trkpt lat="43.89938698964238" lon="12.289855442621871"><ele>263.75</ele><time>2026-04-26T07:13:02.028Z</time></trkpt><trkpt lat="43.89930473826864" lon="12.289716840884234"><ele>263.5</ele><time>2026-04-26T07:13:03.028Z</time></trkpt><trkpt lat="43.89922500523554" lon="12.289582020240434"><ele>263.25</ele><time>2026-04-26T07:13:04.028Z</time></trkpt><trkpt lat="43.89914119708539" lon="12.289444231433714"><ele>263.0</ele><time>2026-04-26T07:13:05.028Z</time></trkpt><trkpt lat="43.89905199363588" lon="12.289312033334964"><ele>263.0</ele><time>2026-04-26T07:13:06.028Z</time></trkpt><trkpt lat="43.89894776100464" lon="12.289179541201827"><ele>263.0</ele><time>2026-04-26T07:13:07.028Z</time></trkpt><trkpt lat="43.898832922577256" lon="12.289053468222814"><ele>263.0</ele><time>2026-04-26T07:13:08.028Z</time></trkpt><trkpt lat="43.89871227434689" lon="12.28893047150188"><ele>263.0</ele><time>2026-04-26T07:13:09.028Z</time></trkpt><trkpt lat="43.898570678912606" lon="12.288879641367474"><ele>265.75</ele><time>2026-04-26T07:13:10.028Z</time></trkpt><trkpt lat="43.8984288926142" lon="12.28883059071659"><ele>268.5</ele><time>2026-04-26T07:13:11.028Z</time></trkpt><trkpt lat="43.898284808589025" lon="12.288804272912941"><ele>271.25</ele><time>2026-04-26T07:13:12.028Z</time></trkpt><trkpt lat="43.89814124984576" lon="12.288804688611183"><ele>274.0</ele><time>2026-04-26T07:13:13.028Z</time></trkpt><trkpt lat="43.89802784052713" lon="12.288819279318059"><ele>274.0</ele><time>2026-04-26T07:13:14.028Z</time></trkpt><trkpt lat="43.897944529039584" lon="12.288833092244777"><ele>274.0</ele><time>2026-04-26T07:13:15.028Z</time></trkpt><trkpt lat="43.89786465923418" lon="12.288846191131338"><ele>274.0</ele><time>2026-04-26T07:13:16.028Z</time></trkpt><trkpt lat="43.89777854785927" lon="12.288880058768079"><ele>274.0</ele><time>2026-04-26T07:13:17.028Z</time></trkpt><trkpt lat="43.89768925144124" lon="12.288955808972581"><ele>274.0</ele><time>2026-04-26T07:13:18.028Z</time></trkpt><trkpt lat="43.89760201475504" lon="12.288997411975375"><ele>275.0</ele><time>2026-04-26T07:13:19.028Z</time></trkpt><trkpt lat="43.89753135405966" lon="12.289057648150104"><ele>276.0</ele><time>2026-04-26T07:13:20.028Z</time></trkpt><trkpt lat="43.89740597702642" lon="12.288917466784142"><ele>277.0</ele><time>2026-04-26T07:13:21.028Z</time></trkpt><trkpt lat="43.89731368721836" lon="12.28880013109174"><ele>278.0</ele><time>2026-04-26T07:13:22.028Z</time></trkpt><trkpt lat="43.89722280387687" lon="12.288712447632365"><ele>278.0</ele><time>2026-04-26T07:13:23.028Z</time></trkpt><trkpt lat="43.89713560243355" lon="12.28864436433986"><ele>278.0</ele><time>2026-04-26T07:13:24.028Z</time></trkpt><trkpt lat="43.89704852074003" lon="12.288572491391044"><ele>278.0</ele><time>2026-04-26T07:13:25.028Z</time></trkpt><trkpt lat="43.896971303430824" lon="12.288475357534983"><ele>278.0</ele><time>2026-04-26T07:13:26.028Z</time></trkpt><trkpt lat="43.89688873425355" lon="12.288400847341162"><ele>278.0</ele><time>2026-04-26T07:13:27.028Z</time></trkpt><trkpt lat="43.896804478694406" lon="12.288324815350121"><ele>277.4</ele><time>2026-04-26T07:13:28.028Z</time></trkpt><trkpt lat="43.89672595156355" lon="12.288253953521568"><ele>276.8</ele><time>2026-04-26T07:13:29.028Z</time></trkpt><trkpt lat="43.89663204883632" lon="12.28816988062495"><ele>276.2</ele><time>2026-04-26T07:13:30.028Z</time></trkpt><trkpt lat="43.89654311762694" lon="12.288091204244623"><ele>275.6</ele><time>2026-04-26T07:13:31.028Z</time></trkpt><trkpt lat="43.89646065626532" lon="12.288019491305052"><ele>275.0</ele><time>2026-04-26T07:13:32.028Z</time></trkpt><trkpt lat="43.89636875550894" lon="12.287940906160484"><ele>276.5</ele><time>2026-04-26T07:13:33.028Z</time></trkpt><trkpt lat="43.89627602792044" lon="12.287862010073084"><ele>278.0</ele><time>2026-04-26T07:13:34.028Z</time></trkpt><trkpt lat="43.896180199931436" lon="12.287778015279232"><ele>279.5</ele><time>2026-04-26T07:13:35.028Z</time></trkpt><trkpt lat="43.89607663946452" lon="12.287680859602057"><ele>281.0</ele><time>2026-04-26T07:13:36.028Z</time></trkpt><trkpt lat="43.89597186466903" lon="12.287601554258424"><ele>281.25</ele><time>2026-04-26T07:13:37.028Z</time></trkpt><trkpt lat="43.895859313487186" lon="12.28756604594552"><ele>281.5</ele><time>2026-04-26T07:13:38.028Z</time></trkpt><trkpt lat="43.8957537727392" lon="12.28752634855682"><ele>281.75</ele><time>2026-04-26T07:13:39.028Z</time></trkpt><trkpt lat="43.89563343238942" lon="12.287538575095176"><ele>282.0</ele><time>2026-04-26T07:13:40.028Z</time></trkpt><trkpt lat="43.89551976219503" lon="12.28760083637674"><ele>282.0</ele><time>2026-04-26T07:13:41.028Z</time></trkpt><trkpt lat="43.895432964361596" lon="12.287699107668706"><ele>282.0</ele><time>2026-04-26T07:13:42.028Z</time></trkpt><trkpt lat="43.89533229284835" lon="12.287819286098237"><ele>282.0</ele><time>2026-04-26T07:13:43.028Z</time></trkpt><trkpt lat="43.89524004527683" lon="12.287942750227623"><ele>282.0</ele><time>2026-04-26T07:13:44.028Z</time></trkpt><trkpt lat="43.895155532171046" lon="12.288093343350134"><ele>283.2</ele><time>2026-04-26T07:13:45.028Z</time></trkpt><trkpt lat="43.895085623443386" lon="12.288213249655186"><ele>284.4</ele><time>2026-04-26T07:13:46.028Z</time></trkpt><trkpt lat="43.895042083829196" lon="12.288354549749135"><ele>285.6</ele><time>2026-04-26T07:13:47.028Z</time></trkpt><trkpt lat="43.895002999138306" lon="12.288476283408759"><ele>286.8</ele><time>2026-04-26T07:13:48.028Z</time></trkpt><trkpt lat="43.894973122299724" lon="12.288574445742126"><ele>288.0</ele><time>2026-04-26T07:13:49.028Z</time></trkpt><trkpt lat="43.89492690764407" lon="12.288674601226264"><ele>288.0</ele><time>2026-04-26T07:13:50.029Z</time></trkpt><trkpt lat="43.894870754777244" lon="12.288772720099082"><ele>288.0</ele><time>2026-04-26T07:13:51.029Z</time></trkpt><trkpt lat="43.894792170508815" lon="12.28889372649072"><ele>288.0</ele><time>2026-04-26T07:13:52.029Z</time></trkpt><trkpt lat="43.89470338569029" lon="12.288995187810107"><ele>288.0</ele><time>2026-04-26T07:13:53.029Z</time></trkpt><trkpt lat="43.89459988029392" lon="12.28908839485218"><ele>288.0</ele><time>2026-04-26T07:13:54.029Z</time></trkpt><trkpt lat="43.894484815277245" lon="12.289164345302765"><ele>287.75</ele><time>2026-04-26T07:13:55.029Z</time></trkpt><trkpt lat="43.8943510989238" lon="12.289201655378012"><ele>287.5</ele><time>2026-04-26T07:13:56.029Z</time></trkpt><trkpt lat="43.894211184095454" lon="12.289230312069895"><ele>287.25</ele><time>2026-04-26T07:13:57.029Z</time></trkpt><trkpt lat="43.89406916128233" lon="12.289263864585322"><ele>287.0</ele><time>2026-04-26T07:13:58.029Z</time></trkpt><trkpt lat="43.8939327634319" lon="12.289299440468389"><ele>287.75</ele><time>2026-04-26T07:13:59.029Z</time></trkpt><trkpt lat="43.89379964699632" lon="12.289335371074124"><ele>288.5</ele><time>2026-04-26T07:14:00.029Z</time></trkpt><trkpt lat="43.893678982151656" lon="12.289369411230867"><ele>289.25</ele><time>2026-04-26T07:14:01.029Z</time></trkpt><trkpt lat="43.893571097604344" lon="12.289387925364467"><ele>290.0</ele><time>2026-04-26T07:14:02.029Z</time></trkpt><trkpt lat="43.893475608866716" lon="12.289409265504595"><ele>290.6</ele><time>2026-04-26T07:14:03.029Z</time></trkpt><trkpt lat="43.89339698108799" lon="12.289426524624504"><ele>291.2</ele><time>2026-04-26T07:14:04.029Z</time></trkpt><trkpt lat="43.893289248846756" lon="12.289446298743687"><ele>291.8</ele><time>2026-04-26T07:14:06.029Z</time></trkpt><trkpt lat="43.89321869517292" lon="12.289459291847688"><ele>292.4</ele><time>2026-04-26T07:14:08.029Z</time></trkpt><trkpt lat="43.8931618656854" lon="12.28951614980072"><ele>293.0</ele><time>2026-04-26T07:14:12.029Z</time></trkpt><trkpt lat="43.89299196840809" lon="12.289509232768282"><ele>293.0</ele><time>2026-04-26T07:14:29.029Z</time></trkpt><trkpt lat="43.89291451092634" lon="12.289501477042023"><ele>293.0</ele><time>2026-04-26T07:14:30.029Z</time></trkpt><trkpt lat="43.89284795410148" lon="12.28942490926409"><ele>293.0</ele><time>2026-04-26T07:14:31.029Z</time></trkpt><trkpt lat="43.892777635394516" lon="12.289399762867323"><ele>293.0</ele><time>2026-04-26T07:14:32.029Z</time></trkpt><trkpt lat="43.892685438923536" lon="12.289367329710954"><ele>293.0</ele><time>2026-04-26T07:14:33.029Z</time></trkpt><trkpt lat="43.89258153656327" lon="12.289332334181125"><ele>293.0</ele><time>2026-04-26T07:14:34.029Z</time></trkpt><trkpt lat="43.892466944510915" lon="12.289293294986571"><ele>293.0</ele><time>2026-04-26T07:14:35.029Z</time></trkpt><trkpt lat="43.8923483439498" lon="12.289251748162613"><ele>293.0</ele><time>2026-04-26T07:14:36.029Z</time></trkpt><trkpt lat="43.89222944256544" lon="12.289209955029566"><ele>293.0</ele><time>2026-04-26T07:14:37.029Z</time></trkpt><trkpt lat="43.89211426293333" lon="12.28916947004188"><ele>293.0</ele><time>2026-04-26T07:14:38.029Z</time></trkpt><trkpt lat="43.89197846110396" lon="12.289145080425815"><ele>293.0</ele><time>2026-04-26T07:14:39.029Z</time></trkpt><trkpt lat="43.891857346275415" lon="12.289097513844242"><ele>293.0</ele><time>2026-04-26T07:14:40.029Z</time></trkpt><trkpt lat="43.891725964920404" lon="12.289056717114448"><ele>293.0</ele><time>2026-04-26T07:14:41.029Z</time></trkpt><trkpt lat="43.89159835537497" lon="12.28901651743158"><ele>293.0</ele><time>2026-04-26T07:14:42.029Z</time></trkpt><trkpt lat="43.89146118466679" lon="12.288973218647369"><ele>294.5</ele><time>2026-04-26T07:14:43.029Z</time></trkpt><trkpt lat="43.89134017648006" lon="12.288919556740264"><ele>296.0</ele><time>2026-04-26T07:14:44.029Z</time></trkpt><trkpt lat="43.891209411855364" lon="12.28885508610341"><ele>297.5</ele><time>2026-04-26T07:14:45.029Z</time></trkpt><trkpt lat="43.89108058706031" lon="12.2888088467341"><ele>299.0</ele><time>2026-04-26T07:14:46.029Z</time></trkpt><trkpt lat="43.89094763550166" lon="12.28875559805034"><ele>298.0</ele><time>2026-04-26T07:14:47.029Z</time></trkpt><trkpt lat="43.89081223780339" lon="12.288705181847634"><ele>297.0</ele><time>2026-04-26T07:14:48.029Z</time></trkpt><trkpt lat="43.890678004337595" lon="12.28865164923777"><ele>296.0</ele><time>2026-04-26T07:14:49.029Z</time></trkpt><trkpt lat="43.890545343355946" lon="12.288602169179617"><ele>295.0</ele><time>2026-04-26T07:14:50.029Z</time></trkpt><trkpt lat="43.890414090085415" lon="12.288546254885894"><ele>295.0</ele><time>2026-04-26T07:14:51.029Z</time></trkpt><trkpt lat="43.890270546955726" lon="12.288506838808209"><ele>295.0</ele><time>2026-04-26T07:14:52.029Z</time></trkpt><trkpt lat="43.890132819058245" lon="12.288457600708767"><ele>295.0</ele><time>2026-04-26T07:14:53.029Z</time></trkpt><trkpt lat="43.88998682613319" lon="12.288405949271203"><ele>295.0</ele><time>2026-04-26T07:14:54.029Z</time></trkpt><trkpt lat="43.88983899198146" lon="12.288348923474906"><ele>293.3333333333333</ele><time>2026-04-26T07:14:55.029Z</time></trkpt><trkpt lat="43.88969146533002" lon="12.288286225906983"><ele>291.6666666666667</ele><time>2026-04-26T07:14:56.029Z</time></trkpt><trkpt lat="43.88954294421699" lon="12.28823651583923"><ele>290.0</ele><time>2026-04-26T07:14:56.973Z</time></trkpt><trkpt lat="43.88939290692423" lon="12.28818806933256"><ele>290.25</ele><time>2026-04-26T07:14:57.972Z</time></trkpt><trkpt lat="43.889246440243994" lon="12.28813512913561"><ele>290.5</ele><time>2026-04-26T07:14:58.973Z</time></trkpt><trkpt lat="43.88910975822597" lon="12.288074377590382"><ele>290.75</ele><time>2026-04-26T07:14:59.973Z</time></trkpt><trkpt lat="43.88897458642452" lon="12.288025640734853"><ele>291.0</ele><time>2026-04-26T07:15:00.973Z</time></trkpt><trkpt lat="43.88885163609685" lon="12.287968601466472"><ele>291.0</ele><time>2026-04-26T07:15:01.973Z</time></trkpt><trkpt lat="43.888733591221836" lon="12.287903034187423"><ele>291.0</ele><time>2026-04-26T07:15:02.973Z</time></trkpt><trkpt lat="43.88862421580679" lon="12.287794999430915"><ele>291.0</ele><time>2026-04-26T07:15:03.973Z</time></trkpt><trkpt lat="43.8885336935371" lon="12.287659551381394"><ele>291.0</ele><time>2026-04-26T07:15:04.972Z</time></trkpt><trkpt lat="43.888469973370846" lon="12.287508680312483"><ele>291.0</ele><time>2026-04-26T07:15:05.972Z</time></trkpt><trkpt lat="43.88843124966136" lon="12.287351606526165"><ele>291.0</ele><time>2026-04-26T07:15:06.973Z</time></trkpt><trkpt lat="43.888406901410306" lon="12.287197384816851"><ele>291.0</ele><time>2026-04-26T07:15:07.972Z</time></trkpt><trkpt lat="43.88841115925248" lon="12.28706437631198"><ele>291.0</ele><time>2026-04-26T07:15:08.972Z</time></trkpt><trkpt lat="43.888407836086294" lon="12.286921779048088"><ele>291.0</ele><time>2026-04-26T07:15:09.973Z</time></trkpt><trkpt lat="43.88838206294565" lon="12.286753827361007"><ele>290.0</ele><time>2026-04-26T07:15:10.973Z</time></trkpt><trkpt lat="43.88832478464319" lon="12.286570742736199"><ele>289.0</ele><time>2026-04-26T07:15:11.973Z</time></trkpt><trkpt lat="43.88823973869174" lon="12.286395161764228"><ele>288.0</ele><time>2026-04-26T07:15:12.973Z</time></trkpt><trkpt lat="43.888142984203135" lon="12.28623972240355"><ele>287.0</ele><time>2026-04-26T07:15:13.973Z</time></trkpt><trkpt lat="43.888034334092495" lon="12.286088621054388"><ele>287.0</ele><time>2026-04-26T07:15:14.973Z</time></trkpt><trkpt lat="43.8879208557251" lon="12.2859429057884"><ele>287.0</ele><time>2026-04-26T07:15:15.973Z</time></trkpt><trkpt lat="43.88780998447925" lon="12.285801588005063"><ele>287.0</ele><time>2026-04-26T07:15:16.973Z</time></trkpt><trkpt lat="43.88770908755614" lon="12.285671486670566"><ele>287.0</ele><time>2026-04-26T07:15:17.973Z</time></trkpt><trkpt lat="43.88761813815537" lon="12.285556894244857"><ele>288.25</ele><time>2026-04-26T07:15:18.973Z</time></trkpt><trkpt lat="43.88753237018638" lon="12.285456622023885"><ele>289.5</ele><time>2026-04-26T07:15:19.973Z</time></trkpt><trkpt lat="43.8874257211635" lon="12.285390174390141"><ele>290.75</ele><time>2026-04-26T07:15:20.973Z</time></trkpt><trkpt lat="43.88730547425718" lon="12.285371981004213"><ele>292.0</ele><time>2026-04-26T07:15:21.973Z</time></trkpt><trkpt lat="43.88716848228991" lon="12.285379459348494"><ele>292.0</ele><time>2026-04-26T07:15:22.973Z</time></trkpt><trkpt lat="43.88702196243836" lon="12.285408225730766"><ele>292.0</ele><time>2026-04-26T07:15:23.973Z</time></trkpt><trkpt lat="43.88688949806429" lon="12.285440914306571"><ele>292.0</ele><time>2026-04-26T07:15:24.973Z</time></trkpt><trkpt lat="43.88676041535174" lon="12.285448125298924"><ele>292.0</ele><time>2026-04-26T07:15:25.973Z</time></trkpt><trkpt lat="43.88664897989613" lon="12.285404539416454"><ele>292.25</ele><time>2026-04-26T07:15:26.973Z</time></trkpt><trkpt lat="43.88653290542927" lon="12.285330441245657"><ele>292.5</ele><time>2026-04-26T07:15:27.973Z</time></trkpt><trkpt lat="43.88642229929439" lon="12.285203525610623"><ele>292.75</ele><time>2026-04-26T07:15:28.973Z</time></trkpt><trkpt lat="43.88630822254857" lon="12.2850619216219"><ele>293.0</ele><time>2026-04-26T07:15:29.973Z</time></trkpt><trkpt lat="43.88619680581402" lon="12.28494438313713"><ele>293.0</ele><time>2026-04-26T07:15:30.973Z</time></trkpt><trkpt lat="43.88610932811454" lon="12.284807924374352"><ele>293.0</ele><time>2026-04-26T07:15:31.973Z</time></trkpt><trkpt lat="43.88600716047643" lon="12.284692439980258"><ele>293.0</ele><time>2026-04-26T07:15:32.973Z</time></trkpt><trkpt lat="43.88588658348928" lon="12.28462913468045"><ele>293.0</ele><time>2026-04-26T07:15:33.973Z</time></trkpt><trkpt lat="43.885754662978954" lon="12.28457828257823"><ele>295.0</ele><time>2026-04-26T07:15:34.973Z</time></trkpt><trkpt lat="43.885617171580975" lon="12.284556098914555"><ele>297.0</ele><time>2026-04-26T07:15:35.973Z</time></trkpt><trkpt lat="43.88548594999617" lon="12.284558768816977"><ele>299.0</ele><time>2026-04-26T07:15:36.973Z</time></trkpt><trkpt lat="43.88539880650041" lon="12.28451000709473"><ele>301.0</ele><time>2026-04-26T07:15:37.973Z</time></trkpt><trkpt lat="43.88530413558412" lon="12.284484305176738"><ele>301.0</ele><time>2026-04-26T07:15:38.973Z</time></trkpt><trkpt lat="43.88522048596134" lon="12.284420148211485"><ele>301.0</ele><time>2026-04-26T07:15:39.973Z</time></trkpt><trkpt lat="43.88515484871636" lon="12.28430713944622"><ele>301.0</ele><time>2026-04-26T07:15:40.973Z</time></trkpt><trkpt lat="43.88509791647014" lon="12.284168679346301"><ele>301.0</ele><time>2026-04-26T07:15:41.973Z</time></trkpt><trkpt lat="43.88505756860778" lon="12.284006564778919"><ele>301.0</ele><time>2026-04-26T07:15:42.973Z</time></trkpt><trkpt lat="43.88500637639911" lon="12.283834229636337"><ele>303.75</ele><time>2026-04-26T07:15:43.973Z</time></trkpt><trkpt lat="43.88493505951936" lon="12.283673504545414"><ele>306.5</ele><time>2026-04-26T07:15:44.973Z</time></trkpt><trkpt lat="43.88484232180535" lon="12.283525163915389"><ele>309.25</ele><time>2026-04-26T07:15:45.973Z</time></trkpt><trkpt lat="43.884721709297175" lon="12.28339947285143"><ele>312.0</ele><time>2026-04-26T07:15:46.973Z</time></trkpt><trkpt lat="43.8845754970922" lon="12.283310182779823"><ele>312.0</ele><time>2026-04-26T07:15:47.973Z</time></trkpt><trkpt lat="43.88443695273288" lon="12.283250502669489"><ele>312.0</ele><time>2026-04-26T07:15:48.973Z</time></trkpt><trkpt lat="43.88430141258329" lon="12.283190643700657"><ele>312.0</ele><time>2026-04-26T07:15:49.973Z</time></trkpt><trkpt lat="43.88417749079111" lon="12.283152424217198"><ele>312.0</ele><time>2026-04-26T07:15:50.973Z</time></trkpt><trkpt lat="43.88405157668156" lon="12.283103217576027"><ele>311.75</ele><time>2026-04-26T07:15:51.973Z</time></trkpt><trkpt lat="43.88391497468353" lon="12.283068178427353"><ele>311.5</ele><time>2026-04-26T07:15:52.973Z</time></trkpt><trkpt lat="43.8837924307681" lon="12.283047078933603"><ele>311.25</ele><time>2026-04-26T07:15:53.973Z</time></trkpt><trkpt lat="43.883649399274276" lon="12.283092293533938"><ele>311.0</ele><time>2026-04-26T07:15:54.973Z</time></trkpt><trkpt lat="43.8835101296784" lon="12.2831673179419"><ele>313.0</ele><time>2026-04-26T07:15:55.973Z</time></trkpt><trkpt lat="43.88338085241175" lon="12.283273760085494"><ele>315.0</ele><time>2026-04-26T07:15:56.973Z</time></trkpt><trkpt lat="43.88325321318407" lon="12.283371305065305"><ele>317.0</ele><time>2026-04-26T07:15:57.973Z</time></trkpt><trkpt lat="43.883126048212254" lon="12.28347167287794"><ele>319.0</ele><time>2026-04-26T07:15:58.973Z</time></trkpt><trkpt lat="43.8829953428645" lon="12.283574386474715"><ele>319.0</ele><time>2026-04-26T07:15:59.973Z</time></trkpt><trkpt lat="43.88285956975574" lon="12.283627052290646"><ele>319.0</ele><time>2026-04-26T07:16:00.973Z</time></trkpt><trkpt lat="43.88273765106052" lon="12.283719871505765"><ele>319.0</ele><time>2026-04-26T07:16:01.973Z</time></trkpt><trkpt lat="43.882609603232225" lon="12.28379218423192"><ele>319.0</ele><time>2026-04-26T07:16:02.973Z</time></trkpt><trkpt lat="43.88247260246209" lon="12.283818824560015"><ele>321.75</ele><time>2026-04-26T07:16:03.973Z</time></trkpt><trkpt lat="43.88233392390057" lon="12.283844798981308"><ele>324.5</ele><time>2026-04-26T07:16:04.973Z</time></trkpt><trkpt lat="43.88219045365447" lon="12.283844558434616"><ele>327.25</ele><time>2026-04-26T07:16:05.973Z</time></trkpt><trkpt lat="43.88204774149557" lon="12.283838992959977"><ele>330.0</ele><time>2026-04-26T07:16:06.973Z</time></trkpt><trkpt lat="43.88190949737293" lon="12.283811538372941"><ele>330.0</ele><time>2026-04-26T07:16:07.973Z</time></trkpt><trkpt lat="43.88177307799764" lon="12.283767436522774"><ele>330.0</ele><time>2026-04-26T07:16:08.973Z</time></trkpt><trkpt lat="43.88164855867553" lon="12.283677926022506"><ele>330.0</ele><time>2026-04-26T07:16:09.973Z</time></trkpt><trkpt lat="43.881545285277106" lon="12.283536195627446"><ele>330.0</ele><time>2026-04-26T07:16:10.973Z</time></trkpt><trkpt lat="43.88143383479913" lon="12.283382640872489"><ele>329.0</ele><time>2026-04-26T07:16:11.973Z</time></trkpt><trkpt lat="43.88132923473883" lon="12.283202500170598"><ele>328.0</ele><time>2026-04-26T07:16:12.973Z</time></trkpt><trkpt lat="43.881215843217504" lon="12.283021206554292"><ele>327.0</ele><time>2026-04-26T07:16:13.973Z</time></trkpt><trkpt lat="43.88109563187727" lon="12.282848188549714"><ele>324.6666666666667</ele><time>2026-04-26T07:16:14.973Z</time></trkpt><trkpt lat="43.88098582240033" lon="12.282667812190136"><ele>322.33333333333337</ele><time>2026-04-26T07:16:15.973Z</time></trkpt><trkpt lat="43.88087741340084" lon="12.282492268394211"><ele>320.0</ele><time>2026-04-26T07:16:16.973Z</time></trkpt><trkpt lat="43.88077205297925" lon="12.282331122786893"><ele>326.33333333333337</ele><time>2026-04-26T07:16:17.973Z</time></trkpt><trkpt lat="43.8806725740919" lon="12.28215701610321"><ele>332.6666666666667</ele><time>2026-04-26T07:16:18.973Z</time></trkpt><trkpt lat="43.88056760838802" lon="12.281997926486502"><ele>339.0</ele><time>2026-04-26T07:16:19.973Z</time></trkpt><trkpt lat="43.880443099723735" lon="12.28186408617745"><ele>339.0</ele><time>2026-04-26T07:16:20.973Z</time></trkpt><trkpt lat="43.88029291016771" lon="12.281767819907698"><ele>339.0</ele><time>2026-04-26T07:16:21.973Z</time></trkpt><trkpt lat="43.88013389697327" lon="12.28168487582932"><ele>339.0</ele><time>2026-04-26T07:16:22.973Z</time></trkpt><trkpt lat="43.87996264654203" lon="12.281619258660172"><ele>340.3333333333333</ele><time>2026-04-26T07:16:23.973Z</time></trkpt><trkpt lat="43.879787135146664" lon="12.281555085402957"><ele>341.66666666666663</ele><time>2026-04-26T07:16:24.973Z</time></trkpt><trkpt lat="43.87960370080047" lon="12.28149326044085"><ele>343.0</ele><time>2026-04-26T07:16:25.973Z</time></trkpt><trkpt lat="43.879422149550784" lon="12.281417158642537"><ele>339.66666666666663</ele><time>2026-04-26T07:16:26.973Z</time></trkpt><trkpt lat="43.879255071074404" lon="12.28134598736529"><ele>336.3333333333333</ele><time>2026-04-26T07:16:27.973Z</time></trkpt><trkpt lat="43.879090795759645" lon="12.281271874910102"><ele>333.0</ele><time>2026-04-26T07:16:28.973Z</time></trkpt><trkpt lat="43.87892047569646" lon="12.281213849815902"><ele>333.0</ele><time>2026-04-26T07:16:29.973Z</time></trkpt><trkpt lat="43.87875784213548" lon="12.281143319289969"><ele>333.0</ele><time>2026-04-26T07:16:30.973Z</time></trkpt><trkpt lat="43.87859769906173" lon="12.281032846670373"><ele>333.0</ele><time>2026-04-26T07:16:31.973Z</time></trkpt><trkpt lat="43.87843437811884" lon="12.280918632389142"><ele>335.0</ele><time>2026-04-26T07:16:32.973Z</time></trkpt><trkpt lat="43.87826964131034" lon="12.280826665546428"><ele>337.0</ele><time>2026-04-26T07:16:33.973Z</time></trkpt><trkpt lat="43.87812677647642" lon="12.280699613726844"><ele>339.0</ele><time>2026-04-26T07:16:34.973Z</time></trkpt><trkpt lat="43.87798538472242" lon="12.280598939861333"><ele>339.0</ele><time>2026-04-26T07:16:35.973Z</time></trkpt><trkpt lat="43.87785188017981" lon="12.280508069240497"><ele>339.0</ele><time>2026-04-26T07:16:36.973Z</time></trkpt><trkpt lat="43.87771709907984" lon="12.28042791192768"><ele>339.0</ele><time>2026-04-26T07:16:37.973Z</time></trkpt><trkpt lat="43.877567904464954" lon="12.280378922612677"><ele>339.0</ele><time>2026-04-26T07:16:38.973Z</time></trkpt><trkpt lat="43.87741124466413" lon="12.280370735125501"><ele>333.75</ele><time>2026-04-26T07:16:39.973Z</time></trkpt><trkpt lat="43.87725536246334" lon="12.280398110864056"><ele>328.5</ele><time>2026-04-26T07:16:40.973Z</time></trkpt><trkpt lat="43.877121712536876" lon="12.280473425081723"><ele>323.25</ele><time>2026-04-26T07:16:41.973Z</time></trkpt><trkpt lat="43.87701641379577" lon="12.28059902615723"><ele>318.0</ele><time>2026-04-26T07:16:42.973Z</time></trkpt><trkpt lat="43.876948337973715" lon="12.280770485635092"><ele>315.0</ele><time>2026-04-26T07:16:43.973Z</time></trkpt><trkpt lat="43.876923036425374" lon="12.280971792432695"><ele>312.0</ele><time>2026-04-26T07:16:44.973Z</time></trkpt><trkpt lat="43.87691978310999" lon="12.281180862077532"><ele>309.0</ele><time>2026-04-26T07:16:45.973Z</time></trkpt><trkpt lat="43.87687341842393" lon="12.281369494763966"><ele>306.0</ele><time>2026-04-26T07:16:46.973Z</time></trkpt><trkpt lat="43.87677237694332" lon="12.28151977792497"><ele>305.0</ele><time>2026-04-26T07:16:47.973Z</time></trkpt><trkpt lat="43.87664090538678" lon="12.281659700042981"><ele>304.0</ele><time>2026-04-26T07:16:48.973Z</time></trkpt><trkpt lat="43.87649179200373" lon="12.28179392566082"><ele>303.0</ele><time>2026-04-26T07:16:49.973Z</time></trkpt><trkpt lat="43.876351614727184" lon="12.281948157460747"><ele>303.0</ele><time>2026-04-26T07:16:50.973Z</time></trkpt><trkpt lat="43.8762253503412" lon="12.282135525227716"><ele>303.0</ele><time>2026-04-26T07:16:51.973Z</time></trkpt><trkpt lat="43.87612840288386" lon="12.282355855193257"><ele>303.0</ele><time>2026-04-26T07:16:52.973Z</time></trkpt><trkpt lat="43.87606047241145" lon="12.282580410549974"><ele>302.75</ele><time>2026-04-26T07:16:53.973Z</time></trkpt><trkpt lat="43.87600247772946" lon="12.28276777308451"><ele>302.5</ele><time>2026-04-26T07:16:54.973Z</time></trkpt><trkpt lat="43.8759386196914" lon="12.282922791162315"><ele>302.25</ele><time>2026-04-26T07:16:55.973Z</time></trkpt><trkpt lat="43.87585866515141" lon="12.283047371334218"><ele>302.0</ele><time>2026-04-26T07:16:56.973Z</time></trkpt><trkpt lat="43.87575307071226" lon="12.283114989903458"><ele>301.0</ele><time>2026-04-26T07:16:57.973Z</time></trkpt><trkpt lat="43.8756351931287" lon="12.283108019459444"><ele>300.0</ele><time>2026-04-26T07:16:58.973Z</time></trkpt><trkpt lat="43.875524445729646" lon="12.283007785040287"><ele>299.0</ele><time>2026-04-26T07:16:59.973Z</time></trkpt><trkpt lat="43.875415748350854" lon="12.282890591960197"><ele>298.0</ele><time>2026-04-26T07:17:00.973Z</time></trkpt><trkpt lat="43.875264637351506" lon="12.282738838147592"><ele>300.66666666666663</ele><time>2026-04-26T07:17:01.973Z</time></trkpt><trkpt lat="43.87512795197211" lon="12.282593180725533"><ele>303.3333333333333</ele><time>2026-04-26T07:17:02.972Z</time></trkpt><trkpt lat="43.87496750964092" lon="12.282514676502416"><ele>306.0</ele><time>2026-04-26T07:17:03.971Z</time></trkpt><trkpt lat="43.87479375919142" lon="12.282495916641064"><ele>306.3333333333333</ele><time>2026-04-26T07:17:04.971Z</time></trkpt><trkpt lat="43.87460490778541" lon="12.282527075222353"><ele>306.66666666666663</ele><time>2026-04-26T07:17:05.972Z</time></trkpt><trkpt lat="43.87441777229958" lon="12.28256235091128"><ele>307.0</ele><time>2026-04-26T07:17:06.971Z</time></trkpt><trkpt lat="43.87422983112153" lon="12.28257617476723"><ele>305.0</ele><time>2026-04-26T07:17:07.971Z</time></trkpt><trkpt lat="43.8740333900322" lon="12.282588824555225"><ele>303.0</ele><time>2026-04-26T07:17:08.972Z</time></trkpt><trkpt lat="43.87384401533861" lon="12.28261994331834"><ele>301.0</ele><time>2026-04-26T07:17:09.971Z</time></trkpt><trkpt lat="43.87365240678364" lon="12.282698763474851"><ele>301.0</ele><time>2026-04-26T07:17:10.971Z</time></trkpt><trkpt lat="43.87347889921354" lon="12.282815591341732"><ele>301.0</ele><time>2026-04-26T07:17:11.972Z</time></trkpt><trkpt lat="43.873320125618754" lon="12.282947057597298"><ele>301.0</ele><time>2026-04-26T07:17:12.971Z</time></trkpt><trkpt lat="43.87315978797466" lon="12.28306442500812"><ele>297.3333333333333</ele><time>2026-04-26T07:17:13.971Z</time></trkpt><trkpt lat="43.8729982590294" lon="12.283163999352002"><ele>293.6666666666667</ele><time>2026-04-26T07:17:14.972Z</time></trkpt><trkpt lat="43.872838014121015" lon="12.283246243724568"><ele>290.0</ele><time>2026-04-26T07:17:15.971Z</time></trkpt><trkpt lat="43.872677129110336" lon="12.283326249246711"><ele>290.0</ele><time>2026-04-26T07:17:16.971Z</time></trkpt><trkpt lat="43.87252325544815" lon="12.283388080948853"><ele>290.0</ele><time>2026-04-26T07:17:17.971Z</time></trkpt><trkpt lat="43.872374622853094" lon="12.283435199250697"><ele>290.0</ele><time>2026-04-26T07:17:18.971Z</time></trkpt><trkpt lat="43.87223576143496" lon="12.2834925586515"><ele>290.0</ele><time>2026-04-26T07:17:19.971Z</time></trkpt><trkpt lat="43.87210478622722" lon="12.283542001471183"><ele>290.0</ele><time>2026-04-26T07:17:20.971Z</time></trkpt><trkpt lat="43.87197564805404" lon="12.28359642302387"><ele>290.0</ele><time>2026-04-26T07:17:21.971Z</time></trkpt><trkpt lat="43.87185693764667" lon="12.28364681593344"><ele>290.0</ele><time>2026-04-26T07:17:22.97Z</time></trkpt><trkpt lat="43.87174104260139" lon="12.283696786908084"><ele>291.0</ele><time>2026-04-26T07:17:23.97Z</time></trkpt><trkpt lat="43.871627433265964" lon="12.283740392552149"><ele>292.0</ele><time>2026-04-26T07:17:24.97Z</time></trkpt><trkpt lat="43.87151155071683" lon="12.283773305539993"><ele>293.0</ele><time>2026-04-26T07:17:25.97Z</time></trkpt><trkpt lat="43.87139514983852" lon="12.283800608534348"><ele>294.0</ele><time>2026-04-26T07:17:26.97Z</time></trkpt><trkpt lat="43.87127860814519" lon="12.283836148028806"><ele>294.0</ele><time>2026-04-26T07:17:27.97Z</time></trkpt><trkpt lat="43.871156939299546" lon="12.28387170962166"><ele>294.0</ele><time>2026-04-26T07:17:28.97Z</time></trkpt><trkpt lat="43.871035232494904" lon="12.283906310916898"><ele>294.0</ele><time>2026-04-26T07:17:29.97Z</time></trkpt><trkpt lat="43.87091222217393" lon="12.283939764832443"><ele>294.0</ele><time>2026-04-26T07:17:30.97Z</time></trkpt><trkpt lat="43.87078348106838" lon="12.283974515748794"><ele>291.5</ele><time>2026-04-26T07:17:31.97Z</time></trkpt><trkpt lat="43.87065570592529" lon="12.284007532030918"><ele>289.0</ele><time>2026-04-26T07:17:32.969Z</time></trkpt><trkpt lat="43.87052509570369" lon="12.284035310226328"><ele>286.5</ele><time>2026-04-26T07:17:33.969Z</time></trkpt><trkpt lat="43.870385476978136" lon="12.284057591684151"><ele>284.0</ele><time>2026-04-26T07:17:34.969Z</time></trkpt><trkpt lat="43.87024276383483" lon="12.28407224664905"><ele>284.75</ele><time>2026-04-26T07:17:35.969Z</time></trkpt><trkpt lat="43.87010308874506" lon="12.284079739099774"><ele>285.5</ele><time>2026-04-26T07:17:36.969Z</time></trkpt><trkpt lat="43.86996915528094" lon="12.284085804625027"><ele>286.25</ele><time>2026-04-26T07:17:37.969Z</time></trkpt><trkpt lat="43.8698428134464" lon="12.284054503923615"><ele>287.0</ele><time>2026-04-26T07:17:38.969Z</time></trkpt><trkpt lat="43.86972131656573" lon="12.284054979154511"><ele>287.0</ele><time>2026-04-26T07:17:39.969Z</time></trkpt><trkpt lat="43.8695979433128" lon="12.284058865018242"><ele>287.0</ele><time>2026-04-26T07:17:40.969Z</time></trkpt><trkpt lat="43.86947677909396" lon="12.28406277556178"><ele>287.0</ele><time>2026-04-26T07:17:41.969Z</time></trkpt><trkpt lat="43.86936495413552" lon="12.284073817403982"><ele>287.0</ele><time>2026-04-26T07:17:42.969Z</time></trkpt><trkpt lat="43.86925957654836" lon="12.284085057710408"><ele>286.8</ele><time>2026-04-26T07:17:43.969Z</time></trkpt><trkpt lat="43.86915932726611" lon="12.284109142155478"><ele>286.6</ele><time>2026-04-26T07:17:44.969Z</time></trkpt><trkpt lat="43.869060204413294" lon="12.284101974871042"><ele>286.40000000000003</ele><time>2026-04-26T07:17:45.969Z</time></trkpt><trkpt lat="43.86895758299134" lon="12.284146437482926"><ele>286.2</ele><time>2026-04-26T07:17:46.969Z</time></trkpt><trkpt lat="43.86885249292667" lon="12.284212116429364"><ele>286.0</ele><time>2026-04-26T07:17:47.969Z</time></trkpt><trkpt lat="43.868755513956096" lon="12.284280750574176"><ele>286.0</ele><time>2026-04-26T07:17:48.969Z</time></trkpt><trkpt lat="43.86866526374759" lon="12.2843542070097"><ele>286.0</ele><time>2026-04-26T07:17:49.969Z</time></trkpt><trkpt lat="43.86857505695741" lon="12.284420460784675"><ele>286.0</ele><time>2026-04-26T07:17:50.969Z</time></trkpt><trkpt lat="43.86848265558817" lon="12.284485345332174"><ele>286.0</ele><time>2026-04-26T07:17:51.969Z</time></trkpt><trkpt lat="43.86838629969788" lon="12.284556160935676"><ele>286.0</ele><time>2026-04-26T07:17:52.969Z</time></trkpt><trkpt lat="43.86828822889366" lon="12.284627939693086"><ele>284.6</ele><time>2026-04-26T07:17:53.969Z</time></trkpt><trkpt lat="43.86818862940047" lon="12.284701191558483"><ele>283.20000000000005</ele><time>2026-04-26T07:17:54.969Z</time></trkpt><trkpt lat="43.868091652635876" lon="12.284766290359011"><ele>281.79999999999995</ele><time>2026-04-26T07:17:55.969Z</time></trkpt><trkpt lat="43.86799846517571" lon="12.284825435484404"><ele>280.4</ele><time>2026-04-26T07:17:56.969Z</time></trkpt><trkpt lat="43.86791026545301" lon="12.284882823413101"><ele>279.0</ele><time>2026-04-26T07:17:57.969Z</time></trkpt><trkpt lat="43.86782186411181" lon="12.284940016584708"><ele>278.59999999999997</ele><time>2026-04-26T07:17:58.969Z</time></trkpt><trkpt lat="43.867737442220474" lon="12.285001353327855"><ele>278.2</ele><time>2026-04-26T07:17:59.969Z</time></trkpt><trkpt lat="43.867647596263204" lon="12.2850653688725"><ele>277.79999999999995</ele><time>2026-04-26T07:18:00.968Z</time></trkpt><trkpt lat="43.86755761589674" lon="12.285121226899905"><ele>277.4</ele><time>2026-04-26T07:18:01.968Z</time></trkpt><trkpt lat="43.86746255328839" lon="12.28517249427959"><ele>277.0</ele><time>2026-04-26T07:18:02.968Z</time></trkpt><trkpt lat="43.86736233336526" lon="12.285194300434584"><ele>278.6</ele><time>2026-04-26T07:18:03.968Z</time></trkpt><trkpt lat="43.86725991175304" lon="12.28517380473375"><ele>280.2</ele><time>2026-04-26T07:18:04.968Z</time></trkpt><trkpt lat="43.86716870330624" lon="12.28510092178423"><ele>281.8</ele><time>2026-04-26T07:18:05.968Z</time></trkpt><trkpt lat="43.86708675379339" lon="12.285016307781571"><ele>283.4</ele><time>2026-04-26T07:18:06.968Z</time></trkpt><trkpt lat="43.86701250393211" lon="12.28492309268819"><ele>285.0</ele><time>2026-04-26T07:18:07.968Z</time></trkpt><trkpt lat="43.86696280775617" lon="12.284824211807392"><ele>285.3333333333333</ele><time>2026-04-26T07:18:08.968Z</time></trkpt><trkpt lat="43.86690569405009" lon="12.284746216373039"><ele>285.6666666666667</ele><time>2026-04-26T07:18:09.968Z</time></trkpt><trkpt lat="43.866865897366004" lon="12.284650370076703"><ele>286.0</ele><time>2026-04-26T07:18:10.968Z</time></trkpt><trkpt lat="43.86681246872643" lon="12.284571119561598"><ele>286.33333333333337</ele><time>2026-04-26T07:18:11.968Z</time></trkpt><trkpt lat="43.86675859379842" lon="12.284482915574976"><ele>286.6666666666667</ele><time>2026-04-26T07:18:12.968Z</time></trkpt><trkpt lat="43.86670552685797" lon="12.284396355530772"><ele>287.0</ele><time>2026-04-26T07:18:13.968Z</time></trkpt><trkpt lat="43.86664934459763" lon="12.284310041716221"><ele>287.0</ele><time>2026-04-26T07:18:14.968Z</time></trkpt><trkpt lat="43.86658862837021" lon="12.284218019003264"><ele>287.0</ele><time>2026-04-26T07:18:15.968Z</time></trkpt><trkpt lat="43.866523598246786" lon="12.284121146864234"><ele>287.0</ele><time>2026-04-26T07:18:16.968Z</time></trkpt><trkpt lat="43.866452053510294" lon="12.284003245649997"><ele>287.0</ele><time>2026-04-26T07:18:17.968Z</time></trkpt><trkpt lat="43.86636270732035" lon="12.283871196166867"><ele>287.0</ele><time>2026-04-26T07:18:18.968Z</time></trkpt><trkpt lat="43.86627247067136" lon="12.283741156664192"><ele>287.75</ele><time>2026-04-26T07:18:19.968Z</time></trkpt><trkpt lat="43.86618469589381" lon="12.283638947266416"><ele>288.5</ele><time>2026-04-26T07:18:20.968Z</time></trkpt><trkpt lat="43.86609348821992" lon="12.283547202956257"><ele>289.25</ele><time>2026-04-26T07:18:21.968Z</time></trkpt><trkpt lat="43.86599043823966" lon="12.283507057509977"><ele>290.0</ele><time>2026-04-26T07:18:22.968Z</time></trkpt><trkpt lat="43.865872414615936" lon="12.283506407581072"><ele>290.0</ele><time>2026-04-26T07:18:23.968Z</time></trkpt><trkpt lat="43.865768316669204" lon="12.283513625210709"><ele>290.0</ele><time>2026-04-26T07:18:24.968Z</time></trkpt><trkpt lat="43.865680612900725" lon="12.28355784413764"><ele>290.0</ele><time>2026-04-26T07:18:25.968Z</time></trkpt><trkpt lat="43.86559655968035" lon="12.283592957407254"><ele>290.0</ele><time>2026-04-26T07:18:26.968Z</time></trkpt><trkpt lat="43.86551508400242" lon="12.283632781265162"><ele>290.0</ele><time>2026-04-26T07:18:27.968Z</time></trkpt><trkpt lat="43.86544126922168" lon="12.283667618579228"><ele>290.0</ele><time>2026-04-26T07:18:28.968Z</time></trkpt><trkpt lat="43.86537710739286" lon="12.283688026035465"><ele>290.0</ele><time>2026-04-26T07:18:29.968Z</time></trkpt><trkpt lat="43.86524897639421" lon="12.283727952551285"><ele>290.0</ele><time>2026-04-26T07:18:31.968Z</time></trkpt><trkpt lat="43.86516853757758" lon="12.283734587762368"><ele>290.0</ele><time>2026-04-26T07:18:32.968Z</time></trkpt><trkpt lat="43.86509139424539" lon="12.283726532901"><ele>290.0</ele><time>2026-04-26T07:18:33.968Z</time></trkpt><trkpt lat="43.864998790875056" lon="12.283701778482529"><ele>290.0</ele><time>2026-04-26T07:18:34.968Z</time></trkpt><trkpt lat="43.864926133551" lon="12.283650326888488"><ele>291.5</ele><time>2026-04-26T07:18:35.968Z</time></trkpt><trkpt lat="43.86487027995978" lon="12.283600718856977"><ele>293.0</ele><time>2026-04-26T07:18:36.968Z</time></trkpt><trkpt lat="43.86480532097897" lon="12.283550578152473"><ele>294.5</ele><time>2026-04-26T07:18:37.968Z</time></trkpt><trkpt lat="43.86473206883888" lon="12.283491715524194"><ele>296.0</ele><time>2026-04-26T07:18:38.968Z</time></trkpt><trkpt lat="43.864656223066234" lon="12.283437818627185"><ele>297.5</ele><time>2026-04-26T07:18:39.968Z</time></trkpt><trkpt lat="43.86458572234861" lon="12.283402175690044"><ele>299.0</ele><time>2026-04-26T07:18:40.968Z</time></trkpt><trkpt lat="43.86450242021768" lon="12.283379837338298"><ele>299.0</ele><time>2026-04-26T07:18:41.968Z</time></trkpt><trkpt lat="43.86442410144202" lon="12.283377364666274"><ele>299.0</ele><time>2026-04-26T07:18:42.968Z</time></trkpt><trkpt lat="43.86433986037415" lon="12.2834034760076"><ele>299.0</ele><time>2026-04-26T07:18:43.968Z</time></trkpt><trkpt lat="43.864259610314846" lon="12.283468249804555"><ele>299.0</ele><time>2026-04-26T07:18:44.968Z</time></trkpt><trkpt lat="43.864186962983396" lon="12.283533276149255"><ele>299.0</ele><time>2026-04-26T07:18:45.968Z</time></trkpt><trkpt lat="43.864132428333136" lon="12.283604186040446"><ele>299.0</ele><time>2026-04-26T07:18:46.968Z</time></trkpt><trkpt lat="43.864074921875506" lon="12.283657673516862"><ele>300.6666666666667</ele><time>2026-04-26T07:18:47.968Z</time></trkpt><trkpt lat="43.864012187525354" lon="12.28371948483998"><ele>302.33333333333337</ele><time>2026-04-26T07:18:48.968Z</time></trkpt><trkpt lat="43.86394319264416" lon="12.283776905061739"><ele>304.0</ele><time>2026-04-26T07:18:49.968Z</time></trkpt><trkpt lat="43.86386628862783" lon="12.283802766510936"><ele>305.6666666666667</ele><time>2026-04-26T07:18:50.968Z</time></trkpt><trkpt lat="43.863788888299204" lon="12.283806559727227"><ele>307.3333333333333</ele><time>2026-04-26T07:18:51.968Z</time></trkpt><trkpt lat="43.8637172705035" lon="12.283794429410326"><ele>309.0</ele><time>2026-04-26T07:18:52.968Z</time></trkpt><trkpt lat="43.863651886086764" lon="12.283763325922779"><ele>309.0</ele><time>2026-04-26T07:18:53.968Z</time></trkpt><trkpt lat="43.863543056252915" lon="12.283646220117031"><ele>309.0</ele><time>2026-04-26T07:18:55.968Z</time></trkpt><trkpt lat="43.86348068402969" lon="12.283574764051844"><ele>309.0</ele><time>2026-04-26T07:18:56.968Z</time></trkpt><trkpt lat="43.8634252179541" lon="12.283491162610652"><ele>309.0</ele><time>2026-04-26T07:18:57.968Z</time></trkpt><trkpt lat="43.86335878492586" lon="12.283414126362885"><ele>309.0</ele><time>2026-04-26T07:18:58.968Z</time></trkpt><trkpt lat="43.863295036071214" lon="12.283333227543455"><ele>310.0</ele><time>2026-04-26T07:18:59.968Z</time></trkpt><trkpt lat="43.863231551201196" lon="12.283269789786008"><ele>311.0</ele><time>2026-04-26T07:19:00.968Z</time></trkpt><trkpt lat="43.863159781676856" lon="12.283211462153819"><ele>312.0</ele><time>2026-04-26T07:19:01.968Z</time></trkpt><trkpt lat="43.86307616154758" lon="12.28318713706977"><ele>313.0</ele><time>2026-04-26T07:19:02.968Z</time></trkpt><trkpt lat="43.8629861602239" lon="12.283162192770519"><ele>314.0</ele><time>2026-04-26T07:19:03.968Z</time></trkpt><trkpt lat="43.86288690490914" lon="12.283161536826631"><ele>315.0</ele><time>2026-04-26T07:19:04.968Z</time></trkpt><trkpt lat="43.86278556022316" lon="12.28317838217208"><ele>315.0</ele><time>2026-04-26T07:19:05.968Z</time></trkpt><trkpt lat="43.862673429093505" lon="12.283201735905354"><ele>315.0</ele><time>2026-04-26T07:19:06.968Z</time></trkpt><trkpt lat="43.862568682239235" lon="12.283253073992702"><ele>315.0</ele><time>2026-04-26T07:19:07.968Z</time></trkpt><trkpt lat="43.862465409632485" lon="12.283328440463706"><ele>315.0</ele><time>2026-04-26T07:19:08.968Z</time></trkpt><trkpt lat="43.862377258233344" lon="12.28340649761023"><ele>315.0</ele><time>2026-04-26T07:19:09.968Z</time></trkpt><trkpt lat="43.86230048432914" lon="12.283467346175458"><ele>315.1666666666667</ele><time>2026-04-26T07:19:10.968Z</time></trkpt><trkpt lat="43.86222870131431" lon="12.28352393431836"><ele>315.3333333333333</ele><time>2026-04-26T07:19:11.968Z</time></trkpt><trkpt lat="43.86214514876333" lon="12.283548894474253"><ele>315.5</ele><time>2026-04-26T07:19:12.968Z</time></trkpt><trkpt lat="43.86206550084426" lon="12.283586220829548"><ele>315.66666666666663</ele><time>2026-04-26T07:19:13.968Z</time></trkpt><trkpt lat="43.861979318799705" lon="12.28361947022293"><ele>315.8333333333333</ele><time>2026-04-26T07:19:14.968Z</time></trkpt><trkpt lat="43.86189219426454" lon="12.283644091574757"><ele>316.0</ele><time>2026-04-26T07:19:15.967Z</time></trkpt><trkpt lat="43.861807667846996" lon="12.283663466866058"><ele>315.5</ele><time>2026-04-26T07:19:16.967Z</time></trkpt><trkpt lat="43.86173149097668" lon="12.283666171708193"><ele>315.0</ele><time>2026-04-26T07:19:17.967Z</time></trkpt><trkpt lat="43.86165634373215" lon="12.28366962532887"><ele>314.5</ele><time>2026-04-26T07:19:18.968Z</time></trkpt><trkpt lat="43.86157922582249" lon="12.283627605338676"><ele>314.0</ele><time>2026-04-26T07:19:19.968Z</time></trkpt><trkpt lat="43.86150226321869" lon="12.283573246517523"><ele>313.5</ele><time>2026-04-26T07:19:20.968Z</time></trkpt><trkpt lat="43.86142307258125" lon="12.283509308742786"><ele>313.0</ele><time>2026-04-26T07:19:21.968Z</time></trkpt><trkpt lat="43.86134461767714" lon="12.283427222353613"><ele>313.0</ele><time>2026-04-26T07:19:22.968Z</time></trkpt><trkpt lat="43.861258965765124" lon="12.283324001701901"><ele>313.0</ele><time>2026-04-26T07:19:23.968Z</time></trkpt><trkpt lat="43.86116538076676" lon="12.28321796747997"><ele>313.0</ele><time>2026-04-26T07:19:24.968Z</time></trkpt><trkpt lat="43.861046571626794" lon="12.283101706200195"><ele>313.0</ele><time>2026-04-26T07:19:25.968Z</time></trkpt><trkpt lat="43.86092492465723" lon="12.28297722218223"><ele>312.0</ele><time>2026-04-26T07:19:26.968Z</time></trkpt><trkpt lat="43.860782633318266" lon="12.282837945448005"><ele>311.0</ele><time>2026-04-26T07:19:27.968Z</time></trkpt><trkpt lat="43.860634830517334" lon="12.282716568105208"><ele>310.0</ele><time>2026-04-26T07:19:28.968Z</time></trkpt><trkpt lat="43.860492567665524" lon="12.282578953246645"><ele>310.0</ele><time>2026-04-26T07:19:29.968Z</time></trkpt><trkpt lat="43.860350409184456" lon="12.28247437668907"><ele>310.0</ele><time>2026-04-26T07:19:30.968Z</time></trkpt><trkpt lat="43.8602201246555" lon="12.282378746310608"><ele>310.0</ele><time>2026-04-26T07:19:31.968Z</time></trkpt><trkpt lat="43.86010906329831" lon="12.282293722565537"><ele>310.0</ele><time>2026-04-26T07:19:32.968Z</time></trkpt><trkpt lat="43.860006605796954" lon="12.282207954049703"><ele>310.75</ele><time>2026-04-26T07:19:33.968Z</time></trkpt><trkpt lat="43.85990780082359" lon="12.2821136479146"><ele>311.5</ele><time>2026-04-26T07:19:34.968Z</time></trkpt><trkpt lat="43.85981537872169" lon="12.28201437466696"><ele>312.25</ele><time>2026-04-26T07:19:35.968Z</time></trkpt><trkpt lat="43.85972789251463" lon="12.281912472116082"><ele>313.0</ele><time>2026-04-26T07:19:36.968Z</time></trkpt><trkpt lat="43.85965562082292" lon="12.28181372737724"><ele>313.0</ele><time>2026-04-26T07:19:37.968Z</time></trkpt><trkpt lat="43.85957329380988" lon="12.281694054245971"><ele>313.0</ele><time>2026-04-26T07:19:38.968Z</time></trkpt><trkpt lat="43.859499249596126" lon="12.281573444397436"><ele>313.0</ele><time>2026-04-26T07:19:39.968Z</time></trkpt><trkpt lat="43.859429573194795" lon="12.281445514132566"><ele>313.0</ele><time>2026-04-26T07:19:40.968Z</time></trkpt><trkpt lat="43.85936452112373" lon="12.281313942633972"><ele>315.25</ele><time>2026-04-26T07:19:41.968Z</time></trkpt><trkpt lat="43.859301345441715" lon="12.281181376336662"><ele>317.5</ele><time>2026-04-26T07:19:42.968Z</time></trkpt><trkpt lat="43.85923736468658" lon="12.28104523420678"><ele>319.75</ele><time>2026-04-26T07:19:43.968Z</time></trkpt><trkpt lat="43.85916247456324" lon="12.28092374543245"><ele>322.0</ele><time>2026-04-26T07:19:44.968Z</time></trkpt><trkpt lat="43.85911043476867" lon="12.28078183352069"><ele>322.0</ele><time>2026-04-26T07:19:45.968Z</time></trkpt><trkpt lat="43.85904853321647" lon="12.280648403621386"><ele>322.0</ele><time>2026-04-26T07:19:46.968Z</time></trkpt><trkpt lat="43.85898963438087" lon="12.280520066629723"><ele>322.0</ele><time>2026-04-26T07:19:47.968Z</time></trkpt><trkpt lat="43.858923183216326" lon="12.280398222516295"><ele>322.0</ele><time>2026-04-26T07:19:48.968Z</time></trkpt><trkpt lat="43.85884958070946" lon="12.280285532134537"><ele>322.0</ele><time>2026-04-26T07:19:49.968Z</time></trkpt><trkpt lat="43.8587676460434" lon="12.280191949843388"><ele>321.8</ele><time>2026-04-26T07:19:50.967Z</time></trkpt><trkpt lat="43.85868676895486" lon="12.280110618625017"><ele>321.6</ele><time>2026-04-26T07:19:51.967Z</time></trkpt><trkpt lat="43.858599747631516" lon="12.280040050899833"><ele>321.40000000000003</ele><time>2026-04-26T07:19:52.967Z</time></trkpt><trkpt lat="43.8585127370413" lon="12.279978356193768"><ele>321.20000000000005</ele><time>2026-04-26T07:19:53.967Z</time></trkpt><trkpt lat="43.85841399754546" lon="12.279933990197453"><ele>321.0</ele><time>2026-04-26T07:19:54.967Z</time></trkpt><trkpt lat="43.85830705671563" lon="12.279910428515572"><ele>321.0</ele><time>2026-04-26T07:19:55.967Z</time></trkpt><trkpt lat="43.858190424054435" lon="12.279909002756716"><ele>321.0</ele><time>2026-04-26T07:19:56.967Z</time></trkpt><trkpt lat="43.85807022821253" lon="12.279911151322757"><ele>321.0</ele><time>2026-04-26T07:19:57.967Z</time></trkpt><trkpt lat="43.857929062724516" lon="12.279953485686136"><ele>321.0</ele><time>2026-04-26T07:19:58.967Z</time></trkpt><trkpt lat="43.85776807772799" lon="12.280021970437627"><ele>320.0</ele><time>2026-04-26T07:19:59.967Z</time></trkpt><trkpt lat="43.85758735365798" lon="12.280112335400343"><ele>319.0</ele><time>2026-04-26T07:20:00.967Z</time></trkpt><trkpt lat="43.85739845764299" lon="12.280214426040121"><ele>318.0</ele><time>2026-04-26T07:20:01.967Z</time></trkpt><trkpt lat="43.85720662279929" lon="12.280308157700006"><ele>318.0</ele><time>2026-04-26T07:20:02.967Z</time></trkpt><trkpt lat="43.856995425031954" lon="12.280397828703864"><ele>318.0</ele><time>2026-04-26T07:20:03.967Z</time></trkpt><trkpt lat="43.85677413378253" lon="12.28049074317335"><ele>317.6666666666667</ele><time>2026-04-26T07:20:04.967Z</time></trkpt><trkpt lat="43.85658241871784" lon="12.280563744429578"><ele>317.33333333333337</ele><time>2026-04-26T07:20:05.967Z</time></trkpt><trkpt lat="43.8564243753201" lon="12.280614782178933"><ele>317.0</ele><time>2026-04-26T07:20:06.967Z</time></trkpt><trkpt lat="43.856294532994454" lon="12.280672569564175"><ele>320.5</ele><time>2026-04-26T07:20:07.967Z</time></trkpt><trkpt lat="43.85619569876884" lon="12.280820367444099"><ele>324.0</ele><time>2026-04-26T07:20:08.967Z</time></trkpt><trkpt lat="43.85609496830672" lon="12.280963052360216"><ele>327.5</ele><time>2026-04-26T07:20:09.967Z</time></trkpt><trkpt lat="43.856027650689235" lon="12.281148341895115"><ele>331.0</ele><time>2026-04-26T07:20:10.967Z</time></trkpt><trkpt lat="43.855980949057255" lon="12.28137184541139"><ele>331.0</ele><time>2026-04-26T07:20:11.967Z</time></trkpt><trkpt lat="43.85594706100567" lon="12.281595960480669"><ele>331.0</ele><time>2026-04-26T07:20:12.967Z</time></trkpt><trkpt lat="43.85587851106258" lon="12.281790408583072"><ele>331.0</ele><time>2026-04-26T07:20:13.967Z</time></trkpt><trkpt lat="43.855767310770666" lon="12.28189687084994"><ele>331.0</ele><time>2026-04-26T07:20:14.967Z</time></trkpt><trkpt lat="43.855618055441894" lon="12.281972330190136"><ele>331.0</ele><time>2026-04-26T07:20:15.967Z</time></trkpt><trkpt lat="43.85544941731809" lon="12.282006556679333"><ele>331.0</ele><time>2026-04-26T07:20:16.967Z</time></trkpt><trkpt lat="43.85527345098858" lon="12.282028246718037"><ele>327.3333333333333</ele><time>2026-04-26T07:20:17.967Z</time></trkpt><trkpt lat="43.855087464029495" lon="12.282066916343966"><ele>323.6666666666667</ele><time>2026-04-26T07:20:18.967Z</time></trkpt><trkpt lat="43.85489292127946" lon="12.282125819415011"><ele>320.0</ele><time>2026-04-26T07:20:19.967Z</time></trkpt><trkpt lat="43.8547211494397" lon="12.282200382113185"><ele>321.5</ele><time>2026-04-26T07:20:20.967Z</time></trkpt><trkpt lat="43.85457116910961" lon="12.282278466844614"><ele>323.0</ele><time>2026-04-26T07:20:21.967Z</time></trkpt><trkpt lat="43.85444313600228" lon="12.282333553180477"><ele>324.5</ele><time>2026-04-26T07:20:22.967Z</time></trkpt><trkpt lat="43.85432476979044" lon="12.282354789605678"><ele>326.0</ele><time>2026-04-26T07:20:23.967Z</time></trkpt><trkpt lat="43.85421190508391" lon="12.282306799280862"><ele>325.0</ele><time>2026-04-26T07:20:24.967Z</time></trkpt><trkpt lat="43.854104758350175" lon="12.282198170004833"><ele>324.0</ele><time>2026-04-26T07:20:25.967Z</time></trkpt><trkpt lat="43.854011930855584" lon="12.2820516052609"><ele>323.0</ele><time>2026-04-26T07:20:26.967Z</time></trkpt><trkpt lat="43.85391803331014" lon="12.281885657815181"><ele>322.0</ele><time>2026-04-26T07:20:27.967Z</time></trkpt><trkpt lat="43.853851167914584" lon="12.281727562461596"><ele>322.0</ele><time>2026-04-26T07:20:28.967Z</time></trkpt><trkpt lat="43.85385083052621" lon="12.281561333134855"><ele>322.0</ele><time>2026-04-26T07:20:29.967Z</time></trkpt><trkpt lat="43.85388049847898" lon="12.281379147440711"><ele>322.0</ele><time>2026-04-26T07:20:30.967Z</time></trkpt><trkpt lat="43.853910073176515" lon="12.281159291969525"><ele>322.0</ele><time>2026-04-26T07:20:31.967Z</time></trkpt><trkpt lat="43.853943683719876" lon="12.280916645042828"><ele>321.66666666666663</ele><time>2026-04-26T07:20:32.967Z</time></trkpt><trkpt lat="43.85397707406237" lon="12.280680752031126"><ele>321.3333333333333</ele><time>2026-04-26T07:20:33.967Z</time></trkpt><trkpt lat="43.85400492303769" lon="12.280473457444403"><ele>321.0</ele><time>2026-04-26T07:20:34.967Z</time></trkpt><trkpt lat="43.85406303346646" lon="12.280292175720675"><ele>319.6666666666667</ele><time>2026-04-26T07:20:35.967Z</time></trkpt><trkpt lat="43.8541698590646" lon="12.280158024301548"><ele>318.33333333333337</ele><time>2026-04-26T07:20:36.967Z</time></trkpt><trkpt lat="43.854278840944566" lon="12.280007099926227"><ele>317.0</ele><time>2026-04-26T07:20:37.967Z</time></trkpt><trkpt lat="43.85440585895707" lon="12.279868847047812"><ele>318.5</ele><time>2026-04-26T07:20:38.967Z</time></trkpt><trkpt lat="43.85451468849194" lon="12.279737352541819"><ele>320.0</ele><time>2026-04-26T07:20:39.967Z</time></trkpt><trkpt lat="43.85460777137919" lon="12.279626054577518"><ele>321.5</ele><time>2026-04-26T07:20:40.967Z</time></trkpt><trkpt lat="43.8546929396031" lon="12.279538251963551"><ele>323.0</ele><time>2026-04-26T07:20:41.967Z</time></trkpt><trkpt lat="43.85475887152225" lon="12.279469787008747"><ele>323.0</ele><time>2026-04-26T07:20:42.967Z</time></trkpt><trkpt lat="43.85478989049605" lon="12.279372288633605"><ele>323.0</ele><time>2026-04-26T07:20:43.967Z</time></trkpt><trkpt lat="43.854781224041474" lon="12.279264704900964"><ele>323.0</ele><time>2026-04-26T07:20:44.967Z</time></trkpt><trkpt lat="43.85473504140944" lon="12.279137248394113"><ele>323.0</ele><time>2026-04-26T07:20:45.967Z</time></trkpt><trkpt lat="43.8546834224714" lon="12.278992812557048"><ele>323.0</ele><time>2026-04-26T07:20:46.967Z</time></trkpt><trkpt lat="43.85463752203686" lon="12.278806573535483"><ele>323.0</ele><time>2026-04-26T07:20:47.967Z</time></trkpt><trkpt lat="43.85460186349388" lon="12.278605934466958"><ele>323.0</ele><time>2026-04-26T07:20:48.967Z</time></trkpt><trkpt lat="43.85456682822775" lon="12.278389291103766"><ele>323.0</ele><time>2026-04-26T07:20:49.967Z</time></trkpt><trkpt lat="43.85451208072747" lon="12.278189080229952"><ele>324.0</ele><time>2026-04-26T07:20:50.967Z</time></trkpt><trkpt lat="43.85442442325335" lon="12.27801513084807"><ele>325.0</ele><time>2026-04-26T07:20:51.967Z</time></trkpt><trkpt lat="43.85430688081295" lon="12.27785464767874"><ele>326.0</ele><time>2026-04-26T07:20:52.967Z</time></trkpt><trkpt lat="43.85414654830282" lon="12.277718347166134"><ele>326.0</ele><time>2026-04-26T07:20:53.967Z</time></trkpt><trkpt lat="43.8539540532123" lon="12.277605959860166"><ele>326.0</ele><time>2026-04-26T07:20:54.967Z</time></trkpt><trkpt lat="43.85376910897541" lon="12.27747764912326"><ele>326.0</ele><time>2026-04-26T07:20:55.967Z</time></trkpt><trkpt lat="43.85360374636149" lon="12.277330470195885"><ele>326.6666666666667</ele><time>2026-04-26T07:20:56.967Z</time></trkpt><trkpt lat="43.85343969872561" lon="12.277180881388004"><ele>327.3333333333333</ele><time>2026-04-26T07:20:57.967Z</time></trkpt><trkpt lat="43.85327246987626" lon="12.27703368406752"><ele>328.0</ele><time>2026-04-26T07:20:58.967Z</time></trkpt><trkpt lat="43.853104726755454" lon="12.27688888474848"><ele>328.0</ele><time>2026-04-26T07:20:59.967Z</time></trkpt><trkpt lat="43.85293326586766" lon="12.276740859283894"><ele>328.0</ele><time>2026-04-26T07:21:00.967Z</time></trkpt><trkpt lat="43.85276105003666" lon="12.276587745598995"><ele>328.0</ele><time>2026-04-26T07:21:01.967Z</time></trkpt><trkpt lat="43.85260506121171" lon="12.276443952415923"><ele>327.66666666666663</ele><time>2026-04-26T07:21:02.967Z</time></trkpt><trkpt lat="43.8524406020502" lon="12.276304208353015"><ele>327.3333333333333</ele><time>2026-04-26T07:21:03.967Z</time></trkpt><trkpt lat="43.85228931688428" lon="12.276152610125413"><ele>327.0</ele><time>2026-04-26T07:21:04.967Z</time></trkpt><trkpt lat="43.85213568349857" lon="12.27604176469283"><ele>327.0</ele><time>2026-04-26T07:21:05.967Z</time></trkpt><trkpt lat="43.85200092899871" lon="12.27591924921356"><ele>327.0</ele><time>2026-04-26T07:21:06.967Z</time></trkpt><trkpt lat="43.85184594896772" lon="12.275870708195841"><ele>327.0</ele><time>2026-04-26T07:21:07.967Z</time></trkpt><trkpt lat="43.85169817027232" lon="12.275843419012748"><ele>330.0</ele><time>2026-04-26T07:21:08.967Z</time></trkpt><trkpt lat="43.851552287132584" lon="12.275864737140509"><ele>333.0</ele><time>2026-04-26T07:21:09.967Z</time></trkpt><trkpt lat="43.851398971551966" lon="12.2759403894551"><ele>336.0</ele><time>2026-04-26T07:21:10.967Z</time></trkpt><trkpt lat="43.851255881560206" lon="12.276039292377153"><ele>336.0</ele><time>2026-04-26T07:21:11.967Z</time></trkpt><trkpt lat="43.85109873884226" lon="12.276155991133665"><ele>336.0</ele><time>2026-04-26T07:21:12.967Z</time></trkpt><trkpt lat="43.85093631478999" lon="12.276279186120858"><ele>336.0</ele><time>2026-04-26T07:21:13.967Z</time></trkpt><trkpt lat="43.85076703884678" lon="12.27640210287074"><ele>338.0</ele><time>2026-04-26T07:21:14.966Z</time></trkpt><trkpt lat="43.85060307267911" lon="12.276537558662776"><ele>340.0</ele><time>2026-04-26T07:21:15.967Z</time></trkpt><trkpt lat="43.85044913624659" lon="12.27666803446868"><ele>342.0</ele><time>2026-04-26T07:21:16.967Z</time></trkpt><trkpt lat="43.85030778404609" lon="12.276775897269475"><ele>342.0</ele><time>2026-04-26T07:21:17.967Z</time></trkpt><trkpt lat="43.850174088849386" lon="12.276874861136736"><ele>342.0</ele><time>2026-04-26T07:21:18.967Z</time></trkpt><trkpt lat="43.85004306197246" lon="12.276954271440465"><ele>342.0</ele><time>2026-04-26T07:21:19.967Z</time></trkpt><trkpt lat="43.84988903738193" lon="12.276989662688248"><ele>340.0</ele><time>2026-04-26T07:21:20.966Z</time></trkpt><trkpt lat="43.84971789297557" lon="12.27700115110209"><ele>338.0</ele><time>2026-04-26T07:21:21.966Z</time></trkpt><trkpt lat="43.84953405857326" lon="12.276990779694604"><ele>336.0</ele><time>2026-04-26T07:21:22.966Z</time></trkpt><trkpt lat="43.84934788457498" lon="12.276987199504445"><ele>333.6666666666667</ele><time>2026-04-26T07:21:23.967Z</time></trkpt><trkpt lat="43.849155462769474" lon="12.27698752059892"><ele>331.33333333333337</ele><time>2026-04-26T07:21:24.966Z</time></trkpt><trkpt lat="43.8489596326228" lon="12.27699475707959"><ele>329.0</ele><time>2026-04-26T07:21:25.966Z</time></trkpt><trkpt lat="43.84877440756791" lon="12.276997114320436"><ele>329.0</ele><time>2026-04-26T07:21:26.966Z</time></trkpt><trkpt lat="43.848599188004236" lon="12.27700747354359"><ele>329.0</ele><time>2026-04-26T07:21:27.966Z</time></trkpt><trkpt lat="43.848444598270085" lon="12.277015312151423"><ele>329.0</ele><time>2026-04-26T07:21:28.966Z</time></trkpt><trkpt lat="43.84830811805552" lon="12.277068119464948"><ele>329.6666666666667</ele><time>2026-04-26T07:21:29.966Z</time></trkpt><trkpt lat="43.84818165283572" lon="12.277168466726547"><ele>330.3333333333333</ele><time>2026-04-26T07:21:30.966Z</time></trkpt><trkpt lat="43.84805809418122" lon="12.277289601856515"><ele>331.0</ele><time>2026-04-26T07:21:31.966Z</time></trkpt><trkpt lat="43.847934174434386" lon="12.277437495271338"><ele>333.66666666666663</ele><time>2026-04-26T07:21:32.966Z</time></trkpt><trkpt lat="43.84781079742496" lon="12.27760973716063"><ele>336.3333333333333</ele><time>2026-04-26T07:21:33.966Z</time></trkpt><trkpt lat="43.847689520309245" lon="12.277783047662457"><ele>339.0</ele><time>2026-04-26T07:21:34.966Z</time></trkpt><trkpt lat="43.84757726540983" lon="12.277930344690843"><ele>339.0</ele><time>2026-04-26T07:21:35.966Z</time></trkpt><trkpt lat="43.84745661742545" lon="12.278052042119974"><ele>339.0</ele><time>2026-04-26T07:21:36.966Z</time></trkpt><trkpt lat="43.847304463305974" lon="12.278142909308205"><ele>339.0</ele><time>2026-04-26T07:21:37.966Z</time></trkpt><trkpt lat="43.847137830522946" lon="12.278214182556841"><ele>340.6666666666667</ele><time>2026-04-26T07:21:38.966Z</time></trkpt><trkpt lat="43.8469636452188" lon="12.27824682130456"><ele>342.33333333333337</ele><time>2026-04-26T07:21:39.966Z</time></trkpt><trkpt lat="43.846777200363015" lon="12.278246169527593"><ele>344.0</ele><time>2026-04-26T07:21:40.966Z</time></trkpt><trkpt lat="43.84658659657362" lon="12.278257892210577"><ele>344.0</ele><time>2026-04-26T07:21:41.966Z</time></trkpt><trkpt lat="43.84639348260122" lon="12.278263360291447"><ele>344.0</ele><time>2026-04-26T07:21:42.966Z</time></trkpt><trkpt lat="43.846216409874835" lon="12.278273791641553"><ele>344.0</ele><time>2026-04-26T07:21:43.966Z</time></trkpt><trkpt lat="43.84605599236507" lon="12.278276089191607"><ele>343.75</ele><time>2026-04-26T07:21:44.966Z</time></trkpt><trkpt lat="43.84590897436053" lon="12.278265209629275"><ele>343.5</ele><time>2026-04-26T07:21:45.966Z</time></trkpt><trkpt lat="43.845772887900694" lon="12.278223861057576"><ele>343.25</ele><time>2026-04-26T07:21:46.966Z</time></trkpt><trkpt lat="43.84563882280687" lon="12.278135734597216"><ele>343.0</ele><time>2026-04-26T07:21:47.966Z</time></trkpt><trkpt lat="43.84551730703271" lon="12.27800546710749"><ele>341.3333333333333</ele><time>2026-04-26T07:21:48.966Z</time></trkpt><trkpt lat="43.84541220927352" lon="12.277833068536006"><ele>339.6666666666667</ele><time>2026-04-26T07:21:49.966Z</time></trkpt><trkpt lat="43.84532485987979" lon="12.277635044213492"><ele>338.0</ele><time>2026-04-26T07:21:50.966Z</time></trkpt><trkpt lat="43.845256264206284" lon="12.277397186614392"><ele>337.0</ele><time>2026-04-26T07:21:51.966Z</time></trkpt><trkpt lat="43.845166449468245" lon="12.277180685608467"><ele>336.0</ele><time>2026-04-26T07:21:52.966Z</time></trkpt><trkpt lat="43.84508096374922" lon="12.276962724782924"><ele>335.0</ele><time>2026-04-26T07:21:53.966Z</time></trkpt><trkpt lat="43.844973637352936" lon="12.276767888788397"><ele>338.6666666666667</ele><time>2026-04-26T07:21:54.966Z</time></trkpt><trkpt lat="43.84484302768008" lon="12.276604474363424"><ele>342.3333333333333</ele><time>2026-04-26T07:21:55.966Z</time></trkpt><trkpt lat="43.84469373858191" lon="12.27647072766576"><ele>346.0</ele><time>2026-04-26T07:21:56.966Z</time></trkpt><trkpt lat="43.8445307107932" lon="12.276369480009818"><ele>346.0</ele><time>2026-04-26T07:21:57.966Z</time></trkpt><trkpt lat="43.844363178031095" lon="12.276290732900812"><ele>346.0</ele><time>2026-04-26T07:21:58.966Z</time></trkpt><trkpt lat="43.8441797920506" lon="12.276228360931784"><ele>346.0</ele><time>2026-04-26T07:21:59.966Z</time></trkpt><trkpt lat="43.84399136724945" lon="12.276162279434566"><ele>346.66666666666663</ele><time>2026-04-26T07:22:00.966Z</time></trkpt><trkpt lat="43.84380865344418" lon="12.276085871310794"><ele>347.3333333333333</ele><time>2026-04-26T07:22:01.966Z</time></trkpt><trkpt lat="43.843640798087435" lon="12.276010261959675"><ele>348.0</ele><time>2026-04-26T07:22:02.966Z</time></trkpt><trkpt lat="43.843481076129876" lon="12.275909098187695"><ele>349.3333333333333</ele><time>2026-04-26T07:22:03.966Z</time></trkpt><trkpt lat="43.84333909603567" lon="12.27577601146494"><ele>350.66666666666663</ele><time>2026-04-26T07:22:04.966Z</time></trkpt><trkpt lat="43.84322724633925" lon="12.27560311656634"><ele>352.0</ele><time>2026-04-26T07:22:05.966Z</time></trkpt><trkpt lat="43.843107444245746" lon="12.27543848695975"><ele>352.3333333333333</ele><time>2026-04-26T07:22:06.966Z</time></trkpt><trkpt lat="43.84298344467418" lon="12.275269449562662"><ele>352.6666666666667</ele><time>2026-04-26T07:22:07.966Z</time></trkpt><trkpt lat="43.84285381992162" lon="12.275093029432167"><ele>353.0</ele><time>2026-04-26T07:22:08.966Z</time></trkpt><trkpt lat="43.8427132975535" lon="12.27492738249937"><ele>352.33333333333337</ele><time>2026-04-26T07:22:09.966Z</time></trkpt><trkpt lat="43.842579620380675" lon="12.274748360946742"><ele>351.6666666666667</ele><time>2026-04-26T07:22:10.966Z</time></trkpt><trkpt lat="43.84244622857038" lon="12.274570856197249"><ele>351.0</ele><time>2026-04-26T07:22:11.966Z</time></trkpt><trkpt lat="43.84232720300214" lon="12.274399822946718"><ele>351.0</ele><time>2026-04-26T07:22:12.966Z</time></trkpt><trkpt lat="43.84221888618653" lon="12.274213385587972"><ele>351.0</ele><time>2026-04-26T07:22:13.966Z</time></trkpt><trkpt lat="43.84212144441284" lon="12.274004204499677"><ele>351.0</ele><time>2026-04-26T07:22:14.966Z</time></trkpt><trkpt lat="43.8420552995435" lon="12.273790591905987"><ele>349.6666666666667</ele><time>2026-04-26T07:22:15.966Z</time></trkpt><trkpt lat="43.84202090038519" lon="12.273570602184556"><ele>348.33333333333337</ele><time>2026-04-26T07:22:16.966Z</time></trkpt><trkpt lat="43.84203510800901" lon="12.273340445723367"><ele>347.0</ele><time>2026-04-26T07:22:17.966Z</time></trkpt><trkpt lat="43.842057207504176" lon="12.273104846440788"><ele>347.0</ele><time>2026-04-26T07:22:18.966Z</time></trkpt><trkpt lat="43.84206822220664" lon="12.272854717622497"><ele>347.0</ele><time>2026-04-26T07:22:19.966Z</time></trkpt><trkpt lat="43.84210618789933" lon="12.272590001625739"><ele>347.0</ele><time>2026-04-26T07:22:20.966Z</time></trkpt><trkpt lat="43.84213848411959" lon="12.272322861158951"><ele>347.6666666666667</ele><time>2026-04-26T07:22:21.966Z</time></trkpt><trkpt lat="43.84216523610133" lon="12.27204647698602"><ele>348.3333333333333</ele><time>2026-04-26T07:22:22.966Z</time></trkpt><trkpt lat="43.84220763635318" lon="12.271784868212862"><ele>349.0</ele><time>2026-04-26T07:22:23.966Z</time></trkpt><trkpt lat="43.84223278283096" lon="12.271522767267252"><ele>352.0</ele><time>2026-04-26T07:22:24.966Z</time></trkpt><trkpt lat="43.842269770374976" lon="12.271267859483466"><ele>355.0</ele><time>2026-04-26T07:22:25.966Z</time></trkpt><trkpt lat="43.84231282217565" lon="12.271029723925029"><ele>358.0</ele><time>2026-04-26T07:22:26.966Z</time></trkpt><trkpt lat="43.84239600084176" lon="12.270826655756794"><ele>358.0</ele><time>2026-04-26T07:22:27.966Z</time></trkpt><trkpt lat="43.842497903632534" lon="12.27063653864861"><ele>358.0</ele><time>2026-04-26T07:22:28.966Z</time></trkpt><trkpt lat="43.84261434475504" lon="12.270462858401329"><ele>358.0</ele><time>2026-04-26T07:22:29.966Z</time></trkpt><trkpt lat="43.84273562571596" lon="12.270271419632369"><ele>349.3333333333333</ele><time>2026-04-26T07:22:30.966Z</time></trkpt><trkpt lat="43.84282352869603" lon="12.270053504045764"><ele>340.6666666666667</ele><time>2026-04-26T07:22:31.966Z</time></trkpt><trkpt lat="43.84291712159595" lon="12.269847988711472"><ele>332.0</ele><time>2026-04-26T07:22:32.966Z</time></trkpt><trkpt lat="43.842982158629624" lon="12.269650086412613"><ele>330.33333333333337</ele><time>2026-04-26T07:22:33.966Z</time></trkpt><trkpt lat="43.84302374199537" lon="12.269452810185426"><ele>328.6666666666667</ele><time>2026-04-26T07:22:34.966Z</time></trkpt><trkpt lat="43.84301144077419" lon="12.269237067576382"><ele>327.0</ele><time>2026-04-26T07:22:35.966Z</time></trkpt><trkpt lat="43.84297448928268" lon="12.269033543417287"><ele>323.0</ele><time>2026-04-26T07:22:36.966Z</time></trkpt><trkpt lat="43.84286672302" lon="12.26881930037847"><ele>319.0</ele><time>2026-04-26T07:22:37.966Z</time></trkpt><trkpt lat="43.84273742603063" lon="12.268659876419592"><ele>315.0</ele><time>2026-04-26T07:22:38.966Z</time></trkpt><trkpt lat="43.842586516787456" lon="12.268541761930202"><ele>324.0</ele><time>2026-04-26T07:22:39.966Z</time></trkpt><trkpt lat="43.842408403250694" lon="12.2685061672241"><ele>333.0</ele><time>2026-04-26T07:22:40.966Z</time></trkpt><trkpt lat="43.842220850143356" lon="12.268546502899762"><ele>342.0</ele><time>2026-04-26T07:22:41.966Z</time></trkpt><trkpt lat="43.842037290679194" lon="12.268656193129813"><ele>342.0</ele><time>2026-04-26T07:22:42.966Z</time></trkpt><trkpt lat="43.841857558571355" lon="12.268773019830956"><ele>342.0</ele><time>2026-04-26T07:22:43.966Z</time></trkpt><trkpt lat="43.84168761458547" lon="12.268848895394651"><ele>342.0</ele><time>2026-04-26T07:22:44.966Z</time></trkpt><trkpt lat="43.84152436125208" lon="12.268892397979592"><ele>343.0</ele><time>2026-04-26T07:22:45.966Z</time></trkpt><trkpt lat="43.84137989019442" lon="12.268844702589304"><ele>344.0</ele><time>2026-04-26T07:22:46.966Z</time></trkpt><trkpt lat="43.84123544496283" lon="12.268778445339333"><ele>345.0</ele><time>2026-04-26T07:22:47.966Z</time></trkpt><trkpt lat="43.841105119226825" lon="12.268690772915136"><ele>346.0</ele><time>2026-04-26T07:22:48.966Z</time></trkpt><trkpt lat="43.84098058039708" lon="12.268562705279964"><ele>346.66666666666663</ele><time>2026-04-26T07:22:49.966Z</time></trkpt><trkpt lat="43.84088492800795" lon="12.268396781696463"><ele>347.3333333333333</ele><time>2026-04-26T07:22:50.966Z</time></trkpt><trkpt lat="43.840802553245" lon="12.268170616393732"><ele>348.0</ele><time>2026-04-26T07:22:51.966Z</time></trkpt><trkpt lat="43.84070257695898" lon="12.267915479613084"><ele>348.0</ele><time>2026-04-26T07:22:52.966Z</time></trkpt><trkpt lat="43.84062439427607" lon="12.267653778803302"><ele>348.0</ele><time>2026-04-26T07:22:53.966Z</time></trkpt><trkpt lat="43.84053808774079" lon="12.2674028647153"><ele>348.0</ele><time>2026-04-26T07:22:54.966Z</time></trkpt><trkpt lat="43.84043995786226" lon="12.267177279936694"><ele>350.0</ele><time>2026-04-26T07:22:55.965Z</time></trkpt><trkpt lat="43.84032825147706" lon="12.266976730001458"><ele>352.0</ele><time>2026-04-26T07:22:56.965Z</time></trkpt><trkpt lat="43.840195864117085" lon="12.266793959984732"><ele>354.0</ele><time>2026-04-26T07:22:57.965Z</time></trkpt><trkpt lat="43.84007009942252" lon="12.266597855260848"><ele>351.0</ele><time>2026-04-26T07:22:58.965Z</time></trkpt><trkpt lat="43.83993776056893" lon="12.26640637944757"><ele>348.0</ele><time>2026-04-26T07:22:59.965Z</time></trkpt><trkpt lat="43.839801988070725" lon="12.266209935576711"><ele>345.0</ele><time>2026-04-26T07:23:00.965Z</time></trkpt><trkpt lat="43.839659317024285" lon="12.266029146552027"><ele>345.0</ele><time>2026-04-26T07:23:01.965Z</time></trkpt><trkpt lat="43.83952570412944" lon="12.265830627860963"><ele>345.0</ele><time>2026-04-26T07:23:02.965Z</time></trkpt><trkpt lat="43.83938926639823" lon="12.265634191764224"><ele>345.0</ele><time>2026-04-26T07:23:03.965Z</time></trkpt><trkpt lat="43.83924964875204" lon="12.265430968181558"><ele>346.6666666666667</ele><time>2026-04-26T07:23:04.965Z</time></trkpt><trkpt lat="43.83910566024696" lon="12.2652301658235"><ele>348.33333333333337</ele><time>2026-04-26T07:23:05.965Z</time></trkpt><trkpt lat="43.838964832939865" lon="12.265022024988621"><ele>350.0</ele><time>2026-04-26T07:23:06.965Z</time></trkpt><trkpt lat="43.838820017641574" lon="12.264813741123131"><ele>351.6666666666667</ele><time>2026-04-26T07:23:07.965Z</time></trkpt><trkpt lat="43.83869061189245" lon="12.264601597006884"><ele>353.3333333333333</ele><time>2026-04-26T07:23:08.965Z</time></trkpt><trkpt lat="43.83855678438673" lon="12.264407854288184"><ele>355.0</ele><time>2026-04-26T07:23:09.965Z</time></trkpt><trkpt lat="43.83842526094545" lon="12.264217447017337"><ele>355.0</ele><time>2026-04-26T07:23:10.965Z</time></trkpt><trkpt lat="43.83828493702889" lon="12.264041313457913"><ele>355.0</ele><time>2026-04-26T07:23:11.965Z</time></trkpt><trkpt lat="43.83815529515835" lon="12.26384953829688"><ele>355.0</ele><time>2026-04-26T07:23:12.965Z</time></trkpt><trkpt lat="43.83802889825371" lon="12.263664264639752"><ele>354.3333333333333</ele><time>2026-04-26T07:23:13.965Z</time></trkpt><trkpt lat="43.837912827012325" lon="12.263469546824401"><ele>353.6666666666667</ele><time>2026-04-26T07:23:14.965Z</time></trkpt><trkpt lat="43.83778893768591" lon="12.263286370593956"><ele>353.0</ele><time>2026-04-26T07:23:15.965Z</time></trkpt><trkpt lat="43.83767329918553" lon="12.263104741669522"><ele>353.0</ele><time>2026-04-26T07:23:16.965Z</time></trkpt><trkpt lat="43.83754330854309" lon="12.262925242241735"><ele>353.0</ele><time>2026-04-26T07:23:17.965Z</time></trkpt><trkpt lat="43.837405204049546" lon="12.262749573543493"><ele>353.0</ele><time>2026-04-26T07:23:18.965Z</time></trkpt><trkpt lat="43.83725399880692" lon="12.262587305568495"><ele>353.0</ele><time>2026-04-26T07:23:19.965Z</time></trkpt><trkpt lat="43.83709310601386" lon="12.262433108439415"><ele>353.0</ele><time>2026-04-26T07:23:20.965Z</time></trkpt><trkpt lat="43.8369189557311" lon="12.262312332337636"><ele>353.0</ele><time>2026-04-26T07:23:21.965Z</time></trkpt><trkpt lat="43.83674761022278" lon="12.262206077049882"><ele>352.6666666666667</ele><time>2026-04-26T07:23:22.965Z</time></trkpt><trkpt lat="43.83658184998614" lon="12.26212162443314"><ele>352.3333333333333</ele><time>2026-04-26T07:23:23.965Z</time></trkpt><trkpt lat="43.8364340466105" lon="12.26207779406955"><ele>352.0</ele><time>2026-04-26T07:23:24.965Z</time></trkpt><trkpt lat="43.836303614174426" lon="12.262042954338474"><ele>352.0</ele><time>2026-04-26T07:23:25.965Z</time></trkpt><trkpt lat="43.836188024539275" lon="12.262028283177518"><ele>352.0</ele><time>2026-04-26T07:23:26.965Z</time></trkpt><trkpt lat="43.836055324727404" lon="12.262029454215586"><ele>352.0</ele><time>2026-04-26T07:23:27.965Z</time></trkpt><trkpt lat="43.83591496895269" lon="12.262028635016755"><ele>352.0</ele><time>2026-04-26T07:23:28.965Z</time></trkpt><trkpt lat="43.83577313778051" lon="12.262028556287811"><ele>353.66666666666663</ele><time>2026-04-26T07:23:29.965Z</time></trkpt><trkpt lat="43.83561563060534" lon="12.262061361464406"><ele>355.3333333333333</ele><time>2026-04-26T07:23:30.965Z</time></trkpt><trkpt lat="43.8354455633562" lon="12.262087733495436"><ele>357.0</ele><time>2026-04-26T07:23:31.965Z</time></trkpt><trkpt lat="43.835274618030176" lon="12.26212529426221"><ele>355.3333333333333</ele><time>2026-04-26T07:23:32.965Z</time></trkpt><trkpt lat="43.835099041742716" lon="12.26216596313254"><ele>353.66666666666663</ele><time>2026-04-26T07:23:33.965Z</time></trkpt><trkpt lat="43.83492109656536" lon="12.26219503426292"><ele>352.0</ele><time>2026-04-26T07:23:34.965Z</time></trkpt><trkpt lat="43.834743518881965" lon="12.262191301575498"><ele>352.0</ele><time>2026-04-26T07:23:35.965Z</time></trkpt><trkpt lat="43.834571317296316" lon="12.262148521142429"><ele>352.0</ele><time>2026-04-26T07:23:36.965Z</time></trkpt><trkpt lat="43.83439523568766" lon="12.262101456997689"><ele>352.0</ele><time>2026-04-26T07:23:37.965Z</time></trkpt><trkpt lat="43.83420925963181" lon="12.262041370886072"><ele>352.3333333333333</ele><time>2026-04-26T07:23:38.965Z</time></trkpt><trkpt lat="43.83401689640567" lon="12.261995422614362"><ele>352.6666666666667</ele><time>2026-04-26T07:23:39.965Z</time></trkpt><trkpt lat="43.83382487778734" lon="12.2619565968224"><ele>353.0</ele><time>2026-04-26T07:23:40.965Z</time></trkpt><trkpt lat="43.83362756236175" lon="12.261920535067967"><ele>353.0</ele><time>2026-04-26T07:23:41.965Z</time></trkpt><trkpt lat="43.83343123368481" lon="12.261891779084987"><ele>353.0</ele><time>2026-04-26T07:23:42.965Z</time></trkpt><trkpt lat="43.83324358080577" lon="12.261853559578059"><ele>353.0</ele><time>2026-04-26T07:23:43.965Z</time></trkpt><trkpt lat="43.833064236255495" lon="12.261818231375916"><ele>353.0</ele><time>2026-04-26T07:23:44.965Z</time></trkpt><trkpt lat="43.83288913756681" lon="12.261794131550543"><ele>353.0</ele><time>2026-04-26T07:23:45.965Z</time></trkpt><trkpt lat="43.832718672674815" lon="12.261761788910434"><ele>353.0</ele><time>2026-04-26T07:23:46.965Z</time></trkpt><trkpt lat="43.832547980101324" lon="12.26173720006985"><ele>352.6666666666667</ele><time>2026-04-26T07:23:47.965Z</time></trkpt><trkpt lat="43.83237266545632" lon="12.261723182799244"><ele>352.3333333333333</ele><time>2026-04-26T07:23:48.965Z</time></trkpt><trkpt lat="43.832188294883004" lon="12.261751119823291"><ele>352.0</ele><time>2026-04-26T07:23:49.965Z</time></trkpt><trkpt lat="43.832009025714335" lon="12.261801228355248"><ele>352.0</ele><time>2026-04-26T07:23:50.965Z</time></trkpt><trkpt lat="43.83183279400206" lon="12.26186313401357"><ele>352.0</ele><time>2026-04-26T07:23:51.965Z</time></trkpt><trkpt lat="43.83165935309964" lon="12.261935327385379"><ele>352.0</ele><time>2026-04-26T07:23:52.965Z</time></trkpt><trkpt lat="43.83148991086295" lon="12.262007196316212"><ele>351.3333333333333</ele><time>2026-04-26T07:23:53.965Z</time></trkpt><trkpt lat="43.831325869177654" lon="12.262080809191383"><ele>350.6666666666667</ele><time>2026-04-26T07:23:54.965Z</time></trkpt><trkpt lat="43.831164515151464" lon="12.262145076903284"><ele>350.0</ele><time>2026-04-26T07:23:55.965Z</time></trkpt><trkpt lat="43.831008604057" lon="12.262212196898835"><ele>347.6666666666667</ele><time>2026-04-26T07:23:56.965Z</time></trkpt><trkpt lat="43.830850843961684" lon="12.262257248353494"><ele>345.3333333333333</ele><time>2026-04-26T07:23:57.965Z</time></trkpt><trkpt lat="43.830689353584084" lon="12.262273437596042"><ele>343.0</ele><time>2026-04-26T07:23:58.965Z</time></trkpt><trkpt lat="43.83052757491881" lon="12.262243944472857"><ele>343.0</ele><time>2026-04-26T07:23:59.965Z</time></trkpt><trkpt lat="43.83039449505144" lon="12.262155943033386"><ele>343.0</ele><time>2026-04-26T07:24:00.965Z</time></trkpt><trkpt lat="43.830272270908495" lon="12.262042676524313"><ele>343.0</ele><time>2026-04-26T07:24:01.965Z</time></trkpt><trkpt lat="43.83017310705607" lon="12.26189270780574"><ele>343.0</ele><time>2026-04-26T07:24:02.965Z</time></trkpt><trkpt lat="43.83010708267409" lon="12.261710842659834"><ele>343.66666666666663</ele><time>2026-04-26T07:24:03.965Z</time></trkpt><trkpt lat="43.830056258514695" lon="12.261510408520406"><ele>344.3333333333333</ele><time>2026-04-26T07:24:04.965Z</time></trkpt><trkpt lat="43.83003013732354" lon="12.2612816717947"><ele>345.0</ele><time>2026-04-26T07:24:05.965Z</time></trkpt><trkpt lat="43.83001434168898" lon="12.261031037629106"><ele>345.0</ele><time>2026-04-26T07:24:06.965Z</time></trkpt><trkpt lat="43.829983370750824" lon="12.2607660359223"><ele>345.0</ele><time>2026-04-26T07:24:07.965Z</time></trkpt><trkpt lat="43.829965993522336" lon="12.26049857683969"><ele>345.0</ele><time>2026-04-26T07:24:08.965Z</time></trkpt><trkpt lat="43.82993989461699" lon="12.260226605846984"><ele>343.3333333333333</ele><time>2026-04-26T07:24:09.965Z</time></trkpt><trkpt lat="43.82990017895664" lon="12.259956070715253"><ele>341.66666666666663</ele><time>2026-04-26T07:24:10.965Z</time></trkpt><trkpt lat="43.82985338500128" lon="12.259692638976055"><ele>340.0</ele><time>2026-04-26T07:24:11.965Z</time></trkpt><trkpt lat="43.82979896773232" lon="12.259426081754135"><ele>339.0</ele><time>2026-04-26T07:24:12.965Z</time></trkpt><trkpt lat="43.82973965063455" lon="12.259162881495419"><ele>338.0</ele><time>2026-04-26T07:24:13.965Z</time></trkpt><trkpt lat="43.82967736142854" lon="12.258899191397779"><ele>337.0</ele><time>2026-04-26T07:24:14.965Z</time></trkpt><trkpt lat="43.829606970686875" lon="12.258645332625168"><ele>337.0</ele><time>2026-04-26T07:24:15.965Z</time></trkpt><trkpt lat="43.82952406254374" lon="12.258401152468355"><ele>337.0</ele><time>2026-04-26T07:24:16.965Z</time></trkpt><trkpt lat="43.82943592117941" lon="12.258162577245667"><ele>337.0</ele><time>2026-04-26T07:24:17.965Z</time></trkpt><trkpt lat="43.82933655940362" lon="12.257931906368624"><ele>336.3333333333333</ele><time>2026-04-26T07:24:18.965Z</time></trkpt><trkpt lat="43.82922976035499" lon="12.257707123268656"><ele>335.6666666666667</ele><time>2026-04-26T07:24:19.965Z</time></trkpt><trkpt lat="43.829116858183916" lon="12.257489340638568"><ele>335.0</ele><time>2026-04-26T07:24:20.965Z</time></trkpt><trkpt lat="43.828999869631204" lon="12.25727184117306"><ele>335.0</ele><time>2026-04-26T07:24:21.965Z</time></trkpt><trkpt lat="43.82888290556146" lon="12.257051947540646"><ele>335.0</ele><time>2026-04-26T07:24:22.965Z</time></trkpt><trkpt lat="43.82876935134538" lon="12.256831950719514"><ele>335.0</ele><time>2026-04-26T07:24:23.965Z</time></trkpt><trkpt lat="43.828651789397874" lon="12.256610443803439"><ele>335.33333333333337</ele><time>2026-04-26T07:24:24.965Z</time></trkpt><trkpt lat="43.8285440609089" lon="12.256375304280711"><ele>335.6666666666667</ele><time>2026-04-26T07:24:25.965Z</time></trkpt><trkpt lat="43.82841324695406" lon="12.256161104882057"><ele>336.0</ele><time>2026-04-26T07:24:26.965Z</time></trkpt><trkpt lat="43.82830821565564" lon="12.25592047416152"><ele>336.0</ele><time>2026-04-26T07:24:27.965Z</time></trkpt><trkpt lat="43.82817259553899" lon="12.25569962672074"><ele>336.0</ele><time>2026-04-26T07:24:28.965Z</time></trkpt><trkpt lat="43.828067220367814" lon="12.255458469141844"><ele>336.0</ele><time>2026-04-26T07:24:29.965Z</time></trkpt><trkpt lat="43.827939504293184" lon="12.255252502800174"><ele>334.0</ele><time>2026-04-26T07:24:30.965Z</time></trkpt><trkpt lat="43.8278303944968" lon="12.255042224637215"><ele>332.0</ele><time>2026-04-26T07:24:31.965Z</time></trkpt><trkpt lat="43.82772062035612" lon="12.2548292133402"><ele>330.0</ele><time>2026-04-26T07:24:32.965Z</time></trkpt><trkpt lat="43.827616287209096" lon="12.25462617108054"><ele>330.0</ele><time>2026-04-26T07:24:33.965Z</time></trkpt><trkpt lat="43.827511587811074" lon="12.254419709872577"><ele>330.0</ele><time>2026-04-26T07:24:34.965Z</time></trkpt><trkpt lat="43.827403754236705" lon="12.254215065077839"><ele>330.0</ele><time>2026-04-26T07:24:35.965Z</time></trkpt><trkpt lat="43.82730081449823" lon="12.254010250372678"><ele>329.0</ele><time>2026-04-26T07:24:36.965Z</time></trkpt><trkpt lat="43.827191115335715" lon="12.253805288571861"><ele>328.0</ele><time>2026-04-26T07:24:37.965Z</time></trkpt><trkpt lat="43.8270789455037" lon="12.253594887698597"><ele>327.0</ele><time>2026-04-26T07:24:38.965Z</time></trkpt><trkpt lat="43.826972940933196" lon="12.253388180490004"><ele>327.0</ele><time>2026-04-26T07:24:39.965Z</time></trkpt><trkpt lat="43.82686238039545" lon="12.253178109301935"><ele>327.0</ele><time>2026-04-26T07:24:40.965Z</time></trkpt><trkpt lat="43.82675080323645" lon="12.252969768110823"><ele>327.0</ele><time>2026-04-26T07:24:41.965Z</time></trkpt><trkpt lat="43.82664232489399" lon="12.25276265745982"><ele>327.6666666666667</ele><time>2026-04-26T07:24:42.965Z</time></trkpt><trkpt lat="43.826533195037086" lon="12.252557513373183"><ele>328.33333333333337</ele><time>2026-04-26T07:24:43.965Z</time></trkpt><trkpt lat="43.826447519055215" lon="12.25233605928886"><ele>329.0</ele><time>2026-04-26T07:24:44.965Z</time></trkpt><trkpt lat="43.82634030642837" lon="12.252137165743154"><ele>329.0</ele><time>2026-04-26T07:24:45.965Z</time></trkpt><trkpt lat="43.82623464632149" lon="12.251943440480343"><ele>329.0</ele><time>2026-04-26T07:24:46.965Z</time></trkpt><trkpt lat="43.82613388687984" lon="12.251750885252298"><ele>329.0</ele><time>2026-04-26T07:24:47.965Z</time></trkpt><trkpt lat="43.826029605011186" lon="12.251555822320803"><ele>330.6666666666667</ele><time>2026-04-26T07:24:48.965Z</time></trkpt><trkpt lat="43.82592450565228" lon="12.251357414631254"><ele>332.3333333333333</ele><time>2026-04-26T07:24:49.965Z</time></trkpt><trkpt lat="43.82582046488354" lon="12.251163478898034"><ele>334.0</ele><time>2026-04-26T07:24:50.965Z</time></trkpt><trkpt lat="43.825720361823116" lon="12.250966314293793"><ele>334.0</ele><time>2026-04-26T07:24:51.965Z</time></trkpt><trkpt lat="43.825612769187686" lon="12.250763179661659"><ele>334.0</ele><time>2026-04-26T07:24:52.965Z</time></trkpt><trkpt lat="43.825505915809636" lon="12.250560126759742"><ele>334.0</ele><time>2026-04-26T07:24:53.965Z</time></trkpt><trkpt lat="43.82539777924664" lon="12.250354162574059"><ele>333.66666666666663</ele><time>2026-04-26T07:24:54.965Z</time></trkpt><trkpt lat="43.82529120602686" lon="12.250154602900587"><ele>333.3333333333333</ele><time>2026-04-26T07:24:55.965Z</time></trkpt><trkpt lat="43.82519289178236" lon="12.249968960661477"><ele>333.0</ele><time>2026-04-26T07:24:56.965Z</time></trkpt><trkpt lat="43.82509830928623" lon="12.249790040376835"><ele>335.25</ele><time>2026-04-26T07:24:57.965Z</time></trkpt><trkpt lat="43.82500710238688" lon="12.24961896265244"><ele>337.5</ele><time>2026-04-26T07:24:58.965Z</time></trkpt><trkpt lat="43.824923400598905" lon="12.249458622292972"><ele>339.75</ele><time>2026-04-26T07:24:59.965Z</time></trkpt><trkpt lat="43.82483954365752" lon="12.249304205358413"><ele>342.0</ele><time>2026-04-26T07:25:00.965Z</time></trkpt><trkpt lat="43.824757605693144" lon="12.249152833443965"><ele>342.0</ele><time>2026-04-26T07:25:01.965Z</time></trkpt><trkpt lat="43.82467771840704" lon="12.249003599304649"><ele>342.0</ele><time>2026-04-26T07:25:02.965Z</time></trkpt><trkpt lat="43.82460062358552" lon="12.248855444259915"><ele>342.0</ele><time>2026-04-26T07:25:03.965Z</time></trkpt><trkpt lat="43.8245188539536" lon="12.248709500103203"><ele>342.0</ele><time>2026-04-26T07:25:04.965Z</time></trkpt><trkpt lat="43.8244384932671" lon="12.248569242917812"><ele>341.75</ele><time>2026-04-26T07:25:05.965Z</time></trkpt><trkpt lat="43.824356265299635" lon="12.248428263817141"><ele>341.5</ele><time>2026-04-26T07:25:06.965Z</time></trkpt><trkpt lat="43.824263123916865" lon="12.248290726248257"><ele>341.25</ele><time>2026-04-26T07:25:07.965Z</time></trkpt><trkpt lat="43.8241574657319" lon="12.248163240441997"><ele>341.0</ele><time>2026-04-26T07:25:08.965Z</time></trkpt><trkpt lat="43.82404649399446" lon="12.248044647545065"><ele>343.5</ele><time>2026-04-26T07:25:09.965Z</time></trkpt><trkpt lat="43.823925153184554" lon="12.247934347386586"><ele>346.0</ele><time>2026-04-26T07:25:10.965Z</time></trkpt><trkpt lat="43.82380387453743" lon="12.247847076876369"><ele>348.5</ele><time>2026-04-26T07:25:11.965Z</time></trkpt><trkpt lat="43.823679387003374" lon="12.24777368242691"><ele>351.0</ele><time>2026-04-26T07:25:12.965Z</time></trkpt><trkpt lat="43.82355182007427" lon="12.247705608881075"><ele>352.0</ele><time>2026-04-26T07:25:13.965Z</time></trkpt><trkpt lat="43.82341725144872" lon="12.24765891389342"><ele>353.0</ele><time>2026-04-26T07:25:14.965Z</time></trkpt><trkpt lat="43.82327740104401" lon="12.247618080917773"><ele>354.0</ele><time>2026-04-26T07:25:15.965Z</time></trkpt><trkpt lat="43.82313648412723" lon="12.247591534327304"><ele>355.0</ele><time>2026-04-26T07:25:16.965Z</time></trkpt><trkpt lat="43.82299677147634" lon="12.247566675969004"><ele>355.0</ele><time>2026-04-26T07:25:17.965Z</time></trkpt><trkpt lat="43.8228527058672" lon="12.247529718919925"><ele>355.0</ele><time>2026-04-26T07:25:18.965Z</time></trkpt><trkpt lat="43.822697122386955" lon="12.247503340277309"><ele>355.0</ele><time>2026-04-26T07:25:19.965Z</time></trkpt><trkpt lat="43.82253401495085" lon="12.247478750520441"><ele>357.3333333333333</ele><time>2026-04-26T07:25:20.965Z</time></trkpt><trkpt lat="43.82237029698291" lon="12.24742913604985"><ele>359.6666666666667</ele><time>2026-04-26T07:25:21.965Z</time></trkpt><trkpt lat="43.82221001852137" lon="12.247393258255151"><ele>362.0</ele><time>2026-04-26T07:25:22.965Z</time></trkpt><trkpt lat="43.82205059415859" lon="12.247367234697231"><ele>362.0</ele><time>2026-04-26T07:25:23.965Z</time></trkpt><trkpt lat="43.82191084076289" lon="12.247356081990977"><ele>362.0</ele><time>2026-04-26T07:25:24.965Z</time></trkpt><trkpt lat="43.82176463298388" lon="12.247379769900204"><ele>362.0</ele><time>2026-04-26T07:25:25.965Z</time></trkpt><trkpt lat="43.82161277861049" lon="12.2474000793329"><ele>362.0</ele><time>2026-04-26T07:25:26.963Z</time></trkpt><trkpt lat="43.821448175182894" lon="12.247438486957291"><ele>362.6666666666667</ele><time>2026-04-26T07:25:27.964Z</time></trkpt><trkpt lat="43.82128630700825" lon="12.247485576409503"><ele>363.3333333333333</ele><time>2026-04-26T07:25:28.964Z</time></trkpt><trkpt lat="43.821117011709724" lon="12.247565399554608"><ele>364.0</ele><time>2026-04-26T07:25:29.963Z</time></trkpt><trkpt lat="43.820949725908285" lon="12.247667122207305"><ele>364.0</ele><time>2026-04-26T07:25:30.964Z</time></trkpt><trkpt lat="43.820794034094284" lon="12.24776866595944"><ele>364.0</ele><time>2026-04-26T07:25:31.964Z</time></trkpt><trkpt lat="43.82064705573649" lon="12.247853362893554"><ele>364.0</ele><time>2026-04-26T07:25:32.963Z</time></trkpt><trkpt lat="43.82051394347038" lon="12.247937790828216"><ele>364.0</ele><time>2026-04-26T07:25:33.964Z</time></trkpt><trkpt lat="43.82039679310397" lon="12.248011050253776"><ele>364.0</ele><time>2026-04-26T07:25:34.964Z</time></trkpt><trkpt lat="43.820299824838855" lon="12.248037170070603"><ele>364.0</ele><time>2026-04-26T07:25:35.963Z</time></trkpt><trkpt lat="43.82021207486451" lon="12.248058700246764"><ele>364.0</ele><time>2026-04-26T07:25:36.963Z</time></trkpt><trkpt lat="43.820121900041734" lon="12.248074937919526"><ele>364.0</ele><time>2026-04-26T07:25:37.963Z</time></trkpt><trkpt lat="43.82003792052553" lon="12.24800060462095"><ele>364.25</ele><time>2026-04-26T07:25:38.964Z</time></trkpt><trkpt lat="43.81997917094933" lon="12.24789448780975"><ele>364.5</ele><time>2026-04-26T07:25:39.963Z</time></trkpt><trkpt lat="43.81990796557253" lon="12.247758772766819"><ele>364.75</ele><time>2026-04-26T07:25:40.963Z</time></trkpt><trkpt lat="43.81983547215684" lon="12.247610690207432"><ele>365.0</ele><time>2026-04-26T07:25:41.963Z</time></trkpt><trkpt lat="43.81975749655092" lon="12.247454526343427"><ele>364.0</ele><time>2026-04-26T07:25:42.963Z</time></trkpt><trkpt lat="43.81967386377532" lon="12.247289770086477"><ele>363.0</ele><time>2026-04-26T07:25:43.963Z</time></trkpt><trkpt lat="43.819592539386825" lon="12.247129884466922"><ele>362.0</ele><time>2026-04-26T07:25:44.963Z</time></trkpt><trkpt lat="43.81950947114274" lon="12.246965956673245"><ele>361.0</ele><time>2026-04-26T07:25:45.963Z</time></trkpt><trkpt lat="43.81940791698802" lon="12.246803921177168"><ele>361.0</ele><time>2026-04-26T07:25:46.963Z</time></trkpt><trkpt lat="43.81933290710532" lon="12.246623311199967"><ele>361.0</ele><time>2026-04-26T07:25:47.963Z</time></trkpt><trkpt lat="43.81924312940174" lon="12.246455609896179"><ele>361.0</ele><time>2026-04-26T07:25:48.963Z</time></trkpt><trkpt lat="43.81915326861278" lon="12.246289954175666"><ele>362.75</ele><time>2026-04-26T07:25:49.963Z</time></trkpt><trkpt lat="43.81906950817494" lon="12.246124771052447"><ele>364.5</ele><time>2026-04-26T07:25:50.963Z</time></trkpt><trkpt lat="43.819003935634065" lon="12.245962478366764"><ele>366.25</ele><time>2026-04-26T07:25:51.963Z</time></trkpt><trkpt lat="43.81893806066148" lon="12.245817164518225"><ele>368.0</ele><time>2026-04-26T07:25:52.963Z</time></trkpt><trkpt lat="43.81889201428177" lon="12.24569064768098"><ele>367.0</ele><time>2026-04-26T07:25:53.963Z</time></trkpt><trkpt lat="43.818883463022814" lon="12.245562989676987"><ele>366.0</ele><time>2026-04-26T07:25:54.963Z</time></trkpt><trkpt lat="43.81883620912873" lon="12.24548071878385"><ele>365.0</ele><time>2026-04-26T07:25:55.963Z</time></trkpt><trkpt lat="43.81892179946889" lon="12.245240745833515"><ele>364.0</ele><time>2026-04-26T07:25:56.963Z</time></trkpt><trkpt lat="43.81898411007226" lon="12.245050047385314"><ele>364.0</ele><time>2026-04-26T07:25:57.963Z</time></trkpt><trkpt lat="43.819031961030156" lon="12.244834482438243"><ele>364.0</ele><time>2026-04-26T07:25:58.963Z</time></trkpt><trkpt lat="43.81907382053446" lon="12.244612146300089"><ele>364.0</ele><time>2026-04-26T07:25:59.963Z</time></trkpt><trkpt lat="43.81911601562631" lon="12.244362599824163"><ele>362.66666666666663</ele><time>2026-04-26T07:26:00.963Z</time></trkpt><trkpt lat="43.81916052331149" lon="12.244105483418913"><ele>361.3333333333333</ele><time>2026-04-26T07:26:01.963Z</time></trkpt><trkpt lat="43.81922621435467" lon="12.243853848169381"><ele>360.0</ele><time>2026-04-26T07:26:02.963Z</time></trkpt><trkpt lat="43.819259637962524" lon="12.243603984071932"><ele>358.6666666666667</ele><time>2026-04-26T07:26:03.963Z</time></trkpt><trkpt lat="43.819314560091016" lon="12.24338064282488"><ele>357.33333333333337</ele><time>2026-04-26T07:26:04.963Z</time></trkpt><trkpt lat="43.81935749679768" lon="12.243158917969378"><ele>356.0</ele><time>2026-04-26T07:26:05.963Z</time></trkpt><trkpt lat="43.81939714465036" lon="12.242946543957368"><ele>355.5</ele><time>2026-04-26T07:26:06.963Z</time></trkpt><trkpt lat="43.8194490107617" lon="12.242764993172022"><ele>355.0</ele><time>2026-04-26T07:26:07.963Z</time></trkpt><trkpt lat="43.819464008222916" lon="12.242570991356233"><ele>354.5</ele><time>2026-04-26T07:26:08.963Z</time></trkpt><trkpt lat="43.81945588752225" lon="12.242367837370352"><ele>354.0</ele><time>2026-04-26T07:26:09.963Z</time></trkpt><trkpt lat="43.819401089876784" lon="12.242168726625888"><ele>353.0</ele><time>2026-04-26T07:26:10.963Z</time></trkpt><trkpt lat="43.81930060535631" lon="12.241999310827094"><ele>352.0</ele><time>2026-04-26T07:26:11.963Z</time></trkpt><trkpt lat="43.819189905976096" lon="12.241797006355318"><ele>351.0</ele><time>2026-04-26T07:26:12.963Z</time></trkpt><trkpt lat="43.81909507759292" lon="12.241598249613935"><ele>350.6666666666667</ele><time>2026-04-26T07:26:13.963Z</time></trkpt><trkpt lat="43.81903177222362" lon="12.241411141064376"><ele>350.33333333333337</ele><time>2026-04-26T07:26:14.963Z</time></trkpt><trkpt lat="43.818987866847635" lon="12.241201411040608"><ele>350.0</ele><time>2026-04-26T07:26:15.963Z</time></trkpt><trkpt lat="43.81900229275622" lon="12.24096200612917"><ele>350.0</ele><time>2026-04-26T07:26:16.963Z</time></trkpt><trkpt lat="43.81902677466879" lon="12.240716715891239"><ele>350.0</ele><time>2026-04-26T07:26:17.963Z</time></trkpt><trkpt lat="43.8190435642075" lon="12.240452533750968"><ele>350.0</ele><time>2026-04-26T07:26:18.963Z</time></trkpt><trkpt lat="43.81908162407855" lon="12.240177022466892"><ele>349.6666666666667</ele><time>2026-04-26T07:26:19.963Z</time></trkpt><trkpt lat="43.81910400664511" lon="12.23990782235666"><ele>349.3333333333333</ele><time>2026-04-26T07:26:20.963Z</time></trkpt><trkpt lat="43.819127302467784" lon="12.239623638536964"><ele>349.0</ele><time>2026-04-26T07:26:21.963Z</time></trkpt><trkpt lat="43.819155888216535" lon="12.239329576022117"><ele>348.66666666666663</ele><time>2026-04-26T07:26:22.963Z</time></trkpt><trkpt lat="43.81918675619736" lon="12.23904387060755"><ele>348.3333333333333</ele><time>2026-04-26T07:26:23.963Z</time></trkpt><trkpt lat="43.8192195136588" lon="12.238758142726166"><ele>348.0</ele><time>2026-04-26T07:26:24.963Z</time></trkpt><trkpt lat="43.81924882150038" lon="12.238483186311687"><ele>348.0</ele><time>2026-04-26T07:26:25.963Z</time></trkpt><trkpt lat="43.819275312266015" lon="12.23822099701024"><ele>348.0</ele><time>2026-04-26T07:26:26.963Z</time></trkpt><trkpt lat="43.81929770096135" lon="12.237960754977745"><ele>348.0</ele><time>2026-04-26T07:26:27.963Z</time></trkpt><trkpt lat="43.81933974346187" lon="12.23771076504163"><ele>348.0</ele><time>2026-04-26T07:26:28.963Z</time></trkpt><trkpt lat="43.8193662839171" lon="12.23746381590964"><ele>348.0</ele><time>2026-04-26T07:26:29.963Z</time></trkpt><trkpt lat="43.81941039837436" lon="12.23720988435652"><ele>348.0</ele><time>2026-04-26T07:26:30.963Z</time></trkpt><trkpt lat="43.8195089910325" lon="12.236975931256605"><ele>348.3333333333333</ele><time>2026-04-26T07:26:31.963Z</time></trkpt><trkpt lat="43.819609688804846" lon="12.23674171158269"><ele>348.66666666666663</ele><time>2026-04-26T07:26:32.963Z</time></trkpt><trkpt lat="43.81969840722417" lon="12.236502292675997"><ele>349.0</ele><time>2026-04-26T07:26:33.963Z</time></trkpt><trkpt lat="43.81979497665966" lon="12.236300490550425"><ele>348.3333333333333</ele><time>2026-04-26T07:26:34.963Z</time></trkpt><trkpt lat="43.819874359851255" lon="12.236111620457573"><ele>347.6666666666667</ele><time>2026-04-26T07:26:35.963Z</time></trkpt><trkpt lat="43.8199722522367" lon="12.235936471191316"><ele>347.0</ele><time>2026-04-26T07:26:36.963Z</time></trkpt><trkpt lat="43.820060855163014" lon="12.235740940698273"><ele>346.0</ele><time>2026-04-26T07:26:37.963Z</time></trkpt><trkpt lat="43.82015119866869" lon="12.235540280430067"><ele>345.0</ele><time>2026-04-26T07:26:38.963Z</time></trkpt><trkpt lat="43.82024355044301" lon="12.235332744533896"><ele>344.0</ele><time>2026-04-26T07:26:39.963Z</time></trkpt><trkpt lat="43.8203361569551" lon="12.235124855450525"><ele>344.0</ele><time>2026-04-26T07:26:40.963Z</time></trkpt><trkpt lat="43.82043098008614" lon="12.234912041296495"><ele>344.0</ele><time>2026-04-26T07:26:41.963Z</time></trkpt><trkpt lat="43.82052816920086" lon="12.234693557716536"><ele>344.0</ele><time>2026-04-26T07:26:42.963Z</time></trkpt><trkpt lat="43.82062946268333" lon="12.234464461156305"><ele>344.33333333333337</ele><time>2026-04-26T07:26:43.963Z</time></trkpt><trkpt lat="43.820731738124984" lon="12.234233143759354"><ele>344.6666666666667</ele><time>2026-04-26T07:26:44.963Z</time></trkpt><trkpt lat="43.82083345530032" lon="12.234003088970276"><ele>345.0</ele><time>2026-04-26T07:26:45.963Z</time></trkpt><trkpt lat="43.820931815532" lon="12.23378577447217"><ele>346.3333333333333</ele><time>2026-04-26T07:26:46.963Z</time></trkpt><trkpt lat="43.82102407695969" lon="12.233581762000476"><ele>347.66666666666663</ele><time>2026-04-26T07:26:47.963Z</time></trkpt><trkpt lat="43.82110844279568" lon="12.23339061614937"><ele>349.0</ele><time>2026-04-26T07:26:48.963Z</time></trkpt><trkpt lat="43.82118884405476" lon="12.233204205267079"><ele>351.25</ele><time>2026-04-26T07:26:49.963Z</time></trkpt><trkpt lat="43.8212582826107" lon="12.233030577311606"><ele>353.5</ele><time>2026-04-26T07:26:50.963Z</time></trkpt><trkpt lat="43.821291654326636" lon="12.232841815031245"><ele>355.75</ele><time>2026-04-26T07:26:51.963Z</time></trkpt><trkpt lat="43.82132793602267" lon="12.232662766822234"><ele>358.0</ele><time>2026-04-26T07:26:52.963Z</time></trkpt><trkpt lat="43.82131112708811" lon="12.232479562628564"><ele>359.66666666666663</ele><time>2026-04-26T07:26:53.963Z</time></trkpt><trkpt lat="43.82126242780651" lon="12.232290495333205"><ele>361.3333333333333</ele><time>2026-04-26T07:26:54.963Z</time></trkpt><trkpt lat="43.821182354065506" lon="12.232111534189125"><ele>363.0</ele><time>2026-04-26T07:26:55.963Z</time></trkpt><trkpt lat="43.8210636733191" lon="12.231956356448078"><ele>361.3333333333333</ele><time>2026-04-26T07:26:56.963Z</time></trkpt><trkpt lat="43.82091418127361" lon="12.231767107518298"><ele>359.66666666666663</ele><time>2026-04-26T07:26:57.963Z</time></trkpt><trkpt lat="43.820754584561264" lon="12.231568960731739"><ele>358.0</ele><time>2026-04-26T07:26:58.963Z</time></trkpt><trkpt lat="43.82060947153149" lon="12.231357495468545"><ele>358.0</ele><time>2026-04-26T07:26:59.963Z</time></trkpt><trkpt lat="43.820462743165706" lon="12.231143169733008"><ele>358.0</ele><time>2026-04-26T07:27:00.963Z</time></trkpt><trkpt lat="43.820316357226154" lon="12.230931272129522"><ele>358.0</ele><time>2026-04-26T07:27:01.963Z</time></trkpt><trkpt lat="43.82017182141106" lon="12.230723905409707"><ele>357.0</ele><time>2026-04-26T07:27:02.963Z</time></trkpt><trkpt lat="43.820036766365845" lon="12.23052710544322"><ele>356.0</ele><time>2026-04-26T07:27:03.963Z</time></trkpt><trkpt lat="43.81990500929482" lon="12.230336411706705"><ele>355.0</ele><time>2026-04-26T07:27:04.963Z</time></trkpt><trkpt lat="43.81978248357813" lon="12.23016007078449"><ele>355.0</ele><time>2026-04-26T07:27:05.963Z</time></trkpt><trkpt lat="43.81966240240938" lon="12.229983320264664"><ele>355.0</ele><time>2026-04-26T07:27:06.963Z</time></trkpt><trkpt lat="43.8195401916827" lon="12.22981412534826"><ele>355.0</ele><time>2026-04-26T07:27:07.963Z</time></trkpt><trkpt lat="43.81942190941685" lon="12.229656306772291"><ele>355.0</ele><time>2026-04-26T07:27:08.963Z</time></trkpt><trkpt lat="43.81929704624866" lon="12.229492422595982"><ele>355.0</ele><time>2026-04-26T07:27:09.963Z</time></trkpt><trkpt lat="43.819161972596284" lon="12.229340338624631"><ele>355.0</ele><time>2026-04-26T07:27:10.963Z</time></trkpt><trkpt lat="43.81901805817757" lon="12.229196942333195"><ele>355.0</ele><time>2026-04-26T07:27:11.963Z</time></trkpt><trkpt lat="43.81885337021702" lon="12.229071028798131"><ele>355.0</ele><time>2026-04-26T07:27:12.963Z</time></trkpt><trkpt lat="43.818678438237995" lon="12.228951686726884"><ele>355.0</ele><time>2026-04-26T07:27:13.963Z</time></trkpt><trkpt lat="43.81849370616751" lon="12.228823858878718"><ele>355.66666666666663</ele><time>2026-04-26T07:27:14.963Z</time></trkpt><trkpt lat="43.81831773350843" lon="12.228695712732943"><ele>356.3333333333333</ele><time>2026-04-26T07:27:15.963Z</time></trkpt><trkpt lat="43.81813725389564" lon="12.228569962576806"><ele>357.0</ele><time>2026-04-26T07:27:16.963Z</time></trkpt><trkpt lat="43.81795586647271" lon="12.228440365074619"><ele>357.0</ele><time>2026-04-26T07:27:17.963Z</time></trkpt><trkpt lat="43.817775021512766" lon="12.228312301006085"><ele>357.0</ele><time>2026-04-26T07:27:18.963Z</time></trkpt><trkpt lat="43.81758429643262" lon="12.228179345220397"><ele>357.0</ele><time>2026-04-26T07:27:19.963Z</time></trkpt><trkpt lat="43.817396766017474" lon="12.228046448163214"><ele>356.6666666666667</ele><time>2026-04-26T07:27:20.963Z</time></trkpt><trkpt lat="43.81720508831938" lon="12.227909314802785"><ele>356.33333333333337</ele><time>2026-04-26T07:27:21.963Z</time></trkpt><trkpt lat="43.8170137441537" lon="12.227774601650243"><ele>356.0</ele><time>2026-04-26T07:27:22.963Z</time></trkpt><trkpt lat="43.816817168792944" lon="12.227639707451072"><ele>356.0</ele><time>2026-04-26T07:27:23.963Z</time></trkpt><trkpt lat="43.816625107677886" lon="12.227497706851143"><ele>356.0</ele><time>2026-04-26T07:27:24.963Z</time></trkpt><trkpt lat="43.81643303055116" lon="12.227358306558566"><ele>356.0</ele><time>2026-04-26T07:27:25.963Z</time></trkpt><trkpt lat="43.81624223095499" lon="12.227222731124025"><ele>357.0</ele><time>2026-04-26T07:27:26.963Z</time></trkpt><trkpt lat="43.81605131293381" lon="12.227084175452482"><ele>358.0</ele><time>2026-04-26T07:27:27.963Z</time></trkpt><trkpt lat="43.815861094621674" lon="12.226946071119444"><ele>359.0</ele><time>2026-04-26T07:27:28.963Z</time></trkpt><trkpt lat="43.81567114134127" lon="12.226811111350804"><ele>359.0</ele><time>2026-04-26T07:27:29.963Z</time></trkpt><trkpt lat="43.81547886020719" lon="12.226674080795716"><ele>359.0</ele><time>2026-04-26T07:27:30.963Z</time></trkpt><trkpt lat="43.81528575088287" lon="12.22653979999773"><ele>359.0</ele><time>2026-04-26T07:27:31.963Z</time></trkpt><trkpt lat="43.815094777163075" lon="12.226406471990432"><ele>360.0</ele><time>2026-04-26T07:27:32.962Z</time></trkpt><trkpt lat="43.81490144006535" lon="12.226270859543543"><ele>361.0</ele><time>2026-04-26T07:27:33.962Z</time></trkpt><trkpt lat="43.81471044260423" lon="12.226132761311717"><ele>362.0</ele><time>2026-04-26T07:27:34.962Z</time></trkpt><trkpt lat="43.81452108454039" lon="12.225992087129681"><ele>362.0</ele><time>2026-04-26T07:27:35.962Z</time></trkpt><trkpt lat="43.81432752855007" lon="12.225853433677"><ele>362.0</ele><time>2026-04-26T07:27:36.963Z</time></trkpt><trkpt lat="43.81413543811763" lon="12.22571272709306"><ele>362.0</ele><time>2026-04-26T07:27:37.963Z</time></trkpt><trkpt lat="43.81395599801201" lon="12.225581192667946"><ele>362.33333333333337</ele><time>2026-04-26T07:27:38.962Z</time></trkpt><trkpt lat="43.81378653410201" lon="12.225461821774722"><ele>362.6666666666667</ele><time>2026-04-26T07:27:39.962Z</time></trkpt><trkpt lat="43.81361019972569" lon="12.225341612337475"><ele>363.0</ele><time>2026-04-26T07:27:40.962Z</time></trkpt><trkpt lat="43.81343829244268" lon="12.225226838230112"><ele>363.0</ele><time>2026-04-26T07:27:41.962Z</time></trkpt><trkpt lat="43.813272615141685" lon="12.225098816921678"><ele>363.0</ele><time>2026-04-26T07:27:42.962Z</time></trkpt><trkpt lat="43.81310724279236" lon="12.224986439930232"><ele>363.0</ele><time>2026-04-26T07:27:43.962Z</time></trkpt><trkpt lat="43.812948331393756" lon="12.224877692335403"><ele>366.6666666666667</ele><time>2026-04-26T07:27:44.962Z</time></trkpt><trkpt lat="43.812784019754105" lon="12.224759098364714"><ele>370.33333333333337</ele><time>2026-04-26T07:27:45.962Z</time></trkpt><trkpt lat="43.81262100360659" lon="12.224640527282371"><ele>374.0</ele><time>2026-04-26T07:27:46.962Z</time></trkpt><trkpt lat="43.812459578500174" lon="12.224532442537233"><ele>374.0</ele><time>2026-04-26T07:27:47.962Z</time></trkpt><trkpt lat="43.8122926955417" lon="12.22441921488207"><ele>374.0</ele><time>2026-04-26T07:27:48.962Z</time></trkpt><trkpt lat="43.81213534243621" lon="12.224285078493274"><ele>374.0</ele><time>2026-04-26T07:27:49.962Z</time></trkpt><trkpt lat="43.81195991986028" lon="12.224185289986476"><ele>371.6666666666667</ele><time>2026-04-26T07:27:50.962Z</time></trkpt><trkpt lat="43.811789244954106" lon="12.224063224282595"><ele>369.3333333333333</ele><time>2026-04-26T07:27:51.962Z</time></trkpt><trkpt lat="43.81161532152493" lon="12.22393355290593"><ele>367.0</ele><time>2026-04-26T07:27:52.962Z</time></trkpt><trkpt lat="43.811449702975956" lon="12.223779394180418"><ele>367.66666666666663</ele><time>2026-04-26T07:27:53.962Z</time></trkpt><trkpt lat="43.81127839802026" lon="12.223621232455079"><ele>368.3333333333333</ele><time>2026-04-26T07:27:54.962Z</time></trkpt><trkpt lat="43.81110837977483" lon="12.223454162043772"><ele>369.0</ele><time>2026-04-26T07:27:55.962Z</time></trkpt><trkpt lat="43.81093519608396" lon="12.223283359120549"><ele>376.0</ele><time>2026-04-26T07:27:56.962Z</time></trkpt><trkpt lat="43.81075626187624" lon="12.223106884768928"><ele>383.0</ele><time>2026-04-26T07:27:57.962Z</time></trkpt><trkpt lat="43.810575783225445" lon="12.222928884425214"><ele>390.0</ele><time>2026-04-26T07:27:58.962Z</time></trkpt><trkpt lat="43.810389891488725" lon="12.222745545326877"><ele>390.0</ele><time>2026-04-26T07:27:59.962Z</time></trkpt><trkpt lat="43.81019104842666" lon="12.222579297761486"><ele>390.0</ele><time>2026-04-26T07:28:00.962Z</time></trkpt><trkpt lat="43.81000180167404" lon="12.222394123252878"><ele>391.0</ele><time>2026-04-26T07:28:01.962Z</time></trkpt><trkpt lat="43.80980974905619" lon="12.222210528136376"><ele>392.0</ele><time>2026-04-26T07:28:02.962Z</time></trkpt><trkpt lat="43.80961441608209" lon="12.222027457387044"><ele>392.0</ele><time>2026-04-26T07:28:03.962Z</time></trkpt><trkpt lat="43.80941791245065" lon="12.221836798114058"><ele>392.0</ele><time>2026-04-26T07:28:04.962Z</time></trkpt><trkpt lat="43.80921884893511" lon="12.221642897942719"><ele>390.0</ele><time>2026-04-26T07:28:05.962Z</time></trkpt><trkpt lat="43.809016272622806" lon="12.221444588979411"><ele>388.0</ele><time>2026-04-26T07:28:06.962Z</time></trkpt><trkpt lat="43.8088154150047" lon="12.221247322547164"><ele>388.0</ele><time>2026-04-26T07:28:07.962Z</time></trkpt><trkpt lat="43.80861636860571" lon="12.221052334324359"><ele>388.0</ele><time>2026-04-26T07:28:08.962Z</time></trkpt><trkpt lat="43.80843073820796" lon="12.220868911870543"><ele>381.5</ele><time>2026-04-26T07:28:09.962Z</time></trkpt><trkpt lat="43.80824714574723" lon="12.220691991786717"><ele>375.0</ele><time>2026-04-26T07:28:10.962Z</time></trkpt><trkpt lat="43.808048993790784" lon="12.220536178693093"><ele>372.5</ele><time>2026-04-26T07:28:11.962Z</time></trkpt><trkpt lat="43.80783960492628" lon="12.220406722302393"><ele>370.0</ele><time>2026-04-26T07:28:12.962Z</time></trkpt><trkpt lat="43.80762316302994" lon="12.220287100949845"><ele>370.0</ele><time>2026-04-26T07:28:13.962Z</time></trkpt><trkpt lat="43.807403580683285" lon="12.220170139710355"><ele>370.0</ele><time>2026-04-26T07:28:14.962Z</time></trkpt><trkpt lat="43.80718256720957" lon="12.22005120670572"><ele>370.0</ele><time>2026-04-26T07:28:15.962Z</time></trkpt><trkpt lat="43.80695303160059" lon="12.219923786660717"><ele>370.0</ele><time>2026-04-26T07:28:16.962Z</time></trkpt><trkpt lat="43.80672048850972" lon="12.21979841556034"><ele>374.5</ele><time>2026-04-26T07:28:17.962Z</time></trkpt><trkpt lat="43.80648828513249" lon="12.219672765790422"><ele>379.0</ele><time>2026-04-26T07:28:18.962Z</time></trkpt><trkpt lat="43.80625898606158" lon="12.219548878433132"><ele>379.0</ele><time>2026-04-26T07:28:19.962Z</time></trkpt><trkpt lat="43.80603320277157" lon="12.219425031861102"><ele>379.0</ele><time>2026-04-26T07:28:20.962Z</time></trkpt><trkpt lat="43.80580962569673" lon="12.219301867641391"><ele>379.0</ele><time>2026-04-26T07:28:21.962Z</time></trkpt><trkpt lat="43.80558380601002" lon="12.219181265674784"><ele>379.0</ele><time>2026-04-26T07:28:22.962Z</time></trkpt><trkpt lat="43.80536150512658" lon="12.219065396194404"><ele>388.5</ele><time>2026-04-26T07:28:23.962Z</time></trkpt><trkpt lat="43.80514085510569" lon="12.21894789383277"><ele>398.0</ele><time>2026-04-26T07:28:24.962Z</time></trkpt><trkpt lat="43.804932080409" lon="12.218835578556849"><ele>398.0</ele><time>2026-04-26T07:28:25.962Z</time></trkpt><trkpt lat="43.80474057199056" lon="12.218733594462762"><ele>398.0</ele><time>2026-04-26T07:28:26.962Z</time></trkpt><trkpt lat="43.80455918115569" lon="12.218636194167395"><ele>398.0</ele><time>2026-04-26T07:28:27.962Z</time></trkpt><trkpt lat="43.80438839738976" lon="12.218539751402943"><ele>391.0</ele><time>2026-04-26T07:28:28.962Z</time></trkpt><trkpt lat="43.80423577108689" lon="12.218444996768724"><ele>384.0</ele><time>2026-04-26T07:28:29.962Z</time></trkpt><trkpt lat="43.804091941279154" lon="12.21833551739111"><ele>377.0</ele><time>2026-04-26T07:28:30.962Z</time></trkpt><trkpt lat="43.803964226143925" lon="12.218183072315352"><ele>380.33333333333337</ele><time>2026-04-26T07:28:31.962Z</time></trkpt><trkpt lat="43.803868883691976" lon="12.217994901110464"><ele>383.6666666666667</ele><time>2026-04-26T07:28:32.962Z</time></trkpt><trkpt lat="43.80380854049202" lon="12.217777120178813"><ele>387.0</ele><time>2026-04-26T07:28:33.962Z</time></trkpt><trkpt lat="43.80378017140675" lon="12.217552856365716"><ele>388.0</ele><time>2026-04-26T07:28:34.962Z</time></trkpt><trkpt lat="43.80378055996539" lon="12.217311298961397"><ele>389.0</ele><time>2026-04-26T07:28:35.962Z</time></trkpt><trkpt lat="43.803806807503044" lon="12.217057062152298"><ele>390.0</ele><time>2026-04-26T07:28:36.962Z</time></trkpt><trkpt lat="43.80384328390277" lon="12.216787562997684"><ele>390.0</ele><time>2026-04-26T07:28:37.962Z</time></trkpt><trkpt lat="43.80388676893128" lon="12.216505774383723"><ele>390.0</ele><time>2026-04-26T07:28:38.962Z</time></trkpt><trkpt lat="43.80392909502036" lon="12.216208299846837"><ele>390.0</ele><time>2026-04-26T07:28:39.962Z</time></trkpt><trkpt lat="43.80396986226604" lon="12.215902845762983"><ele>389.66666666666663</ele><time>2026-04-26T07:28:40.962Z</time></trkpt><trkpt lat="43.804007536679094" lon="12.21560215063889"><ele>389.3333333333333</ele><time>2026-04-26T07:28:41.962Z</time></trkpt><trkpt lat="43.804036249649876" lon="12.215294586851082"><ele>389.0</ele><time>2026-04-26T07:28:42.962Z</time></trkpt><trkpt lat="43.804054067184055" lon="12.214988965491614"><ele>389.0</ele><time>2026-04-26T07:28:43.962Z</time></trkpt><trkpt lat="43.80406609964299" lon="12.214681171805504"><ele>389.0</ele><time>2026-04-26T07:28:44.962Z</time></trkpt><trkpt lat="43.80407930605771" lon="12.214378270984783"><ele>389.0</ele><time>2026-04-26T07:28:45.962Z</time></trkpt><trkpt lat="43.804081065189216" lon="12.214109768298957"><ele>388.0</ele><time>2026-04-26T07:28:46.962Z</time></trkpt><trkpt lat="43.80409048657268" lon="12.21384711304141"><ele>387.0</ele><time>2026-04-26T07:28:47.962Z</time></trkpt><trkpt lat="43.804115126576974" lon="12.213592151941645"><ele>386.0</ele><time>2026-04-26T07:28:48.962Z</time></trkpt><trkpt lat="43.80417213296495" lon="12.213340980953417"><ele>384.66666666666663</ele><time>2026-04-26T07:28:49.962Z</time></trkpt><trkpt lat="43.80427290540182" lon="12.213101154291804"><ele>383.3333333333333</ele><time>2026-04-26T07:28:50.962Z</time></trkpt><trkpt lat="43.80439361854482" lon="12.212858131192556"><ele>382.0</ele><time>2026-04-26T07:28:51.962Z</time></trkpt><trkpt lat="43.80452822182286" lon="12.212607009353318"><ele>388.0</ele><time>2026-04-26T07:28:52.962Z</time></trkpt><trkpt lat="43.80465660193472" lon="12.212345189516967"><ele>394.0</ele><time>2026-04-26T07:28:53.962Z</time></trkpt><trkpt lat="43.804782606305395" lon="12.212087356037264"><ele>394.0</ele><time>2026-04-26T07:28:54.962Z</time></trkpt><trkpt lat="43.804910013601045" lon="12.211828780704945"><ele>394.0</ele><time>2026-04-26T07:28:55.962Z</time></trkpt><trkpt lat="43.805038609036515" lon="12.211579789068718"><ele>394.0</ele><time>2026-04-26T07:28:56.962Z</time></trkpt><trkpt lat="43.80516806595366" lon="12.211331008007345"><ele>396.0</ele><time>2026-04-26T07:28:57.962Z</time></trkpt><trkpt lat="43.80529089922407" lon="12.211082626288572"><ele>398.0</ele><time>2026-04-26T07:28:58.962Z</time></trkpt><trkpt lat="43.80541155995081" lon="12.210842150462195"><ele>400.0</ele><time>2026-04-26T07:28:59.962Z</time></trkpt><trkpt lat="43.80552911907919" lon="12.210608589068944"><ele>400.0</ele><time>2026-04-26T07:29:00.962Z</time></trkpt><trkpt lat="43.80564421201149" lon="12.210383037529207"><ele>400.0</ele><time>2026-04-26T07:29:01.962Z</time></trkpt><trkpt lat="43.80575196213049" lon="12.210147112826366"><ele>400.0</ele><time>2026-04-26T07:29:02.962Z</time></trkpt><trkpt lat="43.805853894513376" lon="12.209902929985924"><ele>397.6666666666667</ele><time>2026-04-26T07:29:03.962Z</time></trkpt><trkpt lat="43.80592895438589" lon="12.209636705557992"><ele>395.33333333333337</ele><time>2026-04-26T07:29:04.962Z</time></trkpt><trkpt lat="43.80602571109749" lon="12.209373921905383"><ele>393.0</ele><time>2026-04-26T07:29:05.962Z</time></trkpt><trkpt lat="43.80609107256723" lon="12.209100841573482"><ele>399.66666666666663</ele><time>2026-04-26T07:29:06.962Z</time></trkpt><trkpt lat="43.80615385875781" lon="12.20882826650611"><ele>406.3333333333333</ele><time>2026-04-26T07:29:07.962Z</time></trkpt><trkpt lat="43.80620136891535" lon="12.208555937153845"><ele>413.0</ele><time>2026-04-26T07:29:08.962Z</time></trkpt><trkpt lat="43.806217553909704" lon="12.208267534508241"><ele>414.0</ele><time>2026-04-26T07:29:09.962Z</time></trkpt><trkpt lat="43.80620590854599" lon="12.207975090733838"><ele>415.0</ele><time>2026-04-26T07:29:10.962Z</time></trkpt><trkpt lat="43.80618406480546" lon="12.207674813599374"><ele>416.0</ele><time>2026-04-26T07:29:11.962Z</time></trkpt><trkpt lat="43.80614077296888" lon="12.207382327518655"><ele>415.0</ele><time>2026-04-26T07:29:12.962Z</time></trkpt><trkpt lat="43.80612527255699" lon="12.207097546539318"><ele>414.0</ele><time>2026-04-26T07:29:13.962Z</time></trkpt><trkpt lat="43.80612350286214" lon="12.20681657962165"><ele>413.0</ele><time>2026-04-26T07:29:14.962Z</time></trkpt><trkpt lat="43.806152216071666" lon="12.206539247222434"><ele>412.3333333333333</ele><time>2026-04-26T07:29:15.962Z</time></trkpt><trkpt lat="43.806208495073264" lon="12.206260845317955"><ele>411.66666666666663</ele><time>2026-04-26T07:29:16.962Z</time></trkpt><trkpt lat="43.806296606907196" lon="12.205997967787377"><ele>411.0</ele><time>2026-04-26T07:29:17.962Z</time></trkpt><trkpt lat="43.80636257442776" lon="12.20571540673927"><ele>409.33333333333337</ele><time>2026-04-26T07:29:18.962Z</time></trkpt><trkpt lat="43.80642893489861" lon="12.205432388693733"><ele>407.6666666666667</ele><time>2026-04-26T07:29:19.962Z</time></trkpt><trkpt lat="43.80649553427707" lon="12.205148351759636"><ele>406.0</ele><time>2026-04-26T07:29:20.962Z</time></trkpt><trkpt lat="43.806563859445795" lon="12.204859875776002"><ele>406.6666666666667</ele><time>2026-04-26T07:29:21.962Z</time></trkpt><trkpt lat="43.80662882558544" lon="12.204588822220868"><ele>407.33333333333337</ele><time>2026-04-26T07:29:22.962Z</time></trkpt><trkpt lat="43.80668900483717" lon="12.204350766652395"><ele>408.0</ele><time>2026-04-26T07:29:23.962Z</time></trkpt><trkpt lat="43.80672634777211" lon="12.204125284016202"><ele>408.66666666666663</ele><time>2026-04-26T07:29:24.962Z</time></trkpt><trkpt lat="43.806746616354694" lon="12.20390415799775"><ele>409.3333333333333</ele><time>2026-04-26T07:29:25.962Z</time></trkpt><trkpt lat="43.80673545937867" lon="12.203673610927792"><ele>410.0</ele><time>2026-04-26T07:29:26.962Z</time></trkpt><trkpt lat="43.80670132515584" lon="12.203416799933752"><ele>414.0</ele><time>2026-04-26T07:29:27.962Z</time></trkpt><trkpt lat="43.806669608183434" lon="12.203163079364524"><ele>418.0</ele><time>2026-04-26T07:29:28.962Z</time></trkpt><trkpt lat="43.80665505803187" lon="12.20292323464102"><ele>422.0</ele><time>2026-04-26T07:29:29.962Z</time></trkpt><trkpt lat="43.806656523325884" lon="12.202691432220266"><ele>422.0</ele><time>2026-04-26T07:29:30.962Z</time></trkpt><trkpt lat="43.80666989694954" lon="12.202438311671674"><ele>422.0</ele><time>2026-04-26T07:29:31.961Z</time></trkpt><trkpt lat="43.80670020395305" lon="12.202186587537613"><ele>422.0</ele><time>2026-04-26T07:29:32.961Z</time></trkpt><trkpt lat="43.8067484646379" lon="12.201910926254238"><ele>421.3333333333333</ele><time>2026-04-26T07:29:33.961Z</time></trkpt><trkpt lat="43.80678469396031" lon="12.20163998281984"><ele>420.66666666666663</ele><time>2026-04-26T07:29:34.961Z</time></trkpt><trkpt lat="43.806825484336656" lon="12.201360965682769"><ele>420.0</ele><time>2026-04-26T07:29:35.961Z</time></trkpt><trkpt lat="43.80686247495081" lon="12.201101981338647"><ele>426.0</ele><time>2026-04-26T07:29:36.961Z</time></trkpt><trkpt lat="43.80687926387347" lon="12.200840096118712"><ele>432.0</ele><time>2026-04-26T07:29:37.961Z</time></trkpt><trkpt lat="43.80687176168823" lon="12.200566741906584"><ele>438.0</ele><time>2026-04-26T07:29:38.961Z</time></trkpt><trkpt lat="43.80685155964758" lon="12.20030015068753"><ele>438.0</ele><time>2026-04-26T07:29:39.961Z</time></trkpt><trkpt lat="43.80688160949565" lon="12.20002942462497"><ele>438.0</ele><time>2026-04-26T07:29:40.961Z</time></trkpt><trkpt lat="43.80691292828021" lon="12.19974053540692"><ele>438.0</ele><time>2026-04-26T07:29:41.961Z</time></trkpt><trkpt lat="43.806948229914525" lon="12.199441570108744"><ele>429.5</ele><time>2026-04-26T07:29:42.96Z</time></trkpt><trkpt lat="43.8069533658703" lon="12.199132148204827"><ele>421.0</ele><time>2026-04-26T07:29:43.96Z</time></trkpt><trkpt lat="43.80697441228322" lon="12.1988140018707"><ele>419.33333333333337</ele><time>2026-04-26T07:29:44.96Z</time></trkpt><trkpt lat="43.80699461599966" lon="12.198502045954498"><ele>417.66666666666663</ele><time>2026-04-26T07:29:45.961Z</time></trkpt><trkpt lat="43.8070153475937" lon="12.198194260963925"><ele>416.0</ele><time>2026-04-26T07:29:46.961Z</time></trkpt><trkpt lat="43.80703420780766" lon="12.197901272016058"><ele>415.66666666666663</ele><time>2026-04-26T07:29:47.961Z</time></trkpt><trkpt lat="43.807038172043626" lon="12.197613798655963"><ele>415.33333333333337</ele><time>2026-04-26T07:29:48.96Z</time></trkpt><trkpt lat="43.807021153155304" lon="12.197316826986508"><ele>415.0</ele><time>2026-04-26T07:29:49.96Z</time></trkpt><trkpt lat="43.806968861072484" lon="12.197026142616457"><ele>422.0</ele><time>2026-04-26T07:29:50.961Z</time></trkpt><trkpt lat="43.80692425246591" lon="12.19671458352364"><ele>429.0</ele><time>2026-04-26T07:29:51.961Z</time></trkpt><trkpt lat="43.806868748456964" lon="12.196405063907537"><ele>427.0</ele><time>2026-04-26T07:29:52.961Z</time></trkpt><trkpt lat="43.80680998851469" lon="12.19607984916042"><ele>425.0</ele><time>2026-04-26T07:29:53.961Z</time></trkpt><trkpt lat="43.80671035205119" lon="12.19575990383948"><ele>427.5</ele><time>2026-04-26T07:29:54.961Z</time></trkpt><trkpt lat="43.80663892485406" lon="12.195425177018643"><ele>430.0</ele><time>2026-04-26T07:29:55.961Z</time></trkpt><trkpt lat="43.806566247632425" lon="12.195095401619332"><ele>437.5</ele><time>2026-04-26T07:29:56.961Z</time></trkpt><trkpt lat="43.80649587907562" lon="12.194782542938915"><ele>445.0</ele><time>2026-04-26T07:29:57.961Z</time></trkpt><trkpt lat="43.80643199897489" lon="12.194490367019513"><ele>445.0</ele><time>2026-04-26T07:29:58.961Z</time></trkpt><trkpt lat="43.80637421806999" lon="12.194222858088652"><ele>445.0</ele><time>2026-04-26T07:29:59.961Z</time></trkpt><trkpt lat="43.80632007993252" lon="12.193975780583772"><ele>445.0</ele><time>2026-04-26T07:30:00.961Z</time></trkpt><trkpt lat="43.80627990619941" lon="12.193744940824981"><ele>444.0</ele><time>2026-04-26T07:30:01.961Z</time></trkpt><trkpt lat="43.80626738495363" lon="12.193506104200068"><ele>443.0</ele><time>2026-04-26T07:30:02.961Z</time></trkpt><trkpt lat="43.80629241372299" lon="12.193261751008983"><ele>442.0</ele><time>2026-04-26T07:30:03.961Z</time></trkpt><trkpt lat="43.80631985118078" lon="12.193013549269217"><ele>442.0</ele><time>2026-04-26T07:30:04.961Z</time></trkpt><trkpt lat="43.80632447057801" lon="12.192778696369894"><ele>442.0</ele><time>2026-04-26T07:30:05.961Z</time></trkpt><trkpt lat="43.80628354145001" lon="12.192540288372749"><ele>442.0</ele><time>2026-04-26T07:30:06.961Z</time></trkpt><trkpt lat="43.80621016937151" lon="12.192296894979659"><ele>442.0</ele><time>2026-04-26T07:30:07.961Z</time></trkpt><trkpt lat="43.806126939400784" lon="12.192038350664221"><ele>442.0</ele><time>2026-04-26T07:30:08.961Z</time></trkpt><trkpt lat="43.80604291454098" lon="12.191753253622032"><ele>442.0</ele><time>2026-04-26T07:30:09.961Z</time></trkpt><trkpt lat="43.80595721797571" lon="12.19146405648119"><ele>437.0</ele><time>2026-04-26T07:30:10.961Z</time></trkpt><trkpt lat="43.80587363762657" lon="12.191169501414892"><ele>432.0</ele><time>2026-04-26T07:30:11.961Z</time></trkpt><trkpt lat="43.80578568703221" lon="12.190865000843466"><ele>433.5</ele><time>2026-04-26T07:30:12.961Z</time></trkpt><trkpt lat="43.80569653542397" lon="12.1905564070977"><ele>435.0</ele><time>2026-04-26T07:30:13.961Z</time></trkpt><trkpt lat="43.80560839311182" lon="12.190248005377432"><ele>435.0</ele><time>2026-04-26T07:30:14.961Z</time></trkpt><trkpt lat="43.80551752368817" lon="12.189938228236313"><ele>435.0</ele><time>2026-04-26T07:30:15.961Z</time></trkpt><trkpt lat="43.805428907674006" lon="12.189627356634979"><ele>442.0</ele><time>2026-04-26T07:30:16.961Z</time></trkpt><trkpt lat="43.805338721001526" lon="12.189315429216713"><ele>449.0</ele><time>2026-04-26T07:30:17.961Z</time></trkpt><trkpt lat="43.805248271285784" lon="12.18900116348007"><ele>442.0</ele><time>2026-04-26T07:30:18.961Z</time></trkpt><trkpt lat="43.80515712007472" lon="12.188682593997529"><ele>435.0</ele><time>2026-04-26T07:30:19.961Z</time></trkpt><trkpt lat="43.8050673670926" lon="12.188359614079372"><ele>441.0</ele><time>2026-04-26T07:30:20.961Z</time></trkpt><trkpt lat="43.80497353226046" lon="12.188033480413766"><ele>447.0</ele><time>2026-04-26T07:30:21.961Z</time></trkpt><trkpt lat="43.80488017228213" lon="12.187713429985331"><ele>447.0</ele><time>2026-04-26T07:30:22.961Z</time></trkpt><trkpt lat="43.80478518588938" lon="12.187388383266708"><ele>447.0</ele><time>2026-04-26T07:30:23.961Z</time></trkpt><trkpt lat="43.80469304285277" lon="12.187064800757947"><ele>455.0</ele><time>2026-04-26T07:30:24.961Z</time></trkpt><trkpt lat="43.804603984488566" lon="12.18674441009454"><ele>463.0</ele><time>2026-04-26T07:30:25.961Z</time></trkpt><trkpt lat="43.804516388372285" lon="12.186428668027553"><ele>469.0</ele><time>2026-04-26T07:30:26.961Z</time></trkpt><trkpt lat="43.80442638457002" lon="12.1861166818535"><ele>475.0</ele><time>2026-04-26T07:30:27.961Z</time></trkpt><trkpt lat="43.80433954263933" lon="12.185808197236632"><ele>462.5</ele><time>2026-04-26T07:30:28.961Z</time></trkpt><trkpt lat="43.80425111905785" lon="12.185499778352787"><ele>450.0</ele><time>2026-04-26T07:30:29.961Z</time></trkpt><trkpt lat="43.80416266423431" lon="12.1851877607385"><ele>450.0</ele><time>2026-04-26T07:30:30.961Z</time></trkpt><trkpt lat="43.804075342830565" lon="12.18487593796073"><ele>450.0</ele><time>2026-04-26T07:30:31.961Z</time></trkpt><trkpt lat="43.80398776809223" lon="12.184567928307763"><ele>452.0</ele><time>2026-04-26T07:30:32.961Z</time></trkpt><trkpt lat="43.80390148087412" lon="12.184264932519305"><ele>454.0</ele><time>2026-04-26T07:30:33.961Z</time></trkpt><trkpt lat="43.80381738603348" lon="12.183970099001638"><ele>454.33333333333337</ele><time>2026-04-26T07:30:34.961Z</time></trkpt><trkpt lat="43.80373898718073" lon="12.1836826758829"><ele>454.66666666666663</ele><time>2026-04-26T07:30:35.961Z</time></trkpt><trkpt lat="43.80365858635763" lon="12.1834034045614"><ele>455.0</ele><time>2026-04-26T07:30:36.961Z</time></trkpt><trkpt lat="43.80357904091148" lon="12.18312794812033"><ele>454.0</ele><time>2026-04-26T07:30:37.961Z</time></trkpt><trkpt lat="43.803506505929114" lon="12.182863547839155"><ele>453.0</ele><time>2026-04-26T07:30:38.961Z</time></trkpt><trkpt lat="43.80343103353931" lon="12.18259434259624"><ele>452.0</ele><time>2026-04-26T07:30:39.961Z</time></trkpt><trkpt lat="43.80335677406756" lon="12.182332090283277"><ele>452.0</ele><time>2026-04-26T07:30:40.961Z</time></trkpt><trkpt lat="43.80328126770828" lon="12.182069540776824"><ele>452.0</ele><time>2026-04-26T07:30:41.961Z</time></trkpt><trkpt lat="43.80321788857932" lon="12.181832337636314"><ele>452.0</ele><time>2026-04-26T07:30:42.961Z</time></trkpt><trkpt lat="43.80314620129414" lon="12.18162027688557"><ele>454.0</ele><time>2026-04-26T07:30:43.961Z</time></trkpt><trkpt lat="43.80306270964889" lon="12.1814179822245"><ele>456.0</ele><time>2026-04-26T07:30:44.961Z</time></trkpt><trkpt lat="43.80293624830897" lon="12.181227526210593"><ele>458.0</ele><time>2026-04-26T07:30:45.961Z</time></trkpt><trkpt lat="43.80278260210026" lon="12.181044364042503"><ele>459.3333333333333</ele><time>2026-04-26T07:30:46.961Z</time></trkpt><trkpt lat="43.802610578060985" lon="12.180863429338677"><ele>460.66666666666663</ele><time>2026-04-26T07:30:47.961Z</time></trkpt><trkpt lat="43.80244151032784" lon="12.180661405241784"><ele>462.0</ele><time>2026-04-26T07:30:48.961Z</time></trkpt><trkpt lat="43.80227218967281" lon="12.180449944524302"><ele>462.0</ele><time>2026-04-26T07:30:49.961Z</time></trkpt><trkpt lat="43.80209822610357" lon="12.180223760521393"><ele>462.0</ele><time>2026-04-26T07:30:50.961Z</time></trkpt><trkpt lat="43.80192344833697" lon="12.180000848246392"><ele>460.5</ele><time>2026-04-26T07:30:51.961Z</time></trkpt><trkpt lat="43.80174687461735" lon="12.179778842712397"><ele>459.0</ele><time>2026-04-26T07:30:52.96Z</time></trkpt><trkpt lat="43.80155620819514" lon="12.17955334598017"><ele>459.0</ele><time>2026-04-26T07:30:53.96Z</time></trkpt><trkpt lat="43.801379060819485" lon="12.179327451248376"><ele>459.0</ele><time>2026-04-26T07:30:54.96Z</time></trkpt><trkpt lat="43.80120922847551" lon="12.179114570354997"><ele>459.66666666666663</ele><time>2026-04-26T07:30:55.96Z</time></trkpt><trkpt lat="43.801042739215184" lon="12.178900972130043"><ele>460.3333333333333</ele><time>2026-04-26T07:30:56.96Z</time></trkpt><trkpt lat="43.80088396531003" lon="12.178700477219527"><ele>461.0</ele><time>2026-04-26T07:30:57.96Z</time></trkpt><trkpt lat="43.800732569737235" lon="12.17851401980634"><ele>461.0</ele><time>2026-04-26T07:30:58.96Z</time></trkpt><trkpt lat="43.80060149291628" lon="12.178337282843545"><ele>461.0</ele><time>2026-04-26T07:30:59.96Z</time></trkpt><trkpt lat="43.800509275240245" lon="12.178161867023272"><ele>461.0</ele><time>2026-04-26T07:31:00.96Z</time></trkpt><trkpt lat="43.800472074972376" lon="12.177982880395646"><ele>463.66666666666663</ele><time>2026-04-26T07:31:01.96Z</time></trkpt><trkpt lat="43.80045920394703" lon="12.177774723820443"><ele>466.33333333333337</ele><time>2026-04-26T07:31:02.96Z</time></trkpt><trkpt lat="43.800417000510066" lon="12.177534531049096"><ele>469.0</ele><time>2026-04-26T07:31:03.96Z</time></trkpt><trkpt lat="43.800394020295066" lon="12.1772809247735"><ele>471.6666666666667</ele><time>2026-04-26T07:31:04.96Z</time></trkpt><trkpt lat="43.8003327045756" lon="12.17701561809288"><ele>474.33333333333337</ele><time>2026-04-26T07:31:05.96Z</time></trkpt><trkpt lat="43.800235082110355" lon="12.176739573584532"><ele>477.0</ele><time>2026-04-26T07:31:06.96Z</time></trkpt><trkpt lat="43.80012224909925" lon="12.176454106663515"><ele>479.5</ele><time>2026-04-26T07:31:07.96Z</time></trkpt><trkpt lat="43.8000188751146" lon="12.17616363715709"><ele>482.0</ele><time>2026-04-26T07:31:08.96Z</time></trkpt><trkpt lat="43.79992101064826" lon="12.17586965182031"><ele>489.0</ele><time>2026-04-26T07:31:09.96Z</time></trkpt><trkpt lat="43.799822374671294" lon="12.17557672909853"><ele>496.0</ele><time>2026-04-26T07:31:10.96Z</time></trkpt><trkpt lat="43.79972264787805" lon="12.175281410785185"><ele>496.0</ele><time>2026-04-26T07:31:11.96Z</time></trkpt><trkpt lat="43.79962481740507" lon="12.174994703710453"><ele>496.0</ele><time>2026-04-26T07:31:12.96Z</time></trkpt><trkpt lat="43.799527338431986" lon="12.174710421189584"><ele>498.33333333333337</ele><time>2026-04-26T07:31:13.96Z</time></trkpt><trkpt lat="43.79943529489235" lon="12.174440417276486"><ele>500.66666666666663</ele><time>2026-04-26T07:31:14.96Z</time></trkpt><trkpt lat="43.799342445196615" lon="12.174157245600961"><ele>503.0</ele><time>2026-04-26T07:31:15.96Z</time></trkpt><trkpt lat="43.79924500412361" lon="12.17389545488307"><ele>504.0</ele><time>2026-04-26T07:31:16.96Z</time></trkpt><trkpt lat="43.79913357135564" lon="12.173634894693041"><ele>505.0</ele><time>2026-04-26T07:31:17.96Z</time></trkpt><trkpt lat="43.799002663214665" lon="12.173381207648694"><ele>506.0</ele><time>2026-04-26T07:31:18.96Z</time></trkpt><trkpt lat="43.79884579441031" lon="12.17314181372812"><ele>506.0</ele><time>2026-04-26T07:31:19.96Z</time></trkpt><trkpt lat="43.798692225141636" lon="12.17288703460195"><ele>506.0</ele><time>2026-04-26T07:31:20.96Z</time></trkpt><trkpt lat="43.79854351542061" lon="12.172624239450874"><ele>496.0</ele><time>2026-04-26T07:31:21.96Z</time></trkpt><trkpt lat="43.7983940619822" lon="12.172356941076504"><ele>486.0</ele><time>2026-04-26T07:31:22.96Z</time></trkpt><trkpt lat="43.79825052777079" lon="12.172099804865583"><ele>486.0</ele><time>2026-04-26T07:31:23.96Z</time></trkpt><trkpt lat="43.79810579216995" lon="12.17184075180856"><ele>486.0</ele><time>2026-04-26T07:31:24.96Z</time></trkpt><trkpt lat="43.79796714439805" lon="12.171590223016453"><ele>500.5</ele><time>2026-04-26T07:31:25.96Z</time></trkpt><trkpt lat="43.79782449322234" lon="12.171338782923259"><ele>515.0</ele><time>2026-04-26T07:31:26.96Z</time></trkpt><trkpt lat="43.797686971541204" lon="12.171093203959874"><ele>515.3333333333333</ele><time>2026-04-26T07:31:27.96Z</time></trkpt><trkpt lat="43.79754970909918" lon="12.17084659030178"><ele>515.6666666666666</ele><time>2026-04-26T07:31:28.96Z</time></trkpt><trkpt lat="43.797412652765935" lon="12.170605779978477"><ele>516.0</ele><time>2026-04-26T07:31:29.96Z</time></trkpt><trkpt lat="43.79728901947293" lon="12.170371322080253"><ele>516.0</ele><time>2026-04-26T07:31:30.96Z</time></trkpt><trkpt lat="43.79720025409402" lon="12.170120223123664"><ele>516.0</ele><time>2026-04-26T07:31:31.96Z</time></trkpt><trkpt lat="43.79709923551576" lon="12.16988086217118"><ele>516.0</ele><time>2026-04-26T07:31:32.96Z</time></trkpt><trkpt lat="43.797026060370555" lon="12.169630256930336"><ele>519.6</ele><time>2026-04-26T07:31:33.96Z</time></trkpt><trkpt lat="43.796956222145404" lon="12.169437824922545"><ele>523.2</ele><time>2026-04-26T07:31:34.96Z</time></trkpt><trkpt lat="43.79691200960305" lon="12.169320376638458"><ele>526.8</ele><time>2026-04-26T07:31:35.96Z</time></trkpt><trkpt lat="43.79686553089376" lon="12.16924576720624"><ele>530.4</ele><time>2026-04-26T07:31:36.96Z</time></trkpt><trkpt lat="43.79680791941883" lon="12.169206075391315"><ele>534.0</ele><time>2026-04-26T07:31:37.96Z</time></trkpt><trkpt lat="43.796705837277464" lon="12.169210048195527"><ele>523.0</ele><time>2026-04-26T07:31:38.96Z</time></trkpt><trkpt lat="43.79658572304329" lon="12.169246510473053"><ele>512.0</ele><time>2026-04-26T07:31:39.96Z</time></trkpt><trkpt lat="43.79645187554076" lon="12.169279035670776"><ele>501.0</ele><time>2026-04-26T07:31:40.96Z</time></trkpt><trkpt lat="43.79630208157274" lon="12.169305333425177"><ele>490.0</ele><time>2026-04-26T07:31:41.96Z</time></trkpt><trkpt lat="43.79613236449962" lon="12.169335960071518"><ele>488.0</ele><time>2026-04-26T07:31:42.96Z</time></trkpt><trkpt lat="43.795955311405564" lon="12.169362881858993"><ele>486.0</ele><time>2026-04-26T07:31:43.96Z</time></trkpt><trkpt lat="43.79577016926378" lon="12.169389968453524"><ele>484.0</ele><time>2026-04-26T07:31:44.959Z</time></trkpt><trkpt lat="43.7955784192818" lon="12.169423147785986"><ele>484.0</ele><time>2026-04-26T07:31:45.959Z</time></trkpt><trkpt lat="43.795392829874196" lon="12.169450485463697"><ele>484.0</ele><time>2026-04-26T07:31:46.959Z</time></trkpt><trkpt lat="43.795222055853266" lon="12.169478160081939"><ele>484.0</ele><time>2026-04-26T07:31:47.959Z</time></trkpt><trkpt lat="43.79506508048318" lon="12.169503847709837"><ele>486.2</ele><time>2026-04-26T07:31:48.96Z</time></trkpt><trkpt lat="43.79493033369229" lon="12.169493629344105"><ele>488.4</ele><time>2026-04-26T07:31:49.96Z</time></trkpt><trkpt lat="43.79484298443613" lon="12.16944232574632"><ele>490.6</ele><time>2026-04-26T07:31:50.959Z</time></trkpt><trkpt lat="43.794776247159234" lon="12.169373042856423"><ele>492.8</ele><time>2026-04-26T07:31:51.959Z</time></trkpt><trkpt lat="43.79474518471327" lon="12.169249516617437"><ele>495.0</ele><time>2026-04-26T07:31:52.959Z</time></trkpt><trkpt lat="43.79473250884359" lon="12.169093623797382"><ele>495.75</ele><time>2026-04-26T07:31:53.96Z</time></trkpt><trkpt lat="43.794790114232235" lon="12.168932343959804"><ele>496.5</ele><time>2026-04-26T07:31:54.959Z</time></trkpt><trkpt lat="43.79487582033908" lon="12.1687807896203"><ele>497.25</ele><time>2026-04-26T07:31:55.959Z</time></trkpt><trkpt lat="43.794936999741196" lon="12.16861045276002"><ele>498.0</ele><time>2026-04-26T07:31:56.959Z</time></trkpt><trkpt lat="43.79497519242076" lon="12.168438609245635"><ele>498.0</ele><time>2026-04-26T07:31:57.959Z</time></trkpt><trkpt lat="43.794961673461806" lon="12.16827244181044"><ele>498.0</ele><time>2026-04-26T07:31:58.959Z</time></trkpt><trkpt lat="43.79489453425939" lon="12.168127585128687"><ele>498.0</ele><time>2026-04-26T07:31:59.959Z</time></trkpt><trkpt lat="43.79477710272451" lon="12.168023314095072"><ele>498.0</ele><time>2026-04-26T07:32:00.959Z</time></trkpt><trkpt lat="43.79462992595142" lon="12.167943638767689"><ele>496.75</ele><time>2026-04-26T07:32:01.959Z</time></trkpt><trkpt lat="43.79450652704643" lon="12.167831782901386"><ele>495.5</ele><time>2026-04-26T07:32:02.959Z</time></trkpt><trkpt lat="43.794429980863235" lon="12.167693113701196"><ele>494.25</ele><time>2026-04-26T07:32:03.959Z</time></trkpt><trkpt lat="43.79436986509122" lon="12.167508323034124"><ele>493.0</ele><time>2026-04-26T07:32:04.959Z</time></trkpt><trkpt lat="43.7942853333862" lon="12.167339262722184"><ele>495.5</ele><time>2026-04-26T07:32:05.959Z</time></trkpt><trkpt lat="43.79421396370302" lon="12.167153065953947"><ele>498.0</ele><time>2026-04-26T07:32:06.959Z</time></trkpt><trkpt lat="43.794139322299245" lon="12.166978735147339"><ele>500.5</ele><time>2026-04-26T07:32:07.959Z</time></trkpt><trkpt lat="43.79402054485142" lon="12.166870623534527"><ele>503.0</ele><time>2026-04-26T07:32:08.959Z</time></trkpt><trkpt lat="43.793875158547664" lon="12.166808486112457"><ele>503.0</ele><time>2026-04-26T07:32:09.959Z</time></trkpt><trkpt lat="43.79370863898584" lon="12.166786307785639"><ele>503.0</ele><time>2026-04-26T07:32:10.959Z</time></trkpt><trkpt lat="43.79354047798283" lon="12.166765036118974"><ele>503.0</ele><time>2026-04-26T07:32:11.959Z</time></trkpt><trkpt lat="43.793369270368295" lon="12.166731121258074"><ele>504.66666666666663</ele><time>2026-04-26T07:32:12.959Z</time></trkpt><trkpt lat="43.79321916219604" lon="12.166635610673548"><ele>506.33333333333337</ele><time>2026-04-26T07:32:13.959Z</time></trkpt><trkpt lat="43.79305844221562" lon="12.166526764895114"><ele>508.0</ele><time>2026-04-26T07:32:14.959Z</time></trkpt><trkpt lat="43.79290540622931" lon="12.166393569537655"><ele>508.0</ele><time>2026-04-26T07:32:15.959Z</time></trkpt><trkpt lat="43.792754993494135" lon="12.166285818641663"><ele>508.0</ele><time>2026-04-26T07:32:16.959Z</time></trkpt><trkpt lat="43.7926337694309" lon="12.166165221785167"><ele>508.0</ele><time>2026-04-26T07:32:17.959Z</time></trkpt><trkpt lat="43.79254298806871" lon="12.165997642734997"><ele>514.0</ele><time>2026-04-26T07:32:18.959Z</time></trkpt><trkpt lat="43.79246002300758" lon="12.165809615226882"><ele>520.0</ele><time>2026-04-26T07:32:19.959Z</time></trkpt><trkpt lat="43.7923991611939" lon="12.165595253488371"><ele>526.0</ele><time>2026-04-26T07:32:20.959Z</time></trkpt><trkpt lat="43.79232416272878" lon="12.165367103435857"><ele>526.0</ele><time>2026-04-26T07:32:21.959Z</time></trkpt><trkpt lat="43.792266431548555" lon="12.165118937568819"><ele>526.0</ele><time>2026-04-26T07:32:22.959Z</time></trkpt><trkpt lat="43.79220422304659" lon="12.164876356769234"><ele>526.0</ele><time>2026-04-26T07:32:23.959Z</time></trkpt><trkpt lat="43.792154693705896" lon="12.164618287500753"><ele>527.6666666666667</ele><time>2026-04-26T07:32:24.959Z</time></trkpt><trkpt lat="43.7920935087363" lon="12.164359297090575"><ele>529.3333333333334</ele><time>2026-04-26T07:32:25.959Z</time></trkpt><trkpt lat="43.79203183570154" lon="12.164096395087013"><ele>531.0</ele><time>2026-04-26T07:32:26.959Z</time></trkpt><trkpt lat="43.79197373857186" lon="12.1638546575562"><ele>531.3333333333334</ele><time>2026-04-26T07:32:27.959Z</time></trkpt><trkpt lat="43.79190188510207" lon="12.16364941519769"><ele>531.6666666666667</ele><time>2026-04-26T07:32:28.959Z</time></trkpt><trkpt lat="43.79184972838074" lon="12.16344434019277"><ele>532.0</ele><time>2026-04-26T07:32:29.959Z</time></trkpt><trkpt lat="43.79178489764781" lon="12.16327421626313"><ele>535.6666666666667</ele><time>2026-04-26T07:32:30.959Z</time></trkpt><trkpt lat="43.791682144321115" lon="12.163129980558468"><ele>539.3333333333334</ele><time>2026-04-26T07:32:31.959Z</time></trkpt><trkpt lat="43.79154740234762" lon="12.16300813438484"><ele>543.0</ele><time>2026-04-26T07:32:32.959Z</time></trkpt><trkpt lat="43.79138959426175" lon="12.162893573938046"><ele>543.0</ele><time>2026-04-26T07:32:33.959Z</time></trkpt><trkpt lat="43.7912373134098" lon="12.162768450518445"><ele>543.0</ele><time>2026-04-26T07:32:34.959Z</time></trkpt><trkpt lat="43.791091292046566" lon="12.162642719384817"><ele>543.0</ele><time>2026-04-26T07:32:35.959Z</time></trkpt><trkpt lat="43.790957723307585" lon="12.162520963451547"><ele>546.3333333333334</ele><time>2026-04-26T07:32:36.959Z</time></trkpt><trkpt lat="43.79084420522431" lon="12.162381506540909"><ele>549.6666666666667</ele><time>2026-04-26T07:32:37.959Z</time></trkpt><trkpt lat="43.79074852263445" lon="12.162204035578695"><ele>553.0</ele><time>2026-04-26T07:32:38.959Z</time></trkpt><trkpt lat="43.79068218485379" lon="12.162004653560151"><ele>553.25</ele><time>2026-04-26T07:32:39.959Z</time></trkpt><trkpt lat="43.7906206603857" lon="12.16181006690248"><ele>553.5</ele><time>2026-04-26T07:32:40.959Z</time></trkpt><trkpt lat="43.79056498618356" lon="12.16163219013636"><ele>553.75</ele><time>2026-04-26T07:32:41.959Z</time></trkpt><trkpt lat="43.790513415777745" lon="12.161466949685861"><ele>554.0</ele><time>2026-04-26T07:32:42.958Z</time></trkpt><trkpt lat="43.79046467191508" lon="12.161334495394055"><ele>554.25</ele><time>2026-04-26T07:32:43.957Z</time></trkpt><trkpt lat="43.79041968496511" lon="12.161198650017848"><ele>554.5</ele><time>2026-04-26T07:32:44.955Z</time></trkpt><trkpt lat="43.79037393099273" lon="12.161051119220422"><ele>554.75</ele><time>2026-04-26T07:32:45.954Z</time></trkpt><trkpt lat="43.79034484039571" lon="12.160883821578963"><ele>555.0</ele><time>2026-04-26T07:32:46.952Z</time></trkpt><trkpt lat="43.79028477631206" lon="12.160715791314146"><ele>555.25</ele><time>2026-04-26T07:32:47.951Z</time></trkpt><trkpt lat="43.79019286987712" lon="12.160548012423208"><ele>555.5</ele><time>2026-04-26T07:32:48.95Z</time></trkpt><trkpt lat="43.7901073512118" lon="12.160368516001276"><ele>555.75</ele><time>2026-04-26T07:32:49.949Z</time></trkpt><trkpt lat="43.790033748660484" lon="12.160208934637922"><ele>556.0</ele><time>2026-04-26T07:32:50.948Z</time></trkpt><trkpt lat="43.78996070691446" lon="12.160084302545075"><ele>556.0</ele><time>2026-04-26T07:32:51.947Z</time></trkpt><trkpt lat="43.789874774025385" lon="12.159990132323783"><ele>556.0</ele><time>2026-04-26T07:32:52.946Z</time></trkpt><trkpt lat="43.789778653647254" lon="12.159930500038929"><ele>556.0</ele><time>2026-04-26T07:32:53.945Z</time></trkpt><trkpt lat="43.78965834408287" lon="12.15988869225423"><ele>556.0</ele><time>2026-04-26T07:32:54.944Z</time></trkpt><trkpt lat="43.78951736471995" lon="12.15984533887453"><ele>554.5</ele><time>2026-04-26T07:32:55.944Z</time></trkpt><trkpt lat="43.789370496401894" lon="12.159814184088539"><ele>553.0</ele><time>2026-04-26T07:32:56.943Z</time></trkpt><trkpt lat="43.7892069205449" lon="12.159789372736459"><ele>551.5</ele><time>2026-04-26T07:32:57.942Z</time></trkpt><trkpt lat="43.78907172804187" lon="12.15978438347172"><ele>550.0</ele><time>2026-04-26T07:32:58.942Z</time></trkpt><trkpt lat="43.78895840526479" lon="12.159795820173363"><ele>550.0</ele><time>2026-04-26T07:32:59.941Z</time></trkpt><trkpt lat="43.788856012472955" lon="12.15985138888402"><ele>550.0</ele><time>2026-04-26T07:33:00.941Z</time></trkpt><trkpt lat="43.78875201900909" lon="12.159939852664968"><ele>550.0</ele><time>2026-04-26T07:33:01.94Z</time></trkpt><trkpt lat="43.788636094374134" lon="12.160079461320938"><ele>550.0</ele><time>2026-04-26T07:33:02.94Z</time></trkpt><trkpt lat="43.78853017886894" lon="12.160188622387714"><ele>554.0</ele><time>2026-04-26T07:33:03.939Z</time></trkpt><trkpt lat="43.78841974354495" lon="12.160246846962307"><ele>558.0</ele><time>2026-04-26T07:33:04.939Z</time></trkpt><trkpt lat="43.788293232321415" lon="12.160228967259147"><ele>562.0</ele><time>2026-04-26T07:33:05.938Z</time></trkpt><trkpt lat="43.78817698757094" lon="12.160094948610947"><ele>566.0</ele><time>2026-04-26T07:33:06.938Z</time></trkpt><trkpt lat="43.78803246741115" lon="12.160013549806804"><ele>566.0</ele><time>2026-04-26T07:33:07.938Z</time></trkpt><trkpt lat="43.78789833405155" lon="12.159897310815621"><ele>566.0</ele><time>2026-04-26T07:33:08.937Z</time></trkpt><trkpt lat="43.78773369910858" lon="12.159775940012157"><ele>566.0</ele><time>2026-04-26T07:33:09.937Z</time></trkpt><trkpt lat="43.787572429213284" lon="12.159663691236238"><ele>566.3333333333333</ele><time>2026-04-26T07:33:10.937Z</time></trkpt><trkpt lat="43.78741653839795" lon="12.159555893156625"><ele>566.6666666666666</ele><time>2026-04-26T07:33:11.936Z</time></trkpt><trkpt lat="43.78728009990183" lon="12.159453483434985"><ele>567.0</ele><time>2026-04-26T07:33:12.936Z</time></trkpt><trkpt lat="43.787170039291745" lon="12.159371723677742"><ele>567.0</ele><time>2026-04-26T07:33:13.936Z</time></trkpt><trkpt lat="43.78707623342479" lon="12.159288566466751"><ele>567.0</ele><time>2026-04-26T07:33:14.936Z</time></trkpt><trkpt lat="43.787019990912405" lon="12.159191006335664"><ele>567.0</ele><time>2026-04-26T07:33:15.935Z</time></trkpt><trkpt lat="43.78699460793102" lon="12.15906261463516"><ele>567.0</ele><time>2026-04-26T07:33:16.935Z</time></trkpt><trkpt lat="43.78705964435184" lon="12.158902374982924"><ele>567.0</ele><time>2026-04-26T07:33:17.935Z</time></trkpt><trkpt lat="43.7871183346868" lon="12.158746038566868"><ele>569.75</ele><time>2026-04-26T07:33:18.935Z</time></trkpt><trkpt lat="43.78718565989815" lon="12.15858481657386"><ele>572.5</ele><time>2026-04-26T07:33:19.935Z</time></trkpt><trkpt lat="43.78726532488461" lon="12.158452591646583"><ele>575.25</ele><time>2026-04-26T07:33:20.935Z</time></trkpt><trkpt lat="43.78736507383306" lon="12.158358157973995"><ele>578.0</ele><time>2026-04-26T07:33:21.934Z</time></trkpt><trkpt lat="43.787483601053566" lon="12.158306400096947"><ele>578.0</ele><time>2026-04-26T07:33:22.934Z</time></trkpt><trkpt lat="43.78761371053188" lon="12.158345342349579"><ele>578.0</ele><time>2026-04-26T07:33:23.934Z</time></trkpt><trkpt lat="43.78776925091353" lon="12.158341791740547"><ele>578.0</ele><time>2026-04-26T07:33:24.934Z</time></trkpt><trkpt lat="43.78790690845575" lon="12.158356212898742"><ele>578.0</ele><time>2026-04-26T07:33:25.934Z</time></trkpt><trkpt lat="43.788009080249154" lon="12.158331369863381"><ele>575.1999999999999</ele><time>2026-04-26T07:33:26.934Z</time></trkpt><trkpt lat="43.78808050723742" lon="12.158265569340935"><ele>572.4</ele><time>2026-04-26T07:33:27.934Z</time></trkpt><trkpt lat="43.788120162294994" lon="12.15813706245805"><ele>569.5999999999999</ele><time>2026-04-26T07:33:28.934Z</time></trkpt><trkpt lat="43.78810907960076" lon="12.1579727405086"><ele>566.8</ele><time>2026-04-26T07:33:29.934Z</time></trkpt><trkpt lat="43.7880624861928" lon="12.157796706990148"><ele>564.0</ele><time>2026-04-26T07:33:30.933Z</time></trkpt><trkpt lat="43.78799940394767" lon="12.157622516092792"><ele>564.0</ele><time>2026-04-26T07:33:31.933Z</time></trkpt><trkpt lat="43.787930844531886" lon="12.157460686108218"><ele>564.0</ele><time>2026-04-26T07:33:32.933Z</time></trkpt><trkpt lat="43.7878362990502" lon="12.157321800367594"><ele>564.0</ele><time>2026-04-26T07:33:33.933Z</time></trkpt><trkpt lat="43.78769594491878" lon="12.15721490921455"><ele>564.0</ele><time>2026-04-26T07:33:34.933Z</time></trkpt><trkpt lat="43.78753823842613" lon="12.157119497206311"><ele>569.6666666666666</ele><time>2026-04-26T07:33:35.933Z</time></trkpt><trkpt lat="43.78738362341716" lon="12.157037639874499"><ele>575.3333333333333</ele><time>2026-04-26T07:33:36.933Z</time></trkpt><trkpt lat="43.78725671702445" lon="12.15691376854882"><ele>581.0</ele><time>2026-04-26T07:33:37.933Z</time></trkpt><trkpt lat="43.78717048243264" lon="12.156768597419434"><ele>581.0</ele><time>2026-04-26T07:33:38.933Z</time></trkpt><trkpt lat="43.787144828268715" lon="12.156606920324418"><ele>581.0</ele><time>2026-04-26T07:33:39.933Z</time></trkpt><trkpt lat="43.78712323980168" lon="12.156412551914748"><ele>581.0</ele><time>2026-04-26T07:33:40.933Z</time></trkpt><trkpt lat="43.78710814421625" lon="12.156200356520072"><ele>581.0</ele><time>2026-04-26T07:33:41.933Z</time></trkpt><trkpt lat="43.787088398157145" lon="12.15600118263568"><ele>580.5</ele><time>2026-04-26T07:33:42.933Z</time></trkpt><trkpt lat="43.7870727186108" lon="12.155820818993256"><ele>580.0</ele><time>2026-04-26T07:33:43.933Z</time></trkpt><trkpt lat="43.78705401752243" lon="12.15567251311757"><ele>579.5</ele><time>2026-04-26T07:33:44.933Z</time></trkpt><trkpt lat="43.78699518107467" lon="12.155553457128024"><ele>579.0</ele><time>2026-04-26T07:33:45.933Z</time></trkpt><trkpt lat="43.78690621890562" lon="12.155459533753234"><ele>579.75</ele><time>2026-04-26T07:33:46.933Z</time></trkpt><trkpt lat="43.78678733218887" lon="12.155383596735462"><ele>580.5</ele><time>2026-04-26T07:33:47.932Z</time></trkpt><trkpt lat="43.78663818880564" lon="12.155346679489137"><ele>581.25</ele><time>2026-04-26T07:33:48.932Z</time></trkpt><trkpt lat="43.78650265155153" lon="12.155327125136507"><ele>582.0</ele><time>2026-04-26T07:33:49.932Z</time></trkpt><trkpt lat="43.78636301741469" lon="12.155295814027113"><ele>582.0</ele><time>2026-04-26T07:33:50.931Z</time></trkpt><trkpt lat="43.786225049266314" lon="12.155234555910356"><ele>582.0</ele><time>2026-04-26T07:33:51.931Z</time></trkpt><trkpt lat="43.78610822242634" lon="12.155078229611012"><ele>582.0</ele><time>2026-04-26T07:33:52.931Z</time></trkpt><trkpt lat="43.786010023793715" lon="12.154907224249"><ele>584.0</ele><time>2026-04-26T07:33:53.932Z</time></trkpt><trkpt lat="43.78593245883592" lon="12.154705059025503"><ele>586.0</ele><time>2026-04-26T07:33:54.931Z</time></trkpt><trkpt lat="43.78584806606185" lon="12.154475681851164"><ele>588.0</ele><time>2026-04-26T07:33:55.931Z</time></trkpt><trkpt lat="43.78575533057661" lon="12.154286086697134"><ele>588.0</ele><time>2026-04-26T07:33:56.931Z</time></trkpt><trkpt lat="43.78565936998432" lon="12.154110229498565"><ele>588.0</ele><time>2026-04-26T07:33:57.931Z</time></trkpt><trkpt lat="43.78551846603419" lon="12.153963001079124"><ele>588.0</ele><time>2026-04-26T07:33:58.931Z</time></trkpt><trkpt lat="43.7853992385587" lon="12.153855271270022"><ele>585.5</ele><time>2026-04-26T07:33:59.931Z</time></trkpt><trkpt lat="43.78530432476211" lon="12.153752351844245"><ele>583.0</ele><time>2026-04-26T07:34:00.931Z</time></trkpt><trkpt lat="43.78525109703846" lon="12.153597752647128"><ele>580.5</ele><time>2026-04-26T07:34:01.931Z</time></trkpt><trkpt lat="43.78520233177424" lon="12.15342797247518"><ele>578.0</ele><time>2026-04-26T07:34:02.931Z</time></trkpt><trkpt lat="43.78515325960983" lon="12.153239087710844"><ele>585.3333333333333</ele><time>2026-04-26T07:34:03.931Z</time></trkpt><trkpt lat="43.78509099107201" lon="12.15305081455402"><ele>592.6666666666666</ele><time>2026-04-26T07:34:04.931Z</time></trkpt><trkpt lat="43.785033226398966" lon="12.152853680403439"><ele>600.0</ele><time>2026-04-26T07:34:05.931Z</time></trkpt><trkpt lat="43.78497497242742" lon="12.152652222733296"><ele>600.0</ele><time>2026-04-26T07:34:06.931Z</time></trkpt><trkpt lat="43.78493661005197" lon="12.152440232666754"><ele>600.0</ele><time>2026-04-26T07:34:07.931Z</time></trkpt><trkpt lat="43.78489417515113" lon="12.152242171992034"><ele>600.0</ele><time>2026-04-26T07:34:08.931Z</time></trkpt><trkpt lat="43.78483304729415" lon="12.152042381523035"><ele>599.2</ele><time>2026-04-26T07:34:09.931Z</time></trkpt><trkpt lat="43.78479476499652" lon="12.1518661068054"><ele>598.4</ele><time>2026-04-26T07:34:10.931Z</time></trkpt><trkpt lat="43.78474893711616" lon="12.151730891848901"><ele>597.6</ele><time>2026-04-26T07:34:11.931Z</time></trkpt><trkpt lat="43.78467508298395" lon="12.15164794548487"><ele>596.8</ele><time>2026-04-26T07:34:12.931Z</time></trkpt><trkpt lat="43.784582670978864" lon="12.151603350675419"><ele>596.0</ele><time>2026-04-26T07:34:13.931Z</time></trkpt><trkpt lat="43.784462384063545" lon="12.15162273369011"><ele>599.25</ele><time>2026-04-26T07:34:14.931Z</time></trkpt><trkpt lat="43.78433317097458" lon="12.151721834383352"><ele>602.5</ele><time>2026-04-26T07:34:15.931Z</time></trkpt><trkpt lat="43.7842026322793" lon="12.151824148496212"><ele>605.75</ele><time>2026-04-26T07:34:16.931Z</time></trkpt><trkpt lat="43.78405792440854" lon="12.151883848343497"><ele>609.0</ele><time>2026-04-26T07:34:17.931Z</time></trkpt><trkpt lat="43.78390156176305" lon="12.151896753324536"><ele>609.0</ele><time>2026-04-26T07:34:18.931Z</time></trkpt><trkpt lat="43.7837381154639" lon="12.151836053770849"><ele>609.0</ele><time>2026-04-26T07:34:19.931Z</time></trkpt><trkpt lat="43.78357492119155" lon="12.151734514047593"><ele>609.0</ele><time>2026-04-26T07:34:20.931Z</time></trkpt><trkpt lat="43.78340945646833" lon="12.151670245910715"><ele>612.6666666666666</ele><time>2026-04-26T07:34:21.931Z</time></trkpt><trkpt lat="43.78323113200256" lon="12.151642716026096"><ele>616.3333333333333</ele><time>2026-04-26T07:34:22.931Z</time></trkpt><trkpt lat="43.78304511122805" lon="12.151654831615438"><ele>620.0</ele><time>2026-04-26T07:34:23.931Z</time></trkpt><trkpt lat="43.782870800148736" lon="12.151723876799501"><ele>620.0</ele><time>2026-04-26T07:34:24.931Z</time></trkpt><trkpt lat="43.78274320124613" lon="12.151798661936324"><ele>620.0</ele><time>2026-04-26T07:34:25.931Z</time></trkpt><trkpt lat="43.78261544891082" lon="12.151842825842394"><ele>620.0</ele><time>2026-04-26T07:34:26.931Z</time></trkpt><trkpt lat="43.78251390133613" lon="12.151860839264671"><ele>620.0</ele><time>2026-04-26T07:34:27.931Z</time></trkpt><trkpt lat="43.7824168183506" lon="12.151807476789944"><ele>620.25</ele><time>2026-04-26T07:34:28.931Z</time></trkpt><trkpt lat="43.782330578104094" lon="12.15167580880058"><ele>620.5</ele><time>2026-04-26T07:34:29.931Z</time></trkpt><trkpt lat="43.78223095803119" lon="12.151582203652001"><ele>620.75</ele><time>2026-04-26T07:34:30.931Z</time></trkpt><trkpt lat="43.782127292907056" lon="12.15142043236743"><ele>621.0</ele><time>2026-04-26T07:34:31.931Z</time></trkpt><trkpt lat="43.782041831477194" lon="12.1512212554548"><ele>622.3333333333334</ele><time>2026-04-26T07:34:32.931Z</time></trkpt><trkpt lat="43.781967838065164" lon="12.151025279412167"><ele>623.6666666666667</ele><time>2026-04-26T07:34:33.931Z</time></trkpt><trkpt lat="43.78186941358603" lon="12.15085333420915"><ele>625.0</ele><time>2026-04-26T07:34:34.931Z</time></trkpt><trkpt lat="43.78177931433675" lon="12.150691816613108"><ele>625.0</ele><time>2026-04-26T07:34:35.931Z</time></trkpt><trkpt lat="43.78165035532231" lon="12.150551629075194"><ele>625.0</ele><time>2026-04-26T07:34:36.931Z</time></trkpt><trkpt lat="43.781495452930564" lon="12.150415417558582"><ele>625.0</ele><time>2026-04-26T07:34:37.931Z</time></trkpt><trkpt lat="43.781335813135215" lon="12.15027522609069"><ele>625.0</ele><time>2026-04-26T07:34:38.931Z</time></trkpt><trkpt lat="43.78119421678047" lon="12.15010977375487"><ele>625.0</ele><time>2026-04-26T07:34:39.931Z</time></trkpt><trkpt lat="43.78103696645266" lon="12.14996853589017"><ele>625.0</ele><time>2026-04-26T07:34:40.931Z</time></trkpt><trkpt lat="43.78090626045474" lon="12.149813184594842"><ele>629.6666666666667</ele><time>2026-04-26T07:34:41.931Z</time></trkpt><trkpt lat="43.780815269935616" lon="12.149638545162949"><ele>634.3333333333334</ele><time>2026-04-26T07:34:42.931Z</time></trkpt><trkpt lat="43.780731197256934" lon="12.149458592685914"><ele>639.0</ele><time>2026-04-26T07:34:43.931Z</time></trkpt><trkpt lat="43.78068402408499" lon="12.149253617334294"><ele>639.6666666666666</ele><time>2026-04-26T07:34:44.931Z</time></trkpt><trkpt lat="43.78064060754166" lon="12.149029463594585"><ele>640.3333333333333</ele><time>2026-04-26T07:34:45.931Z</time></trkpt><trkpt lat="43.780595858187766" lon="12.148788569154151"><ele>641.0</ele><time>2026-04-26T07:34:46.931Z</time></trkpt><trkpt lat="43.780552618763934" lon="12.148542924078892"><ele>641.0</ele><time>2026-04-26T07:34:47.931Z</time></trkpt><trkpt lat="43.7804987765132" lon="12.148303116779417"><ele>641.0</ele><time>2026-04-26T07:34:48.931Z</time></trkpt><trkpt lat="43.78045429721106" lon="12.148072184205967"><ele>641.0</ele><time>2026-04-26T07:34:49.931Z</time></trkpt><trkpt lat="43.780403512624424" lon="12.147842236300988"><ele>640.0</ele><time>2026-04-26T07:34:50.931Z</time></trkpt><trkpt lat="43.780342101949046" lon="12.147631221150045"><ele>639.0</ele><time>2026-04-26T07:34:51.931Z</time></trkpt><trkpt lat="43.78026052691336" lon="12.14745324592678"><ele>638.0</ele><time>2026-04-26T07:34:52.931Z</time></trkpt><trkpt lat="43.780157043024175" lon="12.1472970919803"><ele>640.5</ele><time>2026-04-26T07:34:53.931Z</time></trkpt><trkpt lat="43.78004299932949" lon="12.147159908551524"><ele>643.0</ele><time>2026-04-26T07:34:54.931Z</time></trkpt><trkpt lat="43.77993942381537" lon="12.147057190025057"><ele>645.5</ele><time>2026-04-26T07:34:55.931Z</time></trkpt><trkpt lat="43.77984235370532" lon="12.146994609229989"><ele>648.0</ele><time>2026-04-26T07:34:56.931Z</time></trkpt><trkpt lat="43.77974083709193" lon="12.146983994216031"><ele>648.0</ele><time>2026-04-26T07:34:57.931Z</time></trkpt><trkpt lat="43.77964122914119" lon="12.147015299697587"><ele>648.0</ele><time>2026-04-26T07:34:58.931Z</time></trkpt><trkpt lat="43.77955460175388" lon="12.147116207595202"><ele>648.0</ele><time>2026-04-26T07:34:59.93Z</time></trkpt><trkpt lat="43.77949395755345" lon="12.147269731804354"><ele>648.0</ele><time>2026-04-26T07:35:00.93Z</time></trkpt><trkpt lat="43.779458124523124" lon="12.147461067593674"><ele>648.5</ele><time>2026-04-26T07:35:01.93Z</time></trkpt><trkpt lat="43.77941773521496" lon="12.147661850442875"><ele>649.0</ele><time>2026-04-26T07:35:02.93Z</time></trkpt><trkpt lat="43.779370079688704" lon="12.147850671024017"><ele>649.5</ele><time>2026-04-26T07:35:03.93Z</time></trkpt><trkpt lat="43.77930886269689" lon="12.14799702539386"><ele>650.0</ele><time>2026-04-26T07:35:04.93Z</time></trkpt><trkpt lat="43.77922515677665" lon="12.148096992816265"><ele>652.4</ele><time>2026-04-26T07:35:05.93Z</time></trkpt><trkpt lat="43.77912821888802" lon="12.14814002770709"><ele>654.8</ele><time>2026-04-26T07:35:06.93Z</time></trkpt><trkpt lat="43.77902207147362" lon="12.148129786953245"><ele>657.2</ele><time>2026-04-26T07:35:07.93Z</time></trkpt><trkpt lat="43.778927958745165" lon="12.148031590161294"><ele>659.6</ele><time>2026-04-26T07:35:08.93Z</time></trkpt><trkpt lat="43.77883737767089" lon="12.147916843273117"><ele>662.0</ele><time>2026-04-26T07:35:09.93Z</time></trkpt><trkpt lat="43.7787362875548" lon="12.147776792587441"><ele>662.0</ele><time>2026-04-26T07:35:10.93Z</time></trkpt><trkpt lat="43.77862833656042" lon="12.147625402620159"><ele>662.0</ele><time>2026-04-26T07:35:11.93Z</time></trkpt><trkpt lat="43.778514203161194" lon="12.147467460054033"><ele>662.0</ele><time>2026-04-26T07:35:12.93Z</time></trkpt><trkpt lat="43.77838946005886" lon="12.14729522412267"><ele>662.0</ele><time>2026-04-26T07:35:13.93Z</time></trkpt><trkpt lat="43.77826009795971" lon="12.147116828704911"><ele>662.0</ele><time>2026-04-26T07:35:14.93Z</time></trkpt><trkpt lat="43.77812996743001" lon="12.146935833233613"><ele>662.0</ele><time>2026-04-26T07:35:15.93Z</time></trkpt><trkpt lat="43.77798767519878" lon="12.14679043821221"><ele>662.0</ele><time>2026-04-26T07:35:16.93Z</time></trkpt><trkpt lat="43.77787697744181" lon="12.146623668156206"><ele>662.0</ele><time>2026-04-26T07:35:17.93Z</time></trkpt><trkpt lat="43.77779610656269" lon="12.146428577232053"><ele>662.0</ele><time>2026-04-26T07:35:18.93Z</time></trkpt><trkpt lat="43.777768414699" lon="12.146213821832136"><ele>662.6666666666666</ele><time>2026-04-26T07:35:19.93Z</time></trkpt><trkpt lat="43.777824107288694" lon="12.145995652766391"><ele>663.3333333333334</ele><time>2026-04-26T07:35:20.93Z</time></trkpt><trkpt lat="43.77787122391034" lon="12.145777042144271"><ele>664.0</ele><time>2026-04-26T07:35:21.93Z</time></trkpt><trkpt lat="43.77791014943247" lon="12.145539670283576"><ele>666.3333333333334</ele><time>2026-04-26T07:35:22.93Z</time></trkpt><trkpt lat="43.77792880924268" lon="12.145288453780292"><ele>668.6666666666666</ele><time>2026-04-26T07:35:23.93Z</time></trkpt><trkpt lat="43.77793981949346" lon="12.145038284619952"><ele>671.0</ele><time>2026-04-26T07:35:24.93Z</time></trkpt><trkpt lat="43.77795154088999" lon="12.14478490646363"><ele>670.6666666666666</ele><time>2026-04-26T07:35:25.93Z</time></trkpt><trkpt lat="43.77795777550857" lon="12.144529102863483"><ele>670.3333333333334</ele><time>2026-04-26T07:35:26.93Z</time></trkpt><trkpt lat="43.777968028532904" lon="12.144257397135108"><ele>670.0</ele><time>2026-04-26T07:35:27.93Z</time></trkpt><trkpt lat="43.777970421286994" lon="12.144002071249126"><ele>670.0</ele><time>2026-04-26T07:35:28.93Z</time></trkpt><trkpt lat="43.77798566726154" lon="12.1437575494886"><ele>670.0</ele><time>2026-04-26T07:35:29.93Z</time></trkpt><trkpt lat="43.77798026399842" lon="12.143572044925719"><ele>670.0</ele><time>2026-04-26T07:35:30.93Z</time></trkpt><trkpt lat="43.77796126965803" lon="12.143387318976572"><ele>670.0</ele><time>2026-04-26T07:35:31.93Z</time></trkpt><trkpt lat="43.77790863540518" lon="12.143209184481261"><ele>667.6666666666667</ele><time>2026-04-26T07:35:32.93Z</time></trkpt><trkpt lat="43.77781282383833" lon="12.143029968651023"><ele>665.3333333333334</ele><time>2026-04-26T07:35:33.93Z</time></trkpt><trkpt lat="43.77769161957547" lon="12.142852113698725"><ele>663.0</ele><time>2026-04-26T07:35:34.93Z</time></trkpt><trkpt lat="43.77757318088477" lon="12.142674776092964"><ele>667.6666666666666</ele><time>2026-04-26T07:35:35.93Z</time></trkpt><trkpt lat="43.77745177811783" lon="12.142514818610067"><ele>672.3333333333333</ele><time>2026-04-26T07:35:36.93Z</time></trkpt><trkpt lat="43.77731493961782" lon="12.142383886331963"><ele>677.0</ele><time>2026-04-26T07:35:37.93Z</time></trkpt><trkpt lat="43.777180990275845" lon="12.142274725587926"><ele>677.0</ele><time>2026-04-26T07:35:38.93Z</time></trkpt><trkpt lat="43.777052781065485" lon="12.142203138034569"><ele>677.0</ele><time>2026-04-26T07:35:39.93Z</time></trkpt><trkpt lat="43.776903952130766" lon="12.142167088441486"><ele>677.0</ele><time>2026-04-26T07:35:40.93Z</time></trkpt><trkpt lat="43.776756542947616" lon="12.142138304797786"><ele>677.0</ele><time>2026-04-26T07:35:41.93Z</time></trkpt><trkpt lat="43.776610110284096" lon="12.14204702447999"><ele>681.5</ele><time>2026-04-26T07:35:42.93Z</time></trkpt><trkpt lat="43.77647338424919" lon="12.141933194773953"><ele>686.0</ele><time>2026-04-26T07:35:43.93Z</time></trkpt><trkpt lat="43.77634951035472" lon="12.141815084282484"><ele>690.5</ele><time>2026-04-26T07:35:44.93Z</time></trkpt><trkpt lat="43.776255308704876" lon="12.14169399146891"><ele>695.0</ele><time>2026-04-26T07:35:45.93Z</time></trkpt><trkpt lat="43.77620430065836" lon="12.141555569839811"><ele>693.5</ele><time>2026-04-26T07:35:46.93Z</time></trkpt><trkpt lat="43.77620688356683" lon="12.14139145809652"><ele>692.0</ele><time>2026-04-26T07:35:47.93Z</time></trkpt><trkpt lat="43.77621926631625" lon="12.141186089592019"><ele>690.5</ele><time>2026-04-26T07:35:48.93Z</time></trkpt><trkpt lat="43.776216761301775" lon="12.14094742741267"><ele>689.0</ele><time>2026-04-26T07:35:49.93Z</time></trkpt><trkpt lat="43.77622386220246" lon="12.140695482713353"><ele>687.3333333333333</ele><time>2026-04-26T07:35:50.93Z</time></trkpt><trkpt lat="43.776228427197026" lon="12.140435213794142"><ele>685.6666666666666</ele><time>2026-04-26T07:35:51.93Z</time></trkpt><trkpt lat="43.77623227405002" lon="12.140196287626063"><ele>684.0</ele><time>2026-04-26T07:35:52.93Z</time></trkpt><trkpt lat="43.77622386030045" lon="12.139965942985109"><ele>680.6666666666666</ele><time>2026-04-26T07:35:53.93Z</time></trkpt><trkpt lat="43.77619233507318" lon="12.139734199351917"><ele>677.3333333333333</ele><time>2026-04-26T07:35:54.93Z</time></trkpt><trkpt lat="43.77611818475445" lon="12.139516100111093"><ele>674.0</ele><time>2026-04-26T07:35:55.93Z</time></trkpt><trkpt lat="43.776014305758125" lon="12.139296876141962"><ele>680.0</ele><time>2026-04-26T07:35:56.929Z</time></trkpt><trkpt lat="43.77591409827187" lon="12.139063621377307"><ele>686.0</ele><time>2026-04-26T07:35:57.929Z</time></trkpt><trkpt lat="43.77580456525208" lon="12.138856650147599"><ele>692.0</ele><time>2026-04-26T07:35:58.929Z</time></trkpt><trkpt lat="43.77571748811682" lon="12.138685108517096"><ele>692.0</ele><time>2026-04-26T07:35:59.929Z</time></trkpt><trkpt lat="43.775625686247416" lon="12.138557766385105"><ele>692.0</ele><time>2026-04-26T07:36:00.929Z</time></trkpt><trkpt lat="43.775508165518794" lon="12.13846442596673"><ele>692.0</ele><time>2026-04-26T07:36:01.929Z</time></trkpt><trkpt lat="43.77536471084357" lon="12.13841142172514"><ele>692.0</ele><time>2026-04-26T07:36:02.929Z</time></trkpt><trkpt lat="43.77525690303054" lon="12.138347631344558"><ele>692.0</ele><time>2026-04-26T07:36:03.929Z</time></trkpt><trkpt lat="43.77519194464613" lon="12.138285213985176"><ele>692.0</ele><time>2026-04-26T07:36:04.929Z</time></trkpt><trkpt lat="43.77516552200869" lon="12.138185694332979"><ele>692.0</ele><time>2026-04-26T07:36:05.929Z</time></trkpt><trkpt lat="43.77519885201995" lon="12.138044761180128"><ele>692.0</ele><time>2026-04-26T07:36:06.929Z</time></trkpt><trkpt lat="43.775281018166424" lon="12.137914230237975"><ele>692.0</ele><time>2026-04-26T07:36:07.928Z</time></trkpt><trkpt lat="43.77537088957965" lon="12.13776042998463"><ele>691.25</ele><time>2026-04-26T07:36:08.929Z</time></trkpt><trkpt lat="43.7754361660958" lon="12.13760191512723"><ele>690.5</ele><time>2026-04-26T07:36:09.928Z</time></trkpt><trkpt lat="43.77546317202559" lon="12.137432449190705"><ele>689.75</ele><time>2026-04-26T07:36:10.928Z</time></trkpt><trkpt lat="43.77543586095204" lon="12.13727264492354"><ele>689.0</ele><time>2026-04-26T07:36:11.928Z</time></trkpt><trkpt lat="43.77537710829361" lon="12.13712203612214"><ele>689.0</ele><time>2026-04-26T07:36:12.928Z</time></trkpt><trkpt lat="43.775267729950635" lon="12.136970823268916"><ele>689.0</ele><time>2026-04-26T07:36:13.928Z</time></trkpt><trkpt lat="43.77517268907708" lon="12.13681481678281"><ele>689.0</ele><time>2026-04-26T07:36:14.928Z</time></trkpt><trkpt lat="43.7750785669397" lon="12.136651869045972"><ele>693.6666666666666</ele><time>2026-04-26T07:36:15.928Z</time></trkpt><trkpt lat="43.774992798200145" lon="12.136503070405618"><ele>698.3333333333334</ele><time>2026-04-26T07:36:16.928Z</time></trkpt><trkpt lat="43.774933138468626" lon="12.136318007842592"><ele>703.0</ele><time>2026-04-26T07:36:17.928Z</time></trkpt><trkpt lat="43.77485414974017" lon="12.136110649584296"><ele>703.0</ele><time>2026-04-26T07:36:18.928Z</time></trkpt><trkpt lat="43.7748393912346" lon="12.135885893115315"><ele>703.0</ele><time>2026-04-26T07:36:19.928Z</time></trkpt><trkpt lat="43.77480129989372" lon="12.13566128221937"><ele>703.0</ele><time>2026-04-26T07:36:20.928Z</time></trkpt><trkpt lat="43.77477878514371" lon="12.135436494087614"><ele>703.0</ele><time>2026-04-26T07:36:21.928Z</time></trkpt><trkpt lat="43.77476392177974" lon="12.135233876159248"><ele>703.0</ele><time>2026-04-26T07:36:22.928Z</time></trkpt><trkpt lat="43.77478852886386" lon="12.135016336303924"><ele>703.0</ele><time>2026-04-26T07:36:23.928Z</time></trkpt><trkpt lat="43.77480059521348" lon="12.13477694528964"><ele>703.0</ele><time>2026-04-26T07:36:24.928Z</time></trkpt><trkpt lat="43.774831448538066" lon="12.134535763337045"><ele>703.0</ele><time>2026-04-26T07:36:25.928Z</time></trkpt><trkpt lat="43.77484845445181" lon="12.134313984802493"><ele>703.0</ele><time>2026-04-26T07:36:26.928Z</time></trkpt><trkpt lat="43.77485257588984" lon="12.134115075464893"><ele>703.0</ele><time>2026-04-26T07:36:27.928Z</time></trkpt><trkpt lat="43.774829210777675" lon="12.133904528666983"><ele>703.0</ele><time>2026-04-26T07:36:28.928Z</time></trkpt><trkpt lat="43.774794603016666" lon="12.133671802149703"><ele>703.0</ele><time>2026-04-26T07:36:29.928Z</time></trkpt><trkpt lat="43.77475914936455" lon="12.133431719870146"><ele>702.3333333333334</ele><time>2026-04-26T07:36:30.928Z</time></trkpt><trkpt lat="43.7747286973533" lon="12.13318523682308"><ele>701.6666666666666</ele><time>2026-04-26T07:36:31.928Z</time></trkpt><trkpt lat="43.7747091150222" lon="12.13294670331536"><ele>701.0</ele><time>2026-04-26T07:36:32.928Z</time></trkpt><trkpt lat="43.774657987245014" lon="12.132742733857665"><ele>701.0</ele><time>2026-04-26T07:36:33.928Z</time></trkpt><trkpt lat="43.77459725332225" lon="12.132557196370032"><ele>701.0</ele><time>2026-04-26T07:36:34.928Z</time></trkpt><trkpt lat="43.774554098805666" lon="12.132404212599843"><ele>701.0</ele><time>2026-04-26T07:36:35.928Z</time></trkpt><trkpt lat="43.774520925967664" lon="12.13226435871902"><ele>701.0</ele><time>2026-04-26T07:36:36.928Z</time></trkpt><trkpt lat="43.774514829906266" lon="12.132116961230558"><ele>701.75</ele><time>2026-04-26T07:36:37.928Z</time></trkpt><trkpt lat="43.774562965953706" lon="12.131964277016502"><ele>702.5</ele><time>2026-04-26T07:36:38.928Z</time></trkpt><trkpt lat="43.77463161707702" lon="12.131812434206182"><ele>703.25</ele><time>2026-04-26T07:36:39.928Z</time></trkpt><trkpt lat="43.77469402594616" lon="12.131663229654428"><ele>704.0</ele><time>2026-04-26T07:36:40.928Z</time></trkpt><trkpt lat="43.774774604758655" lon="12.13151917376393"><ele>705.0</ele><time>2026-04-26T07:36:41.928Z</time></trkpt><trkpt lat="43.774828568313524" lon="12.131354126325304"><ele>706.0</ele><time>2026-04-26T07:36:42.928Z</time></trkpt><trkpt lat="43.77486177115878" lon="12.13119102946492"><ele>707.0</ele><time>2026-04-26T07:36:43.928Z</time></trkpt><trkpt lat="43.774896471588484" lon="12.13104404075302"><ele>708.0</ele><time>2026-04-26T07:36:44.928Z</time></trkpt><trkpt lat="43.774945672163945" lon="12.130948006931819"><ele>708.0</ele><time>2026-04-26T07:36:45.928Z</time></trkpt><trkpt lat="43.7750059923315" lon="12.13090017977145"><ele>708.0</ele><time>2026-04-26T07:36:46.928Z</time></trkpt><trkpt lat="43.775089916628886" lon="12.130858208214754"><ele>708.0</ele><time>2026-04-26T07:36:47.928Z</time></trkpt><trkpt lat="43.77517994764581" lon="12.130777238863395"><ele>708.0</ele><time>2026-04-26T07:36:48.928Z</time></trkpt><trkpt lat="43.7752671408996" lon="12.130654163270933"><ele>708.0</ele><time>2026-04-26T07:36:49.928Z</time></trkpt><trkpt lat="43.77533196360099" lon="12.130525737053235"><ele>706.5999999999999</ele><time>2026-04-26T07:36:50.928Z</time></trkpt><trkpt lat="43.77539377890723" lon="12.130385339536115"><ele>705.1999999999999</ele><time>2026-04-26T07:36:51.928Z</time></trkpt><trkpt lat="43.77544016739569" lon="12.130253900501945"><ele>703.8</ele><time>2026-04-26T07:36:52.928Z</time></trkpt><trkpt lat="43.77547199935683" lon="12.130122157927334"><ele>702.4</ele><time>2026-04-26T07:36:53.928Z</time></trkpt><trkpt lat="43.775500430117916" lon="12.130004504783567"><ele>701.0</ele><time>2026-04-26T07:36:54.928Z</time></trkpt><trkpt lat="43.77552606378133" lon="12.129905248772014"><ele>701.3333333333333</ele><time>2026-04-26T07:36:55.928Z</time></trkpt><trkpt lat="43.775556061715704" lon="12.129808473426039"><ele>701.6666666666666</ele><time>2026-04-26T07:36:56.928Z</time></trkpt><trkpt lat="43.7755889817965" lon="12.129703927737507"><ele>702.0</ele><time>2026-04-26T07:36:57.928Z</time></trkpt><trkpt lat="43.77561226957577" lon="12.129580557060187"><ele>702.3333333333334</ele><time>2026-04-26T07:36:58.928Z</time></trkpt><trkpt lat="43.775619202719085" lon="12.129450710783283"><ele>702.6666666666667</ele><time>2026-04-26T07:36:59.928Z</time></trkpt><trkpt lat="43.77560711795586" lon="12.129313600239811"><ele>703.0</ele><time>2026-04-26T07:37:00.928Z</time></trkpt><trkpt lat="43.77558099458162" lon="12.12917591916966"><ele>704.0</ele><time>2026-04-26T07:37:01.928Z</time></trkpt><trkpt lat="43.77555254111835" lon="12.129035846282443"><ele>705.0</ele><time>2026-04-26T07:37:02.928Z</time></trkpt><trkpt lat="43.77552986077349" lon="12.128918022800953"><ele>706.0</ele><time>2026-04-26T07:37:03.928Z</time></trkpt><trkpt lat="43.77549497359931" lon="12.12882023185525"><ele>707.0</ele><time>2026-04-26T07:37:04.928Z</time></trkpt><trkpt lat="43.775458771070824" lon="12.12873046942875"><ele>708.0</ele><time>2026-04-26T07:37:05.928Z</time></trkpt><trkpt lat="43.77539750648565" lon="12.128662804859944"><ele>709.0</ele><time>2026-04-26T07:37:06.928Z</time></trkpt><trkpt lat="43.77531073170649" lon="12.128607777660722"><ele>709.0</ele><time>2026-04-26T07:37:07.928Z</time></trkpt><trkpt lat="43.77522617378428" lon="12.128533022883387"><ele>709.0</ele><time>2026-04-26T07:37:08.928Z</time></trkpt><trkpt lat="43.775156452215285" lon="12.128470303193167"><ele>709.0</ele><time>2026-04-26T07:37:09.928Z</time></trkpt><trkpt lat="43.775090787177625" lon="12.12840552933839"><ele>709.0</ele><time>2026-04-26T07:37:10.928Z</time></trkpt><trkpt lat="43.77505467251331" lon="12.128287689771268"><ele>709.0</ele><time>2026-04-26T07:37:11.928Z</time></trkpt><trkpt lat="43.77503040924121" lon="12.128154130354103"><ele>710.0</ele><time>2026-04-26T07:37:12.928Z</time></trkpt><trkpt lat="43.77502695641053" lon="12.12801905025629"><ele>711.0</ele><time>2026-04-26T07:37:13.928Z</time></trkpt><trkpt lat="43.77503786704766" lon="12.127889293306346"><ele>712.0</ele><time>2026-04-26T07:37:14.928Z</time></trkpt><trkpt lat="43.77507178101961" lon="12.127763608582754"><ele>713.0</ele><time>2026-04-26T07:37:15.928Z</time></trkpt><trkpt lat="43.77513582701958" lon="12.12767067872629"><ele>714.0</ele><time>2026-04-26T07:37:16.928Z</time></trkpt><trkpt lat="43.7752232354816" lon="12.127617889015148"><ele>715.4000000000001</ele><time>2026-04-26T07:37:17.928Z</time></trkpt><trkpt lat="43.77531084267304" lon="12.127554431011967"><ele>716.8</ele><time>2026-04-26T07:37:18.928Z</time></trkpt><trkpt lat="43.77538765061459" lon="12.127487735629362"><ele>718.2</ele><time>2026-04-26T07:37:19.928Z</time></trkpt><trkpt lat="43.77547936131904" lon="12.127427451479175"><ele>719.5999999999999</ele><time>2026-04-26T07:37:20.928Z</time></trkpt><trkpt lat="43.77557980249253" lon="12.127410886043812"><ele>721.0</ele><time>2026-04-26T07:37:21.927Z</time></trkpt><trkpt lat="43.775685432925535" lon="12.127438467796566"><ele>721.0</ele><time>2026-04-26T07:37:22.927Z</time></trkpt><trkpt lat="43.77579694650329" lon="12.127518807215523"><ele>721.0</ele><time>2026-04-26T07:37:23.927Z</time></trkpt><trkpt lat="43.77590461765866" lon="12.127629066032695"><ele>721.0</ele><time>2026-04-26T07:37:24.927Z</time></trkpt><trkpt lat="43.776002580017014" lon="12.127730395203535"><ele>721.0</ele><time>2026-04-26T07:37:25.927Z</time></trkpt><trkpt lat="43.77612066011343" lon="12.127840270809655"><ele>726.25</ele><time>2026-04-26T07:37:26.927Z</time></trkpt><trkpt lat="43.77624150549511" lon="12.12794907711797"><ele>731.5</ele><time>2026-04-26T07:37:27.927Z</time></trkpt><trkpt lat="43.77635509102993" lon="12.128065153346146"><ele>736.75</ele><time>2026-04-26T07:37:28.927Z</time></trkpt><trkpt lat="43.77646944994144" lon="12.128152574658605"><ele>742.0</ele><time>2026-04-26T07:37:29.927Z</time></trkpt><trkpt lat="43.77657327376974" lon="12.128211620414051"><ele>741.0</ele><time>2026-04-26T07:37:30.927Z</time></trkpt><trkpt lat="43.77666677182728" lon="12.128305947966023"><ele>740.0</ele><time>2026-04-26T07:37:31.927Z</time></trkpt><trkpt lat="43.77676541441507" lon="12.128361928410772"><ele>739.0</ele><time>2026-04-26T07:37:32.927Z</time></trkpt><trkpt lat="43.776854140065545" lon="12.128432558285343"><ele>738.0</ele><time>2026-04-26T07:37:33.927Z</time></trkpt><trkpt lat="43.776929004102335" lon="12.128483603078617"><ele>737.0</ele><time>2026-04-26T07:37:34.927Z</time></trkpt><trkpt lat="43.77699600378363" lon="12.128515764791443"><ele>737.0</ele><time>2026-04-26T07:37:35.927Z</time></trkpt><trkpt lat="43.77711178931716" lon="12.128484201772128"><ele>737.0</ele><time>2026-04-26T07:37:37.927Z</time></trkpt><trkpt lat="43.777154759352634" lon="12.128225328353524"><ele>737.0</ele><time>2026-04-26T07:37:39.927Z</time></trkpt><trkpt lat="43.77707517116362" lon="12.128132163134492"><ele>737.0</ele><time>2026-04-26T07:37:40.927Z</time></trkpt><trkpt lat="43.77698477248508" lon="12.128059607238644"><ele>738.25</ele><time>2026-04-26T07:37:41.927Z</time></trkpt><trkpt lat="43.776862206989364" lon="12.127980731064042"><ele>739.5</ele><time>2026-04-26T07:37:42.927Z</time></trkpt><trkpt lat="43.77671911120689" lon="12.127918877645053"><ele>740.75</ele><time>2026-04-26T07:37:43.927Z</time></trkpt><trkpt lat="43.77660024308397" lon="12.127800840085007"><ele>742.0</ele><time>2026-04-26T07:37:44.927Z</time></trkpt><trkpt lat="43.77646624192421" lon="12.127667458660099"><ele>742.0</ele><time>2026-04-26T07:37:45.927Z</time></trkpt><trkpt lat="43.77633381868732" lon="12.127515367836631"><ele>742.0</ele><time>2026-04-26T07:37:46.927Z</time></trkpt><trkpt lat="43.77620325389521" lon="12.127339192547321"><ele>742.0</ele><time>2026-04-26T07:37:47.927Z</time></trkpt><trkpt lat="43.776082955577735" lon="12.127147780668626"><ele>740.6666666666667</ele><time>2026-04-26T07:37:48.927Z</time></trkpt><trkpt lat="43.775977310232" lon="12.126933427837939"><ele>739.3333333333334</ele><time>2026-04-26T07:37:49.927Z</time></trkpt><trkpt lat="43.775877370543995" lon="12.126698907884062"><ele>738.0</ele><time>2026-04-26T07:37:50.927Z</time></trkpt><trkpt lat="43.77578023909394" lon="12.126454623137203"><ele>744.3333333333334</ele><time>2026-04-26T07:37:51.927Z</time></trkpt><trkpt lat="43.77567738501357" lon="12.126204441770707"><ele>750.6666666666667</ele><time>2026-04-26T07:37:52.927Z</time></trkpt><trkpt lat="43.77557384418566" lon="12.125968222834434"><ele>757.0</ele><time>2026-04-26T07:37:53.927Z</time></trkpt><trkpt lat="43.77546901770503" lon="12.12574381676676"><ele>754.3333333333334</ele><time>2026-04-26T07:37:54.927Z</time></trkpt><trkpt lat="43.7753836932576" lon="12.12550760666294"><ele>751.6666666666666</ele><time>2026-04-26T07:37:55.927Z</time></trkpt><trkpt lat="43.775281178378734" lon="12.125292948075142"><ele>749.0</ele><time>2026-04-26T07:37:56.927Z</time></trkpt><trkpt lat="43.775170997777835" lon="12.125097034828958"><ele>756.0</ele><time>2026-04-26T07:37:57.927Z</time></trkpt><trkpt lat="43.77507659103427" lon="12.124886016117486"><ele>763.0</ele><time>2026-04-26T07:37:58.927Z</time></trkpt><trkpt lat="43.77497896285321" lon="12.124670101085918"><ele>770.0</ele><time>2026-04-26T07:37:59.927Z</time></trkpt><trkpt lat="43.774882127524485" lon="12.124460518595638"><ele>770.0</ele><time>2026-04-26T07:38:00.927Z</time></trkpt><trkpt lat="43.77478444343701" lon="12.124263653577588"><ele>770.0</ele><time>2026-04-26T07:38:01.927Z</time></trkpt><trkpt lat="43.774696277657846" lon="12.124065229445701"><ele>770.0</ele><time>2026-04-26T07:38:02.927Z</time></trkpt><trkpt lat="43.774628142864785" lon="12.123848217359775"><ele>774.6666666666667</ele><time>2026-04-26T07:38:03.926Z</time></trkpt><trkpt lat="43.77456702328265" lon="12.123609630908033"><ele>779.3333333333333</ele><time>2026-04-26T07:38:04.926Z</time></trkpt><trkpt lat="43.7745007209701" lon="12.12337182082942"><ele>784.0</ele><time>2026-04-26T07:38:05.927Z</time></trkpt><trkpt lat="43.774426834961446" lon="12.123134941470314"><ele>779.3333333333333</ele><time>2026-04-26T07:38:06.927Z</time></trkpt><trkpt lat="43.774350407923585" lon="12.122890247932144"><ele>774.6666666666667</ele><time>2026-04-26T07:38:07.927Z</time></trkpt><trkpt lat="43.774285324390455" lon="12.122639438742423"><ele>770.0</ele><time>2026-04-26T07:38:08.927Z</time></trkpt><trkpt lat="43.77422870794851" lon="12.122409115763427"><ele>773.0</ele><time>2026-04-26T07:38:09.927Z</time></trkpt><trkpt lat="43.77417093097393" lon="12.122203755670789"><ele>776.0</ele><time>2026-04-26T07:38:10.927Z</time></trkpt><trkpt lat="43.77410331162145" lon="12.12203274311395"><ele>779.0</ele><time>2026-04-26T07:38:11.927Z</time></trkpt><trkpt lat="43.77402080555348" lon="12.121898002082956"><ele>782.0</ele><time>2026-04-26T07:38:12.927Z</time></trkpt><trkpt lat="43.773899757995444" lon="12.12182407598216"><ele>782.0</ele><time>2026-04-26T07:38:13.927Z</time></trkpt><trkpt lat="43.77374661969332" lon="12.121790689028371"><ele>782.0</ele><time>2026-04-26T07:38:14.927Z</time></trkpt><trkpt lat="43.77363858498341" lon="12.121698266148456"><ele>782.0</ele><time>2026-04-26T07:38:15.927Z</time></trkpt><trkpt lat="43.77356685661663" lon="12.1216193643081"><ele>782.0</ele><time>2026-04-26T07:38:16.927Z</time></trkpt><trkpt lat="43.773488043546465" lon="12.121548012677033"><ele>781.75</ele><time>2026-04-26T07:38:17.927Z</time></trkpt><trkpt lat="43.77343299321432" lon="12.12143595843329"><ele>781.5</ele><time>2026-04-26T07:38:18.927Z</time></trkpt><trkpt lat="43.77339656847204" lon="12.121277031956097"><ele>781.25</ele><time>2026-04-26T07:38:19.927Z</time></trkpt><trkpt lat="43.7733275105824" lon="12.121097071615115"><ele>781.0</ele><time>2026-04-26T07:38:20.927Z</time></trkpt><trkpt lat="43.77324538488226" lon="12.120930472369855"><ele>781.0</ele><time>2026-04-26T07:38:21.927Z</time></trkpt><trkpt lat="43.773191143723736" lon="12.12075969772432"><ele>781.0</ele><time>2026-04-26T07:38:22.927Z</time></trkpt><trkpt lat="43.77311240309753" lon="12.120627920532694"><ele>781.0</ele><time>2026-04-26T07:38:23.927Z</time></trkpt><trkpt lat="43.77302623174542" lon="12.120489521113786"><ele>781.0</ele><time>2026-04-26T07:38:24.927Z</time></trkpt><trkpt lat="43.77291579171571" lon="12.12037793464185"><ele>781.75</ele><time>2026-04-26T07:38:25.927Z</time></trkpt><trkpt lat="43.77277959622994" lon="12.12029771474272"><ele>782.5</ele><time>2026-04-26T07:38:26.927Z</time></trkpt><trkpt lat="43.772648276027674" lon="12.12022146855032"><ele>783.25</ele><time>2026-04-26T07:38:27.927Z</time></trkpt><trkpt lat="43.772526775341774" lon="12.12015720739648"><ele>784.0</ele><time>2026-04-26T07:38:28.927Z</time></trkpt><trkpt lat="43.77240679378133" lon="12.120090636920601"><ele>784.0</ele><time>2026-04-26T07:38:29.927Z</time></trkpt><trkpt lat="43.77228990684001" lon="12.12000544596194"><ele>784.0</ele><time>2026-04-26T07:38:30.927Z</time></trkpt><trkpt lat="43.77218867383366" lon="12.119904378624016"><ele>784.0</ele><time>2026-04-26T07:38:31.927Z</time></trkpt><trkpt lat="43.772114462303854" lon="12.119792976384154"><ele>784.0</ele><time>2026-04-26T07:38:32.927Z</time></trkpt><trkpt lat="43.772076079171406" lon="12.119674179890527"><ele>787.4000000000001</ele><time>2026-04-26T07:38:33.927Z</time></trkpt><trkpt lat="43.77207710735049" lon="12.119567125978689"><ele>790.8</ele><time>2026-04-26T07:38:34.927Z</time></trkpt><trkpt lat="43.7721174821039" lon="12.119473552055508"><ele>794.2</ele><time>2026-04-26T07:38:35.927Z</time></trkpt><trkpt lat="43.77219428061118" lon="12.11943489060677"><ele>797.5999999999999</ele><time>2026-04-26T07:38:36.927Z</time></trkpt><trkpt lat="43.77228745860286" lon="12.11945794239016"><ele>801.0</ele><time>2026-04-26T07:38:37.927Z</time></trkpt><trkpt lat="43.772397311954116" lon="12.119541814920936"><ele>801.0</ele><time>2026-04-26T07:38:38.927Z</time></trkpt><trkpt lat="43.772539121201596" lon="12.119597060516234"><ele>801.0</ele><time>2026-04-26T07:38:39.927Z</time></trkpt><trkpt lat="43.772689647563325" lon="12.119677786778123"><ele>801.0</ele><time>2026-04-26T07:38:40.927Z</time></trkpt><trkpt lat="43.77284934540542" lon="12.119742148524217"><ele>801.0</ele><time>2026-04-26T07:38:41.927Z</time></trkpt><trkpt lat="43.7729935684692" lon="12.119794669541365"><ele>801.0</ele><time>2026-04-26T07:38:42.927Z</time></trkpt><trkpt lat="43.77311335998476" lon="12.119826985490784"><ele>801.0</ele><time>2026-04-26T07:38:43.927Z</time></trkpt><trkpt lat="43.77321431695737" lon="12.119827322276741"><ele>801.0</ele><time>2026-04-26T07:38:44.927Z</time></trkpt><trkpt lat="43.773311800086326" lon="12.119788651956402"><ele>801.0</ele><time>2026-04-26T07:38:45.926Z</time></trkpt><trkpt lat="43.77340254953245" lon="12.1196976805284"><ele>801.0</ele><time>2026-04-26T07:38:46.926Z</time></trkpt><trkpt lat="43.77348222852267" lon="12.119562596658621"><ele>801.0</ele><time>2026-04-26T07:38:47.926Z</time></trkpt><trkpt lat="43.77352269525472" lon="12.11938275266253"><ele>801.0</ele><time>2026-04-26T07:38:48.926Z</time></trkpt><trkpt lat="43.773524041244904" lon="12.119202399581964"><ele>808.5</ele><time>2026-04-26T07:38:49.926Z</time></trkpt><trkpt lat="43.77347675983727" lon="12.119030772173152"><ele>816.0</ele><time>2026-04-26T07:38:50.926Z</time></trkpt><trkpt lat="43.7733852348277" lon="12.11889281500766"><ele>823.5</ele><time>2026-04-26T07:38:51.926Z</time></trkpt><trkpt lat="43.77325316586965" lon="12.118804938394517"><ele>831.0</ele><time>2026-04-26T07:38:52.926Z</time></trkpt><trkpt lat="43.77309305131891" lon="12.118754690981405"><ele>831.0</ele><time>2026-04-26T07:38:53.926Z</time></trkpt><trkpt lat="43.772915974228354" lon="12.118697133553583"><ele>831.0</ele><time>2026-04-26T07:38:54.926Z</time></trkpt><trkpt lat="43.77274007560449" lon="12.11864019114298"><ele>831.0</ele><time>2026-04-26T07:38:55.926Z</time></trkpt><trkpt lat="43.77256361144689" lon="12.118583065749213"><ele>827.0</ele><time>2026-04-26T07:38:56.926Z</time></trkpt><trkpt lat="43.77238599213482" lon="12.11852556630984"><ele>823.0</ele><time>2026-04-26T07:38:57.926Z</time></trkpt><trkpt lat="43.772215012164985" lon="12.11848860018351"><ele>819.0</ele><time>2026-04-26T07:38:58.926Z</time></trkpt><trkpt lat="43.77207475400707" lon="12.118402409158453"><ele>819.0</ele><time>2026-04-26T07:38:59.926Z</time></trkpt><trkpt lat="43.77195322472283" lon="12.118305490850888"><ele>819.0</ele><time>2026-04-26T07:39:00.926Z</time></trkpt><trkpt lat="43.77183992896723" lon="12.11816411464554"><ele>819.0</ele><time>2026-04-26T07:39:01.926Z</time></trkpt><trkpt lat="43.771718747616084" lon="12.117981123651843"><ele>820.6666666666667</ele><time>2026-04-26T07:39:02.926Z</time></trkpt><trkpt lat="43.77157379123066" lon="12.117813279588335"><ele>822.3333333333334</ele><time>2026-04-26T07:39:03.926Z</time></trkpt><trkpt lat="43.77144153937067" lon="12.11764680122202"><ele>824.0</ele><time>2026-04-26T07:39:04.926Z</time></trkpt><trkpt lat="43.77131060145571" lon="12.117490595138399"><ele>823.0</ele><time>2026-04-26T07:39:05.926Z</time></trkpt><trkpt lat="43.77118117218717" lon="12.11735177659856"><ele>822.0</ele><time>2026-04-26T07:39:06.926Z</time></trkpt><trkpt lat="43.77106624377674" lon="12.117215863625443"><ele>821.0</ele><time>2026-04-26T07:39:07.926Z</time></trkpt><trkpt lat="43.77097519671657" lon="12.1170996194862"><ele>820.0</ele><time>2026-04-26T07:39:08.926Z</time></trkpt><trkpt lat="43.77091056019584" lon="12.117012686404262"><ele>820.0</ele><time>2026-04-26T07:39:09.926Z</time></trkpt><trkpt lat="43.770886735743744" lon="12.116908183264025"><ele>820.0</ele><time>2026-04-26T07:39:10.926Z</time></trkpt><trkpt lat="43.77090511111212" lon="12.116774650279536"><ele>820.0</ele><time>2026-04-26T07:39:11.926Z</time></trkpt><trkpt lat="43.77097182370978" lon="12.116659259667978"><ele>820.0</ele><time>2026-04-26T07:39:12.926Z</time></trkpt><trkpt lat="43.77107933432003" lon="12.116647433630131"><ele>820.0</ele><time>2026-04-26T07:39:13.926Z</time></trkpt><trkpt lat="43.771165393543704" lon="12.116698922240209"><ele>823.75</ele><time>2026-04-26T07:39:14.926Z</time></trkpt><trkpt lat="43.77125818324559" lon="12.116806450554375"><ele>827.5</ele><time>2026-04-26T07:39:15.926Z</time></trkpt><trkpt lat="43.77137152331064" lon="12.116947084755285"><ele>831.25</ele><time>2026-04-26T07:39:16.926Z</time></trkpt><trkpt lat="43.77149556555018" lon="12.117088538955763"><ele>835.0</ele><time>2026-04-26T07:39:17.926Z</time></trkpt><trkpt lat="43.77163195113173" lon="12.117220150210464"><ele>835.0</ele><time>2026-04-26T07:39:18.926Z</time></trkpt><trkpt lat="43.77177621519709" lon="12.117343841968712"><ele>835.0</ele><time>2026-04-26T07:39:19.926Z</time></trkpt><trkpt lat="43.77190625768741" lon="12.117458264517188"><ele>835.0</ele><time>2026-04-26T07:39:20.926Z</time></trkpt><trkpt lat="43.77200364666055" lon="12.117568273560597"><ele>835.0</ele><time>2026-04-26T07:39:21.926Z</time></trkpt><trkpt lat="43.77208654289525" lon="12.117613531956874"><ele>835.8</ele><time>2026-04-26T07:39:22.926Z</time></trkpt><trkpt lat="43.77217250572773" lon="12.117609298823677"><ele>836.6</ele><time>2026-04-26T07:39:23.926Z</time></trkpt><trkpt lat="43.77226170486854" lon="12.11751218245237"><ele>837.4000000000001</ele><time>2026-04-26T07:39:24.926Z</time></trkpt><trkpt lat="43.77231627829619" lon="12.11737341119026"><ele>838.2</ele><time>2026-04-26T07:39:25.926Z</time></trkpt><trkpt lat="43.77230738267875" lon="12.11721596962951"><ele>839.0</ele><time>2026-04-26T07:39:26.926Z</time></trkpt><trkpt lat="43.77223880069293" lon="12.11706762179938"><ele>837.6666666666667</ele><time>2026-04-26T07:39:27.926Z</time></trkpt><trkpt lat="43.77211316280418" lon="12.116973801734934"><ele>836.3333333333333</ele><time>2026-04-26T07:39:28.926Z</time></trkpt><trkpt lat="43.77197805980184" lon="12.116839807618017"><ele>835.0</ele><time>2026-04-26T07:39:29.926Z</time></trkpt><trkpt lat="43.77182137896944" lon="12.116742113784454"><ele>835.0</ele><time>2026-04-26T07:39:30.926Z</time></trkpt><trkpt lat="43.77167626620779" lon="12.116612531216107"><ele>835.0</ele><time>2026-04-26T07:39:31.926Z</time></trkpt><trkpt lat="43.77154470504898" lon="12.116462673168279"><ele>835.0</ele><time>2026-04-26T07:39:32.926Z</time></trkpt><trkpt lat="43.7714344400435" lon="12.116266497372758"><ele>841.0</ele><time>2026-04-26T07:39:33.926Z</time></trkpt><trkpt lat="43.77131579162466" lon="12.116069858099292"><ele>847.0</ele><time>2026-04-26T07:39:34.926Z</time></trkpt><trkpt lat="43.771211882762785" lon="12.115855642203671"><ele>853.0</ele><time>2026-04-26T07:39:35.926Z</time></trkpt><trkpt lat="43.771112916740464" lon="12.115637879778749"><ele>852.0</ele><time>2026-04-26T07:39:36.926Z</time></trkpt><trkpt lat="43.771022601986665" lon="12.115424543370175"><ele>851.0</ele><time>2026-04-26T07:39:37.926Z</time></trkpt><trkpt lat="43.77095201484656" lon="12.115219749808418"><ele>850.0</ele><time>2026-04-26T07:39:38.926Z</time></trkpt><trkpt lat="43.7708885964601" lon="12.115022063781828"><ele>853.25</ele><time>2026-04-26T07:39:39.926Z</time></trkpt><trkpt lat="43.77085235122319" lon="12.114840883000763"><ele>856.5</ele><time>2026-04-26T07:39:40.926Z</time></trkpt><trkpt lat="43.77087174701531" lon="12.11464799477619"><ele>859.75</ele><time>2026-04-26T07:39:41.926Z</time></trkpt><trkpt lat="43.77087853055432" lon="12.114427956254529"><ele>863.0</ele><time>2026-04-26T07:39:42.926Z</time></trkpt><trkpt lat="43.770892163521026" lon="12.114217198577341"><ele>865.5</ele><time>2026-04-26T07:39:43.926Z</time></trkpt><trkpt lat="43.770893254109446" lon="12.11401235038253"><ele>868.0</ele><time>2026-04-26T07:39:44.926Z</time></trkpt><trkpt lat="43.770866758446545" lon="12.113819843527821"><ele>870.5</ele><time>2026-04-26T07:39:45.926Z</time></trkpt><trkpt lat="43.770810370691486" lon="12.113657429966484"><ele>873.0</ele><time>2026-04-26T07:39:46.926Z</time></trkpt><trkpt lat="43.77071231482984" lon="12.113529519780347"><ele>873.0</ele><time>2026-04-26T07:39:47.926Z</time></trkpt><trkpt lat="43.77057970154009" lon="12.113435556835075"><ele>873.0</ele><time>2026-04-26T07:39:48.926Z</time></trkpt><trkpt lat="43.770428440956145" lon="12.113385777787638"><ele>873.0</ele><time>2026-04-26T07:39:49.926Z</time></trkpt><trkpt lat="43.77027704702678" lon="12.113380867209703"><ele>871.75</ele><time>2026-04-26T07:39:50.926Z</time></trkpt><trkpt lat="43.77012412039914" lon="12.113400126045788"><ele>870.5</ele><time>2026-04-26T07:39:51.926Z</time></trkpt><trkpt lat="43.769976219218634" lon="12.11338907729824"><ele>869.25</ele><time>2026-04-26T07:39:52.926Z</time></trkpt><trkpt lat="43.769849505666905" lon="12.113341249171905"><ele>868.0</ele><time>2026-04-26T07:39:53.926Z</time></trkpt><trkpt lat="43.76974167388495" lon="12.113294462490831"><ele>870.5</ele><time>2026-04-26T07:39:54.926Z</time></trkpt><trkpt lat="43.769678527989214" lon="12.11316069356037"><ele>873.0</ele><time>2026-04-26T07:39:55.926Z</time></trkpt><trkpt lat="43.769628233474755" lon="12.113001645401424"><ele>875.5</ele><time>2026-04-26T07:39:56.926Z</time></trkpt><trkpt lat="43.76959951817986" lon="12.112798954919672"><ele>878.0</ele><time>2026-04-26T07:39:57.926Z</time></trkpt><trkpt lat="43.769561717568486" lon="12.112576565927528"><ele>883.6666666666667</ele><time>2026-04-26T07:39:58.926Z</time></trkpt><trkpt lat="43.769510681047755" lon="12.112351468460858"><ele>889.3333333333333</ele><time>2026-04-26T07:39:59.926Z</time></trkpt><trkpt lat="43.769457400685745" lon="12.112123962093635"><ele>895.0</ele><time>2026-04-26T07:40:00.926Z</time></trkpt><trkpt lat="43.76940361834805" lon="12.111897313285402"><ele>897.0</ele><time>2026-04-26T07:40:01.926Z</time></trkpt><trkpt lat="43.76935339698434" lon="12.111680044436392"><ele>899.0</ele><time>2026-04-26T07:40:02.926Z</time></trkpt><trkpt lat="43.76929887419982" lon="12.111462023813022"><ele>901.0</ele><time>2026-04-26T07:40:03.926Z</time></trkpt><trkpt lat="43.76923472758306" lon="12.11124747270486"><ele>901.0</ele><time>2026-04-26T07:40:04.926Z</time></trkpt><trkpt lat="43.76914333340234" lon="12.111035255902914"><ele>901.0</ele><time>2026-04-26T07:40:05.926Z</time></trkpt><trkpt lat="43.76903319972381" lon="12.110839938810846"><ele>901.0</ele><time>2026-04-26T07:40:06.926Z</time></trkpt><trkpt lat="43.768903522550644" lon="12.110660992968834"><ele>900.3333333333333</ele><time>2026-04-26T07:40:07.926Z</time></trkpt><trkpt lat="43.76876368379383" lon="12.110486789363517"><ele>899.6666666666667</ele><time>2026-04-26T07:40:08.924Z</time></trkpt><trkpt lat="43.768619611637654" lon="12.110342841141481"><ele>899.0</ele><time>2026-04-26T07:40:09.925Z</time></trkpt><trkpt lat="43.76849300903011" lon="12.110211840483027"><ele>899.0</ele><time>2026-04-26T07:40:10.925Z</time></trkpt><trkpt lat="43.76837978667724" lon="12.110084825500044"><ele>899.0</ele><time>2026-04-26T07:40:11.925Z</time></trkpt><trkpt lat="43.768277088534184" lon="12.109932926628753"><ele>899.0</ele><time>2026-04-26T07:40:12.925Z</time></trkpt><trkpt lat="43.76819273280921" lon="12.109724506053912"><ele>903.6666666666667</ele><time>2026-04-26T07:40:13.925Z</time></trkpt><trkpt lat="43.768086127181945" lon="12.109504847715273"><ele>908.3333333333333</ele><time>2026-04-26T07:40:14.924Z</time></trkpt><trkpt lat="43.76797060528742" lon="12.109294226188757"><ele>913.0</ele><time>2026-04-26T07:40:15.925Z</time></trkpt><trkpt lat="43.76788777438814" lon="12.109079366902902"><ele>914.6666666666666</ele><time>2026-04-26T07:40:16.925Z</time></trkpt><trkpt lat="43.76786726369103" lon="12.108856592781773"><ele>916.3333333333333</ele><time>2026-04-26T07:40:17.925Z</time></trkpt><trkpt lat="43.767849615057074" lon="12.108623904779144"><ele>918.0</ele><time>2026-04-26T07:40:18.925Z</time></trkpt><trkpt lat="43.767843203168155" lon="12.108372669541936"><ele>918.3333333333333</ele><time>2026-04-26T07:40:19.925Z</time></trkpt><trkpt lat="43.767827168356916" lon="12.108108765787582"><ele>918.6666666666666</ele><time>2026-04-26T07:40:20.924Z</time></trkpt><trkpt lat="43.767822150433055" lon="12.107842650108596"><ele>919.0</ele><time>2026-04-26T07:40:21.924Z</time></trkpt><trkpt lat="43.76781619669376" lon="12.107575372368002"><ele>920.0</ele><time>2026-04-26T07:40:22.924Z</time></trkpt><trkpt lat="43.76780605908714" lon="12.107304348916383"><ele>921.0</ele><time>2026-04-26T07:40:23.924Z</time></trkpt><trkpt lat="43.76781348167884" lon="12.107034703940878"><ele>922.0</ele><time>2026-04-26T07:40:24.924Z</time></trkpt><trkpt lat="43.7677909889861" lon="12.106774699572313"><ele>923.3333333333333</ele><time>2026-04-26T07:40:25.924Z</time></trkpt><trkpt lat="43.7677836183012" lon="12.106523439128845"><ele>924.6666666666667</ele><time>2026-04-26T07:40:26.924Z</time></trkpt><trkpt lat="43.76781630997646" lon="12.106293827664222"><ele>926.0</ele><time>2026-04-26T07:40:27.924Z</time></trkpt><trkpt lat="43.767850442247585" lon="12.106119573976066"><ele>926.0</ele><time>2026-04-26T07:40:28.924Z</time></trkpt><trkpt lat="43.767887345303286" lon="12.10595249596744"><ele>926.0</ele><time>2026-04-26T07:40:29.924Z</time></trkpt><trkpt lat="43.76798715921061" lon="12.105808585874486"><ele>926.0</ele><time>2026-04-26T07:40:30.924Z</time></trkpt><trkpt lat="43.76813453167309" lon="12.105703586227161"><ele>926.0</ele><time>2026-04-26T07:40:31.924Z</time></trkpt><trkpt lat="43.76825307678685" lon="12.10557482495378"><ele>927.5</ele><time>2026-04-26T07:40:32.924Z</time></trkpt><trkpt lat="43.7683591052265" lon="12.105466374370268"><ele>929.0</ele><time>2026-04-26T07:40:33.924Z</time></trkpt><trkpt lat="43.768454874259355" lon="12.10539218325493"><ele>930.5</ele><time>2026-04-26T07:40:34.924Z</time></trkpt><trkpt lat="43.76856491320248" lon="12.10535236817378"><ele>932.0</ele><time>2026-04-26T07:40:35.924Z</time></trkpt><trkpt lat="43.76869001619749" lon="12.10535832127683"><ele>932.75</ele><time>2026-04-26T07:40:36.924Z</time></trkpt><trkpt lat="43.768808922224245" lon="12.105419920802696"><ele>933.5</ele><time>2026-04-26T07:40:37.924Z</time></trkpt><trkpt lat="43.76889467820936" lon="12.105540206772835"><ele>934.25</ele><time>2026-04-26T07:40:38.924Z</time></trkpt><trkpt lat="43.768967641351296" lon="12.10570498842367"><ele>935.0</ele><time>2026-04-26T07:40:39.924Z</time></trkpt><trkpt lat="43.7690271276214" lon="12.105933325779587"><ele>935.0</ele><time>2026-04-26T07:40:40.924Z</time></trkpt><trkpt lat="43.76910788356572" lon="12.10617739716532"><ele>935.0</ele><time>2026-04-26T07:40:41.924Z</time></trkpt><trkpt lat="43.769206440798506" lon="12.106429023615151"><ele>935.0</ele><time>2026-04-26T07:40:42.924Z</time></trkpt><trkpt lat="43.76930527802118" lon="12.106685399533417"><ele>940.0</ele><time>2026-04-26T07:40:43.924Z</time></trkpt><trkpt lat="43.7694080214073" lon="12.106954559565448"><ele>945.0</ele><time>2026-04-26T07:40:44.924Z</time></trkpt><trkpt lat="43.76951044874079" lon="12.107239349637899"><ele>942.5</ele><time>2026-04-26T07:40:45.924Z</time></trkpt><trkpt lat="43.769615959136516" lon="12.107524707012871"><ele>940.0</ele><time>2026-04-26T07:40:46.924Z</time></trkpt><trkpt lat="43.769718174427155" lon="12.107802585578844"><ele>940.0</ele><time>2026-04-26T07:40:47.924Z</time></trkpt><trkpt lat="43.769815397236265" lon="12.108063394610063"><ele>940.0</ele><time>2026-04-26T07:40:48.924Z</time></trkpt><trkpt lat="43.76990910375101" lon="12.108313191843852"><ele>940.0</ele><time>2026-04-26T07:40:49.924Z</time></trkpt><trkpt lat="43.770001457855216" lon="12.108543617772723"><ele>939.3333333333333</ele><time>2026-04-26T07:40:50.924Z</time></trkpt><trkpt lat="43.77009885833118" lon="12.108740532572137"><ele>938.6666666666667</ele><time>2026-04-26T07:40:51.924Z</time></trkpt><trkpt lat="43.770219767460866" lon="12.108886377037935"><ele>938.0</ele><time>2026-04-26T07:40:52.924Z</time></trkpt><trkpt lat="43.77036117980711" lon="12.108979312526113"><ele>941.0</ele><time>2026-04-26T07:40:53.924Z</time></trkpt><trkpt lat="43.770522407720584" lon="12.109026649784857"><ele>944.0</ele><time>2026-04-26T07:40:54.924Z</time></trkpt><trkpt lat="43.770695762696825" lon="12.109035329518617"><ele>947.0</ele><time>2026-04-26T07:40:55.924Z</time></trkpt><trkpt lat="43.77089521547324" lon="12.109000215257243"><ele>947.3333333333334</ele><time>2026-04-26T07:40:56.924Z</time></trkpt><trkpt lat="43.77109052441957" lon="12.10896119856429"><ele>947.6666666666667</ele><time>2026-04-26T07:40:57.924Z</time></trkpt><trkpt lat="43.77129085104392" lon="12.108937951312924"><ele>948.0</ele><time>2026-04-26T07:40:58.924Z</time></trkpt><trkpt lat="43.771478003810984" lon="12.108931771860757"><ele>948.0</ele><time>2026-04-26T07:40:59.924Z</time></trkpt><trkpt lat="43.77165300899504" lon="12.108955180347364"><ele>948.0</ele><time>2026-04-26T07:41:00.924Z</time></trkpt><trkpt lat="43.77181672606958" lon="12.109046819157696"><ele>948.0</ele><time>2026-04-26T07:41:01.924Z</time></trkpt><trkpt lat="43.7719635344717" lon="12.109183875190451"><ele>948.6666666666667</ele><time>2026-04-26T07:41:02.924Z</time></trkpt><trkpt lat="43.77210800209386" lon="12.109342611510735"><ele>949.3333333333334</ele><time>2026-04-26T07:41:03.924Z</time></trkpt><trkpt lat="43.77224940226297" lon="12.10949436572043"><ele>950.0</ele><time>2026-04-26T07:41:04.924Z</time></trkpt><trkpt lat="43.77239917706265" lon="12.109634412507928"><ele>950.0</ele><time>2026-04-26T07:41:05.924Z</time></trkpt><trkpt lat="43.77256805132628" lon="12.1097499139153"><ele>950.0</ele><time>2026-04-26T07:41:06.924Z</time></trkpt><trkpt lat="43.772746637270934" lon="12.109858435967157"><ele>950.0</ele><time>2026-04-26T07:41:07.924Z</time></trkpt><trkpt lat="43.77291733936648" lon="12.109949939315834"><ele>952.0</ele><time>2026-04-26T07:41:08.924Z</time></trkpt><trkpt lat="43.773068137688625" lon="12.110063930686884"><ele>954.0</ele><time>2026-04-26T07:41:09.924Z</time></trkpt><trkpt lat="43.77319056896074" lon="12.110211485687621"><ele>956.0</ele><time>2026-04-26T07:41:10.924Z</time></trkpt><trkpt lat="43.77327735503724" lon="12.110402009051825"><ele>956.0</ele><time>2026-04-26T07:41:11.924Z</time></trkpt><trkpt lat="43.773352281063545" lon="12.110609669425829"><ele>956.0</ele><time>2026-04-26T07:41:12.923Z</time></trkpt><trkpt lat="43.77343681267135" lon="12.110806010590407"><ele>956.0</ele><time>2026-04-26T07:41:13.923Z</time></trkpt><trkpt lat="43.77352923770897" lon="12.111003054917616"><ele>959.3333333333334</ele><time>2026-04-26T07:41:14.923Z</time></trkpt><trkpt lat="43.77363036041138" lon="12.111197787299291"><ele>962.6666666666667</ele><time>2026-04-26T07:41:15.923Z</time></trkpt><trkpt lat="43.773727710808714" lon="12.111396958856137"><ele>966.0</ele><time>2026-04-26T07:41:16.923Z</time></trkpt><trkpt lat="43.773808907167606" lon="12.11158925235572"><ele>966.0</ele><time>2026-04-26T07:41:17.923Z</time></trkpt><trkpt lat="43.773855649532145" lon="12.111770469656582"><ele>966.0</ele><time>2026-04-26T07:41:18.923Z</time></trkpt><trkpt lat="43.77386893271515" lon="12.111942834515553"><ele>966.0</ele><time>2026-04-26T07:41:19.923Z</time></trkpt><trkpt lat="43.77387178454916" lon="12.112078063407552"><ele>966.0</ele><time>2026-04-26T07:41:20.923Z</time></trkpt><trkpt lat="43.77392271369345" lon="12.112205182160993"><ele>966.0</ele><time>2026-04-26T07:41:21.923Z</time></trkpt><trkpt lat="43.77402214056134" lon="12.112278959120461"><ele>966.0</ele><time>2026-04-26T07:41:22.923Z</time></trkpt><trkpt lat="43.77414348282265" lon="12.112286683277759"><ele>966.0</ele><time>2026-04-26T07:41:23.923Z</time></trkpt><trkpt lat="43.77424758696833" lon="12.112226583846518"><ele>966.0</ele><time>2026-04-26T07:41:24.923Z</time></trkpt><trkpt lat="43.77434240608064" lon="12.112099449550628"><ele>970.0</ele><time>2026-04-26T07:41:25.923Z</time></trkpt><trkpt lat="43.77441741037872" lon="12.111932880848078"><ele>974.0</ele><time>2026-04-26T07:41:26.923Z</time></trkpt><trkpt lat="43.774491780429834" lon="12.111745896589907"><ele>978.0</ele><time>2026-04-26T07:41:27.923Z</time></trkpt><trkpt lat="43.77459781575451" lon="12.111619719488404"><ele>982.0</ele><time>2026-04-26T07:41:28.923Z</time></trkpt><trkpt lat="43.77470616865903" lon="12.111517487559802"><ele>984.5</ele><time>2026-04-26T07:41:29.923Z</time></trkpt><trkpt lat="43.774816796419564" lon="12.111448809520907"><ele>987.0</ele><time>2026-04-26T07:41:30.923Z</time></trkpt><trkpt lat="43.774924378128205" lon="12.111402223635755"><ele>989.5</ele><time>2026-04-26T07:41:31.923Z</time></trkpt><trkpt lat="43.77504641716806" lon="12.111448836301536"><ele>992.0</ele><time>2026-04-26T07:41:32.923Z</time></trkpt><trkpt lat="43.77513983688657" lon="12.111561988772172"><ele>989.5</ele><time>2026-04-26T07:41:33.923Z</time></trkpt><trkpt lat="43.7752205453393" lon="12.111676818883007"><ele>987.0</ele><time>2026-04-26T07:41:34.923Z</time></trkpt><trkpt lat="43.77521722193935" lon="12.111849169098761"><ele>984.5</ele><time>2026-04-26T07:41:35.923Z</time></trkpt><trkpt lat="43.775219788629705" lon="12.112037281693521"><ele>982.0</ele><time>2026-04-26T07:41:36.923Z</time></trkpt><trkpt lat="43.77518339245627" lon="12.112249460410714"><ele>982.75</ele><time>2026-04-26T07:41:37.923Z</time></trkpt><trkpt lat="43.77514594177872" lon="12.112447774326874"><ele>983.5</ele><time>2026-04-26T07:41:38.923Z</time></trkpt><trkpt lat="43.775114228892676" lon="12.112624043704185"><ele>984.25</ele><time>2026-04-26T07:41:39.923Z</time></trkpt><trkpt lat="43.77511589806248" lon="12.112779910015245"><ele>985.0</ele><time>2026-04-26T07:41:40.923Z</time></trkpt><trkpt lat="43.775153870799414" lon="12.112935855861611"><ele>988.5</ele><time>2026-04-26T07:41:41.923Z</time></trkpt><trkpt lat="43.775223173456446" lon="12.113078711074023"><ele>992.0</ele><time>2026-04-26T07:41:42.923Z</time></trkpt><trkpt lat="43.775315556630034" lon="12.113175912396116"><ele>995.5</ele><time>2026-04-26T07:41:43.923Z</time></trkpt><trkpt lat="43.775432119210464" lon="12.113208568115422"><ele>999.0</ele><time>2026-04-26T07:41:44.923Z</time></trkpt><trkpt lat="43.775553091869654" lon="12.113166460804598"><ele>999.0</ele><time>2026-04-26T07:41:45.923Z</time></trkpt><trkpt lat="43.77567296794296" lon="12.11306307511395"><ele>999.0</ele><time>2026-04-26T07:41:46.923Z</time></trkpt><trkpt lat="43.77576330419626" lon="12.112912102136942"><ele>999.0</ele><time>2026-04-26T07:41:47.923Z</time></trkpt><trkpt lat="43.77579357745933" lon="12.112729863049243"><ele>999.0</ele><time>2026-04-26T07:41:48.923Z</time></trkpt><trkpt lat="43.77578459906427" lon="12.112541382131077"><ele>1000.3333333333333</ele><time>2026-04-26T07:41:49.923Z</time></trkpt><trkpt lat="43.775751745122484" lon="12.112337844467719"><ele>1001.6666666666666</ele><time>2026-04-26T07:41:50.923Z</time></trkpt><trkpt lat="43.77572527554858" lon="12.112122009888742"><ele>1003.0</ele><time>2026-04-26T07:41:51.923Z</time></trkpt><trkpt lat="43.77570017140147" lon="12.111900717178314"><ele>1003.0</ele><time>2026-04-26T07:41:52.923Z</time></trkpt><trkpt lat="43.775675084031036" lon="12.11167307537782"><ele>1003.0</ele><time>2026-04-26T07:41:53.923Z</time></trkpt><trkpt lat="43.775661408835745" lon="12.111444504056557"><ele>1003.0</ele><time>2026-04-26T07:41:54.923Z</time></trkpt><trkpt lat="43.775631172161354" lon="12.111222470141808"><ele>1003.5</ele><time>2026-04-26T07:41:55.923Z</time></trkpt><trkpt lat="43.77560371365271" lon="12.1110198212984"><ele>1004.0</ele><time>2026-04-26T07:41:56.923Z</time></trkpt><trkpt lat="43.77560006815912" lon="12.110838907649661"><ele>1004.5</ele><time>2026-04-26T07:41:57.923Z</time></trkpt><trkpt lat="43.77562678706624" lon="12.110675004677264"><ele>1005.0</ele><time>2026-04-26T07:41:58.923Z</time></trkpt><trkpt lat="43.7757008692874" lon="12.110548279368887"><ele>1005.0</ele><time>2026-04-26T07:41:59.923Z</time></trkpt><trkpt lat="43.77581352525406" lon="12.110467741788229"><ele>1005.0</ele><time>2026-04-26T07:42:00.923Z</time></trkpt><trkpt lat="43.77596402327744" lon="12.110444289676757"><ele>1005.0</ele><time>2026-04-26T07:42:01.923Z</time></trkpt><trkpt lat="43.77612702904576" lon="12.110385961699834"><ele>1005.0</ele><time>2026-04-26T07:42:02.923Z</time></trkpt><trkpt lat="43.77630891306998" lon="12.110342600304282"><ele>1009.6666666666667</ele><time>2026-04-26T07:42:03.923Z</time></trkpt><trkpt lat="43.77648604856572" lon="12.110282386095363"><ele>1014.3333333333334</ele><time>2026-04-26T07:42:04.923Z</time></trkpt><trkpt lat="43.77666801218518" lon="12.110213712850372"><ele>1019.0</ele><time>2026-04-26T07:42:05.923Z</time></trkpt><trkpt lat="43.77685072238659" lon="12.110150712785646"><ele>1023.3333333333334</ele><time>2026-04-26T07:42:06.923Z</time></trkpt><trkpt lat="43.77703639629975" lon="12.110089086176071"><ele>1027.6666666666667</ele><time>2026-04-26T07:42:07.923Z</time></trkpt><trkpt lat="43.77719861092845" lon="12.110029179084224"><ele>1032.0</ele><time>2026-04-26T07:42:08.923Z</time></trkpt><trkpt lat="43.77736344376316" lon="12.11000073870952"><ele>1032.0</ele><time>2026-04-26T07:42:09.923Z</time></trkpt><trkpt lat="43.77750475976555" lon="12.109993869548246"><ele>1032.0</ele><time>2026-04-26T07:42:10.923Z</time></trkpt><trkpt lat="43.77763560935384" lon="12.11003011882344"><ele>1032.0</ele><time>2026-04-26T07:42:11.923Z</time></trkpt><trkpt lat="43.77776369990564" lon="12.110116425887135"><ele>1032.0</ele><time>2026-04-26T07:42:12.923Z</time></trkpt><trkpt lat="43.77787148221645" lon="12.11024488364802"><ele>1036.3333333333333</ele><time>2026-04-26T07:42:13.923Z</time></trkpt><trkpt lat="43.77799552177605" lon="12.110387463030742"><ele>1040.6666666666665</ele><time>2026-04-26T07:42:14.922Z</time></trkpt><trkpt lat="43.778102871638936" lon="12.110548291179386"><ele>1045.0</ele><time>2026-04-26T07:42:15.923Z</time></trkpt><trkpt lat="43.77822611706841" lon="12.11071244067172"><ele>1043.0</ele><time>2026-04-26T07:42:16.923Z</time></trkpt><trkpt lat="43.77835405114413" lon="12.110884617444697"><ele>1041.0</ele><time>2026-04-26T07:42:17.922Z</time></trkpt><trkpt lat="43.77847740214358" lon="12.111066286751713"><ele>1039.0</ele><time>2026-04-26T07:42:18.923Z</time></trkpt><trkpt lat="43.77855736774958" lon="12.111299196146106"><ele>1042.3333333333333</ele><time>2026-04-26T07:42:19.923Z</time></trkpt><trkpt lat="43.77864236738307" lon="12.111533862234284"><ele>1045.6666666666667</ele><time>2026-04-26T07:42:20.923Z</time></trkpt><trkpt lat="43.77873698310753" lon="12.111763376599848"><ele>1049.0</ele><time>2026-04-26T07:42:21.923Z</time></trkpt><trkpt lat="43.77880166219684" lon="12.11197291756158"><ele>1049.0</ele><time>2026-04-26T07:42:22.923Z</time></trkpt><trkpt lat="43.77886076183855" lon="12.112134379565905"><ele>1049.0</ele><time>2026-04-26T07:42:23.922Z</time></trkpt><trkpt lat="43.7789302933502" lon="12.112265622299232"><ele>1049.0</ele><time>2026-04-26T07:42:24.922Z</time></trkpt><trkpt lat="43.77902467207839" lon="12.112351175790796"><ele>1049.0</ele><time>2026-04-26T07:42:25.922Z</time></trkpt><trkpt lat="43.77913727530049" lon="12.112371322724542"><ele>1049.0</ele><time>2026-04-26T07:42:26.922Z</time></trkpt><trkpt lat="43.77924006377519" lon="12.112296443428054"><ele>1049.0</ele><time>2026-04-26T07:42:27.922Z</time></trkpt><trkpt lat="43.779319832605175" lon="12.11215354859212"><ele>1049.0</ele><time>2026-04-26T07:42:28.922Z</time></trkpt><trkpt lat="43.77935882989092" lon="12.111964249269741"><ele>1049.0</ele><time>2026-04-26T07:42:29.922Z</time></trkpt><trkpt lat="43.779360960627656" lon="12.111741530745833"><ele>1050.6666666666667</ele><time>2026-04-26T07:42:30.922Z</time></trkpt><trkpt lat="43.779334305150144" lon="12.11150392037283"><ele>1052.3333333333333</ele><time>2026-04-26T07:42:31.922Z</time></trkpt><trkpt lat="43.779315611501055" lon="12.111260489471972"><ele>1054.0</ele><time>2026-04-26T07:42:32.922Z</time></trkpt><trkpt lat="43.77932539228205" lon="12.11100474689534"><ele>1054.0</ele><time>2026-04-26T07:42:33.922Z</time></trkpt><trkpt lat="43.779317289158065" lon="12.110743882529961"><ele>1054.0</ele><time>2026-04-26T07:42:34.922Z</time></trkpt><trkpt lat="43.779293027206876" lon="12.110497329914622"><ele>1054.0</ele><time>2026-04-26T07:42:35.922Z</time></trkpt><trkpt lat="43.77929019716401" lon="12.110287080205854"><ele>1055.5</ele><time>2026-04-26T07:42:36.922Z</time></trkpt><trkpt lat="43.779301795172664" lon="12.11011819750136"><ele>1057.0</ele><time>2026-04-26T07:42:37.922Z</time></trkpt><trkpt lat="43.77935386730442" lon="12.109955674558176"><ele>1058.5</ele><time>2026-04-26T07:42:38.922Z</time></trkpt><trkpt lat="43.77942922086106" lon="12.109814211086107"><ele>1060.0</ele><time>2026-04-26T07:42:39.922Z</time></trkpt><trkpt lat="43.77953044984085" lon="12.109692617498528"><ele>1066.0</ele><time>2026-04-26T07:42:40.922Z</time></trkpt><trkpt lat="43.7796633639995" lon="12.109610531243204"><ele>1072.0</ele><time>2026-04-26T07:42:41.922Z</time></trkpt><trkpt lat="43.77981263418716" lon="12.109553970378643"><ele>1078.0</ele><time>2026-04-26T07:42:42.922Z</time></trkpt><trkpt lat="43.77996483687027" lon="12.10948177848474"><ele>1078.0</ele><time>2026-04-26T07:42:43.922Z</time></trkpt><trkpt lat="43.780118450849926" lon="12.109446804627378"><ele>1078.0</ele><time>2026-04-26T07:42:44.922Z</time></trkpt><trkpt lat="43.780254790706564" lon="12.109415558872417"><ele>1078.0</ele><time>2026-04-26T07:42:45.922Z</time></trkpt><trkpt lat="43.78036833555838" lon="12.10938951398242"><ele>1078.0</ele><time>2026-04-26T07:42:46.922Z</time></trkpt><trkpt lat="43.780459033755726" lon="12.10937038864686"><ele>1081.8333333333333</ele><time>2026-04-26T07:42:47.922Z</time></trkpt><trkpt lat="43.780525798904115" lon="12.109338199227075"><ele>1085.6666666666665</ele><time>2026-04-26T07:42:48.922Z</time></trkpt><trkpt lat="43.78057769197814" lon="12.109288210180393"><ele>1089.5</ele><time>2026-04-26T07:42:49.922Z</time></trkpt><trkpt lat="43.78060892043301" lon="12.109203197492219"><ele>1093.3333333333333</ele><time>2026-04-26T07:42:50.922Z</time></trkpt><trkpt lat="43.78055894366219" lon="12.109056288036014"><ele>1097.1666666666667</ele><time>2026-04-26T07:42:51.922Z</time></trkpt><trkpt lat="43.78044861807342" lon="12.108967897506973"><ele>1101.0</ele><time>2026-04-26T07:42:52.922Z</time></trkpt><trkpt lat="43.78033841374278" lon="12.108889249495315"><ele>1098.75</ele><time>2026-04-26T07:42:53.922Z</time></trkpt><trkpt lat="43.78024858402442" lon="12.108784838389107"><ele>1096.5</ele><time>2026-04-26T07:42:54.922Z</time></trkpt><trkpt lat="43.780201236098485" lon="12.108609424837535"><ele>1094.25</ele><time>2026-04-26T07:42:55.922Z</time></trkpt><trkpt lat="43.78018759319687" lon="12.108415074201641"><ele>1092.0</ele><time>2026-04-26T07:42:56.922Z</time></trkpt><trkpt lat="43.780175050760825" lon="12.108209964890179"><ele>1092.0</ele><time>2026-04-26T07:42:57.922Z</time></trkpt><trkpt lat="43.78014963105518" lon="12.108026916733689"><ele>1092.0</ele><time>2026-04-26T07:42:58.922Z</time></trkpt><trkpt lat="43.78014726279143" lon="12.107873510519314"><ele>1092.0</ele><time>2026-04-26T07:42:59.922Z</time></trkpt><trkpt lat="43.780160705622094" lon="12.107730893924463"><ele>1092.0</ele><time>2026-04-26T07:43:00.922Z</time></trkpt><trkpt lat="43.78017061147909" lon="12.107588328364914"><ele>1092.0</ele><time>2026-04-26T07:43:01.922Z</time></trkpt><trkpt lat="43.78017230990684" lon="12.107446463428808"><ele>1092.0</ele><time>2026-04-26T07:43:02.922Z</time></trkpt><trkpt lat="43.78015658102473" lon="12.10730732964446"><ele>1092.0</ele><time>2026-04-26T07:43:03.922Z</time></trkpt><trkpt lat="43.78012283077795" lon="12.107166029077232"><ele>1092.0</ele><time>2026-04-26T07:43:04.922Z</time></trkpt><trkpt lat="43.78006733180889" lon="12.107018560775742"><ele>1092.0</ele><time>2026-04-26T07:43:05.922Z</time></trkpt><trkpt lat="43.780004433720926" lon="12.106889156139758"><ele>1093.75</ele><time>2026-04-26T07:43:06.922Z</time></trkpt><trkpt lat="43.77992546925205" lon="12.106749586898669"><ele>1095.5</ele><time>2026-04-26T07:43:07.922Z</time></trkpt><trkpt lat="43.77985041509669" lon="12.106601094257998"><ele>1097.25</ele><time>2026-04-26T07:43:08.922Z</time></trkpt><trkpt lat="43.7797760491328" lon="12.106455273006102"><ele>1099.0</ele><time>2026-04-26T07:43:09.922Z</time></trkpt><trkpt lat="43.7797072665947" lon="12.106313950244019"><ele>1097.6000000000001</ele><time>2026-04-26T07:43:10.922Z</time></trkpt><trkpt lat="43.779645156801706" lon="12.106185896695997"><ele>1096.2</ele><time>2026-04-26T07:43:11.922Z</time></trkpt><trkpt lat="43.779582863194605" lon="12.106061807232843"><ele>1094.8000000000002</ele><time>2026-04-26T07:43:12.922Z</time></trkpt><trkpt lat="43.779506670618304" lon="12.105954088766655"><ele>1093.4</ele><time>2026-04-26T07:43:13.922Z</time></trkpt><trkpt lat="43.77942000913843" lon="12.105853916880339"><ele>1092.0</ele><time>2026-04-26T07:43:14.922Z</time></trkpt><trkpt lat="43.77931228057016" lon="12.105761252643394"><ele>1095.75</ele><time>2026-04-26T07:43:15.922Z</time></trkpt><trkpt lat="43.77920213490004" lon="12.105683406808716"><ele>1099.5</ele><time>2026-04-26T07:43:16.922Z</time></trkpt><trkpt lat="43.77908354632121" lon="12.10560305047346"><ele>1103.25</ele><time>2026-04-26T07:43:17.922Z</time></trkpt><trkpt lat="43.77896472089427" lon="12.105526766880674"><ele>1107.0</ele><time>2026-04-26T07:43:18.922Z</time></trkpt><trkpt lat="43.77884029320299" lon="12.105466121525549"><ele>1107.0</ele><time>2026-04-26T07:43:19.922Z</time></trkpt><trkpt lat="43.77871901892868" lon="12.105415366541918"><ele>1107.0</ele><time>2026-04-26T07:43:20.922Z</time></trkpt><trkpt lat="43.778612718925096" lon="12.105340587290259"><ele>1107.0</ele><time>2026-04-26T07:43:21.922Z</time></trkpt><trkpt lat="43.77849651170289" lon="12.105276490669945"><ele>1107.0</ele><time>2026-04-26T07:43:22.922Z</time></trkpt><trkpt lat="43.77843097023394" lon="12.105189790186396"><ele>1103.75</ele><time>2026-04-26T07:43:23.922Z</time></trkpt><trkpt lat="43.7783682512423" lon="12.105067400222257"><ele>1100.5</ele><time>2026-04-26T07:43:24.922Z</time></trkpt><trkpt lat="43.77833738394102" lon="12.104915853302112"><ele>1097.25</ele><time>2026-04-26T07:43:25.922Z</time></trkpt><trkpt lat="43.77832608435899" lon="12.104765675815917"><ele>1094.0</ele><time>2026-04-26T07:43:26.922Z</time></trkpt><trkpt lat="43.77833887090417" lon="12.104598759595579"><ele>1093.3333333333335</ele><time>2026-04-26T07:43:27.922Z</time></trkpt><trkpt lat="43.778365364170085" lon="12.104404134665602"><ele>1092.6666666666667</ele><time>2026-04-26T07:43:28.922Z</time></trkpt><trkpt lat="43.77839551838846" lon="12.104179578559975"><ele>1092.0</ele><time>2026-04-26T07:43:29.922Z</time></trkpt><trkpt lat="43.778426415391245" lon="12.103923592955967"><ele>1090.3333333333333</ele><time>2026-04-26T07:43:30.922Z</time></trkpt><trkpt lat="43.7784632289197" lon="12.103639873890199"><ele>1088.6666666666665</ele><time>2026-04-26T07:43:31.922Z</time></trkpt><trkpt lat="43.7784882255816" lon="12.10335068989478"><ele>1087.0</ele><time>2026-04-26T07:43:32.922Z</time></trkpt><trkpt lat="43.778536546368535" lon="12.103094016774282"><ele>1087.6666666666665</ele><time>2026-04-26T07:43:33.922Z</time></trkpt><trkpt lat="43.77854102897783" lon="12.102837672134763"><ele>1088.3333333333333</ele><time>2026-04-26T07:43:34.922Z</time></trkpt><trkpt lat="43.77851501933622" lon="12.102570158053329"><ele>1089.0</ele><time>2026-04-26T07:43:35.922Z</time></trkpt><trkpt lat="43.77848560085452" lon="12.102292835100636"><ele>1090.3333333333333</ele><time>2026-04-26T07:43:36.921Z</time></trkpt><trkpt lat="43.77847860080749" lon="12.102019119033564"><ele>1091.6666666666665</ele><time>2026-04-26T07:43:37.921Z</time></trkpt><trkpt lat="43.778465191124674" lon="12.1017568943187"><ele>1093.0</ele><time>2026-04-26T07:43:38.921Z</time></trkpt><trkpt lat="43.778445658770856" lon="12.10149100555428"><ele>1095.0</ele><time>2026-04-26T07:43:39.921Z</time></trkpt><trkpt lat="43.77841672462114" lon="12.101225821128342"><ele>1097.0</ele><time>2026-04-26T07:43:40.921Z</time></trkpt><trkpt lat="43.778374847222516" lon="12.100964948576495"><ele>1099.0</ele><time>2026-04-26T07:43:41.921Z</time></trkpt><trkpt lat="43.77835234392728" lon="12.100710117879458"><ele>1099.3333333333333</ele><time>2026-04-26T07:43:42.921Z</time></trkpt><trkpt lat="43.77833079917749" lon="12.100454167155386"><ele>1099.6666666666667</ele><time>2026-04-26T07:43:43.921Z</time></trkpt><trkpt lat="43.778312498541794" lon="12.100191520251782"><ele>1100.0</ele><time>2026-04-26T07:43:44.921Z</time></trkpt><trkpt lat="43.77829194634284" lon="12.099921366446006"><ele>1101.0</ele><time>2026-04-26T07:43:45.921Z</time></trkpt><trkpt lat="43.77826887229718" lon="12.09964786290039"><ele>1102.0</ele><time>2026-04-26T07:43:46.921Z</time></trkpt><trkpt lat="43.77826013108731" lon="12.099364905254859"><ele>1103.0</ele><time>2026-04-26T07:43:47.921Z</time></trkpt><trkpt lat="43.778218928975086" lon="12.09909290132455"><ele>1104.6666666666667</ele><time>2026-04-26T07:43:48.921Z</time></trkpt><trkpt lat="43.77815270314393" lon="12.098827367708509"><ele>1106.3333333333333</ele><time>2026-04-26T07:43:49.921Z</time></trkpt><trkpt lat="43.77809812506717" lon="12.098562678351033"><ele>1108.0</ele><time>2026-04-26T07:43:50.921Z</time></trkpt><trkpt lat="43.778054784903965" lon="12.098307868721818"><ele>1110.0</ele><time>2026-04-26T07:43:51.921Z</time></trkpt><trkpt lat="43.77800336694944" lon="12.09807626556158"><ele>1112.0</ele><time>2026-04-26T07:43:52.921Z</time></trkpt><trkpt lat="43.77796085313974" lon="12.09785852077344"><ele>1114.0</ele><time>2026-04-26T07:43:53.921Z</time></trkpt><trkpt lat="43.77792432474233" lon="12.097662378187334"><ele>1114.0</ele><time>2026-04-26T07:43:54.921Z</time></trkpt><trkpt lat="43.77789310744658" lon="12.097481759294872"><ele>1114.0</ele><time>2026-04-26T07:43:55.921Z</time></trkpt><trkpt lat="43.77788722050574" lon="12.097306985868242"><ele>1114.0</ele><time>2026-04-26T07:43:56.921Z</time></trkpt><trkpt lat="43.777919157698676" lon="12.097130791754848"><ele>1114.0</ele><time>2026-04-26T07:43:57.921Z</time></trkpt><trkpt lat="43.777965229750926" lon="12.096942785768377"><ele>1114.0</ele><time>2026-04-26T07:43:58.921Z</time></trkpt><trkpt lat="43.77801088290256" lon="12.096754031435445"><ele>1114.0</ele><time>2026-04-26T07:43:59.921Z</time></trkpt><trkpt lat="43.778042749835606" lon="12.096571243006302"><ele>1114.0</ele><time>2026-04-26T07:44:00.921Z</time></trkpt><trkpt lat="43.77806797545713" lon="12.096184145573202"><ele>1114.0</ele><time>2026-04-26T07:44:02.921Z</time></trkpt><trkpt lat="43.7780529702659" lon="12.095966760903815"><ele>1114.0</ele><time>2026-04-26T07:44:03.921Z</time></trkpt><trkpt lat="43.77804006305835" lon="12.095764023631311"><ele>1114.0</ele><time>2026-04-26T07:44:04.921Z</time></trkpt><trkpt lat="43.77802795218273" lon="12.095558615537476"><ele>1112.75</ele><time>2026-04-26T07:44:05.921Z</time></trkpt><trkpt lat="43.778023895180006" lon="12.095349161041609"><ele>1111.5</ele><time>2026-04-26T07:44:06.921Z</time></trkpt><trkpt lat="43.77803457297117" lon="12.095137939256597"><ele>1110.25</ele><time>2026-04-26T07:44:07.921Z</time></trkpt><trkpt lat="43.77805616587672" lon="12.094942188568286"><ele>1109.0</ele><time>2026-04-26T07:44:08.921Z</time></trkpt><trkpt lat="43.7780837938444" lon="12.09476018010344"><ele>1108.75</ele><time>2026-04-26T07:44:09.921Z</time></trkpt><trkpt lat="43.77810806473647" lon="12.094585865020255"><ele>1108.5</ele><time>2026-04-26T07:44:10.921Z</time></trkpt><trkpt lat="43.7781311838284" lon="12.09441809202506"><ele>1108.25</ele><time>2026-04-26T07:44:11.921Z</time></trkpt><trkpt lat="43.77815446174986" lon="12.094257122535764"><ele>1108.0</ele><time>2026-04-26T07:44:12.921Z</time></trkpt><trkpt lat="43.77816502562947" lon="12.094069527438688"><ele>1108.75</ele><time>2026-04-26T07:44:13.921Z</time></trkpt><trkpt lat="43.77816096622915" lon="12.093885312873535"><ele>1109.5</ele><time>2026-04-26T07:44:14.921Z</time></trkpt><trkpt lat="43.77814000504563" lon="12.093701648513315"><ele>1110.25</ele><time>2026-04-26T07:44:15.921Z</time></trkpt><trkpt lat="43.778128044458434" lon="12.093526677895337"><ele>1111.0</ele><time>2026-04-26T07:44:16.921Z</time></trkpt><trkpt lat="43.77810499389845" lon="12.093340858345103"><ele>1112.0</ele><time>2026-04-26T07:44:17.921Z</time></trkpt><trkpt lat="43.77809078763551" lon="12.093152521130756"><ele>1113.0</ele><time>2026-04-26T07:44:18.921Z</time></trkpt><trkpt lat="43.77809075658575" lon="12.09295233274289"><ele>1114.0</ele><time>2026-04-26T07:44:19.921Z</time></trkpt><trkpt lat="43.778063533597084" lon="12.092765474178524"><ele>1115.0</ele><time>2026-04-26T07:44:20.921Z</time></trkpt><trkpt lat="43.778054292732214" lon="12.092579112027245"><ele>1115.0</ele><time>2026-04-26T07:44:21.921Z</time></trkpt><trkpt lat="43.77804262209387" lon="12.092439959264428"><ele>1115.0</ele><time>2026-04-26T07:44:22.921Z</time></trkpt><trkpt lat="43.778001076570426" lon="12.092322940427314"><ele>1115.0</ele><time>2026-04-26T07:44:23.92Z</time></trkpt><trkpt lat="43.7779284225796" lon="12.092261024544522"><ele>1115.0</ele><time>2026-04-26T07:44:24.92Z</time></trkpt><trkpt lat="43.77783177124817" lon="12.092246933470047"><ele>1115.0</ele><time>2026-04-26T07:44:25.92Z</time></trkpt><trkpt lat="43.77773757571422" lon="12.092266446487896"><ele>1111.6666666666667</ele><time>2026-04-26T07:44:27.92Z</time></trkpt><trkpt lat="43.777661506722374" lon="12.092125347735513"><ele>1108.3333333333335</ele><time>2026-04-26T07:44:31.921Z</time></trkpt><trkpt lat="43.77764708682902" lon="12.092031045043093"><ele>1105.0</ele><time>2026-04-26T07:44:32.92Z</time></trkpt><trkpt lat="43.77762910010654" lon="12.09194183267864"><ele>1101.6666666666667</ele><time>2026-04-26T07:44:33.92Z</time></trkpt><trkpt lat="43.77761280527357" lon="12.091831498614729"><ele>1098.3333333333333</ele><time>2026-04-26T07:44:34.92Z</time></trkpt><trkpt lat="43.77758799792751" lon="12.091722688060596"><ele>1095.0</ele><time>2026-04-26T07:44:35.92Z</time></trkpt><trkpt lat="43.77756798873585" lon="12.091598853774189"><ele>1095.2</ele><time>2026-04-26T07:44:36.92Z</time></trkpt><trkpt lat="43.777544590728745" lon="12.091488567571226"><ele>1095.4</ele><time>2026-04-26T07:44:37.92Z</time></trkpt><trkpt lat="43.77750324742204" lon="12.091369065720023"><ele>1095.6</ele><time>2026-04-26T07:44:38.92Z</time></trkpt><trkpt lat="43.777462660289395" lon="12.091237340949101"><ele>1095.8</ele><time>2026-04-26T07:44:39.92Z</time></trkpt><trkpt lat="43.7774226332964" lon="12.091107159672378"><ele>1096.0</ele><time>2026-04-26T07:44:40.92Z</time></trkpt><trkpt lat="43.777380374447766" lon="12.090969040872583"><ele>1096.0</ele><time>2026-04-26T07:44:41.92Z</time></trkpt><trkpt lat="43.777333240999134" lon="12.090814271652704"><ele>1096.0</ele><time>2026-04-26T07:44:42.92Z</time></trkpt><trkpt lat="43.77729464845723" lon="12.090664331797857"><ele>1096.0</ele><time>2026-04-26T07:44:43.92Z</time></trkpt><trkpt lat="43.77725994142172" lon="12.09051956574125"><ele>1096.0</ele><time>2026-04-26T07:44:44.92Z</time></trkpt><trkpt lat="43.77721521483125" lon="12.090378172344439"><ele>1096.5</ele><time>2026-04-26T07:44:45.92Z</time></trkpt><trkpt lat="43.77716940872606" lon="12.090237555671024"><ele>1097.0</ele><time>2026-04-26T07:44:46.92Z</time></trkpt><trkpt lat="43.77712709336834" lon="12.090090591036537"><ele>1097.5</ele><time>2026-04-26T07:44:47.92Z</time></trkpt><trkpt lat="43.77708832055786" lon="12.089963943180674"><ele>1098.0</ele><time>2026-04-26T07:44:48.92Z</time></trkpt><trkpt lat="43.77704326347932" lon="12.089802435725808"><ele>1098.0</ele><time>2026-04-26T07:44:49.92Z</time></trkpt><trkpt lat="43.77698839100072" lon="12.089635007800627"><ele>1098.0</ele><time>2026-04-26T07:44:50.92Z</time></trkpt><trkpt lat="43.77694329791784" lon="12.08945516749135"><ele>1098.0</ele><time>2026-04-26T07:44:51.92Z</time></trkpt><trkpt lat="43.77689961459588" lon="12.08930247584455"><ele>1098.0</ele><time>2026-04-26T07:44:52.92Z</time></trkpt><trkpt lat="43.77685820427196" lon="12.089161207831534"><ele>1094.6</ele><time>2026-04-26T07:44:53.92Z</time></trkpt><trkpt lat="43.77680461770896" lon="12.089031017121636"><ele>1091.1999999999998</ele><time>2026-04-26T07:44:54.92Z</time></trkpt><trkpt lat="43.77677513622346" lon="12.088906079472828"><ele>1087.8</ele><time>2026-04-26T07:44:55.92Z</time></trkpt><trkpt lat="43.776738358481786" lon="12.088796261658866"><ele>1084.3999999999999</ele><time>2026-04-26T07:44:56.919Z</time></trkpt><trkpt lat="43.77671051183629" lon="12.08868668298701"><ele>1081.0</ele><time>2026-04-26T07:44:57.919Z</time></trkpt><trkpt lat="43.77667885064235" lon="12.088590182532464"><ele>1081.0</ele><time>2026-04-26T07:44:58.919Z</time></trkpt><trkpt lat="43.776650473642164" lon="12.088497953957463"><ele>1081.0</ele><time>2026-04-26T07:44:59.919Z</time></trkpt><trkpt lat="43.77663334289589" lon="12.08840497473736"><ele>1081.0</ele><time>2026-04-26T07:45:01.919Z</time></trkpt><trkpt lat="43.77656558705871" lon="12.088437127562585"><ele>1081.0</ele><time>2026-04-26T07:45:03.919Z</time></trkpt><trkpt lat="43.77657148408236" lon="12.08854655920832"><ele>1081.0</ele><time>2026-04-26T07:45:06.919Z</time></trkpt><trkpt lat="43.77663075896659" lon="12.088622559751936"><ele>1081.0</ele><time>2026-04-26T07:45:09.919Z</time></trkpt><trkpt lat="43.77669963520543" lon="12.088687456495393"><ele>1081.0</ele><time>2026-04-26T07:45:12.919Z</time></trkpt><trkpt lat="43.776729794375214" lon="12.088772796939368"><ele>1081.0</ele><time>2026-04-26T07:45:13.919Z</time></trkpt><trkpt lat="43.77676404992863" lon="12.088862766294227"><ele>1081.0</ele><time>2026-04-26T07:45:14.919Z</time></trkpt><trkpt lat="43.776768091522925" lon="12.088980480081023"><ele>1081.0</ele><time>2026-04-26T07:45:15.919Z</time></trkpt><trkpt lat="43.77683747557334" lon="12.089065927622448"><ele>1081.0</ele><time>2026-04-26T07:45:16.919Z</time></trkpt><trkpt lat="43.77685833263704" lon="12.089189834595537"><ele>1081.0</ele><time>2026-04-26T07:45:17.919Z</time></trkpt><trkpt lat="43.776898884685615" lon="12.08930864647607"><ele>1084.3999999999999</ele><time>2026-04-26T07:45:18.919Z</time></trkpt><trkpt lat="43.77693096383153" lon="12.08943072115361"><ele>1087.8</ele><time>2026-04-26T07:45:19.919Z</time></trkpt><trkpt lat="43.77697270062783" lon="12.089564095385889"><ele>1091.1999999999998</ele><time>2026-04-26T07:45:20.919Z</time></trkpt><trkpt lat="43.77700857035789" lon="12.089685662811958"><ele>1094.6</ele><time>2026-04-26T07:45:21.919Z</time></trkpt><trkpt lat="43.777040999497956" lon="12.089811372355763"><ele>1098.0</ele><time>2026-04-26T07:45:22.919Z</time></trkpt><trkpt lat="43.7770805095578" lon="12.089927383480747"><ele>1098.0</ele><time>2026-04-26T07:45:23.919Z</time></trkpt><trkpt lat="43.77710936990924" lon="12.090023967119958"><ele>1098.0</ele><time>2026-04-26T07:45:24.919Z</time></trkpt><trkpt lat="43.77713596090479" lon="12.090110029023352"><ele>1098.0</ele><time>2026-04-26T07:45:25.919Z</time></trkpt><trkpt lat="43.77720475608361" lon="12.090288257200251"><ele>1098.0</ele><time>2026-04-26T07:45:27.919Z</time></trkpt><trkpt lat="43.77724225280785" lon="12.090402724468237"><ele>1098.0</ele><time>2026-04-26T07:45:28.919Z</time></trkpt><trkpt lat="43.77726921314175" lon="12.090516652214848"><ele>1098.0</ele><time>2026-04-26T07:45:29.919Z</time></trkpt><trkpt lat="43.777300301856414" lon="12.090651135681759"><ele>1098.0</ele><time>2026-04-26T07:45:30.919Z</time></trkpt><trkpt lat="43.77734401303669" lon="12.090776517646397"><ele>1098.0</ele><time>2026-04-26T07:45:31.919Z</time></trkpt><trkpt lat="43.777382493477184" lon="12.090900514405705"><ele>1098.0</ele><time>2026-04-26T07:45:32.919Z</time></trkpt><trkpt lat="43.77740565673295" lon="12.090995173520435"><ele>1098.0</ele><time>2026-04-26T07:45:40.919Z</time></trkpt><trkpt lat="43.7774477385119" lon="12.091111834837092"><ele>1097.6666666666667</ele><time>2026-04-26T07:45:42.919Z</time></trkpt><trkpt lat="43.77747730906476" lon="12.091212724116263"><ele>1097.3333333333333</ele><time>2026-04-26T07:45:44.919Z</time></trkpt><trkpt lat="43.77753034590144" lon="12.091269116704794"><ele>1097.0</ele><time>2026-04-26T07:45:47.919Z</time></trkpt><trkpt lat="43.77751787172547" lon="12.09117774809361"><ele>1096.6666666666665</ele><time>2026-04-26T07:45:50.919Z</time></trkpt><trkpt lat="43.777528391414656" lon="12.091059546083372"><ele>1096.3333333333333</ele><time>2026-04-26T07:45:51.919Z</time></trkpt><trkpt lat="43.77752774885049" lon="12.090956044769154"><ele>1096.0</ele><time>2026-04-26T07:45:52.919Z</time></trkpt><trkpt lat="43.77755095263698" lon="12.090841091183737"><ele>1096.3999999999999</ele><time>2026-04-26T07:45:53.919Z</time></trkpt><trkpt lat="43.77756991583995" lon="12.090728824246462"><ele>1096.8</ele><time>2026-04-26T07:45:54.919Z</time></trkpt><trkpt lat="43.77758599034177" lon="12.09060164614384"><ele>1097.1999999999998</ele><time>2026-04-26T07:45:55.919Z</time></trkpt><trkpt lat="43.777637609292626" lon="12.090489648131372"><ele>1097.6</ele><time>2026-04-26T07:45:56.919Z</time></trkpt><trkpt lat="43.77769721274767" lon="12.090389512375708"><ele>1098.0</ele><time>2026-04-26T07:45:57.919Z</time></trkpt><trkpt lat="43.77776949920381" lon="12.090314642928897"><ele>1103.2</ele><time>2026-04-26T07:45:58.919Z</time></trkpt><trkpt lat="43.777848861271615" lon="12.090239609352524"><ele>1108.4</ele><time>2026-04-26T07:45:59.919Z</time></trkpt><trkpt lat="43.77792906566496" lon="12.09018062196774"><ele>1113.6000000000001</ele><time>2026-04-26T07:46:00.919Z</time></trkpt><trkpt lat="43.77801726187204" lon="12.090101435735487"><ele>1118.8</ele><time>2026-04-26T07:46:01.919Z</time></trkpt><trkpt lat="43.77808819711946" lon="12.090028382110052"><ele>1124.0</ele><time>2026-04-26T07:46:02.919Z</time></trkpt><trkpt lat="43.77813996574812" lon="12.08996069874591"><ele>1123.2</ele><time>2026-04-26T07:46:03.919Z</time></trkpt><trkpt lat="43.77818225046001" lon="12.089816878644546"><ele>1122.4</ele><time>2026-04-26T07:46:05.919Z</time></trkpt><trkpt lat="43.77816046862048" lon="12.089695717508539"><ele>1121.6</ele><time>2026-04-26T07:46:06.919Z</time></trkpt><trkpt lat="43.77812586856772" lon="12.089558388422905"><ele>1120.8</ele><time>2026-04-26T07:46:07.919Z</time></trkpt><trkpt lat="43.77807945779635" lon="12.089384401993211"><ele>1120.0</ele><time>2026-04-26T07:46:08.919Z</time></trkpt><trkpt lat="43.778034410110486" lon="12.089224125550821"><ele>1118.6</ele><time>2026-04-26T07:46:09.919Z</time></trkpt><trkpt lat="43.77800230663795" lon="12.089068382785646"><ele>1117.2</ele><time>2026-04-26T07:46:10.919Z</time></trkpt><trkpt lat="43.777990334581574" lon="12.08893379342928"><ele>1115.8</ele><time>2026-04-26T07:46:11.919Z</time></trkpt><trkpt lat="43.77801058233541" lon="12.088807237607535"><ele>1114.4</ele><time>2026-04-26T07:46:12.919Z</time></trkpt><trkpt lat="43.778056394959904" lon="12.08869971733163"><ele>1113.0</ele><time>2026-04-26T07:46:13.919Z</time></trkpt><trkpt lat="43.77813865277243" lon="12.08861734942927"><ele>1113.0</ele><time>2026-04-26T07:46:14.919Z</time></trkpt><trkpt lat="43.778247649392085" lon="12.08856442294295"><ele>1113.0</ele><time>2026-04-26T07:46:15.919Z</time></trkpt><trkpt lat="43.77836029379741" lon="12.08852180805894"><ele>1113.0</ele><time>2026-04-26T07:46:16.919Z</time></trkpt><trkpt lat="43.77847708155566" lon="12.088471028349975"><ele>1113.0</ele><time>2026-04-26T07:46:17.919Z</time></trkpt><trkpt lat="43.7785887040889" lon="12.088413004034674"><ele>1120.25</ele><time>2026-04-26T07:46:18.919Z</time></trkpt><trkpt lat="43.7787005697517" lon="12.088328894868342"><ele>1127.5</ele><time>2026-04-26T07:46:19.918Z</time></trkpt><trkpt lat="43.77878369672683" lon="12.088201333035325"><ele>1134.75</ele><time>2026-04-26T07:46:20.918Z</time></trkpt><trkpt lat="43.77884066453139" lon="12.088060693500358"><ele>1142.0</ele><time>2026-04-26T07:46:21.918Z</time></trkpt><trkpt lat="43.77887685218338" lon="12.08787135414403"><ele>1142.0</ele><time>2026-04-26T07:46:22.918Z</time></trkpt><trkpt lat="43.77890193213204" lon="12.087664436717674"><ele>1142.0</ele><time>2026-04-26T07:46:23.918Z</time></trkpt><trkpt lat="43.77893541784891" lon="12.08746247151669"><ele>1142.0</ele><time>2026-04-26T07:46:24.918Z</time></trkpt><trkpt lat="43.778987201415994" lon="12.08726851601597"><ele>1140.3333333333335</ele><time>2026-04-26T07:46:25.918Z</time></trkpt><trkpt lat="43.779026179301795" lon="12.08707031020035"><ele>1138.6666666666667</ele><time>2026-04-26T07:46:26.918Z</time></trkpt><trkpt lat="43.77906507603718" lon="12.08687178451795"><ele>1137.0</ele><time>2026-04-26T07:46:27.918Z</time></trkpt><trkpt lat="43.77910709475199" lon="12.086660967624182"><ele>1135.5</ele><time>2026-04-26T07:46:28.918Z</time></trkpt><trkpt lat="43.779143453036454" lon="12.08646038608104"><ele>1134.0</ele><time>2026-04-26T07:46:29.918Z</time></trkpt><trkpt lat="43.77917999492262" lon="12.086265951181641"><ele>1132.5</ele><time>2026-04-26T07:46:30.918Z</time></trkpt><trkpt lat="43.779215427180574" lon="12.086087867436246"><ele>1131.0</ele><time>2026-04-26T07:46:31.918Z</time></trkpt><trkpt lat="43.77925827911312" lon="12.085886515893565"><ele>1129.0</ele><time>2026-04-26T07:46:32.918Z</time></trkpt><trkpt lat="43.77929454249711" lon="12.08570882365757"><ele>1127.0</ele><time>2026-04-26T07:46:33.918Z</time></trkpt><trkpt lat="43.77936505413289" lon="12.085542200456402"><ele>1125.0</ele><time>2026-04-26T07:46:34.918Z</time></trkpt><trkpt lat="43.779436928233714" lon="12.08538404152642"><ele>1123.0</ele><time>2026-04-26T07:46:35.917Z</time></trkpt><trkpt lat="43.779517127733776" lon="12.085244400928929"><ele>1127.75</ele><time>2026-04-26T07:46:36.917Z</time></trkpt><trkpt lat="43.7796090654211" lon="12.085109495600209"><ele>1132.5</ele><time>2026-04-26T07:46:37.917Z</time></trkpt><trkpt lat="43.77971409318182" lon="12.084977526260358"><ele>1137.25</ele><time>2026-04-26T07:46:38.917Z</time></trkpt><trkpt lat="43.77982424022831" lon="12.084836817150245"><ele>1142.0</ele><time>2026-04-26T07:46:39.917Z</time></trkpt><trkpt lat="43.779929581421925" lon="12.084680729489754"><ele>1142.0</ele><time>2026-04-26T07:46:40.917Z</time></trkpt><trkpt lat="43.78001907323226" lon="12.084543136020043"><ele>1142.0</ele><time>2026-04-26T07:46:41.917Z</time></trkpt><trkpt lat="43.78011258973815" lon="12.084375997542374"><ele>1142.0</ele><time>2026-04-26T07:46:42.917Z</time></trkpt><trkpt lat="43.780191500617256" lon="12.084206174643738"><ele>1142.0</ele><time>2026-04-26T07:46:43.917Z</time></trkpt><trkpt lat="43.78027706867568" lon="12.084026366020916"><ele>1146.25</ele><time>2026-04-26T07:46:44.917Z</time></trkpt><trkpt lat="43.78035613786975" lon="12.08386248321091"><ele>1150.5</ele><time>2026-04-26T07:46:45.917Z</time></trkpt><trkpt lat="43.78042709650075" lon="12.083720587870234"><ele>1154.75</ele><time>2026-04-26T07:46:46.917Z</time></trkpt><trkpt lat="43.7804888197157" lon="12.083617500448153"><ele>1159.0</ele><time>2026-04-26T07:46:47.917Z</time></trkpt><trkpt lat="43.78056142091008" lon="12.083547992316182"><ele>1159.0</ele><time>2026-04-26T07:46:48.917Z</time></trkpt><trkpt lat="43.780641955814986" lon="12.083500288773184"><ele>1159.0</ele><time>2026-04-26T07:46:49.917Z</time></trkpt><trkpt lat="43.78070116352485" lon="12.083445478826208"><ele>1159.0</ele><time>2026-04-26T07:46:50.917Z</time></trkpt><trkpt lat="43.780768120238534" lon="12.083326968807153"><ele>1159.0</ele><time>2026-04-26T07:46:52.917Z</time></trkpt><trkpt lat="43.780773059104746" lon="12.083218554302121"><ele>1159.0</ele><time>2026-04-26T07:46:53.917Z</time></trkpt><trkpt lat="43.780722794419574" lon="12.083073994224064"><ele>1159.25</ele><time>2026-04-26T07:46:54.917Z</time></trkpt><trkpt lat="43.78067493905736" lon="12.082933988010835"><ele>1159.5</ele><time>2026-04-26T07:46:55.917Z</time></trkpt><trkpt lat="43.78062410085393" lon="12.082781794100514"><ele>1159.75</ele><time>2026-04-26T07:46:56.917Z</time></trkpt><trkpt lat="43.7805317040043" lon="12.082659716301032"><ele>1160.0</ele><time>2026-04-26T07:46:57.917Z</time></trkpt><trkpt lat="43.780505049396865" lon="12.082518809133864"><ele>1160.8333333333335</ele><time>2026-04-26T07:46:58.917Z</time></trkpt><trkpt lat="43.78051067555332" lon="12.08241219627274"><ele>1161.6666666666667</ele><time>2026-04-26T07:46:59.917Z</time></trkpt><trkpt lat="43.78052239208916" lon="12.082324250645675"><ele>1162.5</ele><time>2026-04-26T07:47:00.917Z</time></trkpt><trkpt lat="43.78057692079639" lon="12.082257612064222"><ele>1163.3333333333333</ele><time>2026-04-26T07:47:01.917Z</time></trkpt><trkpt lat="43.78064778572926" lon="12.082238640112115"><ele>1164.1666666666665</ele><time>2026-04-26T07:47:02.917Z</time></trkpt><trkpt lat="43.78072658291958" lon="12.082267857912797"><ele>1165.0</ele><time>2026-04-26T07:47:03.917Z</time></trkpt><trkpt lat="43.7808762809354" lon="12.082311745147305"><ele>1165.0</ele><time>2026-04-26T07:47:05.917Z</time></trkpt><trkpt lat="43.78101114240725" lon="12.082392685471556"><ele>1165.0</ele><time>2026-04-26T07:47:06.917Z</time></trkpt><trkpt lat="43.78112741754608" lon="12.08243000521976"><ele>1165.0</ele><time>2026-04-26T07:47:07.917Z</time></trkpt><trkpt lat="43.781265677966175" lon="12.082455837055827"><ele>1165.0</ele><time>2026-04-26T07:47:08.917Z</time></trkpt><trkpt lat="43.781416282594556" lon="12.082504221118691"><ele>1165.8</ele><time>2026-04-26T07:47:09.917Z</time></trkpt><trkpt lat="43.78154779871275" lon="12.082550370254939"><ele>1166.6</ele><time>2026-04-26T07:47:10.917Z</time></trkpt><trkpt lat="43.78164490670336" lon="12.082558338161876"><ele>1167.4</ele><time>2026-04-26T07:47:11.917Z</time></trkpt><trkpt lat="43.781734078714926" lon="12.082521801119183"><ele>1168.2</ele><time>2026-04-26T07:47:12.917Z</time></trkpt><trkpt lat="43.78179881908124" lon="12.082442151493643"><ele>1169.0</ele><time>2026-04-26T07:47:13.917Z</time></trkpt><trkpt lat="43.781910050962146" lon="12.08239275408724"><ele>1171.0</ele><time>2026-04-26T07:47:14.917Z</time></trkpt><trkpt lat="43.78200800072681" lon="12.082295213276897"><ele>1173.0</ele><time>2026-04-26T07:47:15.917Z</time></trkpt><trkpt lat="43.7820968041605" lon="12.082206552071248"><ele>1175.0</ele><time>2026-04-26T07:47:16.917Z</time></trkpt><trkpt lat="43.7821711562707" lon="12.082132319023128"><ele>1177.0</ele><time>2026-04-26T07:47:17.917Z</time></trkpt><trkpt lat="43.78226257185572" lon="12.082059457511326"><ele>1179.0</ele><time>2026-04-26T07:47:18.917Z</time></trkpt><trkpt lat="43.7823471628609" lon="12.08202578202501"><ele>1179.0</ele><time>2026-04-26T07:47:19.917Z</time></trkpt><trkpt lat="43.78243196422123" lon="12.082051172874605"><ele>1179.0</ele><time>2026-04-26T07:47:20.917Z</time></trkpt><trkpt lat="43.78253059577287" lon="12.08209926554674"><ele>1179.0</ele><time>2026-04-26T07:47:21.917Z</time></trkpt><trkpt lat="43.78265054981728" lon="12.082162751521674"><ele>1179.0</ele><time>2026-04-26T07:47:22.917Z</time></trkpt><trkpt lat="43.782801451850176" lon="12.082224731426058"><ele>1180.75</ele><time>2026-04-26T07:47:23.917Z</time></trkpt><trkpt lat="43.78294437272163" lon="12.082297110646383"><ele>1182.5</ele><time>2026-04-26T07:47:24.917Z</time></trkpt><trkpt lat="43.783077560652394" lon="12.082381122825431"><ele>1184.25</ele><time>2026-04-26T07:47:25.917Z</time></trkpt><trkpt lat="43.78321505931873" lon="12.082416795119476"><ele>1186.0</ele><time>2026-04-26T07:47:26.917Z</time></trkpt><trkpt lat="43.783343711267925" lon="12.082377467002377"><ele>1186.0</ele><time>2026-04-26T07:47:27.917Z</time></trkpt><trkpt lat="43.78345429576961" lon="12.082318826522918"><ele>1186.0</ele><time>2026-04-26T07:47:28.917Z</time></trkpt><trkpt lat="43.78357503399703" lon="12.08225882073352"><ele>1186.0</ele><time>2026-04-26T07:47:29.917Z</time></trkpt><trkpt lat="43.783660212432146" lon="12.082214002805053"><ele>1186.0</ele><time>2026-04-26T07:47:30.917Z</time></trkpt><trkpt lat="43.78375120515286" lon="12.0821688534061"><ele>1186.0</ele><time>2026-04-26T07:47:31.917Z</time></trkpt><trkpt lat="43.7838482140772" lon="12.082261682416473"><ele>1186.0</ele><time>2026-04-26T07:47:32.917Z</time></trkpt><trkpt lat="43.78396646472126" lon="12.082335012976861"><ele>1186.0</ele><time>2026-04-26T07:47:33.917Z</time></trkpt><trkpt lat="43.784081469007" lon="12.08237145286661"><ele>1186.0</ele><time>2026-04-26T07:47:34.917Z</time></trkpt><trkpt lat="43.784187069349755" lon="12.082341751022303"><ele>1186.0</ele><time>2026-04-26T07:47:35.917Z</time></trkpt><trkpt lat="43.78429322856997" lon="12.08222401975097"><ele>1188.3333333333333</ele><time>2026-04-26T07:47:36.917Z</time></trkpt><trkpt lat="43.78440198113224" lon="12.082096371280334"><ele>1190.6666666666667</ele><time>2026-04-26T07:47:37.917Z</time></trkpt><trkpt lat="43.78452301013293" lon="12.081952554354094"><ele>1193.0</ele><time>2026-04-26T07:47:38.917Z</time></trkpt><trkpt lat="43.78464809800112" lon="12.081798245778522"><ele>1193.0</ele><time>2026-04-26T07:47:39.917Z</time></trkpt><trkpt lat="43.78475095515566" lon="12.081630296845862"><ele>1193.0</ele><time>2026-04-26T07:47:40.917Z</time></trkpt><trkpt lat="43.78486516322041" lon="12.081493389867996"><ele>1193.0</ele><time>2026-04-26T07:47:41.917Z</time></trkpt><trkpt lat="43.784982451290425" lon="12.081341507673658"><ele>1194.6666666666667</ele><time>2026-04-26T07:47:42.917Z</time></trkpt><trkpt lat="43.78508455653088" lon="12.08116166576642"><ele>1196.3333333333333</ele><time>2026-04-26T07:47:43.917Z</time></trkpt><trkpt lat="43.7851926652634" lon="12.080975821410952"><ele>1198.0</ele><time>2026-04-26T07:47:44.917Z</time></trkpt><trkpt lat="43.78529944902848" lon="12.080787269153099"><ele>1202.3333333333333</ele><time>2026-04-26T07:47:45.917Z</time></trkpt><trkpt lat="43.785405353439145" lon="12.08059684845826"><ele>1206.6666666666667</ele><time>2026-04-26T07:47:46.917Z</time></trkpt><trkpt lat="43.785513213533484" lon="12.080416365442183"><ele>1211.0</ele><time>2026-04-26T07:47:47.917Z</time></trkpt><trkpt lat="43.785619771170175" lon="12.080237813980279"><ele>1211.0</ele><time>2026-04-26T07:47:48.917Z</time></trkpt><trkpt lat="43.78571844950654" lon="12.080068790959402"><ele>1211.0</ele><time>2026-04-26T07:47:49.917Z</time></trkpt><trkpt lat="43.78582220424779" lon="12.079933970476898"><ele>1211.0</ele><time>2026-04-26T07:47:50.917Z</time></trkpt><trkpt lat="43.78589883005394" lon="12.079810025873664"><ele>1211.0</ele><time>2026-04-26T07:47:51.917Z</time></trkpt><trkpt lat="43.78595428962345" lon="12.079720318533568"><ele>1212.3333333333335</ele><time>2026-04-26T07:47:52.917Z</time></trkpt><trkpt lat="43.78598784780919" lon="12.07962054474583"><ele>1213.6666666666667</ele><time>2026-04-26T07:47:53.917Z</time></trkpt><trkpt lat="43.78600274845907" lon="12.07950807851959"><ele>1215.0</ele><time>2026-04-26T07:47:54.917Z</time></trkpt><trkpt lat="43.785978913743044" lon="12.079400140120265"><ele>1216.3333333333333</ele><time>2026-04-26T07:47:55.916Z</time></trkpt><trkpt lat="43.78591477759387" lon="12.079309506716308"><ele>1217.6666666666665</ele><time>2026-04-26T07:47:56.916Z</time></trkpt><trkpt lat="43.78580263443035" lon="12.079300036615525"><ele>1219.0</ele><time>2026-04-26T07:47:57.916Z</time></trkpt><trkpt lat="43.78573902445755" lon="12.079247255492454"><ele>1219.0</ele><time>2026-04-26T07:47:58.916Z</time></trkpt><trkpt lat="43.78564097322646" lon="12.079192491760974"><ele>1219.0</ele><time>2026-04-26T07:47:59.916Z</time></trkpt><trkpt lat="43.78553853659706" lon="12.07913301382002"><ele>1219.0</ele><time>2026-04-26T07:48:00.916Z</time></trkpt><trkpt lat="43.785449219334126" lon="12.079119519911275"><ele>1219.0</ele><time>2026-04-26T07:48:01.916Z</time></trkpt><trkpt lat="43.78535642642482" lon="12.079097629034482"><ele>1219.0</ele><time>2026-04-26T07:48:02.916Z</time></trkpt><trkpt lat="43.785267793604596" lon="12.07910403128072"><ele>1219.0</ele><time>2026-04-26T07:48:03.916Z</time></trkpt><trkpt lat="43.78520639229245" lon="12.079161216976672"><ele>1219.0</ele><time>2026-04-26T07:48:04.916Z</time></trkpt><trkpt lat="43.78514680433664" lon="12.07924567353142"><ele>1219.0</ele><time>2026-04-26T07:48:05.916Z</time></trkpt><trkpt lat="43.78506010942863" lon="12.079322711191843"><ele>1219.0</ele><time>2026-04-26T07:48:06.916Z</time></trkpt><trkpt lat="43.78493587647905" lon="12.079400787436782"><ele>1219.0</ele><time>2026-04-26T07:48:07.916Z</time></trkpt><trkpt lat="43.78481115154165" lon="12.07941639883578"><ele>1221.0</ele><time>2026-04-26T07:48:08.916Z</time></trkpt><trkpt lat="43.78470609101272" lon="12.079390358895772"><ele>1223.0</ele><time>2026-04-26T07:48:09.916Z</time></trkpt><trkpt lat="43.78460990134412" lon="12.079329681064927"><ele>1225.0</ele><time>2026-04-26T07:48:10.916Z</time></trkpt><trkpt lat="43.78452752301227" lon="12.079240298921228"><ele>1227.0</ele><time>2026-04-26T07:48:11.916Z</time></trkpt><trkpt lat="43.78448816550863" lon="12.079122864143528"><ele>1229.0</ele><time>2026-04-26T07:48:12.915Z</time></trkpt><trkpt lat="43.78444978779115" lon="12.078995649457923"><ele>1230.25</ele><time>2026-04-26T07:48:13.914Z</time></trkpt><trkpt lat="43.78441065646933" lon="12.07885847684034"><ele>1231.5</ele><time>2026-04-26T07:48:14.914Z</time></trkpt><trkpt lat="43.78436250136454" lon="12.07870588635088"><ele>1232.75</ele><time>2026-04-26T07:48:15.913Z</time></trkpt><trkpt lat="43.78431278466691" lon="12.078565323635164"><ele>1234.0</ele><time>2026-04-26T07:48:16.913Z</time></trkpt><trkpt lat="43.78426265600897" lon="12.078410455774945"><ele>1235.0</ele><time>2026-04-26T07:48:17.912Z</time></trkpt><trkpt lat="43.7842161015798" lon="12.07825993341738"><ele>1236.0</ele><time>2026-04-26T07:48:18.912Z</time></trkpt><trkpt lat="43.7841780742115" lon="12.078127912399808"><ele>1237.0</ele><time>2026-04-26T07:48:19.912Z</time></trkpt><trkpt lat="43.784161655637924" lon="12.078032740919246"><ele>1238.0</ele><time>2026-04-26T07:48:20.911Z</time></trkpt><trkpt lat="43.784182458162796" lon="12.077943113496431"><ele>1239.0</ele><time>2026-04-26T07:48:21.911Z</time></trkpt><trkpt lat="43.784234641599234" lon="12.077812995998462"><ele>1239.0</ele><time>2026-04-26T07:48:22.911Z</time></trkpt><trkpt lat="43.784293492940506" lon="12.077674700499818"><ele>1239.0</ele><time>2026-04-26T07:48:23.91Z</time></trkpt><trkpt lat="43.78434759593966" lon="12.07750388413572"><ele>1239.0</ele><time>2026-04-26T07:48:24.91Z</time></trkpt><trkpt lat="43.78441329623946" lon="12.077344919829255"><ele>1239.0</ele><time>2026-04-26T07:48:25.91Z</time></trkpt><trkpt lat="43.78446161060242" lon="12.077178024124892"><ele>1246.75</ele><time>2026-04-26T07:48:26.909Z</time></trkpt><trkpt lat="43.784488137098315" lon="12.077015605220389"><ele>1254.5</ele><time>2026-04-26T07:48:27.909Z</time></trkpt><trkpt lat="43.784487356423" lon="12.07684990664616"><ele>1262.25</ele><time>2026-04-26T07:48:28.909Z</time></trkpt><trkpt lat="43.78446395590156" lon="12.076684485696578"><ele>1270.0</ele><time>2026-04-26T07:48:29.909Z</time></trkpt><trkpt lat="43.78442669320087" lon="12.076571500034529"><ele>1270.8</ele><time>2026-04-26T07:48:30.909Z</time></trkpt><trkpt lat="43.78438952384472" lon="12.076483959095633"><ele>1271.6</ele><time>2026-04-26T07:48:31.908Z</time></trkpt><trkpt lat="43.784322784250804" lon="12.076427819802632"><ele>1272.4</ele><time>2026-04-26T07:48:32.908Z</time></trkpt><trkpt lat="43.78420345205962" lon="12.076430839662901"><ele>1273.2</ele><time>2026-04-26T07:48:33.908Z</time></trkpt><trkpt lat="43.7841089271072" lon="12.076430781723767"><ele>1274.0</ele><time>2026-04-26T07:48:34.908Z</time></trkpt><trkpt lat="43.784003388119345" lon="12.076396654130706"><ele>1274.0</ele><time>2026-04-26T07:48:35.908Z</time></trkpt><trkpt lat="43.78391508125884" lon="12.076337935825308"><ele>1274.0</ele><time>2026-04-26T07:48:36.907Z</time></trkpt><trkpt lat="43.783849774056826" lon="12.07625470736154"><ele>1274.0</ele><time>2026-04-26T07:48:37.907Z</time></trkpt><trkpt lat="43.78382247300537" lon="12.076160607047441"><ele>1274.0</ele><time>2026-04-26T07:48:39.907Z</time></trkpt><trkpt lat="43.78391707951017" lon="12.076071479056402"><ele>1274.0</ele><time>2026-04-26T07:48:41.907Z</time></trkpt><trkpt lat="43.78397834059647" lon="12.076119061613852"><ele>1274.0</ele><time>2026-04-26T07:48:42.907Z</time></trkpt><trkpt lat="43.78404735222304" lon="12.076160917181422"><ele>1274.0</ele><time>2026-04-26T07:48:43.907Z</time></trkpt><trkpt lat="43.7841297102862" lon="12.076195709129044"><ele>1274.0</ele><time>2026-04-26T07:48:44.906Z</time></trkpt><trkpt lat="43.784216987109545" lon="12.076211771838484"><ele>1274.0</ele><time>2026-04-26T07:48:45.907Z</time></trkpt><trkpt lat="43.78428747630245" lon="12.076202356120643"><ele>1274.0</ele><time>2026-04-26T07:48:46.907Z</time></trkpt><trkpt lat="43.784358083713784" lon="12.076148512506485"><ele>1274.0</ele><time>2026-04-26T07:48:47.906Z</time></trkpt><trkpt lat="43.7844125758015" lon="12.076084835350429"><ele>1274.0</ele><time>2026-04-26T07:48:48.906Z</time></trkpt><trkpt lat="43.78448176305469" lon="12.076019800106813"><ele>1275.5</ele><time>2026-04-26T07:48:50.906Z</time></trkpt><trkpt lat="43.784541317127996" lon="12.076052589383364"><ele>1277.0</ele><time>2026-04-26T07:48:51.906Z</time></trkpt><trkpt lat="43.7846179176316" lon="12.076110109556325"><ele>1278.5</ele><time>2026-04-26T07:48:52.906Z</time></trkpt><trkpt lat="43.784702464369374" lon="12.07616551936373"><ele>1280.0</ele><time>2026-04-26T07:48:53.906Z</time></trkpt><trkpt lat="43.78477916755854" lon="12.076205796126136"><ele>1281.5</ele><time>2026-04-26T07:48:54.906Z</time></trkpt><trkpt lat="43.784872445442495" lon="12.076261025624333"><ele>1283.0</ele><time>2026-04-26T07:48:55.906Z</time></trkpt><trkpt lat="43.78495582223537" lon="12.076302794292957"><ele>1283.0</ele><time>2026-04-26T07:48:56.906Z</time></trkpt><trkpt lat="43.785032074813486" lon="12.07632297593511"><ele>1283.0</ele><time>2026-04-26T07:48:57.906Z</time></trkpt><trkpt lat="43.78513297827446" lon="12.076329183500384"><ele>1283.0</ele><time>2026-04-26T07:48:59.906Z</time></trkpt><trkpt lat="43.7852301472346" lon="12.0762468851895"><ele>1283.0</ele><time>2026-04-26T07:49:01.906Z</time></trkpt><trkpt lat="43.78531538067975" lon="12.076152096121966"><ele>1283.0</ele><time>2026-04-26T07:49:02.906Z</time></trkpt><trkpt lat="43.785401319883135" lon="12.076051825455728"><ele>1282.4</ele><time>2026-04-26T07:49:03.906Z</time></trkpt><trkpt lat="43.78550434391374" lon="12.075953543004552"><ele>1281.8000000000002</ele><time>2026-04-26T07:49:04.906Z</time></trkpt><trkpt lat="43.785580501953035" lon="12.075878281344757"><ele>1281.2</ele><time>2026-04-26T07:49:05.906Z</time></trkpt><trkpt lat="43.78563422771667" lon="12.075795306252509"><ele>1280.6</ele><time>2026-04-26T07:49:06.906Z</time></trkpt><trkpt lat="43.78568597055167" lon="12.075697191337854"><ele>1280.0</ele><time>2026-04-26T07:49:07.906Z</time></trkpt><trkpt lat="43.78572289217012" lon="12.075593152391304"><ele>1281.8</ele><time>2026-04-26T07:49:08.905Z</time></trkpt><trkpt lat="43.785758667703924" lon="12.075470476707611"><ele>1283.6</ele><time>2026-04-26T07:49:09.905Z</time></trkpt><trkpt lat="43.78577892079638" lon="12.07533626783917"><ele>1285.4</ele><time>2026-04-26T07:49:10.905Z</time></trkpt><trkpt lat="43.78576808627761" lon="12.07521447324473"><ele>1287.2</ele><time>2026-04-26T07:49:11.905Z</time></trkpt><trkpt lat="43.7857372233176" lon="12.075124604948176"><ele>1289.0</ele><time>2026-04-26T07:49:12.905Z</time></trkpt><trkpt lat="43.78566044495735" lon="12.075021701766078"><ele>1289.0</ele><time>2026-04-26T07:49:13.905Z</time></trkpt><trkpt lat="43.785603968699384" lon="12.074944784290997"><ele>1289.0</ele><time>2026-04-26T07:49:14.905Z</time></trkpt><trkpt lat="43.78556012006216" lon="12.074853486592184"><ele>1289.0</ele><time>2026-04-26T07:49:15.905Z</time></trkpt><trkpt lat="43.785550888048476" lon="12.074742940266061"><ele>1289.0</ele><time>2026-04-26T07:49:16.905Z</time></trkpt><trkpt lat="43.785567401688475" lon="12.074625861855443"><ele>1289.0</ele><time>2026-04-26T07:49:17.905Z</time></trkpt><trkpt lat="43.785568118042534" lon="12.07451100303571"><ele>1289.0</ele><time>2026-04-26T07:49:18.905Z</time></trkpt><trkpt lat="43.78556472353298" lon="12.074404866486578"><ele>1290.6666666666667</ele><time>2026-04-26T07:49:19.905Z</time></trkpt><trkpt lat="43.78551120179718" lon="12.07431578344509"><ele>1292.3333333333335</ele><time>2026-04-26T07:49:20.905Z</time></trkpt><trkpt lat="43.785448663639826" lon="12.074225638196653"><ele>1294.0</ele><time>2026-04-26T07:49:21.905Z</time></trkpt><trkpt lat="43.78543162531057" lon="12.074137301745202"><ele>1295.6666666666667</ele><time>2026-04-26T07:49:22.905Z</time></trkpt><trkpt lat="43.785434274008566" lon="12.074026467433425"><ele>1297.3333333333333</ele><time>2026-04-26T07:49:23.905Z</time></trkpt><trkpt lat="43.78548807321388" lon="12.073923747844114"><ele>1299.0</ele><time>2026-04-26T07:49:24.905Z</time></trkpt><trkpt lat="43.785571644242864" lon="12.073806473058381"><ele>1303.75</ele><time>2026-04-26T07:49:25.905Z</time></trkpt><trkpt lat="43.78567215441492" lon="12.073664634022903"><ele>1308.5</ele><time>2026-04-26T07:49:26.905Z</time></trkpt><trkpt lat="43.78576233979232" lon="12.073561256845261"><ele>1313.25</ele><time>2026-04-26T07:49:27.905Z</time></trkpt><trkpt lat="43.7858635935624" lon="12.073442823739333"><ele>1318.0</ele><time>2026-04-26T07:49:28.905Z</time></trkpt><trkpt lat="43.78596541804981" lon="12.07334154895621"><ele>1320.0</ele><time>2026-04-26T07:49:29.905Z</time></trkpt><trkpt lat="43.78608499653523" lon="12.07323097952693"><ele>1322.0</ele><time>2026-04-26T07:49:30.905Z</time></trkpt><trkpt lat="43.7861941826674" lon="12.073129753346834"><ele>1324.0</ele><time>2026-04-26T07:49:31.905Z</time></trkpt><trkpt lat="43.78629920951004" lon="12.073010526991165"><ele>1326.0</ele><time>2026-04-26T07:49:32.905Z</time></trkpt><trkpt lat="43.786376970753665" lon="12.072867662501256"><ele>1326.0</ele><time>2026-04-26T07:49:33.905Z</time></trkpt><trkpt lat="43.78646612816201" lon="12.07272653227269"><ele>1326.0</ele><time>2026-04-26T07:49:34.905Z</time></trkpt><trkpt lat="43.78655569360178" lon="12.072548701959056"><ele>1326.0</ele><time>2026-04-26T07:49:35.905Z</time></trkpt><trkpt lat="43.78668224976927" lon="12.072448678940788"><ele>1326.0</ele><time>2026-04-26T07:49:36.905Z</time></trkpt><trkpt lat="43.78676236371535" lon="12.072311029347711"><ele>1331.5</ele><time>2026-04-26T07:49:37.905Z</time></trkpt><trkpt lat="43.78684935931677" lon="12.072192050344832"><ele>1337.0</ele><time>2026-04-26T07:49:38.905Z</time></trkpt><trkpt lat="43.78695747075534" lon="12.072097581155404"><ele>1342.5</ele><time>2026-04-26T07:49:39.905Z</time></trkpt><trkpt lat="43.78707290112113" lon="12.072037010660237"><ele>1348.0</ele><time>2026-04-26T07:49:40.905Z</time></trkpt><trkpt lat="43.78719603277269" lon="12.071968797737089"><ele>1348.0</ele><time>2026-04-26T07:49:41.905Z</time></trkpt><trkpt lat="43.787318530443855" lon="12.071900795931759"><ele>1348.0</ele><time>2026-04-26T07:49:42.905Z</time></trkpt><trkpt lat="43.787401921475684" lon="12.071860318088204"><ele>1348.0</ele><time>2026-04-26T07:49:43.905Z</time></trkpt><trkpt lat="43.78750557664857" lon="12.071858908203865"><ele>1348.0</ele><time>2026-04-26T07:49:45.905Z</time></trkpt><trkpt lat="43.78757088066701" lon="12.071910109744275"><ele>1348.0</ele><time>2026-04-26T07:49:46.905Z</time></trkpt><trkpt lat="43.787634385217" lon="12.0719959163793"><ele>1349.6000000000001</ele><time>2026-04-26T07:49:47.905Z</time></trkpt><trkpt lat="43.78768307756161" lon="12.072094465757866"><ele>1351.2</ele><time>2026-04-26T07:49:48.905Z</time></trkpt><trkpt lat="43.78774539220983" lon="12.072174197119613"><ele>1352.8</ele><time>2026-04-26T07:49:49.905Z</time></trkpt><trkpt lat="43.787817071317434" lon="12.07219901063747"><ele>1354.4</ele><time>2026-04-26T07:49:50.905Z</time></trkpt><trkpt lat="43.78792208180445" lon="12.072172901986136"><ele>1356.0</ele><time>2026-04-26T07:49:51.905Z</time></trkpt><trkpt lat="43.78803933557362" lon="12.072083064122683"><ele>1356.0</ele><time>2026-04-26T07:49:52.905Z</time></trkpt><trkpt lat="43.788163183045626" lon="12.07200318461304"><ele>1356.0</ele><time>2026-04-26T07:49:53.905Z</time></trkpt><trkpt lat="43.788303365946085" lon="12.07193573044474"><ele>1356.0</ele><time>2026-04-26T07:49:54.905Z</time></trkpt><trkpt lat="43.78846556216393" lon="12.07188171367767"><ele>1356.6666666666667</ele><time>2026-04-26T07:49:55.905Z</time></trkpt><trkpt lat="43.788617951552695" lon="12.071830962929212"><ele>1357.3333333333335</ele><time>2026-04-26T07:49:56.905Z</time></trkpt><trkpt lat="43.7887857332004" lon="12.071775086017524"><ele>1358.0</ele><time>2026-04-26T07:49:57.905Z</time></trkpt><trkpt lat="43.7889226098842" lon="12.071706928842348"><ele>1358.0</ele><time>2026-04-26T07:49:58.905Z</time></trkpt><trkpt lat="43.78903593489437" lon="12.071667831474008"><ele>1358.0</ele><time>2026-04-26T07:49:59.905Z</time></trkpt><trkpt lat="43.78913773429464" lon="12.071648464030408"><ele>1358.0</ele><time>2026-04-26T07:50:00.905Z</time></trkpt><trkpt lat="43.78926405119346" lon="12.071701192979084"><ele>1358.0</ele><time>2026-04-26T07:50:02.905Z</time></trkpt><trkpt lat="43.789364748169994" lon="12.071819273672142"><ele>1358.8000000000002</ele><time>2026-04-26T07:50:03.904Z</time></trkpt><trkpt lat="43.789461244883185" lon="12.071925871027268"><ele>1359.6</ele><time>2026-04-26T07:50:04.904Z</time></trkpt><trkpt lat="43.78952359673136" lon="12.072040881608826"><ele>1360.4</ele><time>2026-04-26T07:50:05.904Z</time></trkpt><trkpt lat="43.789581338147286" lon="12.072123713703936"><ele>1361.1999999999998</ele><time>2026-04-26T07:50:06.904Z</time></trkpt><trkpt lat="43.78963857356624" lon="12.07219049678343"><ele>1362.0</ele><time>2026-04-26T07:50:07.904Z</time></trkpt><trkpt lat="43.78969061314671" lon="12.072243322132833"><ele>1362.0</ele><time>2026-04-26T07:50:08.904Z</time></trkpt><trkpt lat="43.789747593817" lon="12.072301078095604"><ele>1362.0</ele><time>2026-04-26T07:50:09.904Z</time></trkpt><trkpt lat="43.78982098983393" lon="12.072361532454943"><ele>1362.0</ele><time>2026-04-26T07:50:10.904Z</time></trkpt><trkpt lat="43.7899034301776" lon="12.07241371183276"><ele>1362.0</ele><time>2026-04-26T07:50:11.904Z</time></trkpt><trkpt lat="43.789987741330506" lon="12.072470354439107"><ele>1362.0</ele><time>2026-04-26T07:50:12.904Z</time></trkpt><trkpt lat="43.790073929668836" lon="12.072521468753745"><ele>1362.0</ele><time>2026-04-26T07:50:13.904Z</time></trkpt><trkpt lat="43.79017080440439" lon="12.072579925002772"><ele>1359.75</ele><time>2026-04-26T07:50:14.904Z</time></trkpt><trkpt lat="43.790288539174" lon="12.072657999077158"><ele>1357.5</ele><time>2026-04-26T07:50:15.904Z</time></trkpt><trkpt lat="43.790400329552625" lon="12.07272961524074"><ele>1355.25</ele><time>2026-04-26T07:50:16.904Z</time></trkpt><trkpt lat="43.790528535427896" lon="12.072827374275063"><ele>1353.0</ele><time>2026-04-26T07:50:17.904Z</time></trkpt><trkpt lat="43.79066990311907" lon="12.072917700217612"><ele>1353.0</ele><time>2026-04-26T07:50:18.904Z</time></trkpt><trkpt lat="43.79081609957606" lon="12.073013073387255"><ele>1353.0</ele><time>2026-04-26T07:50:19.904Z</time></trkpt><trkpt lat="43.790973460050935" lon="12.073118223714635"><ele>1353.0</ele><time>2026-04-26T07:50:20.904Z</time></trkpt><trkpt lat="43.79112244841381" lon="12.073217504842317"><ele>1353.6666666666667</ele><time>2026-04-26T07:50:21.904Z</time></trkpt><trkpt lat="43.79125143626826" lon="12.073362509176253"><ele>1354.3333333333335</ele><time>2026-04-26T07:50:22.904Z</time></trkpt><trkpt lat="43.79140560020784" lon="12.073472221650402"><ele>1355.0</ele><time>2026-04-26T07:50:23.904Z</time></trkpt><trkpt lat="43.79156645298144" lon="12.073586694179031"><ele>1355.0</ele><time>2026-04-26T07:50:24.904Z</time></trkpt><trkpt lat="43.7917112954193" lon="12.073684747510939"><ele>1355.0</ele><time>2026-04-26T07:50:25.904Z</time></trkpt><trkpt lat="43.791846698826184" lon="12.073776938587626"><ele>1355.0</ele><time>2026-04-26T07:50:26.904Z</time></trkpt><trkpt lat="43.79197869908039" lon="12.073859612423664"><ele>1354.8</ele><time>2026-04-26T07:50:27.904Z</time></trkpt><trkpt lat="43.792091382435515" lon="12.073916481156543"><ele>1354.6</ele><time>2026-04-26T07:50:28.904Z</time></trkpt><trkpt lat="43.79218705605202" lon="12.073963468077773"><ele>1354.4</ele><time>2026-04-26T07:50:29.904Z</time></trkpt><trkpt lat="43.79227613275362" lon="12.073987349371293"><ele>1354.2</ele><time>2026-04-26T07:50:30.904Z</time></trkpt><trkpt lat="43.79237451304198" lon="12.073963128802385"><ele>1354.0</ele><time>2026-04-26T07:50:31.904Z</time></trkpt><trkpt lat="43.79246151334696" lon="12.073845157729652"><ele>1354.0</ele><time>2026-04-26T07:50:32.904Z</time></trkpt><trkpt lat="43.79252005078" lon="12.073666266680734"><ele>1354.0</ele><time>2026-04-26T07:50:33.904Z</time></trkpt><trkpt lat="43.79256698946083" lon="12.073497196886873"><ele>1354.0</ele><time>2026-04-26T07:50:34.904Z</time></trkpt><trkpt lat="43.792634352760025" lon="12.073317677830422"><ele>1354.0</ele><time>2026-04-26T07:50:35.904Z</time></trkpt><trkpt lat="43.792688819848394" lon="12.073163788159565"><ele>1353.25</ele><time>2026-04-26T07:50:36.904Z</time></trkpt><trkpt lat="43.7927535420485" lon="12.073046396578164"><ele>1352.5</ele><time>2026-04-26T07:50:37.904Z</time></trkpt><trkpt lat="43.792849978260094" lon="12.072941401616964"><ele>1351.75</ele><time>2026-04-26T07:50:38.904Z</time></trkpt><trkpt lat="43.79295977443764" lon="12.072846377822307"><ele>1351.0</ele><time>2026-04-26T07:50:39.904Z</time></trkpt><trkpt lat="43.79307581635947" lon="12.072729386870417"><ele>1351.0</ele><time>2026-04-26T07:50:40.904Z</time></trkpt><trkpt lat="43.79316833370723" lon="12.07259014361583"><ele>1351.0</ele><time>2026-04-26T07:50:41.904Z</time></trkpt><trkpt lat="43.79324620847641" lon="12.072413403670772"><ele>1351.0</ele><time>2026-04-26T07:50:42.903Z</time></trkpt><trkpt lat="43.79331286198844" lon="12.072236827652397"><ele>1351.0</ele><time>2026-04-26T07:50:43.903Z</time></trkpt><trkpt lat="43.79337178744697" lon="12.072088923840502"><ele>1348.6</ele><time>2026-04-26T07:50:44.903Z</time></trkpt><trkpt lat="43.793437097896074" lon="12.071959077595277"><ele>1346.1999999999998</ele><time>2026-04-26T07:50:45.904Z</time></trkpt><trkpt lat="43.79348394971235" lon="12.071852221831806"><ele>1343.8000000000002</ele><time>2026-04-26T07:50:46.904Z</time></trkpt><trkpt lat="43.79352632531054" lon="12.071753106906723"><ele>1341.4</ele><time>2026-04-26T07:50:47.904Z</time></trkpt><trkpt lat="43.79353560079141" lon="12.071652201602602"><ele>1339.0</ele><time>2026-04-26T07:50:48.903Z</time></trkpt><trkpt lat="43.7934872469833" lon="12.071419857548058"><ele>1335.0</ele><time>2026-04-26T07:50:50.903Z</time></trkpt><trkpt lat="43.793366176253144" lon="12.07131678652935"><ele>1331.0</ele><time>2026-04-26T07:50:51.903Z</time></trkpt><trkpt lat="43.7932185052811" lon="12.07134505468874"><ele>1327.0</ele><time>2026-04-26T07:50:52.903Z</time></trkpt><trkpt lat="43.79312839882" lon="12.07138559446197"><ele>1323.0</ele><time>2026-04-26T07:50:53.903Z</time></trkpt><trkpt lat="43.79304950267099" lon="12.0714214053554"><ele>1323.0</ele><time>2026-04-26T07:50:54.903Z</time></trkpt><trkpt lat="43.79292082596402" lon="12.071497480249867"><ele>1323.0</ele><time>2026-04-26T07:50:55.903Z</time></trkpt><trkpt lat="43.79277520049948" lon="12.07157108457469"><ele>1323.0</ele><time>2026-04-26T07:50:56.903Z</time></trkpt><trkpt lat="43.79262067965464" lon="12.071624717455787"><ele>1325.25</ele><time>2026-04-26T07:50:57.903Z</time></trkpt><trkpt lat="43.79248154379703" lon="12.071678452861892"><ele>1327.5</ele><time>2026-04-26T07:50:58.903Z</time></trkpt><trkpt lat="43.792346145148564" lon="12.071734760579512"><ele>1329.75</ele><time>2026-04-26T07:50:59.903Z</time></trkpt><trkpt lat="43.79220550218024" lon="12.071812488622289"><ele>1332.0</ele><time>2026-04-26T07:51:00.903Z</time></trkpt><trkpt lat="43.79207258384062" lon="12.071865302164142"><ele>1332.0</ele><time>2026-04-26T07:51:01.903Z</time></trkpt><trkpt lat="43.79197733700135" lon="12.071917874438705"><ele>1332.0</ele><time>2026-04-26T07:51:02.903Z</time></trkpt><trkpt lat="43.791883849762684" lon="12.071946536695206"><ele>1332.0</ele><time>2026-04-26T07:51:03.903Z</time></trkpt><trkpt lat="43.79180710913331" lon="12.07193966304404"><ele>1332.0</ele><time>2026-04-26T07:51:04.903Z</time></trkpt><trkpt lat="43.79170950734536" lon="12.071877491962248"><ele>1332.0</ele><time>2026-04-26T07:51:06.903Z</time></trkpt><trkpt lat="43.79171638488259" lon="12.071696837847957"><ele>1329.75</ele><time>2026-04-26T07:51:08.903Z</time></trkpt><trkpt lat="43.791774310547254" lon="12.071552799559745"><ele>1327.5</ele><time>2026-04-26T07:51:09.903Z</time></trkpt><trkpt lat="43.791836128569955" lon="12.071394195408114"><ele>1325.25</ele><time>2026-04-26T07:51:10.903Z</time></trkpt><trkpt lat="43.79190661258628" lon="12.071243097016696"><ele>1323.0</ele><time>2026-04-26T07:51:11.903Z</time></trkpt><trkpt lat="43.79197364456464" lon="12.071089132670435"><ele>1323.0</ele><time>2026-04-26T07:51:12.903Z</time></trkpt><trkpt lat="43.79205143002892" lon="12.070927754495962"><ele>1323.0</ele><time>2026-04-26T07:51:13.903Z</time></trkpt><trkpt lat="43.79212163016281" lon="12.070757838180109"><ele>1323.0</ele><time>2026-04-26T07:51:14.903Z</time></trkpt><trkpt lat="43.79218339363093" lon="12.070575200172334"><ele>1323.0</ele><time>2026-04-26T07:51:15.903Z</time></trkpt><trkpt lat="43.79222487646363" lon="12.070391833902963"><ele>1321.8000000000002</ele><time>2026-04-26T07:51:16.903Z</time></trkpt><trkpt lat="43.79227126247118" lon="12.070221555784272"><ele>1320.6</ele><time>2026-04-26T07:51:17.903Z</time></trkpt><trkpt lat="43.7923022467847" lon="12.070077020060022"><ele>1319.4</ele><time>2026-04-26T07:51:18.903Z</time></trkpt><trkpt lat="43.792322813529275" lon="12.069959313132793"><ele>1318.1999999999998</ele><time>2026-04-26T07:51:19.903Z</time></trkpt><trkpt lat="43.79233664202204" lon="12.069810301012867"><ele>1317.0</ele><time>2026-04-26T07:51:20.903Z</time></trkpt><trkpt lat="43.79235793246824" lon="12.069670100141781"><ele>1314.75</ele><time>2026-04-26T07:51:21.903Z</time></trkpt><trkpt lat="43.79228247364737" lon="12.069508070260769"><ele>1312.5</ele><time>2026-04-26T07:51:22.903Z</time></trkpt><trkpt lat="43.79217146636179" lon="12.06934959821728"><ele>1310.25</ele><time>2026-04-26T07:51:23.903Z</time></trkpt><trkpt lat="43.79206215668433" lon="12.069217940760048"><ele>1308.0</ele><time>2026-04-26T07:51:24.903Z</time></trkpt><trkpt lat="43.79197805133191" lon="12.069096307161184"><ele>1306.25</ele><time>2026-04-26T07:51:25.903Z</time></trkpt><trkpt lat="43.79191158517391" lon="12.068964965955466"><ele>1304.5</ele><time>2026-04-26T07:51:26.903Z</time></trkpt><trkpt lat="43.7918444522515" lon="12.06881139782531"><ele>1302.75</ele><time>2026-04-26T07:51:27.903Z</time></trkpt><trkpt lat="43.791754154656374" lon="12.068653326883581"><ele>1301.0</ele><time>2026-04-26T07:51:28.903Z</time></trkpt><trkpt lat="43.79164558512103" lon="12.068529147232617"><ele>1301.0</ele><time>2026-04-26T07:51:29.903Z</time></trkpt><trkpt lat="43.79151978628847" lon="12.068449770217502"><ele>1301.0</ele><time>2026-04-26T07:51:30.903Z</time></trkpt><trkpt lat="43.79139705765928" lon="12.068392667235667"><ele>1301.0</ele><time>2026-04-26T07:51:31.903Z</time></trkpt><trkpt lat="43.79127208486413" lon="12.068329581668689"><ele>1301.0</ele><time>2026-04-26T07:51:32.903Z</time></trkpt><trkpt lat="43.791144365826355" lon="12.06824620871404"><ele>1299.1999999999998</ele><time>2026-04-26T07:51:33.903Z</time></trkpt><trkpt lat="43.791030505738114" lon="12.068161978129927"><ele>1297.3999999999999</ele><time>2026-04-26T07:51:34.903Z</time></trkpt><trkpt lat="43.79093079053272" lon="12.068087610916043"><ele>1295.6</ele><time>2026-04-26T07:51:35.903Z</time></trkpt><trkpt lat="43.790853294567675" lon="12.068027069702378"><ele>1293.8</ele><time>2026-04-26T07:51:36.903Z</time></trkpt><trkpt lat="43.790780387212294" lon="12.067983970610682"><ele>1292.0</ele><time>2026-04-26T07:51:37.903Z</time></trkpt><trkpt lat="43.7907222844159" lon="12.067829208006891"><ele>1292.0</ele><time>2026-04-26T07:51:39.903Z</time></trkpt><trkpt lat="43.790723477776055" lon="12.067719715000974"><ele>1292.0</ele><time>2026-04-26T07:51:40.903Z</time></trkpt><trkpt lat="43.790782427625686" lon="12.067602345915532"><ele>1292.0</ele><time>2026-04-26T07:51:41.903Z</time></trkpt><trkpt lat="43.79087260723374" lon="12.067514821325004"><ele>1292.0</ele><time>2026-04-26T07:51:42.903Z</time></trkpt><trkpt lat="43.79098885008967" lon="12.067447789522141"><ele>1292.0</ele><time>2026-04-26T07:51:43.903Z</time></trkpt><trkpt lat="43.79111459836046" lon="12.06739242227361"><ele>1287.8</ele><time>2026-04-26T07:51:44.903Z</time></trkpt><trkpt lat="43.7912508637569" lon="12.067342706793312"><ele>1283.6</ele><time>2026-04-26T07:51:45.903Z</time></trkpt><trkpt lat="43.791369569562676" lon="12.067285565776238"><ele>1279.3999999999999</ele><time>2026-04-26T07:51:46.903Z</time></trkpt><trkpt lat="43.791448587084226" lon="12.067246906249148"><ele>1275.1999999999998</ele><time>2026-04-26T07:51:47.903Z</time></trkpt><trkpt lat="43.79150615810935" lon="12.067176961909604"><ele>1271.0</ele><time>2026-04-26T07:51:48.903Z</time></trkpt><trkpt lat="43.79153885075716" lon="12.067058611540764"><ele>1271.0</ele><time>2026-04-26T07:51:49.903Z</time></trkpt><trkpt lat="43.79153705773854" lon="12.066926583157233"><ele>1271.0</ele><time>2026-04-26T07:51:50.903Z</time></trkpt><trkpt lat="43.79147981173802" lon="12.066786829275275"><ele>1271.0</ele><time>2026-04-26T07:51:51.903Z</time></trkpt><trkpt lat="43.79138211239158" lon="12.066637389256595"><ele>1271.0</ele><time>2026-04-26T07:51:52.903Z</time></trkpt><trkpt lat="43.79130969072485" lon="12.066481324502634"><ele>1270.2</ele><time>2026-04-26T07:51:53.903Z</time></trkpt><trkpt lat="43.79127795680252" lon="12.066311683334412"><ele>1269.3999999999999</ele><time>2026-04-26T07:51:54.903Z</time></trkpt><trkpt lat="43.79123631321875" lon="12.066158366768924"><ele>1268.6</ele><time>2026-04-26T07:51:55.903Z</time></trkpt><trkpt lat="43.79122702923122" lon="12.066017392005328"><ele>1267.8</ele><time>2026-04-26T07:51:56.903Z</time></trkpt><trkpt lat="43.79124950408106" lon="12.065879123395161"><ele>1267.0</ele><time>2026-04-26T07:51:57.903Z</time></trkpt><trkpt lat="43.79130623931366" lon="12.065755200042148"><ele>1265.6</ele><time>2026-04-26T07:51:58.903Z</time></trkpt><trkpt lat="43.79139395304472" lon="12.065666653116395"><ele>1264.2</ele><time>2026-04-26T07:51:59.903Z</time></trkpt><trkpt lat="43.79148641773087" lon="12.065567916049197"><ele>1262.8</ele><time>2026-04-26T07:52:00.903Z</time></trkpt><trkpt lat="43.79157007802847" lon="12.065462359351857"><ele>1261.4</ele><time>2026-04-26T07:52:01.903Z</time></trkpt><trkpt lat="43.79163024743125" lon="12.065340996372544"><ele>1260.0</ele><time>2026-04-26T07:52:02.903Z</time></trkpt><trkpt lat="43.791660214883095" lon="12.065196545598019"><ele>1260.0</ele><time>2026-04-26T07:52:03.903Z</time></trkpt><trkpt lat="43.791680479815625" lon="12.065028439136885"><ele>1260.0</ele><time>2026-04-26T07:52:04.903Z</time></trkpt><trkpt lat="43.79169597121356" lon="12.064850992629665"><ele>1260.0</ele><time>2026-04-26T07:52:05.903Z</time></trkpt><trkpt lat="43.79168765822501" lon="12.064672547416432"><ele>1260.0</ele><time>2026-04-26T07:52:06.903Z</time></trkpt><trkpt lat="43.79167138270703" lon="12.064496203220575"><ele>1258.25</ele><time>2026-04-26T07:52:07.903Z</time></trkpt><trkpt lat="43.79161906631968" lon="12.064353157707233"><ele>1256.5</ele><time>2026-04-26T07:52:08.902Z</time></trkpt><trkpt lat="43.79153249529152" lon="12.06421801811559"><ele>1254.75</ele><time>2026-04-26T07:52:09.902Z</time></trkpt><trkpt lat="43.79143125581913" lon="12.064078585892474"><ele>1253.0</ele><time>2026-04-26T07:52:10.902Z</time></trkpt><trkpt lat="43.79131523160313" lon="12.06394045392753"><ele>1251.0</ele><time>2026-04-26T07:52:11.902Z</time></trkpt><trkpt lat="43.7912349495214" lon="12.06378304977156"><ele>1249.0</ele><time>2026-04-26T07:52:12.902Z</time></trkpt><trkpt lat="43.791156312007764" lon="12.063630715966664"><ele>1247.0</ele><time>2026-04-26T07:52:13.902Z</time></trkpt><trkpt lat="43.791104670930004" lon="12.063464963546409"><ele>1245.0</ele><time>2026-04-26T07:52:14.902Z</time></trkpt><trkpt lat="43.79107317082631" lon="12.06327662617934"><ele>1243.0</ele><time>2026-04-26T07:52:15.902Z</time></trkpt><trkpt lat="43.79107368129332" lon="12.0630670322988"><ele>1241.0</ele><time>2026-04-26T07:52:16.902Z</time></trkpt><trkpt lat="43.79109179125779" lon="12.06284389484692"><ele>1239.0</ele><time>2026-04-26T07:52:17.902Z</time></trkpt><trkpt lat="43.791102587921756" lon="12.062612744585428"><ele>1237.6666666666667</ele><time>2026-04-26T07:52:18.902Z</time></trkpt><trkpt lat="43.79112811933717" lon="12.06238820509077"><ele>1236.3333333333335</ele><time>2026-04-26T07:52:19.902Z</time></trkpt><trkpt lat="43.79117322476251" lon="12.06213997659848"><ele>1235.0</ele><time>2026-04-26T07:52:20.902Z</time></trkpt><trkpt lat="43.79120173105611" lon="12.061884603209311"><ele>1235.0</ele><time>2026-04-26T07:52:21.902Z</time></trkpt><trkpt lat="43.79123125308648" lon="12.061614754086554"><ele>1235.0</ele><time>2026-04-26T07:52:22.902Z</time></trkpt><trkpt lat="43.79126033019232" lon="12.061348891483243"><ele>1235.0</ele><time>2026-04-26T07:52:23.902Z</time></trkpt><trkpt lat="43.79128714954704" lon="12.061103501238744"><ele>1235.0</ele><time>2026-04-26T07:52:24.902Z</time></trkpt><trkpt lat="43.79131283048312" lon="12.060867417014451"><ele>1235.0</ele><time>2026-04-26T07:52:25.902Z</time></trkpt><trkpt lat="43.79133526363892" lon="12.060640544493685"><ele>1235.0</ele><time>2026-04-26T07:52:26.902Z</time></trkpt><trkpt lat="43.7913381749169" lon="12.060424159188726"><ele>1234.25</ele><time>2026-04-26T07:52:27.902Z</time></trkpt><trkpt lat="43.791362501352204" lon="12.060226713246092"><ele>1233.5</ele><time>2026-04-26T07:52:28.902Z</time></trkpt><trkpt lat="43.791325281188556" lon="12.060031781701964"><ele>1232.75</ele><time>2026-04-26T07:52:29.902Z</time></trkpt><trkpt lat="43.79128782371408" lon="12.059826268821919"><ele>1232.0</ele><time>2026-04-26T07:52:30.902Z</time></trkpt><trkpt lat="43.79122313327145" lon="12.059602642839138"><ele>1230.0</ele><time>2026-04-26T07:52:31.902Z</time></trkpt><trkpt lat="43.791182260665245" lon="12.059365063643137"><ele>1228.0</ele><time>2026-04-26T07:52:32.902Z</time></trkpt><trkpt lat="43.79112142707311" lon="12.059117602746095"><ele>1226.0</ele><time>2026-04-26T07:52:33.902Z</time></trkpt><trkpt lat="43.791060458183956" lon="12.058870286215297"><ele>1225.6666666666667</ele><time>2026-04-26T07:52:34.902Z</time></trkpt><trkpt lat="43.7910026423361" lon="12.05863900356999"><ele>1225.3333333333333</ele><time>2026-04-26T07:52:35.902Z</time></trkpt><trkpt lat="43.790949682455484" lon="12.058427146457161"><ele>1225.0</ele><time>2026-04-26T07:52:36.902Z</time></trkpt><trkpt lat="43.79090349400816" lon="12.058242377256017"><ele>1223.0</ele><time>2026-04-26T07:52:37.902Z</time></trkpt><trkpt lat="43.79085362476253" lon="12.058042883727591"><ele>1221.0</ele><time>2026-04-26T07:52:38.902Z</time></trkpt><trkpt lat="43.7908058764195" lon="12.057851874465781"><ele>1219.0</ele><time>2026-04-26T07:52:39.902Z</time></trkpt><trkpt lat="43.79075936206378" lon="12.05766586127999"><ele>1217.0</ele><time>2026-04-26T07:52:40.902Z</time></trkpt><trkpt lat="43.79070824032461" lon="12.057461655333972"><ele>1214.6666666666667</ele><time>2026-04-26T07:52:41.902Z</time></trkpt><trkpt lat="43.7906578012187" lon="12.057246034091218"><ele>1212.3333333333333</ele><time>2026-04-26T07:52:42.902Z</time></trkpt><trkpt lat="43.790616648779476" lon="12.05702044388901"><ele>1210.0</ele><time>2026-04-26T07:52:43.902Z</time></trkpt><trkpt lat="43.790582676824805" lon="12.056808430578753"><ele>1208.6666666666665</ele><time>2026-04-26T07:52:44.902Z</time></trkpt><trkpt lat="43.79054910383504" lon="12.056593528075311"><ele>1207.3333333333333</ele><time>2026-04-26T07:52:45.902Z</time></trkpt><trkpt lat="43.79051680534313" lon="12.056386783844667"><ele>1206.0</ele><time>2026-04-26T07:52:46.902Z</time></trkpt><trkpt lat="43.79048635943989" lon="12.0561930900167"><ele>1206.0</ele><time>2026-04-26T07:52:47.902Z</time></trkpt><trkpt lat="43.790456626973196" lon="12.056006750185825"><ele>1206.0</ele><time>2026-04-26T07:52:48.902Z</time></trkpt><trkpt lat="43.790429696626006" lon="12.055840103247236"><ele>1206.0</ele><time>2026-04-26T07:52:49.902Z</time></trkpt><trkpt lat="43.790401726323026" lon="12.055677802177321"><ele>1206.0</ele><time>2026-04-26T07:52:50.902Z</time></trkpt><trkpt lat="43.79037938351536" lon="12.055543581392214"><ele>1204.8333333333333</ele><time>2026-04-26T07:52:51.902Z</time></trkpt><trkpt lat="43.79036034654151" lon="12.055423340328367"><ele>1203.6666666666667</ele><time>2026-04-26T07:52:52.902Z</time></trkpt><trkpt lat="43.790369084872694" lon="12.055327865762553"><ele>1202.5</ele><time>2026-04-26T07:52:53.902Z</time></trkpt><trkpt lat="43.79039678146581" lon="12.055237561401285"><ele>1201.3333333333335</ele><time>2026-04-26T07:52:54.902Z</time></trkpt><trkpt lat="43.790452875681076" lon="12.05515908122845"><ele>1200.1666666666667</ele><time>2026-04-26T07:52:55.902Z</time></trkpt><trkpt lat="43.790553303002035" lon="12.055127375992269"><ele>1199.0</ele><time>2026-04-26T07:52:56.902Z</time></trkpt><trkpt lat="43.790669618877715" lon="12.05515935038121"><ele>1199.0</ele><time>2026-04-26T07:52:57.901Z</time></trkpt><trkpt lat="43.79079857881353" lon="12.055167390508315"><ele>1199.0</ele><time>2026-04-26T07:52:58.901Z</time></trkpt><trkpt lat="43.79092625626764" lon="12.055207339550025"><ele>1199.0</ele><time>2026-04-26T07:52:59.901Z</time></trkpt><trkpt lat="43.79108278218232" lon="12.055249426300566"><ele>1199.0</ele><time>2026-04-26T07:53:00.901Z</time></trkpt><trkpt lat="43.79124298788276" lon="12.055286618258359"><ele>1197.0</ele><time>2026-04-26T07:53:01.901Z</time></trkpt><trkpt lat="43.791414064132674" lon="12.055352177392939"><ele>1195.0</ele><time>2026-04-26T07:53:02.901Z</time></trkpt><trkpt lat="43.79158991076529" lon="12.055399348808967"><ele>1193.0</ele><time>2026-04-26T07:53:03.901Z</time></trkpt><trkpt lat="43.791767433164864" lon="12.05543922159054"><ele>1192.0</ele><time>2026-04-26T07:53:04.901Z</time></trkpt><trkpt lat="43.791935686764184" lon="12.055482452072946"><ele>1191.0</ele><time>2026-04-26T07:53:05.901Z</time></trkpt><trkpt lat="43.79209752216378" lon="12.055522943968436"><ele>1190.0</ele><time>2026-04-26T07:53:06.901Z</time></trkpt><trkpt lat="43.79224500489198" lon="12.055560333006929"><ele>1190.0</ele><time>2026-04-26T07:53:07.901Z</time></trkpt><trkpt lat="43.792393430707705" lon="12.055598482394064"><ele>1190.0</ele><time>2026-04-26T07:53:08.901Z</time></trkpt><trkpt lat="43.79255016611421" lon="12.055633241661656"><ele>1190.0</ele><time>2026-04-26T07:53:09.901Z</time></trkpt><trkpt lat="43.79268654214119" lon="12.05566416857099"><ele>1190.0</ele><time>2026-04-26T07:53:10.901Z</time></trkpt><trkpt lat="43.79282184054136" lon="12.055704827284192"><ele>1190.25</ele><time>2026-04-26T07:53:11.901Z</time></trkpt><trkpt lat="43.792938376471454" lon="12.055773085071406"><ele>1190.5</ele><time>2026-04-26T07:53:12.901Z</time></trkpt><trkpt lat="43.79304504701903" lon="12.055899587365275"><ele>1190.75</ele><time>2026-04-26T07:53:13.901Z</time></trkpt><trkpt lat="43.79316848259547" lon="12.05603936711877"><ele>1191.0</ele><time>2026-04-26T07:53:14.901Z</time></trkpt><trkpt lat="43.79329921149513" lon="12.056188420655545"><ele>1191.0</ele><time>2026-04-26T07:53:15.901Z</time></trkpt><trkpt lat="43.79342440853805" lon="12.056329460782903"><ele>1191.0</ele><time>2026-04-26T07:53:16.901Z</time></trkpt><trkpt lat="43.793543328058206" lon="12.056463735116028"><ele>1191.0</ele><time>2026-04-26T07:53:17.901Z</time></trkpt><trkpt lat="43.79367213901732" lon="12.056581222975197"><ele>1189.5</ele><time>2026-04-26T07:53:18.901Z</time></trkpt><trkpt lat="43.79378700594985" lon="12.056712730803966"><ele>1188.0</ele><time>2026-04-26T07:53:19.901Z</time></trkpt><trkpt lat="43.793918734999814" lon="12.056811036561172"><ele>1186.5</ele><time>2026-04-26T07:53:20.901Z</time></trkpt><trkpt lat="43.794052121154486" lon="12.056892955862486"><ele>1185.0</ele><time>2026-04-26T07:53:21.901Z</time></trkpt><trkpt lat="43.794182259495" lon="12.05698789131691"><ele>1185.0</ele><time>2026-04-26T07:53:22.901Z</time></trkpt><trkpt lat="43.79430173760022" lon="12.057057203454766"><ele>1185.0</ele><time>2026-04-26T07:53:23.901Z</time></trkpt><trkpt lat="43.794418552475214" lon="12.057144924936704"><ele>1185.0</ele><time>2026-04-26T07:53:24.901Z</time></trkpt><trkpt lat="43.79451835309232" lon="12.057248154414815"><ele>1185.0</ele><time>2026-04-26T07:53:25.901Z</time></trkpt><trkpt lat="43.79460923386099" lon="12.057389122268633"><ele>1182.6666666666667</ele><time>2026-04-26T07:53:26.901Z</time></trkpt><trkpt lat="43.79470194535971" lon="12.057574407285468"><ele>1180.3333333333335</ele><time>2026-04-26T07:53:27.901Z</time></trkpt><trkpt lat="43.794795431910586" lon="12.057763180447902"><ele>1178.0</ele><time>2026-04-26T07:53:28.901Z</time></trkpt><trkpt lat="43.79489337402823" lon="12.057960878658479"><ele>1178.0</ele><time>2026-04-26T07:53:29.901Z</time></trkpt><trkpt lat="43.79498963053437" lon="12.058157545967518"><ele>1178.0</ele><time>2026-04-26T07:53:30.901Z</time></trkpt><trkpt lat="43.7950859353636" lon="12.058360493907609"><ele>1178.0</ele><time>2026-04-26T07:53:31.901Z</time></trkpt><trkpt lat="43.79517702628888" lon="12.058552454252082"><ele>1176.0</ele><time>2026-04-26T07:53:32.901Z</time></trkpt><trkpt lat="43.79526074377166" lon="12.058728876273435"><ele>1174.0</ele><time>2026-04-26T07:53:33.901Z</time></trkpt><trkpt lat="43.79534032580999" lon="12.05889204235516"><ele>1172.0</ele><time>2026-04-26T07:53:34.901Z</time></trkpt><trkpt lat="43.79541817155195" lon="12.059033725483452"><ele>1170.0</ele><time>2026-04-26T07:53:35.901Z</time></trkpt><trkpt lat="43.79551913242433" lon="12.059111933273611"><ele>1170.0</ele><time>2026-04-26T07:53:36.901Z</time></trkpt><trkpt lat="43.79561678095094" lon="12.05916161993848"><ele>1170.0</ele><time>2026-04-26T07:53:37.901Z</time></trkpt><trkpt lat="43.795738261046345" lon="12.059178646791409"><ele>1170.0</ele><time>2026-04-26T07:53:38.901Z</time></trkpt><trkpt lat="43.795885247316285" lon="12.059127539839242"><ele>1170.0</ele><time>2026-04-26T07:53:39.901Z</time></trkpt><trkpt lat="43.79604389300432" lon="12.059017186483397"><ele>1167.3333333333333</ele><time>2026-04-26T07:53:40.901Z</time></trkpt><trkpt lat="43.79621412359" lon="12.058899574586766"><ele>1164.6666666666665</ele><time>2026-04-26T07:53:41.901Z</time></trkpt><trkpt lat="43.79638867545253" lon="12.058786827610597"><ele>1162.0</ele><time>2026-04-26T07:53:42.901Z</time></trkpt><trkpt lat="43.796577264067935" lon="12.058675064212688"><ele>1162.0</ele><time>2026-04-26T07:53:43.901Z</time></trkpt><trkpt lat="43.79676109107752" lon="12.05856263793621"><ele>1162.0</ele><time>2026-04-26T07:53:44.901Z</time></trkpt><trkpt lat="43.796938347085764" lon="12.05845804531754"><ele>1162.0</ele><time>2026-04-26T07:53:45.901Z</time></trkpt><trkpt lat="43.79711464390565" lon="12.058373368846285"><ele>1160.0</ele><time>2026-04-26T07:53:46.901Z</time></trkpt><trkpt lat="43.797269645678334" lon="12.058282153896451"><ele>1158.0</ele><time>2026-04-26T07:53:47.901Z</time></trkpt><trkpt lat="43.79741448894663" lon="12.058173434830076"><ele>1156.0</ele><time>2026-04-26T07:53:48.901Z</time></trkpt><trkpt lat="43.79754019236846" lon="12.058089405353765"><ele>1156.0</ele><time>2026-04-26T07:53:49.901Z</time></trkpt><trkpt lat="43.79765427776969" lon="12.057976929394702"><ele>1156.0</ele><time>2026-04-26T07:53:50.901Z</time></trkpt><trkpt lat="43.7977698312562" lon="12.057838629066042"><ele>1156.0</ele><time>2026-04-26T07:53:51.901Z</time></trkpt><trkpt lat="43.79788250148297" lon="12.05765959131872"><ele>1152.6666666666665</ele><time>2026-04-26T07:53:52.901Z</time></trkpt><trkpt lat="43.7980188584838" lon="12.057495035216588"><ele>1149.3333333333333</ele><time>2026-04-26T07:53:53.901Z</time></trkpt><trkpt lat="43.798155362878695" lon="12.057308223919755"><ele>1146.0</ele><time>2026-04-26T07:53:54.901Z</time></trkpt><trkpt lat="43.79829136932938" lon="12.057121471910808"><ele>1145.6666666666667</ele><time>2026-04-26T07:53:55.901Z</time></trkpt><trkpt lat="43.79842095991987" lon="12.056944465287659"><ele>1145.3333333333335</ele><time>2026-04-26T07:53:56.901Z</time></trkpt><trkpt lat="43.79854451958003" lon="12.056779776875366"><ele>1145.0</ele><time>2026-04-26T07:53:57.901Z</time></trkpt><trkpt lat="43.798673596945505" lon="12.05660641826368"><ele>1140.6666666666667</ele><time>2026-04-26T07:53:58.901Z</time></trkpt><trkpt lat="43.798798538216516" lon="12.056437571304622"><ele>1136.3333333333333</ele><time>2026-04-26T07:53:59.901Z</time></trkpt><trkpt lat="43.79892460326742" lon="12.0562657946026"><ele>1132.0</ele><time>2026-04-26T07:54:00.901Z</time></trkpt><trkpt lat="43.7990440557503" lon="12.056102840823936"><ele>1132.0</ele><time>2026-04-26T07:54:01.901Z</time></trkpt><trkpt lat="43.79916700318177" lon="12.055932573280776"><ele>1132.0</ele><time>2026-04-26T07:54:02.901Z</time></trkpt><trkpt lat="43.79927207684712" lon="12.055789968197878"><ele>1132.0</ele><time>2026-04-26T07:54:03.901Z</time></trkpt><trkpt lat="43.79938493689746" lon="12.055652655042461"><ele>1128.6666666666665</ele><time>2026-04-26T07:54:04.901Z</time></trkpt><trkpt lat="43.799501829450236" lon="12.055530312021098"><ele>1125.3333333333333</ele><time>2026-04-26T07:54:05.901Z</time></trkpt><trkpt lat="43.79963964828403" lon="12.05544290164573"><ele>1122.0</ele><time>2026-04-26T07:54:06.901Z</time></trkpt><trkpt lat="43.79980823386453" lon="12.055383318006735"><ele>1122.0</ele><time>2026-04-26T07:54:07.901Z</time></trkpt><trkpt lat="43.79997838596723" lon="12.055311065809224"><ele>1122.0</ele><time>2026-04-26T07:54:08.9Z</time></trkpt><trkpt lat="43.800153230673466" lon="12.055259107913297"><ele>1122.0</ele><time>2026-04-26T07:54:09.9Z</time></trkpt><trkpt lat="43.8003201133751" lon="12.055215304867462"><ele>1120.75</ele><time>2026-04-26T07:54:10.9Z</time></trkpt><trkpt lat="43.80045940527159" lon="12.055174168422159"><ele>1119.5</ele><time>2026-04-26T07:54:11.9Z</time></trkpt><trkpt lat="43.80057846117184" lon="12.05514146999806"><ele>1118.25</ele><time>2026-04-26T07:54:12.9Z</time></trkpt><trkpt lat="43.8006882802785" lon="12.055138654048266"><ele>1117.0</ele><time>2026-04-26T07:54:13.9Z</time></trkpt><trkpt lat="43.800795086188685" lon="12.055169112046809"><ele>1117.0</ele><time>2026-04-26T07:54:14.9Z</time></trkpt><trkpt lat="43.80090179785739" lon="12.055222823352613"><ele>1117.0</ele><time>2026-04-26T07:54:15.9Z</time></trkpt><trkpt lat="43.801001201543585" lon="12.055294939601497"><ele>1117.0</ele><time>2026-04-26T07:54:16.9Z</time></trkpt><trkpt lat="43.801087722567715" lon="12.055376952928526"><ele>1117.0</ele><time>2026-04-26T07:54:17.9Z</time></trkpt><trkpt lat="43.80116594285145" lon="12.055492087121332"><ele>1117.0</ele><time>2026-04-26T07:54:18.9Z</time></trkpt><trkpt lat="43.80125663118272" lon="12.055655998110973"><ele>1114.6666666666665</ele><time>2026-04-26T07:54:19.9Z</time></trkpt><trkpt lat="43.80134791337532" lon="12.05584076486212"><ele>1112.3333333333333</ele><time>2026-04-26T07:54:20.9Z</time></trkpt><trkpt lat="43.801448516368474" lon="12.056002094897957"><ele>1110.0</ele><time>2026-04-26T07:54:21.9Z</time></trkpt><trkpt lat="43.80154097744352" lon="12.056150997586618"><ele>1110.0</ele><time>2026-04-26T07:54:22.9Z</time></trkpt><trkpt lat="43.80161644931674" lon="12.056305790412388"><ele>1110.0</ele><time>2026-04-26T07:54:23.9Z</time></trkpt><trkpt lat="43.80170596637665" lon="12.056422222420533"><ele>1110.0</ele><time>2026-04-26T07:54:24.9Z</time></trkpt><trkpt lat="43.80181787259254" lon="12.05651093566152"><ele>1110.0</ele><time>2026-04-26T07:54:25.9Z</time></trkpt><trkpt lat="43.801948150325565" lon="12.056549641334133"><ele>1107.75</ele><time>2026-04-26T07:54:26.9Z</time></trkpt><trkpt lat="43.80208585267356" lon="12.056576680762038"><ele>1105.5</ele><time>2026-04-26T07:54:27.9Z</time></trkpt><trkpt lat="43.80223903440281" lon="12.056609624632301"><ele>1103.25</ele><time>2026-04-26T07:54:28.9Z</time></trkpt><trkpt lat="43.80235528374636" lon="12.05662022746823"><ele>1101.0</ele><time>2026-04-26T07:54:29.9Z</time></trkpt><trkpt lat="43.80248148795725" lon="12.056589553521116"><ele>1101.0</ele><time>2026-04-26T07:54:30.9Z</time></trkpt><trkpt lat="43.80258053626806" lon="12.056516051917255"><ele>1101.0</ele><time>2026-04-26T07:54:31.9Z</time></trkpt><trkpt lat="43.80266754523742" lon="12.056396466251458"><ele>1101.0</ele><time>2026-04-26T07:54:32.9Z</time></trkpt><trkpt lat="43.80274562149201" lon="12.056231388946658"><ele>1101.0</ele><time>2026-04-26T07:54:33.9Z</time></trkpt><trkpt lat="43.80283720544424" lon="12.056028917208979"><ele>1098.0</ele><time>2026-04-26T07:54:34.9Z</time></trkpt><trkpt lat="43.8029240876695" lon="12.055823306696347"><ele>1095.0</ele><time>2026-04-26T07:54:35.9Z</time></trkpt><trkpt lat="43.80300804184951" lon="12.055628456831574"><ele>1092.0</ele><time>2026-04-26T07:54:36.9Z</time></trkpt><trkpt lat="43.80309000892084" lon="12.05543783667403"><ele>1091.6</ele><time>2026-04-26T07:54:37.9Z</time></trkpt><trkpt lat="43.80316154821501" lon="12.055269123031618"><ele>1091.2</ele><time>2026-04-26T07:54:38.9Z</time></trkpt><trkpt lat="43.803226910681104" lon="12.055127795374192"><ele>1090.8</ele><time>2026-04-26T07:54:39.9Z</time></trkpt><trkpt lat="43.80328707580143" lon="12.055031326599238"><ele>1090.4</ele><time>2026-04-26T07:54:40.9Z</time></trkpt><trkpt lat="43.80335017049952" lon="12.054973306898065"><ele>1090.0</ele><time>2026-04-26T07:54:41.9Z</time></trkpt><trkpt lat="43.80343773794907" lon="12.054979688574514"><ele>1087.5</ele><time>2026-04-26T07:54:42.9Z</time></trkpt><trkpt lat="43.80353616616071" lon="12.055030253976792"><ele>1085.0</ele><time>2026-04-26T07:54:43.9Z</time></trkpt><trkpt lat="43.80364730257781" lon="12.055116247887941"><ele>1082.5</ele><time>2026-04-26T07:54:44.9Z</time></trkpt><trkpt lat="43.803780187199905" lon="12.05519757260698"><ele>1080.0</ele><time>2026-04-26T07:54:45.9Z</time></trkpt><trkpt lat="43.80390531121792" lon="12.05530801900663"><ele>1080.0</ele><time>2026-04-26T07:54:46.9Z</time></trkpt><trkpt lat="43.80404317993358" lon="12.055408441024877"><ele>1080.0</ele><time>2026-04-26T07:54:47.9Z</time></trkpt><trkpt lat="43.80417283803922" lon="12.055493190873378"><ele>1080.0</ele><time>2026-04-26T07:54:48.9Z</time></trkpt><trkpt lat="43.80428832861708" lon="12.055576649491783"><ele>1080.0</ele><time>2026-04-26T07:54:49.9Z</time></trkpt><trkpt lat="43.80438784767737" lon="12.055651836576393"><ele>1078.5</ele><time>2026-04-26T07:54:50.901Z</time></trkpt><trkpt lat="43.8044728189884" lon="12.055737299340642"><ele>1077.0</ele><time>2026-04-26T07:54:51.901Z</time></trkpt><trkpt lat="43.804532469202826" lon="12.055882910518044"><ele>1075.5</ele><time>2026-04-26T07:54:52.901Z</time></trkpt><trkpt lat="43.80456860106959" lon="12.05605209118498"><ele>1074.0</ele><time>2026-04-26T07:54:53.9Z</time></trkpt><trkpt lat="43.80456554651495" lon="12.05625252020392"><ele>1074.0</ele><time>2026-04-26T07:54:54.9Z</time></trkpt><trkpt lat="43.804584270541106" lon="12.05645496832992"><ele>1074.0</ele><time>2026-04-26T07:54:55.9Z</time></trkpt><trkpt lat="43.80457914976858" lon="12.056639800323172"><ele>1074.0</ele><time>2026-04-26T07:54:56.9Z</time></trkpt><trkpt lat="43.80461753160894" lon="12.056808930286984"><ele>1074.0</ele><time>2026-04-26T07:54:57.901Z</time></trkpt><trkpt lat="43.804648850204" lon="12.056948184432027"><ele>1073.3333333333333</ele><time>2026-04-26T07:54:58.901Z</time></trkpt><trkpt lat="43.804766811909296" lon="12.057049206634554"><ele>1072.6666666666665</ele><time>2026-04-26T07:54:59.9Z</time></trkpt><trkpt lat="43.80490726523492" lon="12.057108020594091"><ele>1072.0</ele><time>2026-04-26T07:55:00.9Z</time></trkpt><trkpt lat="43.80507549075079" lon="12.057119601104159"><ele>1069.0</ele><time>2026-04-26T07:55:01.9Z</time></trkpt><trkpt lat="43.8052410367722" lon="12.057154986587443"><ele>1066.0</ele><time>2026-04-26T07:55:02.901Z</time></trkpt><trkpt lat="43.80541715579237" lon="12.057183570694423"><ele>1063.0</ele><time>2026-04-26T07:55:03.9Z</time></trkpt><trkpt lat="43.80556802946145" lon="12.05720908494171"><ele>1063.0</ele><time>2026-04-26T07:55:04.9Z</time></trkpt><trkpt lat="43.805708792223264" lon="12.057220541111876"><ele>1063.0</ele><time>2026-04-26T07:55:05.9Z</time></trkpt><trkpt lat="43.805852863431895" lon="12.057207113517054"><ele>1063.0</ele><time>2026-04-26T07:55:06.9Z</time></trkpt><trkpt lat="43.805985822609" lon="12.057125988095294"><ele>1063.0</ele><time>2026-04-26T07:55:07.9Z</time></trkpt><trkpt lat="43.806120294301046" lon="12.057034020488715"><ele>1062.25</ele><time>2026-04-26T07:55:08.9Z</time></trkpt><trkpt lat="43.80626671734447" lon="12.056967336856442"><ele>1061.5</ele><time>2026-04-26T07:55:09.9Z</time></trkpt><trkpt lat="43.80638159894447" lon="12.05688851683101"><ele>1060.75</ele><time>2026-04-26T07:55:10.9Z</time></trkpt><trkpt lat="43.8064812213843" lon="12.056828679719969"><ele>1060.0</ele><time>2026-04-26T07:55:11.9Z</time></trkpt><trkpt lat="43.80654730118662" lon="12.056789847013349"><ele>1060.0</ele><time>2026-04-26T07:55:12.9Z</time></trkpt><trkpt lat="43.80663042878077" lon="12.056810454941946"><ele>1060.0</ele><time>2026-04-26T07:55:13.9Z</time></trkpt><trkpt lat="43.806691472157915" lon="12.056878148973995"><ele>1060.0</ele><time>2026-04-26T07:55:14.9Z</time></trkpt><trkpt lat="43.80675175323884" lon="12.05699408200172"><ele>1060.0</ele><time>2026-04-26T07:55:15.9Z</time></trkpt><trkpt lat="43.80683913430151" lon="12.057161801841621"><ele>1060.0</ele><time>2026-04-26T07:55:16.9Z</time></trkpt><trkpt lat="43.80693973335298" lon="12.057329158815916"><ele>1057.3333333333333</ele><time>2026-04-26T07:55:17.9Z</time></trkpt><trkpt lat="43.80703923684402" lon="12.057482925860613"><ele>1054.6666666666667</ele><time>2026-04-26T07:55:18.9Z</time></trkpt><trkpt lat="43.80716243711167" lon="12.057617744463672"><ele>1052.0</ele><time>2026-04-26T07:55:19.9Z</time></trkpt><trkpt lat="43.807320378445404" lon="12.057726555774536"><ele>1052.0</ele><time>2026-04-26T07:55:20.9Z</time></trkpt><trkpt lat="43.807472965890305" lon="12.057836999244422"><ele>1052.0</ele><time>2026-04-26T07:55:21.9Z</time></trkpt><trkpt lat="43.80762685588449" lon="12.057953308122155"><ele>1052.0</ele><time>2026-04-26T07:55:22.9Z</time></trkpt><trkpt lat="43.80775505753264" lon="12.058059197437162"><ele>1050.0</ele><time>2026-04-26T07:55:23.9Z</time></trkpt><trkpt lat="43.807881251462916" lon="12.058182175778185"><ele>1048.0</ele><time>2026-04-26T07:55:24.9Z</time></trkpt><trkpt lat="43.808002085925345" lon="12.058277337771697"><ele>1046.0</ele><time>2026-04-26T07:55:25.9Z</time></trkpt><trkpt lat="43.80812897866345" lon="12.058348583849972"><ele>1044.0</ele><time>2026-04-26T07:55:26.9Z</time></trkpt><trkpt lat="43.80824774187397" lon="12.058384511778254"><ele>1044.0</ele><time>2026-04-26T07:55:27.9Z</time></trkpt><trkpt lat="43.80839387317312" lon="12.058376975510114"><ele>1044.0</ele><time>2026-04-26T07:55:28.9Z</time></trkpt><trkpt lat="43.80854767399674" lon="12.058308354019154"><ele>1044.0</ele><time>2026-04-26T07:55:29.9Z</time></trkpt><trkpt lat="43.808678575061684" lon="12.058190812008673"><ele>1042.25</ele><time>2026-04-26T07:55:30.9Z</time></trkpt><trkpt lat="43.808779668273374" lon="12.05810078987733"><ele>1040.5</ele><time>2026-04-26T07:55:31.9Z</time></trkpt><trkpt lat="43.80886957379707" lon="12.058032965385589"><ele>1038.75</ele><time>2026-04-26T07:55:32.9Z</time></trkpt><trkpt lat="43.808972139255076" lon="12.057976745159928"><ele>1037.0</ele><time>2026-04-26T07:55:33.9Z</time></trkpt><trkpt lat="43.80910752789351" lon="12.05794661322479"><ele>1037.0</ele><time>2026-04-26T07:55:34.9Z</time></trkpt><trkpt lat="43.809257857205715" lon="12.05792758933581"><ele>1037.0</ele><time>2026-04-26T07:55:35.9Z</time></trkpt><trkpt lat="43.809406277217924" lon="12.057924634844275"><ele>1037.0</ele><time>2026-04-26T07:55:36.9Z</time></trkpt><trkpt lat="43.809534583254596" lon="12.057966922189925"><ele>1037.0</ele><time>2026-04-26T07:55:37.9Z</time></trkpt><trkpt lat="43.80963568320285" lon="12.058046416960075"><ele>1036.5</ele><time>2026-04-26T07:55:38.9Z</time></trkpt><trkpt lat="43.80972418000848" lon="12.058155633926457"><ele>1036.0</ele><time>2026-04-26T07:55:39.9Z</time></trkpt><trkpt lat="43.80982183697188" lon="12.058297934185353"><ele>1035.5</ele><time>2026-04-26T07:55:40.9Z</time></trkpt><trkpt lat="43.80993105018299" lon="12.058443463457738"><ele>1035.0</ele><time>2026-04-26T07:55:41.9Z</time></trkpt><trkpt lat="43.81001452627934" lon="12.058586539718354"><ele>1034.75</ele><time>2026-04-26T07:55:42.9Z</time></trkpt><trkpt lat="43.81012474594534" lon="12.058705836366238"><ele>1034.5</ele><time>2026-04-26T07:55:43.9Z</time></trkpt><trkpt lat="43.8102483190994" lon="12.058775172965952"><ele>1034.25</ele><time>2026-04-26T07:55:44.9Z</time></trkpt><trkpt lat="43.81039799749916" lon="12.058797426497605"><ele>1034.0</ele><time>2026-04-26T07:55:45.9Z</time></trkpt><trkpt lat="43.81055026176663" lon="12.058828129562166"><ele>1031.0</ele><time>2026-04-26T07:55:46.9Z</time></trkpt><trkpt lat="43.8107029979658" lon="12.058842478901084"><ele>1028.0</ele><time>2026-04-26T07:55:47.9Z</time></trkpt><trkpt lat="43.81086910944579" lon="12.05885712604286"><ele>1025.0</ele><time>2026-04-26T07:55:48.9Z</time></trkpt><trkpt lat="43.81101618136432" lon="12.058869795804434"><ele>1023.5</ele><time>2026-04-26T07:55:49.9Z</time></trkpt><trkpt lat="43.81115737585427" lon="12.05886629549717"><ele>1022.0</ele><time>2026-04-26T07:55:50.9Z</time></trkpt><trkpt lat="43.81129973112885" lon="12.058883984683202"><ele>1020.5</ele><time>2026-04-26T07:55:51.9Z</time></trkpt><trkpt lat="43.81145156675101" lon="12.058873358072173"><ele>1019.0</ele><time>2026-04-26T07:55:52.9Z</time></trkpt><trkpt lat="43.81161095082931" lon="12.058824092436968"><ele>1019.0</ele><time>2026-04-26T07:55:53.9Z</time></trkpt><trkpt lat="43.81177832800002" lon="12.058789221634937"><ele>1019.0</ele><time>2026-04-26T07:55:54.899Z</time></trkpt><trkpt lat="43.81195418670832" lon="12.058750854598252"><ele>1019.0</ele><time>2026-04-26T07:55:55.899Z</time></trkpt><trkpt lat="43.812137455946484" lon="12.05871809715232"><ele>1018.3333333333334</ele><time>2026-04-26T07:55:56.899Z</time></trkpt><trkpt lat="43.81231912542879" lon="12.058673511785441"><ele>1017.6666666666667</ele><time>2026-04-26T07:55:57.899Z</time></trkpt><trkpt lat="43.81249475955214" lon="12.058629709191667"><ele>1017.0</ele><time>2026-04-26T07:55:58.899Z</time></trkpt><trkpt lat="43.81265617344708" lon="12.058597749157263"><ele>1016.75</ele><time>2026-04-26T07:55:59.899Z</time></trkpt><trkpt lat="43.81280916116427" lon="12.058577823624532"><ele>1016.5</ele><time>2026-04-26T07:56:00.899Z</time></trkpt><trkpt lat="43.81293314397772" lon="12.058560270510757"><ele>1016.25</ele><time>2026-04-26T07:56:01.899Z</time></trkpt><trkpt lat="43.81304910870538" lon="12.058555434842672"><ele>1016.0</ele><time>2026-04-26T07:56:02.899Z</time></trkpt><trkpt lat="43.813159801136266" lon="12.058595190765814"><ele>1016.0</ele><time>2026-04-26T07:56:03.899Z</time></trkpt><trkpt lat="43.813268306122396" lon="12.058634285804406"><ele>1016.0</ele><time>2026-04-26T07:56:04.899Z</time></trkpt><trkpt lat="43.8133977200119" lon="12.058711994026936"><ele>1016.0</ele><time>2026-04-26T07:56:05.899Z</time></trkpt><trkpt lat="43.81353790133147" lon="12.058797437126582"><ele>1016.0</ele><time>2026-04-26T07:56:06.899Z</time></trkpt><trkpt lat="43.813682112242596" lon="12.0588653289919"><ele>1015.6666666666667</ele><time>2026-04-26T07:56:07.899Z</time></trkpt><trkpt lat="43.813825290999986" lon="12.058978003339426"><ele>1015.3333333333333</ele><time>2026-04-26T07:56:08.899Z</time></trkpt><trkpt lat="43.81396836074379" lon="12.059066191986473"><ele>1015.0</ele><time>2026-04-26T07:56:09.899Z</time></trkpt><trkpt lat="43.814108175603955" lon="12.059150095537312"><ele>1015.0</ele><time>2026-04-26T07:56:10.899Z</time></trkpt><trkpt lat="43.81424941812838" lon="12.059215957199283"><ele>1015.0</ele><time>2026-04-26T07:56:11.899Z</time></trkpt><trkpt lat="43.81438400628762" lon="12.059235860695965"><ele>1015.0</ele><time>2026-04-26T07:56:12.899Z</time></trkpt><trkpt lat="43.81452005954632" lon="12.059194047871532"><ele>1015.0</ele><time>2026-04-26T07:56:13.899Z</time></trkpt><trkpt lat="43.814676358803744" lon="12.059186644536974"><ele>1013.5</ele><time>2026-04-26T07:56:14.899Z</time></trkpt><trkpt lat="43.81482943182537" lon="12.059157918812232"><ele>1012.0</ele><time>2026-04-26T07:56:15.899Z</time></trkpt><trkpt lat="43.81496690816053" lon="12.059131299256618"><ele>1010.5</ele><time>2026-04-26T07:56:16.899Z</time></trkpt><trkpt lat="43.8150975973343" lon="12.059118649964901"><ele>1009.0</ele><time>2026-04-26T07:56:17.899Z</time></trkpt><trkpt lat="43.815228875702104" lon="12.059130238763386"><ele>1006.6666666666666</ele><time>2026-04-26T07:56:18.899Z</time></trkpt><trkpt lat="43.81538913595001" lon="12.05915729458323"><ele>1004.3333333333333</ele><time>2026-04-26T07:56:19.899Z</time></trkpt><trkpt lat="43.81555593396538" lon="12.059187182031057"><ele>1002.0</ele><time>2026-04-26T07:56:20.899Z</time></trkpt><trkpt lat="43.81573467244313" lon="12.059218952136401"><ele>1002.0</ele><time>2026-04-26T07:56:21.899Z</time></trkpt><trkpt lat="43.815919168962985" lon="12.05925083898732"><ele>1002.0</ele><time>2026-04-26T07:56:22.899Z</time></trkpt><trkpt lat="43.81611652892008" lon="12.0592839378737"><ele>1002.0</ele><time>2026-04-26T07:56:23.899Z</time></trkpt><trkpt lat="43.81630025779991" lon="12.059314750710685"><ele>999.0</ele><time>2026-04-26T07:56:24.899Z</time></trkpt><trkpt lat="43.816489137699705" lon="12.059346427424316"><ele>996.0</ele><time>2026-04-26T07:56:25.899Z</time></trkpt><trkpt lat="43.81668003719087" lon="12.059379659669846"><ele>993.0</ele><time>2026-04-26T07:56:26.899Z</time></trkpt><trkpt lat="43.816859858191606" lon="12.059411570400998"><ele>991.3333333333333</ele><time>2026-04-26T07:56:27.899Z</time></trkpt><trkpt lat="43.81703901130987" lon="12.059443362639641"><ele>989.6666666666666</ele><time>2026-04-26T07:56:28.899Z</time></trkpt><trkpt lat="43.81721086525439" lon="12.05947385956792"><ele>988.0</ele><time>2026-04-26T07:56:29.899Z</time></trkpt><trkpt lat="43.81737612405301" lon="12.059506481198992"><ele>988.0</ele><time>2026-04-26T07:56:30.899Z</time></trkpt><trkpt lat="43.817536483315635" lon="12.059539402555284"><ele>988.0</ele><time>2026-04-26T07:56:31.899Z</time></trkpt><trkpt lat="43.81768979660267" lon="12.059570875656014"><ele>988.0</ele><time>2026-04-26T07:56:32.899Z</time></trkpt><trkpt lat="43.817825785228294" lon="12.05958035978343"><ele>986.3333333333333</ele><time>2026-04-26T07:56:33.899Z</time></trkpt><trkpt lat="43.817965161407535" lon="12.059577637120078"><ele>984.6666666666667</ele><time>2026-04-26T07:56:34.899Z</time></trkpt><trkpt lat="43.81812479840661" lon="12.059550156181718"><ele>983.0</ele><time>2026-04-26T07:56:35.899Z</time></trkpt><trkpt lat="43.818276380577146" lon="12.059476834997513"><ele>983.0</ele><time>2026-04-26T07:56:36.899Z</time></trkpt><trkpt lat="43.81842970910083" lon="12.059439548102146"><ele>983.0</ele><time>2026-04-26T07:56:37.899Z</time></trkpt><trkpt lat="43.818585101629274" lon="12.059385197545192"><ele>983.0</ele><time>2026-04-26T07:56:38.899Z</time></trkpt><trkpt lat="43.81873883215249" lon="12.05934492077575"><ele>980.3333333333334</ele><time>2026-04-26T07:56:39.899Z</time></trkpt><trkpt lat="43.818907593578274" lon="12.059318985962157"><ele>977.6666666666667</ele><time>2026-04-26T07:56:40.899Z</time></trkpt><trkpt lat="43.81907816980252" lon="12.059314914573624"><ele>975.0</ele><time>2026-04-26T07:56:41.899Z</time></trkpt><trkpt lat="43.81925432642673" lon="12.059322939915448"><ele>972.0</ele><time>2026-04-26T07:56:42.899Z</time></trkpt><trkpt lat="43.819435522501905" lon="12.059325493312535"><ele>969.0</ele><time>2026-04-26T07:56:43.899Z</time></trkpt><trkpt lat="43.81961563415807" lon="12.059314833599512"><ele>966.0</ele><time>2026-04-26T07:56:44.899Z</time></trkpt><trkpt lat="43.819798426857815" lon="12.059279999330453"><ele>966.0</ele><time>2026-04-26T07:56:45.899Z</time></trkpt><trkpt lat="43.81997699671351" lon="12.059194816066853"><ele>966.0</ele><time>2026-04-26T07:56:46.899Z</time></trkpt><trkpt lat="43.82015154730327" lon="12.059131299479054"><ele>966.0</ele><time>2026-04-26T07:56:47.899Z</time></trkpt><trkpt lat="43.82031526211027" lon="12.059065910367506"><ele>962.6666666666667</ele><time>2026-04-26T07:56:48.899Z</time></trkpt><trkpt lat="43.820478938839905" lon="12.059028879761483"><ele>959.3333333333334</ele><time>2026-04-26T07:56:49.899Z</time></trkpt><trkpt lat="43.820638805357326" lon="12.058953117311356"><ele>956.0</ele><time>2026-04-26T07:56:50.899Z</time></trkpt><trkpt lat="43.82080207680128" lon="12.058898485536169"><ele>956.0</ele><time>2026-04-26T07:56:51.899Z</time></trkpt><trkpt lat="43.820953968747475" lon="12.058850436797496"><ele>956.0</ele><time>2026-04-26T07:56:52.899Z</time></trkpt><trkpt lat="43.82110561915046" lon="12.058855921296008"><ele>956.0</ele><time>2026-04-26T07:56:53.899Z</time></trkpt><trkpt lat="43.82123817716658" lon="12.058876282012015"><ele>956.0</ele><time>2026-04-26T07:56:54.899Z</time></trkpt><trkpt lat="43.82136103213286" lon="12.058933927061181"><ele>954.3333333333334</ele><time>2026-04-26T07:56:55.899Z</time></trkpt><trkpt lat="43.82149013362206" lon="12.059035417194995"><ele>952.6666666666667</ele><time>2026-04-26T07:56:56.899Z</time></trkpt><trkpt lat="43.82160570183218" lon="12.059169872938705"><ele>951.0</ele><time>2026-04-26T07:56:57.898Z</time></trkpt><trkpt lat="43.82171493575123" lon="12.059315653130016"><ele>948.5</ele><time>2026-04-26T07:56:58.898Z</time></trkpt><trkpt lat="43.82182475949182" lon="12.059464133658134"><ele>946.0</ele><time>2026-04-26T07:56:59.898Z</time></trkpt><trkpt lat="43.82193237760247" lon="12.059576203333211"><ele>943.5</ele><time>2026-04-26T07:57:00.899Z</time></trkpt><trkpt lat="43.82203862837177" lon="12.059670735334025"><ele>941.0</ele><time>2026-04-26T07:57:01.899Z</time></trkpt><trkpt lat="43.82213818542756" lon="12.05971816606811"><ele>941.0</ele><time>2026-04-26T07:57:02.899Z</time></trkpt><trkpt lat="43.822238145967226" lon="12.059732413539884"><ele>941.0</ele><time>2026-04-26T07:57:03.898Z</time></trkpt><trkpt lat="43.82233824631888" lon="12.0597489657396"><ele>941.0</ele><time>2026-04-26T07:57:04.898Z</time></trkpt><trkpt lat="43.822494149575306" lon="12.059745950190319"><ele>941.0</ele><time>2026-04-26T07:57:05.899Z</time></trkpt><trkpt lat="43.8226551915312" lon="12.05973485606233"><ele>938.6666666666667</ele><time>2026-04-26T07:57:06.899Z</time></trkpt><trkpt lat="43.82282134970867" lon="12.059708062134174"><ele>936.3333333333333</ele><time>2026-04-26T07:57:07.899Z</time></trkpt><trkpt lat="43.82299899713775" lon="12.059724336443313"><ele>934.0</ele><time>2026-04-26T07:57:08.898Z</time></trkpt><trkpt lat="43.823187967629494" lon="12.059758389836796"><ele>934.0</ele><time>2026-04-26T07:57:09.899Z</time></trkpt><trkpt lat="43.82337894332143" lon="12.059803797631865"><ele>934.0</ele><time>2026-04-26T07:57:10.899Z</time></trkpt><trkpt lat="43.823583069581176" lon="12.059857416562728"><ele>934.0</ele><time>2026-04-26T07:57:11.899Z</time></trkpt><trkpt lat="43.8237757428513" lon="12.059898615503489"><ele>933.3333333333333</ele><time>2026-04-26T07:57:12.899Z</time></trkpt><trkpt lat="43.823959837971366" lon="12.059934797090252"><ele>932.6666666666667</ele><time>2026-04-26T07:57:13.899Z</time></trkpt><trkpt lat="43.82413285605179" lon="12.059973703860681"><ele>932.0</ele><time>2026-04-26T07:57:14.898Z</time></trkpt><trkpt lat="43.8243171018613" lon="12.060004370512145"><ele>932.0</ele><time>2026-04-26T07:57:15.898Z</time></trkpt><trkpt lat="43.824484774790776" lon="12.060045121880533"><ele>932.0</ele><time>2026-04-26T07:57:16.898Z</time></trkpt><trkpt lat="43.82464625028536" lon="12.060080770151405"><ele>932.0</ele><time>2026-04-26T07:57:17.898Z</time></trkpt><trkpt lat="43.824799776269266" lon="12.060114826580385"><ele>932.0</ele><time>2026-04-26T07:57:18.898Z</time></trkpt><trkpt lat="43.8249329061801" lon="12.060151112283279"><ele>932.0</ele><time>2026-04-26T07:57:19.898Z</time></trkpt><trkpt lat="43.82507100553136" lon="12.060207407973127"><ele>932.0</ele><time>2026-04-26T07:57:20.898Z</time></trkpt><trkpt lat="43.82520315109669" lon="12.060347545826115"><ele>932.0</ele><time>2026-04-26T07:57:21.898Z</time></trkpt><trkpt lat="43.825352774235775" lon="12.060493531861884"><ele>930.3333333333334</ele><time>2026-04-26T07:57:22.898Z</time></trkpt><trkpt lat="43.82551740937489" lon="12.060636190435222"><ele>928.6666666666667</ele><time>2026-04-26T07:57:23.898Z</time></trkpt><trkpt lat="43.825678052383225" lon="12.06078928787117"><ele>927.0</ele><time>2026-04-26T07:57:24.898Z</time></trkpt><trkpt lat="43.82582946721629" lon="12.060933285930245"><ele>927.0</ele><time>2026-04-26T07:57:25.898Z</time></trkpt><trkpt lat="43.82595714185016" lon="12.061074218560973"><ele>927.0</ele><time>2026-04-26T07:57:26.898Z</time></trkpt><trkpt lat="43.826081303790986" lon="12.061166273930617"><ele>927.0</ele><time>2026-04-26T07:57:27.898Z</time></trkpt><trkpt lat="43.82620102689492" lon="12.061177854029255"><ele>927.0</ele><time>2026-04-26T07:57:28.898Z</time></trkpt><trkpt lat="43.82631859608141" lon="12.061188705646243"><ele>925.0</ele><time>2026-04-26T07:57:29.898Z</time></trkpt><trkpt lat="43.82645202019361" lon="12.061127272621256"><ele>923.0</ele><time>2026-04-26T07:57:30.898Z</time></trkpt><trkpt lat="43.82660177283036" lon="12.061081335713185"><ele>921.0</ele><time>2026-04-26T07:57:31.898Z</time></trkpt><trkpt lat="43.826754071664226" lon="12.06106952554489"><ele>919.0</ele><time>2026-04-26T07:57:32.898Z</time></trkpt><trkpt lat="43.82690174507712" lon="12.06120415856723"><ele>918.0</ele><time>2026-04-26T07:57:33.898Z</time></trkpt><trkpt lat="43.827072479579655" lon="12.061295874705582"><ele>917.0</ele><time>2026-04-26T07:57:34.898Z</time></trkpt><trkpt lat="43.8272304951481" lon="12.061385643972457"><ele>916.0</ele><time>2026-04-26T07:57:35.898Z</time></trkpt><trkpt lat="43.82738195211531" lon="12.061432637761914"><ele>916.0</ele><time>2026-04-26T07:57:36.898Z</time></trkpt><trkpt lat="43.82754401772778" lon="12.061446101962991"><ele>916.0</ele><time>2026-04-26T07:57:37.898Z</time></trkpt><trkpt lat="43.82767698615852" lon="12.06150899681339"><ele>916.0</ele><time>2026-04-26T07:57:38.898Z</time></trkpt><trkpt lat="43.82780121535505" lon="12.061627373793797"><ele>914.6666666666666</ele><time>2026-04-26T07:57:39.898Z</time></trkpt><trkpt lat="43.8279598697656" lon="12.061714961019101"><ele>913.3333333333333</ele><time>2026-04-26T07:57:40.898Z</time></trkpt><trkpt lat="43.82812372803279" lon="12.061792506700225"><ele>912.0</ele><time>2026-04-26T07:57:41.898Z</time></trkpt><trkpt lat="43.82829120813236" lon="12.061825667732686"><ele>912.0</ele><time>2026-04-26T07:57:42.898Z</time></trkpt><trkpt lat="43.82843609352536" lon="12.06186073528244"><ele>912.0</ele><time>2026-04-26T07:57:43.898Z</time></trkpt><trkpt lat="43.82857205643616" lon="12.061937894465133"><ele>912.0</ele><time>2026-04-26T07:57:44.898Z</time></trkpt><trkpt lat="43.8287170036688" lon="12.062083472910395"><ele>912.3333333333333</ele><time>2026-04-26T07:57:45.898Z</time></trkpt><trkpt lat="43.828864710651665" lon="12.062229970331845"><ele>912.6666666666666</ele><time>2026-04-26T07:57:46.898Z</time></trkpt><trkpt lat="43.82899454345043" lon="12.062392917885747"><ele>913.0</ele><time>2026-04-26T07:57:47.898Z</time></trkpt><trkpt lat="43.829119832214246" lon="12.06252762824326"><ele>913.25</ele><time>2026-04-26T07:57:48.898Z</time></trkpt><trkpt lat="43.82923334858042" lon="12.062631108590878"><ele>913.5</ele><time>2026-04-26T07:57:49.898Z</time></trkpt><trkpt lat="43.829303209940456" lon="12.062784733156784"><ele>913.75</ele><time>2026-04-26T07:57:50.898Z</time></trkpt><trkpt lat="43.82935209615281" lon="12.062951647821375"><ele>914.0</ele><time>2026-04-26T07:57:51.898Z</time></trkpt><trkpt lat="43.829391588967475" lon="12.063120786680336"><ele>914.0</ele><time>2026-04-26T07:57:52.898Z</time></trkpt><trkpt lat="43.829437915887944" lon="12.063239932544134"><ele>914.0</ele><time>2026-04-26T07:57:53.898Z</time></trkpt><trkpt lat="43.82953468482049" lon="12.063337552920991"><ele>914.0</ele><time>2026-04-26T07:57:54.898Z</time></trkpt><trkpt lat="43.82966734928699" lon="12.06343350127305"><ele>914.0</ele><time>2026-04-26T07:57:55.898Z</time></trkpt><trkpt lat="43.8297928004003" lon="12.063567518644897"><ele>908.3333333333334</ele><time>2026-04-26T07:57:56.898Z</time></trkpt><trkpt lat="43.82993574939796" lon="12.063653505339806"><ele>902.6666666666667</ele><time>2026-04-26T07:57:57.898Z</time></trkpt><trkpt lat="43.83009066662484" lon="12.063686319701365"><ele>897.0</ele><time>2026-04-26T07:57:58.898Z</time></trkpt><trkpt lat="43.83025518909147" lon="12.063728200197621"><ele>896.0</ele><time>2026-04-26T07:57:59.898Z</time></trkpt><trkpt lat="43.83042535266203" lon="12.063777690360059"><ele>895.0</ele><time>2026-04-26T07:58:00.898Z</time></trkpt><trkpt lat="43.830595385140896" lon="12.06382003276911"><ele>894.0</ele><time>2026-04-26T07:58:01.898Z</time></trkpt><trkpt lat="43.83074171773782" lon="12.063862586788707"><ele>894.0</ele><time>2026-04-26T07:58:02.898Z</time></trkpt><trkpt lat="43.83088599605173" lon="12.063870995841688"><ele>894.0</ele><time>2026-04-26T07:58:03.898Z</time></trkpt><trkpt lat="43.83102743431934" lon="12.063811023334543"><ele>894.0</ele><time>2026-04-26T07:58:04.898Z</time></trkpt><trkpt lat="43.831177075904485" lon="12.06375149437894"><ele>894.0</ele><time>2026-04-26T07:58:05.898Z</time></trkpt><trkpt lat="43.831326161566025" lon="12.063718994962665"><ele>891.6666666666667</ele><time>2026-04-26T07:58:06.898Z</time></trkpt><trkpt lat="43.83147067500596" lon="12.063756577370823"><ele>889.3333333333334</ele><time>2026-04-26T07:58:07.898Z</time></trkpt><trkpt lat="43.831647029216796" lon="12.063822496328363"><ele>887.0</ele><time>2026-04-26T07:58:08.898Z</time></trkpt><trkpt lat="43.831833652088314" lon="12.063902364226456"><ele>886.3333333333334</ele><time>2026-04-26T07:58:09.898Z</time></trkpt><trkpt lat="43.83202425428471" lon="12.063951457231905"><ele>885.6666666666667</ele><time>2026-04-26T07:58:10.898Z</time></trkpt><trkpt lat="43.83221533984033" lon="12.06399770903722"><ele>885.0</ele><time>2026-04-26T07:58:11.898Z</time></trkpt><trkpt lat="43.83239618815701" lon="12.064060632310698"><ele>885.0</ele><time>2026-04-26T07:58:12.898Z</time></trkpt><trkpt lat="43.83257644806529" lon="12.064052976238347"><ele>885.0</ele><time>2026-04-26T07:58:13.898Z</time></trkpt><trkpt lat="43.83275773760375" lon="12.064064844528323"><ele>885.0</ele><time>2026-04-26T07:58:14.898Z</time></trkpt><trkpt lat="43.832924135043385" lon="12.064045810249116"><ele>883.5</ele><time>2026-04-26T07:58:15.898Z</time></trkpt><trkpt lat="43.83307401195391" lon="12.064042697748306"><ele>882.0</ele><time>2026-04-26T07:58:16.898Z</time></trkpt><trkpt lat="43.833208917108045" lon="12.064082081877642"><ele>880.5</ele><time>2026-04-26T07:58:17.898Z</time></trkpt><trkpt lat="43.83331381342493" lon="12.064169611682527"><ele>879.0</ele><time>2026-04-26T07:58:18.898Z</time></trkpt><trkpt lat="43.83341634664028" lon="12.064308357999478"><ele>873.6666666666667</ele><time>2026-04-26T07:58:19.898Z</time></trkpt><trkpt lat="43.833532928009184" lon="12.064461817913456"><ele>868.3333333333334</ele><time>2026-04-26T07:58:20.898Z</time></trkpt><trkpt lat="43.83364910950932" lon="12.06461243498719"><ele>863.0</ele><time>2026-04-26T07:58:21.898Z</time></trkpt><trkpt lat="43.83378850278098" lon="12.06475535421417"><ele>863.0</ele><time>2026-04-26T07:58:22.898Z</time></trkpt><trkpt lat="43.83393721286311" lon="12.064881397230865"><ele>863.0</ele><time>2026-04-26T07:58:23.898Z</time></trkpt><trkpt lat="43.83409394660904" lon="12.064962840418527"><ele>863.0</ele><time>2026-04-26T07:58:24.898Z</time></trkpt><trkpt lat="43.83424758577416" lon="12.065044722798875"><ele>858.3333333333334</ele><time>2026-04-26T07:58:25.898Z</time></trkpt><trkpt lat="43.83440811852356" lon="12.065129713571478"><ele>853.6666666666667</ele><time>2026-04-26T07:58:26.898Z</time></trkpt><trkpt lat="43.83456159817089" lon="12.065207958199306"><ele>849.0</ele><time>2026-04-26T07:58:27.898Z</time></trkpt><trkpt lat="43.8347066817363" lon="12.065288741930727"><ele>849.0</ele><time>2026-04-26T07:58:28.897Z</time></trkpt><trkpt lat="43.83481194326327" lon="12.065379434410767"><ele>849.0</ele><time>2026-04-26T07:58:29.897Z</time></trkpt><trkpt lat="43.83490313367039" lon="12.065494670035507"><ele>849.0</ele><time>2026-04-26T07:58:30.897Z</time></trkpt><trkpt lat="43.8349940734399" lon="12.065634547031664"><ele>849.0</ele><time>2026-04-26T07:58:31.897Z</time></trkpt><trkpt lat="43.835064459659954" lon="12.065821252339799"><ele>845.6666666666667</ele><time>2026-04-26T07:58:32.897Z</time></trkpt><trkpt lat="43.835133189091586" lon="12.066012319972256"><ele>842.3333333333334</ele><time>2026-04-26T07:58:33.897Z</time></trkpt><trkpt lat="43.835201347134216" lon="12.06623075640884"><ele>839.0</ele><time>2026-04-26T07:58:34.897Z</time></trkpt><trkpt lat="43.83528384141302" lon="12.06645057418284"><ele>837.0</ele><time>2026-04-26T07:58:35.897Z</time></trkpt><trkpt lat="43.835357814204215" lon="12.066664601891222"><ele>835.0</ele><time>2026-04-26T07:58:36.897Z</time></trkpt><trkpt lat="43.8354238736741" lon="12.066862312298102"><ele>833.0</ele><time>2026-04-26T07:58:37.897Z</time></trkpt><trkpt lat="43.83548474418098" lon="12.067032821014637"><ele>833.0</ele><time>2026-04-26T07:58:38.897Z</time></trkpt><trkpt lat="43.835532424066876" lon="12.067188115768056"><ele>833.0</ele><time>2026-04-26T07:58:39.897Z</time></trkpt><trkpt lat="43.83558978227566" lon="12.067313892267295"><ele>833.0</ele><time>2026-04-26T07:58:40.897Z</time></trkpt><trkpt lat="43.83566423859651" lon="12.067418088306711"><ele>833.0</ele><time>2026-04-26T07:58:41.897Z</time></trkpt><trkpt lat="43.83575406671043" lon="12.067516131648699"><ele>833.0</ele><time>2026-04-26T07:58:42.897Z</time></trkpt><trkpt lat="43.83590524826436" lon="12.067518365529597"><ele>831.6666666666667</ele><time>2026-04-26T07:58:43.897Z</time></trkpt><trkpt lat="43.83605246414067" lon="12.067472669439"><ele>830.3333333333333</ele><time>2026-04-26T07:58:44.897Z</time></trkpt><trkpt lat="43.83620805399563" lon="12.067364841267096"><ele>829.0</ele><time>2026-04-26T07:58:45.897Z</time></trkpt><trkpt lat="43.83636531078883" lon="12.0672969135029"><ele>829.0</ele><time>2026-04-26T07:58:46.897Z</time></trkpt><trkpt lat="43.8365201111211" lon="12.067220825156754"><ele>829.0</ele><time>2026-04-26T07:58:47.897Z</time></trkpt><trkpt lat="43.83667463797734" lon="12.067113000293649"><ele>829.0</ele><time>2026-04-26T07:58:48.897Z</time></trkpt><trkpt lat="43.83681564909881" lon="12.067000767645021"><ele>826.6666666666666</ele><time>2026-04-26T07:58:49.897Z</time></trkpt><trkpt lat="43.836935175882914" lon="12.066839968430001"><ele>824.3333333333333</ele><time>2026-04-26T07:58:50.897Z</time></trkpt><trkpt lat="43.837039764078746" lon="12.066612796432887"><ele>822.0</ele><time>2026-04-26T07:58:51.897Z</time></trkpt><trkpt lat="43.83717356232411" lon="12.066417572322615"><ele>821.0</ele><time>2026-04-26T07:58:52.897Z</time></trkpt><trkpt lat="43.83731301093917" lon="12.06624145653383"><ele>820.0</ele><time>2026-04-26T07:58:53.897Z</time></trkpt><trkpt lat="43.837446075182015" lon="12.066057797299596"><ele>819.0</ele><time>2026-04-26T07:58:54.897Z</time></trkpt><trkpt lat="43.83758542951138" lon="12.065893162195676"><ele>817.3333333333333</ele><time>2026-04-26T07:58:55.897Z</time></trkpt><trkpt lat="43.83770260812905" lon="12.065704776732966"><ele>815.6666666666666</ele><time>2026-04-26T07:58:56.897Z</time></trkpt><trkpt lat="43.83780233991356" lon="12.065475667118344"><ele>814.0</ele><time>2026-04-26T07:58:57.897Z</time></trkpt><trkpt lat="43.837917463283254" lon="12.065225421146486"><ele>814.0</ele><time>2026-04-26T07:58:58.897Z</time></trkpt><trkpt lat="43.838007471269464" lon="12.064952893552613"><ele>814.0</ele><time>2026-04-26T07:58:59.897Z</time></trkpt><trkpt lat="43.83810925675108" lon="12.0647021939546"><ele>814.0</ele><time>2026-04-26T07:59:00.897Z</time></trkpt><trkpt lat="43.83820349217209" lon="12.064464390197061"><ele>814.0</ele><time>2026-04-26T07:59:01.897Z</time></trkpt><trkpt lat="43.838305786292146" lon="12.064253035793385"><ele>814.0</ele><time>2026-04-26T07:59:02.897Z</time></trkpt><trkpt lat="43.83839577690445" lon="12.064033340969589"><ele>814.0</ele><time>2026-04-26T07:59:03.897Z</time></trkpt><trkpt lat="43.83848676190032" lon="12.063813234978255"><ele>808.0</ele><time>2026-04-26T07:59:04.897Z</time></trkpt><trkpt lat="43.83856105585082" lon="12.063589269861014"><ele>802.0</ele><time>2026-04-26T07:59:05.896Z</time></trkpt><trkpt lat="43.83863635254317" lon="12.063379645941417"><ele>796.0</ele><time>2026-04-26T07:59:06.897Z</time></trkpt><trkpt lat="43.83870398179897" lon="12.063155877960634"><ele>793.6666666666666</ele><time>2026-04-26T07:59:07.897Z</time></trkpt><trkpt lat="43.83874515049532" lon="12.062917967698123"><ele>791.3333333333333</ele><time>2026-04-26T07:59:08.897Z</time></trkpt><trkpt lat="43.838760304443056" lon="12.062666094820042"><ele>789.0</ele><time>2026-04-26T07:59:09.897Z</time></trkpt><trkpt lat="43.83877642530444" lon="12.062416246011443"><ele>788.6666666666667</ele><time>2026-04-26T07:59:10.897Z</time></trkpt><trkpt lat="43.83880248058763" lon="12.062183972262941"><ele>788.3333333333334</ele><time>2026-04-26T07:59:11.897Z</time></trkpt><trkpt lat="43.83884067241412" lon="12.061957607154392"><ele>788.0</ele><time>2026-04-26T07:59:12.896Z</time></trkpt><trkpt lat="43.838887574439156" lon="12.061741723736171"><ele>788.0</ele><time>2026-04-26T07:59:13.896Z</time></trkpt><trkpt lat="43.838936007658546" lon="12.061533442169642"><ele>788.0</ele><time>2026-04-26T07:59:14.897Z</time></trkpt><trkpt lat="43.838980102021694" lon="12.061347691801124"><ele>788.0</ele><time>2026-04-26T07:59:15.896Z</time></trkpt><trkpt lat="43.83902283812285" lon="12.061175075027002"><ele>788.0</ele><time>2026-04-26T07:59:16.896Z</time></trkpt><trkpt lat="43.839060180702994" lon="12.061015644148883"><ele>788.0</ele><time>2026-04-26T07:59:17.896Z</time></trkpt><trkpt lat="43.83907959322928" lon="12.060871123674092"><ele>788.0</ele><time>2026-04-26T07:59:18.896Z</time></trkpt><trkpt lat="43.839065434818984" lon="12.060738882111028"><ele>788.0</ele><time>2026-04-26T07:59:19.896Z</time></trkpt><trkpt lat="43.83903743716723" lon="12.060613529702104"><ele>788.0</ele><time>2026-04-26T07:59:20.896Z</time></trkpt><trkpt lat="43.838975038677525" lon="12.060497322839913"><ele>788.0</ele><time>2026-04-26T07:59:21.896Z</time></trkpt><trkpt lat="43.838901385948624" lon="12.060386682567696"><ele>786.5999999999999</ele><time>2026-04-26T07:59:22.896Z</time></trkpt><trkpt lat="43.83885747590407" lon="12.060269305698407"><ele>785.1999999999999</ele><time>2026-04-26T07:59:23.896Z</time></trkpt><trkpt lat="43.838826497190716" lon="12.060160862000474"><ele>783.8</ele><time>2026-04-26T07:59:24.896Z</time></trkpt><trkpt lat="43.83880702913651" lon="12.06005622458472"><ele>782.4</ele><time>2026-04-26T07:59:25.896Z</time></trkpt><trkpt lat="43.83884218640604" lon="12.059936724048061"><ele>781.0</ele><time>2026-04-26T07:59:26.896Z</time></trkpt><trkpt lat="43.838884665770905" lon="12.059806810521629"><ele>781.0</ele><time>2026-04-26T07:59:27.896Z</time></trkpt><trkpt lat="43.838940989117326" lon="12.059676115594968"><ele>781.0</ele><time>2026-04-26T07:59:28.896Z</time></trkpt><trkpt lat="43.838985513396004" lon="12.059522996561416"><ele>781.0</ele><time>2026-04-26T07:59:29.896Z</time></trkpt><trkpt lat="43.839048203135995" lon="12.059398859168285"><ele>781.0</ele><time>2026-04-26T07:59:30.896Z</time></trkpt><trkpt lat="43.83908451492046" lon="12.05925672437637"><ele>781.0</ele><time>2026-04-26T07:59:31.896Z</time></trkpt><trkpt lat="43.83909697125992" lon="12.05911137060823"><ele>780.0</ele><time>2026-04-26T07:59:32.896Z</time></trkpt><trkpt lat="43.839138461888915" lon="12.058978817944455"><ele>779.0</ele><time>2026-04-26T07:59:33.896Z</time></trkpt><trkpt lat="43.83916359447782" lon="12.058845078850613"><ele>778.0</ele><time>2026-04-26T07:59:34.896Z</time></trkpt><trkpt lat="43.839186523618906" lon="12.058722418490715"><ele>777.0</ele><time>2026-04-26T07:59:35.896Z</time></trkpt><trkpt lat="43.839207314088085" lon="12.058605664298637"><ele>776.0</ele><time>2026-04-26T07:59:36.896Z</time></trkpt><trkpt lat="43.83921268046679" lon="12.058483164235067"><ele>776.0</ele><time>2026-04-26T07:59:37.896Z</time></trkpt><trkpt lat="43.83921346385361" lon="12.058367720599415"><ele>776.0</ele><time>2026-04-26T07:59:38.896Z</time></trkpt><trkpt lat="43.83918851862071" lon="12.058261910217178"><ele>776.0</ele><time>2026-04-26T07:59:39.896Z</time></trkpt><trkpt lat="43.839135978483945" lon="12.0581612372445"><ele>776.0</ele><time>2026-04-26T07:59:40.896Z</time></trkpt><trkpt lat="43.83905897410495" lon="12.05807922098366"><ele>776.0</ele><time>2026-04-26T07:59:41.896Z</time></trkpt><trkpt lat="43.838963691686665" lon="12.058011251442096"><ele>772.4</ele><time>2026-04-26T07:59:42.896Z</time></trkpt><trkpt lat="43.838875508402175" lon="12.057933055534614"><ele>768.8</ele><time>2026-04-26T07:59:43.896Z</time></trkpt><trkpt lat="43.83880246888368" lon="12.0578472139652"><ele>765.1999999999999</ele><time>2026-04-26T07:59:44.896Z</time></trkpt><trkpt lat="43.83874636049945" lon="12.057744645446812"><ele>761.5999999999999</ele><time>2026-04-26T07:59:45.896Z</time></trkpt><trkpt lat="43.83872420903632" lon="12.057624712691382"><ele>758.0</ele><time>2026-04-26T07:59:46.896Z</time></trkpt><trkpt lat="43.838733459113094" lon="12.057499170259419"><ele>755.2</ele><time>2026-04-26T07:59:47.896Z</time></trkpt><trkpt lat="43.838762915094804" lon="12.057352029630769"><ele>752.4</ele><time>2026-04-26T07:59:48.896Z</time></trkpt><trkpt lat="43.83879201915603" lon="12.05721533970771"><ele>749.6</ele><time>2026-04-26T07:59:49.896Z</time></trkpt><trkpt lat="43.838796811066906" lon="12.057087185910264"><ele>746.8000000000001</ele><time>2026-04-26T07:59:50.896Z</time></trkpt><trkpt lat="43.83878129090781" lon="12.0569741313752"><ele>744.0</ele><time>2026-04-26T07:59:51.896Z</time></trkpt><trkpt lat="43.83872521531943" lon="12.056867392785984"><ele>744.0</ele><time>2026-04-26T07:59:52.896Z</time></trkpt><trkpt lat="43.838632277884194" lon="12.05679285537185"><ele>744.0</ele><time>2026-04-26T07:59:53.896Z</time></trkpt><trkpt lat="43.83852708317106" lon="12.056762048893201"><ele>744.0</ele><time>2026-04-26T07:59:54.896Z</time></trkpt><trkpt lat="43.83840429266876" lon="12.056744516700626"><ele>744.0</ele><time>2026-04-26T07:59:55.896Z</time></trkpt><trkpt lat="43.83828476065831" lon="12.056727740542291"><ele>743.0</ele><time>2026-04-26T07:59:56.896Z</time></trkpt><trkpt lat="43.83817948139186" lon="12.056700699630275"><ele>742.0</ele><time>2026-04-26T07:59:57.896Z</time></trkpt><trkpt lat="43.83808479177066" lon="12.056628358467211"><ele>741.0</ele><time>2026-04-26T07:59:58.896Z</time></trkpt><trkpt lat="43.8379908259242" lon="12.05652856748609"><ele>740.0</ele><time>2026-04-26T07:59:59.896Z</time></trkpt><trkpt lat="43.83791667194062" lon="12.056386077387463"><ele>740.0</ele><time>2026-04-26T08:00:00.896Z</time></trkpt><trkpt lat="43.83781887850765" lon="12.056266069775985"><ele>740.0</ele><time>2026-04-26T08:00:01.896Z</time></trkpt><trkpt lat="43.83773095964626" lon="12.056131099157984"><ele>740.0</ele><time>2026-04-26T08:00:02.896Z</time></trkpt><trkpt lat="43.83765467231974" lon="12.056010332645224"><ele>740.0</ele><time>2026-04-26T08:00:03.896Z</time></trkpt><trkpt lat="43.837580876861324" lon="12.055896213212833"><ele>740.75</ele><time>2026-04-26T08:00:04.896Z</time></trkpt><trkpt lat="43.83750501158524" lon="12.055778218255762"><ele>741.5</ele><time>2026-04-26T08:00:05.896Z</time></trkpt><trkpt lat="43.83742323706678" lon="12.055663755247084"><ele>742.25</ele><time>2026-04-26T08:00:06.896Z</time></trkpt><trkpt lat="43.8373431689732" lon="12.055541199201427"><ele>743.0</ele><time>2026-04-26T08:00:07.896Z</time></trkpt><trkpt lat="43.83726778783237" lon="12.055427958306133"><ele>743.0</ele><time>2026-04-26T08:00:08.896Z</time></trkpt><trkpt lat="43.837211548300914" lon="12.05530130234138"><ele>743.0</ele><time>2026-04-26T08:00:09.896Z</time></trkpt><trkpt lat="43.83715342699436" lon="12.055202939847028"><ele>743.0</ele><time>2026-04-26T08:00:10.895Z</time></trkpt><trkpt lat="43.83711224171107" lon="12.05509929047686"><ele>743.0</ele><time>2026-04-26T08:00:11.895Z</time></trkpt><trkpt lat="43.837089035982345" lon="12.054980863368673"><ele>743.0</ele><time>2026-04-26T08:00:12.895Z</time></trkpt><trkpt lat="43.837099574744606" lon="12.054852811423846"><ele>747.8</ele><time>2026-04-26T08:00:13.895Z</time></trkpt><trkpt lat="43.83712458498488" lon="12.054729301872095"><ele>752.5999999999999</ele><time>2026-04-26T08:00:14.895Z</time></trkpt><trkpt lat="43.837148431073" lon="12.054596358070643"><ele>757.4000000000001</ele><time>2026-04-26T08:00:15.895Z</time></trkpt><trkpt lat="43.83717943108215" lon="12.054470127948967"><ele>762.2</ele><time>2026-04-26T08:00:16.895Z</time></trkpt><trkpt lat="43.837215329432524" lon="12.054346600351353"><ele>767.0</ele><time>2026-04-26T08:00:17.895Z</time></trkpt><trkpt lat="43.83725997721931" lon="12.0542421072475"><ele>767.0</ele><time>2026-04-26T08:00:18.895Z</time></trkpt><trkpt lat="43.83734583739547" lon="12.054181725095832"><ele>767.0</ele><time>2026-04-26T08:00:19.895Z</time></trkpt><trkpt lat="43.837442058399745" lon="12.054158396778083"><ele>767.0</ele><time>2026-04-26T08:00:20.895Z</time></trkpt><trkpt lat="43.83753210281838" lon="12.05418121379862"><ele>767.0</ele><time>2026-04-26T08:00:21.895Z</time></trkpt><trkpt lat="43.83763546731615" lon="12.054236303288913"><ele>767.0</ele><time>2026-04-26T08:00:22.895Z</time></trkpt><trkpt lat="43.83772815757932" lon="12.054284892766162"><ele>767.8</ele><time>2026-04-26T08:00:23.895Z</time></trkpt><trkpt lat="43.83782286835725" lon="12.054314635387035"><ele>768.6</ele><time>2026-04-26T08:00:24.895Z</time></trkpt><trkpt lat="43.83791107391578" lon="12.054378959686238"><ele>769.4</ele><time>2026-04-26T08:00:25.895Z</time></trkpt><trkpt lat="43.83802366354128" lon="12.054427931043818"><ele>770.1999999999999</ele><time>2026-04-26T08:00:26.895Z</time></trkpt><trkpt lat="43.838146310587824" lon="12.054503011650096"><ele>771.0</ele><time>2026-04-26T08:00:27.895Z</time></trkpt><trkpt lat="43.838288551171736" lon="12.054557861656022"><ele>771.0</ele><time>2026-04-26T08:00:28.895Z</time></trkpt><trkpt lat="43.8384364486654" lon="12.054601544763392"><ele>771.0</ele><time>2026-04-26T08:00:29.895Z</time></trkpt><trkpt lat="43.83858869694987" lon="12.054632324618668"><ele>771.0</ele><time>2026-04-26T08:00:30.895Z</time></trkpt><trkpt lat="43.8387368217235" lon="12.054662157742426"><ele>772.6666666666667</ele><time>2026-04-26T08:00:31.895Z</time></trkpt><trkpt lat="43.83888308677223" lon="12.054684918003982"><ele>774.3333333333334</ele><time>2026-04-26T08:00:32.895Z</time></trkpt><trkpt lat="43.8390367459093" lon="12.054727662791768"><ele>776.0</ele><time>2026-04-26T08:00:33.895Z</time></trkpt><trkpt lat="43.83918904035082" lon="12.054755056555406"><ele>769.0</ele><time>2026-04-26T08:00:34.895Z</time></trkpt><trkpt lat="43.83935156368031" lon="12.054786900467397"><ele>762.0</ele><time>2026-04-26T08:00:35.895Z</time></trkpt><trkpt lat="43.83951309318534" lon="12.054820128118946"><ele>755.0</ele><time>2026-04-26T08:00:36.895Z</time></trkpt><trkpt lat="43.839670973187765" lon="12.05486117259005"><ele>755.0</ele><time>2026-04-26T08:00:37.895Z</time></trkpt><trkpt lat="43.83982264035806" lon="12.054892786310068"><ele>755.0</ele><time>2026-04-26T08:00:38.895Z</time></trkpt><trkpt lat="43.83996868580967" lon="12.054926259968866"><ele>755.0</ele><time>2026-04-26T08:00:39.895Z</time></trkpt><trkpt lat="43.84011639545774" lon="12.054958985159201"><ele>752.25</ele><time>2026-04-26T08:00:40.895Z</time></trkpt><trkpt lat="43.8402576828504" lon="12.055004703097897"><ele>749.5</ele><time>2026-04-26T08:00:41.895Z</time></trkpt><trkpt lat="43.84040278372816" lon="12.055022297281019"><ele>746.75</ele><time>2026-04-26T08:00:42.895Z</time></trkpt><trkpt lat="43.84054031600121" lon="12.054986782944201"><ele>744.0</ele><time>2026-04-26T08:00:43.895Z</time></trkpt><trkpt lat="43.84067600632729" lon="12.054937892571605"><ele>744.0</ele><time>2026-04-26T08:00:44.895Z</time></trkpt><trkpt lat="43.8408302747479" lon="12.05488852982734"><ele>744.0</ele><time>2026-04-26T08:00:45.895Z</time></trkpt><trkpt lat="43.84096886327052" lon="12.05478502890851"><ele>744.0</ele><time>2026-04-26T08:00:46.895Z</time></trkpt><trkpt lat="43.84110854185092" lon="12.054708070573351"><ele>742.75</ele><time>2026-04-26T08:00:47.895Z</time></trkpt><trkpt lat="43.84124358172" lon="12.05466127188441"><ele>741.5</ele><time>2026-04-26T08:00:48.895Z</time></trkpt><trkpt lat="43.84135824162443" lon="12.054586711380997"><ele>740.25</ele><time>2026-04-26T08:00:49.895Z</time></trkpt><trkpt lat="43.84148879988184" lon="12.054524971494262"><ele>739.0</ele><time>2026-04-26T08:00:50.895Z</time></trkpt><trkpt lat="43.84162702673826" lon="12.054511701036594"><ele>739.0</ele><time>2026-04-26T08:00:51.895Z</time></trkpt><trkpt lat="43.84175795161384" lon="12.054542096546657"><ele>739.0</ele><time>2026-04-26T08:00:52.895Z</time></trkpt><trkpt lat="43.841896344672435" lon="12.05460196001287"><ele>739.0</ele><time>2026-04-26T08:00:53.895Z</time></trkpt><trkpt lat="43.842026774821626" lon="12.054666965442488"><ele>739.0</ele><time>2026-04-26T08:00:54.895Z</time></trkpt><trkpt lat="43.84214801507387" lon="12.0547285050087"><ele>737.25</ele><time>2026-04-26T08:00:55.895Z</time></trkpt><trkpt lat="43.84227125554713" lon="12.054778010395134"><ele>735.5</ele><time>2026-04-26T08:00:56.895Z</time></trkpt><trkpt lat="43.84239459525717" lon="12.054809367477965"><ele>733.75</ele><time>2026-04-26T08:00:57.895Z</time></trkpt><trkpt lat="43.84251610631972" lon="12.054796135390514"><ele>732.0</ele><time>2026-04-26T08:00:58.895Z</time></trkpt><trkpt lat="43.842634213645105" lon="12.05477824789286"><ele>730.5</ele><time>2026-04-26T08:00:59.895Z</time></trkpt><trkpt lat="43.84275633898826" lon="12.054718081853553"><ele>729.0</ele><time>2026-04-26T08:01:00.895Z</time></trkpt><trkpt lat="43.8428715001618" lon="12.054646572807544"><ele>727.5</ele><time>2026-04-26T08:01:01.895Z</time></trkpt><trkpt lat="43.842987793297944" lon="12.054549761216263"><ele>726.0</ele><time>2026-04-26T08:01:02.895Z</time></trkpt><trkpt lat="43.843103952798096" lon="12.05444002714419"><ele>726.0</ele><time>2026-04-26T08:01:03.895Z</time></trkpt><trkpt lat="43.84320183034734" lon="12.05428911594184"><ele>726.0</ele><time>2026-04-26T08:01:04.895Z</time></trkpt><trkpt lat="43.8432825005508" lon="12.05413463362772"><ele>726.0</ele><time>2026-04-26T08:01:05.895Z</time></trkpt><trkpt lat="43.8433532746726" lon="12.053969014511077"><ele>726.0</ele><time>2026-04-26T08:01:06.895Z</time></trkpt><trkpt lat="43.843406197819434" lon="12.05379441470185"><ele>725.75</ele><time>2026-04-26T08:01:07.895Z</time></trkpt><trkpt lat="43.84343816429895" lon="12.053617464549772"><ele>725.5</ele><time>2026-04-26T08:01:08.895Z</time></trkpt><trkpt lat="43.84348060421782" lon="12.053457796279853"><ele>725.25</ele><time>2026-04-26T08:01:09.895Z</time></trkpt><trkpt lat="43.84352630504067" lon="12.053325362621118"><ele>725.0</ele><time>2026-04-26T08:01:10.895Z</time></trkpt><trkpt lat="43.84361685823572" lon="12.05324977989362"><ele>728.0</ele><time>2026-04-26T08:01:11.895Z</time></trkpt><trkpt lat="43.84371269167466" lon="12.053239440452277"><ele>731.0</ele><time>2026-04-26T08:01:12.895Z</time></trkpt><trkpt lat="43.8438141350976" lon="12.053212278287951"><ele>734.0</ele><time>2026-04-26T08:01:13.895Z</time></trkpt><trkpt lat="43.84392353773844" lon="12.053185147217475"><ele>737.0</ele><time>2026-04-26T08:01:14.895Z</time></trkpt><trkpt lat="43.844032182763385" lon="12.05315410499683"><ele>740.0</ele><time>2026-04-26T08:01:15.895Z</time></trkpt><trkpt lat="43.84413854088315" lon="12.05310428722426"><ele>740.0</ele><time>2026-04-26T08:01:16.895Z</time></trkpt><trkpt lat="43.84422444544093" lon="12.05299683270674"><ele>740.0</ele><time>2026-04-26T08:01:17.895Z</time></trkpt><trkpt lat="43.84430695252087" lon="12.052877803623945"><ele>740.0</ele><time>2026-04-26T08:01:18.895Z</time></trkpt><trkpt lat="43.844362092267765" lon="12.05271310538761"><ele>740.0</ele><time>2026-04-26T08:01:19.895Z</time></trkpt><trkpt lat="43.84439942797086" lon="12.052531921490107"><ele>739.5</ele><time>2026-04-26T08:01:20.895Z</time></trkpt><trkpt lat="43.844420090571035" lon="12.052347163124484"><ele>739.0</ele><time>2026-04-26T08:01:21.894Z</time></trkpt><trkpt lat="43.84445376070284" lon="12.052176473691539"><ele>738.5</ele><time>2026-04-26T08:01:22.894Z</time></trkpt><trkpt lat="43.84449142723437" lon="12.052006979645192"><ele>738.0</ele><time>2026-04-26T08:01:23.894Z</time></trkpt><trkpt lat="43.84454213175484" lon="12.051846719732131"><ele>738.0</ele><time>2026-04-26T08:01:24.894Z</time></trkpt><trkpt lat="43.844626914049606" lon="12.051726491860427"><ele>738.0</ele><time>2026-04-26T08:01:25.894Z</time></trkpt><trkpt lat="43.844729083996306" lon="12.051652794104609"><ele>738.0</ele><time>2026-04-26T08:01:26.894Z</time></trkpt><trkpt lat="43.844845029680336" lon="12.051617673445168"><ele>738.0</ele><time>2026-04-26T08:01:27.894Z</time></trkpt><trkpt lat="43.84499191345368" lon="12.051566971626013"><ele>742.3333333333334</ele><time>2026-04-26T08:01:28.894Z</time></trkpt><trkpt lat="43.84516876510521" lon="12.051509563841298"><ele>746.6666666666667</ele><time>2026-04-26T08:01:29.894Z</time></trkpt><trkpt lat="43.84537492064342" lon="12.051445257918045"><ele>751.0</ele><time>2026-04-26T08:01:30.894Z</time></trkpt><trkpt lat="43.84558531007842" lon="12.051379631160048"><ele>751.0</ele><time>2026-04-26T08:01:31.894Z</time></trkpt><trkpt lat="43.84579165061693" lon="12.051312819866956"><ele>751.0</ele><time>2026-04-26T08:01:32.894Z</time></trkpt><trkpt lat="43.84596372820807" lon="12.051249554935897"><ele>751.0</ele><time>2026-04-26T08:01:33.894Z</time></trkpt><trkpt lat="43.84610195134616" lon="12.051141977710033"><ele>748.6666666666667</ele><time>2026-04-26T08:01:34.894Z</time></trkpt><trkpt lat="43.84624083828291" lon="12.051025191965929"><ele>746.3333333333334</ele><time>2026-04-26T08:01:35.894Z</time></trkpt><trkpt lat="43.84635965123558" lon="12.050865541542606"><ele>744.0</ele><time>2026-04-26T08:01:36.894Z</time></trkpt><trkpt lat="43.8464905124737" lon="12.050745181940258"><ele>747.3333333333334</ele><time>2026-04-26T08:01:37.894Z</time></trkpt><trkpt lat="43.84663088963801" lon="12.050678791907274"><ele>750.6666666666667</ele><time>2026-04-26T08:01:38.894Z</time></trkpt><trkpt lat="43.84680891630112" lon="12.050652564206494"><ele>754.0</ele><time>2026-04-26T08:01:39.894Z</time></trkpt><trkpt lat="43.84700617644065" lon="12.050632944356684"><ele>754.0</ele><time>2026-04-26T08:01:40.894Z</time></trkpt><trkpt lat="43.8472114439212" lon="12.050615976587673"><ele>754.0</ele><time>2026-04-26T08:01:41.894Z</time></trkpt><trkpt lat="43.847420014969174" lon="12.050598735747185"><ele>754.0</ele><time>2026-04-26T08:01:42.894Z</time></trkpt><trkpt lat="43.8476274249426" lon="12.05058166146614"><ele>754.0</ele><time>2026-04-26T08:01:43.894Z</time></trkpt><trkpt lat="43.84782444370879" lon="12.050570168577686"><ele>754.0</ele><time>2026-04-26T08:01:44.894Z</time></trkpt><trkpt lat="43.84801615499729" lon="12.05057514710094"><ele>754.0</ele><time>2026-04-26T08:01:45.894Z</time></trkpt><trkpt lat="43.8482157792864" lon="12.050607362278432"><ele>754.0</ele><time>2026-04-26T08:01:46.894Z</time></trkpt><trkpt lat="43.84842725029611" lon="12.050652064955758"><ele>754.0</ele><time>2026-04-26T08:01:47.894Z</time></trkpt><trkpt lat="43.84864695200687" lon="12.050698507438256"><ele>754.0</ele><time>2026-04-26T08:01:48.894Z</time></trkpt><trkpt lat="43.84884080027133" lon="12.050744658231643"><ele>754.3333333333334</ele><time>2026-04-26T08:01:49.894Z</time></trkpt><trkpt lat="43.849013780555175" lon="12.050792339778168"><ele>754.6666666666666</ele><time>2026-04-26T08:01:50.894Z</time></trkpt><trkpt lat="43.84916184711282" lon="12.050851911123416"><ele>755.0</ele><time>2026-04-26T08:01:51.894Z</time></trkpt><trkpt lat="43.84930000206268" lon="12.050954300492592"><ele>755.0</ele><time>2026-04-26T08:01:52.894Z</time></trkpt><trkpt lat="43.84945393077306" lon="12.05110588609942"><ele>755.0</ele><time>2026-04-26T08:01:53.894Z</time></trkpt><trkpt lat="43.84963504482257" lon="12.051272226591706"><ele>755.0</ele><time>2026-04-26T08:01:54.894Z</time></trkpt><trkpt lat="43.84981329614406" lon="12.051417562981968"><ele>755.0</ele><time>2026-04-26T08:01:55.894Z</time></trkpt><trkpt lat="43.85001743358668" lon="12.05151500892721"><ele>755.0</ele><time>2026-04-26T08:01:56.894Z</time></trkpt><trkpt lat="43.85021562974441" lon="12.051626186859503"><ele>755.0</ele><time>2026-04-26T08:01:57.894Z</time></trkpt><trkpt lat="43.85037251402151" lon="12.051813087832118"><ele>753.6666666666666</ele><time>2026-04-26T08:01:58.894Z</time></trkpt><trkpt lat="43.85051653204401" lon="12.05198751560755"><ele>752.3333333333334</ele><time>2026-04-26T08:01:59.894Z</time></trkpt><trkpt lat="43.85065773907614" lon="12.052137418707439"><ele>751.0</ele><time>2026-04-26T08:02:00.894Z</time></trkpt><trkpt lat="43.85080932878184" lon="12.052222654315047"><ele>757.3333333333334</ele><time>2026-04-26T08:02:01.894Z</time></trkpt><trkpt lat="43.850966290167705" lon="12.052304919203698"><ele>763.6666666666667</ele><time>2026-04-26T08:02:02.894Z</time></trkpt><trkpt lat="43.85114845747139" lon="12.052355722716303"><ele>770.0</ele><time>2026-04-26T08:02:03.894Z</time></trkpt><trkpt lat="43.85136456732724" lon="12.052359536601013"><ele>770.0</ele><time>2026-04-26T08:02:04.894Z</time></trkpt><trkpt lat="43.85159164472582" lon="12.05235313575372"><ele>770.0</ele><time>2026-04-26T08:02:05.894Z</time></trkpt><trkpt lat="43.8518247263087" lon="12.052369945296796"><ele>770.0</ele><time>2026-04-26T08:02:06.894Z</time></trkpt><trkpt lat="43.85202576300543" lon="12.05237320678191"><ele>770.0</ele><time>2026-04-26T08:02:07.894Z</time></trkpt><trkpt lat="43.85220382180462" lon="12.052364263702732"><ele>770.0</ele><time>2026-04-26T08:02:08.894Z</time></trkpt><trkpt lat="43.85235855163953" lon="12.052321344480445"><ele>770.0</ele><time>2026-04-26T08:02:09.894Z</time></trkpt><trkpt lat="43.85250951376049" lon="12.052260673786678"><ele>770.0</ele><time>2026-04-26T08:02:10.894Z</time></trkpt><trkpt lat="43.85265488391261" lon="12.052162301952583"><ele>770.0</ele><time>2026-04-26T08:02:11.894Z</time></trkpt><trkpt lat="43.85282158069246" lon="12.052082010011832"><ele>773.3333333333334</ele><time>2026-04-26T08:02:12.894Z</time></trkpt><trkpt lat="43.85300108065271" lon="12.052037996331915"><ele>776.6666666666667</ele><time>2026-04-26T08:02:13.894Z</time></trkpt><trkpt lat="43.853171528400644" lon="12.052006649034384"><ele>780.0</ele><time>2026-04-26T08:02:14.894Z</time></trkpt><trkpt lat="43.8533413102695" lon="12.052002205519432"><ele>783.3333333333333</ele><time>2026-04-26T08:02:15.894Z</time></trkpt><trkpt lat="43.85350669224988" lon="12.05204644434308"><ele>786.6666666666666</ele><time>2026-04-26T08:02:16.894Z</time></trkpt><trkpt lat="43.85368426077547" lon="12.052130075384909"><ele>790.0</ele><time>2026-04-26T08:02:17.894Z</time></trkpt><trkpt lat="43.85387630929737" lon="12.052204616560388"><ele>790.0</ele><time>2026-04-26T08:02:18.894Z</time></trkpt><trkpt lat="43.85406041906895" lon="12.052230135957126"><ele>790.0</ele><time>2026-04-26T08:02:19.894Z</time></trkpt><trkpt lat="43.85424213290779" lon="12.05226859722032"><ele>790.0</ele><time>2026-04-26T08:02:20.894Z</time></trkpt><trkpt lat="43.85442806674866" lon="12.052322661515763"><ele>794.3333333333333</ele><time>2026-04-26T08:02:21.894Z</time></trkpt><trkpt lat="43.85458968141411" lon="12.052432554008451"><ele>798.6666666666667</ele><time>2026-04-26T08:02:22.894Z</time></trkpt><trkpt lat="43.854747811695326" lon="12.0525227340112"><ele>803.0</ele><time>2026-04-26T08:02:23.894Z</time></trkpt><trkpt lat="43.85491759187395" lon="12.052570314731604"><ele>796.6666666666667</ele><time>2026-04-26T08:02:24.894Z</time></trkpt><trkpt lat="43.8550991684115" lon="12.052573345176645"><ele>790.3333333333333</ele><time>2026-04-26T08:02:25.894Z</time></trkpt><trkpt lat="43.85528631671841" lon="12.052566134809304"><ele>784.0</ele><time>2026-04-26T08:02:26.894Z</time></trkpt><trkpt lat="43.85545896688527" lon="12.052559674285165"><ele>784.0</ele><time>2026-04-26T08:02:27.894Z</time></trkpt><trkpt lat="43.85563360082243" lon="12.0525842533044"><ele>784.0</ele><time>2026-04-26T08:02:28.894Z</time></trkpt><trkpt lat="43.85578847879614" lon="12.052672277316862"><ele>784.0</ele><time>2026-04-26T08:02:29.893Z</time></trkpt><trkpt lat="43.85594516886131" lon="12.052759728137664"><ele>785.75</ele><time>2026-04-26T08:02:30.893Z</time></trkpt><trkpt lat="43.856097636864156" lon="12.052857890610584"><ele>787.5</ele><time>2026-04-26T08:02:31.893Z</time></trkpt><trkpt lat="43.85622993102575" lon="12.05293974834437"><ele>789.25</ele><time>2026-04-26T08:02:32.893Z</time></trkpt><trkpt lat="43.85634701916345" lon="12.052983302824398"><ele>791.0</ele><time>2026-04-26T08:02:33.893Z</time></trkpt><trkpt lat="43.85645429153874" lon="12.05296165671899"><ele>791.0</ele><time>2026-04-26T08:02:34.893Z</time></trkpt><trkpt lat="43.85653420560099" lon="12.052860284568887"><ele>791.0</ele><time>2026-04-26T08:02:35.893Z</time></trkpt><trkpt lat="43.85657431040768" lon="12.05270334275137"><ele>791.0</ele><time>2026-04-26T08:02:36.893Z</time></trkpt><trkpt lat="43.856644341057425" lon="12.052557311204014"><ele>791.0</ele><time>2026-04-26T08:02:37.893Z</time></trkpt><trkpt lat="43.85671737935762" lon="12.052412667278906"><ele>797.5</ele><time>2026-04-26T08:02:38.893Z</time></trkpt><trkpt lat="43.856843414932385" lon="12.052361434318717"><ele>804.0</ele><time>2026-04-26T08:02:39.893Z</time></trkpt><trkpt lat="43.856989142816346" lon="12.052380842415499"><ele>810.5</ele><time>2026-04-26T08:02:40.893Z</time></trkpt><trkpt lat="43.85714798022714" lon="12.052353569820694"><ele>817.0</ele><time>2026-04-26T08:02:41.893Z</time></trkpt><trkpt lat="43.857303071778496" lon="12.052356144123122"><ele>817.0</ele><time>2026-04-26T08:02:42.893Z</time></trkpt><trkpt lat="43.85743793626156" lon="12.05239149889849"><ele>817.0</ele><time>2026-04-26T08:02:43.893Z</time></trkpt><trkpt lat="43.85754001887349" lon="12.052461775212205"><ele>817.0</ele><time>2026-04-26T08:02:44.893Z</time></trkpt><trkpt lat="43.85761638179446" lon="12.052587036331653"><ele>817.0</ele><time>2026-04-26T08:02:45.893Z</time></trkpt><trkpt lat="43.857684432564895" lon="12.052771846206808"><ele>816.6666666666666</ele><time>2026-04-26T08:02:46.893Z</time></trkpt><trkpt lat="43.85773875045012" lon="12.052995225349584"><ele>816.3333333333333</ele><time>2026-04-26T08:02:47.893Z</time></trkpt><trkpt lat="43.857810169383825" lon="12.053232579557251"><ele>816.0</ele><time>2026-04-26T08:02:48.893Z</time></trkpt><trkpt lat="43.85786165975281" lon="12.053483393707113"><ele>815.5</ele><time>2026-04-26T08:02:49.893Z</time></trkpt><trkpt lat="43.85791546296223" lon="12.053693064289915"><ele>815.0</ele><time>2026-04-26T08:02:50.893Z</time></trkpt><trkpt lat="43.85796271229334" lon="12.053873826651811"><ele>814.5</ele><time>2026-04-26T08:02:51.893Z</time></trkpt><trkpt lat="43.8580367356468" lon="12.05403376628451"><ele>814.0</ele><time>2026-04-26T08:02:52.893Z</time></trkpt><trkpt lat="43.858141339440195" lon="12.054177716170164"><ele>811.0</ele><time>2026-04-26T08:02:53.893Z</time></trkpt><trkpt lat="43.858297210476344" lon="12.054267554684294"><ele>808.0</ele><time>2026-04-26T08:02:54.893Z</time></trkpt><trkpt lat="43.8584439972952" lon="12.054348813343335"><ele>805.0</ele><time>2026-04-26T08:02:55.893Z</time></trkpt><trkpt lat="43.85855850479637" lon="12.054413785277935"><ele>808.0</ele><time>2026-04-26T08:02:56.893Z</time></trkpt><trkpt lat="43.858651047803946" lon="12.054438011483324"><ele>811.0</ele><time>2026-04-26T08:02:57.893Z</time></trkpt><trkpt lat="43.85872654140363" lon="12.054394703446738"><ele>814.0</ele><time>2026-04-26T08:02:58.893Z</time></trkpt><trkpt lat="43.858790540814745" lon="12.054322307320847"><ele>817.0</ele><time>2026-04-26T08:02:59.893Z</time></trkpt><trkpt lat="43.85878180058603" lon="12.054182503605734"><ele>820.0</ele><time>2026-04-26T08:03:00.893Z</time></trkpt><trkpt lat="43.858729155139144" lon="12.054023118293404"><ele>820.0</ele><time>2026-04-26T08:03:01.893Z</time></trkpt><trkpt lat="43.85862624546811" lon="12.053865610258283"><ele>820.0</ele><time>2026-04-26T08:03:02.893Z</time></trkpt><trkpt lat="43.858516396520216" lon="12.0537019745931"><ele>820.0</ele><time>2026-04-26T08:03:03.893Z</time></trkpt><trkpt lat="43.85843128362234" lon="12.053529622354658"><ele>819.0</ele><time>2026-04-26T08:03:04.893Z</time></trkpt><trkpt lat="43.85837365028719" lon="12.053347453704198"><ele>818.0</ele><time>2026-04-26T08:03:05.893Z</time></trkpt><trkpt lat="43.8583782458603" lon="12.05314175893266"><ele>817.0</ele><time>2026-04-26T08:03:06.893Z</time></trkpt><trkpt lat="43.85838609758363" lon="12.052925522910861"><ele>816.0</ele><time>2026-04-26T08:03:07.893Z</time></trkpt><trkpt lat="43.85839593097873" lon="12.05270172747222"><ele>816.0</ele><time>2026-04-26T08:03:08.893Z</time></trkpt><trkpt lat="43.8583933331092" lon="12.052459716232566"><ele>816.0</ele><time>2026-04-26T08:03:09.893Z</time></trkpt><trkpt lat="43.858399218752034" lon="12.052226366581433"><ele>816.0</ele><time>2026-04-26T08:03:10.893Z</time></trkpt><trkpt lat="43.85841361429739" lon="12.052003572802489"><ele>817.5</ele><time>2026-04-26T08:03:11.893Z</time></trkpt><trkpt lat="43.85842681712925" lon="12.051796708280193"><ele>819.0</ele><time>2026-04-26T08:03:12.893Z</time></trkpt><trkpt lat="43.85844094198291" lon="12.051616982508337"><ele>820.5</ele><time>2026-04-26T08:03:13.893Z</time></trkpt><trkpt lat="43.858487691318" lon="12.051456265061196"><ele>822.0</ele><time>2026-04-26T08:03:14.892Z</time></trkpt><trkpt lat="43.858533285143274" lon="12.05132154708476"><ele>816.0</ele><time>2026-04-26T08:03:15.892Z</time></trkpt><trkpt lat="43.8585676508058" lon="12.051166928408541"><ele>810.0</ele><time>2026-04-26T08:03:16.892Z</time></trkpt><trkpt lat="43.8585799453309" lon="12.051010274553896"><ele>804.0</ele><time>2026-04-26T08:03:17.892Z</time></trkpt><trkpt lat="43.8585626035751" lon="12.05084386480533"><ele>798.0</ele><time>2026-04-26T08:03:18.893Z</time></trkpt><trkpt lat="43.858532335274795" lon="12.050674881769329"><ele>796.5</ele><time>2026-04-26T08:03:19.893Z</time></trkpt><trkpt lat="43.85845355939829" lon="12.050501643941143"><ele>795.0</ele><time>2026-04-26T08:03:20.892Z</time></trkpt><trkpt lat="43.85836079589915" lon="12.050330562539845"><ele>793.5</ele><time>2026-04-26T08:03:21.892Z</time></trkpt><trkpt lat="43.85829568187989" lon="12.050177119512506"><ele>792.0</ele><time>2026-04-26T08:03:22.892Z</time></trkpt><trkpt lat="43.85826793385108" lon="12.050011916858736"><ele>802.6666666666667</ele><time>2026-04-26T08:03:23.893Z</time></trkpt><trkpt lat="43.8583287271739" lon="12.04984108782321"><ele>813.3333333333334</ele><time>2026-04-26T08:03:24.892Z</time></trkpt><trkpt lat="43.858387725916764" lon="12.049639524666498"><ele>824.0</ele><time>2026-04-26T08:03:25.892Z</time></trkpt><trkpt lat="43.858450413507796" lon="12.049409735479378"><ele>815.3333333333334</ele><time>2026-04-26T08:03:26.892Z</time></trkpt><trkpt lat="43.85851063694295" lon="12.049187347250454"><ele>806.6666666666667</ele><time>2026-04-26T08:03:27.892Z</time></trkpt><trkpt lat="43.85856994872322" lon="12.048962204429685"><ele>798.0</ele><time>2026-04-26T08:03:28.892Z</time></trkpt><trkpt lat="43.858611906237385" lon="12.048725540011642"><ele>798.0</ele><time>2026-04-26T08:03:29.892Z</time></trkpt><trkpt lat="43.858612205975106" lon="12.048490667506966"><ele>798.0</ele><time>2026-04-26T08:03:30.892Z</time></trkpt><trkpt lat="43.85859686158759" lon="12.048252550516372"><ele>798.0</ele><time>2026-04-26T08:03:31.892Z</time></trkpt><trkpt lat="43.85855890845572" lon="12.048018116560431"><ele>798.3333333333333</ele><time>2026-04-26T08:03:32.892Z</time></trkpt><trkpt lat="43.858547821411804" lon="12.047783178841522"><ele>798.6666666666666</ele><time>2026-04-26T08:03:33.892Z</time></trkpt><trkpt lat="43.85855555681848" lon="12.047561677960323"><ele>799.0</ele><time>2026-04-26T08:03:34.892Z</time></trkpt><trkpt lat="43.85855930368146" lon="12.04733490641794"><ele>800.3333333333333</ele><time>2026-04-26T08:03:35.892Z</time></trkpt><trkpt lat="43.85862443729959" lon="12.04711732340199"><ele>801.6666666666667</ele><time>2026-04-26T08:03:36.892Z</time></trkpt><trkpt lat="43.85871992108273" lon="12.04691037283827"><ele>803.0</ele><time>2026-04-26T08:03:37.892Z</time></trkpt><trkpt lat="43.858802810926484" lon="12.046740630288772"><ele>800.75</ele><time>2026-04-26T08:03:38.892Z</time></trkpt><trkpt lat="43.8588438392998" lon="12.046587676472377"><ele>798.5</ele><time>2026-04-26T08:03:39.892Z</time></trkpt><trkpt lat="43.85882166035806" lon="12.046462860607505"><ele>796.25</ele><time>2026-04-26T08:03:40.892Z</time></trkpt><trkpt lat="43.85875070262614" lon="12.046323674317808"><ele>794.0</ele><time>2026-04-26T08:03:41.892Z</time></trkpt><trkpt lat="43.85865946098674" lon="12.046177257304825"><ele>794.0</ele><time>2026-04-26T08:03:42.892Z</time></trkpt><trkpt lat="43.858559491494574" lon="12.04602726402453"><ele>794.0</ele><time>2026-04-26T08:03:43.892Z</time></trkpt><trkpt lat="43.858448196368954" lon="12.045868082468242"><ele>794.0</ele><time>2026-04-26T08:03:44.892Z</time></trkpt><trkpt lat="43.85835045270595" lon="12.045703871725845"><ele>801.0</ele><time>2026-04-26T08:03:45.892Z</time></trkpt><trkpt lat="43.858273778613956" lon="12.045529099828178"><ele>808.0</ele><time>2026-04-26T08:03:46.892Z</time></trkpt><trkpt lat="43.85823607933255" lon="12.045318567228547"><ele>815.0</ele><time>2026-04-26T08:03:47.892Z</time></trkpt><trkpt lat="43.85823502421629" lon="12.045071813671099"><ele>814.6666666666667</ele><time>2026-04-26T08:03:48.891Z</time></trkpt><trkpt lat="43.85822696293661" lon="12.044829081567862"><ele>814.3333333333333</ele><time>2026-04-26T08:03:49.891Z</time></trkpt><trkpt lat="43.858209858990875" lon="12.044580004317613"><ele>814.0</ele><time>2026-04-26T08:03:50.891Z</time></trkpt><trkpt lat="43.858182680671725" lon="12.044327881277052"><ele>814.0</ele><time>2026-04-26T08:03:51.891Z</time></trkpt><trkpt lat="43.85815031052399" lon="12.044064367511112"><ele>814.0</ele><time>2026-04-26T08:03:52.891Z</time></trkpt><trkpt lat="43.85812448710347" lon="12.043801628043393"><ele>814.0</ele><time>2026-04-26T08:03:53.891Z</time></trkpt><trkpt lat="43.85810269475464" lon="12.043544365022909"><ele>814.0</ele><time>2026-04-26T08:03:54.891Z</time></trkpt><trkpt lat="43.85808924009139" lon="12.043321502154543"><ele>814.0</ele><time>2026-04-26T08:03:55.89Z</time></trkpt><trkpt lat="43.85808465148567" lon="12.043134455018086"><ele>814.0</ele><time>2026-04-26T08:03:56.89Z</time></trkpt><trkpt lat="43.858124698620315" lon="12.04295835688316"><ele>814.0</ele><time>2026-04-26T08:03:57.89Z</time></trkpt><trkpt lat="43.85819142103507" lon="12.042784118369998"><ele>815.3333333333333</ele><time>2026-04-26T08:03:58.89Z</time></trkpt><trkpt lat="43.858260426583655" lon="12.042571031970922"><ele>816.6666666666667</ele><time>2026-04-26T08:03:59.89Z</time></trkpt><trkpt lat="43.85832821373338" lon="12.0423644919733"><ele>818.0</ele><time>2026-04-26T08:04:00.89Z</time></trkpt><trkpt lat="43.8583974744399" lon="12.04214974424105"><ele>818.6666666666667</ele><time>2026-04-26T08:04:01.89Z</time></trkpt><trkpt lat="43.85847073743023" lon="12.041945282369"><ele>819.3333333333333</ele><time>2026-04-26T08:04:02.89Z</time></trkpt><trkpt lat="43.858574194703706" lon="12.041758571508737"><ele>820.0</ele><time>2026-04-26T08:04:03.89Z</time></trkpt><trkpt lat="43.85868803258373" lon="12.041602372126684"><ele>820.0</ele><time>2026-04-26T08:04:04.89Z</time></trkpt><trkpt lat="43.858789636372116" lon="12.041465718402746"><ele>820.0</ele><time>2026-04-26T08:04:05.889Z</time></trkpt><trkpt lat="43.85888038445297" lon="12.041310469022646"><ele>820.0</ele><time>2026-04-26T08:04:06.889Z</time></trkpt><trkpt lat="43.85895430148232" lon="12.041156863954244"><ele>820.0</ele><time>2026-04-26T08:04:07.889Z</time></trkpt><trkpt lat="43.8590305913905" lon="12.040975999332847"><ele>821.0</ele><time>2026-04-26T08:04:08.889Z</time></trkpt><trkpt lat="43.8591074155779" lon="12.040790575557084"><ele>822.0</ele><time>2026-04-26T08:04:09.889Z</time></trkpt><trkpt lat="43.85918596589783" lon="12.04060245939811"><ele>823.0</ele><time>2026-04-26T08:04:10.889Z</time></trkpt><trkpt lat="43.85926121716997" lon="12.040425498827105"><ele>822.25</ele><time>2026-04-26T08:04:11.889Z</time></trkpt><trkpt lat="43.85933333145847" lon="12.040255915187217"><ele>821.5</ele><time>2026-04-26T08:04:12.889Z</time></trkpt><trkpt lat="43.85940503434303" lon="12.040088224219497"><ele>820.75</ele><time>2026-04-26T08:04:13.889Z</time></trkpt><trkpt lat="43.85947861948292" lon="12.039917244731896"><ele>820.0</ele><time>2026-04-26T08:04:14.889Z</time></trkpt><trkpt lat="43.8595470109115" lon="12.039758333006041"><ele>818.25</ele><time>2026-04-26T08:04:15.889Z</time></trkpt><trkpt lat="43.85960715550418" lon="12.039607272566254"><ele>816.5</ele><time>2026-04-26T08:04:16.889Z</time></trkpt><trkpt lat="43.85964324874748" lon="12.039460258881691"><ele>814.75</ele><time>2026-04-26T08:04:17.889Z</time></trkpt><trkpt lat="43.85962704250294" lon="12.039301046167946"><ele>813.0</ele><time>2026-04-26T08:04:18.889Z</time></trkpt><trkpt lat="43.85958745749121" lon="12.03914244561551"><ele>809.6666666666667</ele><time>2026-04-26T08:04:19.889Z</time></trkpt><trkpt lat="43.85949441488823" lon="12.038982015942086"><ele>806.3333333333334</ele><time>2026-04-26T08:04:20.889Z</time></trkpt><trkpt lat="43.859392454401075" lon="12.038841571107275"><ele>803.0</ele><time>2026-04-26T08:04:21.889Z</time></trkpt><trkpt lat="43.8592876999931" lon="12.038672234330015"><ele>807.0</ele><time>2026-04-26T08:04:22.889Z</time></trkpt><trkpt lat="43.85918630134183" lon="12.038464641037455"><ele>811.0</ele><time>2026-04-26T08:04:23.889Z</time></trkpt><trkpt lat="43.85910483974581" lon="12.038254710576147"><ele>815.0</ele><time>2026-04-26T08:04:24.889Z</time></trkpt><trkpt lat="43.859075879188374" lon="12.038034657246023"><ele>815.0</ele><time>2026-04-26T08:04:25.889Z</time></trkpt><trkpt lat="43.85904640432391" lon="12.037822150937625"><ele>815.0</ele><time>2026-04-26T08:04:26.888Z</time></trkpt><trkpt lat="43.859033139670096" lon="12.037588414328136"><ele>815.0</ele><time>2026-04-26T08:04:27.888Z</time></trkpt><trkpt lat="43.859043170882266" lon="12.037344012767537"><ele>814.3333333333334</ele><time>2026-04-26T08:04:28.888Z</time></trkpt><trkpt lat="43.85906124552069" lon="12.03711348322264"><ele>813.6666666666667</ele><time>2026-04-26T08:04:29.888Z</time></trkpt><trkpt lat="43.85909264515061" lon="12.036878552078024"><ele>813.0</ele><time>2026-04-26T08:04:30.888Z</time></trkpt><trkpt lat="43.85913201343337" lon="12.03666544981143"><ele>815.25</ele><time>2026-04-26T08:04:31.888Z</time></trkpt><trkpt lat="43.859174015080214" lon="12.036454195100335"><ele>817.5</ele><time>2026-04-26T08:04:32.888Z</time></trkpt><trkpt lat="43.85921272277282" lon="12.036259508011657"><ele>819.75</ele><time>2026-04-26T08:04:33.888Z</time></trkpt><trkpt lat="43.85924980284989" lon="12.036072027100758"><ele>822.0</ele><time>2026-04-26T08:04:34.888Z</time></trkpt><trkpt lat="43.859283602038616" lon="12.035900700197246"><ele>816.0</ele><time>2026-04-26T08:04:35.888Z</time></trkpt><trkpt lat="43.85931695815272" lon="12.03573508318443"><ele>810.0</ele><time>2026-04-26T08:04:36.888Z</time></trkpt><trkpt lat="43.85934976661408" lon="12.035574571610548"><ele>804.0</ele><time>2026-04-26T08:04:37.888Z</time></trkpt><trkpt lat="43.85936611773155" lon="12.035414794988327"><ele>798.0</ele><time>2026-04-26T08:04:38.888Z</time></trkpt><trkpt lat="43.8594128678268" lon="12.035264864089617"><ele>798.0</ele><time>2026-04-26T08:04:39.888Z</time></trkpt><trkpt lat="43.859437901197715" lon="12.035105932209568"><ele>798.0</ele><time>2026-04-26T08:04:40.888Z</time></trkpt><trkpt lat="43.85946575779448" lon="12.034946656184028"><ele>798.0</ele><time>2026-04-26T08:04:41.888Z</time></trkpt><trkpt lat="43.859491619318334" lon="12.034802938161915"><ele>798.0</ele><time>2026-04-26T08:04:42.888Z</time></trkpt><trkpt lat="43.8595356673099" lon="12.03467348271569"><ele>798.0</ele><time>2026-04-26T08:04:43.888Z</time></trkpt><trkpt lat="43.859559406332714" lon="12.034543968826796"><ele>802.2</ele><time>2026-04-26T08:04:44.888Z</time></trkpt><trkpt lat="43.859596817039275" lon="12.034423119561826"><ele>806.4</ele><time>2026-04-26T08:04:45.888Z</time></trkpt><trkpt lat="43.859672287137975" lon="12.0343199753662"><ele>810.6</ele><time>2026-04-26T08:04:46.888Z</time></trkpt><trkpt lat="43.859755509468286" lon="12.03422771344584"><ele>814.8000000000001</ele><time>2026-04-26T08:04:47.888Z</time></trkpt><trkpt lat="43.859852677477605" lon="12.034170375717165"><ele>819.0</ele><time>2026-04-26T08:04:48.888Z</time></trkpt><trkpt lat="43.85996564893025" lon="12.03415557690538"><ele>819.0</ele><time>2026-04-26T08:04:49.888Z</time></trkpt><trkpt lat="43.86008566394395" lon="12.034149491861726"><ele>819.0</ele><time>2026-04-26T08:04:50.888Z</time></trkpt><trkpt lat="43.860204845228665" lon="12.03414569215232"><ele>819.0</ele><time>2026-04-26T08:04:51.888Z</time></trkpt><trkpt lat="43.86032632824777" lon="12.034163810724861"><ele>819.0</ele><time>2026-04-26T08:04:52.888Z</time></trkpt><trkpt lat="43.86043946946935" lon="12.034211161378002"><ele>821.0</ele><time>2026-04-26T08:04:53.888Z</time></trkpt><trkpt lat="43.86053920652692" lon="12.034281524577356"><ele>823.0</ele><time>2026-04-26T08:04:54.888Z</time></trkpt><trkpt lat="43.86063526305323" lon="12.034362763491984"><ele>825.0</ele><time>2026-04-26T08:04:55.888Z</time></trkpt><trkpt lat="43.860737632411116" lon="12.034448890694753"><ele>827.0</ele><time>2026-04-26T08:04:56.888Z</time></trkpt><trkpt lat="43.86083564818171" lon="12.034519597126602"><ele>825.75</ele><time>2026-04-26T08:04:57.888Z</time></trkpt><trkpt lat="43.860951525369394" lon="12.0345838434931"><ele>824.5</ele><time>2026-04-26T08:04:58.888Z</time></trkpt><trkpt lat="43.86107074693257" lon="12.03462688278318"><ele>823.25</ele><time>2026-04-26T08:04:59.888Z</time></trkpt><trkpt lat="43.861196311304276" lon="12.03465306218166"><ele>822.0</ele><time>2026-04-26T08:05:00.888Z</time></trkpt><trkpt lat="43.86132536208263" lon="12.034667440508771"><ele>822.0</ele><time>2026-04-26T08:05:01.888Z</time></trkpt><trkpt lat="43.86144252422099" lon="12.034674155524536"><ele>822.0</ele><time>2026-04-26T08:05:02.888Z</time></trkpt><trkpt lat="43.86156337351282" lon="12.034665723258357"><ele>822.0</ele><time>2026-04-26T08:05:03.888Z</time></trkpt><trkpt lat="43.86167924377177" lon="12.03462040504191"><ele>822.0</ele><time>2026-04-26T08:05:04.888Z</time></trkpt><trkpt lat="43.86178476736091" lon="12.034544413899143"><ele>820.25</ele><time>2026-04-26T08:05:05.888Z</time></trkpt><trkpt lat="43.8619109875669" lon="12.034498269508447"><ele>818.5</ele><time>2026-04-26T08:05:06.888Z</time></trkpt><trkpt lat="43.862064562412606" lon="12.034493935005976"><ele>816.75</ele><time>2026-04-26T08:05:07.888Z</time></trkpt><trkpt lat="43.862222803418504" lon="12.034504664681394"><ele>815.0</ele><time>2026-04-26T08:05:08.888Z</time></trkpt><trkpt lat="43.8623736350689" lon="12.03451398196766"><ele>815.0</ele><time>2026-04-26T08:05:09.888Z</time></trkpt><trkpt lat="43.862546025593" lon="12.034510555618676"><ele>815.0</ele><time>2026-04-26T08:05:10.888Z</time></trkpt><trkpt lat="43.862708235971816" lon="12.034491555646479"><ele>815.0</ele><time>2026-04-26T08:05:11.888Z</time></trkpt><trkpt lat="43.86289707313368" lon="12.03446140322014"><ele>813.0</ele><time>2026-04-26T08:05:12.888Z</time></trkpt><trkpt lat="43.86308642427475" lon="12.03443111483794"><ele>811.0</ele><time>2026-04-26T08:05:13.888Z</time></trkpt><trkpt lat="43.863286184200426" lon="12.034402771531846"><ele>809.0</ele><time>2026-04-26T08:05:14.888Z</time></trkpt><trkpt lat="43.86347405380976" lon="12.034368525904233"><ele>806.0</ele><time>2026-04-26T08:05:15.888Z</time></trkpt><trkpt lat="43.86364457916764" lon="12.03434062207935"><ele>803.0</ele><time>2026-04-26T08:05:16.888Z</time></trkpt><trkpt lat="43.86380982913815" lon="12.034330037411522"><ele>800.0</ele><time>2026-04-26T08:05:17.888Z</time></trkpt><trkpt lat="43.86395792765135" lon="12.03438677527123"><ele>800.0</ele><time>2026-04-26T08:05:18.888Z</time></trkpt><trkpt lat="43.86408611598692" lon="12.034496762865775"><ele>800.0</ele><time>2026-04-26T08:05:19.888Z</time></trkpt><trkpt lat="43.8642265519888" lon="12.034648080443102"><ele>800.0</ele><time>2026-04-26T08:05:20.887Z</time></trkpt><trkpt lat="43.86437526936909" lon="12.03480625684741"><ele>796.3333333333334</ele><time>2026-04-26T08:05:21.887Z</time></trkpt><trkpt lat="43.86452726845177" lon="12.034956890962345"><ele>792.6666666666667</ele><time>2026-04-26T08:05:22.887Z</time></trkpt><trkpt lat="43.86468418933566" lon="12.03507287796244"><ele>789.0</ele><time>2026-04-26T08:05:23.887Z</time></trkpt><trkpt lat="43.86482651842739" lon="12.035183192958176"><ele>788.6</ele><time>2026-04-26T08:05:24.887Z</time></trkpt><trkpt lat="43.864950129647184" lon="12.035284601635455"><ele>788.2</ele><time>2026-04-26T08:05:25.887Z</time></trkpt><trkpt lat="43.865063294534124" lon="12.035354296575271"><ele>787.8000000000001</ele><time>2026-04-26T08:05:26.887Z</time></trkpt><trkpt lat="43.86515549368808" lon="12.035379848333426"><ele>787.4000000000001</ele><time>2026-04-26T08:05:27.887Z</time></trkpt><trkpt lat="43.86523940459736" lon="12.035344052931046"><ele>787.0</ele><time>2026-04-26T08:05:28.887Z</time></trkpt><trkpt lat="43.86530235179051" lon="12.035239644394089"><ele>781.25</ele><time>2026-04-26T08:05:29.887Z</time></trkpt><trkpt lat="43.86531945161171" lon="12.035107170642451"><ele>775.5</ele><time>2026-04-26T08:05:30.887Z</time></trkpt><trkpt lat="43.86529435145665" lon="12.03493205732592"><ele>769.75</ele><time>2026-04-26T08:05:31.887Z</time></trkpt><trkpt lat="43.865250568632845" lon="12.034767649450531"><ele>764.0</ele><time>2026-04-26T08:05:32.887Z</time></trkpt><trkpt lat="43.86519547872332" lon="12.034590795530235"><ele>765.0</ele><time>2026-04-26T08:05:33.886Z</time></trkpt><trkpt lat="43.8651426663746" lon="12.034399252471598"><ele>766.0</ele><time>2026-04-26T08:05:34.886Z</time></trkpt><trkpt lat="43.8651305208938" lon="12.034176257061283"><ele>767.0</ele><time>2026-04-26T08:05:35.886Z</time></trkpt><trkpt lat="43.86515466489407" lon="12.03394087548978"><ele>767.0</ele><time>2026-04-26T08:05:36.886Z</time></trkpt><trkpt lat="43.86519171274957" lon="12.033716028963141"><ele>767.0</ele><time>2026-04-26T08:05:37.886Z</time></trkpt><trkpt lat="43.86523747949229" lon="12.033477662420594"><ele>767.0</ele><time>2026-04-26T08:05:38.886Z</time></trkpt><trkpt lat="43.86526581025134" lon="12.033232301068573"><ele>769.6666666666666</ele><time>2026-04-26T08:05:39.886Z</time></trkpt><trkpt lat="43.865303514396444" lon="12.032990213269361"><ele>772.3333333333333</ele><time>2026-04-26T08:05:40.886Z</time></trkpt><trkpt lat="43.865338492924984" lon="12.032758539780685"><ele>775.0</ele><time>2026-04-26T08:05:41.886Z</time></trkpt><trkpt lat="43.86537465566885" lon="12.03254224807384"><ele>776.6666666666666</ele><time>2026-04-26T08:05:42.886Z</time></trkpt><trkpt lat="43.86539859303241" lon="12.032326285534918"><ele>778.3333333333333</ele><time>2026-04-26T08:05:43.886Z</time></trkpt><trkpt lat="43.86543212397229" lon="12.032108713943963"><ele>780.0</ele><time>2026-04-26T08:05:44.886Z</time></trkpt><trkpt lat="43.86550825071105" lon="12.031914703189306"><ele>780.0</ele><time>2026-04-26T08:05:45.886Z</time></trkpt><trkpt lat="43.86558837805119" lon="12.0317301858883"><ele>780.0</ele><time>2026-04-26T08:05:46.886Z</time></trkpt><trkpt lat="43.865706691131834" lon="12.031600344169869"><ele>780.0</ele><time>2026-04-26T08:05:47.886Z</time></trkpt><trkpt lat="43.865838093344586" lon="12.031482510078533"><ele>775.5</ele><time>2026-04-26T08:05:48.886Z</time></trkpt><trkpt lat="43.8659880510527" lon="12.0313572310639"><ele>771.0</ele><time>2026-04-26T08:05:49.886Z</time></trkpt><trkpt lat="43.86627813771702" lon="12.031130484498235"><ele>771.0</ele><time>2026-04-26T08:05:51.886Z</time></trkpt><trkpt lat="43.86640965055392" lon="12.031028419635703"><ele>771.0</ele><time>2026-04-26T08:05:52.886Z</time></trkpt><trkpt lat="43.866516416047" lon="12.030930019569974"><ele>771.0</ele><time>2026-04-26T08:05:53.886Z</time></trkpt><trkpt lat="43.86659827132558" lon="12.030805260056438"><ele>771.0</ele><time>2026-04-26T08:05:54.886Z</time></trkpt><trkpt lat="43.86665717682562" lon="12.030657333285882"><ele>769.3333333333334</ele><time>2026-04-26T08:05:55.886Z</time></trkpt><trkpt lat="43.866676455879606" lon="12.030470672902954"><ele>767.6666666666667</ele><time>2026-04-26T08:05:56.886Z</time></trkpt><trkpt lat="43.86666776961055" lon="12.030267288699616"><ele>766.0</ele><time>2026-04-26T08:05:57.886Z</time></trkpt><trkpt lat="43.86663765946105" lon="12.030038033171484"><ele>766.0</ele><time>2026-04-26T08:05:58.886Z</time></trkpt><trkpt lat="43.86662596091371" lon="12.029804214238005"><ele>766.0</ele><time>2026-04-26T08:05:59.886Z</time></trkpt><trkpt lat="43.86661796511615" lon="12.02956091413126"><ele>766.0</ele><time>2026-04-26T08:06:00.886Z</time></trkpt><trkpt lat="43.86661024956489" lon="12.029339427874516"><ele>764.6666666666667</ele><time>2026-04-26T08:06:01.886Z</time></trkpt><trkpt lat="43.8665727173778" lon="12.029117584032877"><ele>763.3333333333334</ele><time>2026-04-26T08:06:02.886Z</time></trkpt><trkpt lat="43.86650489118768" lon="12.028898339024442"><ele>762.0</ele><time>2026-04-26T08:06:03.886Z</time></trkpt><trkpt lat="43.86641253210704" lon="12.028702249418414"><ele>762.0</ele><time>2026-04-26T08:06:04.886Z</time></trkpt><trkpt lat="43.86631326368716" lon="12.028507840965554"><ele>762.0</ele><time>2026-04-26T08:06:05.886Z</time></trkpt><trkpt lat="43.86622735532899" lon="12.028321334025453"><ele>762.0</ele><time>2026-04-26T08:06:06.886Z</time></trkpt><trkpt lat="43.866159806146776" lon="12.028145528097062"><ele>759.2</ele><time>2026-04-26T08:06:07.886Z</time></trkpt><trkpt lat="43.86610095628784" lon="12.027982612648247"><ele>756.4000000000001</ele><time>2026-04-26T08:06:08.886Z</time></trkpt><trkpt lat="43.86606339259435" lon="12.027872173915535"><ele>753.5999999999999</ele><time>2026-04-26T08:06:09.886Z</time></trkpt><trkpt lat="43.86606551011262" lon="12.027737378491434"><ele>750.8</ele><time>2026-04-26T08:06:11.886Z</time></trkpt><trkpt lat="43.86618416506519" lon="12.027704846812199"><ele>748.0</ele><time>2026-04-26T08:06:13.886Z</time></trkpt><trkpt lat="43.86626307102124" lon="12.027781223337174"><ele>748.0</ele><time>2026-04-26T08:06:14.886Z</time></trkpt><trkpt lat="43.866337299750406" lon="12.027900093150778"><ele>748.0</ele><time>2026-04-26T08:06:15.886Z</time></trkpt><trkpt lat="43.86642727387453" lon="12.028020944141668"><ele>748.0</ele><time>2026-04-26T08:06:16.886Z</time></trkpt><trkpt lat="43.86651327857626" lon="12.028137503494522"><ele>748.0</ele><time>2026-04-26T08:06:17.886Z</time></trkpt><trkpt lat="43.8666116738925" lon="12.028227569100379"><ele>748.0</ele><time>2026-04-26T08:06:18.886Z</time></trkpt><trkpt lat="43.86671739651966" lon="12.028264074597917"><ele>748.0</ele><time>2026-04-26T08:06:19.886Z</time></trkpt><trkpt lat="43.86683767415969" lon="12.028252039882181"><ele>748.0</ele><time>2026-04-26T08:06:20.886Z</time></trkpt><trkpt lat="43.866969190217574" lon="12.028192795276473"><ele>748.0</ele><time>2026-04-26T08:06:21.886Z</time></trkpt><trkpt lat="43.86709344510988" lon="12.028110929882361"><ele>748.75</ele><time>2026-04-26T08:06:22.886Z</time></trkpt><trkpt lat="43.867224391151986" lon="12.028035260084707"><ele>749.5</ele><time>2026-04-26T08:06:23.886Z</time></trkpt><trkpt lat="43.867320258753075" lon="12.028014448174037"><ele>750.25</ele><time>2026-04-26T08:06:24.886Z</time></trkpt><trkpt lat="43.867455203306086" lon="12.028054938956645"><ele>751.0</ele><time>2026-04-26T08:06:25.886Z</time></trkpt><trkpt lat="43.867586062700376" lon="12.028124950756077"><ele>751.3333333333334</ele><time>2026-04-26T08:06:26.886Z</time></trkpt><trkpt lat="43.867723539533856" lon="12.02824910854739"><ele>751.6666666666666</ele><time>2026-04-26T08:06:27.886Z</time></trkpt><trkpt lat="43.86785834457292" lon="12.028333585642033"><ele>752.0</ele><time>2026-04-26T08:06:28.886Z</time></trkpt><trkpt lat="43.86798860995186" lon="12.028410071310862"><ele>751.0</ele><time>2026-04-26T08:06:29.886Z</time></trkpt><trkpt lat="43.868076241296286" lon="12.028538634584299"><ele>750.0</ele><time>2026-04-26T08:06:30.885Z</time></trkpt><trkpt lat="43.86813201532648" lon="12.028688849766006"><ele>749.0</ele><time>2026-04-26T08:06:31.885Z</time></trkpt><trkpt lat="43.86814721757416" lon="12.028854557115025"><ele>748.0</ele><time>2026-04-26T08:06:32.885Z</time></trkpt><trkpt lat="43.86813168689259" lon="12.029024947521568"><ele>748.0</ele><time>2026-04-26T08:06:33.885Z</time></trkpt><trkpt lat="43.86810716027795" lon="12.029191564493393"><ele>748.0</ele><time>2026-04-26T08:06:34.885Z</time></trkpt><trkpt lat="43.86809411474959" lon="12.029337674996595"><ele>748.0</ele><time>2026-04-26T08:06:35.885Z</time></trkpt><trkpt lat="43.86814417823232" lon="12.029466517774418"><ele>748.0</ele><time>2026-04-26T08:06:36.885Z</time></trkpt><trkpt lat="43.86823756657347" lon="12.029541517160673"><ele>748.0</ele><time>2026-04-26T08:06:37.885Z</time></trkpt><trkpt lat="43.8683497660491" lon="12.02958735194002"><ele>748.75</ele><time>2026-04-26T08:06:38.885Z</time></trkpt><trkpt lat="43.868474795675986" lon="12.029663789470549"><ele>749.5</ele><time>2026-04-26T08:06:39.885Z</time></trkpt><trkpt lat="43.868594673683575" lon="12.029724476906276"><ele>750.25</ele><time>2026-04-26T08:06:40.885Z</time></trkpt><trkpt lat="43.86873123751047" lon="12.029793611398768"><ele>751.0</ele><time>2026-04-26T08:06:41.885Z</time></trkpt><trkpt lat="43.86886544615163" lon="12.029860357818785"><ele>751.0</ele><time>2026-04-26T08:06:42.885Z</time></trkpt><trkpt lat="43.86900692962261" lon="12.029929049221478"><ele>751.0</ele><time>2026-04-26T08:06:43.885Z</time></trkpt><trkpt lat="43.86913754834475" lon="12.029995936658331"><ele>751.0</ele><time>2026-04-26T08:06:44.885Z</time></trkpt><trkpt lat="43.86926069833932" lon="12.030058232023503"><ele>751.0</ele><time>2026-04-26T08:06:45.885Z</time></trkpt><trkpt lat="43.86937365358251" lon="12.030110771511293"><ele>751.1999999999999</ele><time>2026-04-26T08:06:46.885Z</time></trkpt><trkpt lat="43.86948370866108" lon="12.03015373700839"><ele>751.4</ele><time>2026-04-26T08:06:47.885Z</time></trkpt><trkpt lat="43.86959352999053" lon="12.030177409159624"><ele>751.6</ele><time>2026-04-26T08:06:48.885Z</time></trkpt><trkpt lat="43.86969312642781" lon="12.030186524114493"><ele>751.8</ele><time>2026-04-26T08:06:49.885Z</time></trkpt><trkpt lat="43.86977999328938" lon="12.030186665150676"><ele>752.0</ele><time>2026-04-26T08:06:50.885Z</time></trkpt><trkpt lat="43.8698532855623" lon="12.030179138985243"><ele>752.0</ele><time>2026-04-26T08:06:51.885Z</time></trkpt><trkpt lat="43.86991854842575" lon="12.030145891963423"><ele>752.0</ele><time>2026-04-26T08:06:52.885Z</time></trkpt><trkpt lat="43.870024344799084" lon="12.030119602554494"><ele>752.0</ele><time>2026-04-26T08:06:54.885Z</time></trkpt><trkpt lat="43.87013260161923" lon="12.030054326420643"><ele>752.0</ele><time>2026-04-26T08:06:56.885Z</time></trkpt><trkpt lat="43.87021307771837" lon="12.029929033659522"><ele>752.0</ele><time>2026-04-26T08:06:58.885Z</time></trkpt><trkpt lat="43.87025980414869" lon="12.029791046088164"><ele>747.3333333333333</ele><time>2026-04-26T08:07:00.885Z</time></trkpt><trkpt lat="43.870296985221756" lon="12.02969292199601"><ele>742.6666666666666</ele><time>2026-04-26T08:07:02.885Z</time></trkpt><trkpt lat="43.87036814697386" lon="12.029664438449505"><ele>738.0</ele><time>2026-04-26T08:07:04.885Z</time></trkpt><trkpt lat="43.87043620376619" lon="12.029705069286665"><ele>733.3333333333334</ele><time>2026-04-26T08:07:05.885Z</time></trkpt><trkpt lat="43.87049778172304" lon="12.029756439881353"><ele>728.6666666666667</ele><time>2026-04-26T08:07:06.885Z</time></trkpt><trkpt lat="43.870558530777544" lon="12.029802180377573"><ele>724.0</ele><time>2026-04-26T08:07:07.885Z</time></trkpt><trkpt lat="43.870649088305726" lon="12.02987810678605"><ele>725.8000000000001</ele><time>2026-04-26T08:07:09.885Z</time></trkpt><trkpt lat="43.87068983744308" lon="12.030012679009593"><ele>727.6</ele><time>2026-04-26T08:07:11.885Z</time></trkpt><trkpt lat="43.87065157123327" lon="12.030193194650453"><ele>729.4</ele><time>2026-04-26T08:07:13.885Z</time></trkpt><trkpt lat="43.87060145558207" lon="12.030305911069624"><ele>731.2</ele><time>2026-04-26T08:07:14.885Z</time></trkpt><trkpt lat="43.87055908515592" lon="12.030436045850387"><ele>733.0</ele><time>2026-04-26T08:07:15.885Z</time></trkpt><trkpt lat="43.87051132395601" lon="12.030600711169305"><ele>733.0</ele><time>2026-04-26T08:07:16.885Z</time></trkpt><trkpt lat="43.87045624504661" lon="12.030768534359275"><ele>733.0</ele><time>2026-04-26T08:07:17.885Z</time></trkpt><trkpt lat="43.87039160277442" lon="12.030956944017882"><ele>733.0</ele><time>2026-04-26T08:07:18.885Z</time></trkpt><trkpt lat="43.870336274949544" lon="12.031159178064083"><ele>733.0</ele><time>2026-04-26T08:07:19.885Z</time></trkpt><trkpt lat="43.870263082178326" lon="12.031366815179737"><ele>732.0</ele><time>2026-04-26T08:07:20.885Z</time></trkpt><trkpt lat="43.870218097063876" lon="12.031576798589212"><ele>731.0</ele><time>2026-04-26T08:07:21.885Z</time></trkpt><trkpt lat="43.870203921521274" lon="12.031765529287375"><ele>730.0</ele><time>2026-04-26T08:07:22.885Z</time></trkpt><trkpt lat="43.87015980072742" lon="12.03189491165321"><ele>729.0</ele><time>2026-04-26T08:07:23.885Z</time></trkpt><trkpt lat="43.87016296603405" lon="12.031993834145204"><ele>725.5</ele><time>2026-04-26T08:07:24.885Z</time></trkpt><trkpt lat="43.87017135683298" lon="12.032139863046105"><ele>722.0</ele><time>2026-04-26T08:07:26.884Z</time></trkpt><trkpt lat="43.87030498954325" lon="12.032106438889944"><ele>718.5</ele><time>2026-04-26T08:07:28.884Z</time></trkpt><trkpt lat="43.87037979154975" lon="12.0320162221349"><ele>715.0</ele><time>2026-04-26T08:07:29.885Z</time></trkpt><trkpt lat="43.87044978541438" lon="12.031883100615238"><ele>715.0</ele><time>2026-04-26T08:07:30.884Z</time></trkpt><trkpt lat="43.87052180638904" lon="12.031776204290008"><ele>715.0</ele><time>2026-04-26T08:07:31.884Z</time></trkpt><trkpt lat="43.8705715868867" lon="12.031705745746686"><ele>715.0</ele><time>2026-04-26T08:07:32.884Z</time></trkpt><trkpt lat="43.8706340621211" lon="12.031731165366534"><ele>715.0</ele><time>2026-04-26T08:07:33.885Z</time></trkpt><trkpt lat="43.870678762925756" lon="12.031811861386162"><ele>715.0</ele><time>2026-04-26T08:07:34.885Z</time></trkpt><trkpt lat="43.87069804331619" lon="12.031937492050446"><ele>715.0</ele><time>2026-04-26T08:07:35.884Z</time></trkpt><trkpt lat="43.87067087442857" lon="12.032045302431126"><ele>715.0</ele><time>2026-04-26T08:07:36.884Z</time></trkpt><trkpt lat="43.87061373765513" lon="12.032137918580757"><ele>715.0</ele><time>2026-04-26T08:07:37.884Z</time></trkpt><trkpt lat="43.87055085673101" lon="12.032280385604366"><ele>715.0</ele><time>2026-04-26T08:07:38.884Z</time></trkpt><trkpt lat="43.87049851003123" lon="12.032450452647101"><ele>715.0</ele><time>2026-04-26T08:07:39.884Z</time></trkpt><trkpt lat="43.87047625052848" lon="12.032633525304096"><ele>711.6666666666667</ele><time>2026-04-26T08:07:40.884Z</time></trkpt><trkpt lat="43.87050958309883" lon="12.032832538645259"><ele>708.3333333333334</ele><time>2026-04-26T08:07:41.884Z</time></trkpt><trkpt lat="43.870570671165424" lon="12.033035808799333"><ele>705.0</ele><time>2026-04-26T08:07:42.884Z</time></trkpt><trkpt lat="43.870637278147534" lon="12.033230364771871"><ele>704.6666666666666</ele><time>2026-04-26T08:07:43.884Z</time></trkpt><trkpt lat="43.87070864923536" lon="12.033455565296077"><ele>704.3333333333333</ele><time>2026-04-26T08:07:44.884Z</time></trkpt><trkpt lat="43.87074738819336" lon="12.033669145014125"><ele>704.0</ele><time>2026-04-26T08:07:45.884Z</time></trkpt><trkpt lat="43.87075032062384" lon="12.033870125356064"><ele>704.0</ele><time>2026-04-26T08:07:46.884Z</time></trkpt><trkpt lat="43.870796721341215" lon="12.034063859978863"><ele>704.0</ele><time>2026-04-26T08:07:47.884Z</time></trkpt><trkpt lat="43.87086869370355" lon="12.03422586084923"><ele>704.0</ele><time>2026-04-26T08:07:48.884Z</time></trkpt><trkpt lat="43.87093713308569" lon="12.034369184660772"><ele>704.0</ele><time>2026-04-26T08:07:49.884Z</time></trkpt><trkpt lat="43.87101316869168" lon="12.034492196940812"><ele>695.75</ele><time>2026-04-26T08:07:50.884Z</time></trkpt><trkpt lat="43.87105218369367" lon="12.034634906644039"><ele>687.5</ele><time>2026-04-26T08:07:51.884Z</time></trkpt><trkpt lat="43.871063406561646" lon="12.034791046667733"><ele>679.25</ele><time>2026-04-26T08:07:52.884Z</time></trkpt><trkpt lat="43.87105629073334" lon="12.034973348718381"><ele>671.0</ele><time>2026-04-26T08:07:53.884Z</time></trkpt><trkpt lat="43.871031231703114" lon="12.035176207472707"><ele>670.3333333333333</ele><time>2026-04-26T08:07:54.884Z</time></trkpt><trkpt lat="43.87099158436498" lon="12.035393845157987"><ele>669.6666666666666</ele><time>2026-04-26T08:07:55.884Z</time></trkpt><trkpt lat="43.87097065862455" lon="12.03562858757635"><ele>669.0</ele><time>2026-04-26T08:07:56.884Z</time></trkpt><trkpt lat="43.870990532723404" lon="12.035854834202295"><ele>670.25</ele><time>2026-04-26T08:07:57.884Z</time></trkpt><trkpt lat="43.87100820339661" lon="12.036065305839465"><ele>671.5</ele><time>2026-04-26T08:07:58.884Z</time></trkpt><trkpt lat="43.87104864175155" lon="12.03624384854193"><ele>672.75</ele><time>2026-04-26T08:07:59.884Z</time></trkpt><trkpt lat="43.871104873468504" lon="12.03637807296415"><ele>674.0</ele><time>2026-04-26T08:08:00.884Z</time></trkpt><trkpt lat="43.87115424921116" lon="12.036499572226399"><ele>674.0</ele><time>2026-04-26T08:08:01.884Z</time></trkpt><trkpt lat="43.87116373814118" lon="12.036621719289565"><ele>674.0</ele><time>2026-04-26T08:08:02.884Z</time></trkpt><trkpt lat="43.871107686914094" lon="12.036731477330706"><ele>674.0</ele><time>2026-04-26T08:08:03.884Z</time></trkpt><trkpt lat="43.8710133006222" lon="12.036822021542433"><ele>674.0</ele><time>2026-04-26T08:08:04.884Z</time></trkpt><trkpt lat="43.870930729728734" lon="12.036956706259252"><ele>674.0</ele><time>2026-04-26T08:08:05.884Z</time></trkpt><trkpt lat="43.870833827706825" lon="12.037094140511849"><ele>674.2</ele><time>2026-04-26T08:08:06.884Z</time></trkpt><trkpt lat="43.87074635886644" lon="12.037233601471117"><ele>674.4000000000001</ele><time>2026-04-26T08:08:07.884Z</time></trkpt><trkpt lat="43.87068286415705" lon="12.0373512508394"><ele>674.6</ele><time>2026-04-26T08:08:08.883Z</time></trkpt><trkpt lat="43.87064919239767" lon="12.037463276423482"><ele>674.8</ele><time>2026-04-26T08:08:09.883Z</time></trkpt><trkpt lat="43.87066146590093" lon="12.037590312198136"><ele>675.0</ele><time>2026-04-26T08:08:10.883Z</time></trkpt><trkpt lat="43.87071223102255" lon="12.037719149317052"><ele>675.0</ele><time>2026-04-26T08:08:11.883Z</time></trkpt><trkpt lat="43.87079564814327" lon="12.037806466005891"><ele>675.0</ele><time>2026-04-26T08:08:12.883Z</time></trkpt><trkpt lat="43.870905586346744" lon="12.037852850469186"><ele>675.0</ele><time>2026-04-26T08:08:13.883Z</time></trkpt><trkpt lat="43.87102591866547" lon="12.037865379117104"><ele>675.0</ele><time>2026-04-26T08:08:14.883Z</time></trkpt><trkpt lat="43.87114413408653" lon="12.037889986773168"><ele>675.4</ele><time>2026-04-26T08:08:15.883Z</time></trkpt><trkpt lat="43.871195207201964" lon="12.038004039405791"><ele>675.8</ele><time>2026-04-26T08:08:16.883Z</time></trkpt><trkpt lat="43.87123841845835" lon="12.038097989398953"><ele>676.2</ele><time>2026-04-26T08:08:17.883Z</time></trkpt><trkpt lat="43.87122211127912" lon="12.038206011136069"><ele>676.6</ele><time>2026-04-26T08:08:18.883Z</time></trkpt><trkpt lat="43.87119032691493" lon="12.038323292320728"><ele>677.0</ele><time>2026-04-26T08:08:19.883Z</time></trkpt><trkpt lat="43.87115449460804" lon="12.038483274891217"><ele>675.6666666666666</ele><time>2026-04-26T08:08:20.883Z</time></trkpt><trkpt lat="43.87112100860326" lon="12.038608657693901"><ele>674.3333333333333</ele><time>2026-04-26T08:08:21.883Z</time></trkpt><trkpt lat="43.87109642704416" lon="12.038707189091465"><ele>673.0</ele><time>2026-04-26T08:08:22.883Z</time></trkpt><trkpt lat="43.871024093713906" lon="12.038741956443687"><ele>671.6666666666666</ele><time>2026-04-26T08:08:23.883Z</time></trkpt><trkpt lat="43.87093728882478" lon="12.038720677301775"><ele>670.3333333333334</ele><time>2026-04-26T08:08:24.883Z</time></trkpt><trkpt lat="43.870842624480815" lon="12.038677929750332"><ele>669.0</ele><time>2026-04-26T08:08:25.883Z</time></trkpt><trkpt lat="43.8707421261629" lon="12.03864067479736"><ele>668.8333333333334</ele><time>2026-04-26T08:08:26.883Z</time></trkpt><trkpt lat="43.87065528575907" lon="12.038622840787147"><ele>668.6666666666666</ele><time>2026-04-26T08:08:27.883Z</time></trkpt><trkpt lat="43.87059345120821" lon="12.038666654415096"><ele>668.5</ele><time>2026-04-26T08:08:28.883Z</time></trkpt><trkpt lat="43.87057257193023" lon="12.03875642567485"><ele>668.3333333333333</ele><time>2026-04-26T08:08:29.883Z</time></trkpt><trkpt lat="43.87058360530636" lon="12.038903092357003"><ele>668.1666666666666</ele><time>2026-04-26T08:08:30.883Z</time></trkpt><trkpt lat="43.87061414409517" lon="12.039058450364038"><ele>668.0</ele><time>2026-04-26T08:08:31.883Z</time></trkpt><trkpt lat="43.870659791466586" lon="12.039204547857825"><ele>665.75</ele><time>2026-04-26T08:08:32.883Z</time></trkpt><trkpt lat="43.870710994128444" lon="12.039310194509948"><ele>663.5</ele><time>2026-04-26T08:08:33.883Z</time></trkpt><trkpt lat="43.87080199029366" lon="12.039387758744189"><ele>661.25</ele><time>2026-04-26T08:08:34.883Z</time></trkpt><trkpt lat="43.8709165857236" lon="12.03943586028315"><ele>659.0</ele><time>2026-04-26T08:08:35.883Z</time></trkpt><trkpt lat="43.871051930852666" lon="12.039466870718064"><ele>659.0</ele><time>2026-04-26T08:08:36.883Z</time></trkpt><trkpt lat="43.871160569037194" lon="12.03958364412723"><ele>659.0</ele><time>2026-04-26T08:08:37.883Z</time></trkpt><trkpt lat="43.87124541113601" lon="12.039724349370127"><ele>659.0</ele><time>2026-04-26T08:08:38.883Z</time></trkpt><trkpt lat="43.87132365736518" lon="12.039857462853712"><ele>659.0</ele><time>2026-04-26T08:08:39.883Z</time></trkpt><trkpt lat="43.87141062713504" lon="12.039934184882338"><ele>659.0</ele><time>2026-04-26T08:08:40.883Z</time></trkpt><trkpt lat="43.87151485445507" lon="12.039948631488851"><ele>659.0</ele><time>2026-04-26T08:08:41.883Z</time></trkpt><trkpt lat="43.871646791173426" lon="12.03991336183777"><ele>659.0</ele><time>2026-04-26T08:08:42.883Z</time></trkpt><trkpt lat="43.871788371753546" lon="12.039857684084865"><ele>659.0</ele><time>2026-04-26T08:08:43.883Z</time></trkpt><trkpt lat="43.87193318580061" lon="12.039827890950042"><ele>654.5</ele><time>2026-04-26T08:08:44.883Z</time></trkpt><trkpt lat="43.872083772122636" lon="12.039858950156075"><ele>650.0</ele><time>2026-04-26T08:08:45.883Z</time></trkpt><trkpt lat="43.87223098279499" lon="12.03988089669965"><ele>645.5</ele><time>2026-04-26T08:08:46.883Z</time></trkpt><trkpt lat="43.87235206304138" lon="12.03989489789674"><ele>641.0</ele><time>2026-04-26T08:08:47.883Z</time></trkpt><trkpt lat="43.87244436919464" lon="12.03990451218523"><ele>641.0</ele><time>2026-04-26T08:08:48.883Z</time></trkpt><trkpt lat="43.87250635653886" lon="12.039924422968792"><ele>641.0</ele><time>2026-04-26T08:08:49.883Z</time></trkpt><trkpt lat="43.872543919615005" lon="12.04003476982933"><ele>641.0</ele><time>2026-04-26T08:08:51.883Z</time></trkpt><trkpt lat="43.87240349877965" lon="12.04015612361998"><ele>641.0</ele><time>2026-04-26T08:08:53.883Z</time></trkpt><trkpt lat="43.872301930271114" lon="12.040120952623754"><ele>641.0</ele><time>2026-04-26T08:08:54.883Z</time></trkpt><trkpt lat="43.872171945199945" lon="12.040154311075772"><ele>640.25</ele><time>2026-04-26T08:08:55.883Z</time></trkpt><trkpt lat="43.87203671413418" lon="12.040182401027419"><ele>639.5</ele><time>2026-04-26T08:08:56.883Z</time></trkpt><trkpt lat="43.87189994883915" lon="12.040263538533642"><ele>638.75</ele><time>2026-04-26T08:08:57.883Z</time></trkpt><trkpt lat="43.871768475027" lon="12.040381454356925"><ele>638.0</ele><time>2026-04-26T08:08:58.883Z</time></trkpt><trkpt lat="43.87164080113978" lon="12.04051333752489"><ele>638.0</ele><time>2026-04-26T08:08:59.883Z</time></trkpt><trkpt lat="43.871523780645056" lon="12.040636844755054"><ele>638.0</ele><time>2026-04-26T08:09:00.883Z</time></trkpt><trkpt lat="43.87143823041005" lon="12.040701888571625"><ele>638.0</ele><time>2026-04-26T08:09:01.883Z</time></trkpt><trkpt lat="43.87138117347104" lon="12.040775752919147"><ele>638.0</ele><time>2026-04-26T08:09:02.883Z</time></trkpt><trkpt lat="43.87136182060055" lon="12.040868341852196"><ele>638.0</ele><time>2026-04-26T08:09:03.883Z</time></trkpt><trkpt lat="43.87139391061478" lon="12.041005669703788"><ele>632.5</ele><time>2026-04-26T08:09:04.883Z</time></trkpt><trkpt lat="43.871452104095916" lon="12.041107125371145"><ele>627.0</ele><time>2026-04-26T08:09:05.883Z</time></trkpt><trkpt lat="43.87152709002295" lon="12.04114281651987"><ele>621.5</ele><time>2026-04-26T08:09:06.883Z</time></trkpt><trkpt lat="43.871642700602976" lon="12.041070540591068"><ele>616.0</ele><time>2026-04-26T08:09:07.883Z</time></trkpt><trkpt lat="43.871789593369165" lon="12.040964242775747"><ele>614.25</ele><time>2026-04-26T08:09:08.883Z</time></trkpt><trkpt lat="43.87191893460265" lon="12.040850704356654"><ele>612.5</ele><time>2026-04-26T08:09:09.883Z</time></trkpt><trkpt lat="43.87205207784571" lon="12.040770514932287"><ele>610.75</ele><time>2026-04-26T08:09:10.883Z</time></trkpt><trkpt lat="43.87219267223665" lon="12.040725860520368"><ele>609.0</ele><time>2026-04-26T08:09:11.883Z</time></trkpt><trkpt lat="43.872340305067056" lon="12.040743772094267"><ele>606.0</ele><time>2026-04-26T08:09:12.883Z</time></trkpt><trkpt lat="43.87250323696347" lon="12.04078237560311"><ele>603.0</ele><time>2026-04-26T08:09:13.883Z</time></trkpt><trkpt lat="43.87267996854737" lon="12.040832796132708"><ele>600.0</ele><time>2026-04-26T08:09:14.883Z</time></trkpt><trkpt lat="43.87285746490302" lon="12.040887842890347"><ele>600.0</ele><time>2026-04-26T08:09:15.883Z</time></trkpt><trkpt lat="43.873022389969" lon="12.040922136467369"><ele>600.0</ele><time>2026-04-26T08:09:16.883Z</time></trkpt><trkpt lat="43.87317248728126" lon="12.040964112234963"><ele>600.0</ele><time>2026-04-26T08:09:17.882Z</time></trkpt><trkpt lat="43.873296448679696" lon="12.040997077304038"><ele>600.0</ele><time>2026-04-26T08:09:18.882Z</time></trkpt><trkpt lat="43.87340150464549" lon="12.041016102788479"><ele>597.75</ele><time>2026-04-26T08:09:19.882Z</time></trkpt><trkpt lat="43.87349415525512" lon="12.040976119579662"><ele>595.5</ele><time>2026-04-26T08:09:20.882Z</time></trkpt><trkpt lat="43.87357463552641" lon="12.040878714090615"><ele>593.25</ele><time>2026-04-26T08:09:21.882Z</time></trkpt><trkpt lat="43.873635170024464" lon="12.040725079675854"><ele>591.0</ele><time>2026-04-26T08:09:22.882Z</time></trkpt><trkpt lat="43.87369512410409" lon="12.040521707601933"><ele>591.0</ele><time>2026-04-26T08:09:23.882Z</time></trkpt><trkpt lat="43.87376201707906" lon="12.040320417953575"><ele>591.0</ele><time>2026-04-26T08:09:24.882Z</time></trkpt><trkpt lat="43.87385558388168" lon="12.040122891565744"><ele>591.0</ele><time>2026-04-26T08:09:25.882Z</time></trkpt><trkpt lat="43.87393197322062" lon="12.039919105555363"><ele>590.8</ele><time>2026-04-26T08:09:26.882Z</time></trkpt><trkpt lat="43.87399970160861" lon="12.039740179345857"><ele>590.6</ele><time>2026-04-26T08:09:27.882Z</time></trkpt><trkpt lat="43.874051643922506" lon="12.039620414678748"><ele>590.4</ele><time>2026-04-26T08:09:28.882Z</time></trkpt><trkpt lat="43.87409521231225" lon="12.039526520132442"><ele>590.2</ele><time>2026-04-26T08:09:29.882Z</time></trkpt><trkpt lat="43.874164256097785" lon="12.039505324550428"><ele>590.0</ele><time>2026-04-26T08:09:30.882Z</time></trkpt><trkpt lat="43.87424970457503" lon="12.039544351608635"><ele>586.25</ele><time>2026-04-26T08:09:31.882Z</time></trkpt><trkpt lat="43.87431654244848" lon="12.039646227519313"><ele>582.5</ele><time>2026-04-26T08:09:32.882Z</time></trkpt><trkpt lat="43.8743547345963" lon="12.03979010210115"><ele>578.75</ele><time>2026-04-26T08:09:33.882Z</time></trkpt><trkpt lat="43.87433043723588" lon="12.039964544151308"><ele>575.0</ele><time>2026-04-26T08:09:34.882Z</time></trkpt><trkpt lat="43.87431752201458" lon="12.04016598575669"><ele>575.0</ele><time>2026-04-26T08:09:35.882Z</time></trkpt><trkpt lat="43.87430624327143" lon="12.04033908606267"><ele>575.0</ele><time>2026-04-26T08:09:36.882Z</time></trkpt><trkpt lat="43.8742994108931" lon="12.040467326813502"><ele>575.0</ele><time>2026-04-26T08:09:37.882Z</time></trkpt><trkpt lat="43.87432532951074" lon="12.040549451756617"><ele>575.0</ele><time>2026-04-26T08:09:38.882Z</time></trkpt><trkpt lat="43.8743831135004" lon="12.040612392808832"><ele>575.0</ele><time>2026-04-26T08:09:39.882Z</time></trkpt><trkpt lat="43.87446697408466" lon="12.04064229644298"><ele>575.0</ele><time>2026-04-26T08:09:40.881Z</time></trkpt><trkpt lat="43.874593654469216" lon="12.0406502556063"><ele>575.0</ele><time>2026-04-26T08:09:41.882Z</time></trkpt><trkpt lat="43.87474730713388" lon="12.040684857061963"><ele>575.0</ele><time>2026-04-26T08:09:42.881Z</time></trkpt><trkpt lat="43.874874282984386" lon="12.040745707631482"><ele>575.0</ele><time>2026-04-26T08:09:43.881Z</time></trkpt><trkpt lat="43.87498294252127" lon="12.040779690691634"><ele>575.0</ele><time>2026-04-26T08:09:44.882Z</time></trkpt><trkpt lat="43.8750801540243" lon="12.040810261592238"><ele>573.8</ele><time>2026-04-26T08:09:45.882Z</time></trkpt><trkpt lat="43.87517493675451" lon="12.04083945114355"><ele>572.6</ele><time>2026-04-26T08:09:46.882Z</time></trkpt><trkpt lat="43.87527703744728" lon="12.040870866744761"><ele>571.4</ele><time>2026-04-26T08:09:47.882Z</time></trkpt><trkpt lat="43.87537695160158" lon="12.04087731573436"><ele>570.2</ele><time>2026-04-26T08:09:48.882Z</time></trkpt><trkpt lat="43.87547941812141" lon="12.040913324885132"><ele>569.0</ele><time>2026-04-26T08:09:49.882Z</time></trkpt><trkpt lat="43.875575785404735" lon="12.040968699015684"><ele>569.0</ele><time>2026-04-26T08:09:50.882Z</time></trkpt><trkpt lat="43.875675641152526" lon="12.041019841633563"><ele>569.0</ele><time>2026-04-26T08:09:51.882Z</time></trkpt><trkpt lat="43.875776935124385" lon="12.041101878324616"><ele>569.0</ele><time>2026-04-26T08:09:52.882Z</time></trkpt><trkpt lat="43.87588697716749" lon="12.041203049941286"><ele>569.0</ele><time>2026-04-26T08:09:53.882Z</time></trkpt><trkpt lat="43.87599671952209" lon="12.04127058073116"><ele>568.2</ele><time>2026-04-26T08:09:54.882Z</time></trkpt><trkpt lat="43.87608648679692" lon="12.04136037058976"><ele>567.4</ele><time>2026-04-26T08:09:55.882Z</time></trkpt><trkpt lat="43.87616599234361" lon="12.041454567337494"><ele>566.6</ele><time>2026-04-26T08:09:56.882Z</time></trkpt><trkpt lat="43.87624595392692" lon="12.04154433553523"><ele>565.8</ele><time>2026-04-26T08:09:57.882Z</time></trkpt><trkpt lat="43.87633309996877" lon="12.041652722805374"><ele>565.0</ele><time>2026-04-26T08:09:58.882Z</time></trkpt><trkpt lat="43.8764374725044" lon="12.041752988930417"><ele>565.0</ele><time>2026-04-26T08:09:59.882Z</time></trkpt><trkpt lat="43.87652608488986" lon="12.041850343020844"><ele>565.0</ele><time>2026-04-26T08:10:00.882Z</time></trkpt><trkpt lat="43.876606076239355" lon="12.041933367798755"><ele>565.0</ele><time>2026-04-26T08:10:01.882Z</time></trkpt><trkpt lat="43.87666934385199" lon="12.042025756021284"><ele>565.0</ele><time>2026-04-26T08:10:02.882Z</time></trkpt><trkpt lat="43.87677080581439" lon="12.042040986863405"><ele>565.0</ele><time>2026-04-26T08:10:03.882Z</time></trkpt><trkpt lat="43.876902335020155" lon="12.04201000728838"><ele>562.6</ele><time>2026-04-26T08:10:04.882Z</time></trkpt><trkpt lat="43.87701159315912" lon="12.041910874907103"><ele>560.2</ele><time>2026-04-26T08:10:05.882Z</time></trkpt><trkpt lat="43.877101037758244" lon="12.04182172190013"><ele>557.8</ele><time>2026-04-26T08:10:06.882Z</time></trkpt><trkpt lat="43.87719355783413" lon="12.041766474028085"><ele>555.4</ele><time>2026-04-26T08:10:07.882Z</time></trkpt><trkpt lat="43.877253076106" lon="12.04168243905437"><ele>553.0</ele><time>2026-04-26T08:10:08.882Z</time></trkpt><trkpt lat="43.87727922239419" lon="12.04154720504946"><ele>550.75</ele><time>2026-04-26T08:10:09.882Z</time></trkpt><trkpt lat="43.877235116832225" lon="12.041393539917433"><ele>548.5</ele><time>2026-04-26T08:10:10.882Z</time></trkpt><trkpt lat="43.877180081383706" lon="12.041231694886065"><ele>546.25</ele><time>2026-04-26T08:10:11.882Z</time></trkpt><trkpt lat="43.87711166208462" lon="12.041046773680591"><ele>544.0</ele><time>2026-04-26T08:10:12.882Z</time></trkpt><trkpt lat="43.87708538950465" lon="12.040863026544585"><ele>543.6666666666667</ele><time>2026-04-26T08:10:13.882Z</time></trkpt><trkpt lat="43.87708617361297" lon="12.040672946461608"><ele>543.3333333333334</ele><time>2026-04-26T08:10:14.882Z</time></trkpt><trkpt lat="43.87710568976809" lon="12.040450119742136"><ele>543.0</ele><time>2026-04-26T08:10:15.882Z</time></trkpt><trkpt lat="43.877107977595415" lon="12.040212814527248"><ele>541.0</ele><time>2026-04-26T08:10:16.882Z</time></trkpt><trkpt lat="43.877123985783946" lon="12.03994905056447"><ele>539.0</ele><time>2026-04-26T08:10:17.882Z</time></trkpt><trkpt lat="43.877137740703276" lon="12.039670474933946"><ele>537.0</ele><time>2026-04-26T08:10:18.882Z</time></trkpt><trkpt lat="43.877168517177815" lon="12.039394060443575"><ele>536.6666666666666</ele><time>2026-04-26T08:10:19.882Z</time></trkpt><trkpt lat="43.87717222462309" lon="12.039122984619937"><ele>536.3333333333333</ele><time>2026-04-26T08:10:20.881Z</time></trkpt><trkpt lat="43.87719112355446" lon="12.038878326774539"><ele>536.0</ele><time>2026-04-26T08:10:21.881Z</time></trkpt><trkpt lat="43.87720704317882" lon="12.03865778197234"><ele>536.0</ele><time>2026-04-26T08:10:22.881Z</time></trkpt><trkpt lat="43.87723942172418" lon="12.038457174667897"><ele>536.0</ele><time>2026-04-26T08:10:23.881Z</time></trkpt><trkpt lat="43.87731952240843" lon="12.038293280039824"><ele>536.0</ele><time>2026-04-26T08:10:24.881Z</time></trkpt><trkpt lat="43.87743664057087" lon="12.038142456769828"><ele>534.3333333333333</ele><time>2026-04-26T08:10:25.881Z</time></trkpt><trkpt lat="43.87756095327341" lon="12.037987695180524"><ele>532.6666666666666</ele><time>2026-04-26T08:10:26.881Z</time></trkpt><trkpt lat="43.87766809700137" lon="12.037830755197376"><ele>531.0</ele><time>2026-04-26T08:10:27.881Z</time></trkpt><trkpt lat="43.877757953415504" lon="12.037673630323047"><ele>531.0</ele><time>2026-04-26T08:10:28.881Z</time></trkpt><trkpt lat="43.87783998595332" lon="12.037539328296464"><ele>531.0</ele><time>2026-04-26T08:10:29.881Z</time></trkpt><trkpt lat="43.87791748361775" lon="12.037443498955115"><ele>531.0</ele><time>2026-04-26T08:10:30.881Z</time></trkpt><trkpt lat="43.87798276825345" lon="12.037364533132733"><ele>531.0</ele><time>2026-04-26T08:10:31.881Z</time></trkpt><trkpt lat="43.87806329065346" lon="12.037357011715367"><ele>531.0</ele><time>2026-04-26T08:10:32.881Z</time></trkpt><trkpt lat="43.8781333355963" lon="12.037323320211707"><ele>531.0</ele><time>2026-04-26T08:10:34.881Z</time></trkpt><trkpt lat="43.87805921468497" lon="12.037333780269906"><ele>531.0</ele><time>2026-04-26T08:10:46.881Z</time></trkpt><trkpt lat="43.877982423015965" lon="12.03738112724156"><ele>531.0</ele><time>2026-04-26T08:10:47.881Z</time></trkpt><trkpt lat="43.87790217793186" lon="12.037434803036371"><ele>531.0</ele><time>2026-04-26T08:10:48.881Z</time></trkpt><trkpt lat="43.87782124338487" lon="12.037492474768321"><ele>531.0</ele><time>2026-04-26T08:10:49.881Z</time></trkpt><trkpt lat="43.87777026436218" lon="12.037608543943433"><ele>531.0</ele><time>2026-04-26T08:10:50.881Z</time></trkpt><trkpt lat="43.87771875931647" lon="12.037674878707008"><ele>531.0</ele><time>2026-04-26T08:10:51.881Z</time></trkpt><trkpt lat="43.87778479180416" lon="12.03791303366457"><ele>531.0</ele><time>2026-04-26T08:10:53.881Z</time></trkpt><trkpt lat="43.87784515365143" lon="12.038035041384711"><ele>531.0</ele><time>2026-04-26T08:10:54.881Z</time></trkpt><trkpt lat="43.87792760273199" lon="12.038173843307133"><ele>531.0</ele><time>2026-04-26T08:10:55.881Z</time></trkpt><trkpt lat="43.87802028693452" lon="12.038320757123406"><ele>529.0</ele><time>2026-04-26T08:10:56.881Z</time></trkpt><trkpt lat="43.87811094924417" lon="12.038452579323629"><ele>527.0</ele><time>2026-04-26T08:10:57.881Z</time></trkpt><trkpt lat="43.878228287063926" lon="12.038559658330776"><ele>525.0</ele><time>2026-04-26T08:10:58.881Z</time></trkpt><trkpt lat="43.87833380985352" lon="12.038655193941873"><ele>523.0</ele><time>2026-04-26T08:10:59.881Z</time></trkpt><trkpt lat="43.878408922416355" lon="12.038763631372914"><ele>519.25</ele><time>2026-04-26T08:11:00.881Z</time></trkpt><trkpt lat="43.878450024118244" lon="12.03892472232869"><ele>515.5</ele><time>2026-04-26T08:11:01.881Z</time></trkpt><trkpt lat="43.878459840509926" lon="12.039137552296538"><ele>511.75</ele><time>2026-04-26T08:11:02.881Z</time></trkpt><trkpt lat="43.87848287696861" lon="12.039364211438837"><ele>508.0</ele><time>2026-04-26T08:11:03.881Z</time></trkpt><trkpt lat="43.878542133672646" lon="12.039582944309243"><ele>507.6666666666667</ele><time>2026-04-26T08:11:04.881Z</time></trkpt><trkpt lat="43.878608870112274" lon="12.039795339165902"><ele>507.33333333333337</ele><time>2026-04-26T08:11:05.881Z</time></trkpt><trkpt lat="43.878689168703666" lon="12.03999462222581"><ele>507.0</ele><time>2026-04-26T08:11:06.881Z</time></trkpt><trkpt lat="43.87877037610653" lon="12.040176455028861"><ele>507.0</ele><time>2026-04-26T08:11:07.881Z</time></trkpt><trkpt lat="43.87884642445583" lon="12.040349079458313"><ele>507.0</ele><time>2026-04-26T08:11:08.881Z</time></trkpt><trkpt lat="43.87892803932523" lon="12.040516814434497"><ele>507.0</ele><time>2026-04-26T08:11:09.881Z</time></trkpt><trkpt lat="43.87900305147885" lon="12.040675701637896"><ele>507.0</ele><time>2026-04-26T08:11:10.881Z</time></trkpt><trkpt lat="43.879087043219776" lon="12.040816665776896"><ele>507.0</ele><time>2026-04-26T08:11:11.881Z</time></trkpt><trkpt lat="43.87917448752994" lon="12.040942361030055"><ele>507.0</ele><time>2026-04-26T08:11:12.881Z</time></trkpt><trkpt lat="43.879262926521484" lon="12.041048950530236"><ele>507.0</ele><time>2026-04-26T08:11:13.881Z</time></trkpt><trkpt lat="43.87938185324721" lon="12.041136256524265"><ele>507.0</ele><time>2026-04-26T08:11:14.881Z</time></trkpt><trkpt lat="43.879503677555284" lon="12.041221947121775"><ele>504.0</ele><time>2026-04-26T08:11:15.881Z</time></trkpt><trkpt lat="43.87962692744894" lon="12.041323492283857"><ele>501.0</ele><time>2026-04-26T08:11:16.881Z</time></trkpt><trkpt lat="43.87974101500416" lon="12.041453901437546"><ele>498.0</ele><time>2026-04-26T08:11:17.881Z</time></trkpt><trkpt lat="43.87984450625695" lon="12.041617836967793"><ele>495.0</ele><time>2026-04-26T08:11:18.881Z</time></trkpt><trkpt lat="43.879935329925566" lon="12.041796898035361"><ele>495.0</ele><time>2026-04-26T08:11:19.881Z</time></trkpt><trkpt lat="43.880029050951435" lon="12.041981323176035"><ele>495.0</ele><time>2026-04-26T08:11:20.881Z</time></trkpt><trkpt lat="43.88013321503947" lon="12.042153658765539"><ele>495.0</ele><time>2026-04-26T08:11:21.881Z</time></trkpt><trkpt lat="43.88023742759031" lon="12.042325631009923"><ele>489.66666666666663</ele><time>2026-04-26T08:11:22.881Z</time></trkpt><trkpt lat="43.88032272039508" lon="12.042497087475574"><ele>484.3333333333333</ele><time>2026-04-26T08:11:23.881Z</time></trkpt><trkpt lat="43.88038254835809" lon="12.042684190398033"><ele>479.0</ele><time>2026-04-26T08:11:24.881Z</time></trkpt><trkpt lat="43.88040210921336" lon="12.042902608632128"><ele>479.0</ele><time>2026-04-26T08:11:25.881Z</time></trkpt><trkpt lat="43.8804343604073" lon="12.043143757640088"><ele>479.0</ele><time>2026-04-26T08:11:26.881Z</time></trkpt><trkpt lat="43.88044984531895" lon="12.04339079788003"><ele>479.0</ele><time>2026-04-26T08:11:27.881Z</time></trkpt><trkpt lat="43.880474801025024" lon="12.043616732553295"><ele>477.66666666666663</ele><time>2026-04-26T08:11:28.881Z</time></trkpt><trkpt lat="43.88052038492865" lon="12.043832394575478"><ele>476.33333333333337</ele><time>2026-04-26T08:11:29.88Z</time></trkpt><trkpt lat="43.8805871815448" lon="12.04403206234542"><ele>475.0</ele><time>2026-04-26T08:11:30.88Z</time></trkpt><trkpt lat="43.88067046755039" lon="12.044221462642271"><ele>474.75</ele><time>2026-04-26T08:11:31.88Z</time></trkpt><trkpt lat="43.88073912152261" lon="12.044404921602275"><ele>474.5</ele><time>2026-04-26T08:11:32.88Z</time></trkpt><trkpt lat="43.88074340661341" lon="12.044590483208498"><ele>474.25</ele><time>2026-04-26T08:11:33.88Z</time></trkpt><trkpt lat="43.88071789116643" lon="12.04475302337559"><ele>474.0</ele><time>2026-04-26T08:11:34.88Z</time></trkpt><trkpt lat="43.88064627739335" lon="12.044908598879084"><ele>473.25</ele><time>2026-04-26T08:11:35.88Z</time></trkpt><trkpt lat="43.880544065987905" lon="12.045057773589544"><ele>472.5</ele><time>2026-04-26T08:11:36.88Z</time></trkpt><trkpt lat="43.880448628494676" lon="12.045215862699333"><ele>471.75</ele><time>2026-04-26T08:11:37.88Z</time></trkpt><trkpt lat="43.88038717423142" lon="12.045388005926185"><ele>471.0</ele><time>2026-04-26T08:11:38.879Z</time></trkpt><trkpt lat="43.88035624881699" lon="12.045582006798295"><ele>468.33333333333337</ele><time>2026-04-26T08:11:39.879Z</time></trkpt><trkpt lat="43.88035280932896" lon="12.045805578185513"><ele>465.6666666666667</ele><time>2026-04-26T08:11:40.879Z</time></trkpt><trkpt lat="43.88036302948078" lon="12.046057129600593"><ele>463.0</ele><time>2026-04-26T08:11:41.879Z</time></trkpt><trkpt lat="43.88036662712644" lon="12.046319138578914"><ele>463.0</ele><time>2026-04-26T08:11:42.879Z</time></trkpt><trkpt lat="43.88034222004554" lon="12.046589461288823"><ele>463.0</ele><time>2026-04-26T08:11:43.879Z</time></trkpt><trkpt lat="43.880343999488574" lon="12.046842627190363"><ele>463.0</ele><time>2026-04-26T08:11:44.879Z</time></trkpt><trkpt lat="43.88033888510473" lon="12.047086157572048"><ele>460.6666666666667</ele><time>2026-04-26T08:11:45.879Z</time></trkpt><trkpt lat="43.88032596112782" lon="12.047324491930935"><ele>458.33333333333337</ele><time>2026-04-26T08:11:46.879Z</time></trkpt><trkpt lat="43.88031457702219" lon="12.047553186329369"><ele>456.0</ele><time>2026-04-26T08:11:47.879Z</time></trkpt><trkpt lat="43.88032021509098" lon="12.047772650685877"><ele>454.33333333333337</ele><time>2026-04-26T08:11:48.879Z</time></trkpt><trkpt lat="43.88034483751399" lon="12.04798630813079"><ele>452.6666666666667</ele><time>2026-04-26T08:11:49.879Z</time></trkpt><trkpt lat="43.8803984423512" lon="12.048183126672205"><ele>451.0</ele><time>2026-04-26T08:11:50.879Z</time></trkpt><trkpt lat="43.8804856085123" lon="12.048367490208095"><ele>450.33333333333337</ele><time>2026-04-26T08:11:51.879Z</time></trkpt><trkpt lat="43.88060013416071" lon="12.048530246105749"><ele>449.66666666666663</ele><time>2026-04-26T08:11:52.879Z</time></trkpt><trkpt lat="43.88073792754116" lon="12.04866944218559"><ele>449.0</ele><time>2026-04-26T08:11:53.879Z</time></trkpt><trkpt lat="43.88088497730982" lon="12.048797060066672"><ele>447.66666666666663</ele><time>2026-04-26T08:11:54.879Z</time></trkpt><trkpt lat="43.88103063290841" lon="12.048923313997808"><ele>446.33333333333337</ele><time>2026-04-26T08:11:55.879Z</time></trkpt><trkpt lat="43.8811765915766" lon="12.049075908707069"><ele>445.0</ele><time>2026-04-26T08:11:56.879Z</time></trkpt><trkpt lat="43.88131011270424" lon="12.04924591789324"><ele>443.33333333333337</ele><time>2026-04-26T08:11:57.879Z</time></trkpt><trkpt lat="43.88143569504771" lon="12.049429323949136"><ele>441.66666666666663</ele><time>2026-04-26T08:11:58.879Z</time></trkpt><trkpt lat="43.88156167158681" lon="12.049622561758202"><ele>440.0</ele><time>2026-04-26T08:11:59.879Z</time></trkpt><trkpt lat="43.881687399950984" lon="12.04980171579412"><ele>436.3333333333333</ele><time>2026-04-26T08:12:00.879Z</time></trkpt><trkpt lat="43.881824575532384" lon="12.049983467568845"><ele>432.66666666666663</ele><time>2026-04-26T08:12:01.879Z</time></trkpt><trkpt lat="43.881950735046736" lon="12.050151635729504"><ele>429.0</ele><time>2026-04-26T08:12:02.878Z</time></trkpt><trkpt lat="43.882068108676705" lon="12.050287948188595"><ele>429.0</ele><time>2026-04-26T08:12:03.878Z</time></trkpt><trkpt lat="43.882175622432584" lon="12.050385543503989"><ele>429.0</ele><time>2026-04-26T08:12:04.878Z</time></trkpt><trkpt lat="43.88230003161571" lon="12.050437474291163"><ele>429.0</ele><time>2026-04-26T08:12:05.878Z</time></trkpt><trkpt lat="43.88242941038165" lon="12.050451822591468"><ele>429.0</ele><time>2026-04-26T08:12:06.878Z</time></trkpt><trkpt lat="43.88258296062134" lon="12.050417711989272"><ele>423.66666666666663</ele><time>2026-04-26T08:12:07.878Z</time></trkpt><trkpt lat="43.882742665509" lon="12.050363226328498"><ele>418.3333333333333</ele><time>2026-04-26T08:12:08.878Z</time></trkpt><trkpt lat="43.88289731432072" lon="12.050297773666003"><ele>413.0</ele><time>2026-04-26T08:12:09.878Z</time></trkpt><trkpt lat="43.88303965538537" lon="12.050260126463074"><ele>413.0</ele><time>2026-04-26T08:12:10.878Z</time></trkpt><trkpt lat="43.883173934697226" lon="12.050281922716565"><ele>413.0</ele><time>2026-04-26T08:12:11.878Z</time></trkpt><trkpt lat="43.88330399985676" lon="12.050382929580545"><ele>413.0</ele><time>2026-04-26T08:12:12.878Z</time></trkpt><trkpt lat="43.883445454754394" lon="12.050486133139316"><ele>413.0</ele><time>2026-04-26T08:12:13.878Z</time></trkpt><trkpt lat="43.883597660581856" lon="12.05060458951068"><ele>410.3333333333333</ele><time>2026-04-26T08:12:14.878Z</time></trkpt><trkpt lat="43.88377023315601" lon="12.050732794873154"><ele>407.66666666666663</ele><time>2026-04-26T08:12:15.878Z</time></trkpt><trkpt lat="43.88392574852593" lon="12.05086100713428"><ele>405.0</ele><time>2026-04-26T08:12:16.878Z</time></trkpt><trkpt lat="43.88406513983167" lon="12.050984322357222"><ele>405.0</ele><time>2026-04-26T08:12:17.878Z</time></trkpt><trkpt lat="43.88418847651867" lon="12.05113091706817"><ele>405.0</ele><time>2026-04-26T08:12:18.878Z</time></trkpt><trkpt lat="43.88428333344409" lon="12.051298849761206"><ele>405.0</ele><time>2026-04-26T08:12:19.878Z</time></trkpt><trkpt lat="43.88435915400315" lon="12.051461384905311"><ele>403.75</ele><time>2026-04-26T08:12:20.878Z</time></trkpt><trkpt lat="43.88442125314027" lon="12.051611690706666"><ele>402.5</ele><time>2026-04-26T08:12:21.878Z</time></trkpt><trkpt lat="43.884454339128474" lon="12.05176293215494"><ele>401.25</ele><time>2026-04-26T08:12:22.878Z</time></trkpt><trkpt lat="43.88442971890096" lon="12.051935656746235"><ele>400.0</ele><time>2026-04-26T08:12:23.878Z</time></trkpt><trkpt lat="43.884431099815686" lon="12.052150366887059"><ele>400.0</ele><time>2026-04-26T08:12:24.878Z</time></trkpt><trkpt lat="43.88440740961551" lon="12.05238803791023"><ele>400.0</ele><time>2026-04-26T08:12:25.878Z</time></trkpt><trkpt lat="43.884398657541546" lon="12.052631271391453"><ele>400.0</ele><time>2026-04-26T08:12:26.878Z</time></trkpt><trkpt lat="43.884394481027904" lon="12.052861834928672"><ele>396.33333333333337</ele><time>2026-04-26T08:12:27.878Z</time></trkpt><trkpt lat="43.88439601701489" lon="12.053086554477792"><ele>392.66666666666663</ele><time>2026-04-26T08:12:28.878Z</time></trkpt><trkpt lat="43.884418476901295" lon="12.05331479277258"><ele>389.0</ele><time>2026-04-26T08:12:29.878Z</time></trkpt><trkpt lat="43.884473839445704" lon="12.053549411387028"><ele>386.66666666666663</ele><time>2026-04-26T08:12:30.878Z</time></trkpt><trkpt lat="43.88456139172418" lon="12.05380134301666"><ele>384.3333333333333</ele><time>2026-04-26T08:12:31.878Z</time></trkpt><trkpt lat="43.88465904702409" lon="12.054034091395183"><ele>382.0</ele><time>2026-04-26T08:12:32.878Z</time></trkpt><trkpt lat="43.88475112467273" lon="12.054256461032809"><ele>382.0</ele><time>2026-04-26T08:12:33.878Z</time></trkpt><trkpt lat="43.88483924877099" lon="12.054464188857999"><ele>382.0</ele><time>2026-04-26T08:12:34.878Z</time></trkpt><trkpt lat="43.88492461492542" lon="12.054668704507847"><ele>382.0</ele><time>2026-04-26T08:12:35.878Z</time></trkpt><trkpt lat="43.885013788317586" lon="12.05487587773944"><ele>375.66666666666663</ele><time>2026-04-26T08:12:36.878Z</time></trkpt><trkpt lat="43.88510695638453" lon="12.055087569244915"><ele>369.3333333333333</ele><time>2026-04-26T08:12:37.878Z</time></trkpt><trkpt lat="43.885212997883485" lon="12.055298265286552"><ele>363.0</ele><time>2026-04-26T08:12:38.878Z</time></trkpt><trkpt lat="43.88533276079075" lon="12.055512990237382"><ele>363.0</ele><time>2026-04-26T08:12:39.878Z</time></trkpt><trkpt lat="43.885461431222296" lon="12.055734730905634"><ele>363.0</ele><time>2026-04-26T08:12:40.878Z</time></trkpt><trkpt lat="43.885601958062175" lon="12.055946620602214"><ele>363.0</ele><time>2026-04-26T08:12:41.878Z</time></trkpt><trkpt lat="43.88574573331193" lon="12.056160787274703"><ele>363.6666666666667</ele><time>2026-04-26T08:12:42.878Z</time></trkpt><trkpt lat="43.88588992603901" lon="12.056371197185149"><ele>364.33333333333337</ele><time>2026-04-26T08:12:43.878Z</time></trkpt><trkpt lat="43.88603576326785" lon="12.056583096895318"><ele>365.0</ele><time>2026-04-26T08:12:44.878Z</time></trkpt><trkpt lat="43.88619101502546" lon="12.056799477334392"><ele>359.0</ele><time>2026-04-26T08:12:45.878Z</time></trkpt><trkpt lat="43.88635483291976" lon="12.057017702772958"><ele>353.0</ele><time>2026-04-26T08:12:46.878Z</time></trkpt><trkpt lat="43.88652394413362" lon="12.057228910949409"><ele>353.0</ele><time>2026-04-26T08:12:47.878Z</time></trkpt><trkpt lat="43.88667589931117" lon="12.057408371521378"><ele>353.0</ele><time>2026-04-26T08:12:48.878Z</time></trkpt><trkpt lat="43.88679418385006" lon="12.057548201885735"><ele>353.0</ele><time>2026-04-26T08:12:49.878Z</time></trkpt><trkpt lat="43.88688768567364" lon="12.057662269724291"><ele>351.0</ele><time>2026-04-26T08:12:50.878Z</time></trkpt><trkpt lat="43.886964618876" lon="12.057776468197945"><ele>349.0</ele><time>2026-04-26T08:12:51.878Z</time></trkpt><trkpt lat="43.887014483897175" lon="12.057903738287404"><ele>347.0</ele><time>2026-04-26T08:12:52.878Z</time></trkpt><trkpt lat="43.88701193968005" lon="12.058072366766925"><ele>345.0</ele><time>2026-04-26T08:12:53.878Z</time></trkpt><trkpt lat="43.88698779090162" lon="12.058268827484136"><ele>342.3333333333333</ele><time>2026-04-26T08:12:54.878Z</time></trkpt><trkpt lat="43.88693778322809" lon="12.058492164914364"><ele>339.66666666666663</ele><time>2026-04-26T08:12:55.878Z</time></trkpt><trkpt lat="43.88687412104263" lon="12.058724120079676"><ele>337.0</ele><time>2026-04-26T08:12:56.878Z</time></trkpt><trkpt lat="43.886818340731104" lon="12.058976366532688"><ele>337.66666666666663</ele><time>2026-04-26T08:12:57.878Z</time></trkpt><trkpt lat="43.886732280126246" lon="12.059242966414766"><ele>338.3333333333333</ele><time>2026-04-26T08:12:58.878Z</time></trkpt><trkpt lat="43.88665306697926" lon="12.059526272797193"><ele>339.0</ele><time>2026-04-26T08:12:59.878Z</time></trkpt><trkpt lat="43.8865553258506" lon="12.059798330038666"><ele>335.3333333333333</ele><time>2026-04-26T08:13:00.878Z</time></trkpt><trkpt lat="43.886481463747415" lon="12.060075810700646"><ele>331.66666666666663</ele><time>2026-04-26T08:13:01.878Z</time></trkpt><trkpt lat="43.88640643671106" lon="12.060349510266898"><ele>328.0</ele><time>2026-04-26T08:13:02.878Z</time></trkpt><trkpt lat="43.88633551849206" lon="12.060616428357001"><ele>327.66666666666663</ele><time>2026-04-26T08:13:03.878Z</time></trkpt><trkpt lat="43.886258906604716" lon="12.060869458110213"><ele>327.3333333333333</ele><time>2026-04-26T08:13:04.878Z</time></trkpt><trkpt lat="43.886196127405874" lon="12.061103809696986"><ele>327.0</ele><time>2026-04-26T08:13:05.878Z</time></trkpt><trkpt lat="43.88614158757653" lon="12.06131942694357"><ele>327.0</ele><time>2026-04-26T08:13:06.878Z</time></trkpt><trkpt lat="43.886150127379054" lon="12.061543436336406"><ele>327.0</ele><time>2026-04-26T08:13:07.878Z</time></trkpt><trkpt lat="43.88615442454351" lon="12.06176319214518"><ele>327.0</ele><time>2026-04-26T08:13:08.878Z</time></trkpt><trkpt lat="43.88620597030405" lon="12.061973570876908"><ele>326.6666666666667</ele><time>2026-04-26T08:13:09.878Z</time></trkpt><trkpt lat="43.886276144333515" lon="12.062189922682185"><ele>326.33333333333337</ele><time>2026-04-26T08:13:10.878Z</time></trkpt><trkpt lat="43.88636591312486" lon="12.062386271852176"><ele>326.0</ele><time>2026-04-26T08:13:11.878Z</time></trkpt><trkpt lat="43.88646174334247" lon="12.062603303984696"><ele>326.0</ele><time>2026-04-26T08:13:12.877Z</time></trkpt><trkpt lat="43.886578836792005" lon="12.062805538779774"><ele>326.0</ele><time>2026-04-26T08:13:13.877Z</time></trkpt><trkpt lat="43.88667582778478" lon="12.063029830079804"><ele>326.0</ele><time>2026-04-26T08:13:14.877Z</time></trkpt><trkpt lat="43.88677603241972" lon="12.063245099315392"><ele>325.6666666666667</ele><time>2026-04-26T08:13:15.877Z</time></trkpt><trkpt lat="43.886862103802876" lon="12.063452510029409"><ele>325.3333333333333</ele><time>2026-04-26T08:13:16.877Z</time></trkpt><trkpt lat="43.88695726172732" lon="12.063622125968992"><ele>325.0</ele><time>2026-04-26T08:13:17.877Z</time></trkpt><trkpt lat="43.88704503386607" lon="12.063778280083966"><ele>325.0</ele><time>2026-04-26T08:13:18.877Z</time></trkpt><trkpt lat="43.88712429519018" lon="12.063926197401765"><ele>325.0</ele><time>2026-04-26T08:13:19.877Z</time></trkpt><trkpt lat="43.887209608508414" lon="12.064037228576703"><ele>325.0</ele><time>2026-04-26T08:13:20.877Z</time></trkpt><trkpt lat="43.88731836049292" lon="12.064125061523281"><ele>325.0</ele><time>2026-04-26T08:13:21.877Z</time></trkpt><trkpt lat="43.88745795966575" lon="12.064168847014532"><ele>325.0</ele><time>2026-04-26T08:13:22.877Z</time></trkpt><trkpt lat="43.887587492214756" lon="12.064176181578794"><ele>325.0</ele><time>2026-04-26T08:13:23.877Z</time></trkpt><trkpt lat="43.88775410087882" lon="12.064193428459676"><ele>325.0</ele><time>2026-04-26T08:13:24.877Z</time></trkpt><trkpt lat="43.88793970979089" lon="12.064209848388266"><ele>325.0</ele><time>2026-04-26T08:13:25.877Z</time></trkpt><trkpt lat="43.88811696578462" lon="12.064250189878926"><ele>325.0</ele><time>2026-04-26T08:13:26.877Z</time></trkpt><trkpt lat="43.88828504838416" lon="12.06428272553714"><ele>325.0</ele><time>2026-04-26T08:13:27.877Z</time></trkpt><trkpt lat="43.888435701889826" lon="12.064321831674723"><ele>327.75</ele><time>2026-04-26T08:13:28.877Z</time></trkpt><trkpt lat="43.88857119776624" lon="12.064383834199603"><ele>330.5</ele><time>2026-04-26T08:13:29.877Z</time></trkpt><trkpt lat="43.88869095322555" lon="12.064467986973641"><ele>333.25</ele><time>2026-04-26T08:13:30.877Z</time></trkpt><trkpt lat="43.888758615220496" lon="12.064582931528845"><ele>336.0</ele><time>2026-04-26T08:13:31.877Z</time></trkpt><trkpt lat="43.888831746409494" lon="12.06471875982006"><ele>336.0</ele><time>2026-04-26T08:13:32.877Z</time></trkpt><trkpt lat="43.88884779184599" lon="12.064909138456237"><ele>336.0</ele><time>2026-04-26T08:13:33.877Z</time></trkpt><trkpt lat="43.88887771303892" lon="12.065093914162631"><ele>336.0</ele><time>2026-04-26T08:13:34.877Z</time></trkpt><trkpt lat="43.88890994043715" lon="12.065207583015171"><ele>336.0</ele><time>2026-04-26T08:13:35.877Z</time></trkpt><trkpt lat="43.88896666261174" lon="12.065258297403597"><ele>336.0</ele><time>2026-04-26T08:13:42.877Z</time></trkpt><trkpt lat="43.88898682116519" lon="12.065436000632877"><ele>336.5</ele><time>2026-04-26T08:13:44.876Z</time></trkpt><trkpt lat="43.88899714585751" lon="12.065555149197763"><ele>337.0</ele><time>2026-04-26T08:13:45.876Z</time></trkpt><trkpt lat="43.889007154235905" lon="12.065706006038843"><ele>337.5</ele><time>2026-04-26T08:13:46.876Z</time></trkpt><trkpt lat="43.889024512382406" lon="12.065883130515232"><ele>338.0</ele><time>2026-04-26T08:13:47.876Z</time></trkpt><trkpt lat="43.88904609498449" lon="12.06606179441403"><ele>338.33333333333337</ele><time>2026-04-26T08:13:48.876Z</time></trkpt><trkpt lat="43.88907007728768" lon="12.066252864385897"><ele>338.6666666666667</ele><time>2026-04-26T08:13:49.876Z</time></trkpt><trkpt lat="43.889077971596734" lon="12.066472085280394"><ele>339.0</ele><time>2026-04-26T08:13:50.876Z</time></trkpt><trkpt lat="43.889086907699976" lon="12.066696757072773"><ele>338.0</ele><time>2026-04-26T08:13:51.876Z</time></trkpt><trkpt lat="43.88910213298415" lon="12.066923293215146"><ele>337.0</ele><time>2026-04-26T08:13:52.876Z</time></trkpt><trkpt lat="43.88911922162782" lon="12.067147028058205"><ele>336.0</ele><time>2026-04-26T08:13:53.876Z</time></trkpt><trkpt lat="43.889135507207264" lon="12.067414779478774"><ele>336.3333333333333</ele><time>2026-04-26T08:13:54.876Z</time></trkpt><trkpt lat="43.88915126465621" lon="12.06766562082538"><ele>336.66666666666663</ele><time>2026-04-26T08:13:55.876Z</time></trkpt><trkpt lat="43.88916129234804" lon="12.067921950502589"><ele>337.0</ele><time>2026-04-26T08:13:56.876Z</time></trkpt><trkpt lat="43.889126953447516" lon="12.068169823190393"><ele>335.0</ele><time>2026-04-26T08:13:57.876Z</time></trkpt><trkpt lat="43.88908674063231" lon="12.068419602917"><ele>333.0</ele><time>2026-04-26T08:13:58.876Z</time></trkpt><trkpt lat="43.889041423882304" lon="12.06865669788507"><ele>331.0</ele><time>2026-04-26T08:13:59.876Z</time></trkpt><trkpt lat="43.88900045009416" lon="12.068888640050307"><ele>331.66666666666663</ele><time>2026-04-26T08:14:00.876Z</time></trkpt><trkpt lat="43.88898128732227" lon="12.069116664831053"><ele>332.3333333333333</ele><time>2026-04-26T08:14:01.876Z</time></trkpt><trkpt lat="43.888984699918765" lon="12.069353430769112"><ele>333.0</ele><time>2026-04-26T08:14:02.876Z</time></trkpt><trkpt lat="43.88901573017021" lon="12.06957634748489"><ele>333.0</ele><time>2026-04-26T08:14:03.876Z</time></trkpt><trkpt lat="43.88906510253451" lon="12.069800221572615"><ele>333.0</ele><time>2026-04-26T08:14:04.876Z</time></trkpt><trkpt lat="43.88912730744231" lon="12.070012795524374"><ele>333.0</ele><time>2026-04-26T08:14:05.876Z</time></trkpt><trkpt lat="43.88919285495093" lon="12.070214725576024"><ele>339.6666666666667</ele><time>2026-04-26T08:14:06.876Z</time></trkpt><trkpt lat="43.88926143339439" lon="12.070409925593474"><ele>346.33333333333337</ele><time>2026-04-26T08:14:07.876Z</time></trkpt><trkpt lat="43.88933344529683" lon="12.070610141930317"><ele>353.0</ele><time>2026-04-26T08:14:08.876Z</time></trkpt><trkpt lat="43.88941638966156" lon="12.070789486931124"><ele>353.0</ele><time>2026-04-26T08:14:09.876Z</time></trkpt><trkpt lat="43.889487368956864" lon="12.070986360519921"><ele>353.0</ele><time>2026-04-26T08:14:10.876Z</time></trkpt><trkpt lat="43.88955162095751" lon="12.071183361178962"><ele>353.0</ele><time>2026-04-26T08:14:11.876Z</time></trkpt><trkpt lat="43.88961962338484" lon="12.071380470970103"><ele>353.0</ele><time>2026-04-26T08:14:12.876Z</time></trkpt><trkpt lat="43.88968802723758" lon="12.07158372391135"><ele>353.0</ele><time>2026-04-26T08:14:13.876Z</time></trkpt><trkpt lat="43.88976478991374" lon="12.07180154351648"><ele>353.0</ele><time>2026-04-26T08:14:14.876Z</time></trkpt><trkpt lat="43.88984891804129" lon="12.07201553804315"><ele>358.33333333333337</ele><time>2026-04-26T08:14:15.876Z</time></trkpt><trkpt lat="43.889930124513505" lon="12.072238213909086"><ele>363.6666666666667</ele><time>2026-04-26T08:14:16.876Z</time></trkpt><trkpt lat="43.89001440333201" lon="12.072476426293367"><ele>369.0</ele><time>2026-04-26T08:14:17.876Z</time></trkpt><trkpt lat="43.890101852069684" lon="12.072722491649575"><ele>369.0</ele><time>2026-04-26T08:14:18.876Z</time></trkpt><trkpt lat="43.89018595139607" lon="12.072969250056309"><ele>369.0</ele><time>2026-04-26T08:14:19.876Z</time></trkpt><trkpt lat="43.8902646282513" lon="12.073217791781186"><ele>369.0</ele><time>2026-04-26T08:14:20.876Z</time></trkpt><trkpt lat="43.890325132219" lon="12.073459241470253"><ele>366.3333333333333</ele><time>2026-04-26T08:14:21.876Z</time></trkpt><trkpt lat="43.89034460210275" lon="12.073711366994958"><ele>363.66666666666663</ele><time>2026-04-26T08:14:22.876Z</time></trkpt><trkpt lat="43.8903824941092" lon="12.07395565187918"><ele>361.0</ele><time>2026-04-26T08:14:23.876Z</time></trkpt><trkpt lat="43.890392441795676" lon="12.074222438448313"><ele>356.66666666666663</ele><time>2026-04-26T08:14:24.876Z</time></trkpt><trkpt lat="43.89038600082211" lon="12.074481807067567"><ele>352.3333333333333</ele><time>2026-04-26T08:14:25.876Z</time></trkpt><trkpt lat="43.89034022675731" lon="12.074735399392795"><ele>348.0</ele><time>2026-04-26T08:14:26.876Z</time></trkpt><trkpt lat="43.890300302858876" lon="12.074972440711555"><ele>344.0</ele><time>2026-04-26T08:14:27.876Z</time></trkpt><trkpt lat="43.89026106834438" lon="12.075208397781008"><ele>340.0</ele><time>2026-04-26T08:14:28.876Z</time></trkpt><trkpt lat="43.89016663687449" lon="12.075441865396906"><ele>336.0</ele><time>2026-04-26T08:14:29.876Z</time></trkpt><trkpt lat="43.89010413072638" lon="12.075653973153983"><ele>332.0</ele><time>2026-04-26T08:14:30.876Z</time></trkpt><trkpt lat="43.890040618530286" lon="12.075851525833569"><ele>328.0</ele><time>2026-04-26T08:14:31.875Z</time></trkpt><trkpt lat="43.889976963801786" lon="12.076044546416663"><ele>324.0</ele><time>2026-04-26T08:14:32.875Z</time></trkpt><trkpt lat="43.88991044209201" lon="12.076257618968087"><ele>324.0</ele><time>2026-04-26T08:14:33.875Z</time></trkpt><trkpt lat="43.88984946026731" lon="12.07648546155787"><ele>324.0</ele><time>2026-04-26T08:14:34.875Z</time></trkpt><trkpt lat="43.8897956667646" lon="12.076690623664753"><ele>324.0</ele><time>2026-04-26T08:14:35.875Z</time></trkpt><trkpt lat="43.88970194527544" lon="12.07722674912677"><ele>325.3333333333333</ele><time>2026-04-26T08:14:38.875Z</time></trkpt><trkpt lat="43.889746103647845" lon="12.077418793876449"><ele>326.66666666666663</ele><time>2026-04-26T08:14:39.875Z</time></trkpt><trkpt lat="43.88983019113222" lon="12.077588652764906"><ele>328.0</ele><time>2026-04-26T08:14:40.875Z</time></trkpt><trkpt lat="43.889935824716844" lon="12.077764130873193"><ele>328.0</ele><time>2026-04-26T08:14:41.875Z</time></trkpt><trkpt lat="43.89006081499677" lon="12.077938752152843"><ele>328.0</ele><time>2026-04-26T08:14:42.875Z</time></trkpt><trkpt lat="43.89018780313674" lon="12.078133102566406"><ele>328.0</ele><time>2026-04-26T08:14:43.875Z</time></trkpt><trkpt lat="43.89031864846109" lon="12.078339563073145"><ele>330.66666666666663</ele><time>2026-04-26T08:14:44.875Z</time></trkpt><trkpt lat="43.890442360222785" lon="12.078543934737716"><ele>333.3333333333333</ele><time>2026-04-26T08:14:45.875Z</time></trkpt><trkpt lat="43.89056141150006" lon="12.078757050385434"><ele>336.0</ele><time>2026-04-26T08:14:46.875Z</time></trkpt><trkpt lat="43.89067395738611" lon="12.078940864826828"><ele>333.0</ele><time>2026-04-26T08:14:47.875Z</time></trkpt><trkpt lat="43.89078049672747" lon="12.079115765268948"><ele>330.0</ele><time>2026-04-26T08:14:48.875Z</time></trkpt><trkpt lat="43.8908940010021" lon="12.079296184157528"><ele>327.0</ele><time>2026-04-26T08:14:49.875Z</time></trkpt><trkpt lat="43.89102399373539" lon="12.079458297193089"><ele>334.0</ele><time>2026-04-26T08:14:50.875Z</time></trkpt><trkpt lat="43.89117096119883" lon="12.079614903440328"><ele>341.0</ele><time>2026-04-26T08:14:51.875Z</time></trkpt><trkpt lat="43.89132657455569" lon="12.079759005623785"><ele>348.0</ele><time>2026-04-26T08:14:52.875Z</time></trkpt><trkpt lat="43.89146714685243" lon="12.079878450241862"><ele>350.0</ele><time>2026-04-26T08:14:53.875Z</time></trkpt><trkpt lat="43.8915886231881" lon="12.080004350407805"><ele>352.0</ele><time>2026-04-26T08:14:54.875Z</time></trkpt><trkpt lat="43.89167527425406" lon="12.080165864922993"><ele>354.0</ele><time>2026-04-26T08:14:55.875Z</time></trkpt><trkpt lat="43.8917197134598" lon="12.080367606432807"><ele>356.0</ele><time>2026-04-26T08:14:56.875Z</time></trkpt><trkpt lat="43.89177204480733" lon="12.080570751872607"><ele>354.75</ele><time>2026-04-26T08:14:57.875Z</time></trkpt><trkpt lat="43.89182448182199" lon="12.080769777025234"><ele>353.5</ele><time>2026-04-26T08:14:58.875Z</time></trkpt><trkpt lat="43.89187436645909" lon="12.080951539001788"><ele>352.25</ele><time>2026-04-26T08:14:59.875Z</time></trkpt><trkpt lat="43.891935817705566" lon="12.08110341982757"><ele>351.0</ele><time>2026-04-26T08:15:00.875Z</time></trkpt><trkpt lat="43.89203179121629" lon="12.081222760200912"><ele>351.0</ele><time>2026-04-26T08:15:01.875Z</time></trkpt><trkpt lat="43.89217277089995" lon="12.08128952515012"><ele>351.0</ele><time>2026-04-26T08:15:02.875Z</time></trkpt><trkpt lat="43.89230425780768" lon="12.081357735588153"><ele>351.0</ele><time>2026-04-26T08:15:03.875Z</time></trkpt><trkpt lat="43.89243355520393" lon="12.081409018917999"><ele>351.0</ele><time>2026-04-26T08:15:04.875Z</time></trkpt><trkpt lat="43.892539873541786" lon="12.081483800652284"><ele>352.25</ele><time>2026-04-26T08:15:05.875Z</time></trkpt><trkpt lat="43.89259502587476" lon="12.081637117433129"><ele>353.5</ele><time>2026-04-26T08:15:06.875Z</time></trkpt><trkpt lat="43.89261400799913" lon="12.081822472235372"><ele>354.75</ele><time>2026-04-26T08:15:07.875Z</time></trkpt><trkpt lat="43.892602235192804" lon="12.082002252489715"><ele>356.0</ele><time>2026-04-26T08:15:08.875Z</time></trkpt><trkpt lat="43.89255850809263" lon="12.082181753524754"><ele>353.25</ele><time>2026-04-26T08:15:09.875Z</time></trkpt><trkpt lat="43.89246767390329" lon="12.082320358425932"><ele>350.5</ele><time>2026-04-26T08:15:10.875Z</time></trkpt><trkpt lat="43.892357780455384" lon="12.082440035536504"><ele>347.75</ele><time>2026-04-26T08:15:11.875Z</time></trkpt><trkpt lat="43.89225199273621" lon="12.082560163561674"><ele>345.0</ele><time>2026-04-26T08:15:12.875Z</time></trkpt><trkpt lat="43.89218845245005" lon="12.08270122683228"><ele>345.0</ele><time>2026-04-26T08:15:13.875Z</time></trkpt><trkpt lat="43.892142747881294" lon="12.082875461249456"><ele>345.0</ele><time>2026-04-26T08:15:14.875Z</time></trkpt><trkpt lat="43.89216281345201" lon="12.083073852191804"><ele>345.0</ele><time>2026-04-26T08:15:15.875Z</time></trkpt><trkpt lat="43.89219761380601" lon="12.083281971801538"><ele>345.0</ele><time>2026-04-26T08:15:16.875Z</time></trkpt><trkpt lat="43.89224581047206" lon="12.083505853497243"><ele>345.6666666666667</ele><time>2026-04-26T08:15:17.875Z</time></trkpt><trkpt lat="43.892247047529644" lon="12.083755661525306"><ele>346.33333333333337</ele><time>2026-04-26T08:15:18.875Z</time></trkpt><trkpt lat="43.89222655917815" lon="12.0840075398096"><ele>347.0</ele><time>2026-04-26T08:15:19.875Z</time></trkpt><trkpt lat="43.892185714808136" lon="12.084258112064303"><ele>348.0</ele><time>2026-04-26T08:15:20.875Z</time></trkpt><trkpt lat="43.89213268026432" lon="12.084514910003358"><ele>349.0</ele><time>2026-04-26T08:15:21.875Z</time></trkpt><trkpt lat="43.89207814556903" lon="12.08475348155625"><ele>350.0</ele><time>2026-04-26T08:15:22.875Z</time></trkpt><trkpt lat="43.892032641417416" lon="12.084971670096554"><ele>354.0</ele><time>2026-04-26T08:15:23.875Z</time></trkpt><trkpt lat="43.89197783004208" lon="12.085182556421525"><ele>358.0</ele><time>2026-04-26T08:15:24.875Z</time></trkpt><trkpt lat="43.89196475142586" lon="12.085402627659803"><ele>362.0</ele><time>2026-04-26T08:15:25.875Z</time></trkpt><trkpt lat="43.89196202726284" lon="12.08562864805533"><ele>360.33333333333337</ele><time>2026-04-26T08:15:26.875Z</time></trkpt><trkpt lat="43.89196368164511" lon="12.0858502936698"><ele>358.6666666666667</ele><time>2026-04-26T08:15:27.875Z</time></trkpt><trkpt lat="43.891965009616314" lon="12.08607624400747"><ele>357.0</ele><time>2026-04-26T08:15:28.875Z</time></trkpt><trkpt lat="43.89196514176784" lon="12.086300274298942"><ele>357.0</ele><time>2026-04-26T08:15:29.875Z</time></trkpt><trkpt lat="43.89196354780565" lon="12.086523274911194"><ele>357.0</ele><time>2026-04-26T08:15:30.875Z</time></trkpt><trkpt lat="43.89196439118126" lon="12.086741634205314"><ele>357.0</ele><time>2026-04-26T08:15:31.875Z</time></trkpt><trkpt lat="43.891965231386614" lon="12.086958747322875"><ele>354.6666666666667</ele><time>2026-04-26T08:15:32.875Z</time></trkpt><trkpt lat="43.89196985720156" lon="12.087180351679642"><ele>352.33333333333337</ele><time>2026-04-26T08:15:33.875Z</time></trkpt><trkpt lat="43.89197269699443" lon="12.087398290838465"><ele>350.0</ele><time>2026-04-26T08:15:34.875Z</time></trkpt><trkpt lat="43.89197664630915" lon="12.087622042370882"><ele>349.33333333333337</ele><time>2026-04-26T08:15:35.875Z</time></trkpt><trkpt lat="43.891979451772805" lon="12.087849209839543"><ele>348.6666666666667</ele><time>2026-04-26T08:15:36.875Z</time></trkpt><trkpt lat="43.89197824895631" lon="12.088076394179527"><ele>348.0</ele><time>2026-04-26T08:15:37.875Z</time></trkpt><trkpt lat="43.89198503010329" lon="12.08830814794832"><ele>347.75</ele><time>2026-04-26T08:15:38.875Z</time></trkpt><trkpt lat="43.8919887448603" lon="12.088530424842634"><ele>347.5</ele><time>2026-04-26T08:15:39.875Z</time></trkpt><trkpt lat="43.891989556339176" lon="12.088737189373775"><ele>347.25</ele><time>2026-04-26T08:15:40.874Z</time></trkpt><trkpt lat="43.891997817931724" lon="12.08891913746022"><ele>347.0</ele><time>2026-04-26T08:15:41.874Z</time></trkpt><trkpt lat="43.89202177963851" lon="12.089079747520302"><ele>345.5</ele><time>2026-04-26T08:15:42.874Z</time></trkpt><trkpt lat="43.892083320013164" lon="12.089230241496818"><ele>344.0</ele><time>2026-04-26T08:15:43.874Z</time></trkpt><trkpt lat="43.892178618911224" lon="12.089340630598276"><ele>342.5</ele><time>2026-04-26T08:15:44.874Z</time></trkpt><trkpt lat="43.89230992603763" lon="12.089388304688061"><ele>341.0</ele><time>2026-04-26T08:15:45.874Z</time></trkpt><trkpt lat="43.8924637842816" lon="12.089385200715935"><ele>341.0</ele><time>2026-04-26T08:15:46.874Z</time></trkpt><trkpt lat="43.89262770453153" lon="12.089366326309866"><ele>341.0</ele><time>2026-04-26T08:15:47.874Z</time></trkpt><trkpt lat="43.89281449246764" lon="12.08933615259532"><ele>341.0</ele><time>2026-04-26T08:15:48.874Z</time></trkpt><trkpt lat="43.89299776977258" lon="12.089297914796575"><ele>341.0</ele><time>2026-04-26T08:15:49.874Z</time></trkpt><trkpt lat="43.89318262032961" lon="12.089278609404742"><ele>341.0</ele><time>2026-04-26T08:15:50.873Z</time></trkpt><trkpt lat="43.89335357528355" lon="12.089267136716726"><ele>341.0</ele><time>2026-04-26T08:15:51.873Z</time></trkpt><trkpt lat="43.89351771499658" lon="12.089274189209876"><ele>340.0</ele><time>2026-04-26T08:15:52.873Z</time></trkpt><trkpt lat="43.893669640211016" lon="12.089289033772262"><ele>339.0</ele><time>2026-04-26T08:15:53.873Z</time></trkpt><trkpt lat="43.89380023017148" lon="12.089310121367204"><ele>338.0</ele><time>2026-04-26T08:15:54.873Z</time></trkpt><trkpt lat="43.893913227711316" lon="12.089349263948776"><ele>337.0</ele><time>2026-04-26T08:15:55.873Z</time></trkpt><trkpt lat="43.89401298646321" lon="12.089425333765064"><ele>337.0</ele><time>2026-04-26T08:15:56.873Z</time></trkpt><trkpt lat="43.894096774999866" lon="12.089545845260895"><ele>337.0</ele><time>2026-04-26T08:15:57.873Z</time></trkpt><trkpt lat="43.89414974257557" lon="12.089709176951194"><ele>337.0</ele><time>2026-04-26T08:15:58.873Z</time></trkpt><trkpt lat="43.894169286198704" lon="12.089906526939778"><ele>337.0</ele><time>2026-04-26T08:15:59.873Z</time></trkpt><trkpt lat="43.89418644388266" lon="12.09012326834538"><ele>334.3333333333333</ele><time>2026-04-26T08:16:00.873Z</time></trkpt><trkpt lat="43.8941913383414" lon="12.090348890908896"><ele>331.6666666666667</ele><time>2026-04-26T08:16:01.873Z</time></trkpt><trkpt lat="43.89419012500071" lon="12.090571093781044"><ele>329.0</ele><time>2026-04-26T08:16:02.873Z</time></trkpt><trkpt lat="43.894169551426906" lon="12.090780538687264"><ele>329.0</ele><time>2026-04-26T08:16:03.873Z</time></trkpt><trkpt lat="43.89410973612888" lon="12.090978410161046"><ele>329.0</ele><time>2026-04-26T08:16:04.873Z</time></trkpt><trkpt lat="43.89401364382361" lon="12.091170510073193"><ele>329.0</ele><time>2026-04-26T08:16:05.873Z</time></trkpt><trkpt lat="43.8939110242008" lon="12.09135605210563"><ele>329.0</ele><time>2026-04-26T08:16:06.873Z</time></trkpt><trkpt lat="43.8938157252209" lon="12.091525813109193"><ele>329.0</ele><time>2026-04-26T08:16:07.873Z</time></trkpt><trkpt lat="43.89373510918295" lon="12.09167653854908"><ele>329.0</ele><time>2026-04-26T08:16:08.873Z</time></trkpt><trkpt lat="43.8936739340799" lon="12.091809335919276"><ele>329.0</ele><time>2026-04-26T08:16:09.873Z</time></trkpt><trkpt lat="43.89365088469605" lon="12.091942587628374"><ele>329.75</ele><time>2026-04-26T08:16:10.873Z</time></trkpt><trkpt lat="43.893671909748136" lon="12.09208982962364"><ele>330.5</ele><time>2026-04-26T08:16:11.873Z</time></trkpt><trkpt lat="43.89374045968473" lon="12.09221740662584"><ele>331.25</ele><time>2026-04-26T08:16:12.873Z</time></trkpt><trkpt lat="43.89386271043213" lon="12.092319811027918"><ele>332.0</ele><time>2026-04-26T08:16:13.873Z</time></trkpt><trkpt lat="43.8940005616119" lon="12.092401214271993"><ele>335.33333333333337</ele><time>2026-04-26T08:16:14.873Z</time></trkpt><trkpt lat="43.8941569658685" lon="12.092499618902993"><ele>338.6666666666667</ele><time>2026-04-26T08:16:15.873Z</time></trkpt><trkpt lat="43.89432809608362" lon="12.092600833644141"><ele>342.0</ele><time>2026-04-26T08:16:16.873Z</time></trkpt><trkpt lat="43.89449764057361" lon="12.092717646427689"><ele>342.0</ele><time>2026-04-26T08:16:17.873Z</time></trkpt><trkpt lat="43.89467571769577" lon="12.092831340520199"><ele>342.0</ele><time>2026-04-26T08:16:18.873Z</time></trkpt><trkpt lat="43.89485531073828" lon="12.092950762840506"><ele>342.0</ele><time>2026-04-26T08:16:19.873Z</time></trkpt><trkpt lat="43.89503134406412" lon="12.093069623238858"><ele>339.3333333333333</ele><time>2026-04-26T08:16:20.873Z</time></trkpt><trkpt lat="43.89519350495594" lon="12.09320174543419"><ele>336.66666666666663</ele><time>2026-04-26T08:16:21.873Z</time></trkpt><trkpt lat="43.895344912554" lon="12.093340493588528"><ele>334.0</ele><time>2026-04-26T08:16:22.873Z</time></trkpt><trkpt lat="43.89548674782434" lon="12.093461803675742"><ele>334.0</ele><time>2026-04-26T08:16:23.873Z</time></trkpt><trkpt lat="43.895601345691304" lon="12.093565991208553"><ele>334.0</ele><time>2026-04-26T08:16:24.873Z</time></trkpt><trkpt lat="43.89568528793273" lon="12.0936806455229"><ele>334.0</ele><time>2026-04-26T08:16:25.873Z</time></trkpt><trkpt lat="43.8957727970779" lon="12.093764946214518"><ele>334.0</ele><time>2026-04-26T08:16:26.873Z</time></trkpt><trkpt lat="43.89586469084947" lon="12.093830426889703"><ele>330.2</ele><time>2026-04-26T08:16:27.873Z</time></trkpt><trkpt lat="43.895960627150856" lon="12.093867206587472"><ele>326.4</ele><time>2026-04-26T08:16:28.873Z</time></trkpt><trkpt lat="43.89606250241183" lon="12.093837840484897"><ele>322.6</ele><time>2026-04-26T08:16:29.873Z</time></trkpt><trkpt lat="43.89615651617739" lon="12.093814647909955"><ele>318.8</ele><time>2026-04-26T08:16:30.872Z</time></trkpt><trkpt lat="43.89624163235653" lon="12.093789157176564"><ele>315.0</ele><time>2026-04-26T08:16:31.872Z</time></trkpt><trkpt lat="43.896314098533395" lon="12.093743153465518"><ele>315.0</ele><time>2026-04-26T08:16:32.872Z</time></trkpt><trkpt lat="43.89638103206733" lon="12.093681171121652"><ele>315.0</ele><time>2026-04-26T08:16:33.872Z</time></trkpt><trkpt lat="43.896478180309245" lon="12.093588683627768"><ele>315.0</ele><time>2026-04-26T08:16:35.872Z</time></trkpt><trkpt lat="43.896529546462475" lon="12.093509961641601"><ele>315.0</ele><time>2026-04-26T08:16:37.872Z</time></trkpt><trkpt lat="43.89661898142966" lon="12.093230386443683"><ele>318.4</ele><time>2026-04-26T08:18:46.87Z</time></trkpt><trkpt lat="43.89668940586803" lon="12.09313497830067"><ele>321.8</ele><time>2026-04-26T08:18:47.87Z</time></trkpt><trkpt lat="43.896798201776654" lon="12.093157854479037"><ele>325.20000000000005</ele><time>2026-04-26T08:18:48.87Z</time></trkpt><trkpt lat="43.89687223553418" lon="12.09315042605111"><ele>328.6</ele><time>2026-04-26T08:18:49.87Z</time></trkpt><trkpt lat="43.89695890721512" lon="12.093202333031922"><ele>332.0</ele><time>2026-04-26T08:18:50.87Z</time></trkpt><trkpt lat="43.89705000333872" lon="12.093260694461803"><ele>333.0</ele><time>2026-04-26T08:18:51.869Z</time></trkpt><trkpt lat="43.89710992973515" lon="12.093321679042475"><ele>334.0</ele><time>2026-04-26T08:18:52.867Z</time></trkpt><trkpt lat="43.89713468912236" lon="12.09342285858698"><ele>335.0</ele><time>2026-04-26T08:18:53.865Z</time></trkpt><trkpt lat="43.897146419846344" lon="12.093552200682767"><ele>336.0</ele><time>2026-04-26T08:18:54.863Z</time></trkpt><trkpt lat="43.89711271992531" lon="12.093715582516657"><ele>337.0</ele><time>2026-04-26T08:18:55.862Z</time></trkpt><trkpt lat="43.897080229827544" lon="12.0938711509853"><ele>337.0</ele><time>2026-04-26T08:18:56.86Z</time></trkpt><trkpt lat="43.89705637272151" lon="12.093992220304543"><ele>337.0</ele><time>2026-04-26T08:18:57.859Z</time></trkpt><trkpt lat="43.89706467712701" lon="12.09413001619138"><ele>337.0</ele><time>2026-04-26T08:18:58.858Z</time></trkpt><trkpt lat="43.89708927706683" lon="12.09425069014071"><ele>337.0</ele><time>2026-04-26T08:18:59.856Z</time></trkpt><trkpt lat="43.89713481416119" lon="12.094357469921432"><ele>337.0</ele><time>2026-04-26T08:19:00.855Z</time></trkpt><trkpt lat="43.897210927358714" lon="12.094495589938875"><ele>336.25</ele><time>2026-04-26T08:19:01.854Z</time></trkpt><trkpt lat="43.89729809253681" lon="12.094632893329337"><ele>335.5</ele><time>2026-04-26T08:19:02.853Z</time></trkpt><trkpt lat="43.89728550712794" lon="12.094826012431641"><ele>334.75</ele><time>2026-04-26T08:19:03.852Z</time></trkpt><trkpt lat="43.89731455852682" lon="12.095007612306533"><ele>334.0</ele><time>2026-04-26T08:19:04.851Z</time></trkpt><trkpt lat="43.89734507682137" lon="12.0951431549057"><ele>333.0</ele><time>2026-04-26T08:19:05.851Z</time></trkpt><trkpt lat="43.897390022611056" lon="12.095299252351978"><ele>332.0</ele><time>2026-04-26T08:19:06.85Z</time></trkpt><trkpt lat="43.89745424598168" lon="12.095408027596797"><ele>331.0</ele><time>2026-04-26T08:19:07.849Z</time></trkpt><trkpt lat="43.897583779976415" lon="12.095519229013416"><ele>330.0</ele><time>2026-04-26T08:19:08.848Z</time></trkpt><trkpt lat="43.89772479608148" lon="12.095538730663703"><ele>330.0</ele><time>2026-04-26T08:19:09.848Z</time></trkpt><trkpt lat="43.89786026120614" lon="12.095518826229027"><ele>330.0</ele><time>2026-04-26T08:19:10.847Z</time></trkpt><trkpt lat="43.89795736471546" lon="12.095521769026696"><ele>330.0</ele><time>2026-04-26T08:19:11.847Z</time></trkpt><trkpt lat="43.89802388668299" lon="12.09556518152011"><ele>330.0</ele><time>2026-04-26T08:19:12.846Z</time></trkpt><trkpt lat="43.8980736808648" lon="12.095702910926647"><ele>330.0</ele><time>2026-04-26T08:19:14.845Z</time></trkpt><trkpt lat="43.89806373932303" lon="12.095822561269905"><ele>326.25</ele><time>2026-04-26T08:19:15.845Z</time></trkpt><trkpt lat="43.898013995367826" lon="12.095965378666289"><ele>322.5</ele><time>2026-04-26T08:19:16.844Z</time></trkpt><trkpt lat="43.897967401539084" lon="12.096128973302392"><ele>318.75</ele><time>2026-04-26T08:19:17.844Z</time></trkpt><trkpt lat="43.89794658424748" lon="12.096298784216959"><ele>315.0</ele><time>2026-04-26T08:19:18.843Z</time></trkpt><trkpt lat="43.897991505753346" lon="12.096497652495204"><ele>314.0</ele><time>2026-04-26T08:19:19.843Z</time></trkpt><trkpt lat="43.898025919086685" lon="12.096670963878434"><ele>313.0</ele><time>2026-04-26T08:19:20.843Z</time></trkpt><trkpt lat="43.898072092705654" lon="12.09682491342654"><ele>312.0</ele><time>2026-04-26T08:19:21.842Z</time></trkpt><trkpt lat="43.898076288610355" lon="12.097021619679346"><ele>311.0</ele><time>2026-04-26T08:19:22.842Z</time></trkpt><trkpt lat="43.89812810125054" lon="12.097167834357133"><ele>311.0</ele><time>2026-04-26T08:19:23.842Z</time></trkpt><trkpt lat="43.89818409235126" lon="12.097307527350353"><ele>311.0</ele><time>2026-04-26T08:19:24.842Z</time></trkpt><trkpt lat="43.89825033628077" lon="12.097485145587902"><ele>311.0</ele><time>2026-04-26T08:19:25.841Z</time></trkpt><trkpt lat="43.8983225476978" lon="12.097632695273806"><ele>311.0</ele><time>2026-04-26T08:19:26.841Z</time></trkpt><trkpt lat="43.89839104308743" lon="12.097782434157558"><ele>314.5</ele><time>2026-04-26T08:19:27.841Z</time></trkpt><trkpt lat="43.89851453767618" lon="12.097870975715898"><ele>318.0</ele><time>2026-04-26T08:19:28.841Z</time></trkpt><trkpt lat="43.89864095010216" lon="12.097939772935723"><ele>321.5</ele><time>2026-04-26T08:19:29.841Z</time></trkpt><trkpt lat="43.89877203631776" lon="12.09801001670033"><ele>325.0</ele><time>2026-04-26T08:19:30.84Z</time></trkpt><trkpt lat="43.89887409313998" lon="12.098127271115455"><ele>318.25</ele><time>2026-04-26T08:19:31.84Z</time></trkpt><trkpt lat="43.89895148396331" lon="12.098255215541002"><ele>311.5</ele><time>2026-04-26T08:19:32.84Z</time></trkpt><trkpt lat="43.898987939537626" lon="12.098421769450075"><ele>304.75</ele><time>2026-04-26T08:19:33.84Z</time></trkpt><trkpt lat="43.899033238947894" lon="12.098628640766208"><ele>298.0</ele><time>2026-04-26T08:19:34.84Z</time></trkpt><trkpt lat="43.89909847934695" lon="12.09883024359792"><ele>298.0</ele><time>2026-04-26T08:19:35.84Z</time></trkpt><trkpt lat="43.89919575444796" lon="12.09904760071062"><ele>298.0</ele><time>2026-04-26T08:19:36.839Z</time></trkpt><trkpt lat="43.89929420441914" lon="12.099222899798853"><ele>298.0</ele><time>2026-04-26T08:19:37.839Z</time></trkpt><trkpt lat="43.89937271730435" lon="12.09938832146466"><ele>299.66666666666663</ele><time>2026-04-26T08:19:38.839Z</time></trkpt><trkpt lat="43.89940150173727" lon="12.09958252334965"><ele>301.3333333333333</ele><time>2026-04-26T08:19:39.839Z</time></trkpt><trkpt lat="43.89939544724485" lon="12.09981909013992"><ele>303.0</ele><time>2026-04-26T08:19:40.839Z</time></trkpt><trkpt lat="43.89937713933764" lon="12.100060158005206"><ele>303.0</ele><time>2026-04-26T08:19:41.839Z</time></trkpt><trkpt lat="43.89936208337438" lon="12.100271993437026"><ele>303.0</ele><time>2026-04-26T08:19:42.839Z</time></trkpt><trkpt lat="43.89935545060134" lon="12.100454339923445"><ele>303.0</ele><time>2026-04-26T08:19:43.839Z</time></trkpt><trkpt lat="43.899371937724254" lon="12.10062858866182"><ele>303.0</ele><time>2026-04-26T08:19:44.839Z</time></trkpt><trkpt lat="43.89942786886173" lon="12.100774703759823"><ele>300.25</ele><time>2026-04-26T08:19:45.839Z</time></trkpt><trkpt lat="43.89954949800739" lon="12.10087441091412"><ele>297.5</ele><time>2026-04-26T08:19:46.838Z</time></trkpt><trkpt lat="43.8996753394636" lon="12.100950859618404"><ele>294.75</ele><time>2026-04-26T08:19:47.838Z</time></trkpt><trkpt lat="43.89980119665747" lon="12.101021288691287"><ele>292.0</ele><time>2026-04-26T08:19:48.838Z</time></trkpt><trkpt lat="43.8999031101265" lon="12.101135892214536"><ele>292.0</ele><time>2026-04-26T08:19:49.838Z</time></trkpt><trkpt lat="43.89998160053837" lon="12.10130085012054"><ele>292.0</ele><time>2026-04-26T08:19:50.838Z</time></trkpt><trkpt lat="43.90005634973028" lon="12.101452918383591"><ele>292.0</ele><time>2026-04-26T08:19:51.838Z</time></trkpt><trkpt lat="43.90014368359252" lon="12.1015744872832"><ele>292.0</ele><time>2026-04-26T08:19:52.838Z</time></trkpt><trkpt lat="43.900252896089" lon="12.101648306053434"><ele>291.4</ele><time>2026-04-26T08:19:53.838Z</time></trkpt><trkpt lat="43.90037676098808" lon="12.101697519023116"><ele>290.79999999999995</ele><time>2026-04-26T08:19:54.838Z</time></trkpt><trkpt lat="43.90048262119261" lon="12.10173926435608"><ele>290.2</ele><time>2026-04-26T08:19:55.838Z</time></trkpt><trkpt lat="43.900547591092995" lon="12.101814241708361"><ele>289.59999999999997</ele><time>2026-04-26T08:19:56.838Z</time></trkpt><trkpt lat="43.900592877452425" lon="12.101923849461565"><ele>289.0</ele><time>2026-04-26T08:19:57.838Z</time></trkpt><trkpt lat="43.90060877415693" lon="12.102076183935884"><ele>289.0</ele><time>2026-04-26T08:19:58.838Z</time></trkpt><trkpt lat="43.90056985904376" lon="12.102217756990298"><ele>289.0</ele><time>2026-04-26T08:19:59.838Z</time></trkpt><trkpt lat="43.90048635653779" lon="12.102331974109145"><ele>289.0</ele><time>2026-04-26T08:20:00.838Z</time></trkpt><trkpt lat="43.900393231323775" lon="12.102435353143509"><ele>289.0</ele><time>2026-04-26T08:20:01.838Z</time></trkpt><trkpt lat="43.900283624757726" lon="12.102544963579843"><ele>291.0</ele><time>2026-04-26T08:20:02.837Z</time></trkpt><trkpt lat="43.90022054190718" lon="12.102690086196613"><ele>293.0</ele><time>2026-04-26T08:20:03.836Z</time></trkpt><trkpt lat="43.90016758318409" lon="12.102850089424152"><ele>295.0</ele><time>2026-04-26T08:20:04.836Z</time></trkpt><trkpt lat="43.90015181800659" lon="12.103054495586102"><ele>297.0</ele><time>2026-04-26T08:20:05.836Z</time></trkpt><trkpt lat="43.90013144798563" lon="12.103263508533937"><ele>299.3333333333333</ele><time>2026-04-26T08:20:06.836Z</time></trkpt><trkpt lat="43.90014773851283" lon="12.1035038569078"><ele>301.66666666666663</ele><time>2026-04-26T08:20:07.836Z</time></trkpt><trkpt lat="43.90016263595465" lon="12.10374130943903"><ele>304.0</ele><time>2026-04-26T08:20:08.836Z</time></trkpt><trkpt lat="43.90016917209212" lon="12.103966484042813"><ele>302.0</ele><time>2026-04-26T08:20:09.836Z</time></trkpt><trkpt lat="43.90018540114208" lon="12.104209533521319"><ele>300.0</ele><time>2026-04-26T08:20:10.836Z</time></trkpt><trkpt lat="43.900222717121466" lon="12.104451537314285"><ele>298.0</ele><time>2026-04-26T08:20:11.836Z</time></trkpt><trkpt lat="43.90028770259235" lon="12.104684393774647"><ele>294.0</ele><time>2026-04-26T08:20:12.836Z</time></trkpt><trkpt lat="43.90036306871589" lon="12.104919339214202"><ele>290.0</ele><time>2026-04-26T08:20:13.836Z</time></trkpt><trkpt lat="43.90043422739719" lon="12.105155115629243"><ele>286.0</ele><time>2026-04-26T08:20:14.836Z</time></trkpt><trkpt lat="43.90051563808379" lon="12.10539412637711"><ele>286.0</ele><time>2026-04-26T08:20:15.836Z</time></trkpt><trkpt lat="43.900606793050706" lon="12.10563191975254"><ele>286.0</ele><time>2026-04-26T08:20:16.836Z</time></trkpt><trkpt lat="43.90068570224758" lon="12.105872942270606"><ele>286.0</ele><time>2026-04-26T08:20:17.836Z</time></trkpt><trkpt lat="43.90074773686849" lon="12.106118299558618"><ele>280.3333333333333</ele><time>2026-04-26T08:20:18.836Z</time></trkpt><trkpt lat="43.900790647592494" lon="12.106372671216137"><ele>274.6666666666667</ele><time>2026-04-26T08:20:19.836Z</time></trkpt><trkpt lat="43.9008093111572" lon="12.106623814194743"><ele>269.0</ele><time>2026-04-26T08:20:20.836Z</time></trkpt><trkpt lat="43.90080699455942" lon="12.106880122274177"><ele>267.33333333333337</ele><time>2026-04-26T08:20:21.836Z</time></trkpt><trkpt lat="43.90079190033563" lon="12.107129941348596"><ele>265.6666666666667</ele><time>2026-04-26T08:20:22.836Z</time></trkpt><trkpt lat="43.900767144318806" lon="12.107384069865928"><ele>264.0</ele><time>2026-04-26T08:20:23.836Z</time></trkpt><trkpt lat="43.900744531086865" lon="12.10764075021109"><ele>264.0</ele><time>2026-04-26T08:20:24.836Z</time></trkpt><trkpt lat="43.90071825181854" lon="12.107902648033987"><ele>264.0</ele><time>2026-04-26T08:20:25.836Z</time></trkpt><trkpt lat="43.9006943670358" lon="12.108165349820055"><ele>264.0</ele><time>2026-04-26T08:20:26.836Z</time></trkpt><trkpt lat="43.90067164094117" lon="12.10842646409272"><ele>263.3333333333333</ele><time>2026-04-26T08:20:27.836Z</time></trkpt><trkpt lat="43.90065998059949" lon="12.10867606589846"><ele>262.66666666666663</ele><time>2026-04-26T08:20:28.836Z</time></trkpt><trkpt lat="43.90067026282435" lon="12.108914262015963"><ele>262.0</ele><time>2026-04-26T08:20:29.836Z</time></trkpt><trkpt lat="43.900701271295254" lon="12.10913995907685"><ele>257.66666666666663</ele><time>2026-04-26T08:20:30.836Z</time></trkpt><trkpt lat="43.900745377372026" lon="12.109357717143107"><ele>253.33333333333331</ele><time>2026-04-26T08:20:31.836Z</time></trkpt><trkpt lat="43.90081453832929" lon="12.109564629756175"><ele>249.0</ele><time>2026-04-26T08:20:32.836Z</time></trkpt><trkpt lat="43.90090918050998" lon="12.10976854420963"><ele>250.66666666666669</ele><time>2026-04-26T08:20:33.836Z</time></trkpt><trkpt lat="43.90101467237322" lon="12.10997451713361"><ele>252.33333333333334</ele><time>2026-04-26T08:20:34.836Z</time></trkpt><trkpt lat="43.9011174914018" lon="12.11019086960209"><ele>254.0</ele><time>2026-04-26T08:20:35.836Z</time></trkpt><trkpt lat="43.90123005759392" lon="12.110408868976783"><ele>254.0</ele><time>2026-04-26T08:20:36.836Z</time></trkpt><trkpt lat="43.901328599308926" lon="12.1105838990073"><ele>254.0</ele><time>2026-04-26T08:20:37.836Z</time></trkpt><trkpt lat="43.901405818517986" lon="12.110724796001394"><ele>254.0</ele><time>2026-04-26T08:20:38.836Z</time></trkpt><trkpt lat="43.90145621419696" lon="12.11086553470104"><ele>254.0</ele><time>2026-04-26T08:20:39.836Z</time></trkpt><trkpt lat="43.90149272985784" lon="12.111015690255863"><ele>255.25</ele><time>2026-04-26T08:20:40.836Z</time></trkpt><trkpt lat="43.901452593691204" lon="12.111201644152224"><ele>256.5</ele><time>2026-04-26T08:20:41.836Z</time></trkpt><trkpt lat="43.90137900913588" lon="12.111387033448098"><ele>257.75</ele><time>2026-04-26T08:20:42.836Z</time></trkpt><trkpt lat="43.901322469122974" lon="12.111572439321073"><ele>259.0</ele><time>2026-04-26T08:20:43.836Z</time></trkpt><trkpt lat="43.901288961119896" lon="12.111778468826701"><ele>262.3333333333333</ele><time>2026-04-26T08:20:44.836Z</time></trkpt><trkpt lat="43.901296583666706" lon="12.11199084465623"><ele>265.6666666666667</ele><time>2026-04-26T08:20:45.836Z</time></trkpt><trkpt lat="43.90132931852017" lon="12.1122012808018"><ele>269.0</ele><time>2026-04-26T08:20:46.836Z</time></trkpt><trkpt lat="43.90140774821256" lon="12.112393618178377"><ele>267.33333333333337</ele><time>2026-04-26T08:20:47.835Z</time></trkpt><trkpt lat="43.90152341363269" lon="12.112589545318288"><ele>265.6666666666667</ele><time>2026-04-26T08:20:48.835Z</time></trkpt><trkpt lat="43.90163331920198" lon="12.11278709369467"><ele>264.0</ele><time>2026-04-26T08:20:49.835Z</time></trkpt><trkpt lat="43.901738481883534" lon="12.112976632959576"><ele>266.0</ele><time>2026-04-26T08:20:50.835Z</time></trkpt><trkpt lat="43.90182481010169" lon="12.113166464437976"><ele>268.0</ele><time>2026-04-26T08:20:51.835Z</time></trkpt><trkpt lat="43.90191745885025" lon="12.11333866329259"><ele>270.0</ele><time>2026-04-26T08:20:52.835Z</time></trkpt><trkpt lat="43.901982154308584" lon="12.11350585528214"><ele>270.0</ele><time>2026-04-26T08:20:53.835Z</time></trkpt><trkpt lat="43.90205672537341" lon="12.113630028806941"><ele>270.0</ele><time>2026-04-26T08:20:54.835Z</time></trkpt><trkpt lat="43.90212154171894" lon="12.113746823130281"><ele>270.0</ele><time>2026-04-26T08:20:55.835Z</time></trkpt><trkpt lat="43.90216015786988" lon="12.113829236937582"><ele>270.0</ele><time>2026-04-26T08:20:56.835Z</time></trkpt><trkpt lat="43.90222245008221" lon="12.113967761915724"><ele>270.0</ele><time>2026-04-26T08:20:58.835Z</time></trkpt><trkpt lat="43.90228878441806" lon="12.114065477160361"><ele>270.0</ele><time>2026-04-26T08:21:00.835Z</time></trkpt><trkpt lat="43.902366951456635" lon="12.11396944833022"><ele>270.0</ele><time>2026-04-26T08:21:31.835Z</time></trkpt><trkpt lat="43.90244547558863" lon="12.114008282835007"><ele>270.0</ele><time>2026-04-26T08:23:03.831Z</time></trkpt><trkpt lat="43.90258399313241" lon="12.114069919470838"><ele>270.0</ele><time>2026-04-26T08:23:05.831Z</time></trkpt><trkpt lat="43.90265504884031" lon="12.114083125583784"><ele>270.0</ele><time>2026-04-26T08:23:06.831Z</time></trkpt><trkpt lat="43.9027456426621" lon="12.1140516877813"><ele>267.5</ele><time>2026-04-26T08:23:07.831Z</time></trkpt><trkpt lat="43.90283358889347" lon="12.11397847855596"><ele>265.0</ele><time>2026-04-26T08:23:08.831Z</time></trkpt><trkpt lat="43.902930481032556" lon="12.113850736396282"><ele>262.5</ele><time>2026-04-26T08:23:09.831Z</time></trkpt><trkpt lat="43.903030821685505" lon="12.11371602464588"><ele>260.0</ele><time>2026-04-26T08:23:10.831Z</time></trkpt><trkpt lat="43.903143539718776" lon="12.113588407199266"><ele>260.0</ele><time>2026-04-26T08:23:11.831Z</time></trkpt><trkpt lat="43.903254876891296" lon="12.113462881129454"><ele>260.0</ele><time>2026-04-26T08:23:12.831Z</time></trkpt><trkpt lat="43.90335853431414" lon="12.113359593553811"><ele>260.0</ele><time>2026-04-26T08:23:13.831Z</time></trkpt><trkpt lat="43.90347957368949" lon="12.113253498219477"><ele>260.0</ele><time>2026-04-26T08:23:14.831Z</time></trkpt><trkpt lat="43.903614128402715" lon="12.113156780145996"><ele>265.0</ele><time>2026-04-26T08:23:15.831Z</time></trkpt><trkpt lat="43.90374485259883" lon="12.113058596537918"><ele>270.0</ele><time>2026-04-26T08:23:16.831Z</time></trkpt><trkpt lat="43.90388395973906" lon="12.112979757394589"><ele>275.0</ele><time>2026-04-26T08:23:17.831Z</time></trkpt><trkpt lat="43.90405182009176" lon="12.11296938559831"><ele>275.0</ele><time>2026-04-26T08:23:18.831Z</time></trkpt><trkpt lat="43.904215528862906" lon="12.112938002424176"><ele>275.0</ele><time>2026-04-26T08:23:19.831Z</time></trkpt><trkpt lat="43.90438349734753" lon="12.11292522753401"><ele>275.0</ele><time>2026-04-26T08:23:20.831Z</time></trkpt><trkpt lat="43.90455728614002" lon="12.112942925264626"><ele>275.0</ele><time>2026-04-26T08:23:21.831Z</time></trkpt><trkpt lat="43.90472939223421" lon="12.112975938714579"><ele>275.0</ele><time>2026-04-26T08:23:22.831Z</time></trkpt><trkpt lat="43.90489043352812" lon="12.113019842273205"><ele>275.0</ele><time>2026-04-26T08:23:23.831Z</time></trkpt><trkpt lat="43.90506220645448" lon="12.113067376020782"><ele>279.6666666666667</ele><time>2026-04-26T08:23:24.831Z</time></trkpt><trkpt lat="43.90522688191783" lon="12.113117685252446"><ele>284.3333333333333</ele><time>2026-04-26T08:23:25.831Z</time></trkpt><trkpt lat="43.905401567064565" lon="12.113166904501673"><ele>289.0</ele><time>2026-04-26T08:23:26.831Z</time></trkpt><trkpt lat="43.905573252698986" lon="12.113192557354614"><ele>285.66666666666663</ele><time>2026-04-26T08:23:27.831Z</time></trkpt><trkpt lat="43.90573827631674" lon="12.113249158417585"><ele>282.3333333333333</ele><time>2026-04-26T08:23:28.831Z</time></trkpt><trkpt lat="43.90590624754708" lon="12.113285089528574"><ele>279.0</ele><time>2026-04-26T08:23:29.831Z</time></trkpt><trkpt lat="43.906069843666884" lon="12.113329859443338"><ele>279.0</ele><time>2026-04-26T08:23:30.831Z</time></trkpt><trkpt lat="43.9062236915531" lon="12.11338975484464"><ele>279.0</ele><time>2026-04-26T08:23:31.831Z</time></trkpt><trkpt lat="43.906368136138134" lon="12.113474429779579"><ele>279.0</ele><time>2026-04-26T08:23:32.831Z</time></trkpt><trkpt lat="43.90650212695694" lon="12.113596262601343"><ele>279.0</ele><time>2026-04-26T08:23:33.831Z</time></trkpt><trkpt lat="43.906620263979114" lon="12.113782856806596"><ele>279.0</ele><time>2026-04-26T08:23:34.831Z</time></trkpt><trkpt lat="43.9067505882288" lon="12.11394652056077"><ele>279.0</ele><time>2026-04-26T08:23:35.831Z</time></trkpt><trkpt lat="43.906870925423945" lon="12.11413959490794"><ele>278.0</ele><time>2026-04-26T08:23:36.831Z</time></trkpt><trkpt lat="43.90699460343556" lon="12.114328189831344"><ele>277.0</ele><time>2026-04-26T08:23:37.83Z</time></trkpt><trkpt lat="43.90712758449796" lon="12.114518440269029"><ele>276.0</ele><time>2026-04-26T08:23:38.83Z</time></trkpt><trkpt lat="43.90725255514834" lon="12.114689290910157"><ele>276.0</ele><time>2026-04-26T08:23:39.83Z</time></trkpt><trkpt lat="43.907362804809665" lon="12.114885897082134"><ele>276.0</ele><time>2026-04-26T08:23:40.83Z</time></trkpt><trkpt lat="43.90744022619561" lon="12.11509031882006"><ele>276.0</ele><time>2026-04-26T08:23:41.83Z</time></trkpt><trkpt lat="43.90750652618081" lon="12.115325637396626"><ele>278.0</ele><time>2026-04-26T08:23:42.83Z</time></trkpt><trkpt lat="43.90756721086056" lon="12.115573564920107"><ele>280.0</ele><time>2026-04-26T08:23:43.83Z</time></trkpt><trkpt lat="43.90762499573443" lon="12.115824536989637"><ele>282.0</ele><time>2026-04-26T08:23:44.83Z</time></trkpt><trkpt lat="43.90767759832152" lon="12.116070558724143"><ele>282.0</ele><time>2026-04-26T08:23:45.83Z</time></trkpt><trkpt lat="43.90773739553681" lon="12.116300100953083"><ele>282.0</ele><time>2026-04-26T08:23:46.83Z</time></trkpt><trkpt lat="43.90778563531868" lon="12.11649942175627"><ele>282.0</ele><time>2026-04-26T08:23:47.83Z</time></trkpt><trkpt lat="43.907814410981665" lon="12.116678122479335"><ele>275.75</ele><time>2026-04-26T08:23:48.83Z</time></trkpt><trkpt lat="43.90788884056119" lon="12.116820439575838"><ele>269.5</ele><time>2026-04-26T08:23:49.83Z</time></trkpt><trkpt lat="43.90801144388245" lon="12.116857809542008"><ele>263.25</ele><time>2026-04-26T08:23:50.83Z</time></trkpt><trkpt lat="43.90812723693898" lon="12.116841773768474"><ele>257.0</ele><time>2026-04-26T08:23:51.83Z</time></trkpt><trkpt lat="43.90824730085515" lon="12.116780442161112"><ele>257.0</ele><time>2026-04-26T08:23:52.83Z</time></trkpt><trkpt lat="43.90839189812336" lon="12.116682066246"><ele>257.0</ele><time>2026-04-26T08:23:53.83Z</time></trkpt><trkpt lat="43.90853374040152" lon="12.11660359135015"><ele>257.0</ele><time>2026-04-26T08:23:54.83Z</time></trkpt><trkpt lat="43.908656621040194" lon="12.11655583185712"><ele>257.0</ele><time>2026-04-26T08:23:55.83Z</time></trkpt><trkpt lat="43.90877034218984" lon="12.116555415398954"><ele>258.6</ele><time>2026-04-26T08:23:56.83Z</time></trkpt><trkpt lat="43.90885604390586" lon="12.116615391932244"><ele>260.2</ele><time>2026-04-26T08:23:57.83Z</time></trkpt><trkpt lat="43.908909302327565" lon="12.11674631585692"><ele>261.8</ele><time>2026-04-26T08:23:58.83Z</time></trkpt><trkpt lat="43.90893656594632" lon="12.116904388454067"><ele>263.4</ele><time>2026-04-26T08:23:59.83Z</time></trkpt><trkpt lat="43.908914802440044" lon="12.117078809756514"><ele>265.0</ele><time>2026-04-26T08:24:00.83Z</time></trkpt><trkpt lat="43.90883778706699" lon="12.11724312253531"><ele>265.0</ele><time>2026-04-26T08:24:01.83Z</time></trkpt><trkpt lat="43.90871867926713" lon="12.11738732376265"><ele>265.0</ele><time>2026-04-26T08:24:02.83Z</time></trkpt><trkpt lat="43.90861112137329" lon="12.11751860778901"><ele>265.0</ele><time>2026-04-26T08:24:03.83Z</time></trkpt><trkpt lat="43.90851554082832" lon="12.117629649055791"><ele>265.0</ele><time>2026-04-26T08:24:04.83Z</time></trkpt><trkpt lat="43.90845167109005" lon="12.11775039156113"><ele>266.25</ele><time>2026-04-26T08:24:05.83Z</time></trkpt><trkpt lat="43.90841264437043" lon="12.117879697346156"><ele>267.5</ele><time>2026-04-26T08:24:06.83Z</time></trkpt><trkpt lat="43.908428942455714" lon="12.118011143391138"><ele>268.75</ele><time>2026-04-26T08:24:07.83Z</time></trkpt><trkpt lat="43.9084847460433" lon="12.118178944790115"><ele>270.0</ele><time>2026-04-26T08:24:08.83Z</time></trkpt><trkpt lat="43.908573753708694" lon="12.11836255093354"><ele>270.0</ele><time>2026-04-26T08:24:09.83Z</time></trkpt><trkpt lat="43.90868626787115" lon="12.118558421516486"><ele>270.0</ele><time>2026-04-26T08:24:10.83Z</time></trkpt><trkpt lat="43.90879232023459" lon="12.118776223572546"><ele>270.0</ele><time>2026-04-26T08:24:11.83Z</time></trkpt><trkpt lat="43.90889806758422" lon="12.118982300744888"><ele>267.0</ele><time>2026-04-26T08:24:12.83Z</time></trkpt><trkpt lat="43.90900818069752" lon="12.119200606909486"><ele>264.0</ele><time>2026-04-26T08:24:13.83Z</time></trkpt><trkpt lat="43.90912109914075" lon="12.11941361697352"><ele>261.0</ele><time>2026-04-26T08:24:14.829Z</time></trkpt><trkpt lat="43.90923524686148" lon="12.11963140769606"><ele>263.3333333333333</ele><time>2026-04-26T08:24:15.829Z</time></trkpt><trkpt lat="43.90934564593773" lon="12.11986467225018"><ele>265.66666666666663</ele><time>2026-04-26T08:24:16.829Z</time></trkpt><trkpt lat="43.90945978282405" lon="12.120090638177329"><ele>268.0</ele><time>2026-04-26T08:24:17.829Z</time></trkpt><trkpt lat="43.90956666705878" lon="12.12030319064547"><ele>268.0</ele><time>2026-04-26T08:24:18.829Z</time></trkpt><trkpt lat="43.90966142648967" lon="12.120526145014585"><ele>268.0</ele><time>2026-04-26T08:24:19.829Z</time></trkpt><trkpt lat="43.90975609442734" lon="12.12074141734322"><ele>268.0</ele><time>2026-04-26T08:24:20.829Z</time></trkpt><trkpt lat="43.909859248119616" lon="12.120952867781021"><ele>270.0</ele><time>2026-04-26T08:24:21.829Z</time></trkpt><trkpt lat="43.90998263482752" lon="12.121155535398945"><ele>272.0</ele><time>2026-04-26T08:24:22.829Z</time></trkpt><trkpt lat="43.91011828312395" lon="12.12133719057404"><ele>274.0</ele><time>2026-04-26T08:24:23.828Z</time></trkpt><trkpt lat="43.91026151129962" lon="12.12152621341444"><ele>268.0</ele><time>2026-04-26T08:24:24.829Z</time></trkpt><trkpt lat="43.91040824929215" lon="12.121720921145533"><ele>262.0</ele><time>2026-04-26T08:24:25.829Z</time></trkpt><trkpt lat="43.91055268940743" lon="12.12189443970624"><ele>256.0</ele><time>2026-04-26T08:24:26.829Z</time></trkpt><trkpt lat="43.910688241425376" lon="12.122070085250632"><ele>256.0</ele><time>2026-04-26T08:24:27.829Z</time></trkpt><trkpt lat="43.91080663487028" lon="12.122261778233064"><ele>256.0</ele><time>2026-04-26T08:24:28.829Z</time></trkpt><trkpt lat="43.91092110157584" lon="12.122465420389346"><ele>256.0</ele><time>2026-04-26T08:24:29.829Z</time></trkpt><trkpt lat="43.91101796564511" lon="12.122682053760329"><ele>256.66666666666663</ele><time>2026-04-26T08:24:30.829Z</time></trkpt><trkpt lat="43.911115488530044" lon="12.122898030804917"><ele>257.3333333333333</ele><time>2026-04-26T08:24:31.829Z</time></trkpt><trkpt lat="43.91121937276145" lon="12.123114868274005"><ele>258.0</ele><time>2026-04-26T08:24:32.829Z</time></trkpt><trkpt lat="43.91132505186043" lon="12.123328121114703"><ele>258.0</ele><time>2026-04-26T08:24:33.829Z</time></trkpt><trkpt lat="43.91143696735634" lon="12.123530497979635"><ele>258.0</ele><time>2026-04-26T08:24:34.829Z</time></trkpt><trkpt lat="43.911544730540896" lon="12.123716678449389"><ele>258.0</ele><time>2026-04-26T08:24:35.829Z</time></trkpt><trkpt lat="43.91164851131519" lon="12.123878826921057"><ele>258.5</ele><time>2026-04-26T08:24:36.829Z</time></trkpt><trkpt lat="43.911755471789554" lon="12.124018526013584"><ele>259.0</ele><time>2026-04-26T08:24:37.829Z</time></trkpt><trkpt lat="43.91187084327155" lon="12.124120349937582"><ele>259.5</ele><time>2026-04-26T08:24:38.829Z</time></trkpt><trkpt lat="43.911997692580215" lon="12.124159402767306"><ele>260.0</ele><time>2026-04-26T08:24:39.829Z</time></trkpt><trkpt lat="43.91211609279627" lon="12.124122295862733"><ele>260.0</ele><time>2026-04-26T08:24:40.828Z</time></trkpt><trkpt lat="43.9122280219484" lon="12.124047180268809"><ele>260.0</ele><time>2026-04-26T08:24:41.828Z</time></trkpt><trkpt lat="43.912321402702844" lon="12.123996736630362"><ele>260.0</ele><time>2026-04-26T08:24:42.828Z</time></trkpt><trkpt lat="43.91240936316892" lon="12.124005734875656"><ele>260.0</ele><time>2026-04-26T08:24:43.828Z</time></trkpt><trkpt lat="43.91248056267406" lon="12.124091910127076"><ele>260.0</ele><time>2026-04-26T08:24:44.828Z</time></trkpt><trkpt lat="43.91253212741309" lon="12.12422508302719"><ele>258.25</ele><time>2026-04-26T08:24:45.828Z</time></trkpt><trkpt lat="43.91254786720563" lon="12.124396169512767"><ele>256.5</ele><time>2026-04-26T08:24:46.828Z</time></trkpt><trkpt lat="43.912538919728505" lon="12.124594086366372"><ele>254.75</ele><time>2026-04-26T08:24:47.828Z</time></trkpt><trkpt lat="43.91249877743986" lon="12.124784829856829"><ele>253.0</ele><time>2026-04-26T08:24:48.828Z</time></trkpt><trkpt lat="43.91243968468187" lon="12.124985012740803"><ele>251.66666666666666</ele><time>2026-04-26T08:24:49.828Z</time></trkpt><trkpt lat="43.912369994979485" lon="12.125189481941845"><ele>250.33333333333331</ele><time>2026-04-26T08:24:50.828Z</time></trkpt><trkpt lat="43.91231866776688" lon="12.125413294740332"><ele>249.0</ele><time>2026-04-26T08:24:51.828Z</time></trkpt><trkpt lat="43.912287049037275" lon="12.12564349433285"><ele>248.0</ele><time>2026-04-26T08:24:52.828Z</time></trkpt><trkpt lat="43.91227699751377" lon="12.12587314865412"><ele>247.0</ele><time>2026-04-26T08:24:53.828Z</time></trkpt><trkpt lat="43.912305963703794" lon="12.126098524028443"><ele>246.0</ele><time>2026-04-26T08:24:54.828Z</time></trkpt><trkpt lat="43.912369111595886" lon="12.126299196592877"><ele>246.0</ele><time>2026-04-26T08:24:55.828Z</time></trkpt><trkpt lat="43.91245045193772" lon="12.126503975604455"><ele>246.0</ele><time>2026-04-26T08:24:56.828Z</time></trkpt><trkpt lat="43.912542409658535" lon="12.12670305452413"><ele>246.0</ele><time>2026-04-26T08:24:57.828Z</time></trkpt><trkpt lat="43.912638182227525" lon="12.1269052664695"><ele>248.0</ele><time>2026-04-26T08:24:58.828Z</time></trkpt><trkpt lat="43.91273273349988" lon="12.12710389332023"><ele>250.0</ele><time>2026-04-26T08:24:59.828Z</time></trkpt><trkpt lat="43.912829593236665" lon="12.127282088759515"><ele>252.0</ele><time>2026-04-26T08:25:00.828Z</time></trkpt><trkpt lat="43.912935868704636" lon="12.127438869380804"><ele>252.0</ele><time>2026-04-26T08:25:01.828Z</time></trkpt><trkpt lat="43.913043650759306" lon="12.127572708442733"><ele>252.0</ele><time>2026-04-26T08:25:02.828Z</time></trkpt><trkpt lat="43.91314971028466" lon="12.127694160661543"><ele>252.0</ele><time>2026-04-26T08:25:03.828Z</time></trkpt><trkpt lat="43.913245338665966" lon="12.127813193125476"><ele>252.0</ele><time>2026-04-26T08:25:04.828Z</time></trkpt><trkpt lat="43.913330509498735" lon="12.12793770297996"><ele>254.0</ele><time>2026-04-26T08:25:05.828Z</time></trkpt><trkpt lat="43.91341096487815" lon="12.128062253152224"><ele>256.0</ele><time>2026-04-26T08:25:06.828Z</time></trkpt><trkpt lat="43.9134819684466" lon="12.128183146294505"><ele>258.0</ele><time>2026-04-26T08:25:07.828Z</time></trkpt><trkpt lat="43.91355112173352" lon="12.128289073588542"><ele>260.0</ele><time>2026-04-26T08:25:08.828Z</time></trkpt><trkpt lat="43.91361320190957" lon="12.12837406182562"><ele>262.0</ele><time>2026-04-26T08:25:09.828Z</time></trkpt><trkpt lat="43.913692695669056" lon="12.128465456978935"><ele>262.0</ele><time>2026-04-26T08:25:11.828Z</time></trkpt><trkpt lat="43.91377135387501" lon="12.128545191312128"><ele>262.0</ele><time>2026-04-26T08:26:40.825Z</time></trkpt><trkpt lat="43.91387746468982" lon="12.128644977063486"><ele>262.0</ele><time>2026-04-26T08:26:42.825Z</time></trkpt><trkpt lat="43.91394878279886" lon="12.12871421287297"><ele>262.0</ele><time>2026-04-26T08:26:43.825Z</time></trkpt><trkpt lat="43.91402176419431" lon="12.12881306842779"><ele>262.0</ele><time>2026-04-26T08:26:44.825Z</time></trkpt><trkpt lat="43.91407345995995" lon="12.12895463220883"><ele>258.25</ele><time>2026-04-26T08:26:45.825Z</time></trkpt><trkpt lat="43.91413892123957" lon="12.129093333874335"><ele>254.5</ele><time>2026-04-26T08:26:46.825Z</time></trkpt><trkpt lat="43.914198058556074" lon="12.12924192433576"><ele>250.75</ele><time>2026-04-26T08:26:47.825Z</time></trkpt><trkpt lat="43.91425612614035" lon="12.129401210457159"><ele>247.0</ele><time>2026-04-26T08:26:48.825Z</time></trkpt><trkpt lat="43.91432384629927" lon="12.12955485131531"><ele>255.25</ele><time>2026-04-26T08:26:49.825Z</time></trkpt><trkpt lat="43.91438127088104" lon="12.129704100165293"><ele>263.5</ele><time>2026-04-26T08:26:50.825Z</time></trkpt><trkpt lat="43.91441176024635" lon="12.1298681600017"><ele>271.75</ele><time>2026-04-26T08:26:51.825Z</time></trkpt><trkpt lat="43.914421938113996" lon="12.130048883345431"><ele>280.0</ele><time>2026-04-26T08:26:52.825Z</time></trkpt><trkpt lat="43.91441327604394" lon="12.130239695070342"><ele>280.0</ele><time>2026-04-26T08:26:53.825Z</time></trkpt><trkpt lat="43.91441103341673" lon="12.130459843894693"><ele>280.0</ele><time>2026-04-26T08:26:54.825Z</time></trkpt><trkpt lat="43.91441085391212" lon="12.130671367696086"><ele>280.0</ele><time>2026-04-26T08:26:55.825Z</time></trkpt><trkpt lat="43.914406914796814" lon="12.130896553383282"><ele>278.0</ele><time>2026-04-26T08:26:56.825Z</time></trkpt><trkpt lat="43.91441067938491" lon="12.131113020699589"><ele>276.0</ele><time>2026-04-26T08:26:57.825Z</time></trkpt><trkpt lat="43.9144055244243" lon="12.13132417123808"><ele>274.0</ele><time>2026-04-26T08:26:58.825Z</time></trkpt><trkpt lat="43.91440214729433" lon="12.1315413657371"><ele>271.3333333333333</ele><time>2026-04-26T08:26:59.825Z</time></trkpt><trkpt lat="43.91439505704305" lon="12.131764811365954"><ele>268.6666666666667</ele><time>2026-04-26T08:27:00.825Z</time></trkpt><trkpt lat="43.91438749054579" lon="12.131988204553261"><ele>266.0</ele><time>2026-04-26T08:27:01.825Z</time></trkpt><trkpt lat="43.91438063279058" lon="12.132200944985886"><ele>265.25</ele><time>2026-04-26T08:27:02.825Z</time></trkpt><trkpt lat="43.91437278416813" lon="12.132400259084871"><ele>264.5</ele><time>2026-04-26T08:27:03.824Z</time></trkpt><trkpt lat="43.91439116538895" lon="12.132600663117877"><ele>263.75</ele><time>2026-04-26T08:27:04.824Z</time></trkpt><trkpt lat="43.91442490464946" lon="12.132799250856994"><ele>263.0</ele><time>2026-04-26T08:27:05.824Z</time></trkpt><trkpt lat="43.91448951914302" lon="12.133010523814443"><ele>263.0</ele><time>2026-04-26T08:27:06.824Z</time></trkpt><trkpt lat="43.91456243250326" lon="12.133222118846286"><ele>263.0</ele><time>2026-04-26T08:27:07.824Z</time></trkpt><trkpt lat="43.91463750278435" lon="12.133451303138129"><ele>263.0</ele><time>2026-04-26T08:27:08.824Z</time></trkpt><trkpt lat="43.91469673206329" lon="12.133689615504132"><ele>261.0</ele><time>2026-04-26T08:27:09.824Z</time></trkpt><trkpt lat="43.91475681326055" lon="12.133916865327159"><ele>259.0</ele><time>2026-04-26T08:27:10.824Z</time></trkpt><trkpt lat="43.914792970110426" lon="12.134130423596616"><ele>257.0</ele><time>2026-04-26T08:27:11.824Z</time></trkpt><trkpt lat="43.91482537297455" lon="12.134337990899537"><ele>255.0</ele><time>2026-04-26T08:27:12.824Z</time></trkpt><trkpt lat="43.91485594945418" lon="12.134536525355054"><ele>253.0</ele><time>2026-04-26T08:27:13.824Z</time></trkpt><trkpt lat="43.91487215945687" lon="12.134715210404012"><ele>251.0</ele><time>2026-04-26T08:27:14.824Z</time></trkpt><trkpt lat="43.914894130267754" lon="12.134879939976825"><ele>249.0</ele><time>2026-04-26T08:27:15.824Z</time></trkpt><trkpt lat="43.91491983116453" lon="12.135032470962415"><ele>247.0</ele><time>2026-04-26T08:27:16.824Z</time></trkpt><trkpt lat="43.914938852311714" lon="12.1351621985698"><ele>245.0</ele><time>2026-04-26T08:27:17.824Z</time></trkpt><trkpt lat="43.91496544700713" lon="12.13527200174787"><ele>243.0</ele><time>2026-04-26T08:27:18.824Z</time></trkpt><trkpt lat="43.9149856116521" lon="12.135360272404098"><ele>241.0</ele><time>2026-04-26T08:27:19.824Z</time></trkpt><trkpt lat="43.915016957711686" lon="12.135487881883147"><ele>239.0</ele><time>2026-04-26T08:27:21.824Z</time></trkpt><trkpt lat="43.91504681845134" lon="12.135626618065034"><ele>237.0</ele><time>2026-04-26T08:28:46.822Z</time></trkpt><trkpt lat="43.91506062712464" lon="12.135794335581686"><ele>236.39999999999998</ele><time>2026-04-26T08:28:48.822Z</time></trkpt><trkpt lat="43.91507556728934" lon="12.135916363303725"><ele>235.79999999999998</ele><time>2026-04-26T08:28:49.822Z</time></trkpt><trkpt lat="43.91509388547927" lon="12.136064634811154"><ele>235.2</ele><time>2026-04-26T08:28:50.822Z</time></trkpt><trkpt lat="43.915104007757805" lon="12.136209300463657"><ele>234.6</ele><time>2026-04-26T08:28:51.822Z</time></trkpt><trkpt lat="43.91510410850918" lon="12.136374630210451"><ele>234.0</ele><time>2026-04-26T08:28:52.822Z</time></trkpt><trkpt lat="43.9151010837512" lon="12.136559365605853"><ele>234.0</ele><time>2026-04-26T08:28:53.822Z</time></trkpt><trkpt lat="43.91509148023829" lon="12.136752869865411"><ele>234.0</ele><time>2026-04-26T08:28:54.822Z</time></trkpt><trkpt lat="43.91507963564183" lon="12.136947147787838"><ele>234.0</ele><time>2026-04-26T08:28:55.822Z</time></trkpt><trkpt lat="43.91507078995685" lon="12.137146709138774"><ele>234.0</ele><time>2026-04-26T08:28:56.822Z</time></trkpt><trkpt lat="43.91506306203528" lon="12.13733991771914"><ele>228.75</ele><time>2026-04-26T08:28:57.822Z</time></trkpt><trkpt lat="43.91504617732618" lon="12.137540963273068"><ele>223.5</ele><time>2026-04-26T08:28:58.822Z</time></trkpt><trkpt lat="43.915032852690494" lon="12.137738295364164"><ele>218.25</ele><time>2026-04-26T08:28:59.822Z</time></trkpt><trkpt lat="43.91504379544961" lon="12.137918609316728"><ele>213.0</ele><time>2026-04-26T08:29:00.822Z</time></trkpt><trkpt lat="43.91505023353224" lon="12.138062651957684"><ele>218.0</ele><time>2026-04-26T08:29:01.822Z</time></trkpt><trkpt lat="43.915130562601554" lon="12.138213346452957"><ele>223.0</ele><time>2026-04-26T08:29:02.822Z</time></trkpt><trkpt lat="43.915260596161744" lon="12.138326798495427"><ele>228.0</ele><time>2026-04-26T08:29:03.822Z</time></trkpt><trkpt lat="43.9154008811033" lon="12.138411407943138"><ele>233.0</ele><time>2026-04-26T08:29:04.822Z</time></trkpt><trkpt lat="43.91555053744596" lon="12.138505870472464"><ele>233.0</ele><time>2026-04-26T08:29:05.822Z</time></trkpt><trkpt lat="43.915697455393655" lon="12.1386002359736"><ele>233.0</ele><time>2026-04-26T08:29:06.822Z</time></trkpt><trkpt lat="43.91583894664842" lon="12.138705994181551"><ele>233.0</ele><time>2026-04-26T08:29:07.822Z</time></trkpt><trkpt lat="43.91594716584311" lon="12.138875770500654"><ele>232.66666666666669</ele><time>2026-04-26T08:29:08.821Z</time></trkpt><trkpt lat="43.91606358550502" lon="12.139028552953603"><ele>232.33333333333331</ele><time>2026-04-26T08:29:09.821Z</time></trkpt><trkpt lat="43.916155947151914" lon="12.139204862182064"><ele>232.0</ele><time>2026-04-26T08:29:10.821Z</time></trkpt><trkpt lat="43.916256051859" lon="12.139379400829258"><ele>232.0</ele><time>2026-04-26T08:29:11.821Z</time></trkpt><trkpt lat="43.91636051708789" lon="12.139543294077352"><ele>232.0</ele><time>2026-04-26T08:29:12.821Z</time></trkpt><trkpt lat="43.91647247571045" lon="12.139706458789352"><ele>232.0</ele><time>2026-04-26T08:29:13.821Z</time></trkpt><trkpt lat="43.91658252308232" lon="12.139872272080103"><ele>226.66666666666666</ele><time>2026-04-26T08:29:14.821Z</time></trkpt><trkpt lat="43.91668842004947" lon="12.140050045839466"><ele>221.33333333333331</ele><time>2026-04-26T08:29:15.821Z</time></trkpt><trkpt lat="43.916795388428035" lon="12.140223737436779"><ele>216.0</ele><time>2026-04-26T08:29:16.821Z</time></trkpt><trkpt lat="43.91690387124977" lon="12.140396668258878"><ele>214.66666666666669</ele><time>2026-04-26T08:29:17.821Z</time></trkpt><trkpt lat="43.91700904935253" lon="12.140561570337594"><ele>213.33333333333334</ele><time>2026-04-26T08:29:18.821Z</time></trkpt><trkpt lat="43.91710982917689" lon="12.140715839093073"><ele>212.0</ele><time>2026-04-26T08:29:19.821Z</time></trkpt><trkpt lat="43.917186572172646" lon="12.140882073235261"><ele>216.5</ele><time>2026-04-26T08:29:20.821Z</time></trkpt><trkpt lat="43.91724490289096" lon="12.141069915900033"><ele>221.0</ele><time>2026-04-26T08:29:21.821Z</time></trkpt><trkpt lat="43.917279889837445" lon="12.14126553724507"><ele>225.5</ele><time>2026-04-26T08:29:22.821Z</time></trkpt><trkpt lat="43.91729401325675" lon="12.141461491683803"><ele>230.0</ele><time>2026-04-26T08:29:23.821Z</time></trkpt><trkpt lat="43.91728409214255" lon="12.141659336501725"><ele>231.5</ele><time>2026-04-26T08:29:24.821Z</time></trkpt><trkpt lat="43.91725822522108" lon="12.141851366175903"><ele>233.0</ele><time>2026-04-26T08:29:25.821Z</time></trkpt><trkpt lat="43.917238459908255" lon="12.14204385658334"><ele>234.5</ele><time>2026-04-26T08:29:26.821Z</time></trkpt><trkpt lat="43.917255286806125" lon="12.1422236588495"><ele>236.0</ele><time>2026-04-26T08:29:27.821Z</time></trkpt><trkpt lat="43.91728099342029" lon="12.142377853736454"><ele>236.4</ele><time>2026-04-26T08:29:28.821Z</time></trkpt><trkpt lat="43.91731327966299" lon="12.142511905748966"><ele>236.8</ele><time>2026-04-26T08:29:29.821Z</time></trkpt><trkpt lat="43.917352871827056" lon="12.14264118756187"><ele>237.20000000000002</ele><time>2026-04-26T08:29:30.821Z</time></trkpt><trkpt lat="43.91738784282958" lon="12.142761790715124"><ele>237.60000000000002</ele><time>2026-04-26T08:29:31.821Z</time></trkpt><trkpt lat="43.917429568019855" lon="12.14292596276122"><ele>238.0</ele><time>2026-04-26T08:29:33.821Z</time></trkpt><trkpt lat="43.917495933465375" lon="12.143072106163551"><ele>238.0</ele><time>2026-04-26T08:29:35.821Z</time></trkpt><trkpt lat="43.917539603428814" lon="12.143141720229181"><ele>238.0</ele><time>2026-04-26T08:29:36.821Z</time></trkpt><trkpt lat="43.91757960700109" lon="12.143231399193727"><ele>238.0</ele><time>2026-04-26T08:29:37.821Z</time></trkpt><trkpt lat="43.91761727912537" lon="12.14335258092144"><ele>238.0</ele><time>2026-04-26T08:29:38.821Z</time></trkpt><trkpt lat="43.917654056880785" lon="12.143493214147759"><ele>238.0</ele><time>2026-04-26T08:29:39.821Z</time></trkpt><trkpt lat="43.91768602983107" lon="12.14366966636259"><ele>239.0</ele><time>2026-04-26T08:29:40.821Z</time></trkpt><trkpt lat="43.91771838008573" lon="12.143851352280112"><ele>240.0</ele><time>2026-04-26T08:29:41.821Z</time></trkpt><trkpt lat="43.91775914964084" lon="12.144037285793942"><ele>241.0</ele><time>2026-04-26T08:29:42.821Z</time></trkpt><trkpt lat="43.9178009405402" lon="12.144245795502181"><ele>242.0</ele><time>2026-04-26T08:29:43.821Z</time></trkpt><trkpt lat="43.91783756744219" lon="12.144447831320448"><ele>242.0</ele><time>2026-04-26T08:29:44.821Z</time></trkpt><trkpt lat="43.917885426957056" lon="12.144612164386096"><ele>242.0</ele><time>2026-04-26T08:29:45.821Z</time></trkpt><trkpt lat="43.917967151975425" lon="12.144742916774698"><ele>242.0</ele><time>2026-04-26T08:29:46.821Z</time></trkpt><trkpt lat="43.91808350498256" lon="12.144828741200712"><ele>242.0</ele><time>2026-04-26T08:29:47.821Z</time></trkpt><trkpt lat="43.91820877543328" lon="12.144864744515218"><ele>242.0</ele><time>2026-04-26T08:29:48.821Z</time></trkpt><trkpt lat="43.918349275601855" lon="12.144868970706538"><ele>242.0</ele><time>2026-04-26T08:29:49.821Z</time></trkpt><trkpt lat="43.91850851293275" lon="12.144893537894356"><ele>242.0</ele><time>2026-04-26T08:29:50.821Z</time></trkpt><trkpt lat="43.91866097816199" lon="12.144909863711208"><ele>239.75</ele><time>2026-04-26T08:29:51.821Z</time></trkpt><trkpt lat="43.918813875428576" lon="12.144926235767983"><ele>237.5</ele><time>2026-04-26T08:29:52.821Z</time></trkpt><trkpt lat="43.918958011734915" lon="12.144939283531809"><ele>235.25</ele><time>2026-04-26T08:29:53.821Z</time></trkpt><trkpt lat="43.91910197861927" lon="12.144938154061807"><ele>233.0</ele><time>2026-04-26T08:29:54.821Z</time></trkpt><trkpt lat="43.91923933412168" lon="12.14492028547726"><ele>232.5</ele><time>2026-04-26T08:29:55.821Z</time></trkpt><trkpt lat="43.91938209453422" lon="12.144904597522624"><ele>232.0</ele><time>2026-04-26T08:29:56.821Z</time></trkpt><trkpt lat="43.919527824048544" lon="12.144889339241667"><ele>231.5</ele><time>2026-04-26T08:29:57.82Z</time></trkpt><trkpt lat="43.9196695375802" lon="12.144853445545833"><ele>231.0</ele><time>2026-04-26T08:29:58.82Z</time></trkpt><trkpt lat="43.91979724205703" lon="12.144830198526783"><ele>233.0</ele><time>2026-04-26T08:29:59.82Z</time></trkpt><trkpt lat="43.91992299950123" lon="12.144845464293127"><ele>235.0</ele><time>2026-04-26T08:30:00.82Z</time></trkpt><trkpt lat="43.9200620111354" lon="12.144815522663356"><ele>237.0</ele><time>2026-04-26T08:30:01.82Z</time></trkpt><trkpt lat="43.92021198962711" lon="12.144858770663811"><ele>239.0</ele><time>2026-04-26T08:30:02.82Z</time></trkpt><trkpt lat="43.92037390738459" lon="12.144939055522658"><ele>239.0</ele><time>2026-04-26T08:30:03.82Z</time></trkpt><trkpt lat="43.920532511006" lon="12.145009299220733"><ele>239.0</ele><time>2026-04-26T08:30:04.82Z</time></trkpt><trkpt lat="43.920673731676885" lon="12.14513642871926"><ele>239.0</ele><time>2026-04-26T08:30:05.82Z</time></trkpt><trkpt lat="43.92081958032885" lon="12.145258448471942"><ele>240.66666666666669</ele><time>2026-04-26T08:30:06.82Z</time></trkpt><trkpt lat="43.92096939967244" lon="12.145374955222653"><ele>242.33333333333331</ele><time>2026-04-26T08:30:07.82Z</time></trkpt><trkpt lat="43.921124909899575" lon="12.145460505176862"><ele>244.0</ele><time>2026-04-26T08:30:08.82Z</time></trkpt><trkpt lat="43.921265981438694" lon="12.145520157177364"><ele>244.0</ele><time>2026-04-26T08:30:09.82Z</time></trkpt><trkpt lat="43.921409183284965" lon="12.145572499296582"><ele>244.0</ele><time>2026-04-26T08:30:10.82Z</time></trkpt><trkpt lat="43.92153751967487" lon="12.145627092130509"><ele>244.0</ele><time>2026-04-26T08:30:11.82Z</time></trkpt><trkpt lat="43.92163697810191" lon="12.145695350544562"><ele>244.0</ele><time>2026-04-26T08:30:12.82Z</time></trkpt><trkpt lat="43.921707661827774" lon="12.145800265071554"><ele>245.0</ele><time>2026-04-26T08:30:13.82Z</time></trkpt><trkpt lat="43.92175762537644" lon="12.145949832821994"><ele>246.0</ele><time>2026-04-26T08:30:14.82Z</time></trkpt><trkpt lat="43.92175478812948" lon="12.146154889967011"><ele>247.0</ele><time>2026-04-26T08:30:15.82Z</time></trkpt><trkpt lat="43.92173689523417" lon="12.146384712874177"><ele>248.0</ele><time>2026-04-26T08:30:16.82Z</time></trkpt><trkpt lat="43.921720422510774" lon="12.146629024290029"><ele>239.0</ele><time>2026-04-26T08:30:17.82Z</time></trkpt><trkpt lat="43.92171224750862" lon="12.146863450069535"><ele>230.0</ele><time>2026-04-26T08:30:18.82Z</time></trkpt><trkpt lat="43.92170458323525" lon="12.147089900293333"><ele>221.0</ele><time>2026-04-26T08:30:19.82Z</time></trkpt><trkpt lat="43.9217047903432" lon="12.14729620297383"><ele>224.0</ele><time>2026-04-26T08:30:20.82Z</time></trkpt><trkpt lat="43.92173630975074" lon="12.147490072449896"><ele>227.0</ele><time>2026-04-26T08:30:21.82Z</time></trkpt><trkpt lat="43.92179481001822" lon="12.147684979847735"><ele>230.0</ele><time>2026-04-26T08:30:22.82Z</time></trkpt><trkpt lat="43.92186885657795" lon="12.147858281462703"><ele>233.0</ele><time>2026-04-26T08:30:23.82Z</time></trkpt><trkpt lat="43.921946796796874" lon="12.14801586866973"><ele>233.0</ele><time>2026-04-26T08:30:24.82Z</time></trkpt><trkpt lat="43.922019699322746" lon="12.148155025207663"><ele>233.0</ele><time>2026-04-26T08:30:25.82Z</time></trkpt><trkpt lat="43.922113123843225" lon="12.148252885756971"><ele>233.0</ele><time>2026-04-26T08:30:26.82Z</time></trkpt><trkpt lat="43.92221287779795" lon="12.14830554871719"><ele>233.0</ele><time>2026-04-26T08:30:27.82Z</time></trkpt><trkpt lat="43.92231667330644" lon="12.148313613034826"><ele>229.0</ele><time>2026-04-26T08:30:28.82Z</time></trkpt><trkpt lat="43.92241532936833" lon="12.148284341150218"><ele>225.0</ele><time>2026-04-26T08:30:29.82Z</time></trkpt><trkpt lat="43.92249788644512" lon="12.148218313292462"><ele>221.0</ele><time>2026-04-26T08:30:30.82Z</time></trkpt><trkpt lat="43.92264758908671" lon="12.148124825532848"><ele>217.0</ele><time>2026-04-26T08:30:32.818Z</time></trkpt><trkpt lat="43.922716617347184" lon="12.148065778978433"><ele>213.0</ele><time>2026-04-26T08:30:33.818Z</time></trkpt><trkpt lat="43.92279149722406" lon="12.148005844856083"><ele>213.0</ele><time>2026-04-26T08:30:34.818Z</time></trkpt><trkpt lat="43.92287599437475" lon="12.147954499759571"><ele>213.0</ele><time>2026-04-26T08:30:35.818Z</time></trkpt><trkpt lat="43.922977558114574" lon="12.147915538763842"><ele>213.0</ele><time>2026-04-26T08:30:36.818Z</time></trkpt><trkpt lat="43.923079616159946" lon="12.147914558393602"><ele>213.0</ele><time>2026-04-26T08:30:37.818Z</time></trkpt><trkpt lat="43.923186060472744" lon="12.1479637057338"><ele>213.0</ele><time>2026-04-26T08:30:38.818Z</time></trkpt><trkpt lat="43.92327811128468" lon="12.148036059311147"><ele>213.0</ele><time>2026-04-26T08:30:39.818Z</time></trkpt><trkpt lat="43.92334634110013" lon="12.148151495020045"><ele>213.0</ele><time>2026-04-26T08:30:40.818Z</time></trkpt><trkpt lat="43.92339780984624" lon="12.148293910479236"><ele>213.0</ele><time>2026-04-26T08:30:41.818Z</time></trkpt><trkpt lat="43.923432332494755" lon="12.148447287291475"><ele>213.0</ele><time>2026-04-26T08:30:42.818Z</time></trkpt><trkpt lat="43.92346612547639" lon="12.148613698443183"><ele>212.75</ele><time>2026-04-26T08:30:43.818Z</time></trkpt><trkpt lat="43.923507260476335" lon="12.148789014315856"><ele>212.5</ele><time>2026-04-26T08:30:44.818Z</time></trkpt><trkpt lat="43.92355245921011" lon="12.148987955994109"><ele>212.25</ele><time>2026-04-26T08:30:45.818Z</time></trkpt><trkpt lat="43.923598300413666" lon="12.149209278205252"><ele>212.0</ele><time>2026-04-26T08:30:46.818Z</time></trkpt><trkpt lat="43.92365061265635" lon="12.149414264383498"><ele>212.0</ele><time>2026-04-26T08:30:47.818Z</time></trkpt><trkpt lat="43.92372669937456" lon="12.149600361450338"><ele>212.0</ele><time>2026-04-26T08:30:48.818Z</time></trkpt><trkpt lat="43.92382378690576" lon="12.149758075192025"><ele>212.0</ele><time>2026-04-26T08:30:49.818Z</time></trkpt><trkpt lat="43.92392820822617" lon="12.149901265572026"><ele>211.0</ele><time>2026-04-26T08:30:50.818Z</time></trkpt><trkpt lat="43.92404120945553" lon="12.150016270876671"><ele>210.0</ele><time>2026-04-26T08:30:51.818Z</time></trkpt><trkpt lat="43.924174085852286" lon="12.150088247700278"><ele>209.0</ele><time>2026-04-26T08:30:52.818Z</time></trkpt><trkpt lat="43.92430068442259" lon="12.150139880291269"><ele>208.0</ele><time>2026-04-26T08:30:53.818Z</time></trkpt><trkpt lat="43.924398010971615" lon="12.150191557706576"><ele>207.2</ele><time>2026-04-26T08:30:54.818Z</time></trkpt><trkpt lat="43.92447731640186" lon="12.150263854027028"><ele>206.4</ele><time>2026-04-26T08:30:55.818Z</time></trkpt><trkpt lat="43.924526379397946" lon="12.150361162733367"><ele>205.6</ele><time>2026-04-26T08:30:56.818Z</time></trkpt><trkpt lat="43.924557390859164" lon="12.150499249325904"><ele>204.79999999999998</ele><time>2026-04-26T08:30:57.818Z</time></trkpt><trkpt lat="43.92454914963014" lon="12.150662680653449"><ele>204.0</ele><time>2026-04-26T08:30:58.818Z</time></trkpt><trkpt lat="43.9245397931353" lon="12.150824879626503"><ele>204.0</ele><time>2026-04-26T08:30:59.818Z</time></trkpt><trkpt lat="43.92444545366919" lon="12.150989187161954"><ele>204.0</ele><time>2026-04-26T08:31:00.818Z</time></trkpt><trkpt lat="43.92440866970832" lon="12.151155333214035"><ele>204.0</ele><time>2026-04-26T08:31:01.818Z</time></trkpt><trkpt lat="43.92441405296999" lon="12.151351958146517"><ele>204.0</ele><time>2026-04-26T08:31:02.818Z</time></trkpt><trkpt lat="43.924444711551565" lon="12.151553026966912"><ele>203.5</ele><time>2026-04-26T08:31:03.818Z</time></trkpt><trkpt lat="43.92446886970633" lon="12.15176158456928"><ele>203.0</ele><time>2026-04-26T08:31:04.818Z</time></trkpt><trkpt lat="43.92447331955884" lon="12.151968791480822"><ele>202.5</ele><time>2026-04-26T08:31:05.818Z</time></trkpt><trkpt lat="43.92444848872242" lon="12.152160255615776"><ele>202.0</ele><time>2026-04-26T08:31:06.818Z</time></trkpt><trkpt lat="43.9244003943893" lon="12.152332455048393"><ele>202.75</ele><time>2026-04-26T08:31:07.818Z</time></trkpt><trkpt lat="43.92432863674366" lon="12.15250181298376"><ele>203.5</ele><time>2026-04-26T08:31:08.818Z</time></trkpt><trkpt lat="43.92425097784991" lon="12.152649345718665"><ele>204.25</ele><time>2026-04-26T08:31:09.818Z</time></trkpt><trkpt lat="43.924161535808736" lon="12.152768964470699"><ele>205.0</ele><time>2026-04-26T08:31:10.818Z</time></trkpt><trkpt lat="43.924067432705534" lon="12.152860783029027"><ele>200.25</ele><time>2026-04-26T08:31:11.818Z</time></trkpt><trkpt lat="43.923957952720805" lon="12.152941325635032"><ele>195.5</ele><time>2026-04-26T08:31:12.818Z</time></trkpt><trkpt lat="43.92383022789407" lon="12.1530040792687"><ele>190.75</ele><time>2026-04-26T08:31:13.818Z</time></trkpt><trkpt lat="43.92369654134782" lon="12.153043207763018"><ele>186.0</ele><time>2026-04-26T08:31:14.818Z</time></trkpt><trkpt lat="43.923557614464514" lon="12.15304831975648"><ele>186.0</ele><time>2026-04-26T08:31:15.818Z</time></trkpt><trkpt lat="43.923411212433905" lon="12.15302482124098"><ele>186.0</ele><time>2026-04-26T08:31:16.818Z</time></trkpt><trkpt lat="43.923270877529035" lon="12.152964063637214"><ele>186.0</ele><time>2026-04-26T08:31:17.818Z</time></trkpt><trkpt lat="43.92313917884625" lon="12.15287077086846"><ele>186.0</ele><time>2026-04-26T08:31:18.818Z</time></trkpt><trkpt lat="43.92301851271658" lon="12.152741580690236"><ele>183.25</ele><time>2026-04-26T08:31:19.818Z</time></trkpt><trkpt lat="43.922912054890986" lon="12.152592585799892"><ele>180.5</ele><time>2026-04-26T08:31:20.818Z</time></trkpt><trkpt lat="43.92282841363798" lon="12.152429556755788"><ele>177.75</ele><time>2026-04-26T08:31:21.818Z</time></trkpt><trkpt lat="43.92275823712514" lon="12.152267942736291"><ele>175.0</ele><time>2026-04-26T08:31:22.818Z</time></trkpt><trkpt lat="43.92268661653353" lon="12.152133965675276"><ele>175.0</ele><time>2026-04-26T08:31:23.817Z</time></trkpt><trkpt lat="43.922627344519334" lon="12.152019960871856"><ele>175.0</ele><time>2026-04-26T08:31:24.817Z</time></trkpt><trkpt lat="43.922572221555356" lon="12.151912469313183"><ele>175.0</ele><time>2026-04-26T08:31:25.817Z</time></trkpt><trkpt lat="43.92238462997479" lon="12.151963333199316"><ele>175.0</ele><time>2026-04-26T08:31:26.817Z</time></trkpt><trkpt lat="43.922269707356186" lon="12.152030401820317"><ele>174.5</ele><time>2026-04-26T08:31:27.817Z</time></trkpt><trkpt lat="43.92216628815955" lon="12.1521249358344"><ele>174.0</ele><time>2026-04-26T08:31:28.817Z</time></trkpt><trkpt lat="43.922079729124654" lon="12.152242155756287"><ele>173.5</ele><time>2026-04-26T08:31:29.817Z</time></trkpt><trkpt lat="43.92203675557572" lon="12.152412615037477"><ele>173.0</ele><time>2026-04-26T08:31:30.817Z</time></trkpt><trkpt lat="43.92203172591105" lon="12.15259410711619"><ele>173.0</ele><time>2026-04-26T08:31:31.817Z</time></trkpt><trkpt lat="43.92206558564464" lon="12.152767920845717"><ele>173.0</ele><time>2026-04-26T08:31:32.817Z</time></trkpt><trkpt lat="43.9221394922349" lon="12.152932926047265"><ele>173.0</ele><time>2026-04-26T08:31:33.817Z</time></trkpt><trkpt lat="43.92223836748273" lon="12.153102668853261"><ele>173.0</ele><time>2026-04-26T08:31:34.817Z</time></trkpt><trkpt lat="43.92234530762138" lon="12.153268571379515"><ele>172.66666666666666</ele><time>2026-04-26T08:31:35.817Z</time></trkpt><trkpt lat="43.922454111930534" lon="12.153460874254359"><ele>172.33333333333334</ele><time>2026-04-26T08:31:36.817Z</time></trkpt><trkpt lat="43.92255880175615" lon="12.153666189017336"><ele>172.0</ele><time>2026-04-26T08:31:37.817Z</time></trkpt><trkpt lat="43.92265827660843" lon="12.153869746786224"><ele>174.0</ele><time>2026-04-26T08:31:38.817Z</time></trkpt><trkpt lat="43.922701448035696" lon="12.154117023232985"><ele>176.0</ele><time>2026-04-26T08:31:39.817Z</time></trkpt><trkpt lat="43.92274258624957" lon="12.15436883231812"><ele>178.0</ele><time>2026-04-26T08:31:40.817Z</time></trkpt><trkpt lat="43.92279960040259" lon="12.154628895203055"><ele>176.0</ele><time>2026-04-26T08:31:41.817Z</time></trkpt><trkpt lat="43.92284535974876" lon="12.154901081234794"><ele>174.0</ele><time>2026-04-26T08:31:42.817Z</time></trkpt><trkpt lat="43.922880947421724" lon="12.155184692467586"><ele>172.0</ele><time>2026-04-26T08:31:43.817Z</time></trkpt><trkpt lat="43.92291162156825" lon="12.155464554408539"><ele>172.0</ele><time>2026-04-26T08:31:44.817Z</time></trkpt><trkpt lat="43.92294102290063" lon="12.155753023179912"><ele>172.0</ele><time>2026-04-26T08:31:45.817Z</time></trkpt><trkpt lat="43.92296269592429" lon="12.156045963709559"><ele>172.0</ele><time>2026-04-26T08:31:46.817Z</time></trkpt><trkpt lat="43.922983614646945" lon="12.156339048675491"><ele>172.33333333333334</ele><time>2026-04-26T08:31:47.817Z</time></trkpt><trkpt lat="43.92301000254148" lon="12.156639763492926"><ele>172.66666666666666</ele><time>2026-04-26T08:31:48.817Z</time></trkpt><trkpt lat="43.92303212883274" lon="12.15694211653691"><ele>173.0</ele><time>2026-04-26T08:31:49.817Z</time></trkpt><trkpt lat="43.92306042856059" lon="12.15724134268479"><ele>174.0</ele><time>2026-04-26T08:31:50.817Z</time></trkpt><trkpt lat="43.923088513994955" lon="12.157546855426148"><ele>175.0</ele><time>2026-04-26T08:31:51.817Z</time></trkpt><trkpt lat="43.92311656248032" lon="12.15785944536441"><ele>176.0</ele><time>2026-04-26T08:31:52.817Z</time></trkpt><trkpt lat="43.92314435169543" lon="12.158176905053315"><ele>178.0</ele><time>2026-04-26T08:31:53.817Z</time></trkpt><trkpt lat="43.923173459022" lon="12.158497814582805"><ele>180.0</ele><time>2026-04-26T08:31:54.817Z</time></trkpt><trkpt lat="43.923199498746456" lon="12.158818519053764"><ele>182.5</ele><time>2026-04-26T08:31:55.817Z</time></trkpt><trkpt lat="43.92322505114542" lon="12.15913812933832"><ele>185.0</ele><time>2026-04-26T08:31:56.817Z</time></trkpt><trkpt lat="43.923247418461" lon="12.159460257172086"><ele>185.0</ele><time>2026-04-26T08:31:57.817Z</time></trkpt><trkpt lat="43.923272067706364" lon="12.159775655405273"><ele>185.0</ele><time>2026-04-26T08:31:58.817Z</time></trkpt><trkpt lat="43.9233072843813" lon="12.160100666399948"><ele>185.0</ele><time>2026-04-26T08:31:59.817Z</time></trkpt><trkpt lat="43.923340145157326" lon="12.160426870424438"><ele>185.0</ele><time>2026-04-26T08:32:00.817Z</time></trkpt><trkpt lat="43.923370867149906" lon="12.160751522149267"><ele>181.0</ele><time>2026-04-26T08:32:01.817Z</time></trkpt><trkpt lat="43.923395406183054" lon="12.16107538248899"><ele>177.0</ele><time>2026-04-26T08:32:02.817Z</time></trkpt><trkpt lat="43.92341829164435" lon="12.161394710162764"><ele>186.5</ele><time>2026-04-26T08:32:03.817Z</time></trkpt><trkpt lat="43.923443100455614" lon="12.161713224575758"><ele>196.0</ele><time>2026-04-26T08:32:04.817Z</time></trkpt><trkpt lat="43.923469616226896" lon="12.162029503753203"><ele>196.0</ele><time>2026-04-26T08:32:05.817Z</time></trkpt><trkpt lat="43.9234973155186" lon="12.16234701615291"><ele>196.0</ele><time>2026-04-26T08:32:06.817Z</time></trkpt><trkpt lat="43.923525162560864" lon="12.162665351678742"><ele>190.0</ele><time>2026-04-26T08:32:07.817Z</time></trkpt><trkpt lat="43.92355231546241" lon="12.162981444034395"><ele>184.0</ele><time>2026-04-26T08:32:08.817Z</time></trkpt><trkpt lat="43.92357741801046" lon="12.163296302244792"><ele>180.5</ele><time>2026-04-26T08:32:09.817Z</time></trkpt><trkpt lat="43.923603312039084" lon="12.163609400812778"><ele>177.0</ele><time>2026-04-26T08:32:10.817Z</time></trkpt><trkpt lat="43.92362635773185" lon="12.163931273116892"><ele>183.0</ele><time>2026-04-26T08:32:11.817Z</time></trkpt><trkpt lat="43.92364398242216" lon="12.164254361214462"><ele>189.0</ele><time>2026-04-26T08:32:12.816Z</time></trkpt><trkpt lat="43.92366297105722" lon="12.164577685858397"><ele>192.5</ele><time>2026-04-26T08:32:13.816Z</time></trkpt><trkpt lat="43.923684275316745" lon="12.16490405704261"><ele>196.0</ele><time>2026-04-26T08:32:14.816Z</time></trkpt><trkpt lat="43.923708290172286" lon="12.16522844077225"><ele>196.0</ele><time>2026-04-26T08:32:15.816Z</time></trkpt><trkpt lat="43.923733125118126" lon="12.16555017624051"><ele>196.0</ele><time>2026-04-26T08:32:16.816Z</time></trkpt><trkpt lat="43.923760634829534" lon="12.16586611494701"><ele>195.33333333333331</ele><time>2026-04-26T08:32:17.816Z</time></trkpt><trkpt lat="43.9237954626537" lon="12.166173145518744"><ele>194.66666666666669</ele><time>2026-04-26T08:32:18.816Z</time></trkpt><trkpt lat="43.923834821551175" lon="12.166472402015524"><ele>194.0</ele><time>2026-04-26T08:32:19.816Z</time></trkpt><trkpt lat="43.92388093602334" lon="12.166822649070346"><ele>187.5</ele><time>2026-04-26T08:32:20.816Z</time></trkpt><trkpt lat="43.92389715528626" lon="12.167194021581901"><ele>181.0</ele><time>2026-04-26T08:32:21.816Z</time></trkpt><trkpt lat="43.92391605078225" lon="12.16753960281804"><ele>179.5</ele><time>2026-04-26T08:32:22.816Z</time></trkpt><trkpt lat="43.92396073001985" lon="12.167873681467308"><ele>178.0</ele><time>2026-04-26T08:32:23.816Z</time></trkpt><trkpt lat="43.92401523922915" lon="12.168206994503523"><ele>177.0</ele><time>2026-04-26T08:32:24.816Z</time></trkpt><trkpt lat="43.92407153575566" lon="12.168533255694376"><ele>176.0</ele><time>2026-04-26T08:32:25.816Z</time></trkpt><trkpt lat="43.924129451787664" lon="12.168852213832352"><ele>176.0</ele><time>2026-04-26T08:32:26.816Z</time></trkpt><trkpt lat="43.924202343024426" lon="12.169159279799038"><ele>176.0</ele><time>2026-04-26T08:32:27.816Z</time></trkpt><trkpt lat="43.924295117954024" lon="12.169461351226154"><ele>176.0</ele><time>2026-04-26T08:32:28.816Z</time></trkpt><trkpt lat="43.92439420282087" lon="12.16974935026423"><ele>176.0</ele><time>2026-04-26T08:32:29.816Z</time></trkpt><trkpt lat="43.92451049122146" lon="12.170027204285935"><ele>173.5</ele><time>2026-04-26T08:32:30.816Z</time></trkpt><trkpt lat="43.92463433653205" lon="12.170297175912134"><ele>171.0</ele><time>2026-04-26T08:32:31.816Z</time></trkpt><trkpt lat="43.924773323903075" lon="12.170558487796022"><ele>174.5</ele><time>2026-04-26T08:32:32.816Z</time></trkpt><trkpt lat="43.924927136897345" lon="12.170813557155958"><ele>178.0</ele><time>2026-04-26T08:32:33.816Z</time></trkpt><trkpt lat="43.92509739537339" lon="12.171053980883004"><ele>170.5</ele><time>2026-04-26T08:32:34.816Z</time></trkpt><trkpt lat="43.92527946095086" lon="12.171287076605314"><ele>163.0</ele><time>2026-04-26T08:32:35.816Z</time></trkpt><trkpt lat="43.92546618055281" lon="12.171515994270385"><ele>167.0</ele><time>2026-04-26T08:32:36.816Z</time></trkpt><trkpt lat="43.925668200278295" lon="12.171732364143242"><ele>171.0</ele><time>2026-04-26T08:32:37.816Z</time></trkpt><trkpt lat="43.92587589408516" lon="12.171935192853745"><ele>174.5</ele><time>2026-04-26T08:32:38.814Z</time></trkpt><trkpt lat="43.92610294388512" lon="12.172121224058655"><ele>178.0</ele><time>2026-04-26T08:32:39.814Z</time></trkpt><trkpt lat="43.92634174006848" lon="12.172287275096691"><ele>182.5</ele><time>2026-04-26T08:32:40.814Z</time></trkpt><trkpt lat="43.926587802185416" lon="12.172443257392219"><ele>187.0</ele><time>2026-04-26T08:32:41.814Z</time></trkpt><trkpt lat="43.9268354508781" lon="12.17257032277401"><ele>187.0</ele><time>2026-04-26T08:32:42.813Z</time></trkpt><trkpt lat="43.92709532155279" lon="12.172678376865935"><ele>187.0</ele><time>2026-04-26T08:32:43.813Z</time></trkpt><trkpt lat="43.92735961187967" lon="12.172772048349488"><ele>185.5</ele><time>2026-04-26T08:32:44.813Z</time></trkpt><trkpt lat="43.927621874504474" lon="12.172851121378"><ele>184.0</ele><time>2026-04-26T08:32:45.814Z</time></trkpt><trkpt lat="43.927887948853616" lon="12.172924780228263"><ele>184.0</ele><time>2026-04-26T08:32:46.814Z</time></trkpt><trkpt lat="43.928155141298234" lon="12.172992124706914"><ele>184.0</ele><time>2026-04-26T08:32:47.814Z</time></trkpt><trkpt lat="43.92842287518914" lon="12.17305494160956"><ele>180.0</ele><time>2026-04-26T08:32:48.814Z</time></trkpt><trkpt lat="43.92867890202302" lon="12.173114319010802"><ele>176.0</ele><time>2026-04-26T08:32:49.814Z</time></trkpt><trkpt lat="43.92894044407448" lon="12.173180312629658"><ele>176.5</ele><time>2026-04-26T08:32:50.814Z</time></trkpt><trkpt lat="43.929192270607906" lon="12.173250582826189"><ele>177.0</ele><time>2026-04-26T08:32:51.814Z</time></trkpt><trkpt lat="43.9294446941831" lon="12.173317790605894"><ele>177.0</ele><time>2026-04-26T08:32:52.814Z</time></trkpt><trkpt lat="43.92969937114838" lon="12.173383470334679"><ele>177.0</ele><time>2026-04-26T08:32:53.814Z</time></trkpt><trkpt lat="43.92995751906433" lon="12.173458505114288"><ele>169.5</ele><time>2026-04-26T08:32:54.814Z</time></trkpt><trkpt lat="43.93021351922459" lon="12.173533262305932"><ele>162.0</ele><time>2026-04-26T08:32:55.814Z</time></trkpt><trkpt lat="43.9304579212957" lon="12.17360837501149"><ele>162.0</ele><time>2026-04-26T08:32:56.814Z</time></trkpt><trkpt lat="43.9306954749761" lon="12.173697146314385"><ele>162.0</ele><time>2026-04-26T08:32:57.814Z</time></trkpt><trkpt lat="43.930928054344925" lon="12.17379396084048"><ele>161.0</ele><time>2026-04-26T08:32:58.814Z</time></trkpt><trkpt lat="43.93115131625141" lon="12.173904678232892"><ele>160.0</ele><time>2026-04-26T08:32:59.814Z</time></trkpt><trkpt lat="43.93136669679841" lon="12.174031548465813"><ele>160.0</ele><time>2026-04-26T08:33:00.814Z</time></trkpt><trkpt lat="43.931575383470644" lon="12.174169190545832"><ele>160.0</ele><time>2026-04-26T08:33:01.813Z</time></trkpt><trkpt lat="43.931779466336906" lon="12.174324141105211"><ele>157.0</ele><time>2026-04-26T08:33:02.813Z</time></trkpt><trkpt lat="43.931972300256845" lon="12.174487880418939"><ele>154.0</ele><time>2026-04-26T08:33:03.813Z</time></trkpt><trkpt lat="43.93215861002864" lon="12.17466613751084"><ele>158.33333333333334</ele><time>2026-04-26T08:33:04.813Z</time></trkpt><trkpt lat="43.9323359218818" lon="12.174855266322615"><ele>162.66666666666666</ele><time>2026-04-26T08:33:05.813Z</time></trkpt><trkpt lat="43.93250448664813" lon="12.175057471150605"><ele>167.0</ele><time>2026-04-26T08:33:06.813Z</time></trkpt><trkpt lat="43.93266896898869" lon="12.17527691628471"><ele>167.0</ele><time>2026-04-26T08:33:07.813Z</time></trkpt><trkpt lat="43.93282779826229" lon="12.175504117130682"><ele>167.0</ele><time>2026-04-26T08:33:08.813Z</time></trkpt><trkpt lat="43.93298197115375" lon="12.175737370514925"><ele>173.66666666666666</ele><time>2026-04-26T08:33:09.813Z</time></trkpt><trkpt lat="43.93312450473996" lon="12.175975958324099"><ele>180.33333333333334</ele><time>2026-04-26T08:33:10.813Z</time></trkpt><trkpt lat="43.93326069251417" lon="12.176214389536218"><ele>187.0</ele><time>2026-04-26T08:33:11.813Z</time></trkpt><trkpt lat="43.9333824907766" lon="12.176447515658715"><ele>187.33333333333334</ele><time>2026-04-26T08:33:12.813Z</time></trkpt><trkpt lat="43.93349786810449" lon="12.176678318335973"><ele>187.66666666666666</ele><time>2026-04-26T08:33:13.813Z</time></trkpt><trkpt lat="43.93360316978902" lon="12.176892570743913"><ele>188.0</ele><time>2026-04-26T08:33:14.813Z</time></trkpt><trkpt lat="43.93370162326473" lon="12.177094453520658"><ele>188.0</ele><time>2026-04-26T08:33:15.813Z</time></trkpt><trkpt lat="43.933790510032324" lon="12.177279955687572"><ele>188.0</ele><time>2026-04-26T08:33:16.813Z</time></trkpt><trkpt lat="43.93386008361828" lon="12.17743466024099"><ele>188.0</ele><time>2026-04-26T08:33:17.813Z</time></trkpt><trkpt lat="43.933909456321274" lon="12.177562104857266"><ele>188.0</ele><time>2026-04-26T08:33:18.813Z</time></trkpt><trkpt lat="43.93394281761015" lon="12.177677939656853"><ele>189.0</ele><time>2026-04-26T08:33:19.813Z</time></trkpt><trkpt lat="43.933954761752275" lon="12.177802461995642"><ele>190.0</ele><time>2026-04-26T08:33:20.813Z</time></trkpt><trkpt lat="43.933901738068904" lon="12.17793242867755"><ele>191.0</ele><time>2026-04-26T08:33:21.813Z</time></trkpt><trkpt lat="43.933847101735225" lon="12.178051691063134"><ele>192.0</ele><time>2026-04-26T08:33:22.813Z</time></trkpt><trkpt lat="43.93377775450106" lon="12.1781288081124"><ele>193.0</ele><time>2026-04-26T08:33:23.813Z</time></trkpt><trkpt lat="43.933719834352445" lon="12.17820692782869"><ele>194.0</ele><time>2026-04-26T08:33:24.813Z</time></trkpt><trkpt lat="43.933672430021325" lon="12.178271260414974"><ele>195.0</ele><time>2026-04-26T08:33:25.813Z</time></trkpt><trkpt lat="43.93364143956386" lon="12.178381705711363"><ele>196.0</ele><time>2026-04-26T08:33:28.813Z</time></trkpt><trkpt lat="43.93370648336108" lon="12.178524632567319"><ele>197.0</ele><time>2026-04-26T08:33:30.813Z</time></trkpt><trkpt lat="43.93378341257518" lon="12.178601389022507"><ele>198.0</ele><time>2026-04-26T08:33:31.813Z</time></trkpt><trkpt lat="43.9338665203913" lon="12.17868646641442"><ele>198.0</ele><time>2026-04-26T08:33:32.813Z</time></trkpt><trkpt lat="43.933970324485756" lon="12.178773833032523"><ele>198.0</ele><time>2026-04-26T08:33:33.813Z</time></trkpt><trkpt lat="43.93409730268042" lon="12.178868657714693"><ele>198.0</ele><time>2026-04-26T08:33:34.813Z</time></trkpt><trkpt lat="43.93422840633555" lon="12.178964706201576"><ele>198.0</ele><time>2026-04-26T08:33:35.813Z</time></trkpt><trkpt lat="43.93437382956583" lon="12.179059855773227"><ele>197.33333333333331</ele><time>2026-04-26T08:33:36.813Z</time></trkpt><trkpt lat="43.93452200511579" lon="12.179156509967939"><ele>196.66666666666666</ele><time>2026-04-26T08:33:37.813Z</time></trkpt><trkpt lat="43.93468561636333" lon="12.179242231147724"><ele>196.0</ele><time>2026-04-26T08:33:38.813Z</time></trkpt><trkpt lat="43.934858893610546" lon="12.179310847003848"><ele>196.0</ele><time>2026-04-26T08:33:39.813Z</time></trkpt><trkpt lat="43.935032495882815" lon="12.179376217474553"><ele>196.0</ele><time>2026-04-26T08:33:40.813Z</time></trkpt><trkpt lat="43.93522480399768" lon="12.179447459206543"><ele>196.0</ele><time>2026-04-26T08:33:41.813Z</time></trkpt><trkpt lat="43.93541686935288" lon="12.179492278337086"><ele>191.0</ele><time>2026-04-26T08:33:42.813Z</time></trkpt><trkpt lat="43.93560521688615" lon="12.179546586863996"><ele>186.0</ele><time>2026-04-26T08:33:43.813Z</time></trkpt><trkpt lat="43.93579495230474" lon="12.179625198152088"><ele>181.0</ele><time>2026-04-26T08:33:44.813Z</time></trkpt><trkpt lat="43.93597492929187" lon="12.179735874748808"><ele>180.0</ele><time>2026-04-26T08:33:45.813Z</time></trkpt><trkpt lat="43.936141644250824" lon="12.17988962275984"><ele>179.0</ele><time>2026-04-26T08:33:46.813Z</time></trkpt><trkpt lat="43.936294649677826" lon="12.18006174308315"><ele>178.0</ele><time>2026-04-26T08:33:47.813Z</time></trkpt><trkpt lat="43.93643301655125" lon="12.180263094501132"><ele>178.0</ele><time>2026-04-26T08:33:48.813Z</time></trkpt><trkpt lat="43.93656256906374" lon="12.180466875566156"><ele>178.0</ele><time>2026-04-26T08:33:49.813Z</time></trkpt><trkpt lat="43.93666859048519" lon="12.180662019320318"><ele>178.0</ele><time>2026-04-26T08:33:50.812Z</time></trkpt><trkpt lat="43.9367551198965" lon="12.180844197676393"><ele>176.33333333333334</ele><time>2026-04-26T08:33:51.812Z</time></trkpt><trkpt lat="43.93681550455411" lon="12.181058003551264"><ele>174.66666666666666</ele><time>2026-04-26T08:33:52.812Z</time></trkpt><trkpt lat="43.93684802258825" lon="12.181287337181683"><ele>173.0</ele><time>2026-04-26T08:33:53.812Z</time></trkpt><trkpt lat="43.93686423035303" lon="12.181521775998952"><ele>173.0</ele><time>2026-04-26T08:33:54.812Z</time></trkpt><trkpt lat="43.93686695229414" lon="12.181739631685453"><ele>173.0</ele><time>2026-04-26T08:33:55.812Z</time></trkpt><trkpt lat="43.936873839492264" lon="12.181936218039011"><ele>173.0</ele><time>2026-04-26T08:33:56.812Z</time></trkpt><trkpt lat="43.93689997312401" lon="12.18211610213984"><ele>173.0</ele><time>2026-04-26T08:33:57.812Z</time></trkpt><trkpt lat="43.9369641347593" lon="12.182272070375943"><ele>176.66666666666666</ele><time>2026-04-26T08:33:58.812Z</time></trkpt><trkpt lat="43.93706591843848" lon="12.182405851143978"><ele>180.33333333333334</ele><time>2026-04-26T08:33:59.812Z</time></trkpt><trkpt lat="43.93720028503573" lon="12.182539903703082"><ele>184.0</ele><time>2026-04-26T08:34:00.812Z</time></trkpt><trkpt lat="43.937341505706534" lon="12.182649540599053"><ele>184.0</ele><time>2026-04-26T08:34:01.812Z</time></trkpt><trkpt lat="43.937503322820604" lon="12.182751637482975"><ele>184.0</ele><time>2026-04-26T08:34:02.812Z</time></trkpt><trkpt lat="43.93766156772574" lon="12.18289857830704"><ele>184.0</ele><time>2026-04-26T08:34:03.812Z</time></trkpt><trkpt lat="43.93782255331557" lon="12.183038242016652"><ele>183.66666666666669</ele><time>2026-04-26T08:34:04.812Z</time></trkpt><trkpt lat="43.937988178071734" lon="12.183169914234888"><ele>183.33333333333334</ele><time>2026-04-26T08:34:05.812Z</time></trkpt><trkpt lat="43.93813657542923" lon="12.18332757002113"><ele>183.0</ele><time>2026-04-26T08:34:06.812Z</time></trkpt><trkpt lat="43.93829441042215" lon="12.183475905127123"><ele>177.33333333333334</ele><time>2026-04-26T08:34:07.812Z</time></trkpt><trkpt lat="43.938447921757316" lon="12.1836385186935"><ele>171.66666666666669</ele><time>2026-04-26T08:34:08.812Z</time></trkpt><trkpt lat="43.93859969033274" lon="12.183801811375387"><ele>166.0</ele><time>2026-04-26T08:34:09.812Z</time></trkpt><trkpt lat="43.9387602057574" lon="12.183976595269478"><ele>170.0</ele><time>2026-04-26T08:34:10.812Z</time></trkpt><trkpt lat="43.93891379113897" lon="12.18415243136384"><ele>174.0</ele><time>2026-04-26T08:34:11.812Z</time></trkpt><trkpt lat="43.939071422473134" lon="12.184318986107803"><ele>178.0</ele><time>2026-04-26T08:34:12.812Z</time></trkpt><trkpt lat="43.939228315287465" lon="12.18449199712268"><ele>178.0</ele><time>2026-04-26T08:34:13.812Z</time></trkpt><trkpt lat="43.939374525439135" lon="12.18464255908519"><ele>178.0</ele><time>2026-04-26T08:34:14.812Z</time></trkpt><trkpt lat="43.93951690608232" lon="12.184789907725204"><ele>178.0</ele><time>2026-04-26T08:34:15.812Z</time></trkpt><trkpt lat="43.93966743944692" lon="12.184932667013024"><ele>178.0</ele><time>2026-04-26T08:34:16.812Z</time></trkpt><trkpt lat="43.93984572267053" lon="12.185028045687519"><ele>178.0</ele><time>2026-04-26T08:34:17.812Z</time></trkpt><trkpt lat="43.94001185513817" lon="12.185115144010803"><ele>178.0</ele><time>2026-04-26T08:34:18.812Z</time></trkpt><trkpt lat="43.94015718118075" lon="12.185191724329304"><ele>175.5</ele><time>2026-04-26T08:34:19.812Z</time></trkpt><trkpt lat="43.940289736480096" lon="12.18522744106926"><ele>173.0</ele><time>2026-04-26T08:34:20.812Z</time></trkpt><trkpt lat="43.940421837600184" lon="12.185242533217862"><ele>170.5</ele><time>2026-04-26T08:34:21.812Z</time></trkpt><trkpt lat="43.94056351191496" lon="12.185170979922939"><ele>168.0</ele><time>2026-04-26T08:34:22.812Z</time></trkpt><trkpt lat="43.94069356716606" lon="12.185048464476525"><ele>168.0</ele><time>2026-04-26T08:34:23.812Z</time></trkpt><trkpt lat="43.940813855826576" lon="12.184900058097519"><ele>168.0</ele><time>2026-04-26T08:34:24.812Z</time></trkpt><trkpt lat="43.94093468345049" lon="12.184730491222725"><ele>168.0</ele><time>2026-04-26T08:34:25.812Z</time></trkpt><trkpt lat="43.94107683330737" lon="12.18455554833466"><ele>166.33333333333334</ele><time>2026-04-26T08:34:26.812Z</time></trkpt><trkpt lat="43.941222281945244" lon="12.184382425760335"><ele>164.66666666666669</ele><time>2026-04-26T08:34:27.812Z</time></trkpt><trkpt lat="43.94136343959457" lon="12.184212051026982"><ele>163.0</ele><time>2026-04-26T08:34:28.812Z</time></trkpt><trkpt lat="43.94149265019388" lon="12.18405505641056"><ele>163.33333333333334</ele><time>2026-04-26T08:34:29.812Z</time></trkpt><trkpt lat="43.94160946623373" lon="12.183918703157158"><ele>163.66666666666666</ele><time>2026-04-26T08:34:30.812Z</time></trkpt><trkpt lat="43.941734685337806" lon="12.18379951657358"><ele>164.0</ele><time>2026-04-26T08:34:31.812Z</time></trkpt><trkpt lat="43.9418795730142" lon="12.183740370499207"><ele>168.0</ele><time>2026-04-26T08:34:32.812Z</time></trkpt><trkpt lat="43.94202534692426" lon="12.183664618210033"><ele>172.0</ele><time>2026-04-26T08:34:33.812Z</time></trkpt><trkpt lat="43.94219139163676" lon="12.183669444669535"><ele>176.0</ele><time>2026-04-26T08:34:34.812Z</time></trkpt><trkpt lat="43.94236087757227" lon="12.18368014270434"><ele>176.0</ele><time>2026-04-26T08:34:35.812Z</time></trkpt><trkpt lat="43.94252129147769" lon="12.183690356502686"><ele>176.0</ele><time>2026-04-26T08:34:36.812Z</time></trkpt><trkpt lat="43.94267192075751" lon="12.183699947290284"><ele>176.0</ele><time>2026-04-26T08:34:37.812Z</time></trkpt><trkpt lat="43.942814062787235" lon="12.18370737034753"><ele>176.75</ele><time>2026-04-26T08:34:38.812Z</time></trkpt><trkpt lat="43.94295076529537" lon="12.183714991218583"><ele>177.5</ele><time>2026-04-26T08:34:39.812Z</time></trkpt><trkpt lat="43.94307576036291" lon="12.183719481388568"><ele>178.25</ele><time>2026-04-26T08:34:40.811Z</time></trkpt><trkpt lat="43.94319603045672" lon="12.183716597650397"><ele>179.0</ele><time>2026-04-26T08:34:41.811Z</time></trkpt><trkpt lat="43.94330686129032" lon="12.183706700325933"><ele>179.33333333333331</ele><time>2026-04-26T08:34:42.811Z</time></trkpt><trkpt lat="43.94341452618195" lon="12.183689191052569"><ele>179.66666666666666</ele><time>2026-04-26T08:34:43.811Z</time></trkpt><trkpt lat="43.94351439432749" lon="12.183668765323592"><ele>180.0</ele><time>2026-04-26T08:34:44.81Z</time></trkpt><trkpt lat="43.94358822156942" lon="12.183650489616483"><ele>180.33333333333334</ele><time>2026-04-26T08:34:45.81Z</time></trkpt><trkpt lat="43.94366256956337" lon="12.183629709564386"><ele>180.66666666666669</ele><time>2026-04-26T08:34:47.81Z</time></trkpt><trkpt lat="43.943702467183485" lon="12.183560393262843"><ele>181.0</ele><time>2026-04-26T08:35:35.862Z</time></trkpt><trkpt lat="43.943788644666654" lon="12.183514779770702"><ele>181.0</ele><time>2026-04-26T08:35:37.861Z</time></trkpt><trkpt lat="43.94385575671704" lon="12.183486872643591"><ele>181.0</ele><time>2026-04-26T08:35:38.861Z</time></trkpt><trkpt lat="43.943943031627505" lon="12.183460814971596"><ele>181.0</ele><time>2026-04-26T08:35:39.861Z</time></trkpt><trkpt lat="43.94405464839064" lon="12.183511291720905"><ele>181.0</ele><time>2026-04-26T08:35:40.861Z</time></trkpt><trkpt lat="43.944159209282674" lon="12.183478959419764"><ele>181.0</ele><time>2026-04-26T08:35:41.861Z</time></trkpt><trkpt lat="43.94428026216469" lon="12.18344152746509"><ele>179.75</ele><time>2026-04-26T08:35:42.861Z</time></trkpt><trkpt lat="43.9444015910336" lon="12.183404010187793"><ele>178.5</ele><time>2026-04-26T08:35:43.861Z</time></trkpt><trkpt lat="43.944529861090395" lon="12.18336566557594"><ele>177.25</ele><time>2026-04-26T08:35:44.861Z</time></trkpt><trkpt lat="43.944666170600094" lon="12.183324741755044"><ele>176.0</ele><time>2026-04-26T08:35:45.861Z</time></trkpt><trkpt lat="43.944804203365194" lon="12.183283063532283"><ele>176.0</ele><time>2026-04-26T08:35:46.861Z</time></trkpt><trkpt lat="43.94494198128382" lon="12.183242646047331"><ele>176.0</ele><time>2026-04-26T08:35:47.861Z</time></trkpt><trkpt lat="43.94508797060085" lon="12.183200045977731"><ele>176.0</ele><time>2026-04-26T08:35:48.861Z</time></trkpt><trkpt lat="43.945243893766566" lon="12.18315454717837"><ele>176.0</ele><time>2026-04-26T08:35:49.861Z</time></trkpt><trkpt lat="43.94540091255257" lon="12.183108468680272"><ele>176.33333333333331</ele><time>2026-04-26T08:35:50.861Z</time></trkpt><trkpt lat="43.94556057662135" lon="12.18306021905222"><ele>176.66666666666666</ele><time>2026-04-26T08:35:51.861Z</time></trkpt><trkpt lat="43.94571399543909" lon="12.183013934764531"><ele>177.0</ele><time>2026-04-26T08:35:52.861Z</time></trkpt><trkpt lat="43.94586772085943" lon="12.182967556432466"><ele>176.66666666666666</ele><time>2026-04-26T08:35:53.861Z</time></trkpt><trkpt lat="43.94601973429537" lon="12.182922419031078"><ele>176.33333333333331</ele><time>2026-04-26T08:35:54.861Z</time></trkpt><trkpt lat="43.94617806990852" lon="12.182878986939302"><ele>176.0</ele><time>2026-04-26T08:35:55.861Z</time></trkpt><trkpt lat="43.946335855369426" lon="12.182863584472972"><ele>176.0</ele><time>2026-04-26T08:35:56.861Z</time></trkpt><trkpt lat="43.946489973025955" lon="12.1828771451302"><ele>176.0</ele><time>2026-04-26T08:35:57.861Z</time></trkpt><trkpt lat="43.946636527157" lon="12.182920514813528"><ele>176.0</ele><time>2026-04-26T08:35:58.861Z</time></trkpt><trkpt lat="43.94678298541893" lon="12.182986483295268"><ele>175.0</ele><time>2026-04-26T08:35:59.861Z</time></trkpt><trkpt lat="43.94692818363125" lon="12.183076261307393"><ele>174.0</ele><time>2026-04-26T08:36:00.861Z</time></trkpt><trkpt lat="43.94708054160559" lon="12.18316801682567"><ele>173.0</ele><time>2026-04-26T08:36:01.861Z</time></trkpt><trkpt lat="43.947238365479926" lon="12.18326302804528"><ele>173.66666666666666</ele><time>2026-04-26T08:36:02.861Z</time></trkpt><trkpt lat="43.94739474164972" lon="12.183356563711891"><ele>174.33333333333334</ele><time>2026-04-26T08:36:03.861Z</time></trkpt><trkpt lat="43.94755544096067" lon="12.183452685259173"><ele>175.0</ele><time>2026-04-26T08:36:04.861Z</time></trkpt><trkpt lat="43.947715113446314" lon="12.183543073880035"><ele>175.0</ele><time>2026-04-26T08:36:05.861Z</time></trkpt><trkpt lat="43.94787823515069" lon="12.18363596633656"><ele>175.0</ele><time>2026-04-26T08:36:06.861Z</time></trkpt><trkpt lat="43.94803642162492" lon="12.183732675188612"><ele>175.0</ele><time>2026-04-26T08:36:07.861Z</time></trkpt><trkpt lat="43.948201248885326" lon="12.183824916021447"><ele>175.0</ele><time>2026-04-26T08:36:08.861Z</time></trkpt><trkpt lat="43.948360822774696" lon="12.183923469085194"><ele>175.0</ele><time>2026-04-26T08:36:09.861Z</time></trkpt><trkpt lat="43.94851609661355" lon="12.184017135712512"><ele>175.0</ele><time>2026-04-26T08:36:10.861Z</time></trkpt><trkpt lat="43.94867678794614" lon="12.184110835194744"><ele>174.0</ele><time>2026-04-26T08:36:11.861Z</time></trkpt><trkpt lat="43.94883578178565" lon="12.184208810366416"><ele>173.0</ele><time>2026-04-26T08:36:12.861Z</time></trkpt><trkpt lat="43.94900633295351" lon="12.184280401702269"><ele>172.0</ele><time>2026-04-26T08:36:13.861Z</time></trkpt><trkpt lat="43.94918440939713" lon="12.184357860982722"><ele>172.0</ele><time>2026-04-26T08:36:14.861Z</time></trkpt><trkpt lat="43.94935504834675" lon="12.184438204739504"><ele>172.0</ele><time>2026-04-26T08:36:15.861Z</time></trkpt><trkpt lat="43.94953565971457" lon="12.184501659175329"><ele>172.0</ele><time>2026-04-26T08:36:16.861Z</time></trkpt><trkpt lat="43.94971680702375" lon="12.184570437703872"><ele>172.0</ele><time>2026-04-26T08:36:17.861Z</time></trkpt><trkpt lat="43.949896375676936" lon="12.184632817415435"><ele>172.0</ele><time>2026-04-26T08:36:18.861Z</time></trkpt><trkpt lat="43.9500829197671" lon="12.18469731729808"><ele>172.0</ele><time>2026-04-26T08:36:19.861Z</time></trkpt><trkpt lat="43.95027369185094" lon="12.18476772543361"><ele>171.66666666666669</ele><time>2026-04-26T08:36:20.861Z</time></trkpt><trkpt lat="43.950465223198016" lon="12.184837929306468"><ele>171.33333333333334</ele><time>2026-04-26T08:36:21.861Z</time></trkpt><trkpt lat="43.95065023348344" lon="12.184907440335625"><ele>171.0</ele><time>2026-04-26T08:36:22.861Z</time></trkpt><trkpt lat="43.950830462809144" lon="12.18497605309905"><ele>167.66666666666666</ele><time>2026-04-26T08:36:23.861Z</time></trkpt><trkpt lat="43.95101247693469" lon="12.18503764088502"><ele>164.33333333333331</ele><time>2026-04-26T08:36:24.861Z</time></trkpt><trkpt lat="43.951200567264145" lon="12.18508541805497"><ele>161.0</ele><time>2026-04-26T08:36:25.861Z</time></trkpt><trkpt lat="43.9513838376261" lon="12.185140732450101"><ele>161.0</ele><time>2026-04-26T08:36:26.861Z</time></trkpt><trkpt lat="43.951578382672515" lon="12.185178382666264"><ele>161.0</ele><time>2026-04-26T08:36:27.861Z</time></trkpt><trkpt lat="43.95176236692099" lon="12.185214986073587"><ele>161.0</ele><time>2026-04-26T08:36:28.861Z</time></trkpt><trkpt lat="43.9519532861172" lon="12.18523954218923"><ele>160.0</ele><time>2026-04-26T08:36:29.861Z</time></trkpt><trkpt lat="43.95214348003075" lon="12.185245402749585"><ele>159.0</ele><time>2026-04-26T08:36:30.861Z</time></trkpt><trkpt lat="43.952332170707585" lon="12.185218084305019"><ele>158.0</ele><time>2026-04-26T08:36:31.861Z</time></trkpt><trkpt lat="43.952517341883464" lon="12.185163146264415"><ele>156.33333333333331</ele><time>2026-04-26T08:36:32.861Z</time></trkpt><trkpt lat="43.952695101352504" lon="12.18509856260057"><ele>154.66666666666666</ele><time>2026-04-26T08:36:33.861Z</time></trkpt><trkpt lat="43.95286556352898" lon="12.185062560588838"><ele>153.0</ele><time>2026-04-26T08:36:34.861Z</time></trkpt><trkpt lat="43.95302862363714" lon="12.185024753804452"><ele>153.0</ele><time>2026-04-26T08:36:35.861Z</time></trkpt><trkpt lat="43.953200537349474" lon="12.185021432984229"><ele>153.0</ele><time>2026-04-26T08:36:36.861Z</time></trkpt><trkpt lat="43.953379738433924" lon="12.185067754553415"><ele>153.0</ele><time>2026-04-26T08:36:37.861Z</time></trkpt><trkpt lat="43.95356345571555" lon="12.185124657327618"><ele>154.0</ele><time>2026-04-26T08:36:38.861Z</time></trkpt><trkpt lat="43.953739850140884" lon="12.185180428726532"><ele>155.0</ele><time>2026-04-26T08:36:39.861Z</time></trkpt><trkpt lat="43.95390503913839" lon="12.185215210660227"><ele>156.0</ele><time>2026-04-26T08:36:40.861Z</time></trkpt><trkpt lat="43.95405642494097" lon="12.185287300490742"><ele>156.0</ele><time>2026-04-26T08:36:41.861Z</time></trkpt><trkpt lat="43.95418829560494" lon="12.18540905411476"><ele>156.0</ele><time>2026-04-26T08:36:42.861Z</time></trkpt><trkpt lat="43.9543326644639" lon="12.185552598916729"><ele>156.0</ele><time>2026-04-26T08:36:43.861Z</time></trkpt><trkpt lat="43.954495063515076" lon="12.18569623242591"><ele>154.66666666666666</ele><time>2026-04-26T08:36:44.861Z</time></trkpt><trkpt lat="43.95465159048897" lon="12.185877641373365"><ele>153.33333333333331</ele><time>2026-04-26T08:36:45.861Z</time></trkpt><trkpt lat="43.954810025569394" lon="12.186058599746643"><ele>152.0</ele><time>2026-04-26T08:36:46.861Z</time></trkpt><trkpt lat="43.95495606543601" lon="12.186241644694915"><ele>152.66666666666666</ele><time>2026-04-26T08:36:47.861Z</time></trkpt><trkpt lat="43.955091989305885" lon="12.186412470682532"><ele>153.33333333333334</ele><time>2026-04-26T08:36:48.861Z</time></trkpt><trkpt lat="43.95522423442836" lon="12.18656558782539"><ele>154.0</ele><time>2026-04-26T08:36:49.861Z</time></trkpt><trkpt lat="43.955347849232304" lon="12.18670437213516"><ele>154.0</ele><time>2026-04-26T08:36:50.86Z</time></trkpt><trkpt lat="43.95545728281391" lon="12.186829192101998"><ele>154.0</ele><time>2026-04-26T08:36:51.86Z</time></trkpt><trkpt lat="43.95554377075292" lon="12.186972419058929"><ele>154.0</ele><time>2026-04-26T08:36:52.86Z</time></trkpt><trkpt lat="43.955627713957035" lon="12.187094929454613"><ele>154.0</ele><time>2026-04-26T08:36:53.859Z</time></trkpt><trkpt lat="43.95568259789402" lon="12.187225576396271"><ele>154.0</ele><time>2026-04-26T08:36:54.859Z</time></trkpt><trkpt lat="43.95571531640717" lon="12.187313738388328"><ele>154.0</ele><time>2026-04-26T08:36:55.859Z</time></trkpt><trkpt lat="43.95575817642161" lon="12.187411231689694"><ele>154.0</ele><time>2026-04-26T08:36:57.86Z</time></trkpt><trkpt lat="43.955827963509435" lon="12.187519432920244"><ele>154.0</ele><time>2026-04-26T08:37:43.859Z</time></trkpt><trkpt lat="43.95586610092365" lon="12.187619486414059"><ele>154.0</ele><time>2026-04-26T08:37:45.859Z</time></trkpt><trkpt lat="43.955903660565184" lon="12.187705472444902"><ele>154.0</ele><time>2026-04-26T08:37:46.859Z</time></trkpt><trkpt lat="43.955950392755064" lon="12.187804470424632"><ele>157.4</ele><time>2026-04-26T08:37:47.859Z</time></trkpt><trkpt lat="43.955996150581115" lon="12.187916655307022"><ele>160.8</ele><time>2026-04-26T08:37:48.859Z</time></trkpt><trkpt lat="43.956043826647694" lon="12.188039590321267"><ele>164.20000000000002</ele><time>2026-04-26T08:37:49.859Z</time></trkpt><trkpt lat="43.95608355903433" lon="12.188185450103987"><ele>167.60000000000002</ele><time>2026-04-26T08:37:50.859Z</time></trkpt><trkpt lat="43.956081108884014" lon="12.188337910382009"><ele>171.0</ele><time>2026-04-26T08:37:51.859Z</time></trkpt><trkpt lat="43.956100180134825" lon="12.188469330383562"><ele>171.0</ele><time>2026-04-26T08:37:52.859Z</time></trkpt><trkpt lat="43.95611278343277" lon="12.188603029372217"><ele>171.0</ele><time>2026-04-26T08:37:53.859Z</time></trkpt><trkpt lat="43.95611240843952" lon="12.188735938408655"><ele>171.0</ele><time>2026-04-26T08:37:54.859Z</time></trkpt><trkpt lat="43.95610290488089" lon="12.188881937846734"><ele>171.0</ele><time>2026-04-26T08:37:55.859Z</time></trkpt><trkpt lat="43.95608786709317" lon="12.189020389062794"><ele>171.0</ele><time>2026-04-26T08:37:56.859Z</time></trkpt><trkpt lat="43.95607156071217" lon="12.189149602671543"><ele>172.66666666666666</ele><time>2026-04-26T08:37:57.859Z</time></trkpt><trkpt lat="43.95606425880238" lon="12.189289439759198"><ele>174.33333333333334</ele><time>2026-04-26T08:37:58.859Z</time></trkpt><trkpt lat="43.95603420924849" lon="12.18940673587122"><ele>176.0</ele><time>2026-04-26T08:37:59.859Z</time></trkpt><trkpt lat="43.95600814243438" lon="12.189507027260383"><ele>177.66666666666669</ele><time>2026-04-26T08:38:00.859Z</time></trkpt><trkpt lat="43.95598326060965" lon="12.189602699278195"><ele>179.33333333333334</ele><time>2026-04-26T08:38:01.859Z</time></trkpt><trkpt lat="43.95595421941863" lon="12.189697827904098"><ele>181.0</ele><time>2026-04-26T08:38:02.859Z</time></trkpt><trkpt lat="43.955915837216054" lon="12.189793743324714"><ele>179.33333333333334</ele><time>2026-04-26T08:38:03.859Z</time></trkpt><trkpt lat="43.95588959829167" lon="12.189884504239407"><ele>177.66666666666669</ele><time>2026-04-26T08:38:04.859Z</time></trkpt><trkpt lat="43.95584165058726" lon="12.189982030975635"><ele>176.0</ele><time>2026-04-26T08:38:05.859Z</time></trkpt><trkpt lat="43.95578577775201" lon="12.190086218184637"><ele>174.33333333333334</ele><time>2026-04-26T08:38:06.859Z</time></trkpt><trkpt lat="43.95575482250299" lon="12.190202542905658"><ele>172.66666666666666</ele><time>2026-04-26T08:38:07.859Z</time></trkpt><trkpt lat="43.95570099504974" lon="12.190295353286663"><ele>171.0</ele><time>2026-04-26T08:38:08.859Z</time></trkpt><trkpt lat="43.9556477439059" lon="12.190386865264461"><ele>168.66666666666666</ele><time>2026-04-26T08:38:09.859Z</time></trkpt><trkpt lat="43.95559292261381" lon="12.190478211234062"><ele>166.33333333333334</ele><time>2026-04-26T08:38:10.859Z</time></trkpt><trkpt lat="43.9555312995664" lon="12.1905773843858"><ele>164.0</ele><time>2026-04-26T08:38:11.859Z</time></trkpt><trkpt lat="43.955464526123784" lon="12.19066240732056"><ele>161.66666666666669</ele><time>2026-04-26T08:38:12.858Z</time></trkpt><trkpt lat="43.95538647384181" lon="12.19071688742883"><ele>159.33333333333334</ele><time>2026-04-26T08:38:13.858Z</time></trkpt><trkpt lat="43.955308443727965" lon="12.190767611067763"><ele>157.0</ele><time>2026-04-26T08:38:14.858Z</time></trkpt><trkpt lat="43.955225247320605" lon="12.190813087412794"><ele>157.0</ele><time>2026-04-26T08:38:15.858Z</time></trkpt><trkpt lat="43.955141313637405" lon="12.190840863085299"><ele>157.0</ele><time>2026-04-26T08:38:16.858Z</time></trkpt><trkpt lat="43.95504345594828" lon="12.19085938449046"><ele>157.0</ele><time>2026-04-26T08:38:17.858Z</time></trkpt><trkpt lat="43.954949975902004" lon="12.1908609987444"><ele>157.0</ele><time>2026-04-26T08:38:18.858Z</time></trkpt><trkpt lat="43.954855273006345" lon="12.19084387649284"><ele>157.0</ele><time>2026-04-26T08:38:19.858Z</time></trkpt><trkpt lat="43.95476274178653" lon="12.190834687840523"><ele>154.16666666666669</ele><time>2026-04-26T08:38:20.858Z</time></trkpt><trkpt lat="43.954681126923994" lon="12.190829926733807"><ele>151.33333333333334</ele><time>2026-04-26T08:38:21.858Z</time></trkpt><trkpt lat="43.954598514028035" lon="12.190830825153142"><ele>148.5</ele><time>2026-04-26T08:38:22.858Z</time></trkpt><trkpt lat="43.95451563139823" lon="12.190854840027695"><ele>145.66666666666666</ele><time>2026-04-26T08:38:23.858Z</time></trkpt><trkpt lat="43.95443979340494" lon="12.190895463328436"><ele>142.83333333333331</ele><time>2026-04-26T08:38:24.858Z</time></trkpt><trkpt lat="43.95437208077333" lon="12.190962945248717"><ele>140.0</ele><time>2026-04-26T08:38:25.858Z</time></trkpt><trkpt lat="43.95431323544881" lon="12.191044148495257"><ele>140.0</ele><time>2026-04-26T08:38:26.858Z</time></trkpt><trkpt lat="43.954274637889476" lon="12.191122898787729"><ele>140.0</ele><time>2026-04-26T08:38:27.858Z</time></trkpt><trkpt lat="43.95422210089209" lon="12.191270684002921"><ele>140.0</ele><time>2026-04-26T08:38:29.858Z</time></trkpt><trkpt lat="43.954202249218326" lon="12.19146167832348"><ele>140.0</ele><time>2026-04-26T08:38:31.858Z</time></trkpt><trkpt lat="43.95422436495943" lon="12.191569627640062"><ele>140.0</ele><time>2026-04-26T08:38:32.858Z</time></trkpt><trkpt lat="43.954267779627074" lon="12.191684687293291"><ele>142.75</ele><time>2026-04-26T08:38:33.858Z</time></trkpt><trkpt lat="43.954336319886615" lon="12.191812431777446"><ele>145.5</ele><time>2026-04-26T08:38:34.858Z</time></trkpt><trkpt lat="43.95443130248676" lon="12.191922644789503"><ele>148.25</ele><time>2026-04-26T08:38:35.858Z</time></trkpt><trkpt lat="43.95452444664871" lon="12.192038712027351"><ele>151.0</ele><time>2026-04-26T08:38:36.858Z</time></trkpt><trkpt lat="43.954633072482224" lon="12.19218562115384"><ele>151.0</ele><time>2026-04-26T08:38:37.858Z</time></trkpt><trkpt lat="43.95473862534201" lon="12.192330019915707"><ele>151.0</ele><time>2026-04-26T08:38:38.858Z</time></trkpt><trkpt lat="43.954837968828286" lon="12.192474110316809"><ele>151.0</ele><time>2026-04-26T08:38:39.858Z</time></trkpt><trkpt lat="43.9549537718868" lon="12.19260068095836"><ele>151.0</ele><time>2026-04-26T08:38:40.858Z</time></trkpt><trkpt lat="43.95510158794346" lon="12.19268358948117"><ele>151.66666666666669</ele><time>2026-04-26T08:38:41.858Z</time></trkpt><trkpt lat="43.95526703791929" lon="12.192728675219954"><ele>152.33333333333334</ele><time>2026-04-26T08:38:42.858Z</time></trkpt><trkpt lat="43.955419935494454" lon="12.192780649075916"><ele>153.0</ele><time>2026-04-26T08:38:43.858Z</time></trkpt><trkpt lat="43.95555167060421" lon="12.192905978729327"><ele>153.0</ele><time>2026-04-26T08:38:44.858Z</time></trkpt><trkpt lat="43.95566499991939" lon="12.193071432687157"><ele>153.0</ele><time>2026-04-26T08:38:45.858Z</time></trkpt><trkpt lat="43.95578038881098" lon="12.193258501734878"><ele>153.0</ele><time>2026-04-26T08:38:46.858Z</time></trkpt><trkpt lat="43.95589654905002" lon="12.19344335472171"><ele>155.66666666666666</ele><time>2026-04-26T08:38:47.858Z</time></trkpt><trkpt lat="43.956012486461674" lon="12.193625804689484"><ele>158.33333333333331</ele><time>2026-04-26T08:38:48.858Z</time></trkpt><trkpt lat="43.95612273662061" lon="12.193794659303911"><ele>161.0</ele><time>2026-04-26T08:38:49.858Z</time></trkpt><trkpt lat="43.95621022798044" lon="12.193975626555302"><ele>160.0</ele><time>2026-04-26T08:38:50.858Z</time></trkpt><trkpt lat="43.95629431596783" lon="12.194153825567716"><ele>159.0</ele><time>2026-04-26T08:38:51.858Z</time></trkpt><trkpt lat="43.956371226455104" lon="12.194335444903865"><ele>158.0</ele><time>2026-04-26T08:38:52.858Z</time></trkpt><trkpt lat="43.956422396707275" lon="12.194528912122239"><ele>158.0</ele><time>2026-04-26T08:38:53.858Z</time></trkpt><trkpt lat="43.95646462810426" lon="12.194719885998737"><ele>158.0</ele><time>2026-04-26T08:38:54.858Z</time></trkpt><trkpt lat="43.95650502802689" lon="12.19489755516493"><ele>158.0</ele><time>2026-04-26T08:38:55.858Z</time></trkpt><trkpt lat="43.9565706627134" lon="12.195052381035335"><ele>158.0</ele><time>2026-04-26T08:38:56.857Z</time></trkpt><trkpt lat="43.95666930507249" lon="12.195213029724437"><ele>159.0</ele><time>2026-04-26T08:38:57.857Z</time></trkpt><trkpt lat="43.95680310785782" lon="12.195336906599218"><ele>160.0</ele><time>2026-04-26T08:38:58.857Z</time></trkpt><trkpt lat="43.9569676625292" lon="12.195395013470538"><ele>161.0</ele><time>2026-04-26T08:38:59.857Z</time></trkpt><trkpt lat="43.9571413824127" lon="12.195410299922779"><ele>161.0</ele><time>2026-04-26T08:39:00.857Z</time></trkpt><trkpt lat="43.9573196817061" lon="12.195378253840563"><ele>161.0</ele><time>2026-04-26T08:39:01.857Z</time></trkpt><trkpt lat="43.957491848520355" lon="12.195379776556596"><ele>161.0</ele><time>2026-04-26T08:39:02.857Z</time></trkpt><trkpt lat="43.95765576797232" lon="12.195449567715617"><ele>162.0</ele><time>2026-04-26T08:39:03.857Z</time></trkpt><trkpt lat="43.95781002711953" lon="12.195554873049264"><ele>163.0</ele><time>2026-04-26T08:39:04.857Z</time></trkpt><trkpt lat="43.95797982169078" lon="12.195666620142525"><ele>164.0</ele><time>2026-04-26T08:39:05.857Z</time></trkpt><trkpt lat="43.958146341902946" lon="12.195765669907399"><ele>162.0</ele><time>2026-04-26T08:39:06.856Z</time></trkpt><trkpt lat="43.958302294061596" lon="12.19587418445419"><ele>160.0</ele><time>2026-04-26T08:39:07.856Z</time></trkpt><trkpt lat="43.95844979256602" lon="12.195974578514441"><ele>158.0</ele><time>2026-04-26T08:39:08.857Z</time></trkpt><trkpt lat="43.95859752445669" lon="12.196077722299249"><ele>158.0</ele><time>2026-04-26T08:39:09.857Z</time></trkpt><trkpt lat="43.95874375513247" lon="12.196174643564802"><ele>158.0</ele><time>2026-04-26T08:39:10.857Z</time></trkpt><trkpt lat="43.95888217677412" lon="12.19625531407378"><ele>158.0</ele><time>2026-04-26T08:39:11.857Z</time></trkpt><trkpt lat="43.95902180055996" lon="12.196337149276845"><ele>158.0</ele><time>2026-04-26T08:39:12.857Z</time></trkpt><trkpt lat="43.95916355655881" lon="12.196428175136294"><ele>158.0</ele><time>2026-04-26T08:39:13.857Z</time></trkpt><trkpt lat="43.95929588684024" lon="12.196532038429373"><ele>158.0</ele><time>2026-04-26T08:39:14.857Z</time></trkpt><trkpt lat="43.95942940605622" lon="12.19662061318626"><ele>158.0</ele><time>2026-04-26T08:39:15.857Z</time></trkpt><trkpt lat="43.959561712682195" lon="12.196707027309227"><ele>158.0</ele><time>2026-04-26T08:39:16.857Z</time></trkpt><trkpt lat="43.959702412055954" lon="12.196797958058779"><ele>158.0</ele><time>2026-04-26T08:39:17.857Z</time></trkpt><trkpt lat="43.95984251043629" lon="12.196887391548097"><ele>158.0</ele><time>2026-04-26T08:39:18.857Z</time></trkpt><trkpt lat="43.95998539153589" lon="12.196978937754881"><ele>158.0</ele><time>2026-04-26T08:39:19.857Z</time></trkpt><trkpt lat="43.96012793957213" lon="12.197072304197205"><ele>158.0</ele><time>2026-04-26T08:39:20.857Z</time></trkpt><trkpt lat="43.96029025747261" lon="12.19717548143304"><ele>160.33333333333331</ele><time>2026-04-26T08:39:21.857Z</time></trkpt><trkpt lat="43.96045738352458" lon="12.19726155953472"><ele>162.66666666666666</ele><time>2026-04-26T08:39:22.857Z</time></trkpt><trkpt lat="43.960632619206955" lon="12.197328746905342"><ele>165.0</ele><time>2026-04-26T08:39:23.857Z</time></trkpt><trkpt lat="43.96081160819004" lon="12.197380784311626"><ele>162.66666666666666</ele><time>2026-04-26T08:39:24.857Z</time></trkpt><trkpt lat="43.96099427363708" lon="12.197429549103806"><ele>160.33333333333331</ele><time>2026-04-26T08:39:25.857Z</time></trkpt><trkpt lat="43.961185525247046" lon="12.197479233700179"><ele>158.0</ele><time>2026-04-26T08:39:26.857Z</time></trkpt><trkpt lat="43.96138259390445" lon="12.197530294451209"><ele>158.0</ele><time>2026-04-26T08:39:27.857Z</time></trkpt><trkpt lat="43.96156238997969" lon="12.197578915223579"><ele>158.0</ele><time>2026-04-26T08:39:28.857Z</time></trkpt><trkpt lat="43.96174752059288" lon="12.19763045329592"><ele>158.0</ele><time>2026-04-26T08:39:29.857Z</time></trkpt><trkpt lat="43.96192685699011" lon="12.19768037831663"><ele>161.0</ele><time>2026-04-26T08:39:30.857Z</time></trkpt><trkpt lat="43.962101163974175" lon="12.197726629558051"><ele>164.0</ele><time>2026-04-26T08:39:31.857Z</time></trkpt><trkpt lat="43.96227163448116" lon="12.197771368607102"><ele>167.0</ele><time>2026-04-26T08:39:32.857Z</time></trkpt><trkpt lat="43.962451258396996" lon="12.197818496629187"><ele>167.33333333333331</ele><time>2026-04-26T08:39:33.857Z</time></trkpt><trkpt lat="43.96262471591796" lon="12.197864006768242"><ele>167.66666666666666</ele><time>2026-04-26T08:39:34.857Z</time></trkpt><trkpt lat="43.96280663470496" lon="12.197912570857826"><ele>168.0</ele><time>2026-04-26T08:39:35.857Z</time></trkpt><trkpt lat="43.962994031403156" lon="12.19796333974779"><ele>168.0</ele><time>2026-04-26T08:39:36.857Z</time></trkpt><trkpt lat="43.96317700827106" lon="12.198012911251643"><ele>168.0</ele><time>2026-04-26T08:39:37.857Z</time></trkpt><trkpt lat="43.96335734801661" lon="12.198061768300974"><ele>168.0</ele><time>2026-04-26T08:39:38.857Z</time></trkpt><trkpt lat="43.963531317149815" lon="12.1981088994503"><ele>168.0</ele><time>2026-04-26T08:39:39.857Z</time></trkpt><trkpt lat="43.963697353445006" lon="12.198153881454687"><ele>168.0</ele><time>2026-04-26T08:39:40.857Z</time></trkpt><trkpt lat="43.96385229038248" lon="12.198195478634279"><ele>168.0</ele><time>2026-04-26T08:39:41.857Z</time></trkpt><trkpt lat="43.96400521678421" lon="12.198236068466016"><ele>166.66666666666666</ele><time>2026-04-26T08:39:42.857Z</time></trkpt><trkpt lat="43.96416278179542" lon="12.198231766487012"><ele>165.33333333333331</ele><time>2026-04-26T08:39:43.857Z</time></trkpt><trkpt lat="43.964310084732396" lon="12.198270299546694"><ele>164.0</ele><time>2026-04-26T08:39:44.857Z</time></trkpt><trkpt lat="43.96445355994835" lon="12.198306983721537"><ele>163.75</ele><time>2026-04-26T08:39:45.857Z</time></trkpt><trkpt lat="43.96459513309714" lon="12.198347013160287"><ele>163.5</ele><time>2026-04-26T08:39:46.857Z</time></trkpt><trkpt lat="43.96473021463348" lon="12.198384772545257"><ele>163.25</ele><time>2026-04-26T08:39:47.857Z</time></trkpt><trkpt lat="43.96485710518903" lon="12.198462111471985"><ele>163.0</ele><time>2026-04-26T08:39:48.857Z</time></trkpt><trkpt lat="43.96498680132521" lon="12.198496009261182"><ele>163.25</ele><time>2026-04-26T08:39:49.857Z</time></trkpt><trkpt lat="43.96511122285069" lon="12.198528517773273"><ele>163.5</ele><time>2026-04-26T08:39:50.857Z</time></trkpt><trkpt lat="43.9652267472467" lon="12.1985603946831"><ele>163.75</ele><time>2026-04-26T08:39:51.857Z</time></trkpt><trkpt lat="43.96533620745672" lon="12.19859133532574"><ele>164.0</ele><time>2026-04-26T08:39:52.857Z</time></trkpt><trkpt lat="43.96543539071857" lon="12.198619370997736"><ele>164.0</ele><time>2026-04-26T08:39:53.857Z</time></trkpt><trkpt lat="43.96553222952962" lon="12.198646744008036"><ele>164.0</ele><time>2026-04-26T08:39:54.857Z</time></trkpt><trkpt lat="43.96562035359534" lon="12.198652634789223"><ele>164.0</ele><time>2026-04-26T08:39:55.857Z</time></trkpt><trkpt lat="43.965687183722096" lon="12.198710921834639"><ele>164.0</ele><time>2026-04-26T08:39:56.857Z</time></trkpt><trkpt lat="43.965754948613494" lon="12.19878978021561"><ele>164.0</ele><time>2026-04-26T08:39:57.857Z</time></trkpt><trkpt lat="43.96582735061675" lon="12.198855833246675"><ele>164.0</ele><time>2026-04-26T08:39:58.857Z</time></trkpt><trkpt lat="43.96591969608867" lon="12.198891337321998"><ele>164.39999999999998</ele><time>2026-04-26T08:39:59.857Z</time></trkpt><trkpt lat="43.96601627624396" lon="12.198886293649638"><ele>164.8</ele><time>2026-04-26T08:40:00.857Z</time></trkpt><trkpt lat="43.96611176589178" lon="12.198880411403843"><ele>165.2</ele><time>2026-04-26T08:40:01.857Z</time></trkpt><trkpt lat="43.966201618282774" lon="12.198813135789148"><ele>165.60000000000002</ele><time>2026-04-26T08:40:02.857Z</time></trkpt><trkpt lat="43.96629525985737" lon="12.19884870974079"><ele>166.0</ele><time>2026-04-26T08:40:03.857Z</time></trkpt><trkpt lat="43.96638931939111" lon="12.198873184254099"><ele>166.0</ele><time>2026-04-26T08:40:04.857Z</time></trkpt><trkpt lat="43.96648410863319" lon="12.198898887114773"><ele>166.0</ele><time>2026-04-26T08:40:05.857Z</time></trkpt><trkpt lat="43.96656577831154" lon="12.198920906091963"><ele>166.0</ele><time>2026-04-26T08:40:06.857Z</time></trkpt><trkpt lat="43.966646290126974" lon="12.198941924659087"><ele>166.0</ele><time>2026-04-26T08:40:07.857Z</time></trkpt><trkpt lat="43.966722658120176" lon="12.198957913089044"><ele>166.0</ele><time>2026-04-26T08:40:08.856Z</time></trkpt><trkpt lat="43.96679666798219" lon="12.19895241093145"><ele>166.0</ele><time>2026-04-26T08:40:09.856Z</time></trkpt><trkpt lat="43.96686133237995" lon="12.198966250637026"><ele>166.20000000000002</ele><time>2026-04-26T08:40:10.856Z</time></trkpt><trkpt lat="43.96698982601012" lon="12.198988407071077"><ele>166.4</ele><time>2026-04-26T08:40:12.856Z</time></trkpt><trkpt lat="43.96706247202205" lon="12.198992189646352"><ele>166.6</ele><time>2026-04-26T08:40:13.856Z</time></trkpt><trkpt lat="43.967147065968476" lon="12.198993159155457"><ele>166.8</ele><time>2026-04-26T08:40:14.856Z</time></trkpt><trkpt lat="43.96724042186533" lon="12.198993734477169"><ele>167.0</ele><time>2026-04-26T08:40:15.856Z</time></trkpt><trkpt lat="43.96734980729199" lon="12.19897954186829"><ele>167.0</ele><time>2026-04-26T08:40:16.856Z</time></trkpt><trkpt lat="43.96747106229434" lon="12.198956483274902"><ele>167.0</ele><time>2026-04-26T08:40:17.856Z</time></trkpt><trkpt lat="43.96760261185829" lon="12.198914564931192"><ele>167.0</ele><time>2026-04-26T08:40:18.856Z</time></trkpt><trkpt lat="43.967741710080624" lon="12.198866641696013"><ele>167.0</ele><time>2026-04-26T08:40:19.856Z</time></trkpt><trkpt lat="43.9678790143731" lon="12.198817672930229"><ele>166.33333333333331</ele><time>2026-04-26T08:40:20.856Z</time></trkpt><trkpt lat="43.96802008851778" lon="12.198770282203295"><ele>165.66666666666666</ele><time>2026-04-26T08:40:21.856Z</time></trkpt><trkpt lat="43.968169271416066" lon="12.19873440544944"><ele>165.0</ele><time>2026-04-26T08:40:22.856Z</time></trkpt><trkpt lat="43.96833015445731" lon="12.198706339725403"><ele>163.66666666666666</ele><time>2026-04-26T08:40:23.856Z</time></trkpt><trkpt lat="43.96848579086721" lon="12.198716739515982"><ele>162.33333333333331</ele><time>2026-04-26T08:40:24.856Z</time></trkpt><trkpt lat="43.96863589829725" lon="12.198743337530642"><ele>161.0</ele><time>2026-04-26T08:40:25.856Z</time></trkpt><trkpt lat="43.96878105381449" lon="12.198804945946002"><ele>161.0</ele><time>2026-04-26T08:40:26.856Z</time></trkpt><trkpt lat="43.96893978420203" lon="12.198827722873931"><ele>161.0</ele><time>2026-04-26T08:40:27.856Z</time></trkpt><trkpt lat="43.96909230415993" lon="12.198871648672675"><ele>161.0</ele><time>2026-04-26T08:40:28.856Z</time></trkpt><trkpt lat="43.96924344792622" lon="12.198914034470967"><ele>161.5</ele><time>2026-04-26T08:40:29.856Z</time></trkpt><trkpt lat="43.96938393076299" lon="12.198975970380953"><ele>162.0</ele><time>2026-04-26T08:40:30.856Z</time></trkpt><trkpt lat="43.96952961340144" lon="12.19901895223894"><ele>162.5</ele><time>2026-04-26T08:40:31.856Z</time></trkpt><trkpt lat="43.969680956263225" lon="12.199043350813149"><ele>163.0</ele><time>2026-04-26T08:40:32.856Z</time></trkpt><trkpt lat="43.969824745408125" lon="12.199106027378557"><ele>161.66666666666669</ele><time>2026-04-26T08:40:33.856Z</time></trkpt><trkpt lat="43.96998124417971" lon="12.199151672204959"><ele>160.33333333333334</ele><time>2026-04-26T08:40:34.856Z</time></trkpt><trkpt lat="43.970143720637" lon="12.199197218755078"><ele>159.0</ele><time>2026-04-26T08:40:35.856Z</time></trkpt><trkpt lat="43.97031511245848" lon="12.199242650652812"><ele>158.0</ele><time>2026-04-26T08:40:36.856Z</time></trkpt><trkpt lat="43.97048307756052" lon="12.19928414285734"><ele>157.0</ele><time>2026-04-26T08:40:37.856Z</time></trkpt><trkpt lat="43.97065303874621" lon="12.199326128164923"><ele>156.0</ele><time>2026-04-26T08:40:38.856Z</time></trkpt><trkpt lat="43.97082635413179" lon="12.199368942017752"><ele>155.66666666666666</ele><time>2026-04-26T08:40:39.856Z</time></trkpt><trkpt lat="43.97100750657132" lon="12.199413691891902"><ele>155.33333333333331</ele><time>2026-04-26T08:40:40.856Z</time></trkpt><trkpt lat="43.971196059345466" lon="12.199460759661902"><ele>155.0</ele><time>2026-04-26T08:40:41.856Z</time></trkpt><trkpt lat="43.97138269463459" lon="12.199509101588983"><ele>155.0</ele><time>2026-04-26T08:40:42.856Z</time></trkpt><trkpt lat="43.971565560414966" lon="12.199556467276231"><ele>155.0</ele><time>2026-04-26T08:40:43.856Z</time></trkpt><trkpt lat="43.97175265929994" lon="12.199581443576616"><ele>155.0</ele><time>2026-04-26T08:40:44.856Z</time></trkpt><trkpt lat="43.971930150592314" lon="12.199650077498381"><ele>154.66666666666666</ele><time>2026-04-26T08:40:45.856Z</time></trkpt><trkpt lat="43.97209984054024" lon="12.199693293411944"><ele>154.33333333333334</ele><time>2026-04-26T08:40:46.856Z</time></trkpt><trkpt lat="43.972270984120726" lon="12.199735355794997"><ele>154.0</ele><time>2026-04-26T08:40:47.856Z</time></trkpt><trkpt lat="43.97244851860297" lon="12.1997590733306"><ele>154.66666666666669</ele><time>2026-04-26T08:40:48.856Z</time></trkpt><trkpt lat="43.972630387809005" lon="12.199805085770159"><ele>155.33333333333334</ele><time>2026-04-26T08:40:49.856Z</time></trkpt><trkpt lat="43.97280480596844" lon="12.199847377427439"><ele>156.0</ele><time>2026-04-26T08:40:50.856Z</time></trkpt><trkpt lat="43.97296868618915" lon="12.19989092100731"><ele>154.66666666666666</ele><time>2026-04-26T08:40:51.856Z</time></trkpt><trkpt lat="43.97312301575886" lon="12.199933782685447"><ele>153.33333333333331</ele><time>2026-04-26T08:40:52.856Z</time></trkpt><trkpt lat="43.97327301564729" lon="12.19997877994772"><ele>152.0</ele><time>2026-04-26T08:40:53.856Z</time></trkpt><trkpt lat="43.97341099058125" lon="12.200027392679406"><ele>152.0</ele><time>2026-04-26T08:40:54.856Z</time></trkpt><trkpt lat="43.97354299587285" lon="12.200081802462748"><ele>152.0</ele><time>2026-04-26T08:40:55.856Z</time></trkpt><trkpt lat="43.97366897793332" lon="12.200146947178236"><ele>152.0</ele><time>2026-04-26T08:40:56.856Z</time></trkpt><trkpt lat="43.97379048028575" lon="12.200219333973756"><ele>152.0</ele><time>2026-04-26T08:40:57.856Z</time></trkpt><trkpt lat="43.97391008115531" lon="12.200296788027227"><ele>152.0</ele><time>2026-04-26T08:40:58.856Z</time></trkpt><trkpt lat="43.97402656496681" lon="12.200365525381661"><ele>152.0</ele><time>2026-04-26T08:40:59.856Z</time></trkpt><trkpt lat="43.97413429630204" lon="12.200427333981047"><ele>152.0</ele><time>2026-04-26T08:41:00.856Z</time></trkpt><trkpt lat="43.9742308137623" lon="12.200491796536252"><ele>152.0</ele><time>2026-04-26T08:41:01.856Z</time></trkpt><trkpt lat="43.974308880213776" lon="12.200552233553482"><ele>152.0</ele><time>2026-04-26T08:41:02.854Z</time></trkpt><trkpt lat="43.97436954190008" lon="12.200636618177139"><ele>151.4</ele><time>2026-04-26T08:41:03.854Z</time></trkpt><trkpt lat="43.9744245657576" lon="12.200745414757742"><ele>150.79999999999998</ele><time>2026-04-26T08:41:04.854Z</time></trkpt><trkpt lat="43.97451241004045" lon="12.200823587298018"><ele>150.2</ele><time>2026-04-26T08:41:05.853Z</time></trkpt><trkpt lat="43.97462493486685" lon="12.20084054437776"><ele>149.6</ele><time>2026-04-26T08:41:06.853Z</time></trkpt><trkpt lat="43.97473713247528" lon="12.200838060487254"><ele>149.0</ele><time>2026-04-26T08:41:07.853Z</time></trkpt><trkpt lat="43.974861368078564" lon="12.200884065086493"><ele>149.0</ele><time>2026-04-26T08:41:08.853Z</time></trkpt><trkpt lat="43.97500103006315" lon="12.200975267781065"><ele>149.0</ele><time>2026-04-26T08:41:09.853Z</time></trkpt><trkpt lat="43.97513994044531" lon="12.201067872042072"><ele>149.0</ele><time>2026-04-26T08:41:10.853Z</time></trkpt><trkpt lat="43.97528779534221" lon="12.201162373854515"><ele>149.25</ele><time>2026-04-26T08:41:11.853Z</time></trkpt><trkpt lat="43.97542778400592" lon="12.201264985774912"><ele>149.5</ele><time>2026-04-26T08:41:12.853Z</time></trkpt><trkpt lat="43.975562955496834" lon="12.20134162407951"><ele>149.75</ele><time>2026-04-26T08:41:13.853Z</time></trkpt><trkpt lat="43.97568511186976" lon="12.201407690105349"><ele>150.0</ele><time>2026-04-26T08:41:14.853Z</time></trkpt><trkpt lat="43.97577322375711" lon="12.20144393246519"><ele>150.0</ele><time>2026-04-26T08:41:15.853Z</time></trkpt><trkpt lat="43.97583310120597" lon="12.201488104080877"><ele>150.0</ele><time>2026-04-26T08:41:17.853Z</time></trkpt><trkpt lat="43.97590455670387" lon="12.201514172751226"><ele>150.0</ele><time>2026-04-26T08:41:20.853Z</time></trkpt><trkpt lat="43.97596375916716" lon="12.20169883377639"><ele>150.0</ele><time>2026-04-26T08:41:24.853Z</time></trkpt><trkpt lat="43.975916691207274" lon="12.201633061646934"><ele>150.0</ele><time>2026-04-26T08:46:31.848Z</time></trkpt><trkpt lat="43.97589216934593" lon="12.201549336327618"><ele>150.0</ele><time>2026-04-26T08:46:34.848Z</time></trkpt><trkpt lat="43.97607116829541" lon="12.201543660548273"><ele>147.0</ele><time>2026-04-26T08:46:38.848Z</time></trkpt><trkpt lat="43.97615311259318" lon="12.20156168434477"><ele>144.0</ele><time>2026-04-26T08:46:39.848Z</time></trkpt><trkpt lat="43.97623723430586" lon="12.201579957116628"><ele>141.0</ele><time>2026-04-26T08:46:40.848Z</time></trkpt><trkpt lat="43.97635055295707" lon="12.201592495836907"><ele>138.0</ele><time>2026-04-26T08:46:41.848Z</time></trkpt><trkpt lat="43.97647039740369" lon="12.201594746537252"><ele>135.0</ele><time>2026-04-26T08:46:42.848Z</time></trkpt><trkpt lat="43.97659376719027" lon="12.201600830408308"><ele>136.5</ele><time>2026-04-26T08:46:43.848Z</time></trkpt><trkpt lat="43.97672433960684" lon="12.201608390763317"><ele>138.0</ele><time>2026-04-26T08:46:44.848Z</time></trkpt><trkpt lat="43.97685875592342" lon="12.201617465019861"><ele>139.5</ele><time>2026-04-26T08:46:45.848Z</time></trkpt><trkpt lat="43.976991725383265" lon="12.201632082695419"><ele>141.0</ele><time>2026-04-26T08:46:46.848Z</time></trkpt><trkpt lat="43.97712426781738" lon="12.201635823144652"><ele>141.0</ele><time>2026-04-26T08:46:47.848Z</time></trkpt><trkpt lat="43.9772632843857" lon="12.20165482181187"><ele>141.0</ele><time>2026-04-26T08:46:48.848Z</time></trkpt><trkpt lat="43.97740005146793" lon="12.201665871902453"><ele>141.0</ele><time>2026-04-26T08:46:49.848Z</time></trkpt><trkpt lat="43.97753952402211" lon="12.201676663759859"><ele>141.0</ele><time>2026-04-26T08:46:50.848Z</time></trkpt><trkpt lat="43.97767505823591" lon="12.201688022148003"><ele>141.33333333333334</ele><time>2026-04-26T08:46:51.848Z</time></trkpt><trkpt lat="43.977819650286406" lon="12.201693604545742"><ele>141.66666666666669</ele><time>2026-04-26T08:46:52.848Z</time></trkpt><trkpt lat="43.977966267128345" lon="12.201707794150034"><ele>142.0</ele><time>2026-04-26T08:46:53.848Z</time></trkpt><trkpt lat="43.97812530394472" lon="12.201718729465565"><ele>142.0</ele><time>2026-04-26T08:46:54.848Z</time></trkpt><trkpt lat="43.97829573648083" lon="12.201733665474627"><ele>142.0</ele><time>2026-04-26T08:46:55.848Z</time></trkpt><trkpt lat="43.97847765914935" lon="12.201751058415518"><ele>142.0</ele><time>2026-04-26T08:46:56.848Z</time></trkpt><trkpt lat="43.978661523710834" lon="12.201759397373545"><ele>140.33333333333334</ele><time>2026-04-26T08:46:57.848Z</time></trkpt><trkpt lat="43.978848492061275" lon="12.201765819348955"><ele>138.66666666666666</ele><time>2026-04-26T08:46:58.848Z</time></trkpt><trkpt lat="43.97903802786377" lon="12.201769873310106"><ele>137.0</ele><time>2026-04-26T08:46:59.848Z</time></trkpt><trkpt lat="43.97922609366005" lon="12.201767633500445"><ele>135.33333333333331</ele><time>2026-04-26T08:47:00.848Z</time></trkpt><trkpt lat="43.97941864829946" lon="12.201749550231213"><ele>133.66666666666666</ele><time>2026-04-26T08:47:01.848Z</time></trkpt><trkpt lat="43.97960479193831" lon="12.201731549767885"><ele>132.0</ele><time>2026-04-26T08:47:02.848Z</time></trkpt><trkpt lat="43.979787979482765" lon="12.201703246179681"><ele>132.0</ele><time>2026-04-26T08:47:03.848Z</time></trkpt><trkpt lat="43.97996552111166" lon="12.20164354990886"><ele>132.0</ele><time>2026-04-26T08:47:04.848Z</time></trkpt><trkpt lat="43.980146683528204" lon="12.201607864309105"><ele>132.0</ele><time>2026-04-26T08:47:05.848Z</time></trkpt><trkpt lat="43.98031689688868" lon="12.201563522997159"><ele>132.66666666666666</ele><time>2026-04-26T08:47:06.848Z</time></trkpt><trkpt lat="43.98048497414578" lon="12.201521967109947"><ele>133.33333333333331</ele><time>2026-04-26T08:47:07.848Z</time></trkpt><trkpt lat="43.98065895465042" lon="12.201476581275534"><ele>134.0</ele><time>2026-04-26T08:47:08.848Z</time></trkpt><trkpt lat="43.980816574484145" lon="12.201414167327298"><ele>133.33333333333331</ele><time>2026-04-26T08:47:09.848Z</time></trkpt><trkpt lat="43.980976415658986" lon="12.201374554456681"><ele>132.66666666666666</ele><time>2026-04-26T08:47:10.848Z</time></trkpt><trkpt lat="43.98114216434128" lon="12.201319184350707"><ele>132.0</ele><time>2026-04-26T08:47:11.848Z</time></trkpt><trkpt lat="43.98130180371763" lon="12.201233068917492"><ele>132.0</ele><time>2026-04-26T08:47:12.848Z</time></trkpt><trkpt lat="43.981425060284415" lon="12.201065752200721"><ele>132.0</ele><time>2026-04-26T08:47:13.848Z</time></trkpt><trkpt lat="43.98156485031196" lon="12.200892381702985"><ele>132.0</ele><time>2026-04-26T08:47:14.848Z</time></trkpt><trkpt lat="43.98171042655329" lon="12.200672659419785"><ele>128.0</ele><time>2026-04-26T08:47:15.848Z</time></trkpt><trkpt lat="43.98184717810785" lon="12.200454479061749"><ele>124.0</ele><time>2026-04-26T08:47:16.848Z</time></trkpt><trkpt lat="43.981996088593235" lon="12.200245192366811"><ele>120.0</ele><time>2026-04-26T08:47:17.848Z</time></trkpt><trkpt lat="43.98216455010562" lon="12.200042711484391"><ele>117.0</ele><time>2026-04-26T08:47:18.848Z</time></trkpt><trkpt lat="43.98231858367183" lon="12.199832076455122"><ele>114.0</ele><time>2026-04-26T08:47:19.848Z</time></trkpt><trkpt lat="43.98246855743844" lon="12.199618480304238"><ele>111.0</ele><time>2026-04-26T08:47:20.846Z</time></trkpt><trkpt lat="43.9826177806785" lon="12.199402481519188"><ele>111.0</ele><time>2026-04-26T08:47:21.846Z</time></trkpt><trkpt lat="43.98276548374043" lon="12.199181539187336"><ele>111.0</ele><time>2026-04-26T08:47:22.846Z</time></trkpt><trkpt lat="43.98290887197373" lon="12.198957316980552"><ele>111.0</ele><time>2026-04-26T08:47:23.846Z</time></trkpt><trkpt lat="43.983053203346465" lon="12.198734234662604"><ele>112.66666666666666</ele><time>2026-04-26T08:47:24.846Z</time></trkpt><trkpt lat="43.98320036618252" lon="12.198511424467515"><ele>114.33333333333333</ele><time>2026-04-26T08:47:25.846Z</time></trkpt><trkpt lat="43.98334464952794" lon="12.19829253051987"><ele>116.0</ele><time>2026-04-26T08:47:26.846Z</time></trkpt><trkpt lat="43.983486755798644" lon="12.198072742729089"><ele>116.0</ele><time>2026-04-26T08:47:27.847Z</time></trkpt><trkpt lat="43.98362436729122" lon="12.197859929086787"><ele>116.0</ele><time>2026-04-26T08:47:28.847Z</time></trkpt><trkpt lat="43.9837642093635" lon="12.197644760033219"><ele>116.0</ele><time>2026-04-26T08:47:29.847Z</time></trkpt><trkpt lat="43.98390282449529" lon="12.197431478977249"><ele>115.66666666666666</ele><time>2026-04-26T08:47:30.846Z</time></trkpt><trkpt lat="43.98404705780533" lon="12.197207655083316"><ele>115.33333333333334</ele><time>2026-04-26T08:47:31.846Z</time></trkpt><trkpt lat="43.98418158625554" lon="12.196998337165217"><ele>115.0</ele><time>2026-04-26T08:47:32.847Z</time></trkpt><trkpt lat="43.98431667351612" lon="12.196786443579496"><ele>115.0</ele><time>2026-04-26T08:47:33.846Z</time></trkpt><trkpt lat="43.984453037014916" lon="12.196571653492347"><ele>115.0</ele><time>2026-04-26T08:47:34.846Z</time></trkpt><trkpt lat="43.984575983074265" lon="12.196374855767653"><ele>115.0</ele><time>2026-04-26T08:47:35.846Z</time></trkpt><trkpt lat="43.9846953629059" lon="12.196184012801853"><ele>115.66666666666667</ele><time>2026-04-26T08:47:36.846Z</time></trkpt><trkpt lat="43.984820596547124" lon="12.196016420660625"><ele>116.33333333333334</ele><time>2026-04-26T08:47:37.846Z</time></trkpt><trkpt lat="43.98496229397964" lon="12.195866563415644"><ele>117.0</ele><time>2026-04-26T08:47:38.846Z</time></trkpt><trkpt lat="43.985114649261604" lon="12.195773694262186"><ele>117.0</ele><time>2026-04-26T08:47:39.846Z</time></trkpt><trkpt lat="43.985286562139954" lon="12.195712454734315"><ele>117.0</ele><time>2026-04-26T08:47:40.846Z</time></trkpt><trkpt lat="43.985474660289974" lon="12.195704792592604"><ele>117.0</ele><time>2026-04-26T08:47:41.846Z</time></trkpt><trkpt lat="43.98566196896795" lon="12.195746521807544"><ele>117.0</ele><time>2026-04-26T08:47:42.846Z</time></trkpt><trkpt lat="43.98584374389011" lon="12.195822928005645"><ele>117.0</ele><time>2026-04-26T08:47:43.846Z</time></trkpt><trkpt lat="43.986042264216515" lon="12.195879412268573"><ele>117.0</ele><time>2026-04-26T08:47:44.846Z</time></trkpt><trkpt lat="43.986239906655754" lon="12.195969667552285"><ele>118.0</ele><time>2026-04-26T08:47:45.846Z</time></trkpt><trkpt lat="43.986433730177396" lon="12.19604519616559"><ele>119.0</ele><time>2026-04-26T08:47:46.846Z</time></trkpt><trkpt lat="43.986616764178756" lon="12.196112844772228"><ele>120.0</ele><time>2026-04-26T08:47:47.846Z</time></trkpt><trkpt lat="43.98677854880327" lon="12.196180905954039"><ele>118.66666666666666</ele><time>2026-04-26T08:47:48.846Z</time></trkpt><trkpt lat="43.9869261759376" lon="12.196301887972773"><ele>117.33333333333333</ele><time>2026-04-26T08:47:49.846Z</time></trkpt><trkpt lat="43.98703539576566" lon="12.196492118937933"><ele>116.0</ele><time>2026-04-26T08:47:50.846Z</time></trkpt><trkpt lat="43.987144166408676" lon="12.196691319857438"><ele>116.0</ele><time>2026-04-26T08:47:51.846Z</time></trkpt><trkpt lat="43.98724711528171" lon="12.196874002725632"><ele>116.0</ele><time>2026-04-26T08:47:52.846Z</time></trkpt><trkpt lat="43.9873369945391" lon="12.197061230686934"><ele>116.0</ele><time>2026-04-26T08:47:53.846Z</time></trkpt><trkpt lat="43.98742299829068" lon="12.197238151711087"><ele>116.75</ele><time>2026-04-26T08:47:54.846Z</time></trkpt><trkpt lat="43.98750496387485" lon="12.197406024637571"><ele>117.5</ele><time>2026-04-26T08:47:55.846Z</time></trkpt><trkpt lat="43.98758446457954" lon="12.197580788379183"><ele>118.25</ele><time>2026-04-26T08:47:56.846Z</time></trkpt><trkpt lat="43.98766223661378" lon="12.19775898989257"><ele>119.0</ele><time>2026-04-26T08:47:57.846Z</time></trkpt><trkpt lat="43.98774740658883" lon="12.197938709067577"><ele>119.0</ele><time>2026-04-26T08:47:58.846Z</time></trkpt><trkpt lat="43.98783663879723" lon="12.1981192604366"><ele>119.0</ele><time>2026-04-26T08:47:59.846Z</time></trkpt><trkpt lat="43.987924384963144" lon="12.198289184488033"><ele>119.0</ele><time>2026-04-26T08:48:00.846Z</time></trkpt><trkpt lat="43.98803422857647" lon="12.198432929939788"><ele>116.0</ele><time>2026-04-26T08:48:01.846Z</time></trkpt><trkpt lat="43.988173984626165" lon="12.198547904995731"><ele>113.0</ele><time>2026-04-26T08:48:02.846Z</time></trkpt><trkpt lat="43.98832223361118" lon="12.198636173607497"><ele>110.0</ele><time>2026-04-26T08:48:03.846Z</time></trkpt><trkpt lat="43.98848178065686" lon="12.19868121499693"><ele>110.0</ele><time>2026-04-26T08:48:04.846Z</time></trkpt><trkpt lat="43.988650132794234" lon="12.198697025511954"><ele>110.0</ele><time>2026-04-26T08:48:05.846Z</time></trkpt><trkpt lat="43.98882721270767" lon="12.19868318137259"><ele>110.0</ele><time>2026-04-26T08:48:06.846Z</time></trkpt><trkpt lat="43.98900608584909" lon="12.198658061623084"><ele>109.66666666666666</ele><time>2026-04-26T08:48:07.846Z</time></trkpt><trkpt lat="43.98919416989486" lon="12.198628015129884"><ele>109.33333333333334</ele><time>2026-04-26T08:48:08.846Z</time></trkpt><trkpt lat="43.98938203968533" lon="12.19861012918668"><ele>109.0</ele><time>2026-04-26T08:48:09.846Z</time></trkpt><trkpt lat="43.98957284381961" lon="12.19859079114778"><ele>109.0</ele><time>2026-04-26T08:48:10.846Z</time></trkpt><trkpt lat="43.98976387146369" lon="12.198573454189152"><ele>109.0</ele><time>2026-04-26T08:48:11.846Z</time></trkpt><trkpt lat="43.98996377275779" lon="12.198550773462342"><ele>109.0</ele><time>2026-04-26T08:48:12.846Z</time></trkpt><trkpt lat="43.9901567018404" lon="12.198527038580622"><ele>109.0</ele><time>2026-04-26T08:48:13.846Z</time></trkpt><trkpt lat="43.990338676872376" lon="12.198477577186281"><ele>109.0</ele><time>2026-04-26T08:48:14.846Z</time></trkpt><trkpt lat="43.99051390552056" lon="12.198403381313456"><ele>109.0</ele><time>2026-04-26T08:48:15.846Z</time></trkpt><trkpt lat="43.990680487077285" lon="12.19830055753545"><ele>108.66666666666667</ele><time>2026-04-26T08:48:16.846Z</time></trkpt><trkpt lat="43.990834122671814" lon="12.198167358530453"><ele>108.33333333333334</ele><time>2026-04-26T08:48:17.846Z</time></trkpt><trkpt lat="43.99098317979957" lon="12.198007091742378"><ele>108.0</ele><time>2026-04-26T08:48:18.846Z</time></trkpt><trkpt lat="43.99113111885733" lon="12.197834278388331"><ele>108.0</ele><time>2026-04-26T08:48:19.846Z</time></trkpt><trkpt lat="43.99128155867578" lon="12.197666680343636"><ele>108.0</ele><time>2026-04-26T08:48:20.846Z</time></trkpt><trkpt lat="43.99142773498604" lon="12.197507114323141"><ele>108.0</ele><time>2026-04-26T08:48:21.846Z</time></trkpt><trkpt lat="43.991580888954324" lon="12.197347637466567"><ele>109.0</ele><time>2026-04-26T08:48:22.846Z</time></trkpt><trkpt lat="43.99173466801974" lon="12.197199601822751"><ele>110.0</ele><time>2026-04-26T08:48:23.846Z</time></trkpt><trkpt lat="43.991897108231875" lon="12.19708146882663"><ele>111.0</ele><time>2026-04-26T08:48:24.846Z</time></trkpt><trkpt lat="43.992073077280615" lon="12.196999691253916"><ele>111.0</ele><time>2026-04-26T08:48:25.846Z</time></trkpt><trkpt lat="43.99225343340605" lon="12.196939783908485"><ele>111.0</ele><time>2026-04-26T08:48:26.846Z</time></trkpt><trkpt lat="43.992435813195605" lon="12.196904143263557"><ele>111.0</ele><time>2026-04-26T08:48:27.846Z</time></trkpt><trkpt lat="43.992625003502795" lon="12.196892369103004"><ele>110.66666666666666</ele><time>2026-04-26T08:48:28.846Z</time></trkpt><trkpt lat="43.992815029322145" lon="12.19690613738361"><ele>110.33333333333333</ele><time>2026-04-26T08:48:29.846Z</time></trkpt><trkpt lat="43.99300477480607" lon="12.196920686039459"><ele>110.0</ele><time>2026-04-26T08:48:30.846Z</time></trkpt><trkpt lat="43.993199736145314" lon="12.196949271730322"><ele>110.0</ele><time>2026-04-26T08:48:31.846Z</time></trkpt><trkpt lat="43.99339467373455" lon="12.196981314887681"><ele>110.0</ele><time>2026-04-26T08:48:32.846Z</time></trkpt><trkpt lat="43.99358955876789" lon="12.197006345933396"><ele>110.0</ele><time>2026-04-26T08:48:33.846Z</time></trkpt><trkpt lat="43.99377748504777" lon="12.197046386931133"><ele>110.0</ele><time>2026-04-26T08:48:34.846Z</time></trkpt><trkpt lat="43.993956940589975" lon="12.197069918054176"><ele>110.0</ele><time>2026-04-26T08:48:35.846Z</time></trkpt><trkpt lat="43.99412738743613" lon="12.197091637657515"><ele>110.0</ele><time>2026-04-26T08:48:36.846Z</time></trkpt><trkpt lat="43.99429317979387" lon="12.19709223696919"><ele>110.0</ele><time>2026-04-26T08:48:37.846Z</time></trkpt><trkpt lat="43.99445751020693" lon="12.197126153783705"><ele>110.0</ele><time>2026-04-26T08:48:38.846Z</time></trkpt><trkpt lat="43.99461116530466" lon="12.197176071963296"><ele>110.0</ele><time>2026-04-26T08:48:39.846Z</time></trkpt><trkpt lat="43.99475760023593" lon="12.197203322647452"><ele>110.0</ele><time>2026-04-26T08:48:40.846Z</time></trkpt><trkpt lat="43.99489898497393" lon="12.197256464878613"><ele>110.0</ele><time>2026-04-26T08:48:41.846Z</time></trkpt><trkpt lat="43.99504481570191" lon="12.197297183991465"><ele>110.0</ele><time>2026-04-26T08:48:42.846Z</time></trkpt><trkpt lat="43.99519960770833" lon="12.197339619104193"><ele>108.33333333333333</ele><time>2026-04-26T08:48:43.846Z</time></trkpt><trkpt lat="43.995363984420834" lon="12.197363011877258"><ele>106.66666666666666</ele><time>2026-04-26T08:48:44.845Z</time></trkpt><trkpt lat="43.99552831082949" lon="12.197411352627817"><ele>105.0</ele><time>2026-04-26T08:48:45.845Z</time></trkpt><trkpt lat="43.99569599117891" lon="12.197458029940979"><ele>104.33333333333334</ele><time>2026-04-26T08:48:46.845Z</time></trkpt><trkpt lat="43.995862795309954" lon="12.197495961343716"><ele>103.66666666666667</ele><time>2026-04-26T08:48:47.845Z</time></trkpt><trkpt lat="43.9960254455824" lon="12.19755774463815"><ele>103.0</ele><time>2026-04-26T08:48:48.845Z</time></trkpt><trkpt lat="43.99618532840408" lon="12.197596770959859"><ele>103.0</ele><time>2026-04-26T08:48:49.845Z</time></trkpt><trkpt lat="43.99634852361572" lon="12.197634457433146"><ele>103.0</ele><time>2026-04-26T08:48:50.845Z</time></trkpt><trkpt lat="43.99652240724511" lon="12.197674612185182"><ele>103.0</ele><time>2026-04-26T08:48:51.845Z</time></trkpt><trkpt lat="43.99671338067466" lon="12.19771871246711"><ele>102.0</ele><time>2026-04-26T08:48:52.845Z</time></trkpt><trkpt lat="43.99691236606967" lon="12.197762802948027"><ele>101.0</ele><time>2026-04-26T08:48:53.845Z</time></trkpt><trkpt lat="43.99713271745614" lon="12.197810230144464"><ele>100.0</ele><time>2026-04-26T08:48:54.845Z</time></trkpt><trkpt lat="43.99736067802339" lon="12.197859739560663"><ele>101.0</ele><time>2026-04-26T08:48:55.845Z</time></trkpt><trkpt lat="43.997593665202544" lon="12.197911383041054"><ele>102.0</ele><time>2026-04-26T08:48:56.845Z</time></trkpt><trkpt lat="43.99780923387191" lon="12.197957924119114"><ele>102.0</ele><time>2026-04-26T08:48:57.845Z</time></trkpt><trkpt lat="43.99801443704292" lon="12.19805354779274"><ele>102.0</ele><time>2026-04-26T08:48:58.845Z</time></trkpt><trkpt lat="43.998215263994034" lon="12.198183545933372"><ele>102.0</ele><time>2026-04-26T08:48:59.845Z</time></trkpt><trkpt lat="43.998410529271446" lon="12.198327073726938"><ele>103.0</ele><time>2026-04-26T08:49:00.845Z</time></trkpt><trkpt lat="43.99860683079694" lon="12.198489538691135"><ele>104.0</ele><time>2026-04-26T08:49:01.845Z</time></trkpt><trkpt lat="43.99880736241747" lon="12.198653063786761"><ele>104.0</ele><time>2026-04-26T08:49:02.845Z</time></trkpt><trkpt lat="43.99901274849254" lon="12.198816928172668"><ele>104.0</ele><time>2026-04-26T08:49:03.845Z</time></trkpt><trkpt lat="43.99922166092076" lon="12.19897964563933"><ele>105.5</ele><time>2026-04-26T08:49:04.845Z</time></trkpt><trkpt lat="43.999425700051916" lon="12.199137139730263"><ele>107.0</ele><time>2026-04-26T08:49:05.845Z</time></trkpt><trkpt lat="43.99961327329327" lon="12.199288271510959"><ele>107.0</ele><time>2026-04-26T08:49:06.845Z</time></trkpt><trkpt lat="43.99979171196308" lon="12.199435022638836"><ele>107.0</ele><time>2026-04-26T08:49:07.845Z</time></trkpt><trkpt lat="43.999962535327775" lon="12.199588308866106"><ele>107.0</ele><time>2026-04-26T08:49:08.845Z</time></trkpt><trkpt lat="44.000128151130745" lon="12.199753966770007"><ele>105.66666666666666</ele><time>2026-04-26T08:49:09.845Z</time></trkpt><trkpt lat="44.000282370886325" lon="12.19992855593475"><ele>104.33333333333334</ele><time>2026-04-26T08:49:10.845Z</time></trkpt><trkpt lat="44.00043536902902" lon="12.20010922148095"><ele>103.0</ele><time>2026-04-26T08:49:11.845Z</time></trkpt><trkpt lat="44.00058688506166" lon="12.200300648110533"><ele>103.0</ele><time>2026-04-26T08:49:12.845Z</time></trkpt><trkpt lat="44.00073573695722" lon="12.200496725902012"><ele>103.0</ele><time>2026-04-26T08:49:13.845Z</time></trkpt><trkpt lat="44.000878725521545" lon="12.200688149568451"><ele>103.0</ele><time>2026-04-26T08:49:14.845Z</time></trkpt><trkpt lat="44.001013574921636" lon="12.20086969274766"><ele>104.5</ele><time>2026-04-26T08:49:15.845Z</time></trkpt><trkpt lat="44.00113839120055" lon="12.201034420427181"><ele>106.0</ele><time>2026-04-26T08:49:16.845Z</time></trkpt><trkpt lat="44.00124710567878" lon="12.201166014828763"><ele>107.5</ele><time>2026-04-26T08:49:17.845Z</time></trkpt><trkpt lat="44.00134758654828" lon="12.20125616201371"><ele>109.0</ele><time>2026-04-26T08:49:18.845Z</time></trkpt><trkpt lat="44.0014603868372" lon="12.20128681284932"><ele>109.0</ele><time>2026-04-26T08:49:19.845Z</time></trkpt><trkpt lat="44.001600539864334" lon="12.201266621484057"><ele>109.0</ele><time>2026-04-26T08:49:20.845Z</time></trkpt><trkpt lat="44.00176415411594" lon="12.20120794281044"><ele>109.0</ele><time>2026-04-26T08:49:21.845Z</time></trkpt><trkpt lat="44.00194450335743" lon="12.201134640817017"><ele>110.66666666666667</ele><time>2026-04-26T08:49:22.845Z</time></trkpt><trkpt lat="44.002113714135405" lon="12.201076538212229"><ele>112.33333333333334</ele><time>2026-04-26T08:49:23.845Z</time></trkpt><trkpt lat="44.00226043414898" lon="12.20101003244864"><ele>114.0</ele><time>2026-04-26T08:49:24.845Z</time></trkpt><trkpt lat="44.00240115956258" lon="12.200915953099676"><ele>110.66666666666666</ele><time>2026-04-26T08:49:25.845Z</time></trkpt><trkpt lat="44.00251987874753" lon="12.200761339972384"><ele>107.33333333333333</ele><time>2026-04-26T08:49:26.844Z</time></trkpt><trkpt lat="44.00262374496577" lon="12.200568542555537"><ele>104.0</ele><time>2026-04-26T08:49:27.844Z</time></trkpt><trkpt lat="44.002722466460376" lon="12.200357524684021"><ele>104.0</ele><time>2026-04-26T08:49:28.844Z</time></trkpt><trkpt lat="44.00284955692033" lon="12.200178283039657"><ele>104.0</ele><time>2026-04-26T08:49:29.844Z</time></trkpt><trkpt lat="44.00299236136254" lon="12.200036850037776"><ele>104.0</ele><time>2026-04-26T08:49:30.843Z</time></trkpt><trkpt lat="44.0031640999138" lon="12.199952512577765"><ele>102.0</ele><time>2026-04-26T08:49:31.843Z</time></trkpt><trkpt lat="44.00334824714055" lon="12.199876439577338"><ele>100.0</ele><time>2026-04-26T08:49:32.843Z</time></trkpt><trkpt lat="44.00353334159982" lon="12.199805639864381"><ele>98.0</ele><time>2026-04-26T08:49:33.844Z</time></trkpt><trkpt lat="44.00371658689707" lon="12.199735812274204"><ele>98.0</ele><time>2026-04-26T08:49:34.844Z</time></trkpt><trkpt lat="44.00387601560564" lon="12.199677307621995"><ele>98.0</ele><time>2026-04-26T08:49:35.843Z</time></trkpt><trkpt lat="44.00401488690993" lon="12.199626346843212"><ele>98.0</ele><time>2026-04-26T08:49:36.843Z</time></trkpt><trkpt lat="44.004148713477726" lon="12.19957723992236"><ele>98.0</ele><time>2026-04-26T08:49:37.843Z</time></trkpt><trkpt lat="44.00428978702674" lon="12.19952547332988"><ele>98.33333333333333</ele><time>2026-04-26T08:49:38.843Z</time></trkpt><trkpt lat="44.00443996381558" lon="12.199470355365296"><ele>98.66666666666666</ele><time>2026-04-26T08:49:39.844Z</time></trkpt><trkpt lat="44.00459189528176" lon="12.199384933927401"><ele>99.0</ele><time>2026-04-26T08:49:40.844Z</time></trkpt><trkpt lat="44.00475397662938" lon="12.199323410314381"><ele>99.0</ele><time>2026-04-26T08:49:41.844Z</time></trkpt><trkpt lat="44.00491651950019" lon="12.199265119888915"><ele>99.0</ele><time>2026-04-26T08:49:42.844Z</time></trkpt><trkpt lat="44.005082476640425" lon="12.199209891170511"><ele>99.0</ele><time>2026-04-26T08:49:43.844Z</time></trkpt><trkpt lat="44.00524519116416" lon="12.199150120960635"><ele>98.33333333333334</ele><time>2026-04-26T08:49:44.844Z</time></trkpt><trkpt lat="44.00541022781453" lon="12.199106584209597"><ele>97.66666666666667</ele><time>2026-04-26T08:49:45.844Z</time></trkpt><trkpt lat="44.00558242434002" lon="12.199066793222977"><ele>97.0</ele><time>2026-04-26T08:49:46.844Z</time></trkpt><trkpt lat="44.00575870617979" lon="12.19903293225271"><ele>98.0</ele><time>2026-04-26T08:49:47.844Z</time></trkpt><trkpt lat="44.00593782479804" lon="12.198993367829397"><ele>99.0</ele><time>2026-04-26T08:49:48.844Z</time></trkpt><trkpt lat="44.00611896970844" lon="12.198957015067858"><ele>100.0</ele><time>2026-04-26T08:49:49.844Z</time></trkpt><trkpt lat="44.00630536947009" lon="12.19892149683645"><ele>100.0</ele><time>2026-04-26T08:49:50.844Z</time></trkpt><trkpt lat="44.006497625781584" lon="12.1988900888507"><ele>100.0</ele><time>2026-04-26T08:49:51.844Z</time></trkpt><trkpt lat="44.00668760433012" lon="12.198862203684692"><ele>100.0</ele><time>2026-04-26T08:49:52.844Z</time></trkpt><trkpt lat="44.006875684944355" lon="12.198830498740852"><ele>99.33333333333334</ele><time>2026-04-26T08:49:53.844Z</time></trkpt><trkpt lat="44.00705771737329" lon="12.1988035524891"><ele>98.66666666666666</ele><time>2026-04-26T08:49:54.844Z</time></trkpt><trkpt lat="44.00722353159925" lon="12.19876494424082"><ele>98.0</ele><time>2026-04-26T08:49:55.844Z</time></trkpt><trkpt lat="44.00739142227096" lon="12.198735297029588"><ele>97.33333333333333</ele><time>2026-04-26T08:49:56.844Z</time></trkpt><trkpt lat="44.00755968689098" lon="12.198706387087604"><ele>96.66666666666666</ele><time>2026-04-26T08:49:57.844Z</time></trkpt><trkpt lat="44.007724184429996" lon="12.198668060413349"><ele>96.0</ele><time>2026-04-26T08:49:58.844Z</time></trkpt><trkpt lat="44.00788896423143" lon="12.19863869668622"><ele>96.0</ele><time>2026-04-26T08:49:59.844Z</time></trkpt><trkpt lat="44.008050615195955" lon="12.198608018862496"><ele>96.0</ele><time>2026-04-26T08:50:00.844Z</time></trkpt><trkpt lat="44.00820792518858" lon="12.198579457174839"><ele>96.0</ele><time>2026-04-26T08:50:01.844Z</time></trkpt><trkpt lat="44.00836233287111" lon="12.198559647745281"><ele>96.33333333333334</ele><time>2026-04-26T08:50:02.844Z</time></trkpt><trkpt lat="44.00852128383543" lon="12.198555190319567"><ele>96.66666666666667</ele><time>2026-04-26T08:50:03.844Z</time></trkpt><trkpt lat="44.00868134089153" lon="12.19856976254772"><ele>97.0</ele><time>2026-04-26T08:50:04.844Z</time></trkpt><trkpt lat="44.00884129094819" lon="12.198589461765202"><ele>97.0</ele><time>2026-04-26T08:50:05.844Z</time></trkpt><trkpt lat="44.00900151422351" lon="12.198632585600945"><ele>97.0</ele><time>2026-04-26T08:50:06.844Z</time></trkpt><trkpt lat="44.009164380397806" lon="12.198691244697464"><ele>97.0</ele><time>2026-04-26T08:50:07.844Z</time></trkpt><trkpt lat="44.009326040040634" lon="12.19875764899753"><ele>97.33333333333334</ele><time>2026-04-26T08:50:08.844Z</time></trkpt><trkpt lat="44.009486949340676" lon="12.198833242845621"><ele>97.66666666666666</ele><time>2026-04-26T08:50:09.845Z</time></trkpt><trkpt lat="44.00963869191875" lon="12.198941365900602"><ele>98.0</ele><time>2026-04-26T08:50:10.846Z</time></trkpt><trkpt lat="44.00977602890007" lon="12.199079342340243"><ele>98.0</ele><time>2026-04-26T08:50:11.848Z</time></trkpt><trkpt lat="44.00990274881783" lon="12.199237923349525"><ele>98.0</ele><time>2026-04-26T08:50:12.85Z</time></trkpt><trkpt lat="44.010016946781114" lon="12.199391513378231"><ele>98.0</ele><time>2026-04-26T08:50:13.851Z</time></trkpt><trkpt lat="44.01012490542735" lon="12.199526583743046"><ele>98.0</ele><time>2026-04-26T08:50:14.852Z</time></trkpt><trkpt lat="44.01024198338162" lon="12.199653499810974"><ele>98.0</ele><time>2026-04-26T08:50:15.854Z</time></trkpt><trkpt lat="44.01035316032539" lon="12.199773700916555"><ele>98.0</ele><time>2026-04-26T08:50:16.855Z</time></trkpt><trkpt lat="44.01046067903726" lon="12.199882754671721"><ele>98.0</ele><time>2026-04-26T08:50:17.856Z</time></trkpt><trkpt lat="44.010564294552445" lon="12.199985995975416"><ele>98.5</ele><time>2026-04-26T08:50:18.857Z</time></trkpt><trkpt lat="44.010675418981954" lon="12.200074886826382"><ele>99.0</ele><time>2026-04-26T08:50:19.858Z</time></trkpt><trkpt lat="44.010796367875365" lon="12.20016277452377"><ele>99.5</ele><time>2026-04-26T08:50:20.859Z</time></trkpt><trkpt lat="44.010929513231986" lon="12.200237846829658"><ele>100.0</ele><time>2026-04-26T08:50:21.86Z</time></trkpt><trkpt lat="44.01106028814202" lon="12.200310006423383"><ele>100.0</ele><time>2026-04-26T08:50:22.861Z</time></trkpt><trkpt lat="44.01118389523374" lon="12.200379977746719"><ele>100.0</ele><time>2026-04-26T08:50:23.861Z</time></trkpt><trkpt lat="44.011300040439444" lon="12.200458886582084"><ele>100.0</ele><time>2026-04-26T08:50:24.862Z</time></trkpt><trkpt lat="44.01140938767916" lon="12.200549567990416"><ele>100.0</ele><time>2026-04-26T08:50:25.863Z</time></trkpt><trkpt lat="44.011502776561755" lon="12.200651363717094"><ele>98.0</ele><time>2026-04-26T08:50:26.863Z</time></trkpt><trkpt lat="44.01158126156671" lon="12.200783669277918"><ele>96.0</ele><time>2026-04-26T08:50:27.864Z</time></trkpt><trkpt lat="44.0116244454458" lon="12.200945172362117"><ele>94.0</ele><time>2026-04-26T08:50:28.865Z</time></trkpt><trkpt lat="44.011638946428974" lon="12.201138567058715"><ele>92.0</ele><time>2026-04-26T08:50:29.865Z</time></trkpt><trkpt lat="44.011626790874615" lon="12.201346215128742"><ele>89.66666666666667</ele><time>2026-04-26T08:50:30.866Z</time></trkpt><trkpt lat="44.01155477587756" lon="12.201545967881291"><ele>87.33333333333333</ele><time>2026-04-26T08:50:31.866Z</time></trkpt><trkpt lat="44.011503859284836" lon="12.201767022492863"><ele>85.0</ele><time>2026-04-26T08:50:32.867Z</time></trkpt><trkpt lat="44.01144058600083" lon="12.20198016241757"><ele>85.0</ele><time>2026-04-26T08:50:33.867Z</time></trkpt><trkpt lat="44.01138232947917" lon="12.202204180681445"><ele>85.0</ele><time>2026-04-26T08:50:34.867Z</time></trkpt><trkpt lat="44.011326010475486" lon="12.202421619235523"><ele>85.0</ele><time>2026-04-26T08:50:35.868Z</time></trkpt><trkpt lat="44.01127300714909" lon="12.202631243834578"><ele>86.0</ele><time>2026-04-26T08:50:36.868Z</time></trkpt><trkpt lat="44.011215469624695" lon="12.202833068051401"><ele>87.0</ele><time>2026-04-26T08:50:37.868Z</time></trkpt><trkpt lat="44.01116051044534" lon="12.203028232367698"><ele>88.0</ele><time>2026-04-26T08:50:38.869Z</time></trkpt><trkpt lat="44.01110573935052" lon="12.203220732039739"><ele>88.25</ele><time>2026-04-26T08:50:39.869Z</time></trkpt><trkpt lat="44.011052967225865" lon="12.203403100389645"><ele>88.5</ele><time>2026-04-26T08:50:40.869Z</time></trkpt><trkpt lat="44.011015101711756" lon="12.203566368867465"><ele>88.75</ele><time>2026-04-26T08:50:41.869Z</time></trkpt><trkpt lat="44.01100093160523" lon="12.203728076697937"><ele>89.0</ele><time>2026-04-26T08:50:42.87Z</time></trkpt><trkpt lat="44.011016848993684" lon="12.203888736761835"><ele>89.80000000000001</ele><time>2026-04-26T08:50:43.87Z</time></trkpt><trkpt lat="44.01106293789668" lon="12.204044917525335"><ele>90.60000000000001</ele><time>2026-04-26T08:50:44.87Z</time></trkpt><trkpt lat="44.0111309027075" lon="12.204174987908297"><ele>91.4</ele><time>2026-04-26T08:50:45.87Z</time></trkpt><trkpt lat="44.011226081918274" lon="12.204257965825686"><ele>92.2</ele><time>2026-04-26T08:50:46.87Z</time></trkpt><trkpt lat="44.011308376983244" lon="12.20432188066293"><ele>93.0</ele><time>2026-04-26T08:50:47.87Z</time></trkpt><trkpt lat="44.01140405483836" lon="12.204365027513454"><ele>93.0</ele><time>2026-04-26T08:50:48.871Z</time></trkpt><trkpt lat="44.011492166385004" lon="12.204398185719462"><ele>93.0</ele><time>2026-04-26T08:50:49.871Z</time></trkpt><trkpt lat="44.01158156492954" lon="12.204431894885989"><ele>93.0</ele><time>2026-04-26T08:50:50.871Z</time></trkpt><trkpt lat="44.011785599780104" lon="12.204532564202358"><ele>93.0</ele><time>2026-04-26T08:50:52.871Z</time></trkpt><trkpt lat="44.011901529877704" lon="12.204577587995729"><ele>92.0</ele><time>2026-04-26T08:50:53.871Z</time></trkpt><trkpt lat="44.012026167418306" lon="12.204625669439695"><ele>91.0</ele><time>2026-04-26T08:50:54.871Z</time></trkpt><trkpt lat="44.01214755457823" lon="12.204695343844486"><ele>90.0</ele><time>2026-04-26T08:50:55.871Z</time></trkpt><trkpt lat="44.01228119678401" lon="12.204732563093877"><ele>89.0</ele><time>2026-04-26T08:50:56.871Z</time></trkpt><trkpt lat="44.01240902433614" lon="12.20479755102244"><ele>88.75</ele><time>2026-04-26T08:50:57.872Z</time></trkpt><trkpt lat="44.012546945807784" lon="12.204854280306613"><ele>88.5</ele><time>2026-04-26T08:50:58.872Z</time></trkpt><trkpt lat="44.01269162206768" lon="12.204920070986939"><ele>88.25</ele><time>2026-04-26T08:50:59.872Z</time></trkpt><trkpt lat="44.01281864854299" lon="12.205009202360147"><ele>88.0</ele><time>2026-04-26T08:51:00.872Z</time></trkpt><trkpt lat="44.01295734362007" lon="12.205067548161535"><ele>88.0</ele><time>2026-04-26T08:51:01.872Z</time></trkpt><trkpt lat="44.013100263363775" lon="12.205126743166364"><ele>88.0</ele><time>2026-04-26T08:51:02.872Z</time></trkpt><trkpt lat="44.013236773202955" lon="12.205183372825278"><ele>88.0</ele><time>2026-04-26T08:51:03.872Z</time></trkpt><trkpt lat="44.013362469297924" lon="12.205237109991295"><ele>88.0</ele><time>2026-04-26T08:51:04.872Z</time></trkpt><trkpt lat="44.01347866784765" lon="12.205290648676314"><ele>87.75</ele><time>2026-04-26T08:51:05.872Z</time></trkpt><trkpt lat="44.013595387127936" lon="12.205336253498542"><ele>87.5</ele><time>2026-04-26T08:51:06.872Z</time></trkpt><trkpt lat="44.01370561026746" lon="12.205387362086535"><ele>87.25</ele><time>2026-04-26T08:51:07.872Z</time></trkpt><trkpt lat="44.013823766541734" lon="12.2054298359666"><ele>87.0</ele><time>2026-04-26T08:51:08.872Z</time></trkpt><trkpt lat="44.013939946294215" lon="12.205471313111934"><ele>87.0</ele><time>2026-04-26T08:51:09.872Z</time></trkpt><trkpt lat="44.01405664335802" lon="12.205506801109562"><ele>87.0</ele><time>2026-04-26T08:51:10.872Z</time></trkpt><trkpt lat="44.0141641749884" lon="12.205538739084293"><ele>87.0</ele><time>2026-04-26T08:51:11.872Z</time></trkpt><trkpt lat="44.01427725809916" lon="12.205546108555867"><ele>87.0</ele><time>2026-04-26T08:51:12.872Z</time></trkpt><trkpt lat="44.01437905385671" lon="12.205552174479262"><ele>87.0</ele><time>2026-04-26T08:51:13.872Z</time></trkpt><trkpt lat="44.01446569524705" lon="12.205547324318733"><ele>87.0</ele><time>2026-04-26T08:51:14.872Z</time></trkpt><trkpt lat="44.014546291416075" lon="12.20552988903916"><ele>87.0</ele><time>2026-04-26T08:51:15.872Z</time></trkpt><trkpt lat="44.01462191407594" lon="12.205510840797915"><ele>87.0</ele><time>2026-04-26T08:51:16.872Z</time></trkpt><trkpt lat="44.01470900170967" lon="12.205503762239998"><ele>87.0</ele><time>2026-04-26T08:51:17.872Z</time></trkpt><trkpt lat="44.014797020871" lon="12.205505896319726"><ele>87.0</ele><time>2026-04-26T08:51:18.872Z</time></trkpt><trkpt lat="44.01488802796504" lon="12.205510874614019"><ele>87.0</ele><time>2026-04-26T08:51:19.872Z</time></trkpt><trkpt lat="44.01499356641086" lon="12.205495979465125"><ele>86.75</ele><time>2026-04-26T08:51:20.872Z</time></trkpt><trkpt lat="44.015112059414655" lon="12.20548107531022"><ele>86.5</ele><time>2026-04-26T08:51:21.872Z</time></trkpt><trkpt lat="44.01524592166693" lon="12.205479015898302"><ele>86.25</ele><time>2026-04-26T08:51:22.872Z</time></trkpt><trkpt lat="44.01539115939055" lon="12.20547607669817"><ele>86.0</ele><time>2026-04-26T08:51:23.872Z</time></trkpt><trkpt lat="44.01554201999638" lon="12.205450885172263"><ele>86.0</ele><time>2026-04-26T08:51:24.872Z</time></trkpt><trkpt lat="44.015701785786504" lon="12.205408513226935"><ele>86.0</ele><time>2026-04-26T08:51:25.872Z</time></trkpt><trkpt lat="44.015870768073505" lon="12.205361518018352"><ele>86.0</ele><time>2026-04-26T08:51:26.872Z</time></trkpt><trkpt lat="44.01604812375886" lon="12.20531623391059"><ele>86.0</ele><time>2026-04-26T08:51:27.872Z</time></trkpt><trkpt lat="44.0162256627873" lon="12.205278665291804"><ele>86.0</ele><time>2026-04-26T08:51:28.872Z</time></trkpt><trkpt lat="44.016405692961776" lon="12.20523766594801"><ele>86.0</ele><time>2026-04-26T08:51:29.873Z</time></trkpt><trkpt lat="44.0165889577423" lon="12.205194118004714"><ele>86.0</ele><time>2026-04-26T08:51:30.873Z</time></trkpt><trkpt lat="44.016778413546504" lon="12.205159747940174"><ele>86.0</ele><time>2026-04-26T08:51:31.873Z</time></trkpt><trkpt lat="44.01696603764481" lon="12.205119097152211"><ele>86.0</ele><time>2026-04-26T08:51:32.87Z</time></trkpt><trkpt lat="44.01715933555612" lon="12.205078017685857"><ele>86.0</ele><time>2026-04-26T08:51:33.871Z</time></trkpt><trkpt lat="44.01735126897088" lon="12.205036557638946"><ele>86.0</ele><time>2026-04-26T08:51:34.871Z</time></trkpt><trkpt lat="44.017538880879385" lon="12.204994687901165"><ele>86.0</ele><time>2026-04-26T08:51:35.871Z</time></trkpt><trkpt lat="44.01773106857889" lon="12.204955520707452"><ele>86.0</ele><time>2026-04-26T08:51:36.871Z</time></trkpt><trkpt lat="44.01791395931682" lon="12.204908374228369"><ele>86.0</ele><time>2026-04-26T08:51:37.871Z</time></trkpt><trkpt lat="44.01808989047684" lon="12.204889608594959"><ele>86.0</ele><time>2026-04-26T08:51:38.871Z</time></trkpt><trkpt lat="44.01826517630662" lon="12.204853926091918"><ele>86.33333333333334</ele><time>2026-04-26T08:51:39.87Z</time></trkpt><trkpt lat="44.01844483882687" lon="12.20481377916516"><ele>86.66666666666667</ele><time>2026-04-26T08:51:40.87Z</time></trkpt><trkpt lat="44.0186174400675" lon="12.204780344662808"><ele>87.0</ele><time>2026-04-26T08:51:41.871Z</time></trkpt><trkpt lat="44.018794972126685" lon="12.204744980639632"><ele>87.0</ele><time>2026-04-26T08:51:42.87Z</time></trkpt><trkpt lat="44.01896263035521" lon="12.204707867756595"><ele>87.0</ele><time>2026-04-26T08:51:43.87Z</time></trkpt><trkpt lat="44.01912376117244" lon="12.204668651162319"><ele>87.0</ele><time>2026-04-26T08:51:44.87Z</time></trkpt><trkpt lat="44.01928569921707" lon="12.20463105502674"><ele>87.0</ele><time>2026-04-26T08:51:45.871Z</time></trkpt><trkpt lat="44.01944299492424" lon="12.204599195412028"><ele>87.0</ele><time>2026-04-26T08:51:46.871Z</time></trkpt><trkpt lat="44.01958886211388" lon="12.20457050221425"><ele>87.0</ele><time>2026-04-26T08:51:47.871Z</time></trkpt><trkpt lat="44.019724940860094" lon="12.204546884277539"><ele>87.0</ele><time>2026-04-26T08:51:48.871Z</time></trkpt><trkpt lat="44.01985388810879" lon="12.204530178273458"><ele>87.0</ele><time>2026-04-26T08:51:49.871Z</time></trkpt><trkpt lat="44.01997544052579" lon="12.204517525744153"><ele>87.0</ele><time>2026-04-26T08:51:50.871Z</time></trkpt><trkpt lat="44.02009732746755" lon="12.204503158479344"><ele>87.0</ele><time>2026-04-26T08:51:51.871Z</time></trkpt><trkpt lat="44.02021180424012" lon="12.20449580149462"><ele>87.0</ele><time>2026-04-26T08:51:52.871Z</time></trkpt><trkpt lat="44.0203218085717" lon="12.204485753056026"><ele>87.75</ele><time>2026-04-26T08:51:53.871Z</time></trkpt><trkpt lat="44.02043561641914" lon="12.204482165793387"><ele>88.5</ele><time>2026-04-26T08:51:54.871Z</time></trkpt><trkpt lat="44.02055776172282" lon="12.204508967781123"><ele>89.25</ele><time>2026-04-26T08:51:55.871Z</time></trkpt><trkpt lat="44.02068796528525" lon="12.204492724783888"><ele>90.0</ele><time>2026-04-26T08:51:56.871Z</time></trkpt><trkpt lat="44.020819938169744" lon="12.204508056891079"><ele>90.25</ele><time>2026-04-26T08:51:57.871Z</time></trkpt><trkpt lat="44.02094641953044" lon="12.204519861653589"><ele>90.5</ele><time>2026-04-26T08:51:58.871Z</time></trkpt><trkpt lat="44.021064408742326" lon="12.204554963131804"><ele>90.75</ele><time>2026-04-26T08:51:59.871Z</time></trkpt><trkpt lat="44.021192025465155" lon="12.204571053602768"><ele>91.0</ele><time>2026-04-26T08:52:00.871Z</time></trkpt><trkpt lat="44.02132386200727" lon="12.204562774879687"><ele>91.0</ele><time>2026-04-26T08:52:01.871Z</time></trkpt><trkpt lat="44.021449198267085" lon="12.20460004934367"><ele>91.0</ele><time>2026-04-26T08:52:02.871Z</time></trkpt><trkpt lat="44.021574898683596" lon="12.204598366077626"><ele>91.0</ele><time>2026-04-26T08:52:03.871Z</time></trkpt><trkpt lat="44.02169346198228" lon="12.2046115362318"><ele>91.0</ele><time>2026-04-26T08:52:04.871Z</time></trkpt><trkpt lat="44.02180874501361" lon="12.204625067693978"><ele>91.0</ele><time>2026-04-26T08:52:05.871Z</time></trkpt><trkpt lat="44.02192485869311" lon="12.204633832582548"><ele>91.0</ele><time>2026-04-26T08:52:06.871Z</time></trkpt><trkpt lat="44.02204820779931" lon="12.204644907212867"><ele>91.0</ele><time>2026-04-26T08:52:07.871Z</time></trkpt><trkpt lat="44.02217628468488" lon="12.2046807614553"><ele>91.0</ele><time>2026-04-26T08:52:08.871Z</time></trkpt><trkpt lat="44.0223067959332" lon="12.204695306735774"><ele>91.0</ele><time>2026-04-26T08:52:09.871Z</time></trkpt><trkpt lat="44.02243525071013" lon="12.204709698760078"><ele>91.0</ele><time>2026-04-26T08:52:10.871Z</time></trkpt><trkpt lat="44.022561481500695" lon="12.204723841602547"><ele>91.0</ele><time>2026-04-26T08:52:11.871Z</time></trkpt><trkpt lat="44.02268503777461" lon="12.204737684792816"><ele>91.0</ele><time>2026-04-26T08:52:12.871Z</time></trkpt><trkpt lat="44.02281043802769" lon="12.204729196978645"><ele>91.0</ele><time>2026-04-26T08:52:13.871Z</time></trkpt><trkpt lat="44.02293871231667" lon="12.204758561134136"><ele>91.0</ele><time>2026-04-26T08:52:14.871Z</time></trkpt><trkpt lat="44.02307929928019" lon="12.204766731247346"><ele>91.0</ele><time>2026-04-26T08:52:15.871Z</time></trkpt><trkpt lat="44.02321211245964" lon="12.204791584163381"><ele>91.0</ele><time>2026-04-26T08:52:16.871Z</time></trkpt><trkpt lat="44.02334681200552" lon="12.204801309692298"><ele>91.25</ele><time>2026-04-26T08:52:17.871Z</time></trkpt><trkpt lat="44.02347748227886" lon="12.20482463211674"><ele>91.5</ele><time>2026-04-26T08:52:18.871Z</time></trkpt><trkpt lat="44.023611057235044" lon="12.204824919273294"><ele>91.75</ele><time>2026-04-26T08:52:19.871Z</time></trkpt><trkpt lat="44.02374065099177" lon="12.204845743048335"><ele>92.0</ele><time>2026-04-26T08:52:20.871Z</time></trkpt><trkpt lat="44.02387527892415" lon="12.204865629136213"><ele>92.25</ele><time>2026-04-26T08:52:21.871Z</time></trkpt><trkpt lat="44.024008044180576" lon="12.204879081217578"><ele>92.5</ele><time>2026-04-26T08:52:22.871Z</time></trkpt><trkpt lat="44.02414451746585" lon="12.204900362013555"><ele>92.75</ele><time>2026-04-26T08:52:23.871Z</time></trkpt><trkpt lat="44.02427874900719" lon="12.204913516853175"><ele>93.0</ele><time>2026-04-26T08:52:24.871Z</time></trkpt><trkpt lat="44.02441260412423" lon="12.204922366869205"><ele>92.5</ele><time>2026-04-26T08:52:25.871Z</time></trkpt><trkpt lat="44.02455607611623" lon="12.20493494196644"><ele>92.0</ele><time>2026-04-26T08:52:26.871Z</time></trkpt><trkpt lat="44.024695454785196" lon="12.20495193619808"><ele>91.5</ele><time>2026-04-26T08:52:27.871Z</time></trkpt><trkpt lat="44.024835091128715" lon="12.204960671281416"><ele>91.0</ele><time>2026-04-26T08:52:28.871Z</time></trkpt><trkpt lat="44.02497756877904" lon="12.204972832891544"><ele>91.0</ele><time>2026-04-26T08:52:29.871Z</time></trkpt><trkpt lat="44.025117227253844" lon="12.204998610968767"><ele>91.0</ele><time>2026-04-26T08:52:30.871Z</time></trkpt><trkpt lat="44.02526123654338" lon="12.205021419374715"><ele>91.0</ele><time>2026-04-26T08:52:31.871Z</time></trkpt><trkpt lat="44.025409631612895" lon="12.205043381293859"><ele>91.0</ele><time>2026-04-26T08:52:32.871Z</time></trkpt><trkpt lat="44.02555854194773" lon="12.205059400052802"><ele>91.0</ele><time>2026-04-26T08:52:33.871Z</time></trkpt><trkpt lat="44.02570628270368" lon="12.205070213169547"><ele>91.0</ele><time>2026-04-26T08:52:34.871Z</time></trkpt><trkpt lat="44.025851828065264" lon="12.205082653603556"><ele>91.0</ele><time>2026-04-26T08:52:35.871Z</time></trkpt><trkpt lat="44.02599600448944" lon="12.2050954870412"><ele>91.0</ele><time>2026-04-26T08:52:36.871Z</time></trkpt><trkpt lat="44.02613621663682" lon="12.205110716006004"><ele>91.0</ele><time>2026-04-26T08:52:37.871Z</time></trkpt><trkpt lat="44.026278955208035" lon="12.205125511001286"><ele>91.0</ele><time>2026-04-26T08:52:38.871Z</time></trkpt><trkpt lat="44.02641808015549" lon="12.205164728980892"><ele>91.0</ele><time>2026-04-26T08:52:39.871Z</time></trkpt><trkpt lat="44.02656579553946" lon="12.205176938238363"><ele>91.0</ele><time>2026-04-26T08:52:40.871Z</time></trkpt><trkpt lat="44.02671177405735" lon="12.205185486915608"><ele>90.75</ele><time>2026-04-26T08:52:41.871Z</time></trkpt><trkpt lat="44.02685631088541" lon="12.205181268347628"><ele>90.5</ele><time>2026-04-26T08:52:42.871Z</time></trkpt><trkpt lat="44.026997166414816" lon="12.20515644297888"><ele>90.25</ele><time>2026-04-26T08:52:43.871Z</time></trkpt><trkpt lat="44.02713356111129" lon="12.205101148049701"><ele>90.0</ele><time>2026-04-26T08:52:44.871Z</time></trkpt><trkpt lat="44.02726962985831" lon="12.205008900185028"><ele>90.0</ele><time>2026-04-26T08:52:45.871Z</time></trkpt><trkpt lat="44.02739906399864" lon="12.204882007754708"><ele>90.0</ele><time>2026-04-26T08:52:46.871Z</time></trkpt><trkpt lat="44.02752451187886" lon="12.204717629982884"><ele>90.0</ele><time>2026-04-26T08:52:47.871Z</time></trkpt><trkpt lat="44.027625646294354" lon="12.204543233379137"><ele>90.66666666666667</ele><time>2026-04-26T08:52:48.871Z</time></trkpt><trkpt lat="44.027726481084514" lon="12.20436903369394"><ele>91.33333333333334</ele><time>2026-04-26T08:52:49.871Z</time></trkpt><trkpt lat="44.027830775030175" lon="12.204215839480039"><ele>92.0</ele><time>2026-04-26T08:52:50.871Z</time></trkpt><trkpt lat="44.027949500368514" lon="12.204080999006239"><ele>92.0</ele><time>2026-04-26T08:52:51.871Z</time></trkpt><trkpt lat="44.02809201890169" lon="12.203998621339059"><ele>92.0</ele><time>2026-04-26T08:52:52.871Z</time></trkpt><trkpt lat="44.028243020010294" lon="12.203926650801426"><ele>92.0</ele><time>2026-04-26T08:52:53.871Z</time></trkpt><trkpt lat="44.02839430358198" lon="12.203868095624143"><ele>92.0</ele><time>2026-04-26T08:52:54.871Z</time></trkpt><trkpt lat="44.02852719516998" lon="12.203839443631935"><ele>92.0</ele><time>2026-04-26T08:52:55.871Z</time></trkpt><trkpt lat="44.02863554130988" lon="12.203803531372378"><ele>92.0</ele><time>2026-04-26T08:52:56.871Z</time></trkpt><trkpt lat="44.02873016915034" lon="12.203733023796023"><ele>92.0</ele><time>2026-04-26T08:52:57.871Z</time></trkpt><trkpt lat="44.02880531182507" lon="12.203642797321455"><ele>92.0</ele><time>2026-04-26T08:52:58.871Z</time></trkpt><trkpt lat="44.0288521551777" lon="12.203503347881004"><ele>92.0</ele><time>2026-04-26T08:52:59.871Z</time></trkpt><trkpt lat="44.02886530484318" lon="12.203332692731028"><ele>92.0</ele><time>2026-04-26T08:53:00.87Z</time></trkpt><trkpt lat="44.028829582962054" lon="12.203159558364522"><ele>92.0</ele><time>2026-04-26T08:53:01.87Z</time></trkpt><trkpt lat="44.02873385337867" lon="12.20301232543959"><ele>91.25</ele><time>2026-04-26T08:53:02.87Z</time></trkpt><trkpt lat="44.02864241317777" lon="12.20286592843113"><ele>90.5</ele><time>2026-04-26T08:53:03.87Z</time></trkpt><trkpt lat="44.02857246361386" lon="12.202698800980865"><ele>89.75</ele><time>2026-04-26T08:53:04.87Z</time></trkpt><trkpt lat="44.028543945733134" lon="12.202520268468"><ele>89.0</ele><time>2026-04-26T08:53:05.87Z</time></trkpt><trkpt lat="44.02856271230946" lon="12.202329575012394"><ele>87.66666666666667</ele><time>2026-04-26T08:53:06.87Z</time></trkpt><trkpt lat="44.02862307329778" lon="12.202135884192408"><ele>86.33333333333333</ele><time>2026-04-26T08:53:07.87Z</time></trkpt><trkpt lat="44.02870600542545" lon="12.20195144604303"><ele>85.0</ele><time>2026-04-26T08:53:08.87Z</time></trkpt><trkpt lat="44.0288028503208" lon="12.201805949058565"><ele>85.0</ele><time>2026-04-26T08:53:09.87Z</time></trkpt><trkpt lat="44.028915546071914" lon="12.201690921011611"><ele>85.0</ele><time>2026-04-26T08:53:10.87Z</time></trkpt><trkpt lat="44.02906129608392" lon="12.201623596366385"><ele>85.0</ele><time>2026-04-26T08:53:11.87Z</time></trkpt><trkpt lat="44.02921785984455" lon="12.201559488905366"><ele>84.0</ele><time>2026-04-26T08:53:12.87Z</time></trkpt><trkpt lat="44.02938201353241" lon="12.201507055570492"><ele>83.0</ele><time>2026-04-26T08:53:13.87Z</time></trkpt><trkpt lat="44.02954161191374" lon="12.201416458733277"><ele>82.0</ele><time>2026-04-26T08:53:14.87Z</time></trkpt><trkpt lat="44.02970369319192" lon="12.20132509113921"><ele>82.0</ele><time>2026-04-26T08:53:15.87Z</time></trkpt><trkpt lat="44.02986511289775" lon="12.201235059847175"><ele>82.0</ele><time>2026-04-26T08:53:16.87Z</time></trkpt><trkpt lat="44.0300317416003" lon="12.201145561239057"><ele>82.0</ele><time>2026-04-26T08:53:17.87Z</time></trkpt><trkpt lat="44.030201021414996" lon="12.20107052462699"><ele>84.66666666666666</ele><time>2026-04-26T08:53:18.87Z</time></trkpt><trkpt lat="44.0303773756557" lon="12.201003471268608"><ele>87.33333333333333</ele><time>2026-04-26T08:53:19.87Z</time></trkpt><trkpt lat="44.03053952472367" lon="12.200937820810768"><ele>90.0</ele><time>2026-04-26T08:53:20.87Z</time></trkpt><trkpt lat="44.03068998555416" lon="12.200846482958033"><ele>88.0</ele><time>2026-04-26T08:53:21.87Z</time></trkpt><trkpt lat="44.03083750736404" lon="12.200728794482792"><ele>86.0</ele><time>2026-04-26T08:53:22.87Z</time></trkpt><trkpt lat="44.03097433364973" lon="12.200588152220046"><ele>84.0</ele><time>2026-04-26T08:53:23.87Z</time></trkpt><trkpt lat="44.03112528441332" lon="12.200439388842439"><ele>84.0</ele><time>2026-04-26T08:53:24.87Z</time></trkpt><trkpt lat="44.031246389726945" lon="12.200260959918506"><ele>84.0</ele><time>2026-04-26T08:53:25.87Z</time></trkpt><trkpt lat="44.03138882063676" lon="12.2001445478966"><ele>84.0</ele><time>2026-04-26T08:53:26.87Z</time></trkpt><trkpt lat="44.031519174264915" lon="12.200035425589634"><ele>88.0</ele><time>2026-04-26T08:53:27.87Z</time></trkpt><trkpt lat="44.03165424777681" lon="12.199945330560688"><ele>92.0</ele><time>2026-04-26T08:53:28.87Z</time></trkpt><trkpt lat="44.03180998620385" lon="12.199948439959845"><ele>96.0</ele><time>2026-04-26T08:53:29.87Z</time></trkpt><trkpt lat="44.03195700585928" lon="12.199966714817515"><ele>96.0</ele><time>2026-04-26T08:53:30.87Z</time></trkpt><trkpt lat="44.03209958616544" lon="12.19997039999684"><ele>96.0</ele><time>2026-04-26T08:53:31.87Z</time></trkpt><trkpt lat="44.03223588103488" lon="12.199942074553258"><ele>96.0</ele><time>2026-04-26T08:53:32.87Z</time></trkpt><trkpt lat="44.032372303928426" lon="12.19989916537797"><ele>96.0</ele><time>2026-04-26T08:53:33.87Z</time></trkpt><trkpt lat="44.03248862834451" lon="12.19980425941407"><ele>94.75</ele><time>2026-04-26T08:53:34.87Z</time></trkpt><trkpt lat="44.03259024688966" lon="12.199689032151037"><ele>93.5</ele><time>2026-04-26T08:53:35.87Z</time></trkpt><trkpt lat="44.03271157668072" lon="12.199618238667481"><ele>92.25</ele><time>2026-04-26T08:53:36.87Z</time></trkpt><trkpt lat="44.03282518365844" lon="12.199617474405862"><ele>91.0</ele><time>2026-04-26T08:53:37.87Z</time></trkpt><trkpt lat="44.03293866012292" lon="12.199648782780354"><ele>91.0</ele><time>2026-04-26T08:53:38.869Z</time></trkpt><trkpt lat="44.03305530100847" lon="12.199673690369414"><ele>91.0</ele><time>2026-04-26T08:53:39.868Z</time></trkpt><trkpt lat="44.03317623242853" lon="12.199659695020364"><ele>91.0</ele><time>2026-04-26T08:53:40.868Z</time></trkpt><trkpt lat="44.033294680583694" lon="12.199626821356517"><ele>91.0</ele><time>2026-04-26T08:53:41.869Z</time></trkpt><trkpt lat="44.03339971010164" lon="12.199529018765766"><ele>92.75</ele><time>2026-04-26T08:53:42.869Z</time></trkpt><trkpt lat="44.033466761470514" lon="12.1993924719884"><ele>94.5</ele><time>2026-04-26T08:53:43.869Z</time></trkpt><trkpt lat="44.03350562966342" lon="12.199211184730082"><ele>96.25</ele><time>2026-04-26T08:53:44.868Z</time></trkpt><trkpt lat="44.0334903527739" lon="12.199017759742695"><ele>98.0</ele><time>2026-04-26T08:53:45.868Z</time></trkpt><trkpt lat="44.033426631628345" lon="12.198832610577306"><ele>98.75</ele><time>2026-04-26T08:53:46.868Z</time></trkpt><trkpt lat="44.033348921541645" lon="12.198649682919854"><ele>99.5</ele><time>2026-04-26T08:53:47.869Z</time></trkpt><trkpt lat="44.033275031931566" lon="12.198469321078406"><ele>100.25</ele><time>2026-04-26T08:53:48.869Z</time></trkpt><trkpt lat="44.03325361144585" lon="12.198287002244502"><ele>101.0</ele><time>2026-04-26T08:53:49.869Z</time></trkpt><trkpt lat="44.03326137082338" lon="12.198097260230892"><ele>99.0</ele><time>2026-04-26T08:53:50.869Z</time></trkpt><trkpt lat="44.03328638857884" lon="12.197891080110438"><ele>97.0</ele><time>2026-04-26T08:53:51.868Z</time></trkpt><trkpt lat="44.03335781719342" lon="12.197684695075887"><ele>95.0</ele><time>2026-04-26T08:53:52.868Z</time></trkpt><trkpt lat="44.033438221893974" lon="12.197490849880289"><ele>90.66666666666667</ele><time>2026-04-26T08:53:53.868Z</time></trkpt><trkpt lat="44.033553495698364" lon="12.19730908603122"><ele>86.33333333333333</ele><time>2026-04-26T08:53:54.868Z</time></trkpt><trkpt lat="44.03367251010202" lon="12.197131330974381"><ele>82.0</ele><time>2026-04-26T08:53:55.868Z</time></trkpt><trkpt lat="44.03380926938081" lon="12.196974699183802"><ele>82.0</ele><time>2026-04-26T08:53:56.868Z</time></trkpt><trkpt lat="44.03395509017768" lon="12.1968407330489"><ele>82.0</ele><time>2026-04-26T08:53:57.868Z</time></trkpt><trkpt lat="44.03407970718068" lon="12.1967166240418"><ele>82.0</ele><time>2026-04-26T08:53:58.868Z</time></trkpt><trkpt lat="44.0341731562171" lon="12.19657856640114"><ele>85.25</ele><time>2026-04-26T08:53:59.868Z</time></trkpt><trkpt lat="44.03422287353453" lon="12.196387162963799"><ele>88.5</ele><time>2026-04-26T08:54:00.868Z</time></trkpt><trkpt lat="44.034234073633066" lon="12.19618021461958"><ele>91.75</ele><time>2026-04-26T08:54:01.868Z</time></trkpt><trkpt lat="44.03425691159483" lon="12.195991771924286"><ele>95.0</ele><time>2026-04-26T08:54:02.868Z</time></trkpt><trkpt lat="44.03432238539631" lon="12.195819037867095"><ele>95.0</ele><time>2026-04-26T08:54:03.868Z</time></trkpt><trkpt lat="44.03443310395337" lon="12.195714067343975"><ele>95.0</ele><time>2026-04-26T08:54:04.868Z</time></trkpt><trkpt lat="44.03454798520063" lon="12.1956062583374"><ele>95.0</ele><time>2026-04-26T08:54:05.868Z</time></trkpt><trkpt lat="44.034701568510506" lon="12.195640813830797"><ele>95.0</ele><time>2026-04-26T08:54:06.868Z</time></trkpt><trkpt lat="44.03486796021864" lon="12.195664167005914"><ele>97.33333333333334</ele><time>2026-04-26T08:54:07.868Z</time></trkpt><trkpt lat="44.0350419170229" lon="12.195690328136866"><ele>99.66666666666667</ele><time>2026-04-26T08:54:08.868Z</time></trkpt><trkpt lat="44.035227049275484" lon="12.195705420637534"><ele>102.0</ele><time>2026-04-26T08:54:09.868Z</time></trkpt><trkpt lat="44.03541456283503" lon="12.195747105670229"><ele>102.0</ele><time>2026-04-26T08:54:10.868Z</time></trkpt><trkpt lat="44.03560430850942" lon="12.195796215903636"><ele>102.0</ele><time>2026-04-26T08:54:11.868Z</time></trkpt><trkpt lat="44.035784045467636" lon="12.195851571425777"><ele>102.0</ele><time>2026-04-26T08:54:12.868Z</time></trkpt><trkpt lat="44.035944644823" lon="12.195910187396839"><ele>100.33333333333334</ele><time>2026-04-26T08:54:13.868Z</time></trkpt><trkpt lat="44.036098563144456" lon="12.195979177260163"><ele>98.66666666666667</ele><time>2026-04-26T08:54:14.868Z</time></trkpt><trkpt lat="44.036242784327875" lon="12.19603908305262"><ele>97.0</ele><time>2026-04-26T08:54:15.868Z</time></trkpt><trkpt lat="44.036386677369194" lon="12.196068113661816"><ele>97.0</ele><time>2026-04-26T08:54:16.868Z</time></trkpt><trkpt lat="44.03652857076694" lon="12.196047499117663"><ele>97.0</ele><time>2026-04-26T08:54:17.868Z</time></trkpt><trkpt lat="44.03666585539316" lon="12.195971977289352"><ele>97.0</ele><time>2026-04-26T08:54:18.868Z</time></trkpt><trkpt lat="44.03679977773926" lon="12.195845941827045"><ele>97.33333333333334</ele><time>2026-04-26T08:54:19.868Z</time></trkpt><trkpt lat="44.036906792360284" lon="12.195674478822523"><ele>97.66666666666666</ele><time>2026-04-26T08:54:20.868Z</time></trkpt><trkpt lat="44.0370108822558" lon="12.195478637450842"><ele>98.0</ele><time>2026-04-26T08:54:21.868Z</time></trkpt><trkpt lat="44.0371215192289" lon="12.195272390097797"><ele>95.0</ele><time>2026-04-26T08:54:22.868Z</time></trkpt><trkpt lat="44.03723672371032" lon="12.195079223927593"><ele>92.0</ele><time>2026-04-26T08:54:23.868Z</time></trkpt><trkpt lat="44.03735173983676" lon="12.19489839902108"><ele>89.0</ele><time>2026-04-26T08:54:24.868Z</time></trkpt><trkpt lat="44.0374602115467" lon="12.194726058193048"><ele>89.0</ele><time>2026-04-26T08:54:25.868Z</time></trkpt><trkpt lat="44.03757975825219" lon="12.194578276946876"><ele>89.0</ele><time>2026-04-26T08:54:26.868Z</time></trkpt><trkpt lat="44.03773444869042" lon="12.194475578657094"><ele>89.0</ele><time>2026-04-26T08:54:27.868Z</time></trkpt><trkpt lat="44.037874987142914" lon="12.194331887961093"><ele>89.0</ele><time>2026-04-26T08:54:28.868Z</time></trkpt><trkpt lat="44.03801331210103" lon="12.194215542080187"><ele>89.0</ele><time>2026-04-26T08:54:29.868Z</time></trkpt><trkpt lat="44.03812587799401" lon="12.194073562378328"><ele>89.0</ele><time>2026-04-26T08:54:30.868Z</time></trkpt><trkpt lat="44.038207119503916" lon="12.193890374857325"><ele>87.33333333333334</ele><time>2026-04-26T08:54:31.868Z</time></trkpt><trkpt lat="44.03824519415649" lon="12.193662209637694"><ele>85.66666666666667</ele><time>2026-04-26T08:54:32.868Z</time></trkpt><trkpt lat="44.038255282893196" lon="12.193430524300089"><ele>84.0</ele><time>2026-04-26T08:54:33.868Z</time></trkpt><trkpt lat="44.03823118555355" lon="12.19320639522798"><ele>83.75</ele><time>2026-04-26T08:54:34.868Z</time></trkpt><trkpt lat="44.0382100465292" lon="12.193005298426915"><ele>83.5</ele><time>2026-04-26T08:54:35.868Z</time></trkpt><trkpt lat="44.0382141494793" lon="12.19281594436444"><ele>83.25</ele><time>2026-04-26T08:54:36.868Z</time></trkpt><trkpt lat="44.0382785236443" lon="12.19263505208948"><ele>83.0</ele><time>2026-04-26T08:54:37.868Z</time></trkpt><trkpt lat="44.03835491523355" lon="12.192475819926257"><ele>83.0</ele><time>2026-04-26T08:54:38.868Z</time></trkpt><trkpt lat="44.038458286834214" lon="12.192342150453925"><ele>83.0</ele><time>2026-04-26T08:54:39.868Z</time></trkpt><trkpt lat="44.03858824019045" lon="12.192251268542435"><ele>83.0</ele><time>2026-04-26T08:54:40.868Z</time></trkpt><trkpt lat="44.038736336239985" lon="12.192155445338374"><ele>83.0</ele><time>2026-04-26T08:54:41.868Z</time></trkpt><trkpt lat="44.03888062025171" lon="12.192048396395613"><ele>83.0</ele><time>2026-04-26T08:54:42.868Z</time></trkpt><trkpt lat="44.03899979596211" lon="12.19192288337755"><ele>83.0</ele><time>2026-04-26T08:54:43.868Z</time></trkpt><trkpt lat="44.039112722887396" lon="12.191774955248217"><ele>85.0</ele><time>2026-04-26T08:54:44.868Z</time></trkpt><trkpt lat="44.03917976037427" lon="12.191577464663922"><ele>87.0</ele><time>2026-04-26T08:54:45.868Z</time></trkpt><trkpt lat="44.0392264025294" lon="12.19136292302789"><ele>89.0</ele><time>2026-04-26T08:54:46.868Z</time></trkpt><trkpt lat="44.039245432980366" lon="12.191139928561398"><ele>89.0</ele><time>2026-04-26T08:54:47.868Z</time></trkpt><trkpt lat="44.03931524824895" lon="12.190970159853958"><ele>89.0</ele><time>2026-04-26T08:54:48.868Z</time></trkpt><trkpt lat="44.039399148595734" lon="12.190823382604687"><ele>89.0</ele><time>2026-04-26T08:54:49.868Z</time></trkpt><trkpt lat="44.039500915751255" lon="12.190740594440667"><ele>89.0</ele><time>2026-04-26T08:54:50.868Z</time></trkpt><trkpt lat="44.03961897671603" lon="12.190726797179101"><ele>89.0</ele><time>2026-04-26T08:54:51.868Z</time></trkpt><trkpt lat="44.0397397895746" lon="12.190760286469397"><ele>89.0</ele><time>2026-04-26T08:54:52.868Z</time></trkpt><trkpt lat="44.039865528310344" lon="12.190844742733933"><ele>89.0</ele><time>2026-04-26T08:54:53.868Z</time></trkpt><trkpt lat="44.040015253474095" lon="12.190930846439475"><ele>89.0</ele><time>2026-04-26T08:54:54.868Z</time></trkpt><trkpt lat="44.040182781115575" lon="12.190959941199537"><ele>90.33333333333334</ele><time>2026-04-26T08:54:55.868Z</time></trkpt><trkpt lat="44.040358049894635" lon="12.190960359702812"><ele>91.66666666666667</ele><time>2026-04-26T08:54:56.868Z</time></trkpt><trkpt lat="44.040517444709906" lon="12.19092008662743"><ele>93.0</ele><time>2026-04-26T08:54:57.868Z</time></trkpt><trkpt lat="44.04066321006927" lon="12.190846162494921"><ele>93.0</ele><time>2026-04-26T08:54:58.868Z</time></trkpt><trkpt lat="44.04079813633829" lon="12.190735845568174"><ele>93.0</ele><time>2026-04-26T08:54:59.868Z</time></trkpt><trkpt lat="44.04090654615564" lon="12.19056717917413"><ele>93.0</ele><time>2026-04-26T08:55:00.868Z</time></trkpt><trkpt lat="44.04101338797362" lon="12.190394846596229"><ele>90.25</ele><time>2026-04-26T08:55:01.868Z</time></trkpt><trkpt lat="44.041133533079474" lon="12.190262478445486"><ele>87.5</ele><time>2026-04-26T08:55:02.868Z</time></trkpt><trkpt lat="44.04124724569081" lon="12.190170064468013"><ele>84.75</ele><time>2026-04-26T08:55:03.868Z</time></trkpt><trkpt lat="44.04136997724505" lon="12.190107246040114"><ele>82.0</ele><time>2026-04-26T08:55:04.868Z</time></trkpt><trkpt lat="44.0415085846312" lon="12.190098585864346"><ele>83.0</ele><time>2026-04-26T08:55:05.868Z</time></trkpt><trkpt lat="44.041657512403475" lon="12.190107276984572"><ele>84.0</ele><time>2026-04-26T08:55:06.868Z</time></trkpt><trkpt lat="44.041810860771726" lon="12.19013921202748"><ele>85.0</ele><time>2026-04-26T08:55:07.868Z</time></trkpt><trkpt lat="44.04197056315622" lon="12.190111239901974"><ele>85.0</ele><time>2026-04-26T08:55:08.868Z</time></trkpt><trkpt lat="44.04211558720945" lon="12.190050638030536"><ele>85.0</ele><time>2026-04-26T08:55:09.868Z</time></trkpt><trkpt lat="44.04224237887994" lon="12.189916162292326"><ele>85.0</ele><time>2026-04-26T08:55:10.868Z</time></trkpt><trkpt lat="44.04234832731144" lon="12.18978711357059"><ele>84.5</ele><time>2026-04-26T08:55:11.868Z</time></trkpt><trkpt lat="44.04246020575796" lon="12.18971198510978"><ele>84.0</ele><time>2026-04-26T08:55:12.868Z</time></trkpt><trkpt lat="44.04258528333221" lon="12.189731553439545"><ele>83.5</ele><time>2026-04-26T08:55:13.868Z</time></trkpt><trkpt lat="44.042711812559205" lon="12.189802318178232"><ele>83.0</ele><time>2026-04-26T08:55:14.868Z</time></trkpt><trkpt lat="44.04284409444626" lon="12.189906148614703"><ele>83.0</ele><time>2026-04-26T08:55:15.868Z</time></trkpt><trkpt lat="44.04300732954211" lon="12.18993827257528"><ele>83.0</ele><time>2026-04-26T08:55:16.868Z</time></trkpt><trkpt lat="44.04317959395787" lon="12.189947408574197"><ele>83.0</ele><time>2026-04-26T08:55:17.868Z</time></trkpt><trkpt lat="44.04336008839511" lon="12.189920972507423"><ele>82.0</ele><time>2026-04-26T08:55:18.868Z</time></trkpt><trkpt lat="44.04352905608472" lon="12.18994396666548"><ele>81.0</ele><time>2026-04-26T08:55:19.868Z</time></trkpt><trkpt lat="44.043690076914125" lon="12.190013010441694"><ele>80.0</ele><time>2026-04-26T08:55:20.868Z</time></trkpt><trkpt lat="44.04386889115212" lon="12.190102768468043"><ele>80.0</ele><time>2026-04-26T08:55:21.868Z</time></trkpt><trkpt lat="44.0440538318524" lon="12.190172457334686"><ele>80.0</ele><time>2026-04-26T08:55:22.868Z</time></trkpt><trkpt lat="44.04422143589834" lon="12.190273961455784"><ele>80.0</ele><time>2026-04-26T08:55:23.868Z</time></trkpt><trkpt lat="44.04437377532091" lon="12.190350609423364"><ele>79.25</ele><time>2026-04-26T08:55:24.868Z</time></trkpt><trkpt lat="44.04451518471696" lon="12.190412803757136"><ele>78.5</ele><time>2026-04-26T08:55:25.868Z</time></trkpt><trkpt lat="44.04465285661098" lon="12.190448280433849"><ele>77.75</ele><time>2026-04-26T08:55:26.868Z</time></trkpt><trkpt lat="44.04479228614127" lon="12.190432100787023"><ele>77.0</ele><time>2026-04-26T08:55:27.868Z</time></trkpt><trkpt lat="44.04492100734109" lon="12.190380354156154"><ele>76.25</ele><time>2026-04-26T08:55:28.868Z</time></trkpt><trkpt lat="44.04504761443244" lon="12.190290048347554"><ele>75.5</ele><time>2026-04-26T08:55:29.868Z</time></trkpt><trkpt lat="44.0451529793602" lon="12.190184952580374"><ele>74.75</ele><time>2026-04-26T08:55:30.868Z</time></trkpt><trkpt lat="44.0452346555473" lon="12.190067679299899"><ele>74.0</ele><time>2026-04-26T08:55:31.868Z</time></trkpt><trkpt lat="44.045301766597944" lon="12.189935454478181"><ele>72.5</ele><time>2026-04-26T08:55:32.868Z</time></trkpt><trkpt lat="44.0453640418503" lon="12.189797968799914"><ele>71.0</ele><time>2026-04-26T08:55:33.868Z</time></trkpt><trkpt lat="44.045422376657434" lon="12.189642547649317"><ele>69.5</ele><time>2026-04-26T08:55:34.868Z</time></trkpt><trkpt lat="44.045497755892754" lon="12.189483263156406"><ele>68.0</ele><time>2026-04-26T08:55:35.868Z</time></trkpt><trkpt lat="44.04557871054475" lon="12.189322037983821"><ele>68.0</ele><time>2026-04-26T08:55:36.868Z</time></trkpt><trkpt lat="44.04566060702001" lon="12.189165151114162"><ele>68.0</ele><time>2026-04-26T08:55:37.868Z</time></trkpt><trkpt lat="44.045738927478766" lon="12.189002202876123"><ele>68.0</ele><time>2026-04-26T08:55:38.868Z</time></trkpt><trkpt lat="44.04580878752438" lon="12.188848945854822"><ele>68.0</ele><time>2026-04-26T08:55:39.868Z</time></trkpt><trkpt lat="44.04588107817032" lon="12.188695647628863"><ele>68.0</ele><time>2026-04-26T08:55:40.868Z</time></trkpt><trkpt lat="44.04595701004684" lon="12.188544423470555"><ele>68.0</ele><time>2026-04-26T08:55:41.868Z</time></trkpt><trkpt lat="44.04602986758056" lon="12.188389124342475"><ele>68.0</ele><time>2026-04-26T08:55:42.868Z</time></trkpt><trkpt lat="44.046106364839275" lon="12.188235891385379"><ele>68.0</ele><time>2026-04-26T08:55:43.868Z</time></trkpt><trkpt lat="44.04618524365752" lon="12.18807506230376"><ele>67.75</ele><time>2026-04-26T08:55:44.867Z</time></trkpt><trkpt lat="44.046261665520575" lon="12.187911036680395"><ele>67.5</ele><time>2026-04-26T08:55:45.866Z</time></trkpt><trkpt lat="44.046341675135096" lon="12.187749898098195"><ele>67.25</ele><time>2026-04-26T08:55:46.866Z</time></trkpt><trkpt lat="44.04641519880509" lon="12.187598483844933"><ele>67.0</ele><time>2026-04-26T08:55:47.867Z</time></trkpt><trkpt lat="44.04648309096622" lon="12.187454856631048"><ele>68.4</ele><time>2026-04-26T08:55:48.866Z</time></trkpt><trkpt lat="44.04655906736546" lon="12.187340870768756"><ele>69.80000000000001</ele><time>2026-04-26T08:55:49.866Z</time></trkpt><trkpt lat="44.04660351561459" lon="12.18722751236185"><ele>71.2</ele><time>2026-04-26T08:55:50.866Z</time></trkpt><trkpt lat="44.04661759904326" lon="12.187121461817206"><ele>72.60000000000001</ele><time>2026-04-26T08:55:51.867Z</time></trkpt><trkpt lat="44.046691150967725" lon="12.187035138335329"><ele>74.0</ele><time>2026-04-26T08:55:52.867Z</time></trkpt><trkpt lat="44.04674680692097" lon="12.186933413651868"><ele>74.0</ele><time>2026-04-26T08:55:53.866Z</time></trkpt><trkpt lat="44.04681674542833" lon="12.18682515472427"><ele>74.0</ele><time>2026-04-26T08:55:54.866Z</time></trkpt><trkpt lat="44.04690588566706" lon="12.186721561417801"><ele>74.0</ele><time>2026-04-26T08:55:55.866Z</time></trkpt><trkpt lat="44.0470030066157" lon="12.186623553350746"><ele>74.0</ele><time>2026-04-26T08:55:56.866Z</time></trkpt><trkpt lat="44.04710834854702" lon="12.186506919635214"><ele>74.25</ele><time>2026-04-26T08:55:57.866Z</time></trkpt><trkpt lat="44.04721507900866" lon="12.186396508211287"><ele>74.5</ele><time>2026-04-26T08:55:58.866Z</time></trkpt><trkpt lat="44.047319107512216" lon="12.186275196736812"><ele>74.75</ele><time>2026-04-26T08:55:59.866Z</time></trkpt><trkpt lat="44.04742187470438" lon="12.186166901121688"><ele>75.0</ele><time>2026-04-26T08:56:00.866Z</time></trkpt><trkpt lat="44.047515236430954" lon="12.186081790073288"><ele>75.0</ele><time>2026-04-26T08:56:01.866Z</time></trkpt><trkpt lat="44.04760165012654" lon="12.185971703951232"><ele>75.0</ele><time>2026-04-26T08:56:02.866Z</time></trkpt><trkpt lat="44.04768066147563" lon="12.18585133219367"><ele>75.0</ele><time>2026-04-26T08:56:03.866Z</time></trkpt><trkpt lat="44.04774301294121" lon="12.18571915753748"><ele>75.0</ele><time>2026-04-26T08:56:04.866Z</time></trkpt><trkpt lat="44.0478042269344" lon="12.185574514703955"><ele>76.4</ele><time>2026-04-26T08:56:05.866Z</time></trkpt><trkpt lat="44.04785694995815" lon="12.185420784813552"><ele>77.8</ele><time>2026-04-26T08:56:06.866Z</time></trkpt><trkpt lat="44.04790385337357" lon="12.18528463848536"><ele>79.19999999999999</ele><time>2026-04-26T08:56:07.866Z</time></trkpt><trkpt lat="44.047943247907455" lon="12.185176789429205"><ele>80.6</ele><time>2026-04-26T08:56:08.866Z</time></trkpt><trkpt lat="44.04795727123027" lon="12.185059618127369"><ele>82.0</ele><time>2026-04-26T08:56:09.866Z</time></trkpt><trkpt lat="44.04793130079763" lon="12.184945795642427"><ele>82.0</ele><time>2026-04-26T08:56:10.866Z</time></trkpt><trkpt lat="44.04785432530361" lon="12.184849383977525"><ele>82.0</ele><time>2026-04-26T08:56:11.866Z</time></trkpt><trkpt lat="44.047764710835175" lon="12.18475572734161"><ele>82.0</ele><time>2026-04-26T08:56:12.866Z</time></trkpt><trkpt lat="44.04766953823402" lon="12.184644302985474"><ele>82.0</ele><time>2026-04-26T08:56:13.866Z</time></trkpt><trkpt lat="44.04761676855398" lon="12.184490837157538"><ele>81.75</ele><time>2026-04-26T08:56:14.866Z</time></trkpt><trkpt lat="44.04759863680141" lon="12.184325989354429"><ele>81.5</ele><time>2026-04-26T08:56:15.866Z</time></trkpt><trkpt lat="44.0476201706356" lon="12.184163440556091"><ele>81.25</ele><time>2026-04-26T08:56:16.866Z</time></trkpt><trkpt lat="44.04768262389892" lon="12.184016700344756"><ele>81.0</ele><time>2026-04-26T08:56:17.866Z</time></trkpt><trkpt lat="44.04778771467977" lon="12.183924010673126"><ele>81.0</ele><time>2026-04-26T08:56:18.866Z</time></trkpt><trkpt lat="44.047906479398755" lon="12.183825198216878"><ele>81.0</ele><time>2026-04-26T08:56:19.866Z</time></trkpt><trkpt lat="44.04806200184433" lon="12.183776387462435"><ele>81.0</ele><time>2026-04-26T08:56:20.866Z</time></trkpt><trkpt lat="44.048225409069225" lon="12.18369324012339"><ele>79.66666666666667</ele><time>2026-04-26T08:56:21.866Z</time></trkpt><trkpt lat="44.048402543708484" lon="12.183581630729503"><ele>78.33333333333334</ele><time>2026-04-26T08:56:22.866Z</time></trkpt><trkpt lat="44.04858982601474" lon="12.183457412189464"><ele>77.0</ele><time>2026-04-26T08:56:23.866Z</time></trkpt><trkpt lat="44.048793935499134" lon="12.183319949213136"><ele>78.0</ele><time>2026-04-26T08:56:24.866Z</time></trkpt><trkpt lat="44.049033120759276" lon="12.183179685577727"><ele>79.0</ele><time>2026-04-26T08:56:25.866Z</time></trkpt><trkpt lat="44.04928353751544" lon="12.18304975231895"><ele>79.0</ele><time>2026-04-26T08:56:26.866Z</time></trkpt><trkpt lat="44.049545103542194" lon="12.18293980096224"><ele>79.0</ele><time>2026-04-26T08:56:27.866Z</time></trkpt><trkpt lat="44.04981577888242" lon="12.182837064180298"><ele>77.5</ele><time>2026-04-26T08:56:28.866Z</time></trkpt><trkpt lat="44.050086755164145" lon="12.182741108372001"><ele>76.0</ele><time>2026-04-26T08:56:29.866Z</time></trkpt><trkpt lat="44.05035575123844" lon="12.182654654128733"><ele>76.0</ele><time>2026-04-26T08:56:30.866Z</time></trkpt><trkpt lat="44.050623118511446" lon="12.182580150918803"><ele>76.0</ele><time>2026-04-26T08:56:31.866Z</time></trkpt><trkpt lat="44.050886945460825" lon="12.182516281028532"><ele>73.5</ele><time>2026-04-26T08:56:32.866Z</time></trkpt><trkpt lat="44.051146470425884" lon="12.182445685629917"><ele>71.0</ele><time>2026-04-26T08:56:33.866Z</time></trkpt><trkpt lat="44.05141143791758" lon="12.182383792617658"><ele>69.0</ele><time>2026-04-26T08:56:34.866Z</time></trkpt><trkpt lat="44.05167248732939" lon="12.182314488356228"><ele>67.0</ele><time>2026-04-26T08:56:35.866Z</time></trkpt><trkpt lat="44.05192888503992" lon="12.182250172234493"><ele>67.0</ele><time>2026-04-26T08:56:36.866Z</time></trkpt><trkpt lat="44.0521820037377" lon="12.182194942513519"><ele>67.0</ele><time>2026-04-26T08:56:37.866Z</time></trkpt><trkpt lat="44.05243597883111" lon="12.182162410763715"><ele>66.5</ele><time>2026-04-26T08:56:38.866Z</time></trkpt><trkpt lat="44.05269622662584" lon="12.182146110353123"><ele>66.0</ele><time>2026-04-26T08:56:39.866Z</time></trkpt><trkpt lat="44.05295576207898" lon="12.18214721730217"><ele>66.0</ele><time>2026-04-26T08:56:40.866Z</time></trkpt><trkpt lat="44.0532208404156" lon="12.182150197909554"><ele>66.0</ele><time>2026-04-26T08:56:41.866Z</time></trkpt><trkpt lat="44.053488755792486" lon="12.182163751309119"><ele>66.5</ele><time>2026-04-26T08:56:42.866Z</time></trkpt><trkpt lat="44.05376054282072" lon="12.182169887405493"><ele>67.0</ele><time>2026-04-26T08:56:43.866Z</time></trkpt><trkpt lat="44.05402544646315" lon="12.182172435409678"><ele>67.0</ele><time>2026-04-26T08:56:44.866Z</time></trkpt><trkpt lat="44.05428674897827" lon="12.1821689926555"><ele>67.0</ele><time>2026-04-26T08:56:45.866Z</time></trkpt><trkpt lat="44.054546930642886" lon="12.182170442045031"><ele>67.0</ele><time>2026-04-26T08:56:46.866Z</time></trkpt><trkpt lat="44.054803465523605" lon="12.182179450494269"><ele>67.0</ele><time>2026-04-26T08:56:47.866Z</time></trkpt><trkpt lat="44.05506581255702" lon="12.18218577872061"><ele>69.0</ele><time>2026-04-26T08:56:48.866Z</time></trkpt><trkpt lat="44.055324010745174" lon="12.18218886322659"><ele>71.0</ele><time>2026-04-26T08:56:49.866Z</time></trkpt><trkpt lat="44.05557776534551" lon="12.182196018753125"><ele>75.5</ele><time>2026-04-26T08:56:50.866Z</time></trkpt><trkpt lat="44.05583387182278" lon="12.18220275501362"><ele>80.0</ele><time>2026-04-26T08:56:51.866Z</time></trkpt><trkpt lat="44.05609267455771" lon="12.18220668873168"><ele>80.0</ele><time>2026-04-26T08:56:52.866Z</time></trkpt><trkpt lat="44.05634968480112" lon="12.1822154297538"><ele>80.0</ele><time>2026-04-26T08:56:53.866Z</time></trkpt><trkpt lat="44.05660926057774" lon="12.182219948431314"><ele>83.5</ele><time>2026-04-26T08:56:54.866Z</time></trkpt><trkpt lat="44.05687317344388" lon="12.182227170835057"><ele>87.0</ele><time>2026-04-26T08:56:55.866Z</time></trkpt><trkpt lat="44.05713601896392" lon="12.182238365843993"><ele>87.0</ele><time>2026-04-26T08:56:56.866Z</time></trkpt><trkpt lat="44.05740016179944" lon="12.182246438640643"><ele>87.0</ele><time>2026-04-26T08:56:57.866Z</time></trkpt><trkpt lat="44.05766166279619" lon="12.182248968967105"><ele>88.0</ele><time>2026-04-26T08:56:58.866Z</time></trkpt><trkpt lat="44.05792349306859" lon="12.182247646042697"><ele>89.0</ele><time>2026-04-26T08:56:59.866Z</time></trkpt><trkpt lat="44.05818763352123" lon="12.182250368334852"><ele>89.0</ele><time>2026-04-26T08:57:00.866Z</time></trkpt><trkpt lat="44.0584498301579" lon="12.182255860823204"><ele>89.0</ele><time>2026-04-26T08:57:01.866Z</time></trkpt><trkpt lat="44.058715030910264" lon="12.182262229143205"><ele>89.0</ele><time>2026-04-26T08:57:02.866Z</time></trkpt><trkpt lat="44.05898024991903" lon="12.182262746408137"><ele>89.0</ele><time>2026-04-26T08:57:03.866Z</time></trkpt><trkpt lat="44.05925544827257" lon="12.18225856651121"><ele>89.0</ele><time>2026-04-26T08:57:04.866Z</time></trkpt><trkpt lat="44.05952421682778" lon="12.182249791238903"><ele>89.0</ele><time>2026-04-26T08:57:05.866Z</time></trkpt><trkpt lat="44.05978905771427" lon="12.182248225555465"><ele>89.5</ele><time>2026-04-26T08:57:06.866Z</time></trkpt><trkpt lat="44.0600484496751" lon="12.182255479821356"><ele>90.0</ele><time>2026-04-26T08:57:07.866Z</time></trkpt><trkpt lat="44.06029934693342" lon="12.182264756741567"><ele>90.0</ele><time>2026-04-26T08:57:08.866Z</time></trkpt><trkpt lat="44.06054918642679" lon="12.182276714328173"><ele>90.0</ele><time>2026-04-26T08:57:09.865Z</time></trkpt><trkpt lat="44.060801584683965" lon="12.182298712092905"><ele>90.0</ele><time>2026-04-26T08:57:10.865Z</time></trkpt><trkpt lat="44.06105359348415" lon="12.18233991113636"><ele>90.0</ele><time>2026-04-26T08:57:11.865Z</time></trkpt><trkpt lat="44.06130385913204" lon="12.182404414579644"><ele>88.0</ele><time>2026-04-26T08:57:12.865Z</time></trkpt><trkpt lat="44.061557603968424" lon="12.182486101070657"><ele>86.0</ele><time>2026-04-26T08:57:13.865Z</time></trkpt><trkpt lat="44.06181092434023" lon="12.18259004039714"><ele>86.0</ele><time>2026-04-26T08:57:14.865Z</time></trkpt><trkpt lat="44.06205979861079" lon="12.182724293521828"><ele>86.0</ele><time>2026-04-26T08:57:15.865Z</time></trkpt><trkpt lat="44.062306882053214" lon="12.182859821261722"><ele>87.0</ele><time>2026-04-26T08:57:16.865Z</time></trkpt><trkpt lat="44.062557377984724" lon="12.183001676827637"><ele>88.0</ele><time>2026-04-26T08:57:17.865Z</time></trkpt><trkpt lat="44.06281175842756" lon="12.183152268200466"><ele>87.5</ele><time>2026-04-26T08:57:18.865Z</time></trkpt><trkpt lat="44.063068356177716" lon="12.183296392077041"><ele>87.0</ele><time>2026-04-26T08:57:19.865Z</time></trkpt><trkpt lat="44.06331983904253" lon="12.183437999842116"><ele>87.0</ele><time>2026-04-26T08:57:20.865Z</time></trkpt><trkpt lat="44.06357516532348" lon="12.183577698284266"><ele>87.0</ele><time>2026-04-26T08:57:21.865Z</time></trkpt><trkpt lat="44.063829100761644" lon="12.183714768303192"><ele>87.0</ele><time>2026-04-26T08:57:22.865Z</time></trkpt><trkpt lat="44.06408137073343" lon="12.183850997982537"><ele>87.0</ele><time>2026-04-26T08:57:23.865Z</time></trkpt><trkpt lat="44.06433135604396" lon="12.183985995922296"><ele>86.0</ele><time>2026-04-26T08:57:24.865Z</time></trkpt><trkpt lat="44.06458301659629" lon="12.184117925685893"><ele>85.0</ele><time>2026-04-26T08:57:25.865Z</time></trkpt><trkpt lat="44.06483762951195" lon="12.184242189071401"><ele>83.5</ele><time>2026-04-26T08:57:26.865Z</time></trkpt><trkpt lat="44.06509531358877" lon="12.18434602647445"><ele>82.0</ele><time>2026-04-26T08:57:27.865Z</time></trkpt><trkpt lat="44.0653538571004" lon="12.184439244060828"><ele>82.0</ele><time>2026-04-26T08:57:28.865Z</time></trkpt><trkpt lat="44.06561679679044" lon="12.184527548957009"><ele>82.0</ele><time>2026-04-26T08:57:29.865Z</time></trkpt><trkpt lat="44.065883826844875" lon="12.18461991211849"><ele>80.0</ele><time>2026-04-26T08:57:30.865Z</time></trkpt><trkpt lat="44.066142965536045" lon="12.184717891987587"><ele>78.0</ele><time>2026-04-26T08:57:31.865Z</time></trkpt><trkpt lat="44.06640413455977" lon="12.184816109064583"><ele>80.5</ele><time>2026-04-26T08:57:32.865Z</time></trkpt><trkpt lat="44.06666700600051" lon="12.184912414916118"><ele>83.0</ele><time>2026-04-26T08:57:33.865Z</time></trkpt><trkpt lat="44.066926131851176" lon="12.185008577426812"><ele>83.0</ele><time>2026-04-26T08:57:34.865Z</time></trkpt><trkpt lat="44.067182749097654" lon="12.185110440920669"><ele>83.0</ele><time>2026-04-26T08:57:35.865Z</time></trkpt><trkpt lat="44.067436568205444" lon="12.185222030793657"><ele>84.5</ele><time>2026-04-26T08:57:36.865Z</time></trkpt><trkpt lat="44.06769105101238" lon="12.185346420849855"><ele>86.0</ele><time>2026-04-26T08:57:37.865Z</time></trkpt><trkpt lat="44.067942676360005" lon="12.185482839684136"><ele>86.0</ele><time>2026-04-26T08:57:38.865Z</time></trkpt><trkpt lat="44.068194351583266" lon="12.185619217840424"><ele>86.0</ele><time>2026-04-26T08:57:39.865Z</time></trkpt><trkpt lat="44.0684414520519" lon="12.185765804944612"><ele>85.5</ele><time>2026-04-26T08:57:40.865Z</time></trkpt><trkpt lat="44.06868876892655" lon="12.185912663508864"><ele>85.0</ele><time>2026-04-26T08:57:41.865Z</time></trkpt><trkpt lat="44.06893183175724" lon="12.186058128780239"><ele>83.5</ele><time>2026-04-26T08:57:42.865Z</time></trkpt><trkpt lat="44.06916715494496" lon="12.186196795566227"><ele>82.0</ele><time>2026-04-26T08:57:43.865Z</time></trkpt><trkpt lat="44.06940232567754" lon="12.18633454784363"><ele>82.0</ele><time>2026-04-26T08:57:44.865Z</time></trkpt><trkpt lat="44.06963808188411" lon="12.18647081637551"><ele>82.0</ele><time>2026-04-26T08:57:45.865Z</time></trkpt><trkpt lat="44.069878186669975" lon="12.186606038506193"><ele>81.5</ele><time>2026-04-26T08:57:46.865Z</time></trkpt><trkpt lat="44.07011974255189" lon="12.186742775293007"><ele>81.0</ele><time>2026-04-26T08:57:47.865Z</time></trkpt><trkpt lat="44.07036846409733" lon="12.186880116752075"><ele>81.0</ele><time>2026-04-26T08:57:48.865Z</time></trkpt><trkpt lat="44.07062038485458" lon="12.187018984734646"><ele>81.0</ele><time>2026-04-26T08:57:49.865Z</time></trkpt><trkpt lat="44.0708730379834" lon="12.187160747747557"><ele>81.5</ele><time>2026-04-26T08:57:50.864Z</time></trkpt><trkpt lat="44.07112522196497" lon="12.187305749530507"><ele>82.0</ele><time>2026-04-26T08:57:51.864Z</time></trkpt><trkpt lat="44.07137446180957" lon="12.187455680534537"><ele>80.5</ele><time>2026-04-26T08:57:52.864Z</time></trkpt><trkpt lat="44.071627538649864" lon="12.187604606949817"><ele>79.0</ele><time>2026-04-26T08:57:53.864Z</time></trkpt><trkpt lat="44.0718787997582" lon="12.18775247960142"><ele>79.0</ele><time>2026-04-26T08:57:54.864Z</time></trkpt><trkpt lat="44.0721327207499" lon="12.18789684853512"><ele>79.0</ele><time>2026-04-26T08:57:55.864Z</time></trkpt><trkpt lat="44.07238570188452" lon="12.18804289063294"><ele>77.5</ele><time>2026-04-26T08:57:56.864Z</time></trkpt><trkpt lat="44.072641595032024" lon="12.188192515720438"><ele>76.0</ele><time>2026-04-26T08:57:57.864Z</time></trkpt><trkpt lat="44.07289436747456" lon="12.188357285844065"><ele>76.0</ele><time>2026-04-26T08:57:58.864Z</time></trkpt><trkpt lat="44.07314713148102" lon="12.188528815115852"><ele>76.0</ele><time>2026-04-26T08:57:59.864Z</time></trkpt><trkpt lat="44.073402750677424" lon="12.188686105977288"><ele>75.0</ele><time>2026-04-26T08:58:00.864Z</time></trkpt><trkpt lat="44.07366224486776" lon="12.1888339702662"><ele>74.0</ele><time>2026-04-26T08:58:01.864Z</time></trkpt><trkpt lat="44.07391910198487" lon="12.188979734740725"><ele>73.0</ele><time>2026-04-26T08:58:02.863Z</time></trkpt><trkpt lat="44.07417429260749" lon="12.18912958549791"><ele>72.0</ele><time>2026-04-26T08:58:03.863Z</time></trkpt><trkpt lat="44.074428020985536" lon="12.18928167744035"><ele>72.0</ele><time>2026-04-26T08:58:04.863Z</time></trkpt><trkpt lat="44.0746797718302" lon="12.189433913574293"><ele>72.0</ele><time>2026-04-26T08:58:05.863Z</time></trkpt><trkpt lat="44.07493333841626" lon="12.189581722593562"><ele>72.0</ele><time>2026-04-26T08:58:06.863Z</time></trkpt><trkpt lat="44.07518581914085" lon="12.189729116348573"><ele>72.0</ele><time>2026-04-26T08:58:07.863Z</time></trkpt><trkpt lat="44.07543544710317" lon="12.189878744661694"><ele>72.0</ele><time>2026-04-26T08:58:08.863Z</time></trkpt><trkpt lat="44.075685272020614" lon="12.190028881391457"><ele>72.0</ele><time>2026-04-26T08:58:09.863Z</time></trkpt><trkpt lat="44.07593312938346" lon="12.190178111603814"><ele>72.5</ele><time>2026-04-26T08:58:10.863Z</time></trkpt><trkpt lat="44.076181116739704" lon="12.190330499125238"><ele>73.0</ele><time>2026-04-26T08:58:11.863Z</time></trkpt><trkpt lat="44.07642598635893" lon="12.19048815605389"><ele>72.5</ele><time>2026-04-26T08:58:12.863Z</time></trkpt><trkpt lat="44.076673536855694" lon="12.190651874309701"><ele>72.0</ele><time>2026-04-26T08:58:13.863Z</time></trkpt><trkpt lat="44.076916505179085" lon="12.190811464594843"><ele>71.0</ele><time>2026-04-26T08:58:14.863Z</time></trkpt><trkpt lat="44.07716253005578" lon="12.190980261049836"><ele>70.0</ele><time>2026-04-26T08:58:15.863Z</time></trkpt><trkpt lat="44.07740515832308" lon="12.191146671524018"><ele>70.5</ele><time>2026-04-26T08:58:16.863Z</time></trkpt><trkpt lat="44.07764935983969" lon="12.19131369570711"><ele>71.0</ele><time>2026-04-26T08:58:17.863Z</time></trkpt><trkpt lat="44.07788930500577" lon="12.191478009271139"><ele>71.0</ele><time>2026-04-26T08:58:18.863Z</time></trkpt><trkpt lat="44.07813442593978" lon="12.191645586814863"><ele>71.0</ele><time>2026-04-26T08:58:19.863Z</time></trkpt><trkpt lat="44.078376191062155" lon="12.191805943775671"><ele>71.0</ele><time>2026-04-26T08:58:20.863Z</time></trkpt><trkpt lat="44.078618309747284" lon="12.191975224530777"><ele>71.0</ele><time>2026-04-26T08:58:21.863Z</time></trkpt><trkpt lat="44.07885707762101" lon="12.192139370846231"><ele>71.0</ele><time>2026-04-26T08:58:22.863Z</time></trkpt><trkpt lat="44.079096420982445" lon="12.192303478243762"><ele>71.0</ele><time>2026-04-26T08:58:23.863Z</time></trkpt><trkpt lat="44.07933790461745" lon="12.19246826747948"><ele>72.0</ele><time>2026-04-26T08:58:24.863Z</time></trkpt><trkpt lat="44.07957796571002" lon="12.192633291973959"><ele>73.0</ele><time>2026-04-26T08:58:25.863Z</time></trkpt><trkpt lat="44.079816583911175" lon="12.192800059792988"><ele>72.0</ele><time>2026-04-26T08:58:26.863Z</time></trkpt><trkpt lat="44.08005626945886" lon="12.192968834860606"><ele>71.0</ele><time>2026-04-26T08:58:27.863Z</time></trkpt><trkpt lat="44.080300029429125" lon="12.193131397361771"><ele>70.0</ele><time>2026-04-26T08:58:28.863Z</time></trkpt><trkpt lat="44.08054300895579" lon="12.193296265634288"><ele>69.0</ele><time>2026-04-26T08:58:29.863Z</time></trkpt><trkpt lat="44.080782873953325" lon="12.193459703588234"><ele>68.0</ele><time>2026-04-26T08:58:30.863Z</time></trkpt><trkpt lat="44.081020309002696" lon="12.193621336841755"><ele>67.0</ele><time>2026-04-26T08:58:31.863Z</time></trkpt><trkpt lat="44.08125996138911" lon="12.193787653109695"><ele>67.0</ele><time>2026-04-26T08:58:32.863Z</time></trkpt><trkpt lat="44.081497336848265" lon="12.193955050280794"><ele>67.0</ele><time>2026-04-26T08:58:33.863Z</time></trkpt><trkpt lat="44.08173573337695" lon="12.194120122789029"><ele>67.0</ele><time>2026-04-26T08:58:34.863Z</time></trkpt><trkpt lat="44.08197654142017" lon="12.194283378186912"><ele>67.0</ele><time>2026-04-26T08:58:35.863Z</time></trkpt><trkpt lat="44.082218342269094" lon="12.194447172393852"><ele>68.5</ele><time>2026-04-26T08:58:36.863Z</time></trkpt><trkpt lat="44.08245946904454" lon="12.194612581397882"><ele>70.0</ele><time>2026-04-26T08:58:37.863Z</time></trkpt><trkpt lat="44.0826986007978" lon="12.194778205841528"><ele>69.0</ele><time>2026-04-26T08:58:38.863Z</time></trkpt><trkpt lat="44.08293708002149" lon="12.194944571237112"><ele>68.0</ele><time>2026-04-26T08:58:39.863Z</time></trkpt><trkpt lat="44.08317480583522" lon="12.1951089438856"><ele>68.0</ele><time>2026-04-26T08:58:40.863Z</time></trkpt><trkpt lat="44.08341249345783" lon="12.195272449617468"><ele>68.0</ele><time>2026-04-26T08:58:41.863Z</time></trkpt><trkpt lat="44.08365276651488" lon="12.195437185773889"><ele>68.0</ele><time>2026-04-26T08:58:42.863Z</time></trkpt><trkpt lat="44.08388539002624" lon="12.195605844113397"><ele>68.0</ele><time>2026-04-26T08:58:43.863Z</time></trkpt><trkpt lat="44.08412668914363" lon="12.195764495607083"><ele>68.0</ele><time>2026-04-26T08:58:44.863Z</time></trkpt><trkpt lat="44.084365969004224" lon="12.195924418345717"><ele>68.0</ele><time>2026-04-26T08:58:45.863Z</time></trkpt><trkpt lat="44.08460546722932" lon="12.19608470276833"><ele>68.0</ele><time>2026-04-26T08:58:46.863Z</time></trkpt><trkpt lat="44.084840961280854" lon="12.19624931558337"><ele>68.0</ele><time>2026-04-26T08:58:47.863Z</time></trkpt><trkpt lat="44.08507905823833" lon="12.196414740062352"><ele>66.5</ele><time>2026-04-26T08:58:48.863Z</time></trkpt><trkpt lat="44.0853184601027" lon="12.196577779150967"><ele>65.0</ele><time>2026-04-26T08:58:49.863Z</time></trkpt><trkpt lat="44.085555542437795" lon="12.196741215044995"><ele>64.5</ele><time>2026-04-26T08:58:50.863Z</time></trkpt><trkpt lat="44.08578891082942" lon="12.196899212814023"><ele>64.0</ele><time>2026-04-26T08:58:51.863Z</time></trkpt><trkpt lat="44.086021719806176" lon="12.19705813447013"><ele>64.0</ele><time>2026-04-26T08:58:52.863Z</time></trkpt><trkpt lat="44.08625530858855" lon="12.197223805924608"><ele>64.0</ele><time>2026-04-26T08:58:53.863Z</time></trkpt><trkpt lat="44.086490867950374" lon="12.197384232577692"><ele>63.5</ele><time>2026-04-26T08:58:54.863Z</time></trkpt><trkpt lat="44.086728147057876" lon="12.197548191954636"><ele>63.0</ele><time>2026-04-26T08:58:55.863Z</time></trkpt><trkpt lat="44.08696308411921" lon="12.197708443158245"><ele>63.0</ele><time>2026-04-26T08:58:56.863Z</time></trkpt><trkpt lat="44.087193553519846" lon="12.197868885782155"><ele>63.0</ele><time>2026-04-26T08:58:57.863Z</time></trkpt><trkpt lat="44.08742579423415" lon="12.1980251345229"><ele>62.5</ele><time>2026-04-26T08:58:58.863Z</time></trkpt><trkpt lat="44.087658177134784" lon="12.198177682344129"><ele>62.0</ele><time>2026-04-26T08:58:59.863Z</time></trkpt><trkpt lat="44.08789933864657" lon="12.198316530567697"><ele>62.0</ele><time>2026-04-26T08:59:00.863Z</time></trkpt><trkpt lat="44.08814339904611" lon="12.198440015355178"><ele>62.0</ele><time>2026-04-26T08:59:01.863Z</time></trkpt><trkpt lat="44.08838766863644" lon="12.198553260798521"><ele>62.5</ele><time>2026-04-26T08:59:02.863Z</time></trkpt><trkpt lat="44.088638629920254" lon="12.198656382766389"><ele>63.0</ele><time>2026-04-26T08:59:03.863Z</time></trkpt><trkpt lat="44.08889224985022" lon="12.19875099050813"><ele>63.0</ele><time>2026-04-26T08:59:04.863Z</time></trkpt><trkpt lat="44.0891479209717" lon="12.198836337775909"><ele>63.0</ele><time>2026-04-26T08:59:05.863Z</time></trkpt><trkpt lat="44.08940725549363" lon="12.198904511365113"><ele>63.0</ele><time>2026-04-26T08:59:06.863Z</time></trkpt><trkpt lat="44.08966694375459" lon="12.198960461159485"><ele>63.0</ele><time>2026-04-26T08:59:07.863Z</time></trkpt><trkpt lat="44.08992582743703" lon="12.19899762675441"><ele>59.0</ele><time>2026-04-26T08:59:08.863Z</time></trkpt><trkpt lat="44.090186432269114" lon="12.199033377297674"><ele>55.0</ele><time>2026-04-26T08:59:09.863Z</time></trkpt><trkpt lat="44.090444060846956" lon="12.19905525960366"><ele>55.0</ele><time>2026-04-26T08:59:10.863Z</time></trkpt><trkpt lat="44.090702204427835" lon="12.199066995770789"><ele>55.0</ele><time>2026-04-26T08:59:11.863Z</time></trkpt><trkpt lat="44.090962305216436" lon="12.199065831385093"><ele>52.5</ele><time>2026-04-26T08:59:12.863Z</time></trkpt><trkpt lat="44.09122145328465" lon="12.19905535447439"><ele>50.0</ele><time>2026-04-26T08:59:13.863Z</time></trkpt><trkpt lat="44.09148461852566" lon="12.199034473118338"><ele>53.0</ele><time>2026-04-26T08:59:14.863Z</time></trkpt><trkpt lat="44.09174452244387" lon="12.199007283430696"><ele>56.0</ele><time>2026-04-26T08:59:15.863Z</time></trkpt><trkpt lat="44.092007770533066" lon="12.198982798182653"><ele>57.0</ele><time>2026-04-26T08:59:16.863Z</time></trkpt><trkpt lat="44.092269631402864" lon="12.198960939184332"><ele>58.0</ele><time>2026-04-26T08:59:17.863Z</time></trkpt><trkpt lat="44.09253277655753" lon="12.19893530562372"><ele>59.0</ele><time>2026-04-26T08:59:18.863Z</time></trkpt><trkpt lat="44.09279299048836" lon="12.19891057617568"><ele>60.0</ele><time>2026-04-26T08:59:19.863Z</time></trkpt><trkpt lat="44.09305649380342" lon="12.198885659729871"><ele>60.0</ele><time>2026-04-26T08:59:20.863Z</time></trkpt><trkpt lat="44.09331521312093" lon="12.1988599823932"><ele>60.0</ele><time>2026-04-26T08:59:21.863Z</time></trkpt><trkpt lat="44.09357222949652" lon="12.198828738765691"><ele>60.0</ele><time>2026-04-26T08:59:22.863Z</time></trkpt><trkpt lat="44.09382856757691" lon="12.198804260321563"><ele>60.0</ele><time>2026-04-26T08:59:23.863Z</time></trkpt><trkpt lat="44.094082087373074" lon="12.198781151788413"><ele>59.5</ele><time>2026-04-26T08:59:24.863Z</time></trkpt><trkpt lat="44.09433703542852" lon="12.198756492466638"><ele>59.0</ele><time>2026-04-26T08:59:25.863Z</time></trkpt><trkpt lat="44.09458809846188" lon="12.198733417028198"><ele>59.0</ele><time>2026-04-26T08:59:26.863Z</time></trkpt><trkpt lat="44.09483828294726" lon="12.198713053845966"><ele>59.0</ele><time>2026-04-26T08:59:27.863Z</time></trkpt><trkpt lat="44.095091185761106" lon="12.198688323747994"><ele>58.5</ele><time>2026-04-26T08:59:28.863Z</time></trkpt><trkpt lat="44.09534709071673" lon="12.198663662610464"><ele>58.0</ele><time>2026-04-26T08:59:29.863Z</time></trkpt><trkpt lat="44.09560184373452" lon="12.198636491582636"><ele>57.5</ele><time>2026-04-26T08:59:30.863Z</time></trkpt><trkpt lat="44.09585560145196" lon="12.198608819933634"><ele>57.0</ele><time>2026-04-26T08:59:31.863Z</time></trkpt><trkpt lat="44.09610848061811" lon="12.198589057729949"><ele>57.0</ele><time>2026-04-26T08:59:32.863Z</time></trkpt><trkpt lat="44.09636056551093" lon="12.198561850495016"><ele>57.0</ele><time>2026-04-26T08:59:33.863Z</time></trkpt><trkpt lat="44.096613542058996" lon="12.198539159266364"><ele>58.0</ele><time>2026-04-26T08:59:34.863Z</time></trkpt><trkpt lat="44.09686795395979" lon="12.198528746352311"><ele>59.0</ele><time>2026-04-26T08:59:35.863Z</time></trkpt><trkpt lat="44.097124367836386" lon="12.198526229585177"><ele>59.0</ele><time>2026-04-26T08:59:36.863Z</time></trkpt><trkpt lat="44.09738038112852" lon="12.19853036957798"><ele>59.0</ele><time>2026-04-26T08:59:37.863Z</time></trkpt><trkpt lat="44.09763911980185" lon="12.198553154721095"><ele>59.5</ele><time>2026-04-26T08:59:38.863Z</time></trkpt><trkpt lat="44.09789914859486" lon="12.19858339452342"><ele>60.0</ele><time>2026-04-26T08:59:39.863Z</time></trkpt><trkpt lat="44.09815950284416" lon="12.198610325797272"><ele>59.0</ele><time>2026-04-26T08:59:40.863Z</time></trkpt><trkpt lat="44.098418950453876" lon="12.198643407865186"><ele>58.0</ele><time>2026-04-26T08:59:41.863Z</time></trkpt><trkpt lat="44.09867974915532" lon="12.198673129783733"><ele>58.0</ele><time>2026-04-26T08:59:42.863Z</time></trkpt><trkpt lat="44.09894108388421" lon="12.198704158260037"><ele>58.0</ele><time>2026-04-26T08:59:43.863Z</time></trkpt><trkpt lat="44.09920375268784" lon="12.198736244810393"><ele>59.0</ele><time>2026-04-26T08:59:44.863Z</time></trkpt><trkpt lat="44.099464643549645" lon="12.198770864716671"><ele>60.0</ele><time>2026-04-26T08:59:45.863Z</time></trkpt><trkpt lat="44.099724948811705" lon="12.198803195872381"><ele>59.5</ele><time>2026-04-26T08:59:46.863Z</time></trkpt><trkpt lat="44.09998765185478" lon="12.198837454681202"><ele>59.0</ele><time>2026-04-26T08:59:47.863Z</time></trkpt><trkpt lat="44.100247118142285" lon="12.198876172295737"><ele>59.0</ele><time>2026-04-26T08:59:48.863Z</time></trkpt><trkpt lat="44.100505164526815" lon="12.198925454321623"><ele>59.0</ele><time>2026-04-26T08:59:49.863Z</time></trkpt><trkpt lat="44.10076079273756" lon="12.198982565265124"><ele>59.0</ele><time>2026-04-26T08:59:50.863Z</time></trkpt><trkpt lat="44.101015357831585" lon="12.199052861185638"><ele>59.0</ele><time>2026-04-26T08:59:51.863Z</time></trkpt><trkpt lat="44.10126972852878" lon="12.199124298878052"><ele>59.0</ele><time>2026-04-26T08:59:52.863Z</time></trkpt><trkpt lat="44.101523731172676" lon="12.199191878310602"><ele>59.0</ele><time>2026-04-26T08:59:53.863Z</time></trkpt><trkpt lat="44.101773775802684" lon="12.199261200444948"><ele>58.5</ele><time>2026-04-26T08:59:54.863Z</time></trkpt><trkpt lat="44.102023842973594" lon="12.199326140951854"><ele>58.0</ele><time>2026-04-26T08:59:55.863Z</time></trkpt><trkpt lat="44.10227490588078" lon="12.19939573478647"><ele>58.5</ele><time>2026-04-26T08:59:56.861Z</time></trkpt><trkpt lat="44.10252135756497" lon="12.19946530597785"><ele>59.0</ele><time>2026-04-26T08:59:57.862Z</time></trkpt><trkpt lat="44.10276752403249" lon="12.199534332958851"><ele>59.0</ele><time>2026-04-26T08:59:58.862Z</time></trkpt><trkpt lat="44.103010790650806" lon="12.199602404683977"><ele>59.0</ele><time>2026-04-26T08:59:59.862Z</time></trkpt><trkpt lat="44.103251604115236" lon="12.1996685228286"><ele>58.5</ele><time>2026-04-26T09:00:00.861Z</time></trkpt><trkpt lat="44.10349384144534" lon="12.199742348512725"><ele>58.0</ele><time>2026-04-26T09:00:01.861Z</time></trkpt><trkpt lat="44.10373537407104" lon="12.199830137508522"><ele>58.0</ele><time>2026-04-26T09:00:02.861Z</time></trkpt><trkpt lat="44.10397271892688" lon="12.199926671016724"><ele>58.0</ele><time>2026-04-26T09:00:03.861Z</time></trkpt><trkpt lat="44.10420712077968" lon="12.20003014717031"><ele>56.5</ele><time>2026-04-26T09:00:04.861Z</time></trkpt><trkpt lat="44.10444134681859" lon="12.200142898341827"><ele>55.0</ele><time>2026-04-26T09:00:05.861Z</time></trkpt><trkpt lat="44.104675154055336" lon="12.200261388724506"><ele>55.0</ele><time>2026-04-26T09:00:06.861Z</time></trkpt><trkpt lat="44.104900022944804" lon="12.200392964133801"><ele>55.0</ele><time>2026-04-26T09:00:07.861Z</time></trkpt><trkpt lat="44.105126874320575" lon="12.200534064384398"><ele>53.0</ele><time>2026-04-26T09:00:08.861Z</time></trkpt><trkpt lat="44.10535248883077" lon="12.200684860457358"><ele>51.0</ele><time>2026-04-26T09:00:09.861Z</time></trkpt><trkpt lat="44.105574019542864" lon="12.200843657189061"><ele>53.5</ele><time>2026-04-26T09:00:10.861Z</time></trkpt><trkpt lat="44.10579187045295" lon="12.20100136507621"><ele>56.0</ele><time>2026-04-26T09:00:11.861Z</time></trkpt><trkpt lat="44.10600688921935" lon="12.201157212204077"><ele>56.0</ele><time>2026-04-26T09:00:12.861Z</time></trkpt><trkpt lat="44.10622424568827" lon="12.20131804951079"><ele>56.0</ele><time>2026-04-26T09:00:13.861Z</time></trkpt><trkpt lat="44.10644228401095" lon="12.201471957631673"><ele>56.5</ele><time>2026-04-26T09:00:14.861Z</time></trkpt><trkpt lat="44.106661080999096" lon="12.201626054123015"><ele>57.0</ele><time>2026-04-26T09:00:15.861Z</time></trkpt><trkpt lat="44.10687814015647" lon="12.201784091182407"><ele>57.0</ele><time>2026-04-26T09:00:16.861Z</time></trkpt><trkpt lat="44.10709861416277" lon="12.201938823054073"><ele>57.0</ele><time>2026-04-26T09:00:17.861Z</time></trkpt><trkpt lat="44.107322435526456" lon="12.202095628942022"><ele>56.5</ele><time>2026-04-26T09:00:18.861Z</time></trkpt><trkpt lat="44.10754632411127" lon="12.202248537130167"><ele>56.0</ele><time>2026-04-26T09:00:19.861Z</time></trkpt><trkpt lat="44.10776726354808" lon="12.202398860056176"><ele>55.5</ele><time>2026-04-26T09:00:20.861Z</time></trkpt><trkpt lat="44.10799777238718" lon="12.202544417428202"><ele>55.0</ele><time>2026-04-26T09:00:21.861Z</time></trkpt><trkpt lat="44.10822733793644" lon="12.202685555841047"><ele>55.0</ele><time>2026-04-26T09:00:22.861Z</time></trkpt><trkpt lat="44.108457279978865" lon="12.20282325938863"><ele>55.0</ele><time>2026-04-26T09:00:23.861Z</time></trkpt><trkpt lat="44.108690088196184" lon="12.202962822265723"><ele>55.0</ele><time>2026-04-26T09:00:24.861Z</time></trkpt><trkpt lat="44.10892393592639" lon="12.20310091789967"><ele>55.0</ele><time>2026-04-26T09:00:25.861Z</time></trkpt><trkpt lat="44.10915586491352" lon="12.20324447100212"><ele>55.0</ele><time>2026-04-26T09:00:26.861Z</time></trkpt><trkpt lat="44.109388693798614" lon="12.203386115292213"><ele>55.0</ele><time>2026-04-26T09:00:27.861Z</time></trkpt><trkpt lat="44.1096224773657" lon="12.203530794300768"><ele>55.0</ele><time>2026-04-26T09:00:28.861Z</time></trkpt><trkpt lat="44.109853862961224" lon="12.20367328535207"><ele>55.0</ele><time>2026-04-26T09:00:29.861Z</time></trkpt><trkpt lat="44.11008936473574" lon="12.203817673938529"><ele>55.0</ele><time>2026-04-26T09:00:30.861Z</time></trkpt><trkpt lat="44.110319519896755" lon="12.203965273670722"><ele>55.0</ele><time>2026-04-26T09:00:31.861Z</time></trkpt><trkpt lat="44.11055373232284" lon="12.20410751822876"><ele>54.5</ele><time>2026-04-26T09:00:32.861Z</time></trkpt><trkpt lat="44.110791333891726" lon="12.204248139800356"><ele>54.0</ele><time>2026-04-26T09:00:33.861Z</time></trkpt><trkpt lat="44.11102767838236" lon="12.204390171022812"><ele>54.0</ele><time>2026-04-26T09:00:34.861Z</time></trkpt><trkpt lat="44.1112660185355" lon="12.204533742363541"><ele>54.0</ele><time>2026-04-26T09:00:35.861Z</time></trkpt><trkpt lat="44.111504558499334" lon="12.204681859696553"><ele>54.0</ele><time>2026-04-26T09:00:36.861Z</time></trkpt><trkpt lat="44.11174495441995" lon="12.204828724558539"><ele>54.0</ele><time>2026-04-26T09:00:37.861Z</time></trkpt><trkpt lat="44.11198685344888" lon="12.204976007827668"><ele>54.0</ele><time>2026-04-26T09:00:38.861Z</time></trkpt><trkpt lat="44.112230291014626" lon="12.20512328055949"><ele>54.0</ele><time>2026-04-26T09:00:39.86Z</time></trkpt><trkpt lat="44.112475724537006" lon="12.205270682368017"><ele>54.0</ele><time>2026-04-26T09:00:40.86Z</time></trkpt><trkpt lat="44.11271944488697" lon="12.205421725706096"><ele>54.0</ele><time>2026-04-26T09:00:41.86Z</time></trkpt><trkpt lat="44.11296247983209" lon="12.205574546253708"><ele>53.0</ele><time>2026-04-26T09:00:42.86Z</time></trkpt><trkpt lat="44.113209883234745" lon="12.205728559106806"><ele>52.0</ele><time>2026-04-26T09:00:43.86Z</time></trkpt><trkpt lat="44.11345446735189" lon="12.20587937648703"><ele>52.0</ele><time>2026-04-26T09:00:44.86Z</time></trkpt><trkpt lat="44.11369985393416" lon="12.206026696885354"><ele>52.0</ele><time>2026-04-26T09:00:45.86Z</time></trkpt><trkpt lat="44.11394720537384" lon="12.206177315518229"><ele>51.5</ele><time>2026-04-26T09:00:46.86Z</time></trkpt><trkpt lat="44.11419000595512" lon="12.20633230894388"><ele>51.0</ele><time>2026-04-26T09:00:47.86Z</time></trkpt><trkpt lat="44.11443203886387" lon="12.206495228959717"><ele>51.0</ele><time>2026-04-26T09:00:48.86Z</time></trkpt><trkpt lat="44.11467458409737" lon="12.206669514368766"><ele>51.0</ele><time>2026-04-26T09:00:49.86Z</time></trkpt><trkpt lat="44.114911685763694" lon="12.206849607790893"><ele>50.0</ele><time>2026-04-26T09:00:50.86Z</time></trkpt><trkpt lat="44.11515032246188" lon="12.207032800599652"><ele>49.0</ele><time>2026-04-26T09:00:51.86Z</time></trkpt><trkpt lat="44.11538217457415" lon="12.20721454682601"><ele>49.0</ele><time>2026-04-26T09:00:52.86Z</time></trkpt><trkpt lat="44.11561917853346" lon="12.207400543088045"><ele>49.0</ele><time>2026-04-26T09:00:53.86Z</time></trkpt><trkpt lat="44.11585087293578" lon="12.207583339067021"><ele>49.5</ele><time>2026-04-26T09:00:54.86Z</time></trkpt><trkpt lat="44.116083373128674" lon="12.207764960501612"><ele>50.0</ele><time>2026-04-26T09:00:55.86Z</time></trkpt><trkpt lat="44.11631750821887" lon="12.207943351338484"><ele>50.0</ele><time>2026-04-26T09:00:56.86Z</time></trkpt><trkpt lat="44.11655240516573" lon="12.208113483163677"><ele>50.0</ele><time>2026-04-26T09:00:57.86Z</time></trkpt><trkpt lat="44.11679047340699" lon="12.20827857902636"><ele>49.5</ele><time>2026-04-26T09:00:58.86Z</time></trkpt><trkpt lat="44.11703200147485" lon="12.208434110684294"><ele>49.0</ele><time>2026-04-26T09:00:59.86Z</time></trkpt><trkpt lat="44.117275674772664" lon="12.20858485705046"><ele>48.5</ele><time>2026-04-26T09:01:00.86Z</time></trkpt><trkpt lat="44.11752319191334" lon="12.208722563654193"><ele>48.0</ele><time>2026-04-26T09:01:01.86Z</time></trkpt><trkpt lat="44.117771174958726" lon="12.20884967083259"><ele>48.0</ele><time>2026-04-26T09:01:02.86Z</time></trkpt><trkpt lat="44.11802642124803" lon="12.208965529469545"><ele>48.0</ele><time>2026-04-26T09:01:03.86Z</time></trkpt><trkpt lat="44.11827872324672" lon="12.209065582198606"><ele>46.0</ele><time>2026-04-26T09:01:04.86Z</time></trkpt><trkpt lat="44.118532835290104" lon="12.209150223245697"><ele>44.0</ele><time>2026-04-26T09:01:05.86Z</time></trkpt><trkpt lat="44.118775758311486" lon="12.209214407550032"><ele>44.0</ele><time>2026-04-26T09:01:06.86Z</time></trkpt><trkpt lat="44.11901436057735" lon="12.209260980244336"><ele>44.0</ele><time>2026-04-26T09:01:07.86Z</time></trkpt><trkpt lat="44.11925051575389" lon="12.209292584179982"><ele>45.0</ele><time>2026-04-26T09:01:08.86Z</time></trkpt><trkpt lat="44.11948805430419" lon="12.20930516784853"><ele>46.0</ele><time>2026-04-26T09:01:09.86Z</time></trkpt><trkpt lat="44.119733553438735" lon="12.209301864452256"><ele>48.0</ele><time>2026-04-26T09:01:10.86Z</time></trkpt><trkpt lat="44.11998481513659" lon="12.209278037020592"><ele>50.0</ele><time>2026-04-26T09:01:11.86Z</time></trkpt><trkpt lat="44.12023482791474" lon="12.209243234661413"><ele>50.0</ele><time>2026-04-26T09:01:12.86Z</time></trkpt><trkpt lat="44.120494712075015" lon="12.209190975265978"><ele>50.0</ele><time>2026-04-26T09:01:13.86Z</time></trkpt><trkpt lat="44.120749675113984" lon="12.209131054772149"><ele>49.5</ele><time>2026-04-26T09:01:14.86Z</time></trkpt><trkpt lat="44.121000968910906" lon="12.20904979139413"><ele>49.0</ele><time>2026-04-26T09:01:15.86Z</time></trkpt><trkpt lat="44.12124836983806" lon="12.20895374182588"><ele>49.0</ele><time>2026-04-26T09:01:16.86Z</time></trkpt><trkpt lat="44.12149789509285" lon="12.208904239045715"><ele>49.0</ele><time>2026-04-26T09:01:17.86Z</time></trkpt><trkpt lat="44.12173110518003" lon="12.208720617543506"><ele>49.0</ele><time>2026-04-26T09:01:18.86Z</time></trkpt><trkpt lat="44.12197046425995" lon="12.208583984689286"><ele>49.0</ele><time>2026-04-26T09:01:19.86Z</time></trkpt><trkpt lat="44.12221016585613" lon="12.2084414083083"><ele>48.0</ele><time>2026-04-26T09:01:20.86Z</time></trkpt><trkpt lat="44.12244929104674" lon="12.208292699265881"><ele>47.0</ele><time>2026-04-26T09:01:21.86Z</time></trkpt><trkpt lat="44.122682352387365" lon="12.2081362933183"><ele>46.5</ele><time>2026-04-26T09:01:22.86Z</time></trkpt><trkpt lat="44.122913531304235" lon="12.207964103991548"><ele>46.0</ele><time>2026-04-26T09:01:23.86Z</time></trkpt><trkpt lat="44.12314015784875" lon="12.207774870987622"><ele>46.5</ele><time>2026-04-26T09:01:24.86Z</time></trkpt><trkpt lat="44.12336081616147" lon="12.20757375816405"><ele>47.0</ele><time>2026-04-26T09:01:25.86Z</time></trkpt><trkpt lat="44.12358369580934" lon="12.207367977535993"><ele>47.0</ele><time>2026-04-26T09:01:26.86Z</time></trkpt><trkpt lat="44.12380138447504" lon="12.20715944182854"><ele>47.0</ele><time>2026-04-26T09:01:27.86Z</time></trkpt><trkpt lat="44.12401780827715" lon="12.206961142225698"><ele>46.0</ele><time>2026-04-26T09:01:28.86Z</time></trkpt><trkpt lat="44.12423991731493" lon="12.2067522536438"><ele>45.0</ele><time>2026-04-26T09:01:29.86Z</time></trkpt><trkpt lat="44.1244573002508" lon="12.206552860839892"><ele>44.5</ele><time>2026-04-26T09:01:30.86Z</time></trkpt><trkpt lat="44.12467644783491" lon="12.206361741437567"><ele>44.0</ele><time>2026-04-26T09:01:31.86Z</time></trkpt><trkpt lat="44.12489698399526" lon="12.206174410720992"><ele>45.5</ele><time>2026-04-26T09:01:32.86Z</time></trkpt><trkpt lat="44.12512410363009" lon="12.205992210948207"><ele>47.0</ele><time>2026-04-26T09:01:33.86Z</time></trkpt><trkpt lat="44.12535137844867" lon="12.20581602419718"><ele>47.0</ele><time>2026-04-26T09:01:34.86Z</time></trkpt><trkpt lat="44.125581452965406" lon="12.20563879136931"><ele>47.0</ele><time>2026-04-26T09:01:35.86Z</time></trkpt><trkpt lat="44.12581263863341" lon="12.205466844727153"><ele>47.0</ele><time>2026-04-26T09:01:36.86Z</time></trkpt><trkpt lat="44.12604582092574" lon="12.205294401446004"><ele>47.0</ele><time>2026-04-26T09:01:37.86Z</time></trkpt><trkpt lat="44.1262801831072" lon="12.20512705535842"><ele>47.0</ele><time>2026-04-26T09:01:38.86Z</time></trkpt><trkpt lat="44.12651461473347" lon="12.204962008019669"><ele>47.0</ele><time>2026-04-26T09:01:39.86Z</time></trkpt><trkpt lat="44.126753286568196" lon="12.204804250961429"><ele>47.0</ele><time>2026-04-26T09:01:40.86Z</time></trkpt><trkpt lat="44.1269947087082" lon="12.204649696289701"><ele>47.0</ele><time>2026-04-26T09:01:41.86Z</time></trkpt><trkpt lat="44.127237909714445" lon="12.204496889366089"><ele>47.0</ele><time>2026-04-26T09:01:42.86Z</time></trkpt><trkpt lat="44.1274835572458" lon="12.204345379670189"><ele>47.0</ele><time>2026-04-26T09:01:43.86Z</time></trkpt><trkpt lat="44.12773217573437" lon="12.204196386550036"><ele>47.0</ele><time>2026-04-26T09:01:44.86Z</time></trkpt><trkpt lat="44.12798238695066" lon="12.204050769832412"><ele>47.0</ele><time>2026-04-26T09:01:45.86Z</time></trkpt><trkpt lat="44.128236032758245" lon="12.203912471330598"><ele>46.5</ele><time>2026-04-26T09:01:46.86Z</time></trkpt><trkpt lat="44.1284893341635" lon="12.20377857700784"><ele>46.0</ele><time>2026-04-26T09:01:47.86Z</time></trkpt><trkpt lat="44.12874478632488" lon="12.203652011202406"><ele>46.0</ele><time>2026-04-26T09:01:48.86Z</time></trkpt><trkpt lat="44.129000468040005" lon="12.203525445730085"><ele>46.0</ele><time>2026-04-26T09:01:49.86Z</time></trkpt><trkpt lat="44.129257877496315" lon="12.203402378096238"><ele>46.5</ele><time>2026-04-26T09:01:50.86Z</time></trkpt><trkpt lat="44.12951745727535" lon="12.203284623853005"><ele>47.0</ele><time>2026-04-26T09:01:51.86Z</time></trkpt><trkpt lat="44.12978040632114" lon="12.203172818914394"><ele>46.5</ele><time>2026-04-26T09:01:52.86Z</time></trkpt><trkpt lat="44.1300438255643" lon="12.203067828554051"><ele>46.0</ele><time>2026-04-26T09:01:53.86Z</time></trkpt><trkpt lat="44.130308277532706" lon="12.202968476826204"><ele>46.0</ele><time>2026-04-26T09:01:54.86Z</time></trkpt><trkpt lat="44.13057867898108" lon="12.202871910313233"><ele>46.0</ele><time>2026-04-26T09:01:55.86Z</time></trkpt><trkpt lat="44.13084934700037" lon="12.202778368206484"><ele>45.5</ele><time>2026-04-26T09:01:56.86Z</time></trkpt><trkpt lat="44.13111838528344" lon="12.202688133672039"><ele>45.0</ele><time>2026-04-26T09:01:57.86Z</time></trkpt><trkpt lat="44.13138859241415" lon="12.202603277124613"><ele>46.0</ele><time>2026-04-26T09:01:58.86Z</time></trkpt><trkpt lat="44.13165851833517" lon="12.202526438020652"><ele>47.0</ele><time>2026-04-26T09:01:59.86Z</time></trkpt><trkpt lat="44.13192501507522" lon="12.202447731259122"><ele>47.0</ele><time>2026-04-26T09:02:00.86Z</time></trkpt><trkpt lat="44.13219195264193" lon="12.20237932462525"><ele>47.0</ele><time>2026-04-26T09:02:01.86Z</time></trkpt><trkpt lat="44.132460678193965" lon="12.202316129543174"><ele>45.5</ele><time>2026-04-26T09:02:02.859Z</time></trkpt><trkpt lat="44.132730392845396" lon="12.20225875375222"><ele>44.0</ele><time>2026-04-26T09:02:03.859Z</time></trkpt><trkpt lat="44.133000145289195" lon="12.202202565867077"><ele>43.5</ele><time>2026-04-26T09:02:04.859Z</time></trkpt><trkpt lat="44.13326884453399" lon="12.202151210743507"><ele>43.0</ele><time>2026-04-26T09:02:05.859Z</time></trkpt><trkpt lat="44.1335378299833" lon="12.202106608251944"><ele>43.0</ele><time>2026-04-26T09:02:06.859Z</time></trkpt><trkpt lat="44.13380509915676" lon="12.202067383602257"><ele>43.0</ele><time>2026-04-26T09:02:07.859Z</time></trkpt><trkpt lat="44.13407149575548" lon="12.202032226537227"><ele>43.0</ele><time>2026-04-26T09:02:08.858Z</time></trkpt><trkpt lat="44.134343889884796" lon="12.202004864411531"><ele>43.0</ele><time>2026-04-26T09:02:09.859Z</time></trkpt><trkpt lat="44.13461105593135" lon="12.201973343854897"><ele>43.0</ele><time>2026-04-26T09:02:10.859Z</time></trkpt><trkpt lat="44.13487940098556" lon="12.201942137727888"><ele>43.0</ele><time>2026-04-26T09:02:11.858Z</time></trkpt><trkpt lat="44.13514898169605" lon="12.201912212493017"><ele>44.0</ele><time>2026-04-26T09:02:12.859Z</time></trkpt><trkpt lat="44.135417665729385" lon="12.201887615243217"><ele>45.0</ele><time>2026-04-26T09:02:13.859Z</time></trkpt><trkpt lat="44.135688242005216" lon="12.201866464011701"><ele>44.0</ele><time>2026-04-26T09:02:14.859Z</time></trkpt><trkpt lat="44.1359601773226" lon="12.201844528524923"><ele>43.0</ele><time>2026-04-26T09:02:15.858Z</time></trkpt><trkpt lat="44.13623025535935" lon="12.201823139358995"><ele>43.0</ele><time>2026-04-26T09:02:16.858Z</time></trkpt><trkpt lat="44.13649860703394" lon="12.201803584465114"><ele>43.0</ele><time>2026-04-26T09:02:17.858Z</time></trkpt><trkpt lat="44.13676983501831" lon="12.201784418357386"><ele>43.0</ele><time>2026-04-26T09:02:18.858Z</time></trkpt><trkpt lat="44.13704477886337" lon="12.201759325737765"><ele>43.0</ele><time>2026-04-26T09:02:19.858Z</time></trkpt><trkpt lat="44.13731423178565" lon="12.201745309691008"><ele>43.0</ele><time>2026-04-26T09:02:20.858Z</time></trkpt><trkpt lat="44.13758526742248" lon="12.201729825692517"><ele>43.0</ele><time>2026-04-26T09:02:21.858Z</time></trkpt><trkpt lat="44.137855814254934" lon="12.20171614889972"><ele>43.0</ele><time>2026-04-26T09:02:22.858Z</time></trkpt><trkpt lat="44.13812562348912" lon="12.201692718499656"><ele>43.0</ele><time>2026-04-26T09:02:23.858Z</time></trkpt><trkpt lat="44.138395832494865" lon="12.20166903162684"><ele>42.0</ele><time>2026-04-26T09:02:24.858Z</time></trkpt><trkpt lat="44.138662981201875" lon="12.201652873438148"><ele>41.0</ele><time>2026-04-26T09:02:25.858Z</time></trkpt><trkpt lat="44.138928214286715" lon="12.201639884422283"><ele>41.5</ele><time>2026-04-26T09:02:26.858Z</time></trkpt><trkpt lat="44.13919730460312" lon="12.201632554305085"><ele>42.0</ele><time>2026-04-26T09:02:27.858Z</time></trkpt><trkpt lat="44.13946264998585" lon="12.201631381822784"><ele>42.0</ele><time>2026-04-26T09:02:28.858Z</time></trkpt><trkpt lat="44.139728948276044" lon="12.201632605837563"><ele>42.0</ele><time>2026-04-26T09:02:29.858Z</time></trkpt><trkpt lat="44.139992610635744" lon="12.201639465099213"><ele>41.0</ele><time>2026-04-26T09:02:30.858Z</time></trkpt><trkpt lat="44.14025673149629" lon="12.201656905531607"><ele>40.0</ele><time>2026-04-26T09:02:31.858Z</time></trkpt><trkpt lat="44.14052007106959" lon="12.201686587317191"><ele>40.0</ele><time>2026-04-26T09:02:32.858Z</time></trkpt><trkpt lat="44.14078797289612" lon="12.201716120341464"><ele>40.0</ele><time>2026-04-26T09:02:33.858Z</time></trkpt><trkpt lat="44.14105650608677" lon="12.201745442958941"><ele>40.0</ele><time>2026-04-26T09:02:34.858Z</time></trkpt><trkpt lat="44.14132799585404" lon="12.201772682159486"><ele>40.0</ele><time>2026-04-26T09:02:35.858Z</time></trkpt><trkpt lat="44.14159802650697" lon="12.201801958827277"><ele>40.0</ele><time>2026-04-26T09:02:36.858Z</time></trkpt><trkpt lat="44.14186775757674" lon="12.20183581162052"><ele>40.0</ele><time>2026-04-26T09:02:37.858Z</time></trkpt><trkpt lat="44.142136056170116" lon="12.201870634897105"><ele>40.0</ele><time>2026-04-26T09:02:38.858Z</time></trkpt><trkpt lat="44.14240481140175" lon="12.201900948978922"><ele>40.0</ele><time>2026-04-26T09:02:39.858Z</time></trkpt><trkpt lat="44.142671741635425" lon="12.201932999482501"><ele>40.0</ele><time>2026-04-26T09:02:40.858Z</time></trkpt><trkpt lat="44.142936634071816" lon="12.201965390311624"><ele>40.0</ele><time>2026-04-26T09:02:41.858Z</time></trkpt><trkpt lat="44.143202302809215" lon="12.201995939729612"><ele>40.0</ele><time>2026-04-26T09:02:42.858Z</time></trkpt><trkpt lat="44.14346779163863" lon="12.2020247135268"><ele>40.0</ele><time>2026-04-26T09:02:43.858Z</time></trkpt><trkpt lat="44.143732042966086" lon="12.202055529194734"><ele>40.0</ele><time>2026-04-26T09:02:44.858Z</time></trkpt><trkpt lat="44.14399712799762" lon="12.202090647624187"><ele>40.0</ele><time>2026-04-26T09:02:45.858Z</time></trkpt><trkpt lat="44.14426150573884" lon="12.20212339237855"><ele>40.0</ele><time>2026-04-26T09:02:46.858Z</time></trkpt><trkpt lat="44.144525849102315" lon="12.202154416168867"><ele>40.0</ele><time>2026-04-26T09:02:47.858Z</time></trkpt><trkpt lat="44.144789890024875" lon="12.20218486050324"><ele>39.5</ele><time>2026-04-26T09:02:48.858Z</time></trkpt><trkpt lat="44.145053792256384" lon="12.202216439690918"><ele>39.0</ele><time>2026-04-26T09:02:49.858Z</time></trkpt><trkpt lat="44.145314440323865" lon="12.202245169774294"><ele>39.0</ele><time>2026-04-26T09:02:50.858Z</time></trkpt><trkpt lat="44.145575730899566" lon="12.202273741347136"><ele>39.0</ele><time>2026-04-26T09:02:51.858Z</time></trkpt><trkpt lat="44.14583942241533" lon="12.20230714317577"><ele>39.0</ele><time>2026-04-26T09:02:52.858Z</time></trkpt><trkpt lat="44.14610416474343" lon="12.202342491429114"><ele>39.0</ele><time>2026-04-26T09:02:53.858Z</time></trkpt><trkpt lat="44.14636897736405" lon="12.202377874834216"><ele>38.5</ele><time>2026-04-26T09:02:54.858Z</time></trkpt><trkpt lat="44.1466351185746" lon="12.202407504804132"><ele>38.0</ele><time>2026-04-26T09:02:55.858Z</time></trkpt><trkpt lat="44.14690034167952" lon="12.202438530798215"><ele>38.0</ele><time>2026-04-26T09:02:56.858Z</time></trkpt><trkpt lat="44.147167748205696" lon="12.202465299208688"><ele>38.0</ele><time>2026-04-26T09:02:57.858Z</time></trkpt><trkpt lat="44.147436054631115" lon="12.202495117678566"><ele>38.0</ele><time>2026-04-26T09:02:58.858Z</time></trkpt><trkpt lat="44.14770543301817" lon="12.202524874813584"><ele>38.0</ele><time>2026-04-26T09:02:59.858Z</time></trkpt><trkpt lat="44.147974717724345" lon="12.202560080859877"><ele>38.0</ele><time>2026-04-26T09:03:00.858Z</time></trkpt><trkpt lat="44.14824169680498" lon="12.20259767794609"><ele>38.0</ele><time>2026-04-26T09:03:01.858Z</time></trkpt><trkpt lat="44.14850983665625" lon="12.202630929543478"><ele>38.0</ele><time>2026-04-26T09:03:02.858Z</time></trkpt><trkpt lat="44.14877054794864" lon="12.202667452054637"><ele>38.0</ele><time>2026-04-26T09:03:03.858Z</time></trkpt><trkpt lat="44.14903601584273" lon="12.202700247424527"><ele>36.5</ele><time>2026-04-26T09:03:04.858Z</time></trkpt><trkpt lat="44.14930078634823" lon="12.202730882984559"><ele>35.0</ele><time>2026-04-26T09:03:05.858Z</time></trkpt><trkpt lat="44.14956658812135" lon="12.202765890747585"><ele>35.0</ele><time>2026-04-26T09:03:06.858Z</time></trkpt><trkpt lat="44.14982980226973" lon="12.202805038480543"><ele>35.0</ele><time>2026-04-26T09:03:07.858Z</time></trkpt><trkpt lat="44.15009380694092" lon="12.202851044853384"><ele>36.0</ele><time>2026-04-26T09:03:08.858Z</time></trkpt><trkpt lat="44.150357490843774" lon="12.202902710334472"><ele>37.0</ele><time>2026-04-26T09:03:09.858Z</time></trkpt><trkpt lat="44.15061863780324" lon="12.202961512548699"><ele>37.0</ele><time>2026-04-26T09:03:10.858Z</time></trkpt><trkpt lat="44.150884510711855" lon="12.203024203281695"><ele>37.0</ele><time>2026-04-26T09:03:11.858Z</time></trkpt><trkpt lat="44.151148260594574" lon="12.203089845341214"><ele>37.0</ele><time>2026-04-26T09:03:12.858Z</time></trkpt><trkpt lat="44.15141063248532" lon="12.203158518294634"><ele>37.0</ele><time>2026-04-26T09:03:13.858Z</time></trkpt><trkpt lat="44.15167234855718" lon="12.20323413581534"><ele>37.0</ele><time>2026-04-26T09:03:14.858Z</time></trkpt><trkpt lat="44.15193294685077" lon="12.20331493263577"><ele>37.0</ele><time>2026-04-26T09:03:15.858Z</time></trkpt><trkpt lat="44.15218980864129" lon="12.203401524717604"><ele>37.5</ele><time>2026-04-26T09:03:16.858Z</time></trkpt><trkpt lat="44.15244922535275" lon="12.203489501483906"><ele>38.0</ele><time>2026-04-26T09:03:17.858Z</time></trkpt><trkpt lat="44.15270517986326" lon="12.203584506801018"><ele>38.0</ele><time>2026-04-26T09:03:18.858Z</time></trkpt><trkpt lat="44.15296169851936" lon="12.203680019783064"><ele>38.0</ele><time>2026-04-26T09:03:19.858Z</time></trkpt><trkpt lat="44.153217829925694" lon="12.203781705649146"><ele>37.0</ele><time>2026-04-26T09:03:20.858Z</time></trkpt><trkpt lat="44.15347044230609" lon="12.2038914172461"><ele>36.0</ele><time>2026-04-26T09:03:21.858Z</time></trkpt><trkpt lat="44.15372570848307" lon="12.204002637452634"><ele>36.0</ele><time>2026-04-26T09:03:22.858Z</time></trkpt><trkpt lat="44.15398213328837" lon="12.204119012755104"><ele>36.0</ele><time>2026-04-26T09:03:23.858Z</time></trkpt><trkpt lat="44.15423662315709" lon="12.204242026505007"><ele>36.5</ele><time>2026-04-26T09:03:24.858Z</time></trkpt><trkpt lat="44.154487092119176" lon="12.204369946112674"><ele>37.0</ele><time>2026-04-26T09:03:25.858Z</time></trkpt><trkpt lat="44.154735688606394" lon="12.204499936884657"><ele>35.5</ele><time>2026-04-26T09:03:26.858Z</time></trkpt><trkpt lat="44.154981206738135" lon="12.204636333971113"><ele>34.0</ele><time>2026-04-26T09:03:27.858Z</time></trkpt><trkpt lat="44.155227401549304" lon="12.204772318321272"><ele>34.0</ele><time>2026-04-26T09:03:28.858Z</time></trkpt><trkpt lat="44.155470210331224" lon="12.204913239586604"><ele>34.0</ele><time>2026-04-26T09:03:29.858Z</time></trkpt><trkpt lat="44.155713348106" lon="12.205062019742032"><ele>34.0</ele><time>2026-04-26T09:03:30.858Z</time></trkpt><trkpt lat="44.155948659265555" lon="12.2052139929428"><ele>34.0</ele><time>2026-04-26T09:03:31.858Z</time></trkpt><trkpt lat="44.15618931081961" lon="12.205371065742046"><ele>34.0</ele><time>2026-04-26T09:03:32.858Z</time></trkpt><trkpt lat="44.15642729111464" lon="12.205531535010792"><ele>34.0</ele><time>2026-04-26T09:03:33.858Z</time></trkpt><trkpt lat="44.1566629111218" lon="12.205694343329645"><ele>34.0</ele><time>2026-04-26T09:03:34.858Z</time></trkpt><trkpt lat="44.156892771016274" lon="12.20586157000847"><ele>34.0</ele><time>2026-04-26T09:03:35.858Z</time></trkpt><trkpt lat="44.15711891617145" lon="12.20603414550254"><ele>34.0</ele><time>2026-04-26T09:03:36.858Z</time></trkpt><trkpt lat="44.15734221954002" lon="12.206214532268866"><ele>34.0</ele><time>2026-04-26T09:03:37.858Z</time></trkpt><trkpt lat="44.15756237463813" lon="12.20639555459022"><ele>33.5</ele><time>2026-04-26T09:03:38.858Z</time></trkpt><trkpt lat="44.157781215081414" lon="12.206583959554923"><ele>33.0</ele><time>2026-04-26T09:03:39.858Z</time></trkpt><trkpt lat="44.157993108729606" lon="12.206778724640994"><ele>33.0</ele><time>2026-04-26T09:03:40.858Z</time></trkpt><trkpt lat="44.15820274537396" lon="12.206975210314047"><ele>33.0</ele><time>2026-04-26T09:03:41.858Z</time></trkpt><trkpt lat="44.15840990550698" lon="12.207177678512572"><ele>33.0</ele><time>2026-04-26T09:03:42.858Z</time></trkpt><trkpt lat="44.158615801400636" lon="12.207381791413683"><ele>33.0</ele><time>2026-04-26T09:03:43.858Z</time></trkpt><trkpt lat="44.15882137189715" lon="12.20758296175118"><ele>33.0</ele><time>2026-04-26T09:03:44.858Z</time></trkpt><trkpt lat="44.15902276385103" lon="12.207781511023464"><ele>33.0</ele><time>2026-04-26T09:03:45.858Z</time></trkpt><trkpt lat="44.15922609307877" lon="12.207980851700428"><ele>33.5</ele><time>2026-04-26T09:03:46.858Z</time></trkpt><trkpt lat="44.15943250917997" lon="12.208180845779527"><ele>34.0</ele><time>2026-04-26T09:03:47.858Z</time></trkpt><trkpt lat="44.15963680182772" lon="12.208381359401713"><ele>34.0</ele><time>2026-04-26T09:03:48.858Z</time></trkpt><trkpt lat="44.15984166706589" lon="12.20857903765533"><ele>34.0</ele><time>2026-04-26T09:03:49.858Z</time></trkpt><trkpt lat="44.16004628251812" lon="12.208777126163087"><ele>34.0</ele><time>2026-04-26T09:03:50.858Z</time></trkpt><trkpt lat="44.16025142216704" lon="12.208979039171409"><ele>34.0</ele><time>2026-04-26T09:03:51.858Z</time></trkpt><trkpt lat="44.160457954507" lon="12.209179846752777"><ele>34.0</ele><time>2026-04-26T09:03:52.858Z</time></trkpt><trkpt lat="44.16066450447014" lon="12.209376915800876"><ele>34.0</ele><time>2026-04-26T09:03:53.858Z</time></trkpt><trkpt lat="44.160870571137416" lon="12.209571557443361"><ele>33.0</ele><time>2026-04-26T09:03:54.858Z</time></trkpt><trkpt lat="44.1610838905" lon="12.209768453967714"><ele>32.0</ele><time>2026-04-26T09:03:55.858Z</time></trkpt><trkpt lat="44.16129690005093" lon="12.209963119412645"><ele>32.0</ele><time>2026-04-26T09:03:56.858Z</time></trkpt><trkpt lat="44.16150838994519" lon="12.210163240161553"><ele>32.0</ele><time>2026-04-26T09:03:57.858Z</time></trkpt><trkpt lat="44.161719752642576" lon="12.210368375153076"><ele>32.5</ele><time>2026-04-26T09:03:58.858Z</time></trkpt><trkpt lat="44.161933748537436" lon="12.210575437803216"><ele>33.0</ele><time>2026-04-26T09:03:59.858Z</time></trkpt><trkpt lat="44.162151262345574" lon="12.21077357015897"><ele>32.0</ele><time>2026-04-26T09:04:00.858Z</time></trkpt><trkpt lat="44.16237048211269" lon="12.210970190688998"><ele>31.0</ele><time>2026-04-26T09:04:01.858Z</time></trkpt><trkpt lat="44.16258776640374" lon="12.211160354018318"><ele>31.0</ele><time>2026-04-26T09:04:02.857Z</time></trkpt><trkpt lat="44.162798143090036" lon="12.211349367056178"><ele>31.0</ele><time>2026-04-26T09:04:03.857Z</time></trkpt><trkpt lat="44.16300976665986" lon="12.211539227841469"><ele>31.0</ele><time>2026-04-26T09:04:04.857Z</time></trkpt><trkpt lat="44.16322601467566" lon="12.211729969708816"><ele>31.0</ele><time>2026-04-26T09:04:05.857Z</time></trkpt><trkpt lat="44.16344246740898" lon="12.211918547022638"><ele>31.0</ele><time>2026-04-26T09:04:06.857Z</time></trkpt><trkpt lat="44.163662729056846" lon="12.212110733864986"><ele>31.0</ele><time>2026-04-26T09:04:07.857Z</time></trkpt><trkpt lat="44.16387901398317" lon="12.212298655592603"><ele>31.0</ele><time>2026-04-26T09:04:08.856Z</time></trkpt><trkpt lat="44.16410390462707" lon="12.212492006237689"><ele>31.0</ele><time>2026-04-26T09:04:09.856Z</time></trkpt><trkpt lat="44.164327762836535" lon="12.212683331239864"><ele>31.0</ele><time>2026-04-26T09:04:10.856Z</time></trkpt><trkpt lat="44.164549542728835" lon="12.2128698060204"><ele>31.0</ele><time>2026-04-26T09:04:11.856Z</time></trkpt><trkpt lat="44.16477280569307" lon="12.213054967456783"><ele>30.5</ele><time>2026-04-26T09:04:12.856Z</time></trkpt><trkpt lat="44.16499606947264" lon="12.213235051599778"><ele>30.0</ele><time>2026-04-26T09:04:13.856Z</time></trkpt><trkpt lat="44.1652239189024" lon="12.21341398324638"><ele>30.0</ele><time>2026-04-26T09:04:14.856Z</time></trkpt><trkpt lat="44.165454647788835" lon="12.213597641661908"><ele>30.0</ele><time>2026-04-26T09:04:15.856Z</time></trkpt><trkpt lat="44.165685811344986" lon="12.213781076340188"><ele>30.0</ele><time>2026-04-26T09:04:16.856Z</time></trkpt><trkpt lat="44.16591643909734" lon="12.21396576397912"><ele>30.0</ele><time>2026-04-26T09:04:17.855Z</time></trkpt><trkpt lat="44.16614926703986" lon="12.214145143409745"><ele>29.5</ele><time>2026-04-26T09:04:18.855Z</time></trkpt><trkpt lat="44.166383881206286" lon="12.214319205957047"><ele>29.0</ele><time>2026-04-26T09:04:19.855Z</time></trkpt><trkpt lat="44.16662147823108" lon="12.214487484940317"><ele>29.0</ele><time>2026-04-26T09:04:20.855Z</time></trkpt><trkpt lat="44.16685528981664" lon="12.214657686002887"><ele>29.0</ele><time>2026-04-26T09:04:21.855Z</time></trkpt><trkpt lat="44.16708677612541" lon="12.21482661965148"><ele>29.0</ele><time>2026-04-26T09:04:22.855Z</time></trkpt><trkpt lat="44.167316480546624" lon="12.214995451262975"><ele>29.0</ele><time>2026-04-26T09:04:23.855Z</time></trkpt><trkpt lat="44.16754712250513" lon="12.215158618655481"><ele>29.0</ele><time>2026-04-26T09:04:24.855Z</time></trkpt><trkpt lat="44.167774351215684" lon="12.215320382751148"><ele>29.0</ele><time>2026-04-26T09:04:25.855Z</time></trkpt><trkpt lat="44.16800084409909" lon="12.21547588479276"><ele>29.0</ele><time>2026-04-26T09:04:26.855Z</time></trkpt><trkpt lat="44.16822801798106" lon="12.215630044511727"><ele>29.0</ele><time>2026-04-26T09:04:27.855Z</time></trkpt><trkpt lat="44.168450535420256" lon="12.215782678913563"><ele>29.0</ele><time>2026-04-26T09:04:28.855Z</time></trkpt><trkpt lat="44.16867532677694" lon="12.21592633717654"><ele>29.0</ele><time>2026-04-26T09:04:29.855Z</time></trkpt><trkpt lat="44.16890541284188" lon="12.216062234395741"><ele>28.0</ele><time>2026-04-26T09:04:30.855Z</time></trkpt><trkpt lat="44.16913623649673" lon="12.216197437698943"><ele>27.0</ele><time>2026-04-26T09:04:31.855Z</time></trkpt><trkpt lat="44.1693678649717" lon="12.216343782098022"><ele>27.5</ele><time>2026-04-26T09:04:32.855Z</time></trkpt><trkpt lat="44.16959856750729" lon="12.216493221276856"><ele>28.0</ele><time>2026-04-26T09:04:33.855Z</time></trkpt><trkpt lat="44.169831514563434" lon="12.216638006356401"><ele>28.0</ele><time>2026-04-26T09:04:34.855Z</time></trkpt><trkpt lat="44.17006587526842" lon="12.216785466181507"><ele>28.0</ele><time>2026-04-26T09:04:35.855Z</time></trkpt><trkpt lat="44.170293759999105" lon="12.21693629090638"><ele>28.0</ele><time>2026-04-26T09:04:36.855Z</time></trkpt><trkpt lat="44.170519338669564" lon="12.217090799222957"><ele>28.0</ele><time>2026-04-26T09:04:37.855Z</time></trkpt><trkpt lat="44.170746727300234" lon="12.217240547768947"><ele>28.0</ele><time>2026-04-26T09:04:38.855Z</time></trkpt><trkpt lat="44.17097713067482" lon="12.21738792732569"><ele>28.0</ele><time>2026-04-26T09:04:39.855Z</time></trkpt><trkpt lat="44.17120831284975" lon="12.21753306600852"><ele>28.0</ele><time>2026-04-26T09:04:40.855Z</time></trkpt><trkpt lat="44.17143791913005" lon="12.217674123484795"><ele>28.0</ele><time>2026-04-26T09:04:41.855Z</time></trkpt><trkpt lat="44.17166923295272" lon="12.217813901846343"><ele>27.5</ele><time>2026-04-26T09:04:42.855Z</time></trkpt><trkpt lat="44.171900577008" lon="12.217950310019527"><ele>27.0</ele><time>2026-04-26T09:04:43.855Z</time></trkpt><trkpt lat="44.17213336530468" lon="12.218089208206127"><ele>27.5</ele><time>2026-04-26T09:04:44.855Z</time></trkpt><trkpt lat="44.1723662997315" lon="12.218229443174403"><ele>28.0</ele><time>2026-04-26T09:04:45.855Z</time></trkpt><trkpt lat="44.172599363625864" lon="12.218369124357325"><ele>28.0</ele><time>2026-04-26T09:04:46.855Z</time></trkpt><trkpt lat="44.172829757970284" lon="12.218508032416322"><ele>28.0</ele><time>2026-04-26T09:04:47.855Z</time></trkpt><trkpt lat="44.17305964929314" lon="12.21864790325786"><ele>27.5</ele><time>2026-04-26T09:04:48.855Z</time></trkpt><trkpt lat="44.17329041952311" lon="12.218787292410855"><ele>27.0</ele><time>2026-04-26T09:04:49.855Z</time></trkpt><trkpt lat="44.17352331899217" lon="12.218924943310483"><ele>27.5</ele><time>2026-04-26T09:04:50.855Z</time></trkpt><trkpt lat="44.173755646963436" lon="12.219061959673176"><ele>28.0</ele><time>2026-04-26T09:04:51.855Z</time></trkpt><trkpt lat="44.1739924390521" lon="12.219198867763987"><ele>28.0</ele><time>2026-04-26T09:04:52.855Z</time></trkpt><trkpt lat="44.17422747355634" lon="12.219337377889515"><ele>28.0</ele><time>2026-04-26T09:04:53.855Z</time></trkpt><trkpt lat="44.17446144129298" lon="12.219476744412617"><ele>28.0</ele><time>2026-04-26T09:04:54.855Z</time></trkpt><trkpt lat="44.174691519350596" lon="12.21962066995527"><ele>28.0</ele><time>2026-04-26T09:04:55.855Z</time></trkpt><trkpt lat="44.17492220295061" lon="12.219762749404483"><ele>27.0</ele><time>2026-04-26T09:04:56.855Z</time></trkpt><trkpt lat="44.17515435287854" lon="12.219899999948234"><ele>26.0</ele><time>2026-04-26T09:04:57.855Z</time></trkpt><trkpt lat="44.175382902332174" lon="12.22003529765092"><ele>26.0</ele><time>2026-04-26T09:04:58.855Z</time></trkpt><trkpt lat="44.17561475639516" lon="12.220160889327088"><ele>26.0</ele><time>2026-04-26T09:04:59.855Z</time></trkpt><trkpt lat="44.1758428980735" lon="12.220283844593816"><ele>27.0</ele><time>2026-04-26T09:05:00.855Z</time></trkpt><trkpt lat="44.176071270618785" lon="12.220412435898531"><ele>28.0</ele><time>2026-04-26T09:05:01.855Z</time></trkpt><trkpt lat="44.17629541352892" lon="12.220539422424865"><ele>27.5</ele><time>2026-04-26T09:05:02.855Z</time></trkpt><trkpt lat="44.17652299399676" lon="12.220666010199812"><ele>27.0</ele><time>2026-04-26T09:05:03.855Z</time></trkpt><trkpt lat="44.17675256886916" lon="12.220789461367533"><ele>27.0</ele><time>2026-04-26T09:05:04.855Z</time></trkpt><trkpt lat="44.17698478127771" lon="12.220909611017444"><ele>27.0</ele><time>2026-04-26T09:05:05.855Z</time></trkpt><trkpt lat="44.17721640433134" lon="12.221027311940002"><ele>26.0</ele><time>2026-04-26T09:05:06.855Z</time></trkpt><trkpt lat="44.17744489032831" lon="12.221142699962648"><ele>25.0</ele><time>2026-04-26T09:05:07.855Z</time></trkpt><trkpt lat="44.17767426545366" lon="12.22125501188586"><ele>25.0</ele><time>2026-04-26T09:05:08.855Z</time></trkpt><trkpt lat="44.177905006621096" lon="12.221363947429094"><ele>25.0</ele><time>2026-04-26T09:05:09.855Z</time></trkpt><trkpt lat="44.17814157634191" lon="12.221470815826144"><ele>25.0</ele><time>2026-04-26T09:05:10.855Z</time></trkpt><trkpt lat="44.17838100402595" lon="12.221569838134569"><ele>25.0</ele><time>2026-04-26T09:05:11.855Z</time></trkpt><trkpt lat="44.17862111976083" lon="12.221672921030784"><ele>25.0</ele><time>2026-04-26T09:05:12.855Z</time></trkpt><trkpt lat="44.178858035283604" lon="12.221776992525802"><ele>25.0</ele><time>2026-04-26T09:05:13.855Z</time></trkpt><trkpt lat="44.179096954934906" lon="12.221884626278477"><ele>24.0</ele><time>2026-04-26T09:05:14.855Z</time></trkpt><trkpt lat="44.179337685464866" lon="12.22198949241441"><ele>23.0</ele><time>2026-04-26T09:05:15.855Z</time></trkpt><trkpt lat="44.17957910540132" lon="12.222089015342817"><ele>23.0</ele><time>2026-04-26T09:05:16.855Z</time></trkpt><trkpt lat="44.17982453699835" lon="12.222186241210597"><ele>23.0</ele><time>2026-04-26T09:05:17.854Z</time></trkpt><trkpt lat="44.18006944114028" lon="12.222288662114442"><ele>23.0</ele><time>2026-04-26T09:05:18.854Z</time></trkpt><trkpt lat="44.18031794330556" lon="12.222394671007153"><ele>23.0</ele><time>2026-04-26T09:05:19.854Z</time></trkpt><trkpt lat="44.180563015961596" lon="12.222501342018417"><ele>23.0</ele><time>2026-04-26T09:05:20.854Z</time></trkpt><trkpt lat="44.180811850165334" lon="12.222601378399963"><ele>23.0</ele><time>2026-04-26T09:05:21.854Z</time></trkpt><trkpt lat="44.181058963515746" lon="12.222689812006623"><ele>23.0</ele><time>2026-04-26T09:05:22.854Z</time></trkpt><trkpt lat="44.18130598421823" lon="12.222778162738033"><ele>23.0</ele><time>2026-04-26T09:05:23.854Z</time></trkpt><trkpt lat="44.1815531227996" lon="12.222860795106758"><ele>23.0</ele><time>2026-04-26T09:05:24.854Z</time></trkpt><trkpt lat="44.18179876670377" lon="12.222940211504065"><ele>23.0</ele><time>2026-04-26T09:05:25.854Z</time></trkpt><trkpt lat="44.182044136865294" lon="12.223018469474342"><ele>23.0</ele><time>2026-04-26T09:05:26.854Z</time></trkpt><trkpt lat="44.182288544523374" lon="12.223097475831405"><ele>23.0</ele><time>2026-04-26T09:05:27.854Z</time></trkpt><trkpt lat="44.18253299669441" lon="12.223176937819444"><ele>23.0</ele><time>2026-04-26T09:05:28.854Z</time></trkpt><trkpt lat="44.182778741384645" lon="12.22324894376298"><ele>23.0</ele><time>2026-04-26T09:05:29.853Z</time></trkpt><trkpt lat="44.18302319295138" lon="12.223315061405016"><ele>23.0</ele><time>2026-04-26T09:05:30.853Z</time></trkpt><trkpt lat="44.18326615862895" lon="12.22337935241709"><ele>23.0</ele><time>2026-04-26T09:05:31.853Z</time></trkpt><trkpt lat="44.183509298563635" lon="12.223443063222554"><ele>23.0</ele><time>2026-04-26T09:05:32.853Z</time></trkpt><trkpt lat="44.18375219430871" lon="12.223507807356054"><ele>23.0</ele><time>2026-04-26T09:05:33.853Z</time></trkpt><trkpt lat="44.18399505642872" lon="12.223570860682331"><ele>23.0</ele><time>2026-04-26T09:05:34.853Z</time></trkpt><trkpt lat="44.18423980633331" lon="12.223627204610366"><ele>23.0</ele><time>2026-04-26T09:05:35.853Z</time></trkpt><trkpt lat="44.18448437681124" lon="12.223680790530466"><ele>23.0</ele><time>2026-04-26T09:05:36.853Z</time></trkpt><trkpt lat="44.18473041690927" lon="12.223732098274505"><ele>23.0</ele><time>2026-04-26T09:05:37.853Z</time></trkpt><trkpt lat="44.18497544659788" lon="12.223779030570201"><ele>23.0</ele><time>2026-04-26T09:05:38.853Z</time></trkpt><trkpt lat="44.18521948850445" lon="12.2238271647545"><ele>23.0</ele><time>2026-04-26T09:05:39.853Z</time></trkpt><trkpt lat="44.185462687922" lon="12.223871591924865"><ele>23.5</ele><time>2026-04-26T09:05:40.853Z</time></trkpt><trkpt lat="44.18570750669806" lon="12.223916391287007"><ele>24.0</ele><time>2026-04-26T09:05:41.853Z</time></trkpt><trkpt lat="44.185954775160965" lon="12.223958811989908"><ele>24.0</ele><time>2026-04-26T09:05:42.853Z</time></trkpt><trkpt lat="44.186202314740505" lon="12.223999896176512"><ele>24.0</ele><time>2026-04-26T09:05:43.853Z</time></trkpt><trkpt lat="44.186449081484604" lon="12.22403893016036"><ele>23.5</ele><time>2026-04-26T09:05:44.853Z</time></trkpt><trkpt lat="44.18669611326312" lon="12.22407728347126"><ele>23.0</ele><time>2026-04-26T09:05:45.853Z</time></trkpt><trkpt lat="44.186946687082404" lon="12.224112494710369"><ele>23.0</ele><time>2026-04-26T09:05:46.853Z</time></trkpt><trkpt lat="44.187196356437354" lon="12.2241485025519"><ele>23.0</ele><time>2026-04-26T09:05:47.853Z</time></trkpt><trkpt lat="44.18745294015583" lon="12.224179277501072"><ele>22.5</ele><time>2026-04-26T09:05:48.853Z</time></trkpt><trkpt lat="44.18770538967794" lon="12.224206884504548"><ele>22.0</ele><time>2026-04-26T09:05:49.853Z</time></trkpt><trkpt lat="44.1879601156618" lon="12.224231624438584"><ele>22.5</ele><time>2026-04-26T09:05:50.853Z</time></trkpt><trkpt lat="44.188213886106276" lon="12.224254866441091"><ele>23.0</ele><time>2026-04-26T09:05:51.853Z</time></trkpt><trkpt lat="44.188467780081005" lon="12.224274311343915"><ele>23.0</ele><time>2026-04-26T09:05:52.853Z</time></trkpt><trkpt lat="44.1887195440731" lon="12.22428648622129"><ele>23.0</ele><time>2026-04-26T09:05:53.853Z</time></trkpt><trkpt lat="44.18897104871709" lon="12.224297406735388"><ele>23.0</ele><time>2026-04-26T09:05:54.853Z</time></trkpt><trkpt lat="44.18922247454293" lon="12.224302449511226"><ele>23.0</ele><time>2026-04-26T09:05:55.853Z</time></trkpt><trkpt lat="44.18947173282333" lon="12.22430812626861"><ele>23.0</ele><time>2026-04-26T09:05:56.853Z</time></trkpt><trkpt lat="44.18972521066524" lon="12.224316715572215"><ele>23.0</ele><time>2026-04-26T09:05:57.853Z</time></trkpt><trkpt lat="44.189978863437275" lon="12.224332291324844"><ele>22.5</ele><time>2026-04-26T09:05:58.853Z</time></trkpt><trkpt lat="44.19023340062288" lon="12.224339846470953"><ele>22.0</ele><time>2026-04-26T09:05:59.853Z</time></trkpt><trkpt lat="44.19048821128979" lon="12.224345779174575"><ele>22.0</ele><time>2026-04-26T09:06:00.853Z</time></trkpt><trkpt lat="44.19074578727368" lon="12.224342658062708"><ele>22.0</ele><time>2026-04-26T09:06:01.853Z</time></trkpt><trkpt lat="44.191007485956995" lon="12.224332654572276"><ele>22.0</ele><time>2026-04-26T09:06:02.853Z</time></trkpt><trkpt lat="44.19126722822755" lon="12.224321861207418"><ele>22.0</ele><time>2026-04-26T09:06:03.853Z</time></trkpt><trkpt lat="44.191524380118985" lon="12.224320506430468"><ele>22.5</ele><time>2026-04-26T09:06:04.853Z</time></trkpt><trkpt lat="44.191783923644245" lon="12.224327347160907"><ele>23.0</ele><time>2026-04-26T09:06:05.853Z</time></trkpt><trkpt lat="44.19204598581569" lon="12.224339013046778"><ele>23.0</ele><time>2026-04-26T09:06:06.853Z</time></trkpt><trkpt lat="44.192308374211905" lon="12.224343156465075"><ele>23.0</ele><time>2026-04-26T09:06:07.853Z</time></trkpt><trkpt lat="44.19256732634276" lon="12.22433717679147"><ele>22.5</ele><time>2026-04-26T09:06:08.852Z</time></trkpt><trkpt lat="44.192830000382465" lon="12.224327053606471"><ele>22.0</ele><time>2026-04-26T09:06:09.852Z</time></trkpt><trkpt lat="44.19308592913922" lon="12.224314631086326"><ele>22.0</ele><time>2026-04-26T09:06:10.852Z</time></trkpt><trkpt lat="44.193343193312614" lon="12.224300159785466"><ele>22.0</ele><time>2026-04-26T09:06:11.852Z</time></trkpt><trkpt lat="44.19359711024956" lon="12.224293880503692"><ele>22.0</ele><time>2026-04-26T09:06:12.852Z</time></trkpt><trkpt lat="44.19384796490561" lon="12.224290361879337"><ele>22.0</ele><time>2026-04-26T09:06:13.852Z</time></trkpt><trkpt lat="44.19409740510219" lon="12.224287633194677"><ele>23.0</ele><time>2026-04-26T09:06:14.999Z</time></trkpt><trkpt lat="44.19434988853052" lon="12.22427942285397"><ele>24.0</ele><time>2026-04-26T09:06:15.999Z</time></trkpt><trkpt lat="44.194602804657485" lon="12.224270979413914"><ele>24.0</ele><time>2026-04-26T09:06:16.999Z</time></trkpt><trkpt lat="44.19485739324888" lon="12.22426112161684"><ele>24.0</ele><time>2026-04-26T09:06:17.999Z</time></trkpt><trkpt lat="44.19511194571224" lon="12.224251699737604"><ele>24.0</ele><time>2026-04-26T09:06:18.999Z</time></trkpt><trkpt lat="44.19536575101199" lon="12.224245473137849"><ele>24.0</ele><time>2026-04-26T09:06:19.999Z</time></trkpt><trkpt lat="44.19561340039372" lon="12.224234633851074"><ele>23.0</ele><time>2026-04-26T09:06:20.999Z</time></trkpt><trkpt lat="44.19586037438764" lon="12.224227078820388"><ele>22.0</ele><time>2026-04-26T09:06:21.999Z</time></trkpt><trkpt lat="44.19611044680244" lon="12.224216632042717"><ele>22.0</ele><time>2026-04-26T09:06:22.999Z</time></trkpt><trkpt lat="44.1963632065914" lon="12.224206096057715"><ele>22.0</ele><time>2026-04-26T09:06:23.999Z</time></trkpt><trkpt lat="44.196619835230464" lon="12.224198687733946"><ele>22.0</ele><time>2026-04-26T09:06:24.999Z</time></trkpt><trkpt lat="44.19687785430047" lon="12.224193151321675"><ele>22.0</ele><time>2026-04-26T09:06:25.999Z</time></trkpt><trkpt lat="44.19713640827377" lon="12.224188746285606"><ele>21.0</ele><time>2026-04-26T09:06:26.999Z</time></trkpt><trkpt lat="44.19739610643422" lon="12.224182551974552"><ele>20.0</ele><time>2026-04-26T09:06:27.999Z</time></trkpt><trkpt lat="44.197658573030445" lon="12.224167930548328"><ele>20.0</ele><time>2026-04-26T09:06:28.999Z</time></trkpt><trkpt lat="44.19791628104152" lon="12.224164228890121"><ele>20.0</ele><time>2026-04-26T09:06:29.999Z</time></trkpt><trkpt lat="44.19817400221676" lon="12.224153918289206"><ele>20.0</ele><time>2026-04-26T09:06:30.999Z</time></trkpt><trkpt lat="44.198434477091844" lon="12.224142750454005"><ele>20.0</ele><time>2026-04-26T09:06:32Z</time></trkpt><trkpt lat="44.19869417453755" lon="12.22413304831506"><ele>20.0</ele><time>2026-04-26T09:06:33Z</time></trkpt><trkpt lat="44.19895337888259" lon="12.224125661871012"><ele>20.0</ele><time>2026-04-26T09:06:34Z</time></trkpt><trkpt lat="44.199213508669246" lon="12.224116451200123"><ele>20.0</ele><time>2026-04-26T09:06:35Z</time></trkpt><trkpt lat="44.199475231408535" lon="12.22410940127876"><ele>20.0</ele><time>2026-04-26T09:06:36Z</time></trkpt><trkpt lat="44.1997327622581" lon="12.224108686206444"><ele>20.5</ele><time>2026-04-26T09:06:37Z</time></trkpt><trkpt lat="44.199988550240214" lon="12.224102052245875"><ele>21.0</ele><time>2026-04-26T09:06:38Z</time></trkpt><trkpt lat="44.20024532479352" lon="12.224095739654649"><ele>21.0</ele><time>2026-04-26T09:06:39Z</time></trkpt><trkpt lat="44.200503003194335" lon="12.224087939999086"><ele>21.0</ele><time>2026-04-26T09:06:40Z</time></trkpt><trkpt lat="44.2007540077623" lon="12.224079390055039"><ele>21.0</ele><time>2026-04-26T09:06:41Z</time></trkpt><trkpt lat="44.2010079137009" lon="12.224068803307219"><ele>21.0</ele><time>2026-04-26T09:06:42Z</time></trkpt><trkpt lat="44.20126420846664" lon="12.224062015221003"><ele>21.0</ele><time>2026-04-26T09:06:43Z</time></trkpt><trkpt lat="44.20152108301165" lon="12.224053313625241"><ele>21.0</ele><time>2026-04-26T09:06:44Z</time></trkpt><trkpt lat="44.20177544519154" lon="12.224040466375966"><ele>21.0</ele><time>2026-04-26T09:06:45Z</time></trkpt><trkpt lat="44.20203140382358" lon="12.224034013004898"><ele>21.0</ele><time>2026-04-26T09:06:46Z</time></trkpt><trkpt lat="44.20229025261067" lon="12.224030908288576"><ele>21.5</ele><time>2026-04-26T09:06:47Z</time></trkpt><trkpt lat="44.20254737104347" lon="12.224025478134484"><ele>22.0</ele><time>2026-04-26T09:06:48Z</time></trkpt><trkpt lat="44.202807772083496" lon="12.224019038348757"><ele>22.0</ele><time>2026-04-26T09:06:49Z</time></trkpt><trkpt lat="44.203066393181494" lon="12.224007555946656"><ele>22.0</ele><time>2026-04-26T09:06:50Z</time></trkpt><trkpt lat="44.20332456615187" lon="12.223999708550739"><ele>20.5</ele><time>2026-04-26T09:06:51Z</time></trkpt><trkpt lat="44.2035851839103" lon="12.223993559870623"><ele>19.0</ele><time>2026-04-26T09:06:52Z</time></trkpt><trkpt lat="44.20384004599134" lon="12.223985266344581"><ele>18.0</ele><time>2026-04-26T09:06:53Z</time></trkpt><trkpt lat="44.20409242850387" lon="12.223976587120138"><ele>17.0</ele><time>2026-04-26T09:06:54Z</time></trkpt><trkpt lat="44.204343756112216" lon="12.223968527550245"><ele>17.0</ele><time>2026-04-26T09:06:55Z</time></trkpt><trkpt lat="44.2045950241317" lon="12.22396141969566"><ele>17.0</ele><time>2026-04-26T09:06:56Z</time></trkpt><trkpt lat="44.20484494264798" lon="12.223952920499952"><ele>17.5</ele><time>2026-04-26T09:06:57Z</time></trkpt><trkpt lat="44.205092851654825" lon="12.223945345714549"><ele>18.0</ele><time>2026-04-26T09:06:58Z</time></trkpt><trkpt lat="44.20534159455642" lon="12.223937293848198"><ele>18.0</ele><time>2026-04-26T09:06:59Z</time></trkpt><trkpt lat="44.205590749410014" lon="12.22393047119911"><ele>18.0</ele><time>2026-04-26T09:07:00.001Z</time></trkpt><trkpt lat="44.20583902781879" lon="12.223924154764836"><ele>18.0</ele><time>2026-04-26T09:07:01.001Z</time></trkpt><trkpt lat="44.20609088158089" lon="12.223915494339934"><ele>18.0</ele><time>2026-04-26T09:07:02.001Z</time></trkpt><trkpt lat="44.20633954908673" lon="12.223905590387453"><ele>18.0</ele><time>2026-04-26T09:07:03.001Z</time></trkpt><trkpt lat="44.20658677979774" lon="12.223898789619122"><ele>18.0</ele><time>2026-04-26T09:07:04.001Z</time></trkpt><trkpt lat="44.206836616117826" lon="12.223893953061387"><ele>18.0</ele><time>2026-04-26T09:07:05.001Z</time></trkpt><trkpt lat="44.20708529489429" lon="12.223890066084481"><ele>18.0</ele><time>2026-04-26T09:07:06.001Z</time></trkpt><trkpt lat="44.2073303406677" lon="12.22388302399749"><ele>18.5</ele><time>2026-04-26T09:07:07.001Z</time></trkpt><trkpt lat="44.20757735077594" lon="12.223875134392426"><ele>19.0</ele><time>2026-04-26T09:07:08.001Z</time></trkpt><trkpt lat="44.207821952637104" lon="12.223863623763682"><ele>19.0</ele><time>2026-04-26T09:07:09.001Z</time></trkpt><trkpt lat="44.20806945568433" lon="12.223851640418898"><ele>19.0</ele><time>2026-04-26T09:07:10.001Z</time></trkpt><trkpt lat="44.208310988582355" lon="12.223836295555826"><ele>19.0</ele><time>2026-04-26T09:07:11.001Z</time></trkpt><trkpt lat="44.208553340639114" lon="12.223825832916582"><ele>19.0</ele><time>2026-04-26T09:07:12.001Z</time></trkpt><trkpt lat="44.20879705774667" lon="12.223817271128937"><ele>19.5</ele><time>2026-04-26T09:07:13.001Z</time></trkpt><trkpt lat="44.20903990726994" lon="12.223808594153283"><ele>20.0</ele><time>2026-04-26T09:07:14.001Z</time></trkpt><trkpt lat="44.20928334286968" lon="12.22380069726234"><ele>20.0</ele><time>2026-04-26T09:07:15.001Z</time></trkpt><trkpt lat="44.20952582815443" lon="12.223791252555202"><ele>20.0</ele><time>2026-04-26T09:07:16.001Z</time></trkpt><trkpt lat="44.209768616936564" lon="12.22377264011682"><ele>19.5</ele><time>2026-04-26T09:07:17.001Z</time></trkpt><trkpt lat="44.2100121246485" lon="12.223760773915108"><ele>19.0</ele><time>2026-04-26T09:07:18.001Z</time></trkpt><trkpt lat="44.21025654346646" lon="12.223749940600591"><ele>19.0</ele><time>2026-04-26T09:07:19.001Z</time></trkpt><trkpt lat="44.21050177492957" lon="12.223734466076294"><ele>19.0</ele><time>2026-04-26T09:07:20.001Z</time></trkpt><trkpt lat="44.21074742282507" lon="12.22372243479164"><ele>19.0</ele><time>2026-04-26T09:07:21.001Z</time></trkpt><trkpt lat="44.210991468945664" lon="12.223711641351846"><ele>19.0</ele><time>2026-04-26T09:07:22.001Z</time></trkpt><trkpt lat="44.21123424404796" lon="12.223702374568534"><ele>19.0</ele><time>2026-04-26T09:07:23.001Z</time></trkpt><trkpt lat="44.21147665376596" lon="12.223688806446443"><ele>19.0</ele><time>2026-04-26T09:07:24.001Z</time></trkpt><trkpt lat="44.21171271847404" lon="12.22367296154794"><ele>18.5</ele><time>2026-04-26T09:07:25.001Z</time></trkpt><trkpt lat="44.21195403502338" lon="12.223658669164502"><ele>18.0</ele><time>2026-04-26T09:07:26.001Z</time></trkpt><trkpt lat="44.21219579768409" lon="12.22364073388696"><ele>18.0</ele><time>2026-04-26T09:07:27.001Z</time></trkpt><trkpt lat="44.212433251852595" lon="12.223625574800362"><ele>18.0</ele><time>2026-04-26T09:07:28.001Z</time></trkpt><trkpt lat="44.21267233922476" lon="12.223610218411398"><ele>18.0</ele><time>2026-04-26T09:07:29.001Z</time></trkpt><trkpt lat="44.21290943790262" lon="12.223594825118274"><ele>18.0</ele><time>2026-04-26T09:07:30.001Z</time></trkpt><trkpt lat="44.21314240293657" lon="12.223577336134165"><ele>18.0</ele><time>2026-04-26T09:07:31.001Z</time></trkpt><trkpt lat="44.213375932301496" lon="12.223556522628712"><ele>18.0</ele><time>2026-04-26T09:07:32.001Z</time></trkpt><trkpt lat="44.213606824551285" lon="12.223537074872578"><ele>18.0</ele><time>2026-04-26T09:07:33.001Z</time></trkpt><trkpt lat="44.21383974375575" lon="12.223519132174646"><ele>18.0</ele><time>2026-04-26T09:07:34.001Z</time></trkpt><trkpt lat="44.21407139488182" lon="12.223498442678274"><ele>18.0</ele><time>2026-04-26T09:07:35.001Z</time></trkpt><trkpt lat="44.214301988291226" lon="12.223477279312199"><ele>18.0</ele><time>2026-04-26T09:07:36.001Z</time></trkpt><trkpt lat="44.21453348507951" lon="12.223454597313689"><ele>18.0</ele><time>2026-04-26T09:07:37.001Z</time></trkpt><trkpt lat="44.2147637300713" lon="12.223431069353857"><ele>18.0</ele><time>2026-04-26T09:07:38.001Z</time></trkpt><trkpt lat="44.214993209476624" lon="12.22340663908442"><ele>18.0</ele><time>2026-04-26T09:07:39.001Z</time></trkpt><trkpt lat="44.2152227269675" lon="12.223381668447653"><ele>18.0</ele><time>2026-04-26T09:07:40.001Z</time></trkpt><trkpt lat="44.21545686790993" lon="12.22335913188894"><ele>18.5</ele><time>2026-04-26T09:07:41.002Z</time></trkpt><trkpt lat="44.21568780450725" lon="12.223335328536644"><ele>19.0</ele><time>2026-04-26T09:07:42.002Z</time></trkpt><trkpt lat="44.21592250337215" lon="12.22330590840668"><ele>19.0</ele><time>2026-04-26T09:07:43.002Z</time></trkpt><trkpt lat="44.216160349747135" lon="12.223276832569049"><ele>19.0</ele><time>2026-04-26T09:07:44.002Z</time></trkpt><trkpt lat="44.21639741494935" lon="12.22324793255203"><ele>18.5</ele><time>2026-04-26T09:07:45.002Z</time></trkpt><trkpt lat="44.216637877299306" lon="12.223217477704704"><ele>18.0</ele><time>2026-04-26T09:07:46.002Z</time></trkpt><trkpt lat="44.216876622503676" lon="12.223185698204668"><ele>18.0</ele><time>2026-04-26T09:07:47.002Z</time></trkpt><trkpt lat="44.21711922925342" lon="12.223154092097511"><ele>18.0</ele><time>2026-04-26T09:07:48.002Z</time></trkpt><trkpt lat="44.217363129812725" lon="12.223121798139745"><ele>18.0</ele><time>2026-04-26T09:07:49.002Z</time></trkpt><trkpt lat="44.217600835617446" lon="12.223089985372665"><ele>18.0</ele><time>2026-04-26T09:07:50.002Z</time></trkpt><trkpt lat="44.21784114347513" lon="12.223059349636554"><ele>18.0</ele><time>2026-04-26T09:07:51.002Z</time></trkpt><trkpt lat="44.21808165783148" lon="12.22302518613409"><ele>18.0</ele><time>2026-04-26T09:07:52.002Z</time></trkpt><trkpt lat="44.218320564675615" lon="12.222995401998453"><ele>17.0</ele><time>2026-04-26T09:07:53.002Z</time></trkpt><trkpt lat="44.218560122667284" lon="12.222966417173762"><ele>16.0</ele><time>2026-04-26T09:07:54.002Z</time></trkpt><trkpt lat="44.21880147971571" lon="12.222932328217171"><ele>16.0</ele><time>2026-04-26T09:07:55.002Z</time></trkpt><trkpt lat="44.21904453367166" lon="12.222895901980598"><ele>16.0</ele><time>2026-04-26T09:07:56.002Z</time></trkpt><trkpt lat="44.219291460096855" lon="12.222855090552635"><ele>16.0</ele><time>2026-04-26T09:07:57.002Z</time></trkpt><trkpt lat="44.21954041528092" lon="12.22281321417891"><ele>16.0</ele><time>2026-04-26T09:07:58.002Z</time></trkpt><trkpt lat="44.2197924092123" lon="12.222772436432447"><ele>16.0</ele><time>2026-04-26T09:07:59.002Z</time></trkpt><trkpt lat="44.22004426448557" lon="12.222729738542212"><ele>16.0</ele><time>2026-04-26T09:08:00.002Z</time></trkpt><trkpt lat="44.22029780538845" lon="12.222686478643178"><ele>16.0</ele><time>2026-04-26T09:08:01.002Z</time></trkpt><trkpt lat="44.22055483403446" lon="12.222636464514846"><ele>16.0</ele><time>2026-04-26T09:08:02.002Z</time></trkpt><trkpt lat="44.2208092149924" lon="12.222585937332486"><ele>16.0</ele><time>2026-04-26T09:08:03.002Z</time></trkpt><trkpt lat="44.22106983008647" lon="12.22253450823949"><ele>16.0</ele><time>2026-04-26T09:08:04.002Z</time></trkpt><trkpt lat="44.22132911190768" lon="12.222484913892886"><ele>16.0</ele><time>2026-04-26T09:08:05.002Z</time></trkpt><trkpt lat="44.221588838320265" lon="12.222433174493624"><ele>16.0</ele><time>2026-04-26T09:08:06.002Z</time></trkpt><trkpt lat="44.22184730153827" lon="12.222381969511275"><ele>16.0</ele><time>2026-04-26T09:08:07.002Z</time></trkpt><trkpt lat="44.22210559482389" lon="12.222334655686938"><ele>16.0</ele><time>2026-04-26T09:08:08.002Z</time></trkpt><trkpt lat="44.222359890661245" lon="12.222292029208504"><ele>16.5</ele><time>2026-04-26T09:08:09.002Z</time></trkpt><trkpt lat="44.22261977118535" lon="12.222254204040436"><ele>17.0</ele><time>2026-04-26T09:08:10.002Z</time></trkpt><trkpt lat="44.222877054936134" lon="12.22221945426077"><ele>17.0</ele><time>2026-04-26T09:08:11.002Z</time></trkpt><trkpt lat="44.22312911035072" lon="12.222177631422294"><ele>17.0</ele><time>2026-04-26T09:08:12.002Z</time></trkpt><trkpt lat="44.22337841176343" lon="12.222130919315928"><ele>16.5</ele><time>2026-04-26T09:08:13.002Z</time></trkpt><trkpt lat="44.22362475491527" lon="12.222074975881808"><ele>16.0</ele><time>2026-04-26T09:08:14.002Z</time></trkpt><trkpt lat="44.223869557477435" lon="12.222024617730717"><ele>15.5</ele><time>2026-04-26T09:08:15.002Z</time></trkpt><trkpt lat="44.22411243931044" lon="12.221976395147617"><ele>15.0</ele><time>2026-04-26T09:08:16.002Z</time></trkpt><trkpt lat="44.22435752570497" lon="12.221925729727953"><ele>15.0</ele><time>2026-04-26T09:08:17.002Z</time></trkpt><trkpt lat="44.22460128488569" lon="12.22187149699933"><ele>15.0</ele><time>2026-04-26T09:08:18.002Z</time></trkpt><trkpt lat="44.22484432573836" lon="12.22181579682808"><ele>14.0</ele><time>2026-04-26T09:08:19.002Z</time></trkpt><trkpt lat="44.22508651894428" lon="12.22176117175541"><ele>13.0</ele><time>2026-04-26T09:08:20.002Z</time></trkpt><trkpt lat="44.225328496544385" lon="12.221705081293235"><ele>13.0</ele><time>2026-04-26T09:08:21.001Z</time></trkpt><trkpt lat="44.22556998565968" lon="12.221649800971726"><ele>13.0</ele><time>2026-04-26T09:08:22.001Z</time></trkpt><trkpt lat="44.22581220450401" lon="12.221596018414681"><ele>13.5</ele><time>2026-04-26T09:08:23.001Z</time></trkpt><trkpt lat="44.22605509656433" lon="12.221539529548137"><ele>14.0</ele><time>2026-04-26T09:08:24.001Z</time></trkpt><trkpt lat="44.22629783184255" lon="12.221485138035435"><ele>13.5</ele><time>2026-04-26T09:08:25.001Z</time></trkpt><trkpt lat="44.226542331348156" lon="12.221430864344788"><ele>13.0</ele><time>2026-04-26T09:08:26.001Z</time></trkpt><trkpt lat="44.2267867197397" lon="12.22137897477726"><ele>13.0</ele><time>2026-04-26T09:08:27.001Z</time></trkpt><trkpt lat="44.227032391115365" lon="12.221319401027431"><ele>13.0</ele><time>2026-04-26T09:08:28.001Z</time></trkpt><trkpt lat="44.22727464225409" lon="12.221265154347345"><ele>13.5</ele><time>2026-04-26T09:08:29.001Z</time></trkpt><trkpt lat="44.227519444258434" lon="12.221211043163654"><ele>14.0</ele><time>2026-04-26T09:08:30.001Z</time></trkpt><trkpt lat="44.22776355610402" lon="12.221155219837806"><ele>14.0</ele><time>2026-04-26T09:08:31.001Z</time></trkpt><trkpt lat="44.2280087222425" lon="12.2210983317012"><ele>14.0</ele><time>2026-04-26T09:08:32.001Z</time></trkpt><trkpt lat="44.22825413525669" lon="12.22104252954342"><ele>13.5</ele><time>2026-04-26T09:08:33.001Z</time></trkpt><trkpt lat="44.22850091151761" lon="12.22098814571173"><ele>13.0</ele><time>2026-04-26T09:08:34.001Z</time></trkpt><trkpt lat="44.22874860540651" lon="12.220935355569368"><ele>12.5</ele><time>2026-04-26T09:08:35.001Z</time></trkpt><trkpt lat="44.22899283426408" lon="12.22088082505181"><ele>12.0</ele><time>2026-04-26T09:08:36.001Z</time></trkpt><trkpt lat="44.229233114114336" lon="12.220827324880853"><ele>12.0</ele><time>2026-04-26T09:08:37Z</time></trkpt><trkpt lat="44.229475244067935" lon="12.22077328567998"><ele>12.0</ele><time>2026-04-26T09:08:38Z</time></trkpt><trkpt lat="44.229717379737494" lon="12.220719521319046"><ele>12.5</ele><time>2026-04-26T09:08:39Z</time></trkpt><trkpt lat="44.229957393409464" lon="12.220665789672374"><ele>13.0</ele><time>2026-04-26T09:08:40Z</time></trkpt><trkpt lat="44.23019907315252" lon="12.220607420416053"><ele>13.0</ele><time>2026-04-26T09:08:41Z</time></trkpt><trkpt lat="44.23043837130568" lon="12.220551769614431"><ele>13.0</ele><time>2026-04-26T09:08:42.001Z</time></trkpt><trkpt lat="44.23067847255645" lon="12.220494752714306"><ele>12.5</ele><time>2026-04-26T09:08:43.001Z</time></trkpt><trkpt lat="44.23091997997179" lon="12.220441615819363"><ele>12.0</ele><time>2026-04-26T09:08:44.001Z</time></trkpt><trkpt lat="44.23116469204912" lon="12.220387981637302"><ele>12.0</ele><time>2026-04-26T09:08:45.001Z</time></trkpt><trkpt lat="44.23141029996275" lon="12.220333670543607"><ele>12.0</ele><time>2026-04-26T09:08:46.001Z</time></trkpt><trkpt lat="44.23165520357804" lon="12.220279213182073"><ele>12.0</ele><time>2026-04-26T09:08:47.001Z</time></trkpt><trkpt lat="44.23189798382708" lon="12.220230923446412"><ele>12.0</ele><time>2026-04-26T09:08:48.001Z</time></trkpt><trkpt lat="44.23214220715919" lon="12.220179144485229"><ele>12.0</ele><time>2026-04-26T09:08:49.001Z</time></trkpt><trkpt lat="44.23238645669967" lon="12.220128666378024"><ele>12.0</ele><time>2026-04-26T09:08:50.001Z</time></trkpt><trkpt lat="44.232632548846944" lon="12.220074671304268"><ele>12.0</ele><time>2026-04-26T09:08:51.001Z</time></trkpt><trkpt lat="44.232878852993174" lon="12.220021345827542"><ele>12.0</ele><time>2026-04-26T09:08:52.001Z</time></trkpt><trkpt lat="44.23312377298097" lon="12.219967129744557"><ele>11.5</ele><time>2026-04-26T09:08:53.001Z</time></trkpt><trkpt lat="44.233369719225344" lon="12.219914090868308"><ele>11.0</ele><time>2026-04-26T09:08:54.001Z</time></trkpt><trkpt lat="44.23361540985663" lon="12.219861718900589"><ele>11.5</ele><time>2026-04-26T09:08:55.001Z</time></trkpt><trkpt lat="44.23386082719055" lon="12.21981222543003"><ele>12.0</ele><time>2026-04-26T09:08:56.001Z</time></trkpt><trkpt lat="44.234105411771594" lon="12.219764348782022"><ele>12.0</ele><time>2026-04-26T09:08:57.001Z</time></trkpt><trkpt lat="44.234350002845055" lon="12.21971891142463"><ele>12.0</ele><time>2026-04-26T09:08:58.001Z</time></trkpt><trkpt lat="44.23458786135899" lon="12.21968233811571"><ele>11.5</ele><time>2026-04-26T09:08:59.001Z</time></trkpt><trkpt lat="44.234831093128335" lon="12.219633194267796"><ele>11.0</ele><time>2026-04-26T09:09:00.001Z</time></trkpt><trkpt lat="44.23507852975415" lon="12.21958375315267"><ele>11.0</ele><time>2026-04-26T09:09:01.001Z</time></trkpt><trkpt lat="44.235329293187974" lon="12.219530802472386"><ele>11.0</ele><time>2026-04-26T09:09:02.001Z</time></trkpt><trkpt lat="44.235578162363" lon="12.219481009040596"><ele>10.5</ele><time>2026-04-26T09:09:03.001Z</time></trkpt><trkpt lat="44.23582622738817" lon="12.219436403188576"><ele>10.0</ele><time>2026-04-26T09:09:04.001Z</time></trkpt><trkpt lat="44.23607258670769" lon="12.219392262807402"><ele>10.0</ele><time>2026-04-26T09:09:05.001Z</time></trkpt><trkpt lat="44.23631832944197" lon="12.21934472769309"><ele>10.0</ele><time>2026-04-26T09:09:06.001Z</time></trkpt><trkpt lat="44.23656275064078" lon="12.21930051160066"><ele>10.0</ele><time>2026-04-26T09:09:07.001Z</time></trkpt><trkpt lat="44.2368049629035" lon="12.219254588364482"><ele>10.0</ele><time>2026-04-26T09:09:08.001Z</time></trkpt><trkpt lat="44.23704762522282" lon="12.219210297794994"><ele>10.0</ele><time>2026-04-26T09:09:09.001Z</time></trkpt><trkpt lat="44.23729520793595" lon="12.219165699040493"><ele>10.0</ele><time>2026-04-26T09:09:10.001Z</time></trkpt><trkpt lat="44.237543793347555" lon="12.219119820485824"><ele>11.5</ele><time>2026-04-26T09:09:11.001Z</time></trkpt><trkpt lat="44.237795621481986" lon="12.219079968661577"><ele>13.0</ele><time>2026-04-26T09:09:12.001Z</time></trkpt><trkpt lat="44.23804702292436" lon="12.21904826291568"><ele>12.0</ele><time>2026-04-26T09:09:13.001Z</time></trkpt><trkpt lat="44.23828054336032" lon="12.219010287227158"><ele>11.0</ele><time>2026-04-26T09:09:14.001Z</time></trkpt><trkpt lat="44.23850694770058" lon="12.218971480884363"><ele>11.0</ele><time>2026-04-26T09:09:15.001Z</time></trkpt><trkpt lat="44.238728858312754" lon="12.218934511706568"><ele>11.0</ele><time>2026-04-26T09:09:16.001Z</time></trkpt><trkpt lat="44.238954635608565" lon="12.218893119200542"><ele>10.5</ele><time>2026-04-26T09:09:17.001Z</time></trkpt><trkpt lat="44.23918725760005" lon="12.218849915670829"><ele>10.0</ele><time>2026-04-26T09:09:18.001Z</time></trkpt><trkpt lat="44.239427098668614" lon="12.218800283822258"><ele>10.0</ele><time>2026-04-26T09:09:19.001Z</time></trkpt><trkpt lat="44.23967702126235" lon="12.218751628193726"><ele>10.0</ele><time>2026-04-26T09:09:20.001Z</time></trkpt><trkpt lat="44.239932077902566" lon="12.2187084796191"><ele>10.0</ele><time>2026-04-26T09:09:21.001Z</time></trkpt><trkpt lat="44.2401868078511" lon="12.218672963431235"><ele>10.0</ele><time>2026-04-26T09:09:22.001Z</time></trkpt><trkpt lat="44.24044553519095" lon="12.218641080285424"><ele>10.0</ele><time>2026-04-26T09:09:23.001Z</time></trkpt><trkpt lat="44.240703758044845" lon="12.218613036630662"><ele>10.0</ele><time>2026-04-26T09:09:24.001Z</time></trkpt><trkpt lat="44.24096182008438" lon="12.21859057907966"><ele>10.0</ele><time>2026-04-26T09:09:25.001Z</time></trkpt><trkpt lat="44.241222537885406" lon="12.218568881437083"><ele>10.0</ele><time>2026-04-26T09:09:26.001Z</time></trkpt><trkpt lat="44.2414831616845" lon="12.218547889117435"><ele>10.0</ele><time>2026-04-26T09:09:27.001Z</time></trkpt><trkpt lat="44.24174490965239" lon="12.218521839846124"><ele>10.0</ele><time>2026-04-26T09:09:28.001Z</time></trkpt><trkpt lat="44.242006566747044" lon="12.218488881367216"><ele>10.0</ele><time>2026-04-26T09:09:29.001Z</time></trkpt><trkpt lat="44.24226854520161" lon="12.218455418121879"><ele>10.0</ele><time>2026-04-26T09:09:30.001Z</time></trkpt><trkpt lat="44.24253184270638" lon="12.218421352909068"><ele>9.5</ele><time>2026-04-26T09:09:31.001Z</time></trkpt><trkpt lat="44.24279466103678" lon="12.21839262760759"><ele>9.0</ele><time>2026-04-26T09:09:32.001Z</time></trkpt><trkpt lat="44.24305204976415" lon="12.21836403222712"><ele>9.5</ele><time>2026-04-26T09:09:33.001Z</time></trkpt><trkpt lat="44.24330625455042" lon="12.218333925608055"><ele>10.0</ele><time>2026-04-26T09:09:34.001Z</time></trkpt><trkpt lat="44.24355953789107" lon="12.218307752314809"><ele>10.0</ele><time>2026-04-26T09:09:35.001Z</time></trkpt><trkpt lat="44.243811597937956" lon="12.218282350961067"><ele>10.0</ele><time>2026-04-26T09:09:36.001Z</time></trkpt><trkpt lat="44.24406679776528" lon="12.218256796351785"><ele>10.0</ele><time>2026-04-26T09:09:37.001Z</time></trkpt><trkpt lat="44.24432132901802" lon="12.218229555645086"><ele>10.0</ele><time>2026-04-26T09:09:38.001Z</time></trkpt><trkpt lat="44.24457568904926" lon="12.218201077734646"><ele>9.5</ele><time>2026-04-26T09:09:39.001Z</time></trkpt><trkpt lat="44.24482819907629" lon="12.218175362620578"><ele>9.0</ele><time>2026-04-26T09:09:40.001Z</time></trkpt><trkpt lat="44.245082614599845" lon="12.218148371935767"><ele>8.5</ele><time>2026-04-26T09:09:41.001Z</time></trkpt><trkpt lat="44.245335045327444" lon="12.218125572304654"><ele>8.0</ele><time>2026-04-26T09:09:42.002Z</time></trkpt><trkpt lat="44.24558736417988" lon="12.21810468527326"><ele>9.0</ele><time>2026-04-26T09:09:43.002Z</time></trkpt><trkpt lat="44.24584116246732" lon="12.218083903244096"><ele>10.0</ele><time>2026-04-26T09:09:44.002Z</time></trkpt><trkpt lat="44.24609447094431" lon="12.218065330464622"><ele>10.0</ele><time>2026-04-26T09:09:45.002Z</time></trkpt><trkpt lat="44.24634543842341" lon="12.218042522898832"><ele>10.0</ele><time>2026-04-26T09:09:46.002Z</time></trkpt><trkpt lat="44.24659596617282" lon="12.218021691747108"><ele>9.5</ele><time>2026-04-26T09:09:47.002Z</time></trkpt><trkpt lat="44.24684377215144" lon="12.218001517880392"><ele>9.0</ele><time>2026-04-26T09:09:48.002Z</time></trkpt><trkpt lat="44.247090559990006" lon="12.217982115997923"><ele>9.5</ele><time>2026-04-26T09:09:49.002Z</time></trkpt><trkpt lat="44.24733719144491" lon="12.217964341299894"><ele>10.0</ele><time>2026-04-26T09:09:50.002Z</time></trkpt><trkpt lat="44.2475833727615" lon="12.217949365870098"><ele>10.0</ele><time>2026-04-26T09:09:51.002Z</time></trkpt><trkpt lat="44.24782672522817" lon="12.217934393568406"><ele>10.0</ele><time>2026-04-26T09:09:52.002Z</time></trkpt><trkpt lat="44.24807087600724" lon="12.217922589218581"><ele>9.5</ele><time>2026-04-26T09:09:53.002Z</time></trkpt><trkpt lat="44.248317455913735" lon="12.217912519429714"><ele>9.0</ele><time>2026-04-26T09:09:54.002Z</time></trkpt><trkpt lat="44.24856656324938" lon="12.217898974434913"><ele>9.0</ele><time>2026-04-26T09:09:55.002Z</time></trkpt><trkpt lat="44.248813768796154" lon="12.217883492288117"><ele>9.0</ele><time>2026-04-26T09:09:56.002Z</time></trkpt><trkpt lat="44.249061529450884" lon="12.21786896447413"><ele>8.5</ele><time>2026-04-26T09:09:57.002Z</time></trkpt><trkpt lat="44.24931220076327" lon="12.217854637171845"><ele>8.0</ele><time>2026-04-26T09:09:58.002Z</time></trkpt><trkpt lat="44.249561545665124" lon="12.217849022351572"><ele>8.0</ele><time>2026-04-26T09:09:59.002Z</time></trkpt><trkpt lat="44.24981276777482" lon="12.21784059524611"><ele>8.0</ele><time>2026-04-26T09:10:00.002Z</time></trkpt><trkpt lat="44.25006839407383" lon="12.217826546662064"><ele>8.0</ele><time>2026-04-26T09:10:01.002Z</time></trkpt><trkpt lat="44.250323940269695" lon="12.217815639786462"><ele>8.0</ele><time>2026-04-26T09:10:02.002Z</time></trkpt><trkpt lat="44.250577964741645" lon="12.217806442632236"><ele>7.0</ele><time>2026-04-26T09:10:03.002Z</time></trkpt><trkpt lat="44.25083042716498" lon="12.217796403845263"><ele>6.0</ele><time>2026-04-26T09:10:04.002Z</time></trkpt><trkpt lat="44.25108413182449" lon="12.217782079522841"><ele>6.0</ele><time>2026-04-26T09:10:05.002Z</time></trkpt><trkpt lat="44.25133593622565" lon="12.217770035539292"><ele>6.0</ele><time>2026-04-26T09:10:06.002Z</time></trkpt><trkpt lat="44.25158317727841" lon="12.21776002390722"><ele>6.5</ele><time>2026-04-26T09:10:07.002Z</time></trkpt><trkpt lat="44.2518295699864" lon="12.217750208141913"><ele>7.0</ele><time>2026-04-26T09:10:08.002Z</time></trkpt><trkpt lat="44.2520743049295" lon="12.21774206009057"><ele>7.5</ele><time>2026-04-26T09:10:09.002Z</time></trkpt><trkpt lat="44.252317074175885" lon="12.217734955940244"><ele>8.0</ele><time>2026-04-26T09:10:10.002Z</time></trkpt><trkpt lat="44.25256014082975" lon="12.217731031731407"><ele>8.0</ele><time>2026-04-26T09:10:11.002Z</time></trkpt><trkpt lat="44.25280293623423" lon="12.217731369864754"><ele>8.0</ele><time>2026-04-26T09:10:12.002Z</time></trkpt><trkpt lat="44.25304528262205" lon="12.217731303405758"><ele>7.5</ele><time>2026-04-26T09:10:13.002Z</time></trkpt><trkpt lat="44.25328398781327" lon="12.217729209997657"><ele>7.0</ele><time>2026-04-26T09:10:14.002Z</time></trkpt><trkpt lat="44.25352427857553" lon="12.21772391641982"><ele>7.0</ele><time>2026-04-26T09:10:15.002Z</time></trkpt><trkpt lat="44.25376370132769" lon="12.2177226186397"><ele>7.0</ele><time>2026-04-26T09:10:16.002Z</time></trkpt><trkpt lat="44.25400558189552" lon="12.217723657120585"><ele>7.5</ele><time>2026-04-26T09:10:17.002Z</time></trkpt><trkpt lat="44.254247310460435" lon="12.217723005681808"><ele>8.0</ele><time>2026-04-26T09:10:18.002Z</time></trkpt><trkpt lat="44.254487110619365" lon="12.217727376025476"><ele>8.0</ele><time>2026-04-26T09:10:19.002Z</time></trkpt><trkpt lat="44.254724651865125" lon="12.217734758951076"><ele>8.0</ele><time>2026-04-26T09:10:20.002Z</time></trkpt><trkpt lat="44.254963238069784" lon="12.217736643270184"><ele>8.5</ele><time>2026-04-26T09:10:21.002Z</time></trkpt><trkpt lat="44.25520286584285" lon="12.217731822718001"><ele>9.0</ele><time>2026-04-26T09:10:22.002Z</time></trkpt><trkpt lat="44.255447958492425" lon="12.217723293464912"><ele>8.0</ele><time>2026-04-26T09:10:23.002Z</time></trkpt><trkpt lat="44.25569573704754" lon="12.21772257905496"><ele>7.0</ele><time>2026-04-26T09:10:24.002Z</time></trkpt><trkpt lat="44.2559442861667" lon="12.217734596063469"><ele>7.0</ele><time>2026-04-26T09:10:25.002Z</time></trkpt><trkpt lat="44.25619201795663" lon="12.217748423544906"><ele>7.0</ele><time>2026-04-26T09:10:26.002Z</time></trkpt><trkpt lat="44.256440819615946" lon="12.217765586722711"><ele>7.0</ele><time>2026-04-26T09:10:27Z</time></trkpt><trkpt lat="44.25669208939873" lon="12.21778398871921"><ele>7.0</ele><time>2026-04-26T09:10:28Z</time></trkpt><trkpt lat="44.25694455634357" lon="12.21779936633627"><ele>7.0</ele><time>2026-04-26T09:10:29Z</time></trkpt><trkpt lat="44.25719739365812" lon="12.217820112285589"><ele>7.0</ele><time>2026-04-26T09:10:30Z</time></trkpt><trkpt lat="44.257453292195784" lon="12.217843783343241"><ele>7.0</ele><time>2026-04-26T09:10:31Z</time></trkpt><trkpt lat="44.25771318600406" lon="12.217864888214269"><ele>7.0</ele><time>2026-04-26T09:10:32Z</time></trkpt><trkpt lat="44.25797000571332" lon="12.21788087735909"><ele>7.0</ele><time>2026-04-26T09:10:33Z</time></trkpt><trkpt lat="44.2582290070828" lon="12.217897956514324"><ele>7.0</ele><time>2026-04-26T09:10:34Z</time></trkpt><trkpt lat="44.258486867423166" lon="12.217918720755506"><ele>7.0</ele><time>2026-04-26T09:10:35Z</time></trkpt><trkpt lat="44.25874556279943" lon="12.217937912925615"><ele>7.0</ele><time>2026-04-26T09:10:36Z</time></trkpt><trkpt lat="44.25900579323041" lon="12.217963383449122"><ele>7.0</ele><time>2026-04-26T09:10:37Z</time></trkpt><trkpt lat="44.25926875168009" lon="12.217991960220612"><ele>7.0</ele><time>2026-04-26T09:10:38Z</time></trkpt><trkpt lat="44.2595372192707" lon="12.218018641289285"><ele>6.5</ele><time>2026-04-26T09:10:39Z</time></trkpt><trkpt lat="44.2598071246437" lon="12.218055398343747"><ele>6.0</ele><time>2026-04-26T09:10:40Z</time></trkpt><trkpt lat="44.26007527198666" lon="12.21808966874871"><ele>6.0</ele><time>2026-04-26T09:10:41Z</time></trkpt><trkpt lat="44.260340527542716" lon="12.218125203971002"><ele>6.0</ele><time>2026-04-26T09:10:42Z</time></trkpt><trkpt lat="44.260603267975526" lon="12.218167324203659"><ele>5.5</ele><time>2026-04-26T09:10:43Z</time></trkpt><trkpt lat="44.26086500112462" lon="12.218205946838097"><ele>5.0</ele><time>2026-04-26T09:10:44Z</time></trkpt><trkpt lat="44.26112768543964" lon="12.218243154092677"><ele>5.0</ele><time>2026-04-26T09:10:45Z</time></trkpt><trkpt lat="44.26138979276596" lon="12.21828058217412"><ele>5.0</ele><time>2026-04-26T09:10:46Z</time></trkpt><trkpt lat="44.26165095797611" lon="12.21831503613989"><ele>5.0</ele><time>2026-04-26T09:10:47Z</time></trkpt><trkpt lat="44.26191888440393" lon="12.218356957682236"><ele>5.0</ele><time>2026-04-26T09:10:48Z</time></trkpt><trkpt lat="44.262197332524316" lon="12.218399405932356"><ele>5.5</ele><time>2026-04-26T09:10:49Z</time></trkpt><trkpt lat="44.26248243641671" lon="12.218443177975617"><ele>6.0</ele><time>2026-04-26T09:10:50Z</time></trkpt><trkpt lat="44.26277264417396" lon="12.218490905512052"><ele>6.0</ele><time>2026-04-26T09:10:51Z</time></trkpt><trkpt lat="44.26306510803535" lon="12.218545361691534"><ele>6.0</ele><time>2026-04-26T09:10:52Z</time></trkpt><trkpt lat="44.26335889458374" lon="12.218604843166998"><ele>5.5</ele><time>2026-04-26T09:10:53Z</time></trkpt><trkpt lat="44.26365316687019" lon="12.218665577012802"><ele>5.0</ele><time>2026-04-26T09:10:54Z</time></trkpt><trkpt lat="44.26394782375978" lon="12.218729283456062"><ele>5.0</ele><time>2026-04-26T09:10:55Z</time></trkpt><trkpt lat="44.26424195312632" lon="12.218801489757618"><ele>5.0</ele><time>2026-04-26T09:10:56Z</time></trkpt><trkpt lat="44.26453957108535" lon="12.21887446230134"><ele>4.5</ele><time>2026-04-26T09:10:57Z</time></trkpt><trkpt lat="44.26483320098858" lon="12.218947256956932"><ele>4.0</ele><time>2026-04-26T09:10:58Z</time></trkpt><trkpt lat="44.2651274540704" lon="12.21901122018677"><ele>4.0</ele><time>2026-04-26T09:10:59Z</time></trkpt><trkpt lat="44.2654184413082" lon="12.21907702881849"><ele>4.0</ele><time>2026-04-26T09:11:00Z</time></trkpt><trkpt lat="44.26571483380787" lon="12.219142710257241"><ele>4.0</ele><time>2026-04-26T09:11:01Z</time></trkpt><trkpt lat="44.26600977369191" lon="12.219210874872212"><ele>4.0</ele><time>2026-04-26T09:11:02.001Z</time></trkpt><trkpt lat="44.26630350583958" lon="12.219282845792064"><ele>4.0</ele><time>2026-04-26T09:11:03.001Z</time></trkpt><trkpt lat="44.26659305111067" lon="12.21936056944875"><ele>4.0</ele><time>2026-04-26T09:11:04.001Z</time></trkpt><trkpt lat="44.26688206327095" lon="12.219441742603133"><ele>4.0</ele><time>2026-04-26T09:11:05.001Z</time></trkpt><trkpt lat="44.267168891554356" lon="12.219519291502213"><ele>4.0</ele><time>2026-04-26T09:11:06.001Z</time></trkpt><trkpt lat="44.26745345180584" lon="12.219592006536002"><ele>4.0</ele><time>2026-04-26T09:11:07.001Z</time></trkpt><trkpt lat="44.26773391748819" lon="12.219663614154387"><ele>4.0</ele><time>2026-04-26T09:11:08.001Z</time></trkpt><trkpt lat="44.26801375772593" lon="12.219736285386288"><ele>4.5</ele><time>2026-04-26T09:11:09.001Z</time></trkpt><trkpt lat="44.26829126299283" lon="12.21980975615926"><ele>5.0</ele><time>2026-04-26T09:11:10.001Z</time></trkpt><trkpt lat="44.26856759476372" lon="12.21988367779804"><ele>5.0</ele><time>2026-04-26T09:11:11.001Z</time></trkpt><trkpt lat="44.26884322440571" lon="12.219954045282874"><ele>5.0</ele><time>2026-04-26T09:11:12.001Z</time></trkpt><trkpt lat="44.26911512976511" lon="12.220024101022135"><ele>5.0</ele><time>2026-04-26T09:11:13.001Z</time></trkpt><trkpt lat="44.26938644827187" lon="12.220102463638543"><ele>5.0</ele><time>2026-04-26T09:11:14.001Z</time></trkpt><trkpt lat="44.269655827721415" lon="12.220183185866222"><ele>5.5</ele><time>2026-04-26T09:11:15.001Z</time></trkpt><trkpt lat="44.26992246691621" lon="12.220257993472803"><ele>6.0</ele><time>2026-04-26T09:11:16.001Z</time></trkpt><trkpt lat="44.2701891072271" lon="12.220326296104723"><ele>6.0</ele><time>2026-04-26T09:11:17.001Z</time></trkpt><trkpt lat="44.27045266907888" lon="12.220394529962642"><ele>6.0</ele><time>2026-04-26T09:11:18.001Z</time></trkpt><trkpt lat="44.27071648204553" lon="12.220463369656258"><ele>5.5</ele><time>2026-04-26T09:11:19.001Z</time></trkpt><trkpt lat="44.27098551305125" lon="12.2205321034023"><ele>5.0</ele><time>2026-04-26T09:11:20.001Z</time></trkpt><trkpt lat="44.27125089046455" lon="12.22060547276122"><ele>4.5</ele><time>2026-04-26T09:11:21.001Z</time></trkpt><trkpt lat="44.27151663940213" lon="12.220680812500428"><ele>4.0</ele><time>2026-04-26T09:11:22.001Z</time></trkpt><trkpt lat="44.27178093157151" lon="12.220753430770916"><ele>4.0</ele><time>2026-04-26T09:11:23.001Z</time></trkpt><trkpt lat="44.272043998928396" lon="12.220820679692233"><ele>4.0</ele><time>2026-04-26T09:11:24.001Z</time></trkpt><trkpt lat="44.27230584906913" lon="12.22089049627687"><ele>4.0</ele><time>2026-04-26T09:11:25.001Z</time></trkpt><trkpt lat="44.27256965154056" lon="12.220960601785098"><ele>4.0</ele><time>2026-04-26T09:11:26.001Z</time></trkpt><trkpt lat="44.27283275885622" lon="12.22103805899897"><ele>4.0</ele><time>2026-04-26T09:11:27.001Z</time></trkpt><trkpt lat="44.27309238020517" lon="12.221109873119469"><ele>4.0</ele><time>2026-04-26T09:11:28.001Z</time></trkpt><trkpt lat="44.27335201349479" lon="12.22117609372914"><ele>4.5</ele><time>2026-04-26T09:11:29.001Z</time></trkpt><trkpt lat="44.273607136466936" lon="12.221234633143478"><ele>5.0</ele><time>2026-04-26T09:11:30.001Z</time></trkpt><trkpt lat="44.27386536214526" lon="12.221290943493198"><ele>5.0</ele><time>2026-04-26T09:11:31.001Z</time></trkpt><trkpt lat="44.27411632557857" lon="12.221354774851525"><ele>5.0</ele><time>2026-04-26T09:11:32.001Z</time></trkpt><trkpt lat="44.274369941028674" lon="12.221410623769858"><ele>5.0</ele><time>2026-04-26T09:11:33.001Z</time></trkpt><trkpt lat="44.274623301604585" lon="12.221466004482535"><ele>5.0</ele><time>2026-04-26T09:11:34.001Z</time></trkpt><trkpt lat="44.27487804177925" lon="12.22152177665981"><ele>4.5</ele><time>2026-04-26T09:11:35.001Z</time></trkpt><trkpt lat="44.27513268240227" lon="12.221573600793523"><ele>4.0</ele><time>2026-04-26T09:11:36.001Z</time></trkpt><trkpt lat="44.27538885849482" lon="12.221624611984378"><ele>3.5</ele><time>2026-04-26T09:11:37.001Z</time></trkpt><trkpt lat="44.27564544830719" lon="12.221674630384404"><ele>3.0</ele><time>2026-04-26T09:11:38.001Z</time></trkpt><trkpt lat="44.27590402633182" lon="12.221718337947372"><ele>3.0</ele><time>2026-04-26T09:11:39.001Z</time></trkpt><trkpt lat="44.27616367774629" lon="12.221756298026282"><ele>3.0</ele><time>2026-04-26T09:11:40.001Z</time></trkpt><trkpt lat="44.27642761469504" lon="12.221793748537262"><ele>3.5</ele><time>2026-04-26T09:11:41.001Z</time></trkpt><trkpt lat="44.27668772493178" lon="12.221825947676528"><ele>4.0</ele><time>2026-04-26T09:11:42.001Z</time></trkpt><trkpt lat="44.27695139677343" lon="12.221859546287801"><ele>4.0</ele><time>2026-04-26T09:11:43.001Z</time></trkpt><trkpt lat="44.27721420485714" lon="12.221889824830368"><ele>4.0</ele><time>2026-04-26T09:11:44.001Z</time></trkpt><trkpt lat="44.27747707661229" lon="12.221921243383242"><ele>4.0</ele><time>2026-04-26T09:11:45.001Z</time></trkpt><trkpt lat="44.27773995963997" lon="12.221946478332166"><ele>4.0</ele><time>2026-04-26T09:11:46.001Z</time></trkpt><trkpt lat="44.27800280365061" lon="12.221971563333781"><ele>4.0</ele><time>2026-04-26T09:11:47.001Z</time></trkpt><trkpt lat="44.27826499658665" lon="12.22199006147916"><ele>4.0</ele><time>2026-04-26T09:11:48.001Z</time></trkpt><trkpt lat="44.278528380702426" lon="12.222008982066374"><ele>4.0</ele><time>2026-04-26T09:11:49.001Z</time></trkpt><trkpt lat="44.27878977600164" lon="12.222023908832508"><ele>4.0</ele><time>2026-04-26T09:11:50.001Z</time></trkpt><trkpt lat="44.27905195540685" lon="12.222038268677682"><ele>2.5</ele><time>2026-04-26T09:11:51.001Z</time></trkpt><trkpt lat="44.27931619688188" lon="12.222047538522428"><ele>1.0</ele><time>2026-04-26T09:11:52.001Z</time></trkpt><trkpt lat="44.27958225320008" lon="12.22205193806135"><ele>1.5</ele><time>2026-04-26T09:11:53.001Z</time></trkpt><trkpt lat="44.279846247962006" lon="12.222056716848375"><ele>2.0</ele><time>2026-04-26T09:11:54.001Z</time></trkpt><trkpt lat="44.280111486978704" lon="12.222058520682216"><ele>2.0</ele><time>2026-04-26T09:11:55.001Z</time></trkpt><trkpt lat="44.28037667742449" lon="12.222054183509306"><ele>2.0</ele><time>2026-04-26T09:11:56.001Z</time></trkpt><trkpt lat="44.280640465253825" lon="12.222047804909277"><ele>3.5</ele><time>2026-04-26T09:11:57.001Z</time></trkpt><trkpt lat="44.280903892164645" lon="12.222038772725977"><ele>5.0</ele><time>2026-04-26T09:11:58.001Z</time></trkpt><trkpt lat="44.281167336628094" lon="12.222024296242221"><ele>5.0</ele><time>2026-04-26T09:11:59.001Z</time></trkpt><trkpt lat="44.28142672239176" lon="12.222009222429143"><ele>5.0</ele><time>2026-04-26T09:12:00.002Z</time></trkpt><trkpt lat="44.281685206652654" lon="12.22199242886463"><ele>3.5</ele><time>2026-04-26T09:12:01.002Z</time></trkpt><trkpt lat="44.28194371913444" lon="12.221971316411206"><ele>2.0</ele><time>2026-04-26T09:12:02.002Z</time></trkpt><trkpt lat="44.28220328982975" lon="12.221945659592361"><ele>1.5</ele><time>2026-04-26T09:12:03.002Z</time></trkpt><trkpt lat="44.28246197685124" lon="12.221919035317455"><ele>1.0</ele><time>2026-04-26T09:12:04.002Z</time></trkpt><trkpt lat="44.28272146230579" lon="12.221894265853843"><ele>1.0</ele><time>2026-04-26T09:12:05.002Z</time></trkpt><trkpt lat="44.282977264881396" lon="12.221865780804274"><ele>1.0</ele><time>2026-04-26T09:12:06.002Z</time></trkpt><trkpt lat="44.28323215326992" lon="12.22183445708443"><ele>0.5</ele><time>2026-04-26T09:12:07.002Z</time></trkpt><trkpt lat="44.28348474881955" lon="12.221803518672516"><ele>0.0</ele><time>2026-04-26T09:12:08.002Z</time></trkpt><trkpt lat="44.28373803578652" lon="12.221765491957726"><ele>-0.5</ele><time>2026-04-26T09:12:09.002Z</time></trkpt><trkpt lat="44.28398840930147" lon="12.22172742691416"><ele>-1.0</ele><time>2026-04-26T09:12:10.002Z</time></trkpt><trkpt lat="44.28424020700716" lon="12.221686004749401"><ele>-1.0</ele><time>2026-04-26T09:12:11.002Z</time></trkpt><trkpt lat="44.284490796309065" lon="12.221642597889158"><ele>-1.0</ele><time>2026-04-26T09:12:12.002Z</time></trkpt><trkpt lat="44.284741679175745" lon="12.221589656256837"><ele>0.0</ele><time>2026-04-26T09:12:13.002Z</time></trkpt><trkpt lat="44.28499977117682" lon="12.221537083840657"><ele>1.0</ele><time>2026-04-26T09:12:14.002Z</time></trkpt><trkpt lat="44.28526125206209" lon="12.221482826952942"><ele>1.0</ele><time>2026-04-26T09:12:15.002Z</time></trkpt><trkpt lat="44.28552348611041" lon="12.221428786096103"><ele>1.0</ele><time>2026-04-26T09:12:16.002Z</time></trkpt><trkpt lat="44.285783718951606" lon="12.221366049352424"><ele>1.5</ele><time>2026-04-26T09:12:17.002Z</time></trkpt><trkpt lat="44.28604592295703" lon="12.221302886646344"><ele>2.0</ele><time>2026-04-26T09:12:18.002Z</time></trkpt><trkpt lat="44.28630969238684" lon="12.221233650022688"><ele>1.5</ele><time>2026-04-26T09:12:19.002Z</time></trkpt><trkpt lat="44.28657087684626" lon="12.221167000126185"><ele>1.0</ele><time>2026-04-26T09:12:20.002Z</time></trkpt><trkpt lat="44.28683073389786" lon="12.221098008737826"><ele>1.0</ele><time>2026-04-26T09:12:21.002Z</time></trkpt><trkpt lat="44.287092191914866" lon="12.221023357947367"><ele>1.0</ele><time>2026-04-26T09:12:22.002Z</time></trkpt><trkpt lat="44.28735151821098" lon="12.220950152466887"><ele>0.0</ele><time>2026-04-26T09:12:23.002Z</time></trkpt><trkpt lat="44.287610942283195" lon="12.220874715824282"><ele>-1.0</ele><time>2026-04-26T09:12:24.002Z</time></trkpt><trkpt lat="44.28787063969878" lon="12.220792451893944"><ele>-1.0</ele><time>2026-04-26T09:12:25.002Z</time></trkpt><trkpt lat="44.28812954814289" lon="12.220707811588774"><ele>-1.0</ele><time>2026-04-26T09:12:26.002Z</time></trkpt><trkpt lat="44.28838736362994" lon="12.220620493819371"><ele>-1.0</ele><time>2026-04-26T09:12:27.002Z</time></trkpt><trkpt lat="44.28864553680539" lon="12.220532672164019"><ele>-1.0</ele><time>2026-04-26T09:12:28.002Z</time></trkpt><trkpt lat="44.288906537765634" lon="12.220445383150793"><ele>-1.0</ele><time>2026-04-26T09:12:29.002Z</time></trkpt><trkpt lat="44.2891667502805" lon="12.220352219358709"><ele>-1.0</ele><time>2026-04-26T09:12:30.002Z</time></trkpt><trkpt lat="44.28942731293362" lon="12.220260468775486"><ele>-1.0</ele><time>2026-04-26T09:12:31.002Z</time></trkpt><trkpt lat="44.28968614027281" lon="12.220164070082754"><ele>-1.0</ele><time>2026-04-26T09:12:32.002Z</time></trkpt><trkpt lat="44.28994631470359" lon="12.220066890401243"><ele>-1.0</ele><time>2026-04-26T09:12:33.001Z</time></trkpt><trkpt lat="44.29020976121743" lon="12.219967609094718"><ele>-1.0</ele><time>2026-04-26T09:12:34.001Z</time></trkpt><trkpt lat="44.29047144605294" lon="12.219867617631257"><ele>-1.0</ele><time>2026-04-26T09:12:35.001Z</time></trkpt><trkpt lat="44.29073384255115" lon="12.219769957069163"><ele>-1.0</ele><time>2026-04-26T09:12:36.001Z</time></trkpt><trkpt lat="44.290999659906035" lon="12.21967149445306"><ele>-1.0</ele><time>2026-04-26T09:12:37Z</time></trkpt><trkpt lat="44.29126540973846" lon="12.219572798372717"><ele>-1.0</ele><time>2026-04-26T09:12:38Z</time></trkpt><trkpt lat="44.29153306773149" lon="12.219474803347417"><ele>-1.0</ele><time>2026-04-26T09:12:39Z</time></trkpt><trkpt lat="44.291802505089834" lon="12.219374430138542"><ele>-1.0</ele><time>2026-04-26T09:12:40Z</time></trkpt><trkpt lat="44.292072557668206" lon="12.21927237254048"><ele>-1.0</ele><time>2026-04-26T09:12:41Z</time></trkpt><trkpt lat="44.292342486852235" lon="12.219171183778755"><ele>-1.0</ele><time>2026-04-26T09:12:42Z</time></trkpt><trkpt lat="44.292612068823736" lon="12.219069383515583"><ele>-1.0</ele><time>2026-04-26T09:12:43Z</time></trkpt><trkpt lat="44.29288128271402" lon="12.218968690283978"><ele>-1.0</ele><time>2026-04-26T09:12:44Z</time></trkpt><trkpt lat="44.293152473644874" lon="12.218869451492418"><ele>-0.5</ele><time>2026-04-26T09:12:45Z</time></trkpt><trkpt lat="44.29342236547054" lon="12.21876998874819"><ele>0.0</ele><time>2026-04-26T09:12:46Z</time></trkpt><trkpt lat="44.293694018320174" lon="12.21866939064505"><ele>0.0</ele><time>2026-04-26T09:12:47Z</time></trkpt><trkpt lat="44.2939641363411" lon="12.218569857168426"><ele>0.0</ele><time>2026-04-26T09:12:48Z</time></trkpt><trkpt lat="44.2942313336333" lon="12.218473932742322"><ele>0.0</ele><time>2026-04-26T09:12:49Z</time></trkpt><trkpt lat="44.29449877345115" lon="12.218379444585711"><ele>0.0</ele><time>2026-04-26T09:12:50Z</time></trkpt><trkpt lat="44.29476474770037" lon="12.218290560226315"><ele>-0.5</ele><time>2026-04-26T09:12:51Z</time></trkpt><trkpt lat="44.29503463415439" lon="12.218202169789052"><ele>-1.0</ele><time>2026-04-26T09:12:52Z</time></trkpt><trkpt lat="44.29530391764864" lon="12.218113714887233"><ele>-1.0</ele><time>2026-04-26T09:12:53Z</time></trkpt><trkpt lat="44.29557398699915" lon="12.218027982731984"><ele>-1.0</ele><time>2026-04-26T09:12:54Z</time></trkpt><trkpt lat="44.29584499547156" lon="12.217939706345009"><ele>-1.5</ele><time>2026-04-26T09:12:55Z</time></trkpt><trkpt lat="44.296115060034126" lon="12.217856284219637"><ele>-2.0</ele><time>2026-04-26T09:12:56Z</time></trkpt><trkpt lat="44.29638672378172" lon="12.217775497178474"><ele>-1.5</ele><time>2026-04-26T09:12:57Z</time></trkpt><trkpt lat="44.29665587941433" lon="12.217697412194244"><ele>-1.0</ele><time>2026-04-26T09:12:58Z</time></trkpt><trkpt lat="44.29692496082443" lon="12.217615998693526"><ele>-1.0</ele><time>2026-04-26T09:12:59Z</time></trkpt><trkpt lat="44.29719699884314" lon="12.217534589856774"><ele>-1.0</ele><time>2026-04-26T09:13:00Z</time></trkpt><trkpt lat="44.29747001542405" lon="12.217452727803838"><ele>-0.5</ele><time>2026-04-26T09:13:01Z</time></trkpt><trkpt lat="44.29774030076515" lon="12.21737427907758"><ele>0.0</ele><time>2026-04-26T09:13:02Z</time></trkpt><trkpt lat="44.298011066944746" lon="12.217301191596693"><ele>0.0</ele><time>2026-04-26T09:13:03Z</time></trkpt><trkpt lat="44.29828319891639" lon="12.217229556882835"><ele>0.0</ele><time>2026-04-26T09:13:04.001Z</time></trkpt><trkpt lat="44.29855705315722" lon="12.217159505288716"><ele>0.0</ele><time>2026-04-26T09:13:05.001Z</time></trkpt><trkpt lat="44.29882863126001" lon="12.217089217392374"><ele>0.0</ele><time>2026-04-26T09:13:06.001Z</time></trkpt><trkpt lat="44.29910012625165" lon="12.217020109354563"><ele>0.0</ele><time>2026-04-26T09:13:07.001Z</time></trkpt><trkpt lat="44.29937072009046" lon="12.216952248804432"><ele>0.0</ele><time>2026-04-26T09:13:08.001Z</time></trkpt><trkpt lat="44.29963968285139" lon="12.216888210904141"><ele>0.5</ele><time>2026-04-26T09:13:09.001Z</time></trkpt><trkpt lat="44.29991024086577" lon="12.216825245386783"><ele>1.0</ele><time>2026-04-26T09:13:10.001Z</time></trkpt><trkpt lat="44.300180291466944" lon="12.216765554703075"><ele>1.0</ele><time>2026-04-26T09:13:11.001Z</time></trkpt><trkpt lat="44.30044881092806" lon="12.216707260087077"><ele>1.0</ele><time>2026-04-26T09:13:12.001Z</time></trkpt><trkpt lat="44.30071889755335" lon="12.2166454471379"><ele>0.5</ele><time>2026-04-26T09:13:13.001Z</time></trkpt><trkpt lat="44.30098895946183" lon="12.216585073769599"><ele>0.0</ele><time>2026-04-26T09:13:14.001Z</time></trkpt><trkpt lat="44.30125608044507" lon="12.21652625454501"><ele>-0.5</ele><time>2026-04-26T09:13:15.001Z</time></trkpt><trkpt lat="44.30152500892581" lon="12.216468855647344"><ele>-1.0</ele><time>2026-04-26T09:13:16.001Z</time></trkpt><trkpt lat="44.30179427137965" lon="12.21641564155935"><ele>-1.0</ele><time>2026-04-26T09:13:17.001Z</time></trkpt><trkpt lat="44.30206259381257" lon="12.216366807046446"><ele>-1.0</ele><time>2026-04-26T09:13:18.001Z</time></trkpt><trkpt lat="44.30233028713686" lon="12.21632154374194"><ele>-0.5</ele><time>2026-04-26T09:13:19.001Z</time></trkpt><trkpt lat="44.302595954138305" lon="12.216275228909323"><ele>0.0</ele><time>2026-04-26T09:13:20.001Z</time></trkpt><trkpt lat="44.3028601107284" lon="12.216227593193354"><ele>0.0</ele><time>2026-04-26T09:13:21.001Z</time></trkpt><trkpt lat="44.30312373532089" lon="12.216179369653677"><ele>0.0</ele><time>2026-04-26T09:13:22.001Z</time></trkpt><trkpt lat="44.30338703627845" lon="12.216134652861257"><ele>0.0</ele><time>2026-04-26T09:13:23.001Z</time></trkpt><trkpt lat="44.30365176185344" lon="12.21609364055479"><ele>0.0</ele><time>2026-04-26T09:13:24.001Z</time></trkpt><trkpt lat="44.30391459606865" lon="12.216056441167712"><ele>-0.5</ele><time>2026-04-26T09:13:25.001Z</time></trkpt><trkpt lat="44.30417787090459" lon="12.216019089196182"><ele>-1.0</ele><time>2026-04-26T09:13:26.001Z</time></trkpt><trkpt lat="44.30443768651524" lon="12.215980190533772"><ele>-1.0</ele><time>2026-04-26T09:13:27.001Z</time></trkpt><trkpt lat="44.30470140560937" lon="12.215941465178366"><ele>-1.0</ele><time>2026-04-26T09:13:28.001Z</time></trkpt><trkpt lat="44.30496612393821" lon="12.215903162077902"><ele>-0.5</ele><time>2026-04-26T09:13:29.001Z</time></trkpt><trkpt lat="44.30523135019936" lon="12.21586813540947"><ele>0.0</ele><time>2026-04-26T09:13:30.001Z</time></trkpt><trkpt lat="44.30549609806109" lon="12.215834650450212"><ele>0.5</ele><time>2026-04-26T09:13:31.001Z</time></trkpt><trkpt lat="44.30576273255509" lon="12.215804566704476"><ele>1.0</ele><time>2026-04-26T09:13:32.001Z</time></trkpt><trkpt lat="44.30602881650025" lon="12.215773559887692"><ele>1.0</ele><time>2026-04-26T09:13:33.001Z</time></trkpt><trkpt lat="44.306290270237035" lon="12.215744032110269"><ele>1.0</ele><time>2026-04-26T09:13:34.001Z</time></trkpt><trkpt lat="44.30656020086992" lon="12.21571775810917"><ele>-0.5</ele><time>2026-04-26T09:13:35.001Z</time></trkpt><trkpt lat="44.30682935500914" lon="12.21569460284703"><ele>-2.0</ele><time>2026-04-26T09:13:36.001Z</time></trkpt><trkpt lat="44.3070996943071" lon="12.215671957558946"><ele>-2.0</ele><time>2026-04-26T09:13:37.001Z</time></trkpt><trkpt lat="44.307368990468404" lon="12.215652425348472"><ele>-2.0</ele><time>2026-04-26T09:13:38.001Z</time></trkpt><trkpt lat="44.30764341254438" lon="12.215630424511552"><ele>-2.0</ele><time>2026-04-26T09:13:39.001Z</time></trkpt><trkpt lat="44.30791357497557" lon="12.215611757124782"><ele>-2.0</ele><time>2026-04-26T09:13:40.001Z</time></trkpt><trkpt lat="44.30818388407451" lon="12.21559133990105"><ele>-1.5</ele><time>2026-04-26T09:13:41.001Z</time></trkpt><trkpt lat="44.3084540046233" lon="12.215570199905125"><ele>-1.0</ele><time>2026-04-26T09:13:42.001Z</time></trkpt><trkpt lat="44.30872547910249" lon="12.21555088884183"><ele>-1.5</ele><time>2026-04-26T09:13:43.001Z</time></trkpt><trkpt lat="44.30899745626512" lon="12.215529332868428"><ele>-2.0</ele><time>2026-04-26T09:13:44.001Z</time></trkpt><trkpt lat="44.30926973312712" lon="12.215514576016105"><ele>-2.0</ele><time>2026-04-26T09:13:45.001Z</time></trkpt><trkpt lat="44.309540492467264" lon="12.21550462047483"><ele>-2.0</ele><time>2026-04-26T09:13:46.001Z</time></trkpt><trkpt lat="44.3098116546143" lon="12.21549840032585"><ele>-2.0</ele><time>2026-04-26T09:13:47.001Z</time></trkpt><trkpt lat="44.31008366032034" lon="12.215487782442016"><ele>-2.0</ele><time>2026-04-26T09:13:48.001Z</time></trkpt><trkpt lat="44.31035257116633" lon="12.215480171962527"><ele>-1.5</ele><time>2026-04-26T09:13:49.001Z</time></trkpt><trkpt lat="44.31062209758642" lon="12.215465152961965"><ele>-1.0</ele><time>2026-04-26T09:13:50.001Z</time></trkpt><trkpt lat="44.310891087628825" lon="12.215453655403373"><ele>-1.0</ele><time>2026-04-26T09:13:51.001Z</time></trkpt><trkpt lat="44.31115612296933" lon="12.2154414020551"><ele>-1.0</ele><time>2026-04-26T09:13:52.001Z</time></trkpt><trkpt lat="44.311422442442144" lon="12.215432854490741"><ele>-1.5</ele><time>2026-04-26T09:13:53.001Z</time></trkpt><trkpt lat="44.311688365706566" lon="12.215422195837105"><ele>-2.0</ele><time>2026-04-26T09:13:54.001Z</time></trkpt><trkpt lat="44.311956079077774" lon="12.21541780250355"><ele>-2.0</ele><time>2026-04-26T09:13:55.001Z</time></trkpt><trkpt lat="44.31222143203495" lon="12.215416358826634"><ele>-2.0</ele><time>2026-04-26T09:13:56.001Z</time></trkpt><trkpt lat="44.312488863016185" lon="12.215419139299536"><ele>-2.0</ele><time>2026-04-26T09:13:57.001Z</time></trkpt><trkpt lat="44.31275567834964" lon="12.215421019798098"><ele>-2.0</ele><time>2026-04-26T09:13:58.001Z</time></trkpt><trkpt lat="44.31302369267588" lon="12.21541909976327"><ele>-1.0</ele><time>2026-04-26T09:13:59.001Z</time></trkpt><trkpt lat="44.31329111738525" lon="12.215413829567511"><ele>0.0</ele><time>2026-04-26T09:14:00.001Z</time></trkpt><trkpt lat="44.313560795431236" lon="12.215404088940168"><ele>0.0</ele><time>2026-04-26T09:14:01.001Z</time></trkpt><trkpt lat="44.31383026140757" lon="12.215386703010346"><ele>0.0</ele><time>2026-04-26T09:14:02.001Z</time></trkpt><trkpt lat="44.31410405370376" lon="12.215383002433544"><ele>-0.5</ele><time>2026-04-26T09:14:03.001Z</time></trkpt><trkpt lat="44.31437575645804" lon="12.215385218190303"><ele>-1.0</ele><time>2026-04-26T09:14:04.001Z</time></trkpt><trkpt lat="44.31464888870537" lon="12.215384625453144"><ele>-1.0</ele><time>2026-04-26T09:14:05.001Z</time></trkpt><trkpt lat="44.31492039148206" lon="12.215391218964948"><ele>-1.0</ele><time>2026-04-26T09:14:06.001Z</time></trkpt><trkpt lat="44.31519175469917" lon="12.215400273944935"><ele>-1.0</ele><time>2026-04-26T09:14:07.001Z</time></trkpt><trkpt lat="44.31546546007024" lon="12.215412087266776"><ele>-1.0</ele><time>2026-04-26T09:14:08.001Z</time></trkpt><trkpt lat="44.31573565858347" lon="12.215424560800972"><ele>-1.0</ele><time>2026-04-26T09:14:09.002Z</time></trkpt><trkpt lat="44.316007118746676" lon="12.215424759487071"><ele>-1.0</ele><time>2026-04-26T09:14:10.002Z</time></trkpt><trkpt lat="44.31628021707473" lon="12.215424800965387"><ele>-1.0</ele><time>2026-04-26T09:14:11.002Z</time></trkpt><trkpt lat="44.31655064991757" lon="12.215422644885363"><ele>-1.0</ele><time>2026-04-26T09:14:12.002Z</time></trkpt><trkpt lat="44.31681949979529" lon="12.215422361453872"><ele>-1.0</ele><time>2026-04-26T09:14:13.002Z</time></trkpt><trkpt lat="44.317086900005435" lon="12.215423226357537"><ele>-1.0</ele><time>2026-04-26T09:14:14.002Z</time></trkpt><trkpt lat="44.317354046234726" lon="12.215425135549047"><ele>-0.5</ele><time>2026-04-26T09:14:15.002Z</time></trkpt><trkpt lat="44.31761792221537" lon="12.215427163626398"><ele>0.0</ele><time>2026-04-26T09:14:16.002Z</time></trkpt><trkpt lat="44.3178818417744" lon="12.215425801772437"><ele>0.0</ele><time>2026-04-26T09:14:17.002Z</time></trkpt><trkpt lat="44.31814528849124" lon="12.215423575937093"><ele>0.0</ele><time>2026-04-26T09:14:18.002Z</time></trkpt><trkpt lat="44.318408401923705" lon="12.215416159481828"><ele>0.0</ele><time>2026-04-26T09:14:19.002Z</time></trkpt><trkpt lat="44.31867043336367" lon="12.215408359673393"><ele>0.0</ele><time>2026-04-26T09:14:20.002Z</time></trkpt><trkpt lat="44.31892937756172" lon="12.21540291083956"><ele>0.5</ele><time>2026-04-26T09:14:21.002Z</time></trkpt><trkpt lat="44.31918740929316" lon="12.215385410468414"><ele>1.0</ele><time>2026-04-26T09:14:22.002Z</time></trkpt><trkpt lat="44.31944350333617" lon="12.215369492270318"><ele>1.0</ele><time>2026-04-26T09:14:23.002Z</time></trkpt><trkpt lat="44.319696959341776" lon="12.215352365809768"><ele>1.0</ele><time>2026-04-26T09:14:24.002Z</time></trkpt><trkpt lat="44.319956734281966" lon="12.215335282713149"><ele>0.5</ele><time>2026-04-26T09:14:25.002Z</time></trkpt><trkpt lat="44.32020544793278" lon="12.215328636157162"><ele>0.0</ele><time>2026-04-26T09:14:26.002Z</time></trkpt><trkpt lat="44.320445127867124" lon="12.215320928512137"><ele>0.0</ele><time>2026-04-26T09:14:27.002Z</time></trkpt><trkpt lat="44.32068961613287" lon="12.215306853282039"><ele>0.0</ele><time>2026-04-26T09:14:28.002Z</time></trkpt><trkpt lat="44.32093390098947" lon="12.215288484332"><ele>0.0</ele><time>2026-04-26T09:14:29.002Z</time></trkpt><trkpt lat="44.32117530567752" lon="12.215269599016848"><ele>0.0</ele><time>2026-04-26T09:14:30.002Z</time></trkpt><trkpt lat="44.3214108836672" lon="12.21524998026229"><ele>1.5</ele><time>2026-04-26T09:14:31.002Z</time></trkpt><trkpt lat="44.32164904826565" lon="12.215235762407469"><ele>3.0</ele><time>2026-04-26T09:14:32.002Z</time></trkpt><trkpt lat="44.32188418790856" lon="12.21522302723859"><ele>3.0</ele><time>2026-04-26T09:14:33.002Z</time></trkpt><trkpt lat="44.322119722694104" lon="12.215208881007227"><ele>3.0</ele><time>2026-04-26T09:14:34.002Z</time></trkpt><trkpt lat="44.322357900511534" lon="12.215187602098647"><ele>2.0</ele><time>2026-04-26T09:14:35.002Z</time></trkpt><trkpt lat="44.322597177726806" lon="12.215161046209916"><ele>1.0</ele><time>2026-04-26T09:14:36.002Z</time></trkpt><trkpt lat="44.32284008396279" lon="12.215137679146624"><ele>0.0</ele><time>2026-04-26T09:14:37.002Z</time></trkpt><trkpt lat="44.32308050907854" lon="12.215116558958417"><ele>-1.0</ele><time>2026-04-26T09:14:38.002Z</time></trkpt><trkpt lat="44.3233190457151" lon="12.21509573772554"><ele>-1.0</ele><time>2026-04-26T09:14:39.001Z</time></trkpt><trkpt lat="44.32355809417253" lon="12.215069962350805"><ele>-1.0</ele><time>2026-04-26T09:14:40.001Z</time></trkpt><trkpt lat="44.323794671892436" lon="12.215043714887393"><ele>-1.0</ele><time>2026-04-26T09:14:41.001Z</time></trkpt><trkpt lat="44.32401962461836" lon="12.215013851433785"><ele>-1.0</ele><time>2026-04-26T09:14:42.001Z</time></trkpt><trkpt lat="44.32422889519484" lon="12.214986196876405"><ele>-1.0</ele><time>2026-04-26T09:14:43.001Z</time></trkpt><trkpt lat="44.3244271718341" lon="12.21495596957365"><ele>-1.0</ele><time>2026-04-26T09:14:44.001Z</time></trkpt><trkpt lat="44.32461587011904" lon="12.214929514585458"><ele>-1.0</ele><time>2026-04-26T09:14:45.001Z</time></trkpt><trkpt lat="44.32478378777585" lon="12.214909706546704"><ele>-1.0</ele><time>2026-04-26T09:14:46Z</time></trkpt><trkpt lat="44.324943504533636" lon="12.214890824889824"><ele>-1.0</ele><time>2026-04-26T09:14:47Z</time></trkpt><trkpt lat="44.32509651721205" lon="12.214871607205058"><ele>-1.0</ele><time>2026-04-26T09:14:48Z</time></trkpt><trkpt lat="44.325234553622266" lon="12.21485079160576"><ele>-1.0</ele><time>2026-04-26T09:14:49Z</time></trkpt><trkpt lat="44.32536745258273" lon="12.214835099013849"><ele>-1.0</ele><time>2026-04-26T09:14:50Z</time></trkpt><trkpt lat="44.32550141266759" lon="12.214818697030465"><ele>-1.25</ele><time>2026-04-26T09:14:51Z</time></trkpt><trkpt lat="44.32563864937637" lon="12.214781077186608"><ele>-1.5</ele><time>2026-04-26T09:14:52Z</time></trkpt><trkpt lat="44.32578374553234" lon="12.214729523247877"><ele>-1.75</ele><time>2026-04-26T09:14:53Z</time></trkpt><trkpt lat="44.32593878179058" lon="12.214689271413146"><ele>-2.0</ele><time>2026-04-26T09:14:54Z</time></trkpt><trkpt lat="44.32611067329516" lon="12.214664709212087"><ele>-2.0</ele><time>2026-04-26T09:14:55Z</time></trkpt><trkpt lat="44.32628845745812" lon="12.214639460102322"><ele>-2.0</ele><time>2026-04-26T09:14:56Z</time></trkpt><trkpt lat="44.32647648108943" lon="12.214608179919354"><ele>-2.0</ele><time>2026-04-26T09:14:57Z</time></trkpt><trkpt lat="44.32667481811197" lon="12.21457641225904"><ele>-2.0</ele><time>2026-04-26T09:14:58Z</time></trkpt><trkpt lat="44.3268793263369" lon="12.214544722658768"><ele>-2.0</ele><time>2026-04-26T09:14:59Z</time></trkpt><trkpt lat="44.32708511881612" lon="12.214504712457899"><ele>-2.0</ele><time>2026-04-26T09:15:00Z</time></trkpt><trkpt lat="44.32729685417454" lon="12.214465921006322"><ele>-1.6666666666666665</ele><time>2026-04-26T09:15:01Z</time></trkpt><trkpt lat="44.32751267260687" lon="12.214424666865774"><ele>-1.3333333333333333</ele><time>2026-04-26T09:15:02Z</time></trkpt><trkpt lat="44.32773177286733" lon="12.214383818340071"><ele>-1.0</ele><time>2026-04-26T09:15:03Z</time></trkpt><trkpt lat="44.32795507111978" lon="12.214339579121221"><ele>-1.0</ele><time>2026-04-26T09:15:04Z</time></trkpt><trkpt lat="44.328178295934805" lon="12.214294840548753"><ele>-1.0</ele><time>2026-04-26T09:15:05Z</time></trkpt><trkpt lat="44.32840485851342" lon="12.21424545156104"><ele>-1.0</ele><time>2026-04-26T09:15:06Z</time></trkpt><trkpt lat="44.328632185367155" lon="12.214198844563485"><ele>-1.0</ele><time>2026-04-26T09:15:07Z</time></trkpt><trkpt lat="44.32885992415327" lon="12.214149652289043"><ele>-1.0</ele><time>2026-04-26T09:15:08Z</time></trkpt><trkpt lat="44.32908989411187" lon="12.21410039758392"><ele>-1.0</ele><time>2026-04-26T09:15:09Z</time></trkpt><trkpt lat="44.329320546919725" lon="12.21404695020348"><ele>-1.0</ele><time>2026-04-26T09:15:10Z</time></trkpt><trkpt lat="44.3295518151233" lon="12.213992541342506"><ele>-1.0</ele><time>2026-04-26T09:15:11Z</time></trkpt><trkpt lat="44.329782110621686" lon="12.213940824608668"><ele>-1.0</ele><time>2026-04-26T09:15:12Z</time></trkpt><trkpt lat="44.33001576019422" lon="12.213882751109155"><ele>-1.0</ele><time>2026-04-26T09:15:13.001Z</time></trkpt><trkpt lat="44.330249948180786" lon="12.213825624266821"><ele>-1.0</ele><time>2026-04-26T09:15:14.001Z</time></trkpt><trkpt lat="44.33048360949118" lon="12.213770316441007"><ele>-1.0</ele><time>2026-04-26T09:15:15.001Z</time></trkpt><trkpt lat="44.330717184249465" lon="12.213714944944076"><ele>-0.5</ele><time>2026-04-26T09:15:16.001Z</time></trkpt><trkpt lat="44.33095180422085" lon="12.213659091894936"><ele>0.0</ele><time>2026-04-26T09:15:17.001Z</time></trkpt><trkpt lat="44.33118548264742" lon="12.213600017484241"><ele>-0.5</ele><time>2026-04-26T09:15:18.001Z</time></trkpt><trkpt lat="44.331418564982215" lon="12.213535834765874"><ele>-1.0</ele><time>2026-04-26T09:15:19.001Z</time></trkpt><trkpt lat="44.33164859885973" lon="12.21347199805487"><ele>-1.0</ele><time>2026-04-26T09:15:20.001Z</time></trkpt><trkpt lat="44.33187622997463" lon="12.21340862782562"><ele>-1.0</ele><time>2026-04-26T09:15:21.001Z</time></trkpt><trkpt lat="44.33210182869537" lon="12.213347379960208"><ele>-1.0</ele><time>2026-04-26T09:15:22.001Z</time></trkpt><trkpt lat="44.33232708672604" lon="12.213284738844091"><ele>-1.0</ele><time>2026-04-26T09:15:23.001Z</time></trkpt><trkpt lat="44.33254995649355" lon="12.213221103057828"><ele>-2.0</ele><time>2026-04-26T09:15:24.001Z</time></trkpt><trkpt lat="44.33277177706326" lon="12.213154508304484"><ele>-3.0</ele><time>2026-04-26T09:15:25.001Z</time></trkpt><trkpt lat="44.33299785257232" lon="12.21308553363828"><ele>-2.0</ele><time>2026-04-26T09:15:26.001Z</time></trkpt><trkpt lat="44.33322082149016" lon="12.213023937408902"><ele>-1.0</ele><time>2026-04-26T09:15:27.001Z</time></trkpt><trkpt lat="44.333448057650514" lon="12.21295362672598"><ele>-1.0</ele><time>2026-04-26T09:15:28.001Z</time></trkpt><trkpt lat="44.33367476944743" lon="12.212881888295671"><ele>-1.0</ele><time>2026-04-26T09:15:29.001Z</time></trkpt><trkpt lat="44.33390023636032" lon="12.212808538492885"><ele>-0.5</ele><time>2026-04-26T09:15:30.001Z</time></trkpt><trkpt lat="44.334125963782164" lon="12.2127381204658"><ele>0.0</ele><time>2026-04-26T09:15:31.001Z</time></trkpt><trkpt lat="44.334353679504396" lon="12.212668793996205"><ele>0.0</ele><time>2026-04-26T09:15:32.001Z</time></trkpt><trkpt lat="44.33458823256841" lon="12.212594191365607"><ele>0.0</ele><time>2026-04-26T09:15:33.001Z</time></trkpt><trkpt lat="44.33482412852626" lon="12.21251484868821"><ele>0.5</ele><time>2026-04-26T09:15:34.001Z</time></trkpt><trkpt lat="44.33506343125695" lon="12.212433880794682"><ele>1.0</ele><time>2026-04-26T09:15:35.001Z</time></trkpt><trkpt lat="44.33530082593167" lon="12.21235553153725"><ele>0.5</ele><time>2026-04-26T09:15:36.001Z</time></trkpt><trkpt lat="44.33553548989734" lon="12.212270890231514"><ele>0.0</ele><time>2026-04-26T09:15:37.001Z</time></trkpt><trkpt lat="44.335768184006376" lon="12.212187034188238"><ele>0.0</ele><time>2026-04-26T09:15:38.001Z</time></trkpt><trkpt lat="44.33600094890954" lon="12.212099751744733"><ele>0.0</ele><time>2026-04-26T09:15:39.001Z</time></trkpt><trkpt lat="44.33623067924069" lon="12.212015646630869"><ele>0.0</ele><time>2026-04-26T09:15:40.001Z</time></trkpt><trkpt lat="44.33645783113012" lon="12.211932985667616"><ele>0.0</ele><time>2026-04-26T09:15:41.001Z</time></trkpt><trkpt lat="44.33667980112671" lon="12.211849774779267"><ele>0.0</ele><time>2026-04-26T09:15:42.001Z</time></trkpt><trkpt lat="44.336899630440314" lon="12.211767055477004"><ele>0.0</ele><time>2026-04-26T09:15:43.001Z</time></trkpt><trkpt lat="44.33711711738181" lon="12.211685842436278"><ele>0.0</ele><time>2026-04-26T09:15:44.001Z</time></trkpt><trkpt lat="44.337332676527225" lon="12.21160106340687"><ele>0.0</ele><time>2026-04-26T09:15:45.001Z</time></trkpt><trkpt lat="44.33754495890709" lon="12.21151641366528"><ele>0.0</ele><time>2026-04-26T09:15:46.001Z</time></trkpt><trkpt lat="44.33775902171645" lon="12.21142722507961"><ele>-0.6666666666666666</ele><time>2026-04-26T09:15:47.001Z</time></trkpt><trkpt lat="44.33797190967023" lon="12.211339339764747"><ele>-1.3333333333333333</ele><time>2026-04-26T09:15:48.001Z</time></trkpt><trkpt lat="44.338185874508966" lon="12.211253293884258"><ele>-2.0</ele><time>2026-04-26T09:15:49.001Z</time></trkpt><trkpt lat="44.3384007616279" lon="12.211167726386922"><ele>-2.0</ele><time>2026-04-26T09:15:50.001Z</time></trkpt><trkpt lat="44.33861529325474" lon="12.211081759803482"><ele>-2.0</ele><time>2026-04-26T09:15:51.001Z</time></trkpt><trkpt lat="44.338830008632875" lon="12.210991547509074"><ele>-2.0</ele><time>2026-04-26T09:15:52.001Z</time></trkpt><trkpt lat="44.33904619697969" lon="12.210896180104896"><ele>-1.6666666666666665</ele><time>2026-04-26T09:15:53.001Z</time></trkpt><trkpt lat="44.339257424475" lon="12.210801098768725"><ele>-1.3333333333333333</ele><time>2026-04-26T09:15:54.001Z</time></trkpt><trkpt lat="44.339468016036925" lon="12.210707323075912"><ele>-1.0</ele><time>2026-04-26T09:15:55.001Z</time></trkpt><trkpt lat="44.339672984654726" lon="12.210618773209823"><ele>-1.3333333333333333</ele><time>2026-04-26T09:15:56.001Z</time></trkpt><trkpt lat="44.33987467473701" lon="12.210528090744917"><ele>-1.6666666666666665</ele><time>2026-04-26T09:15:57.001Z</time></trkpt><trkpt lat="44.34007413310483" lon="12.21044000285022"><ele>-2.0</ele><time>2026-04-26T09:15:58.001Z</time></trkpt><trkpt lat="44.34027349073863" lon="12.210351719808866"><ele>-2.0</ele><time>2026-04-26T09:15:59.001Z</time></trkpt><trkpt lat="44.340470916906355" lon="12.21026183585779"><ele>-2.0</ele><time>2026-04-26T09:16:00.001Z</time></trkpt><trkpt lat="44.3406678948121" lon="12.210170616062873"><ele>-2.0</ele><time>2026-04-26T09:16:01.001Z</time></trkpt><trkpt lat="44.34086437255286" lon="12.210078858845273"><ele>-1.6666666666666665</ele><time>2026-04-26T09:16:02.001Z</time></trkpt><trkpt lat="44.341063778270424" lon="12.209983950384357"><ele>-1.3333333333333333</ele><time>2026-04-26T09:16:03.001Z</time></trkpt><trkpt lat="44.34126227501447" lon="12.209889289113606"><ele>-1.0</ele><time>2026-04-26T09:16:04.001Z</time></trkpt><trkpt lat="44.34146263933665" lon="12.209793960858683"><ele>-1.0</ele><time>2026-04-26T09:16:05.001Z</time></trkpt><trkpt lat="44.34166544154694" lon="12.209697571646617"><ele>-1.0</ele><time>2026-04-26T09:16:06.001Z</time></trkpt><trkpt lat="44.34186948378576" lon="12.209598310385356"><ele>-1.0</ele><time>2026-04-26T09:16:07.001Z</time></trkpt><trkpt lat="44.34207475634993" lon="12.209497146856547"><ele>-1.3333333333333333</ele><time>2026-04-26T09:16:08.001Z</time></trkpt><trkpt lat="44.34228165486998" lon="12.209396103164886"><ele>-1.6666666666666665</ele><time>2026-04-26T09:16:09.001Z</time></trkpt><trkpt lat="44.34248796196486" lon="12.20929185144312"><ele>-2.0</ele><time>2026-04-26T09:16:10.001Z</time></trkpt><trkpt lat="44.342692596096214" lon="12.2091868384595"><ele>-2.0</ele><time>2026-04-26T09:16:11.001Z</time></trkpt><trkpt lat="44.34289379191547" lon="12.209084101739405"><ele>-2.0</ele><time>2026-04-26T09:16:12.001Z</time></trkpt><trkpt lat="44.34309570279809" lon="12.208980563479448"><ele>-2.0</ele><time>2026-04-26T09:16:13.001Z</time></trkpt><trkpt lat="44.343298387739544" lon="12.2088769677437"><ele>-2.0</ele><time>2026-04-26T09:16:14.001Z</time></trkpt><trkpt lat="44.34350244915883" lon="12.208772083753773"><ele>-2.0</ele><time>2026-04-26T09:16:15.001Z</time></trkpt><trkpt lat="44.34370406264109" lon="12.208666089373546"><ele>-2.0</ele><time>2026-04-26T09:16:16.001Z</time></trkpt><trkpt lat="44.343904693801704" lon="12.208558542337126"><ele>-1.6666666666666665</ele><time>2026-04-26T09:16:17.001Z</time></trkpt><trkpt lat="44.34410565344001" lon="12.208450796750336"><ele>-1.3333333333333333</ele><time>2026-04-26T09:16:18.001Z</time></trkpt><trkpt lat="44.34430722714603" lon="12.208342457218963"><ele>-1.0</ele><time>2026-04-26T09:16:19.001Z</time></trkpt><trkpt lat="44.344508012780786" lon="12.208235548994674"><ele>-1.0</ele><time>2026-04-26T09:16:20.001Z</time></trkpt><trkpt lat="44.344708992067105" lon="12.208126387331227"><ele>-1.0</ele><time>2026-04-26T09:16:21.001Z</time></trkpt><trkpt lat="44.344910118878865" lon="12.208017778973632"><ele>-1.0</ele><time>2026-04-26T09:16:22.001Z</time></trkpt><trkpt lat="44.345111496692844" lon="12.20791090659537"><ele>-1.0</ele><time>2026-04-26T09:16:23.002Z</time></trkpt><trkpt lat="44.34531161550097" lon="12.207803543836404"><ele>-1.0</ele><time>2026-04-26T09:16:24.002Z</time></trkpt><trkpt lat="44.34551239487113" lon="12.207695422618357"><ele>-1.0</ele><time>2026-04-26T09:16:25.002Z</time></trkpt><trkpt lat="44.345716111956094" lon="12.207586980759993"><ele>-1.0</ele><time>2026-04-26T09:16:26.002Z</time></trkpt><trkpt lat="44.345917492744164" lon="12.207475686539999"><ele>-1.0</ele><time>2026-04-26T09:16:27.002Z</time></trkpt><trkpt lat="44.34612159957467" lon="12.207363407754002"><ele>-1.0</ele><time>2026-04-26T09:16:28.002Z</time></trkpt><trkpt lat="44.34632549108217" lon="12.207254980009761"><ele>-1.0</ele><time>2026-04-26T09:16:29.002Z</time></trkpt><trkpt lat="44.346532920971875" lon="12.20714278835979"><ele>-1.0</ele><time>2026-04-26T09:16:30.002Z</time></trkpt><trkpt lat="44.346739999505324" lon="12.207032587501573"><ele>-1.0</ele><time>2026-04-26T09:16:31.002Z</time></trkpt><trkpt lat="44.346948200758106" lon="12.206921553234787"><ele>-1.0</ele><time>2026-04-26T09:16:32.002Z</time></trkpt><trkpt lat="44.34715762125596" lon="12.206810235799114"><ele>-1.0</ele><time>2026-04-26T09:16:33.002Z</time></trkpt><trkpt lat="44.347365089332996" lon="12.206699663891339"><ele>-1.0</ele><time>2026-04-26T09:16:34.002Z</time></trkpt><trkpt lat="44.34757354596293" lon="12.206589190092119"><ele>-0.6666666666666666</ele><time>2026-04-26T09:16:35.002Z</time></trkpt><trkpt lat="44.34778103827279" lon="12.206478769144093"><ele>-0.3333333333333333</ele><time>2026-04-26T09:16:36.002Z</time></trkpt><trkpt lat="44.34798991597242" lon="12.206368942756539"><ele>0.0</ele><time>2026-04-26T09:16:37.002Z</time></trkpt><trkpt lat="44.34819901004143" lon="12.206258134434075"><ele>0.0</ele><time>2026-04-26T09:16:38.002Z</time></trkpt><trkpt lat="44.34840986553432" lon="12.206142970544281"><ele>0.0</ele><time>2026-04-26T09:16:39.002Z</time></trkpt><trkpt lat="44.34861830008427" lon="12.2060293466404"><ele>0.0</ele><time>2026-04-26T09:16:40.002Z</time></trkpt><trkpt lat="44.348826451054286" lon="12.205921550873995"><ele>0.0</ele><time>2026-04-26T09:16:41.002Z</time></trkpt><trkpt lat="44.349036724899186" lon="12.205813230697807"><ele>0.0</ele><time>2026-04-26T09:16:42.002Z</time></trkpt><trkpt lat="44.34924175114423" lon="12.205708103668638"><ele>-0.3333333333333333</ele><time>2026-04-26T09:16:43.002Z</time></trkpt><trkpt lat="44.34944225028432" lon="12.20560652943225"><ele>-0.6666666666666666</ele><time>2026-04-26T09:16:44.002Z</time></trkpt><trkpt lat="44.349633932145366" lon="12.20551344396139"><ele>-1.0</ele><time>2026-04-26T09:16:45Z</time></trkpt><trkpt lat="44.34982217687551" lon="12.205425719480708"><ele>-1.0</ele><time>2026-04-26T09:16:46Z</time></trkpt><trkpt lat="44.35000924661467" lon="12.205335028143498"><ele>-1.0</ele><time>2026-04-26T09:16:47Z</time></trkpt><trkpt lat="44.35019549961912" lon="12.205251475915487"><ele>-1.0</ele><time>2026-04-26T09:16:48Z</time></trkpt><trkpt lat="44.35038147952779" lon="12.205164581526267"><ele>-0.6666666666666666</ele><time>2026-04-26T09:16:49Z</time></trkpt><trkpt lat="44.35056676001791" lon="12.205077349974697"><ele>-0.3333333333333333</ele><time>2026-04-26T09:16:50Z</time></trkpt><trkpt lat="44.350754023131735" lon="12.204994958649849"><ele>0.0</ele><time>2026-04-26T09:16:51Z</time></trkpt><trkpt lat="44.35094299160043" lon="12.204911686077708"><ele>0.0</ele><time>2026-04-26T09:16:52Z</time></trkpt><trkpt lat="44.3511357889296" lon="12.204827665390344"><ele>0.0</ele><time>2026-04-26T09:16:53Z</time></trkpt><trkpt lat="44.35132725102728" lon="12.204741480386124"><ele>0.0</ele><time>2026-04-26T09:16:54Z</time></trkpt><trkpt lat="44.351521107823054" lon="12.20465770114799"><ele>0.0</ele><time>2026-04-26T09:16:55Z</time></trkpt><trkpt lat="44.35171209400519" lon="12.204572581436581"><ele>0.0</ele><time>2026-04-26T09:16:56Z</time></trkpt><trkpt lat="44.35190489593914" lon="12.204489319303985"><ele>0.0</ele><time>2026-04-26T09:16:57Z</time></trkpt><trkpt lat="44.352096809053165" lon="12.204408804870793"><ele>-0.3333333333333333</ele><time>2026-04-26T09:16:58Z</time></trkpt><trkpt lat="44.352290198403004" lon="12.20432777532793"><ele>-0.6666666666666666</ele><time>2026-04-26T09:16:59Z</time></trkpt><trkpt lat="44.35248840457681" lon="12.204246689125013"><ele>-1.0</ele><time>2026-04-26T09:17:00Z</time></trkpt><trkpt lat="44.35268547667536" lon="12.204165671694334"><ele>-1.0</ele><time>2026-04-26T09:17:01Z</time></trkpt><trkpt lat="44.35288889677259" lon="12.204082297552269"><ele>-1.0</ele><time>2026-04-26T09:17:02Z</time></trkpt><trkpt lat="44.35310396404272" lon="12.203998021272627"><ele>-1.0</ele><time>2026-04-26T09:17:03Z</time></trkpt><trkpt lat="44.35332435990974" lon="12.203918439450124"><ele>-1.0</ele><time>2026-04-26T09:17:04Z</time></trkpt><trkpt lat="44.35354561679073" lon="12.203841996202135"><ele>-1.0</ele><time>2026-04-26T09:17:05Z</time></trkpt><trkpt lat="44.35376273419932" lon="12.203766587297082"><ele>-0.3333333333333333</ele><time>2026-04-26T09:17:06Z</time></trkpt><trkpt lat="44.3539802749006" lon="12.203688032726399"><ele>0.3333333333333333</ele><time>2026-04-26T09:17:07Z</time></trkpt><trkpt lat="44.35419596311864" lon="12.203610176957273"><ele>1.0</ele><time>2026-04-26T09:17:08Z</time></trkpt><trkpt lat="44.35441015820702" lon="12.203531671704747"><ele>1.0</ele><time>2026-04-26T09:17:09Z</time></trkpt><trkpt lat="44.35462093345155" lon="12.203455678309487"><ele>1.0</ele><time>2026-04-26T09:17:10Z</time></trkpt><trkpt lat="44.35482559205869" lon="12.203389756135445"><ele>1.0</ele><time>2026-04-26T09:17:11Z</time></trkpt><trkpt lat="44.35502215321094" lon="12.203326788027336"><ele>0.6666666666666666</ele><time>2026-04-26T09:17:12Z</time></trkpt><trkpt lat="44.355221636291375" lon="12.203266592384827"><ele>0.3333333333333333</ele><time>2026-04-26T09:17:13Z</time></trkpt><trkpt lat="44.355425544824534" lon="12.203206062044202"><ele>0.0</ele><time>2026-04-26T09:17:14Z</time></trkpt><trkpt lat="44.35562833310737" lon="12.20314687976818"><ele>0.0</ele><time>2026-04-26T09:17:15Z</time></trkpt><trkpt lat="44.35581851143141" lon="12.203093695533267"><ele>0.0</ele><time>2026-04-26T09:17:16Z</time></trkpt><trkpt lat="44.355998562705814" lon="12.203041443047233"><ele>0.0</ele><time>2026-04-26T09:17:17Z</time></trkpt><trkpt lat="44.3561733691543" lon="12.20299387326053"><ele>0.0</ele><time>2026-04-26T09:17:18Z</time></trkpt><trkpt lat="44.35633979485259" lon="12.202949637900373"><ele>0.0</ele><time>2026-04-26T09:17:19Z</time></trkpt><trkpt lat="44.356496680406046" lon="12.202910637364173"><ele>0.0</ele><time>2026-04-26T09:17:20Z</time></trkpt><trkpt lat="44.35665427498725" lon="12.20287199338003"><ele>0.0</ele><time>2026-04-26T09:17:21Z</time></trkpt><trkpt lat="44.35681449338865" lon="12.2028374837792"><ele>0.0</ele><time>2026-04-26T09:17:22Z</time></trkpt><trkpt lat="44.356987044168264" lon="12.202806846533488"><ele>0.0</ele><time>2026-04-26T09:17:23Z</time></trkpt><trkpt lat="44.35716908671514" lon="12.202788310483207"><ele>0.0</ele><time>2026-04-26T09:17:24Z</time></trkpt><trkpt lat="44.357361386501964" lon="12.202780193361825"><ele>0.0</ele><time>2026-04-26T09:17:25Z</time></trkpt><trkpt lat="44.357566135834716" lon="12.202754139742812"><ele>0.0</ele><time>2026-04-26T09:17:26Z</time></trkpt><trkpt lat="44.35779386060274" lon="12.202706436576836"><ele>-1.0</ele><time>2026-04-26T09:17:27Z</time></trkpt><trkpt lat="44.358039146946226" lon="12.202651811311215"><ele>-2.0</ele><time>2026-04-26T09:17:28Z</time></trkpt><trkpt lat="44.35829356312722" lon="12.202602150135721"><ele>-2.0</ele><time>2026-04-26T09:17:29Z</time></trkpt><trkpt lat="44.35855415676227" lon="12.202557484718104"><ele>-2.0</ele><time>2026-04-26T09:17:30Z</time></trkpt><trkpt lat="44.35882164325073" lon="12.202518524906647"><ele>-1.5</ele><time>2026-04-26T09:17:31.001Z</time></trkpt><trkpt lat="44.359094717348746" lon="12.202482644656257"><ele>-1.0</ele><time>2026-04-26T09:17:32.001Z</time></trkpt><trkpt lat="44.35937385469969" lon="12.202444042531377"><ele>-1.0</ele><time>2026-04-26T09:17:33.001Z</time></trkpt><trkpt lat="44.35965505355636" lon="12.202412699827343"><ele>-1.0</ele><time>2026-04-26T09:17:34.001Z</time></trkpt><trkpt lat="44.35993726454739" lon="12.202387261828573"><ele>-0.5</ele><time>2026-04-26T09:17:35.001Z</time></trkpt><trkpt lat="44.36022330123243" lon="12.202361515852628"><ele>0.0</ele><time>2026-04-26T09:17:36.001Z</time></trkpt><trkpt lat="44.36050992576889" lon="12.202340984768428"><ele>-0.5</ele><time>2026-04-26T09:17:37.001Z</time></trkpt><trkpt lat="44.36079878380289" lon="12.202321273573205"><ele>-1.0</ele><time>2026-04-26T09:17:38.001Z</time></trkpt><trkpt lat="44.36109104900034" lon="12.202307642138807"><ele>-1.0</ele><time>2026-04-26T09:17:39.001Z</time></trkpt><trkpt lat="44.361387565108835" lon="12.20230255884238"><ele>-1.0</ele><time>2026-04-26T09:17:40.001Z</time></trkpt><trkpt lat="44.36168220743841" lon="12.202306941640902"><ele>-1.0</ele><time>2026-04-26T09:17:41.001Z</time></trkpt><trkpt lat="44.36197747554675" lon="12.2023115928589"><ele>-1.0</ele><time>2026-04-26T09:17:42.001Z</time></trkpt><trkpt lat="44.362268099887885" lon="12.202310877237034"><ele>-0.5</ele><time>2026-04-26T09:17:43.001Z</time></trkpt><trkpt lat="44.3625562951467" lon="12.202305421127601"><ele>0.0</ele><time>2026-04-26T09:17:44.001Z</time></trkpt><trkpt lat="44.362843485335" lon="12.202312503641052"><ele>-0.5</ele><time>2026-04-26T09:17:45.001Z</time></trkpt><trkpt lat="44.363136506262705" lon="12.202321906141666"><ele>-1.0</ele><time>2026-04-26T09:17:46.001Z</time></trkpt><trkpt lat="44.36342355542104" lon="12.202339117403314"><ele>-1.0</ele><time>2026-04-26T09:17:47.001Z</time></trkpt><trkpt lat="44.36371181219579" lon="12.202357883352708"><ele>-1.0</ele><time>2026-04-26T09:17:48.001Z</time></trkpt><trkpt lat="44.364000455548904" lon="12.202378545709307"><ele>-0.5</ele><time>2026-04-26T09:17:49.001Z</time></trkpt><trkpt lat="44.364289010399354" lon="12.202402392868956"><ele>0.0</ele><time>2026-04-26T09:17:50.001Z</time></trkpt><trkpt lat="44.36457929450996" lon="12.20242724525954"><ele>-0.5</ele><time>2026-04-26T09:17:51.001Z</time></trkpt><trkpt lat="44.36486619568047" lon="12.20245471245892"><ele>-1.0</ele><time>2026-04-26T09:17:52.001Z</time></trkpt><trkpt lat="44.36515179949435" lon="12.202488099373664"><ele>-1.0</ele><time>2026-04-26T09:17:53.001Z</time></trkpt><trkpt lat="44.36544101991779" lon="12.202525844884189"><ele>-1.0</ele><time>2026-04-26T09:17:54.001Z</time></trkpt><trkpt lat="44.365729449720355" lon="12.202565574840513"><ele>-1.0</ele><time>2026-04-26T09:17:55.001Z</time></trkpt><trkpt lat="44.36601250273604" lon="12.202603771179401"><ele>-1.0</ele><time>2026-04-26T09:17:56.001Z</time></trkpt><trkpt lat="44.366295724289024" lon="12.202645932692672"><ele>-1.5</ele><time>2026-04-26T09:17:57.001Z</time></trkpt><trkpt lat="44.366579835195644" lon="12.20268694324251"><ele>-2.0</ele><time>2026-04-26T09:17:58.001Z</time></trkpt><trkpt lat="44.36686132501808" lon="12.202732002926776"><ele>-2.0</ele><time>2026-04-26T09:17:59.001Z</time></trkpt><trkpt lat="44.367140092627814" lon="12.202780378299504"><ele>-2.0</ele><time>2026-04-26T09:18:00.001Z</time></trkpt><trkpt lat="44.3674154738736" lon="12.20283135812664"><ele>-1.5</ele><time>2026-04-26T09:18:01.001Z</time></trkpt><trkpt lat="44.36769112061239" lon="12.202884979822223"><ele>-1.0</ele><time>2026-04-26T09:18:02.001Z</time></trkpt><trkpt lat="44.36796362126751" lon="12.202941203017392"><ele>-1.0</ele><time>2026-04-26T09:18:03.001Z</time></trkpt><trkpt lat="44.368239842528745" lon="12.203002906776378"><ele>-1.0</ele><time>2026-04-26T09:18:04.001Z</time></trkpt><trkpt lat="44.36851489475184" lon="12.203067952380941"><ele>-1.0</ele><time>2026-04-26T09:18:05.001Z</time></trkpt><trkpt lat="44.368790448003736" lon="12.203138650688764"><ele>-1.0</ele><time>2026-04-26T09:18:06.001Z</time></trkpt><trkpt lat="44.36906404167134" lon="12.20320763661487"><ele>-1.0</ele><time>2026-04-26T09:18:07.001Z</time></trkpt><trkpt lat="44.369340368355786" lon="12.203276288354653"><ele>-1.0</ele><time>2026-04-26T09:18:08.001Z</time></trkpt><trkpt lat="44.36961703944902" lon="12.203344679026875"><ele>-0.5</ele><time>2026-04-26T09:18:09.001Z</time></trkpt><trkpt lat="44.36988885263574" lon="12.203416680396463"><ele>0.0</ele><time>2026-04-26T09:18:10.001Z</time></trkpt><trkpt lat="44.37016356828694" lon="12.20349625318272"><ele>0.0</ele><time>2026-04-26T09:18:11.001Z</time></trkpt><trkpt lat="44.37044028596765" lon="12.203586803054046"><ele>0.0</ele><time>2026-04-26T09:18:12.001Z</time></trkpt><trkpt lat="44.37071213708356" lon="12.2036836174615"><ele>0.0</ele><time>2026-04-26T09:18:13.001Z</time></trkpt><trkpt lat="44.370979471025215" lon="12.203783394436797"><ele>0.0</ele><time>2026-04-26T09:18:14.001Z</time></trkpt><trkpt lat="44.371248459275215" lon="12.203889304973089"><ele>0.0</ele><time>2026-04-26T09:18:15.001Z</time></trkpt><trkpt lat="44.371518551299886" lon="12.20399908509386"><ele>0.0</ele><time>2026-04-26T09:18:16.001Z</time></trkpt><trkpt lat="44.371785834075055" lon="12.204109328832256"><ele>0.0</ele><time>2026-04-26T09:18:17.001Z</time></trkpt><trkpt lat="44.37205244757717" lon="12.204237206216831"><ele>0.0</ele><time>2026-04-26T09:18:18.001Z</time></trkpt><trkpt lat="44.372319638074444" lon="12.20437072724728"><ele>-1.0</ele><time>2026-04-26T09:18:19.001Z</time></trkpt><trkpt lat="44.37258527645406" lon="12.204502176905004"><ele>-2.0</ele><time>2026-04-26T09:18:20.001Z</time></trkpt><trkpt lat="44.37285194376686" lon="12.204642154132756"><ele>-2.5</ele><time>2026-04-26T09:18:21.001Z</time></trkpt><trkpt lat="44.37310497284169" lon="12.204780137925345"><ele>-3.0</ele><time>2026-04-26T09:18:22.001Z</time></trkpt><trkpt lat="44.373361600520255" lon="12.204919121075557"><ele>-2.0</ele><time>2026-04-26T09:18:23.001Z</time></trkpt><trkpt lat="44.373614513235125" lon="12.205057149868646"><ele>-1.0</ele><time>2026-04-26T09:18:24.001Z</time></trkpt><trkpt lat="44.373867956603654" lon="12.20520092963921"><ele>-1.0</ele><time>2026-04-26T09:18:25.001Z</time></trkpt><trkpt lat="44.37412198806766" lon="12.205339386048584"><ele>-1.0</ele><time>2026-04-26T09:18:26.001Z</time></trkpt><trkpt lat="44.37437631686209" lon="12.205480698775172"><ele>-1.0</ele><time>2026-04-26T09:18:27.001Z</time></trkpt><trkpt lat="44.37462944712751" lon="12.205616868348663"><ele>-1.0</ele><time>2026-04-26T09:18:28.001Z</time></trkpt><trkpt lat="44.37488601043383" lon="12.205757634472878"><ele>-0.5</ele><time>2026-04-26T09:18:29.001Z</time></trkpt><trkpt lat="44.37512874501421" lon="12.205902611531169"><ele>0.0</ele><time>2026-04-26T09:18:30.001Z</time></trkpt><trkpt lat="44.37537431297788" lon="12.206060722584205"><ele>0.0</ele><time>2026-04-26T09:18:31.001Z</time></trkpt><trkpt lat="44.37563527916166" lon="12.206227822929174"><ele>0.0</ele><time>2026-04-26T09:18:32.001Z</time></trkpt><trkpt lat="44.37590293425448" lon="12.20639901062346"><ele>0.0</ele><time>2026-04-26T09:18:33.001Z</time></trkpt><trkpt lat="44.37617120235522" lon="12.206575281150657"><ele>0.0</ele><time>2026-04-26T09:18:34.001Z</time></trkpt><trkpt lat="44.376437589585386" lon="12.206755364953498"><ele>0.0</ele><time>2026-04-26T09:18:35.001Z</time></trkpt><trkpt lat="44.37669395340883" lon="12.206935940800216"><ele>0.0</ele><time>2026-04-26T09:18:36.001Z</time></trkpt><trkpt lat="44.37694995125774" lon="12.20711542998668"><ele>0.5</ele><time>2026-04-26T09:18:37.001Z</time></trkpt><trkpt lat="44.377200749597826" lon="12.20729280636031"><ele>1.0</ele><time>2026-04-26T09:18:38.001Z</time></trkpt><trkpt lat="44.377447418510776" lon="12.207471161567495"><ele>2.0</ele><time>2026-04-26T09:18:39.002Z</time></trkpt><trkpt lat="44.3776912375167" lon="12.207651395978209"><ele>3.0</ele><time>2026-04-26T09:18:40.002Z</time></trkpt><trkpt lat="44.377928972221916" lon="12.20783082963471"><ele>2.5</ele><time>2026-04-26T09:18:41.002Z</time></trkpt><trkpt lat="44.378161836703796" lon="12.208010028552943"><ele>2.0</ele><time>2026-04-26T09:18:42.002Z</time></trkpt><trkpt lat="44.37839374857101" lon="12.20818583984989"><ele>2.0</ele><time>2026-04-26T09:18:43.002Z</time></trkpt><trkpt lat="44.3786237634565" lon="12.208357957966863"><ele>2.0</ele><time>2026-04-26T09:18:44.002Z</time></trkpt><trkpt lat="44.378849726076204" lon="12.208529772768689"><ele>2.0</ele><time>2026-04-26T09:18:45.002Z</time></trkpt><trkpt lat="44.37928803211812" lon="12.208852201381882"><ele>2.0</ele><time>2026-04-26T09:18:47.002Z</time></trkpt><trkpt lat="44.379484540916565" lon="12.208999414711933"><ele>2.0</ele><time>2026-04-26T09:18:48.002Z</time></trkpt><trkpt lat="44.379666618908864" lon="12.209139477624355"><ele>2.0</ele><time>2026-04-26T09:18:49.002Z</time></trkpt><trkpt lat="44.379836231985514" lon="12.209272798748348"><ele>2.0</ele><time>2026-04-26T09:18:50.002Z</time></trkpt><trkpt lat="44.37999391061292" lon="12.209399702695775"><ele>2.0</ele><time>2026-04-26T09:18:51Z</time></trkpt><trkpt lat="44.380143008898116" lon="12.209514862629142"><ele>2.0</ele><time>2026-04-26T09:18:52Z</time></trkpt><trkpt lat="44.3802637009234" lon="12.209627295818484"><ele>2.0</ele><time>2026-04-26T09:18:53Z</time></trkpt><trkpt lat="44.3803675683427" lon="12.209741970106721"><ele>2.0</ele><time>2026-04-26T09:18:54Z</time></trkpt><trkpt lat="44.38044793555711" lon="12.209866942718655"><ele>2.0</ele><time>2026-04-26T09:18:55Z</time></trkpt><trkpt lat="44.38050447344329" lon="12.210029186404029"><ele>2.0</ele><time>2026-04-26T09:18:56Z</time></trkpt><trkpt lat="44.38052521732797" lon="12.210215481854783"><ele>2.0</ele><time>2026-04-26T09:18:57Z</time></trkpt><trkpt lat="44.3805088390259" lon="12.210408701079558"><ele>2.0</ele><time>2026-04-26T09:18:58Z</time></trkpt><trkpt lat="44.38044938345029" lon="12.210587038454843"><ele>2.0</ele><time>2026-04-26T09:18:59Z</time></trkpt><trkpt lat="44.38036036360523" lon="12.210743682929863"><ele>2.0</ele><time>2026-04-26T09:19:00Z</time></trkpt><trkpt lat="44.38024100823277" lon="12.210853429801086"><ele>1.75</ele><time>2026-04-26T09:19:01Z</time></trkpt><trkpt lat="44.38010954131486" lon="12.210912910379706"><ele>1.5</ele><time>2026-04-26T09:19:02Z</time></trkpt><trkpt lat="44.37996494910184" lon="12.210909390630825"><ele>1.25</ele><time>2026-04-26T09:19:03Z</time></trkpt><trkpt lat="44.3798260174679" lon="12.210863534912646"><ele>1.0</ele><time>2026-04-26T09:19:04Z</time></trkpt><trkpt lat="44.37970659188053" lon="12.210767913950633"><ele>1.0</ele><time>2026-04-26T09:19:05Z</time></trkpt><trkpt lat="44.37961355042608" lon="12.21062780320703"><ele>1.0</ele><time>2026-04-26T09:19:06Z</time></trkpt><trkpt lat="44.379557536640775" lon="12.210446972667974"><ele>1.0</ele><time>2026-04-26T09:19:07Z</time></trkpt><trkpt lat="44.379532426182436" lon="12.210245542077494"><ele>1.0</ele><time>2026-04-26T09:19:08Z</time></trkpt><trkpt lat="44.37954705142191" lon="12.210041656806762"><ele>1.0</ele><time>2026-04-26T09:19:09Z</time></trkpt><trkpt lat="44.37960237062176" lon="12.209847033336164"><ele>1.0</ele><time>2026-04-26T09:19:10Z</time></trkpt><trkpt lat="44.37968541529466" lon="12.209655150845702"><ele>1.0</ele><time>2026-04-26T09:19:11Z</time></trkpt><trkpt lat="44.37976092709362" lon="12.20944927265633"><ele>1.0</ele><time>2026-04-26T09:19:12Z</time></trkpt><trkpt lat="44.37982783372347" lon="12.209238542784169"><ele>1.0</ele><time>2026-04-26T09:19:13Z</time></trkpt><trkpt lat="44.37988530088994" lon="12.20902026773495"><ele>1.0</ele><time>2026-04-26T09:19:14Z</time></trkpt><trkpt lat="44.379950217408904" lon="12.208794021955574"><ele>1.0</ele><time>2026-04-26T09:19:15Z</time></trkpt><trkpt lat="44.3800261938477" lon="12.208536646052318"><ele>1.0</ele><time>2026-04-26T09:19:16Z</time></trkpt><trkpt lat="44.380104451621285" lon="12.208275462165325"><ele>1.0</ele><time>2026-04-26T09:19:17Z</time></trkpt><trkpt lat="44.380186148435854" lon="12.208021181408254"><ele>1.0</ele><time>2026-04-26T09:19:18Z</time></trkpt><trkpt lat="44.380267550004966" lon="12.207766591495206"><ele>1.0</ele><time>2026-04-26T09:19:19Z</time></trkpt><trkpt lat="44.380346989050636" lon="12.207523533571962"><ele>1.0</ele><time>2026-04-26T09:19:20Z</time></trkpt><trkpt lat="44.38042536288584" lon="12.20728580197578"><ele>1.0</ele><time>2026-04-26T09:19:21Z</time></trkpt><trkpt lat="44.380503963870794" lon="12.207045824884414"><ele>1.0</ele><time>2026-04-26T09:19:22Z</time></trkpt><trkpt lat="44.38058163892341" lon="12.206808515215833"><ele>1.0</ele><time>2026-04-26T09:19:23Z</time></trkpt><trkpt lat="44.38065649215287" lon="12.206567373340564"><ele>1.0</ele><time>2026-04-26T09:19:24Z</time></trkpt><trkpt lat="44.38073153466173" lon="12.206330828538873"><ele>1.0</ele><time>2026-04-26T09:19:25Z</time></trkpt><trkpt lat="44.38080777433974" lon="12.206097035909066"><ele>1.0</ele><time>2026-04-26T09:19:26Z</time></trkpt><trkpt lat="44.380882427224925" lon="12.205870131455358"><ele>0.3333333333333333</ele><time>2026-04-26T09:19:27Z</time></trkpt><trkpt lat="44.3809570712463" lon="12.205640183227473"><ele>-0.3333333333333333</ele><time>2026-04-26T09:19:28Z</time></trkpt><trkpt lat="44.38103337796442" lon="12.205409586126367"><ele>-1.0</ele><time>2026-04-26T09:19:29Z</time></trkpt><trkpt lat="44.381106166643484" lon="12.205176583581665"><ele>-1.0</ele><time>2026-04-26T09:19:30Z</time></trkpt><trkpt lat="44.38117632265932" lon="12.204949491921303"><ele>-1.0</ele><time>2026-04-26T09:19:31Z</time></trkpt><trkpt lat="44.38125094359266" lon="12.204723577634065"><ele>-1.0</ele><time>2026-04-26T09:19:32Z</time></trkpt><trkpt lat="44.3813257897527" lon="12.20449732041227"><ele>-0.6666666666666666</ele><time>2026-04-26T09:19:33Z</time></trkpt><trkpt lat="44.38139922408492" lon="12.204264375824707"><ele>-0.3333333333333333</ele><time>2026-04-26T09:19:34Z</time></trkpt><trkpt lat="44.381471720647006" lon="12.204028122538823"><ele>0.0</ele><time>2026-04-26T09:19:35Z</time></trkpt><trkpt lat="44.381550771385236" lon="12.203801222066156"><ele>0.3333333333333333</ele><time>2026-04-26T09:19:36Z</time></trkpt><trkpt lat="44.38162372513795" lon="12.203574491707577"><ele>0.6666666666666666</ele><time>2026-04-26T09:19:37Z</time></trkpt><trkpt lat="44.381698091986266" lon="12.203347193479878"><ele>1.0</ele><time>2026-04-26T09:19:38Z</time></trkpt><trkpt lat="44.38177291515284" lon="12.203115552154395"><ele>1.0</ele><time>2026-04-26T09:19:39Z</time></trkpt><trkpt lat="44.38185618496099" lon="12.202888042215246"><ele>1.0</ele><time>2026-04-26T09:19:40Z</time></trkpt><trkpt lat="44.381932456808734" lon="12.202644907517668"><ele>1.0</ele><time>2026-04-26T09:19:41Z</time></trkpt><trkpt lat="44.38200587313978" lon="12.202412750348346"><ele>1.0</ele><time>2026-04-26T09:19:42Z</time></trkpt><trkpt lat="44.38207745084804" lon="12.202175764883659"><ele>1.0</ele><time>2026-04-26T09:19:43Z</time></trkpt><trkpt lat="44.38215125428743" lon="12.20193959749648"><ele>1.0</ele><time>2026-04-26T09:19:44Z</time></trkpt><trkpt lat="44.38222789740132" lon="12.201695734142339"><ele>1.0</ele><time>2026-04-26T09:19:45Z</time></trkpt><trkpt lat="44.382305292914886" lon="12.201455074119886"><ele>1.0</ele><time>2026-04-26T09:19:46Z</time></trkpt><trkpt lat="44.38238398254571" lon="12.201212028568882"><ele>1.0</ele><time>2026-04-26T09:19:47Z</time></trkpt><trkpt lat="44.38245898560602" lon="12.200976028521259"><ele>1.0</ele><time>2026-04-26T09:19:48Z</time></trkpt><trkpt lat="44.38254068787302" lon="12.200747130813463"><ele>1.0</ele><time>2026-04-26T09:19:49Z</time></trkpt><trkpt lat="44.382614148291566" lon="12.200507193302277"><ele>1.0</ele><time>2026-04-26T09:19:50Z</time></trkpt><trkpt lat="44.38268881886108" lon="12.200274408153192"><ele>1.0</ele><time>2026-04-26T09:19:51Z</time></trkpt><trkpt lat="44.3827614859672" lon="12.200046065110573"><ele>1.0</ele><time>2026-04-26T09:19:52Z</time></trkpt><trkpt lat="44.38283195057786" lon="12.199832986274835"><ele>1.0</ele><time>2026-04-26T09:19:53Z</time></trkpt><trkpt lat="44.38289198084863" lon="12.199630671075353"><ele>1.0</ele><time>2026-04-26T09:19:54Z</time></trkpt><trkpt lat="44.38293353812132" lon="12.199436056749544"><ele>1.0</ele><time>2026-04-26T09:19:55.001Z</time></trkpt><trkpt lat="44.38296778937567" lon="12.19924418889315"><ele>1.0</ele><time>2026-04-26T09:19:56.001Z</time></trkpt><trkpt lat="44.38301010131631" lon="12.199046528591989"><ele>1.0</ele><time>2026-04-26T09:19:57.001Z</time></trkpt><trkpt lat="44.38308794932121" lon="12.198859859460086"><ele>1.3333333333333333</ele><time>2026-04-26T09:19:58.001Z</time></trkpt><trkpt lat="44.383152481186734" lon="12.198660031063124"><ele>1.6666666666666665</ele><time>2026-04-26T09:19:59.001Z</time></trkpt><trkpt lat="44.383214193208694" lon="12.19846812600512"><ele>2.0</ele><time>2026-04-26T09:20:00.001Z</time></trkpt><trkpt lat="44.38326194336952" lon="12.198270055004425"><ele>2.0</ele><time>2026-04-26T09:20:01.001Z</time></trkpt><trkpt lat="44.38332655052157" lon="12.198077255853269"><ele>2.0</ele><time>2026-04-26T09:20:02.001Z</time></trkpt><trkpt lat="44.38339064798147" lon="12.197888483903725"><ele>2.0</ele><time>2026-04-26T09:20:03.001Z</time></trkpt><trkpt lat="44.38345323115131" lon="12.197699451066434"><ele>2.0</ele><time>2026-04-26T09:20:04.001Z</time></trkpt><trkpt lat="44.38351450020399" lon="12.19750985428526"><ele>2.0</ele><time>2026-04-26T09:20:05.001Z</time></trkpt><trkpt lat="44.38357268284159" lon="12.197323427621884"><ele>2.0</ele><time>2026-04-26T09:20:06.001Z</time></trkpt><trkpt lat="44.383632852561" lon="12.197130337572426"><ele>2.0</ele><time>2026-04-26T09:20:07.001Z</time></trkpt><trkpt lat="44.383691609237786" lon="12.196942689311587"><ele>1.75</ele><time>2026-04-26T09:20:08.001Z</time></trkpt><trkpt lat="44.38375689521284" lon="12.196760042401328"><ele>1.5</ele><time>2026-04-26T09:20:09.001Z</time></trkpt><trkpt lat="44.38381677099083" lon="12.196574047981668"><ele>1.25</ele><time>2026-04-26T09:20:10.001Z</time></trkpt><trkpt lat="44.383876819916765" lon="12.196389476245416"><ele>1.0</ele><time>2026-04-26T09:20:11.001Z</time></trkpt><trkpt lat="44.38393300319149" lon="12.196215871832681"><ele>1.5</ele><time>2026-04-26T09:20:12.001Z</time></trkpt><trkpt lat="44.38398981783698" lon="12.196044397019987"><ele>2.0</ele><time>2026-04-26T09:20:13.001Z</time></trkpt><trkpt lat="44.38404080184359" lon="12.195886629023443"><ele>2.5</ele><time>2026-04-26T09:20:14.001Z</time></trkpt><trkpt lat="44.38410130078856" lon="12.195748122363531"><ele>3.0</ele><time>2026-04-26T09:20:15.001Z</time></trkpt><trkpt lat="44.384141865283745" lon="12.195610854591822"><ele>3.3333333333333335</ele><time>2026-04-26T09:20:16.001Z</time></trkpt><trkpt lat="44.384182553957686" lon="12.195485863053738"><ele>3.666666666666667</ele><time>2026-04-26T09:20:17.001Z</time></trkpt><trkpt lat="44.38421418617417" lon="12.195386217051682"><ele>4.0</ele><time>2026-04-26T09:20:18.001Z</time></trkpt><trkpt lat="44.384244329256056" lon="12.195298957018395"><ele>4.333333333333334</ele><time>2026-04-26T09:20:19.001Z</time></trkpt><trkpt lat="44.38430543723476" lon="12.195177651822217"><ele>4.666666666666667</ele><time>2026-04-26T09:20:21.001Z</time></trkpt><trkpt lat="44.384375144169006" lon="12.195119216467083"><ele>5.0</ele><time>2026-04-26T09:20:24.001Z</time></trkpt><trkpt lat="44.38448742103247" lon="12.195091839697524"><ele>5.0</ele><time>2026-04-26T09:20:26.001Z</time></trkpt><trkpt lat="44.38456990275426" lon="12.195088900058785"><ele>5.0</ele><time>2026-04-26T09:20:27.001Z</time></trkpt><trkpt lat="44.384646054055544" lon="12.19510548073492"><ele>5.0</ele><time>2026-04-26T09:20:28.001Z</time></trkpt><trkpt lat="44.384717234353054" lon="12.19515404742065"><ele>5.0</ele><time>2026-04-26T09:20:29.001Z</time></trkpt><trkpt lat="44.38484066801957" lon="12.195273360466313"><ele>5.0</ele><time>2026-04-26T09:20:31.001Z</time></trkpt><trkpt lat="44.3849110995241" lon="12.195327504254736"><ele>5.166666666666667</ele><time>2026-04-26T09:20:32.001Z</time></trkpt><trkpt lat="44.38497621852189" lon="12.195379157465023"><ele>5.333333333333334</ele><time>2026-04-26T09:20:33.001Z</time></trkpt><trkpt lat="44.38503723813964" lon="12.195422401512047"><ele>5.5</ele><time>2026-04-26T09:20:34.001Z</time></trkpt><trkpt lat="44.38509526462091" lon="12.195461846029168"><ele>5.666666666666667</ele><time>2026-04-26T09:20:35.001Z</time></trkpt><trkpt lat="44.38520375425294" lon="12.195525287984877"><ele>5.833333333333333</ele><time>2026-04-26T09:20:37.001Z</time></trkpt><trkpt lat="44.385312391695884" lon="12.195571752517635"><ele>6.0</ele><time>2026-04-26T09:20:39.001Z</time></trkpt><trkpt lat="44.38538927248868" lon="12.195618650702654"><ele>6.0</ele><time>2026-04-26T09:20:40.001Z</time></trkpt><trkpt lat="44.38547689160943" lon="12.195650146397329"><ele>6.0</ele><time>2026-04-26T09:20:41.001Z</time></trkpt><trkpt lat="44.385581469689875" lon="12.195684927598615"><ele>6.0</ele><time>2026-04-26T09:20:42.001Z</time></trkpt><trkpt lat="44.38570487967379" lon="12.195722505428746"><ele>6.0</ele><time>2026-04-26T09:20:43.001Z</time></trkpt><trkpt lat="44.38583924659845" lon="12.195756034997077"><ele>5.75</ele><time>2026-04-26T09:20:44.001Z</time></trkpt><trkpt lat="44.38597516337527" lon="12.195796206445998"><ele>5.5</ele><time>2026-04-26T09:20:45.001Z</time></trkpt><trkpt lat="44.38611750711717" lon="12.195844039674471"><ele>5.25</ele><time>2026-04-26T09:20:46.001Z</time></trkpt><trkpt lat="44.38625595092661" lon="12.195890870485364"><ele>5.0</ele><time>2026-04-26T09:20:47.001Z</time></trkpt><trkpt lat="44.38640980022209" lon="12.195941760591618"><ele>4.333333333333334</ele><time>2026-04-26T09:20:48.001Z</time></trkpt><trkpt lat="44.386562187061955" lon="12.195983213551793"><ele>3.666666666666667</ele><time>2026-04-26T09:20:49.001Z</time></trkpt><trkpt lat="44.38671993787336" lon="12.196025121060748"><ele>3.0</ele><time>2026-04-26T09:20:50.001Z</time></trkpt><trkpt lat="44.38688032459702" lon="12.196069660127282"><ele>3.0</ele><time>2026-04-26T09:20:51.001Z</time></trkpt><trkpt lat="44.387039264398396" lon="12.196145068790466"><ele>3.0</ele><time>2026-04-26T09:20:52.001Z</time></trkpt><trkpt lat="44.38721195797099" lon="12.196198716708423"><ele>3.0</ele><time>2026-04-26T09:20:53.001Z</time></trkpt><trkpt lat="44.38738913858968" lon="12.196253758561944"><ele>3.333333333333333</ele><time>2026-04-26T09:20:54.001Z</time></trkpt><trkpt lat="44.38757097252175" lon="12.196310245986606"><ele>3.6666666666666665</ele><time>2026-04-26T09:20:55.001Z</time></trkpt><trkpt lat="44.387755696464865" lon="12.196367631195567"><ele>4.0</ele><time>2026-04-26T09:20:56.001Z</time></trkpt><trkpt lat="44.38794289227534" lon="12.196407692327673"><ele>3.6666666666666665</ele><time>2026-04-26T09:20:57.001Z</time></trkpt><trkpt lat="44.38812409417705" lon="12.19646700371339"><ele>3.333333333333333</ele><time>2026-04-26T09:20:58.001Z</time></trkpt><trkpt lat="44.38831220760338" lon="12.196523143201084"><ele>3.0</ele><time>2026-04-26T09:20:59.002Z</time></trkpt><trkpt lat="44.388503231634" lon="12.196577611398707"><ele>3.0</ele><time>2026-04-26T09:21:00.002Z</time></trkpt><trkpt lat="44.388697676711224" lon="12.196638511314017"><ele>3.0</ele><time>2026-04-26T09:21:01.002Z</time></trkpt><trkpt lat="44.38888816845145" lon="12.196722281046663"><ele>3.0</ele><time>2026-04-26T09:21:02.002Z</time></trkpt><trkpt lat="44.3890811253412" lon="12.196775951242694"><ele>3.666666666666667</ele><time>2026-04-26T09:21:03.002Z</time></trkpt><trkpt lat="44.389277264195115" lon="12.196816461125694"><ele>4.333333333333334</ele><time>2026-04-26T09:21:04.002Z</time></trkpt><trkpt lat="44.389472150324714" lon="12.196864833290443"><ele>5.0</ele><time>2026-04-26T09:21:05.002Z</time></trkpt><trkpt lat="44.38967606923803" lon="12.196894873592566"><ele>5.0</ele><time>2026-04-26T09:21:06.002Z</time></trkpt><trkpt lat="44.38986950022703" lon="12.196909892777132"><ele>5.0</ele><time>2026-04-26T09:21:07.002Z</time></trkpt><trkpt lat="44.390068226923326" lon="12.196924699357583"><ele>5.0</ele><time>2026-04-26T09:21:08.002Z</time></trkpt><trkpt lat="44.39026632338002" lon="12.19693931155511"><ele>5.0</ele><time>2026-04-26T09:21:09.002Z</time></trkpt><trkpt lat="44.39046420499883" lon="12.196951958194633"><ele>5.0</ele><time>2026-04-26T09:21:10.002Z</time></trkpt><trkpt lat="44.39065782300068" lon="12.196965748690834"><ele>5.0</ele><time>2026-04-26T09:21:11.002Z</time></trkpt><trkpt lat="44.3908531148484" lon="12.196975275869493"><ele>4.666666666666667</ele><time>2026-04-26T09:21:12.002Z</time></trkpt><trkpt lat="44.39104325721628" lon="12.19698804193371"><ele>4.333333333333333</ele><time>2026-04-26T09:21:13.002Z</time></trkpt><trkpt lat="44.39123346032577" lon="12.197002260597774"><ele>4.0</ele><time>2026-04-26T09:21:14.002Z</time></trkpt><trkpt lat="44.391422728135694" lon="12.197017174407193"><ele>4.0</ele><time>2026-04-26T09:21:15.002Z</time></trkpt><trkpt lat="44.39160346640455" lon="12.197034324026646"><ele>4.0</ele><time>2026-04-26T09:21:16.002Z</time></trkpt><trkpt lat="44.39178545437948" lon="12.19704677093425"><ele>4.0</ele><time>2026-04-26T09:21:17.002Z</time></trkpt><trkpt lat="44.39195998422565" lon="12.19705868168345"><ele>4.0</ele><time>2026-04-26T09:21:18.002Z</time></trkpt><trkpt lat="44.39213327327194" lon="12.197072479891053"><ele>4.0</ele><time>2026-04-26T09:21:19.002Z</time></trkpt><trkpt lat="44.392305241612256" lon="12.197084266069815"><ele>4.0</ele><time>2026-04-26T09:21:20.002Z</time></trkpt><trkpt lat="44.392475354636524" lon="12.197094998346213"><ele>3.333333333333333</ele><time>2026-04-26T09:21:21.002Z</time></trkpt><trkpt lat="44.39263721926462" lon="12.197132525749202"><ele>2.6666666666666665</ele><time>2026-04-26T09:21:22.002Z</time></trkpt><trkpt lat="44.39280960403135" lon="12.197142067785597"><ele>2.0</ele><time>2026-04-26T09:21:23.002Z</time></trkpt><trkpt lat="44.39297465792534" lon="12.1971519765723"><ele>2.333333333333333</ele><time>2026-04-26T09:21:24.002Z</time></trkpt><trkpt lat="44.39313391703164" lon="12.197163262778242"><ele>2.6666666666666665</ele><time>2026-04-26T09:21:25.002Z</time></trkpt><trkpt lat="44.39328203665546" lon="12.197169512911367"><ele>3.0</ele><time>2026-04-26T09:21:26.002Z</time></trkpt><trkpt lat="44.3934271117398" lon="12.19717509837959"><ele>3.0</ele><time>2026-04-26T09:21:27.002Z</time></trkpt><trkpt lat="44.39356624808683" lon="12.197176559122239"><ele>3.0</ele><time>2026-04-26T09:21:28.002Z</time></trkpt><trkpt lat="44.393710288572464" lon="12.197185536692034"><ele>3.0</ele><time>2026-04-26T09:21:29.002Z</time></trkpt><trkpt lat="44.39385409650098" lon="12.197196676163593"><ele>3.0</ele><time>2026-04-26T09:21:30.002Z</time></trkpt><trkpt lat="44.39399813564216" lon="12.19720125813687"><ele>2.5</ele><time>2026-04-26T09:21:31.002Z</time></trkpt><trkpt lat="44.39413898331641" lon="12.197208838998188"><ele>2.0</ele><time>2026-04-26T09:21:32.002Z</time></trkpt><trkpt lat="44.39427732631135" lon="12.197208228524614"><ele>1.5</ele><time>2026-04-26T09:21:33.002Z</time></trkpt><trkpt lat="44.394416810385216" lon="12.197209536049142"><ele>1.0</ele><time>2026-04-26T09:21:34.002Z</time></trkpt><trkpt lat="44.394560614453894" lon="12.197202269347148"><ele>0.75</ele><time>2026-04-26T09:21:35.002Z</time></trkpt><trkpt lat="44.39470686130397" lon="12.19722438925069"><ele>0.5</ele><time>2026-04-26T09:21:36.002Z</time></trkpt><trkpt lat="44.39485606445052" lon="12.197231869693073"><ele>0.25</ele><time>2026-04-26T09:21:37.002Z</time></trkpt><trkpt lat="44.395004513178186" lon="12.197216824739368"><ele>0.0</ele><time>2026-04-26T09:21:38.002Z</time></trkpt><trkpt lat="44.395151390064655" lon="12.197224527053308"><ele>0.0</ele><time>2026-04-26T09:21:39.002Z</time></trkpt><trkpt lat="44.39529837615783" lon="12.197234470880224"><ele>0.0</ele><time>2026-04-26T09:21:40.002Z</time></trkpt><trkpt lat="44.39544670598871" lon="12.197243074549295"><ele>0.0</ele><time>2026-04-26T09:21:41.002Z</time></trkpt><trkpt lat="44.395584094611934" lon="12.19725000014566"><ele>0.0</ele><time>2026-04-26T09:21:42.002Z</time></trkpt><trkpt lat="44.395722693872976" lon="12.197251294900159"><ele>0.5</ele><time>2026-04-26T09:21:43.002Z</time></trkpt><trkpt lat="44.395858764385345" lon="12.197242616679906"><ele>1.0</ele><time>2026-04-26T09:21:44.002Z</time></trkpt><trkpt lat="44.39598543128765" lon="12.197213121432602"><ele>1.5</ele><time>2026-04-26T09:21:45.002Z</time></trkpt><trkpt lat="44.396106110254124" lon="12.197168702151176"><ele>2.0</ele><time>2026-04-26T09:21:46.002Z</time></trkpt><trkpt lat="44.39622223766468" lon="12.197110681557733"><ele>2.0</ele><time>2026-04-26T09:21:47.002Z</time></trkpt><trkpt lat="44.39633170066819" lon="12.19704208548951"><ele>2.0</ele><time>2026-04-26T09:21:48.002Z</time></trkpt><trkpt lat="44.396448282087036" lon="12.19700669191526"><ele>2.0</ele><time>2026-04-26T09:21:49.002Z</time></trkpt><trkpt lat="44.39656486377221" lon="12.19694382449733"><ele>2.0</ele><time>2026-04-26T09:21:50.002Z</time></trkpt><trkpt lat="44.396681092948185" lon="12.196884765825384"><ele>1.75</ele><time>2026-04-26T09:21:51.002Z</time></trkpt><trkpt lat="44.3968088275464" lon="12.196854570694363"><ele>1.5</ele><time>2026-04-26T09:21:52.002Z</time></trkpt><trkpt lat="44.396943380217074" lon="12.196836458871706"><ele>1.25</ele><time>2026-04-26T09:21:53.002Z</time></trkpt><trkpt lat="44.39707535498306" lon="12.19683051816165"><ele>1.0</ele><time>2026-04-26T09:21:54.002Z</time></trkpt><trkpt lat="44.39719086212724" lon="12.196834955361835"><ele>1.0</ele><time>2026-04-26T09:21:55.002Z</time></trkpt><trkpt lat="44.397299543606856" lon="12.196833881480764"><ele>1.0</ele><time>2026-04-26T09:21:56.002Z</time></trkpt><trkpt lat="44.397408135887176" lon="12.196832377532138"><ele>1.0</ele><time>2026-04-26T09:21:57.002Z</time></trkpt><trkpt lat="44.397520412227806" lon="12.196826660685312"><ele>1.0</ele><time>2026-04-26T09:21:58.002Z</time></trkpt><trkpt lat="44.39763994559251" lon="12.196819714789731"><ele>1.0</ele><time>2026-04-26T09:21:59.002Z</time></trkpt><trkpt lat="44.39776881927652" lon="12.196810726557393"><ele>1.0</ele><time>2026-04-26T09:22:00.002Z</time></trkpt><trkpt lat="44.39789846553262" lon="12.196810292335163"><ele>1.0</ele><time>2026-04-26T09:22:01.002Z</time></trkpt><trkpt lat="44.398032513527326" lon="12.196806742849507"><ele>1.0</ele><time>2026-04-26T09:22:02.002Z</time></trkpt><trkpt lat="44.398167706952485" lon="12.19680128206121"><ele>1.0</ele><time>2026-04-26T09:22:03.003Z</time></trkpt><trkpt lat="44.39830698149622" lon="12.196799162713383"><ele>1.5</ele><time>2026-04-26T09:22:04.003Z</time></trkpt><trkpt lat="44.398445180230866" lon="12.196802114555542"><ele>2.0</ele><time>2026-04-26T09:22:05.003Z</time></trkpt><trkpt lat="44.398587367994956" lon="12.196804258777204"><ele>2.5</ele><time>2026-04-26T09:22:06.003Z</time></trkpt><trkpt lat="44.39872722734804" lon="12.19679271520828"><ele>3.0</ele><time>2026-04-26T09:22:07.003Z</time></trkpt><trkpt lat="44.398852690522226" lon="12.196788511988645"><ele>3.25</ele><time>2026-04-26T09:22:08.003Z</time></trkpt><trkpt lat="44.3989837616199" lon="12.19678501248225"><ele>3.5</ele><time>2026-04-26T09:22:09.003Z</time></trkpt><trkpt lat="44.39911057014951" lon="12.196771727409939"><ele>3.75</ele><time>2026-04-26T09:22:10.003Z</time></trkpt><trkpt lat="44.39923021960317" lon="12.196749965622281"><ele>4.0</ele><time>2026-04-26T09:22:11.003Z</time></trkpt><trkpt lat="44.39934877261259" lon="12.196768873634369"><ele>4.0</ele><time>2026-04-26T09:22:12.003Z</time></trkpt><trkpt lat="44.399470806708834" lon="12.196752736700871"><ele>4.0</ele><time>2026-04-26T09:22:13.003Z</time></trkpt><trkpt lat="44.399589626614066" lon="12.196738223887696"><ele>4.0</ele><time>2026-04-26T09:22:14.003Z</time></trkpt><trkpt lat="44.39970810741698" lon="12.1967230979479"><ele>4.0</ele><time>2026-04-26T09:22:15.003Z</time></trkpt><trkpt lat="44.39981935752034" lon="12.19670827617779"><ele>3.8000000000000003</ele><time>2026-04-26T09:22:16.003Z</time></trkpt><trkpt lat="44.39992553290623" lon="12.196702329663836"><ele>3.6000000000000005</ele><time>2026-04-26T09:22:17.003Z</time></trkpt><trkpt lat="44.40003674733846" lon="12.196708769029572"><ele>3.4</ele><time>2026-04-26T09:22:18.003Z</time></trkpt><trkpt lat="44.400144067135486" lon="12.196704815171412"><ele>3.2</ele><time>2026-04-26T09:22:19.003Z</time></trkpt><trkpt lat="44.40024902656675" lon="12.196701025172858"><ele>3.0</ele><time>2026-04-26T09:22:20.003Z</time></trkpt><trkpt lat="44.40034158021022" lon="12.1967026906019"><ele>2.9999999999999996</ele><time>2026-04-26T09:22:21.003Z</time></trkpt><trkpt lat="44.40041773443887" lon="12.196732773882855"><ele>3.0</ele><time>2026-04-26T09:22:22.003Z</time></trkpt><trkpt lat="44.40049741903576" lon="12.196733486930453"><ele>3.0</ele><time>2026-04-26T09:22:23.003Z</time></trkpt><trkpt lat="44.400569406904324" lon="12.196737744201396"><ele>3.0</ele><time>2026-04-26T09:22:24.003Z</time></trkpt><trkpt lat="44.40063992631614" lon="12.1967485083942"><ele>3.0</ele><time>2026-04-26T09:22:25.003Z</time></trkpt><trkpt lat="44.40070298570655" lon="12.196757860017689"><ele>2.9999999999999996</ele><time>2026-04-26T09:22:26.003Z</time></trkpt><trkpt lat="44.400767061255664" lon="12.19676368986956"><ele>3.0</ele><time>2026-04-26T09:22:27.003Z</time></trkpt><trkpt lat="44.40087050336094" lon="12.196773158985525"><ele>4.0</ele><time>2026-04-26T09:22:29.003Z</time></trkpt><trkpt lat="44.40093751472003" lon="12.19677859019847"><ele>4.0</ele><time>2026-04-26T09:22:31.003Z</time></trkpt></trkseg></trk></gpx>